<?xml version="1.0" encoding="UTF-8" standalone="no" ?>
<gpx xmlns="http://www.topografix.com/GPX/1/1" xmlns:xsi="http://www.w3.org/2001/XMLSchema-instance" xsi:schemaLocation="http://www.topografix.com/GPX/1/1 http://www.topografix.com/GPX/1/1/gpx.xsd" version="1.1" creator="VisuGPX - https://www.visugpx.com">
  <metadata>
    <name>Tricotage autour de Crop</name>
  </metadata>
  <trk>
    <name><![CDATA[Tricotage autour de Crop_1]]></name>
    <trkseg>
      <trkpt lat="45.22644" lon="5.99392">
        <ele>1339.4</ele>
        <time>2021-04-17T05:24:10Z</time>
      </trkpt>
      <trkpt lat="45.22642" lon="5.99391">
        <ele>1339.8</ele>
        <time>2021-04-17T05:24:12Z</time>
      </trkpt>
      <trkpt lat="45.22639" lon="5.99389">
        <ele>1339.8</ele>
        <time>2021-04-17T05:24:14Z</time>
      </trkpt>
      <trkpt lat="45.22633" lon="5.99387">
        <ele>1339.8</ele>
        <time>2021-04-17T05:24:20Z</time>
      </trkpt>
      <trkpt lat="45.22625" lon="5.9939">
        <ele>1339.6</ele>
        <time>2021-04-17T05:24:26Z</time>
      </trkpt>
      <trkpt lat="45.22622" lon="5.99391">
        <ele>1339.4</ele>
        <time>2021-04-17T05:24:28Z</time>
      </trkpt>
      <trkpt lat="45.2262" lon="5.99391">
        <ele>1339.4</ele>
        <time>2021-04-17T05:24:30Z</time>
      </trkpt>
      <trkpt lat="45.22616" lon="5.99388">
        <ele>1339.4</ele>
        <time>2021-04-17T05:24:34Z</time>
      </trkpt>
      <trkpt lat="45.22611" lon="5.99388">
        <ele>1339.4</ele>
        <time>2021-04-17T05:24:37Z</time>
      </trkpt>
      <trkpt lat="45.22609" lon="5.99388">
        <ele>1339.4</ele>
        <time>2021-04-17T05:24:39Z</time>
      </trkpt>
      <trkpt lat="45.22604" lon="5.99388">
        <ele>1339.2</ele>
        <time>2021-04-17T05:24:45Z</time>
      </trkpt>
      <trkpt lat="45.22601" lon="5.99388">
        <ele>1339.2</ele>
        <time>2021-04-17T05:24:47Z</time>
      </trkpt>
      <trkpt lat="45.226" lon="5.99386">
        <ele>1339</ele>
        <time>2021-04-17T05:24:49Z</time>
      </trkpt>
      <trkpt lat="45.22599" lon="5.99386">
        <ele>1339</ele>
        <time>2021-04-17T05:24:51Z</time>
      </trkpt>
      <trkpt lat="45.22596" lon="5.99386">
        <ele>1338.6</ele>
        <time>2021-04-17T05:24:53Z</time>
      </trkpt>
      <trkpt lat="45.22594" lon="5.99387">
        <ele>1338.6</ele>
        <time>2021-04-17T05:24:54Z</time>
      </trkpt>
      <trkpt lat="45.22592" lon="5.99387">
        <ele>1338.4</ele>
        <time>2021-04-17T05:24:55Z</time>
      </trkpt>
      <trkpt lat="45.22589" lon="5.99386">
        <ele>1338.4</ele>
        <time>2021-04-17T05:24:57Z</time>
      </trkpt>
      <trkpt lat="45.22584" lon="5.99387">
        <ele>1338.4</ele>
        <time>2021-04-17T05:24:59Z</time>
      </trkpt>
      <trkpt lat="45.2258" lon="5.99386">
        <ele>1338.4</ele>
        <time>2021-04-17T05:25:01Z</time>
      </trkpt>
      <trkpt lat="45.22576" lon="5.99385">
        <ele>1338.4</ele>
        <time>2021-04-17T05:25:03Z</time>
      </trkpt>
      <trkpt lat="45.22571" lon="5.99383">
        <ele>1338.4</ele>
        <time>2021-04-17T05:25:06Z</time>
      </trkpt>
      <trkpt lat="45.22569" lon="5.99382">
        <ele>1338.6</ele>
        <time>2021-04-17T05:25:07Z</time>
      </trkpt>
      <trkpt lat="45.22567" lon="5.99382">
        <ele>1338.6</ele>
        <time>2021-04-17T05:25:08Z</time>
      </trkpt>
      <trkpt lat="45.22564" lon="5.99381">
        <ele>1338.8</ele>
        <time>2021-04-17T05:25:11Z</time>
      </trkpt>
      <trkpt lat="45.22562" lon="5.99381">
        <ele>1339</ele>
        <time>2021-04-17T05:25:12Z</time>
      </trkpt>
      <trkpt lat="45.22559" lon="5.9938">
        <ele>1339.2</ele>
        <time>2021-04-17T05:25:14Z</time>
      </trkpt>
      <trkpt lat="45.22555" lon="5.9938">
        <ele>1339.2</ele>
        <time>2021-04-17T05:25:17Z</time>
      </trkpt>
      <trkpt lat="45.22555" lon="5.9938">
        <ele>1339.2</ele>
        <time>2021-04-17T05:25:18Z</time>
      </trkpt>
      <trkpt lat="45.22553" lon="5.9938">
        <ele>1339.4</ele>
        <time>2021-04-17T05:25:20Z</time>
      </trkpt>
      <trkpt lat="45.22551" lon="5.99381">
        <ele>1339.4</ele>
        <time>2021-04-17T05:25:21Z</time>
      </trkpt>
      <trkpt lat="45.22548" lon="5.99381">
        <ele>1339.6</ele>
        <time>2021-04-17T05:25:24Z</time>
      </trkpt>
      <trkpt lat="45.22547" lon="5.99381">
        <ele>1339.8</ele>
        <time>2021-04-17T05:25:25Z</time>
      </trkpt>
      <trkpt lat="45.22542" lon="5.99383">
        <ele>1340</ele>
        <time>2021-04-17T05:25:30Z</time>
      </trkpt>
      <trkpt lat="45.22542" lon="5.99384">
        <ele>1340.2</ele>
        <time>2021-04-17T05:25:31Z</time>
      </trkpt>
      <trkpt lat="45.22538" lon="5.99388">
        <ele>1340.2</ele>
        <time>2021-04-17T05:25:35Z</time>
      </trkpt>
      <trkpt lat="45.22538" lon="5.99389">
        <ele>1340.2</ele>
        <time>2021-04-17T05:25:36Z</time>
      </trkpt>
      <trkpt lat="45.22537" lon="5.99389">
        <ele>1340.2</ele>
        <time>2021-04-17T05:25:37Z</time>
      </trkpt>
      <trkpt lat="45.22532" lon="5.99396">
        <ele>1340.4</ele>
        <time>2021-04-17T05:25:42Z</time>
      </trkpt>
      <trkpt lat="45.22531" lon="5.99397">
        <ele>1340.6</ele>
        <time>2021-04-17T05:25:43Z</time>
      </trkpt>
      <trkpt lat="45.22526" lon="5.99407">
        <ele>1341</ele>
        <time>2021-04-17T05:25:49Z</time>
      </trkpt>
      <trkpt lat="45.22523" lon="5.99415">
        <ele>1341</ele>
        <time>2021-04-17T05:25:54Z</time>
      </trkpt>
      <trkpt lat="45.22523" lon="5.99419">
        <ele>1341</ele>
        <time>2021-04-17T05:25:56Z</time>
      </trkpt>
      <trkpt lat="45.22522" lon="5.99425">
        <ele>1341.2</ele>
        <time>2021-04-17T05:25:59Z</time>
      </trkpt>
      <trkpt lat="45.22522" lon="5.99429">
        <ele>1341.4</ele>
        <time>2021-04-17T05:26:02Z</time>
      </trkpt>
      <trkpt lat="45.22521" lon="5.99435">
        <ele>1341.4</ele>
        <time>2021-04-17T05:26:05Z</time>
      </trkpt>
      <trkpt lat="45.22519" lon="5.99443">
        <ele>1341.4</ele>
        <time>2021-04-17T05:26:09Z</time>
      </trkpt>
      <trkpt lat="45.22519" lon="5.99448">
        <ele>1341.4</ele>
        <time>2021-04-17T05:26:11Z</time>
      </trkpt>
      <trkpt lat="45.2252" lon="5.99454">
        <ele>1341.4</ele>
        <time>2021-04-17T05:26:14Z</time>
      </trkpt>
      <trkpt lat="45.22519" lon="5.99462">
        <ele>1341.2</ele>
        <time>2021-04-17T05:26:17Z</time>
      </trkpt>
      <trkpt lat="45.22519" lon="5.99466">
        <ele>1341</ele>
        <time>2021-04-17T05:26:19Z</time>
      </trkpt>
      <trkpt lat="45.22517" lon="5.9947">
        <ele>1341</ele>
        <time>2021-04-17T05:26:21Z</time>
      </trkpt>
      <trkpt lat="45.22515" lon="5.99473">
        <ele>1341</ele>
        <time>2021-04-17T05:26:23Z</time>
      </trkpt>
      <trkpt lat="45.22515" lon="5.99479">
        <ele>1341</ele>
        <time>2021-04-17T05:26:26Z</time>
      </trkpt>
      <trkpt lat="45.22515" lon="5.99482">
        <ele>1341</ele>
        <time>2021-04-17T05:26:28Z</time>
      </trkpt>
      <trkpt lat="45.22514" lon="5.99486">
        <ele>1341</ele>
        <time>2021-04-17T05:26:30Z</time>
      </trkpt>
      <trkpt lat="45.22511" lon="5.9949">
        <ele>1341</ele>
        <time>2021-04-17T05:26:32Z</time>
      </trkpt>
      <trkpt lat="45.2251" lon="5.99494">
        <ele>1340.8</ele>
        <time>2021-04-17T05:26:34Z</time>
      </trkpt>
      <trkpt lat="45.2251" lon="5.99497">
        <ele>1340.4</ele>
        <time>2021-04-17T05:26:36Z</time>
      </trkpt>
      <trkpt lat="45.22508" lon="5.99504">
        <ele>1340</ele>
        <time>2021-04-17T05:26:40Z</time>
      </trkpt>
      <trkpt lat="45.22506" lon="5.99509">
        <ele>1339.4</ele>
        <time>2021-04-17T05:26:43Z</time>
      </trkpt>
      <trkpt lat="45.22506" lon="5.99511">
        <ele>1339.4</ele>
        <time>2021-04-17T05:26:44Z</time>
      </trkpt>
      <trkpt lat="45.22503" lon="5.99523">
        <ele>1339.4</ele>
        <time>2021-04-17T05:26:50Z</time>
      </trkpt>
      <trkpt lat="45.225" lon="5.9953">
        <ele>1339.4</ele>
        <time>2021-04-17T05:26:53Z</time>
      </trkpt>
      <trkpt lat="45.22495" lon="5.99542">
        <ele>1339</ele>
        <time>2021-04-17T05:26:59Z</time>
      </trkpt>
      <trkpt lat="45.22494" lon="5.99544">
        <ele>1339</ele>
        <time>2021-04-17T05:27:00Z</time>
      </trkpt>
      <trkpt lat="45.22491" lon="5.99548">
        <ele>1338.4</ele>
        <time>2021-04-17T05:27:03Z</time>
      </trkpt>
      <trkpt lat="45.22491" lon="5.9955">
        <ele>1338.4</ele>
        <time>2021-04-17T05:27:04Z</time>
      </trkpt>
      <trkpt lat="45.2249" lon="5.99555">
        <ele>1338.4</ele>
        <time>2021-04-17T05:27:06Z</time>
      </trkpt>
      <trkpt lat="45.22484" lon="5.99567">
        <ele>1338.4</ele>
        <time>2021-04-17T05:27:12Z</time>
      </trkpt>
      <trkpt lat="45.22482" lon="5.99571">
        <ele>1338.6</ele>
        <time>2021-04-17T05:27:14Z</time>
      </trkpt>
      <trkpt lat="45.22478" lon="5.99582">
        <ele>1338.8</ele>
        <time>2021-04-17T05:27:19Z</time>
      </trkpt>
      <trkpt lat="45.22476" lon="5.99586">
        <ele>1339</ele>
        <time>2021-04-17T05:27:21Z</time>
      </trkpt>
      <trkpt lat="45.22468" lon="5.99599">
        <ele>1338.8</ele>
        <time>2021-04-17T05:27:27Z</time>
      </trkpt>
      <trkpt lat="45.22468" lon="5.99601">
        <ele>1338.8</ele>
        <time>2021-04-17T05:27:28Z</time>
      </trkpt>
      <trkpt lat="45.22463" lon="5.9961">
        <ele>1338.8</ele>
        <time>2021-04-17T05:27:33Z</time>
      </trkpt>
      <trkpt lat="45.22463" lon="5.99614">
        <ele>1338.6</ele>
        <time>2021-04-17T05:27:35Z</time>
      </trkpt>
      <trkpt lat="45.2246" lon="5.9962">
        <ele>1338.6</ele>
        <time>2021-04-17T05:27:38Z</time>
      </trkpt>
      <trkpt lat="45.22456" lon="5.99628">
        <ele>1338.6</ele>
        <time>2021-04-17T05:27:42Z</time>
      </trkpt>
      <trkpt lat="45.22451" lon="5.99637">
        <ele>1338.8</ele>
        <time>2021-04-17T05:27:48Z</time>
      </trkpt>
      <trkpt lat="45.22449" lon="5.99642">
        <ele>1338.8</ele>
        <time>2021-04-17T05:27:51Z</time>
      </trkpt>
      <trkpt lat="45.22445" lon="5.99647">
        <ele>1339</ele>
        <time>2021-04-17T05:27:54Z</time>
      </trkpt>
      <trkpt lat="45.22439" lon="5.99654">
        <ele>1338.8</ele>
        <time>2021-04-17T05:27:59Z</time>
      </trkpt>
      <trkpt lat="45.22435" lon="5.99658">
        <ele>1338.6</ele>
        <time>2021-04-17T05:28:03Z</time>
      </trkpt>
      <trkpt lat="45.22431" lon="5.99659">
        <ele>1338.8</ele>
        <time>2021-04-17T05:28:05Z</time>
      </trkpt>
      <trkpt lat="45.22429" lon="5.9966">
        <ele>1338.8</ele>
        <time>2021-04-17T05:28:06Z</time>
      </trkpt>
      <trkpt lat="45.22425" lon="5.99662">
        <ele>1339</ele>
        <time>2021-04-17T05:28:09Z</time>
      </trkpt>
      <trkpt lat="45.22422" lon="5.99663">
        <ele>1339.4</ele>
        <time>2021-04-17T05:28:11Z</time>
      </trkpt>
      <trkpt lat="45.2242" lon="5.99664">
        <ele>1339.4</ele>
        <time>2021-04-17T05:28:12Z</time>
      </trkpt>
      <trkpt lat="45.22417" lon="5.99663">
        <ele>1339.8</ele>
        <time>2021-04-17T05:28:14Z</time>
      </trkpt>
      <trkpt lat="45.22406" lon="5.99661">
        <ele>1340.6</ele>
        <time>2021-04-17T05:28:20Z</time>
      </trkpt>
      <trkpt lat="45.22404" lon="5.99661">
        <ele>1340.6</ele>
        <time>2021-04-17T05:28:21Z</time>
      </trkpt>
      <trkpt lat="45.22393" lon="5.99659">
        <ele>1341.4</ele>
        <time>2021-04-17T05:28:25Z</time>
      </trkpt>
      <trkpt lat="45.22388" lon="5.99658">
        <ele>1341.6</ele>
        <time>2021-04-17T05:28:27Z</time>
      </trkpt>
      <trkpt lat="45.22385" lon="5.99656">
        <ele>1341.8</ele>
        <time>2021-04-17T05:28:29Z</time>
      </trkpt>
      <trkpt lat="45.22378" lon="5.9965">
        <ele>1341.8</ele>
        <time>2021-04-17T05:28:33Z</time>
      </trkpt>
      <trkpt lat="45.2237" lon="5.99643">
        <ele>1342</ele>
        <time>2021-04-17T05:28:38Z</time>
      </trkpt>
      <trkpt lat="45.22369" lon="5.99642">
        <ele>1342</ele>
        <time>2021-04-17T05:28:39Z</time>
      </trkpt>
      <trkpt lat="45.22367" lon="5.9964">
        <ele>1342</ele>
        <time>2021-04-17T05:28:41Z</time>
      </trkpt>
      <trkpt lat="45.22361" lon="5.99634">
        <ele>1342</ele>
        <time>2021-04-17T05:28:45Z</time>
      </trkpt>
      <trkpt lat="45.22356" lon="5.99633">
        <ele>1342.2</ele>
        <time>2021-04-17T05:28:48Z</time>
      </trkpt>
      <trkpt lat="45.2235" lon="5.99631">
        <ele>1342.6</ele>
        <time>2021-04-17T05:28:52Z</time>
      </trkpt>
      <trkpt lat="45.22349" lon="5.99629">
        <ele>1342.6</ele>
        <time>2021-04-17T05:28:53Z</time>
      </trkpt>
      <trkpt lat="45.22344" lon="5.99622">
        <ele>1342.8</ele>
        <time>2021-04-17T05:28:59Z</time>
      </trkpt>
      <trkpt lat="45.22342" lon="5.99619">
        <ele>1343</ele>
        <time>2021-04-17T05:29:01Z</time>
      </trkpt>
      <trkpt lat="45.22338" lon="5.99613">
        <ele>1343.4</ele>
        <time>2021-04-17T05:29:07Z</time>
      </trkpt>
      <trkpt lat="45.22337" lon="5.99613">
        <ele>1343.6</ele>
        <time>2021-04-17T05:29:08Z</time>
      </trkpt>
      <trkpt lat="45.22335" lon="5.99613">
        <ele>1343.6</ele>
        <time>2021-04-17T05:29:09Z</time>
      </trkpt>
      <trkpt lat="45.22331" lon="5.9961">
        <ele>1344</ele>
        <time>2021-04-17T05:29:13Z</time>
      </trkpt>
      <trkpt lat="45.22329" lon="5.99608">
        <ele>1344.6</ele>
        <time>2021-04-17T05:29:16Z</time>
      </trkpt>
      <trkpt lat="45.22327" lon="5.99603">
        <ele>1345.2</ele>
        <time>2021-04-17T05:29:20Z</time>
      </trkpt>
      <trkpt lat="45.22325" lon="5.99601">
        <ele>1345.8</ele>
        <time>2021-04-17T05:29:22Z</time>
      </trkpt>
      <trkpt lat="45.22321" lon="5.99599">
        <ele>1346.6</ele>
        <time>2021-04-17T05:29:26Z</time>
      </trkpt>
      <trkpt lat="45.2232" lon="5.99598">
        <ele>1346.8</ele>
        <time>2021-04-17T05:29:27Z</time>
      </trkpt>
      <trkpt lat="45.22318" lon="5.99595">
        <ele>1347.2</ele>
        <time>2021-04-17T05:29:29Z</time>
      </trkpt>
      <trkpt lat="45.22316" lon="5.99592">
        <ele>1348</ele>
        <time>2021-04-17T05:29:32Z</time>
      </trkpt>
      <trkpt lat="45.22315" lon="5.99592">
        <ele>1348.4</ele>
        <time>2021-04-17T05:29:33Z</time>
      </trkpt>
      <trkpt lat="45.22311" lon="5.99589">
        <ele>1349.2</ele>
        <time>2021-04-17T05:29:37Z</time>
      </trkpt>
      <trkpt lat="45.22311" lon="5.99589">
        <ele>1349.4</ele>
        <time>2021-04-17T05:29:38Z</time>
      </trkpt>
      <trkpt lat="45.2231" lon="5.99588">
        <ele>1349.6</ele>
        <time>2021-04-17T05:29:39Z</time>
      </trkpt>
      <trkpt lat="45.22306" lon="5.99587">
        <ele>1350.4</ele>
        <time>2021-04-17T05:29:42Z</time>
      </trkpt>
      <trkpt lat="45.22301" lon="5.99584">
        <ele>1351.4</ele>
        <time>2021-04-17T05:29:47Z</time>
      </trkpt>
      <trkpt lat="45.223" lon="5.99583">
        <ele>1351.8</ele>
        <time>2021-04-17T05:29:49Z</time>
      </trkpt>
      <trkpt lat="45.22297" lon="5.99582">
        <ele>1352.6</ele>
        <time>2021-04-17T05:29:52Z</time>
      </trkpt>
      <trkpt lat="45.22294" lon="5.99581">
        <ele>1353.8</ele>
        <time>2021-04-17T05:29:57Z</time>
      </trkpt>
      <trkpt lat="45.22292" lon="5.99582">
        <ele>1354.2</ele>
        <time>2021-04-17T05:29:59Z</time>
      </trkpt>
      <trkpt lat="45.22291" lon="5.99583">
        <ele>1355</ele>
        <time>2021-04-17T05:30:02Z</time>
      </trkpt>
      <trkpt lat="45.2229" lon="5.99581">
        <ele>1356</ele>
        <time>2021-04-17T05:30:06Z</time>
      </trkpt>
      <trkpt lat="45.22291" lon="5.99582">
        <ele>1357</ele>
        <time>2021-04-17T05:30:11Z</time>
      </trkpt>
      <trkpt lat="45.22289" lon="5.99583">
        <ele>1358.2</ele>
        <time>2021-04-17T05:30:16Z</time>
      </trkpt>
      <trkpt lat="45.2229" lon="5.99583">
        <ele>1358.6</ele>
        <time>2021-04-17T05:30:17Z</time>
      </trkpt>
      <trkpt lat="45.2229" lon="5.99585">
        <ele>1359.6</ele>
        <time>2021-04-17T05:30:21Z</time>
      </trkpt>
      <trkpt lat="45.22287" lon="5.99586">
        <ele>1360</ele>
        <time>2021-04-17T05:30:23Z</time>
      </trkpt>
      <trkpt lat="45.22285" lon="5.99586">
        <ele>1360.8</ele>
        <time>2021-04-17T05:30:26Z</time>
      </trkpt>
      <trkpt lat="45.22284" lon="5.99586">
        <ele>1361.2</ele>
        <time>2021-04-17T05:30:28Z</time>
      </trkpt>
      <trkpt lat="45.22282" lon="5.99588">
        <ele>1361.8</ele>
        <time>2021-04-17T05:30:30Z</time>
      </trkpt>
      <trkpt lat="45.22281" lon="5.99588">
        <ele>1362</ele>
        <time>2021-04-17T05:30:31Z</time>
      </trkpt>
      <trkpt lat="45.22278" lon="5.99592">
        <ele>1363</ele>
        <time>2021-04-17T05:30:36Z</time>
      </trkpt>
      <trkpt lat="45.22278" lon="5.99592">
        <ele>1363.2</ele>
        <time>2021-04-17T05:30:37Z</time>
      </trkpt>
      <trkpt lat="45.22277" lon="5.99595">
        <ele>1364.2</ele>
        <time>2021-04-17T05:30:41Z</time>
      </trkpt>
      <trkpt lat="45.22277" lon="5.99599">
        <ele>1365.2</ele>
        <time>2021-04-17T05:30:46Z</time>
      </trkpt>
      <trkpt lat="45.22275" lon="5.99604">
        <ele>1366.4</ele>
        <time>2021-04-17T05:30:52Z</time>
      </trkpt>
      <trkpt lat="45.22275" lon="5.99607">
        <ele>1366.8</ele>
        <time>2021-04-17T05:30:54Z</time>
      </trkpt>
      <trkpt lat="45.22274" lon="5.99611">
        <ele>1367.6</ele>
        <time>2021-04-17T05:30:57Z</time>
      </trkpt>
      <trkpt lat="45.22275" lon="5.99615">
        <ele>1368.4</ele>
        <time>2021-04-17T05:31:00Z</time>
      </trkpt>
      <trkpt lat="45.22273" lon="5.99616">
        <ele>1368.8</ele>
        <time>2021-04-17T05:31:02Z</time>
      </trkpt>
      <trkpt lat="45.22271" lon="5.99621">
        <ele>1370</ele>
        <time>2021-04-17T05:31:07Z</time>
      </trkpt>
      <trkpt lat="45.22271" lon="5.99622">
        <ele>1370.2</ele>
        <time>2021-04-17T05:31:08Z</time>
      </trkpt>
      <trkpt lat="45.22271" lon="5.99625">
        <ele>1371</ele>
        <time>2021-04-17T05:31:12Z</time>
      </trkpt>
      <trkpt lat="45.2227" lon="5.99628">
        <ele>1371.8</ele>
        <time>2021-04-17T05:31:15Z</time>
      </trkpt>
      <trkpt lat="45.22269" lon="5.99629">
        <ele>1372</ele>
        <time>2021-04-17T05:31:16Z</time>
      </trkpt>
      <trkpt lat="45.22265" lon="5.99631">
        <ele>1373.2</ele>
        <time>2021-04-17T05:31:21Z</time>
      </trkpt>
      <trkpt lat="45.22263" lon="5.99633">
        <ele>1373.6</ele>
        <time>2021-04-17T05:31:23Z</time>
      </trkpt>
      <trkpt lat="45.22262" lon="5.99638">
        <ele>1374.4</ele>
        <time>2021-04-17T05:31:26Z</time>
      </trkpt>
      <trkpt lat="45.22259" lon="5.99643">
        <ele>1375.2</ele>
        <time>2021-04-17T05:31:30Z</time>
      </trkpt>
      <trkpt lat="45.22258" lon="5.99644">
        <ele>1375.4</ele>
        <time>2021-04-17T05:31:31Z</time>
      </trkpt>
      <trkpt lat="45.22255" lon="5.99647">
        <ele>1376.6</ele>
        <time>2021-04-17T05:31:35Z</time>
      </trkpt>
      <trkpt lat="45.22253" lon="5.99647">
        <ele>1377</ele>
        <time>2021-04-17T05:31:37Z</time>
      </trkpt>
      <trkpt lat="45.2225" lon="5.99648">
        <ele>1377.6</ele>
        <time>2021-04-17T05:31:40Z</time>
      </trkpt>
      <trkpt lat="45.22248" lon="5.99651">
        <ele>1378.4</ele>
        <time>2021-04-17T05:31:44Z</time>
      </trkpt>
      <trkpt lat="45.22247" lon="5.99651">
        <ele>1378.6</ele>
        <time>2021-04-17T05:31:45Z</time>
      </trkpt>
      <trkpt lat="45.22242" lon="5.99651">
        <ele>1379.2</ele>
        <time>2021-04-17T05:31:48Z</time>
      </trkpt>
      <trkpt lat="45.22238" lon="5.9965">
        <ele>1379.8</ele>
        <time>2021-04-17T05:31:51Z</time>
      </trkpt>
      <trkpt lat="45.22237" lon="5.9965">
        <ele>1380</ele>
        <time>2021-04-17T05:31:52Z</time>
      </trkpt>
      <trkpt lat="45.22233" lon="5.9965">
        <ele>1380.8</ele>
        <time>2021-04-17T05:31:55Z</time>
      </trkpt>
      <trkpt lat="45.22228" lon="5.99647">
        <ele>1381.8</ele>
        <time>2021-04-17T05:31:59Z</time>
      </trkpt>
      <trkpt lat="45.22227" lon="5.99647">
        <ele>1382</ele>
        <time>2021-04-17T05:32:00Z</time>
      </trkpt>
      <trkpt lat="45.22225" lon="5.99648">
        <ele>1382.6</ele>
        <time>2021-04-17T05:32:02Z</time>
      </trkpt>
      <trkpt lat="45.22222" lon="5.99648">
        <ele>1383.2</ele>
        <time>2021-04-17T05:32:05Z</time>
      </trkpt>
      <trkpt lat="45.22221" lon="5.99647">
        <ele>1383.4</ele>
        <time>2021-04-17T05:32:06Z</time>
      </trkpt>
      <trkpt lat="45.22219" lon="5.99647">
        <ele>1384</ele>
        <time>2021-04-17T05:32:09Z</time>
      </trkpt>
      <trkpt lat="45.22219" lon="5.99647">
        <ele>1384.4</ele>
        <time>2021-04-17T05:32:10Z</time>
      </trkpt>
      <trkpt lat="45.22216" lon="5.99647">
        <ele>1385</ele>
        <time>2021-04-17T05:32:13Z</time>
      </trkpt>
      <trkpt lat="45.22214" lon="5.99647">
        <ele>1385.4</ele>
        <time>2021-04-17T05:32:15Z</time>
      </trkpt>
      <trkpt lat="45.22212" lon="5.99646">
        <ele>1386.6</ele>
        <time>2021-04-17T05:32:20Z</time>
      </trkpt>
      <trkpt lat="45.22205" lon="5.99645">
        <ele>1387.6</ele>
        <time>2021-04-17T05:32:24Z</time>
      </trkpt>
      <trkpt lat="45.22204" lon="5.99643">
        <ele>1388.2</ele>
        <time>2021-04-17T05:32:26Z</time>
      </trkpt>
      <trkpt lat="45.22204" lon="5.99643">
        <ele>1388.4</ele>
        <time>2021-04-17T05:32:27Z</time>
      </trkpt>
      <trkpt lat="45.22203" lon="5.99643">
        <ele>1388.6</ele>
        <time>2021-04-17T05:32:28Z</time>
      </trkpt>
      <trkpt lat="45.22202" lon="5.99643">
        <ele>1388.8</ele>
        <time>2021-04-17T05:32:29Z</time>
      </trkpt>
      <trkpt lat="45.22199" lon="5.99641">
        <ele>1389.8</ele>
        <time>2021-04-17T05:32:33Z</time>
      </trkpt>
      <trkpt lat="45.22198" lon="5.99641">
        <ele>1390</ele>
        <time>2021-04-17T05:32:34Z</time>
      </trkpt>
      <trkpt lat="45.22196" lon="5.9964">
        <ele>1391</ele>
        <time>2021-04-17T05:32:37Z</time>
      </trkpt>
      <trkpt lat="45.22193" lon="5.99639">
        <ele>1391.8</ele>
        <time>2021-04-17T05:32:41Z</time>
      </trkpt>
      <trkpt lat="45.22193" lon="5.99638">
        <ele>1392.2</ele>
        <time>2021-04-17T05:32:42Z</time>
      </trkpt>
      <trkpt lat="45.22189" lon="5.99636">
        <ele>1393.4</ele>
        <time>2021-04-17T05:32:47Z</time>
      </trkpt>
      <trkpt lat="45.22189" lon="5.99636">
        <ele>1393.6</ele>
        <time>2021-04-17T05:32:48Z</time>
      </trkpt>
      <trkpt lat="45.22188" lon="5.99637">
        <ele>1394.4</ele>
        <time>2021-04-17T05:32:52Z</time>
      </trkpt>
      <trkpt lat="45.22188" lon="5.99636">
        <ele>1395.4</ele>
        <time>2021-04-17T05:32:56Z</time>
      </trkpt>
      <trkpt lat="45.22187" lon="5.99636">
        <ele>1395.6</ele>
        <time>2021-04-17T05:32:57Z</time>
      </trkpt>
      <trkpt lat="45.22185" lon="5.99633">
        <ele>1396.8</ele>
        <time>2021-04-17T05:33:01Z</time>
      </trkpt>
      <trkpt lat="45.22183" lon="5.99634">
        <ele>1397.2</ele>
        <time>2021-04-17T05:33:03Z</time>
      </trkpt>
      <trkpt lat="45.22181" lon="5.99635">
        <ele>1397.8</ele>
        <time>2021-04-17T05:33:06Z</time>
      </trkpt>
      <trkpt lat="45.22181" lon="5.99636">
        <ele>1398.6</ele>
        <time>2021-04-17T05:33:09Z</time>
      </trkpt>
      <trkpt lat="45.22181" lon="5.99636">
        <ele>1398.8</ele>
        <time>2021-04-17T05:33:10Z</time>
      </trkpt>
      <trkpt lat="45.22181" lon="5.99638">
        <ele>1400</ele>
        <time>2021-04-17T05:33:14Z</time>
      </trkpt>
      <trkpt lat="45.2218" lon="5.99639">
        <ele>1400.4</ele>
        <time>2021-04-17T05:33:16Z</time>
      </trkpt>
      <trkpt lat="45.2218" lon="5.99639">
        <ele>1401</ele>
        <time>2021-04-17T05:33:18Z</time>
      </trkpt>
      <trkpt lat="45.22176" lon="5.9964">
        <ele>1402.2</ele>
        <time>2021-04-17T05:33:23Z</time>
      </trkpt>
      <trkpt lat="45.22174" lon="5.9964">
        <ele>1402.8</ele>
        <time>2021-04-17T05:33:25Z</time>
      </trkpt>
      <trkpt lat="45.22173" lon="5.99642">
        <ele>1403.4</ele>
        <time>2021-04-17T05:33:28Z</time>
      </trkpt>
      <trkpt lat="45.22174" lon="5.99643">
        <ele>1403.8</ele>
        <time>2021-04-17T05:33:30Z</time>
      </trkpt>
      <trkpt lat="45.22174" lon="5.99642">
        <ele>1404.4</ele>
        <time>2021-04-17T05:33:32Z</time>
      </trkpt>
      <trkpt lat="45.22174" lon="5.99642">
        <ele>1404.6</ele>
        <time>2021-04-17T05:33:33Z</time>
      </trkpt>
      <trkpt lat="45.22173" lon="5.99645">
        <ele>1405.4</ele>
        <time>2021-04-17T05:33:37Z</time>
      </trkpt>
      <trkpt lat="45.22173" lon="5.99645">
        <ele>1405.6</ele>
        <time>2021-04-17T05:33:38Z</time>
      </trkpt>
      <trkpt lat="45.22172" lon="5.99647">
        <ele>1406.8</ele>
        <time>2021-04-17T05:33:42Z</time>
      </trkpt>
      <trkpt lat="45.22171" lon="5.99647">
        <ele>1407</ele>
        <time>2021-04-17T05:33:43Z</time>
      </trkpt>
      <trkpt lat="45.2217" lon="5.99649">
        <ele>1407.8</ele>
        <time>2021-04-17T05:33:46Z</time>
      </trkpt>
      <trkpt lat="45.22168" lon="5.99651">
        <ele>1408.6</ele>
        <time>2021-04-17T05:33:49Z</time>
      </trkpt>
      <trkpt lat="45.22167" lon="5.99651">
        <ele>1409</ele>
        <time>2021-04-17T05:33:51Z</time>
      </trkpt>
      <trkpt lat="45.22165" lon="5.99653">
        <ele>1410</ele>
        <time>2021-04-17T05:33:55Z</time>
      </trkpt>
      <trkpt lat="45.22159" lon="5.99654">
        <ele>1411.2</ele>
        <time>2021-04-17T05:34:00Z</time>
      </trkpt>
      <trkpt lat="45.22156" lon="5.99654">
        <ele>1411.8</ele>
        <time>2021-04-17T05:34:02Z</time>
      </trkpt>
      <trkpt lat="45.22154" lon="5.99655">
        <ele>1412.4</ele>
        <time>2021-04-17T05:34:04Z</time>
      </trkpt>
      <trkpt lat="45.22151" lon="5.99656">
        <ele>1413.4</ele>
        <time>2021-04-17T05:34:08Z</time>
      </trkpt>
      <trkpt lat="45.22149" lon="5.99656">
        <ele>1414.2</ele>
        <time>2021-04-17T05:34:10Z</time>
      </trkpt>
      <trkpt lat="45.22147" lon="5.99657">
        <ele>1414.6</ele>
        <time>2021-04-17T05:34:12Z</time>
      </trkpt>
      <trkpt lat="45.22142" lon="5.99656">
        <ele>1415.6</ele>
        <time>2021-04-17T05:34:16Z</time>
      </trkpt>
      <trkpt lat="45.22138" lon="5.99656">
        <ele>1416.6</ele>
        <time>2021-04-17T05:34:20Z</time>
      </trkpt>
      <trkpt lat="45.22137" lon="5.99655">
        <ele>1416.8</ele>
        <time>2021-04-17T05:34:21Z</time>
      </trkpt>
      <trkpt lat="45.22133" lon="5.99653">
        <ele>1418</ele>
        <time>2021-04-17T05:34:26Z</time>
      </trkpt>
      <trkpt lat="45.22132" lon="5.99652">
        <ele>1418.4</ele>
        <time>2021-04-17T05:34:28Z</time>
      </trkpt>
      <trkpt lat="45.2213" lon="5.99651">
        <ele>1419</ele>
        <time>2021-04-17T05:34:30Z</time>
      </trkpt>
      <trkpt lat="45.22127" lon="5.99651">
        <ele>1420</ele>
        <time>2021-04-17T05:34:34Z</time>
      </trkpt>
      <trkpt lat="45.22126" lon="5.99652">
        <ele>1420.4</ele>
        <time>2021-04-17T05:34:35Z</time>
      </trkpt>
      <trkpt lat="45.22122" lon="5.9965">
        <ele>1421.2</ele>
        <time>2021-04-17T05:34:39Z</time>
      </trkpt>
      <trkpt lat="45.22115" lon="5.99648">
        <ele>1422.2</ele>
        <time>2021-04-17T05:34:44Z</time>
      </trkpt>
      <trkpt lat="45.22113" lon="5.99649">
        <ele>1422.4</ele>
        <time>2021-04-17T05:34:45Z</time>
      </trkpt>
      <trkpt lat="45.2211" lon="5.99649">
        <ele>1423.2</ele>
        <time>2021-04-17T05:34:50Z</time>
      </trkpt>
      <trkpt lat="45.2211" lon="5.99649">
        <ele>1423.4</ele>
        <time>2021-04-17T05:34:51Z</time>
      </trkpt>
      <trkpt lat="45.22109" lon="5.99649">
        <ele>1423.8</ele>
        <time>2021-04-17T05:34:53Z</time>
      </trkpt>
      <trkpt lat="45.22107" lon="5.99649">
        <ele>1424.6</ele>
        <time>2021-04-17T05:34:56Z</time>
      </trkpt>
      <trkpt lat="45.22106" lon="5.99648">
        <ele>1424.6</ele>
        <time>2021-04-17T05:34:57Z</time>
      </trkpt>
      <trkpt lat="45.22102" lon="5.99647">
        <ele>1425.6</ele>
        <time>2021-04-17T05:35:01Z</time>
      </trkpt>
      <trkpt lat="45.22101" lon="5.99644">
        <ele>1425.8</ele>
        <time>2021-04-17T05:35:04Z</time>
      </trkpt>
      <trkpt lat="45.22101" lon="5.99644">
        <ele>1426</ele>
        <time>2021-04-17T05:35:05Z</time>
      </trkpt>
      <trkpt lat="45.221" lon="5.99642">
        <ele>1426</ele>
        <time>2021-04-17T05:35:07Z</time>
      </trkpt>
      <trkpt lat="45.22099" lon="5.99641">
        <ele>1426</ele>
        <time>2021-04-17T05:35:08Z</time>
      </trkpt>
      <trkpt lat="45.22095" lon="5.99636">
        <ele>1426.2</ele>
        <time>2021-04-17T05:35:12Z</time>
      </trkpt>
      <trkpt lat="45.22094" lon="5.99631">
        <ele>1426.2</ele>
        <time>2021-04-17T05:35:15Z</time>
      </trkpt>
      <trkpt lat="45.22094" lon="5.99629">
        <ele>1426.2</ele>
        <time>2021-04-17T05:35:16Z</time>
      </trkpt>
      <trkpt lat="45.22092" lon="5.99624">
        <ele>1426.4</ele>
        <time>2021-04-17T05:35:19Z</time>
      </trkpt>
      <trkpt lat="45.22092" lon="5.99621">
        <ele>1426.4</ele>
        <time>2021-04-17T05:35:21Z</time>
      </trkpt>
      <trkpt lat="45.22091" lon="5.99618">
        <ele>1426.4</ele>
        <time>2021-04-17T05:35:23Z</time>
      </trkpt>
      <trkpt lat="45.2209" lon="5.99613">
        <ele>1426.6</ele>
        <time>2021-04-17T05:35:26Z</time>
      </trkpt>
      <trkpt lat="45.22087" lon="5.9961">
        <ele>1426.6</ele>
        <time>2021-04-17T05:35:28Z</time>
      </trkpt>
      <trkpt lat="45.22085" lon="5.99606">
        <ele>1426.8</ele>
        <time>2021-04-17T05:35:30Z</time>
      </trkpt>
      <trkpt lat="45.22082" lon="5.99601">
        <ele>1426.8</ele>
        <time>2021-04-17T05:35:33Z</time>
      </trkpt>
      <trkpt lat="45.22079" lon="5.99597">
        <ele>1426.8</ele>
        <time>2021-04-17T05:35:37Z</time>
      </trkpt>
      <trkpt lat="45.22078" lon="5.99597">
        <ele>1426.8</ele>
        <time>2021-04-17T05:35:38Z</time>
      </trkpt>
      <trkpt lat="45.22077" lon="5.99595">
        <ele>1426.8</ele>
        <time>2021-04-17T05:35:40Z</time>
      </trkpt>
      <trkpt lat="45.22075" lon="5.99592">
        <ele>1426.8</ele>
        <time>2021-04-17T05:35:42Z</time>
      </trkpt>
      <trkpt lat="45.22069" lon="5.99589">
        <ele>1426.8</ele>
        <time>2021-04-17T05:35:47Z</time>
      </trkpt>
      <trkpt lat="45.22067" lon="5.99587">
        <ele>1427</ele>
        <time>2021-04-17T05:35:49Z</time>
      </trkpt>
      <trkpt lat="45.22063" lon="5.99582">
        <ele>1427.6</ele>
        <time>2021-04-17T05:35:54Z</time>
      </trkpt>
      <trkpt lat="45.22062" lon="5.99582">
        <ele>1427.6</ele>
        <time>2021-04-17T05:35:55Z</time>
      </trkpt>
      <trkpt lat="45.22058" lon="5.99581">
        <ele>1427.8</ele>
        <time>2021-04-17T05:35:58Z</time>
      </trkpt>
      <trkpt lat="45.22057" lon="5.9958">
        <ele>1427.8</ele>
        <time>2021-04-17T05:35:59Z</time>
      </trkpt>
      <trkpt lat="45.22056" lon="5.9958">
        <ele>1428</ele>
        <time>2021-04-17T05:36:00Z</time>
      </trkpt>
      <trkpt lat="45.22055" lon="5.99579">
        <ele>1428</ele>
        <time>2021-04-17T05:36:02Z</time>
      </trkpt>
      <trkpt lat="45.22051" lon="5.99579">
        <ele>1428.4</ele>
        <time>2021-04-17T05:36:05Z</time>
      </trkpt>
      <trkpt lat="45.22049" lon="5.99578">
        <ele>1428.6</ele>
        <time>2021-04-17T05:36:08Z</time>
      </trkpt>
      <trkpt lat="45.22047" lon="5.99578">
        <ele>1428.8</ele>
        <time>2021-04-17T05:36:09Z</time>
      </trkpt>
      <trkpt lat="45.22045" lon="5.99577">
        <ele>1429</ele>
        <time>2021-04-17T05:36:11Z</time>
      </trkpt>
      <trkpt lat="45.22044" lon="5.99577">
        <ele>1429.2</ele>
        <time>2021-04-17T05:36:13Z</time>
      </trkpt>
      <trkpt lat="45.22041" lon="5.99576">
        <ele>1429.8</ele>
        <time>2021-04-17T05:36:16Z</time>
      </trkpt>
      <trkpt lat="45.22034" lon="5.99575">
        <ele>1430.8</ele>
        <time>2021-04-17T05:36:22Z</time>
      </trkpt>
      <trkpt lat="45.22031" lon="5.99574">
        <ele>1431.6</ele>
        <time>2021-04-17T05:36:25Z</time>
      </trkpt>
      <trkpt lat="45.22029" lon="5.99575">
        <ele>1431.8</ele>
        <time>2021-04-17T05:36:27Z</time>
      </trkpt>
      <trkpt lat="45.22025" lon="5.99575">
        <ele>1432.4</ele>
        <time>2021-04-17T05:36:30Z</time>
      </trkpt>
      <trkpt lat="45.2202" lon="5.99575">
        <ele>1433</ele>
        <time>2021-04-17T05:36:33Z</time>
      </trkpt>
      <trkpt lat="45.22019" lon="5.99574">
        <ele>1433.2</ele>
        <time>2021-04-17T05:36:35Z</time>
      </trkpt>
      <trkpt lat="45.22015" lon="5.99573">
        <ele>1434.2</ele>
        <time>2021-04-17T05:36:39Z</time>
      </trkpt>
      <trkpt lat="45.22009" lon="5.99571">
        <ele>1435.2</ele>
        <time>2021-04-17T05:36:45Z</time>
      </trkpt>
      <trkpt lat="45.22004" lon="5.99569">
        <ele>1436</ele>
        <time>2021-04-17T05:36:50Z</time>
      </trkpt>
      <trkpt lat="45.22002" lon="5.99568">
        <ele>1436.4</ele>
        <time>2021-04-17T05:36:52Z</time>
      </trkpt>
      <trkpt lat="45.22001" lon="5.99567">
        <ele>1436.4</ele>
        <time>2021-04-17T05:36:53Z</time>
      </trkpt>
      <trkpt lat="45.22001" lon="5.99566">
        <ele>1436.6</ele>
        <time>2021-04-17T05:36:54Z</time>
      </trkpt>
      <trkpt lat="45.21997" lon="5.99565">
        <ele>1437.4</ele>
        <time>2021-04-17T05:36:58Z</time>
      </trkpt>
      <trkpt lat="45.21994" lon="5.99564">
        <ele>1438.2</ele>
        <time>2021-04-17T05:37:02Z</time>
      </trkpt>
      <trkpt lat="45.21993" lon="5.99563">
        <ele>1438.4</ele>
        <time>2021-04-17T05:37:03Z</time>
      </trkpt>
      <trkpt lat="45.21987" lon="5.9956">
        <ele>1439.4</ele>
        <time>2021-04-17T05:37:09Z</time>
      </trkpt>
      <trkpt lat="45.21982" lon="5.99558">
        <ele>1440.4</ele>
        <time>2021-04-17T05:37:14Z</time>
      </trkpt>
      <trkpt lat="45.21981" lon="5.99557">
        <ele>1440.6</ele>
        <time>2021-04-17T05:37:15Z</time>
      </trkpt>
      <trkpt lat="45.21976" lon="5.99554">
        <ele>1441.2</ele>
        <time>2021-04-17T05:37:20Z</time>
      </trkpt>
      <trkpt lat="45.21974" lon="5.99554">
        <ele>1441.4</ele>
        <time>2021-04-17T05:37:22Z</time>
      </trkpt>
      <trkpt lat="45.21973" lon="5.99553">
        <ele>1441.6</ele>
        <time>2021-04-17T05:37:23Z</time>
      </trkpt>
      <trkpt lat="45.21966" lon="5.99549">
        <ele>1442.2</ele>
        <time>2021-04-17T05:37:29Z</time>
      </trkpt>
      <trkpt lat="45.21963" lon="5.99547">
        <ele>1442.2</ele>
        <time>2021-04-17T05:37:31Z</time>
      </trkpt>
      <trkpt lat="45.21963" lon="5.99547">
        <ele>1442.4</ele>
        <time>2021-04-17T05:37:32Z</time>
      </trkpt>
      <trkpt lat="45.21963" lon="5.99546">
        <ele>1442.4</ele>
        <time>2021-04-17T05:37:34Z</time>
      </trkpt>
      <trkpt lat="45.21963" lon="5.99545">
        <ele>1442.4</ele>
        <time>2021-04-17T05:37:35Z</time>
      </trkpt>
      <trkpt lat="45.21962" lon="5.99544">
        <ele>1442.4</ele>
        <time>2021-04-17T05:37:39Z</time>
      </trkpt>
      <trkpt lat="45.21962" lon="5.99544">
        <ele>1442.6</ele>
        <time>2021-04-17T05:37:40Z</time>
      </trkpt>
      <trkpt lat="45.21962" lon="5.99543">
        <ele>1442.6</ele>
        <time>2021-04-17T05:37:43Z</time>
      </trkpt>
      <trkpt lat="45.21963" lon="5.99542">
        <ele>1442.6</ele>
        <time>2021-04-17T05:37:44Z</time>
      </trkpt>
      <trkpt lat="45.21962" lon="5.99541">
        <ele>1442.6</ele>
        <time>2021-04-17T05:37:48Z</time>
      </trkpt>
      <trkpt lat="45.21962" lon="5.99541">
        <ele>1442.4</ele>
        <time>2021-04-17T05:37:50Z</time>
      </trkpt>
      <trkpt lat="45.21962" lon="5.99541">
        <ele>1442.4</ele>
        <time>2021-04-17T05:37:52Z</time>
      </trkpt>
      <trkpt lat="45.21962" lon="5.99541">
        <ele>1442.2</ele>
        <time>2021-04-17T05:37:57Z</time>
      </trkpt>
      <trkpt lat="45.21962" lon="5.99541">
        <ele>1442.4</ele>
        <time>2021-04-17T05:38:01Z</time>
      </trkpt>
      <trkpt lat="45.21962" lon="5.99539">
        <ele>1442</ele>
        <time>2021-04-17T05:38:07Z</time>
      </trkpt>
      <trkpt lat="45.21962" lon="5.99539">
        <ele>1442</ele>
        <time>2021-04-17T05:38:13Z</time>
      </trkpt>
      <trkpt lat="45.21963" lon="5.99538">
        <ele>1442</ele>
        <time>2021-04-17T05:38:19Z</time>
      </trkpt>
      <trkpt lat="45.21963" lon="5.99538">
        <ele>1442</ele>
        <time>2021-04-17T05:38:21Z</time>
      </trkpt>
      <trkpt lat="45.21963" lon="5.99537">
        <ele>1442.2</ele>
        <time>2021-04-17T05:38:23Z</time>
      </trkpt>
      <trkpt lat="45.21964" lon="5.99537">
        <ele>1442.4</ele>
        <time>2021-04-17T05:38:24Z</time>
      </trkpt>
      <trkpt lat="45.21964" lon="5.99537">
        <ele>1442.4</ele>
        <time>2021-04-17T05:38:25Z</time>
      </trkpt>
      <trkpt lat="45.21964" lon="5.99537">
        <ele>1442.4</ele>
        <time>2021-04-17T05:38:27Z</time>
      </trkpt>
      <trkpt lat="45.21964" lon="5.99537">
        <ele>1442.6</ele>
        <time>2021-04-17T05:38:28Z</time>
      </trkpt>
      <trkpt lat="45.21964" lon="5.99535">
        <ele>1442.6</ele>
        <time>2021-04-17T05:38:30Z</time>
      </trkpt>
      <trkpt lat="45.21964" lon="5.99535">
        <ele>1442.6</ele>
        <time>2021-04-17T05:38:33Z</time>
      </trkpt>
      <trkpt lat="45.21964" lon="5.99535">
        <ele>1442.6</ele>
        <time>2021-04-17T05:38:34Z</time>
      </trkpt>
      <trkpt lat="45.21964" lon="5.99535">
        <ele>1442.6</ele>
        <time>2021-04-17T05:38:35Z</time>
      </trkpt>
      <trkpt lat="45.21964" lon="5.99535">
        <ele>1442.6</ele>
        <time>2021-04-17T05:38:36Z</time>
      </trkpt>
      <trkpt lat="45.21964" lon="5.99535">
        <ele>1442.4</ele>
        <time>2021-04-17T05:38:37Z</time>
      </trkpt>
      <trkpt lat="45.21964" lon="5.99534">
        <ele>1442.6</ele>
        <time>2021-04-17T05:38:43Z</time>
      </trkpt>
      <trkpt lat="45.21964" lon="5.99534">
        <ele>1442.8</ele>
        <time>2021-04-17T05:38:45Z</time>
      </trkpt>
      <trkpt lat="45.21964" lon="5.99534">
        <ele>1442.8</ele>
        <time>2021-04-17T05:38:47Z</time>
      </trkpt>
      <trkpt lat="45.21964" lon="5.99533">
        <ele>1442.8</ele>
        <time>2021-04-17T05:38:48Z</time>
      </trkpt>
      <trkpt lat="45.21964" lon="5.99533">
        <ele>1442.8</ele>
        <time>2021-04-17T05:38:50Z</time>
      </trkpt>
      <trkpt lat="45.21961" lon="5.99531">
        <ele>1442.8</ele>
        <time>2021-04-17T05:38:56Z</time>
      </trkpt>
      <trkpt lat="45.2196" lon="5.99529">
        <ele>1442.8</ele>
        <time>2021-04-17T05:38:57Z</time>
      </trkpt>
      <trkpt lat="45.21958" lon="5.99528">
        <ele>1442.8</ele>
        <time>2021-04-17T05:38:58Z</time>
      </trkpt>
      <trkpt lat="45.21957" lon="5.99527">
        <ele>1442.8</ele>
        <time>2021-04-17T05:38:59Z</time>
      </trkpt>
      <trkpt lat="45.21956" lon="5.99525">
        <ele>1442.6</ele>
        <time>2021-04-17T05:39:00Z</time>
      </trkpt>
      <trkpt lat="45.21953" lon="5.99521">
        <ele>1442.4</ele>
        <time>2021-04-17T05:39:02Z</time>
      </trkpt>
      <trkpt lat="45.21951" lon="5.99516">
        <ele>1442</ele>
        <time>2021-04-17T05:39:04Z</time>
      </trkpt>
      <trkpt lat="45.21948" lon="5.99514">
        <ele>1442</ele>
        <time>2021-04-17T05:39:06Z</time>
      </trkpt>
      <trkpt lat="45.21946" lon="5.99511">
        <ele>1441.8</ele>
        <time>2021-04-17T05:39:08Z</time>
      </trkpt>
      <trkpt lat="45.21945" lon="5.99509">
        <ele>1441.8</ele>
        <time>2021-04-17T05:39:09Z</time>
      </trkpt>
      <trkpt lat="45.21943" lon="5.99506">
        <ele>1441.6</ele>
        <time>2021-04-17T05:39:11Z</time>
      </trkpt>
      <trkpt lat="45.21942" lon="5.99505">
        <ele>1441.6</ele>
        <time>2021-04-17T05:39:12Z</time>
      </trkpt>
      <trkpt lat="45.2194" lon="5.99504">
        <ele>1441.6</ele>
        <time>2021-04-17T05:39:13Z</time>
      </trkpt>
      <trkpt lat="45.21934" lon="5.99497">
        <ele>1441.4</ele>
        <time>2021-04-17T05:39:18Z</time>
      </trkpt>
      <trkpt lat="45.21929" lon="5.99492">
        <ele>1441.4</ele>
        <time>2021-04-17T05:39:22Z</time>
      </trkpt>
      <trkpt lat="45.21925" lon="5.99487">
        <ele>1441.2</ele>
        <time>2021-04-17T05:39:25Z</time>
      </trkpt>
      <trkpt lat="45.2192" lon="5.99481">
        <ele>1440.8</ele>
        <time>2021-04-17T05:39:29Z</time>
      </trkpt>
      <trkpt lat="45.21916" lon="5.9948">
        <ele>1440.8</ele>
        <time>2021-04-17T05:39:31Z</time>
      </trkpt>
      <trkpt lat="45.21911" lon="5.99474">
        <ele>1440.8</ele>
        <time>2021-04-17T05:39:35Z</time>
      </trkpt>
      <trkpt lat="45.21908" lon="5.99471">
        <ele>1440.8</ele>
        <time>2021-04-17T05:39:37Z</time>
      </trkpt>
      <trkpt lat="45.21902" lon="5.99459">
        <ele>1440.6</ele>
        <time>2021-04-17T05:39:43Z</time>
      </trkpt>
      <trkpt lat="45.219" lon="5.99458">
        <ele>1440.6</ele>
        <time>2021-04-17T05:39:44Z</time>
      </trkpt>
      <trkpt lat="45.21896" lon="5.99453">
        <ele>1440.6</ele>
        <time>2021-04-17T05:39:47Z</time>
      </trkpt>
      <trkpt lat="45.21893" lon="5.99447">
        <ele>1440.8</ele>
        <time>2021-04-17T05:39:50Z</time>
      </trkpt>
      <trkpt lat="45.21892" lon="5.99446">
        <ele>1440.8</ele>
        <time>2021-04-17T05:39:51Z</time>
      </trkpt>
      <trkpt lat="45.21889" lon="5.99438">
        <ele>1441.4</ele>
        <time>2021-04-17T05:39:56Z</time>
      </trkpt>
      <trkpt lat="45.21888" lon="5.99433">
        <ele>1441.8</ele>
        <time>2021-04-17T05:39:59Z</time>
      </trkpt>
      <trkpt lat="45.21888" lon="5.99431">
        <ele>1441.8</ele>
        <time>2021-04-17T05:40:00Z</time>
      </trkpt>
      <trkpt lat="45.21887" lon="5.99426">
        <ele>1442.2</ele>
        <time>2021-04-17T05:40:03Z</time>
      </trkpt>
      <trkpt lat="45.21886" lon="5.99422">
        <ele>1442.8</ele>
        <time>2021-04-17T05:40:05Z</time>
      </trkpt>
      <trkpt lat="45.21886" lon="5.99419">
        <ele>1443.4</ele>
        <time>2021-04-17T05:40:07Z</time>
      </trkpt>
      <trkpt lat="45.21886" lon="5.99415">
        <ele>1444</ele>
        <time>2021-04-17T05:40:09Z</time>
      </trkpt>
      <trkpt lat="45.21885" lon="5.9941">
        <ele>1444.6</ele>
        <time>2021-04-17T05:40:12Z</time>
      </trkpt>
      <trkpt lat="45.21884" lon="5.99407">
        <ele>1445.2</ele>
        <time>2021-04-17T05:40:14Z</time>
      </trkpt>
      <trkpt lat="45.21885" lon="5.99405">
        <ele>1445.4</ele>
        <time>2021-04-17T05:40:15Z</time>
      </trkpt>
      <trkpt lat="45.21884" lon="5.99401">
        <ele>1445.8</ele>
        <time>2021-04-17T05:40:17Z</time>
      </trkpt>
      <trkpt lat="45.21883" lon="5.99398">
        <ele>1446.2</ele>
        <time>2021-04-17T05:40:19Z</time>
      </trkpt>
      <trkpt lat="45.21881" lon="5.99395">
        <ele>1446.8</ele>
        <time>2021-04-17T05:40:21Z</time>
      </trkpt>
      <trkpt lat="45.21881" lon="5.99394">
        <ele>1447</ele>
        <time>2021-04-17T05:40:22Z</time>
      </trkpt>
      <trkpt lat="45.2188" lon="5.99392">
        <ele>1447.2</ele>
        <time>2021-04-17T05:40:23Z</time>
      </trkpt>
      <trkpt lat="45.2188" lon="5.9939">
        <ele>1447.4</ele>
        <time>2021-04-17T05:40:24Z</time>
      </trkpt>
      <trkpt lat="45.21877" lon="5.99385">
        <ele>1448.2</ele>
        <time>2021-04-17T05:40:28Z</time>
      </trkpt>
      <trkpt lat="45.21876" lon="5.99384">
        <ele>1448.4</ele>
        <time>2021-04-17T05:40:29Z</time>
      </trkpt>
      <trkpt lat="45.2187" lon="5.99377">
        <ele>1449.2</ele>
        <time>2021-04-17T05:40:35Z</time>
      </trkpt>
      <trkpt lat="45.21866" lon="5.99373">
        <ele>1449.6</ele>
        <time>2021-04-17T05:40:38Z</time>
      </trkpt>
      <trkpt lat="45.21864" lon="5.99371">
        <ele>1450</ele>
        <time>2021-04-17T05:40:40Z</time>
      </trkpt>
      <trkpt lat="45.21864" lon="5.99369">
        <ele>1450.2</ele>
        <time>2021-04-17T05:40:41Z</time>
      </trkpt>
      <trkpt lat="45.21863" lon="5.99366">
        <ele>1450.6</ele>
        <time>2021-04-17T05:40:43Z</time>
      </trkpt>
      <trkpt lat="45.21863" lon="5.9936">
        <ele>1451.4</ele>
        <time>2021-04-17T05:40:46Z</time>
      </trkpt>
      <trkpt lat="45.21863" lon="5.99358">
        <ele>1451.6</ele>
        <time>2021-04-17T05:40:47Z</time>
      </trkpt>
      <trkpt lat="45.21863" lon="5.99352">
        <ele>1452.2</ele>
        <time>2021-04-17T05:40:50Z</time>
      </trkpt>
      <trkpt lat="45.21862" lon="5.99348">
        <ele>1452.6</ele>
        <time>2021-04-17T05:40:52Z</time>
      </trkpt>
      <trkpt lat="45.21862" lon="5.99345">
        <ele>1452.8</ele>
        <time>2021-04-17T05:40:54Z</time>
      </trkpt>
      <trkpt lat="45.21861" lon="5.99334">
        <ele>1453.8</ele>
        <time>2021-04-17T05:41:00Z</time>
      </trkpt>
      <trkpt lat="45.21861" lon="5.99332">
        <ele>1453.8</ele>
        <time>2021-04-17T05:41:01Z</time>
      </trkpt>
      <trkpt lat="45.21859" lon="5.99327">
        <ele>1454.6</ele>
        <time>2021-04-17T05:41:05Z</time>
      </trkpt>
      <trkpt lat="45.21858" lon="5.99326">
        <ele>1454.8</ele>
        <time>2021-04-17T05:41:06Z</time>
      </trkpt>
      <trkpt lat="45.21857" lon="5.99325">
        <ele>1455</ele>
        <time>2021-04-17T05:41:07Z</time>
      </trkpt>
      <trkpt lat="45.21856" lon="5.99319">
        <ele>1455.4</ele>
        <time>2021-04-17T05:41:10Z</time>
      </trkpt>
      <trkpt lat="45.21853" lon="5.9931">
        <ele>1455.6</ele>
        <time>2021-04-17T05:41:15Z</time>
      </trkpt>
      <trkpt lat="45.21849" lon="5.99296">
        <ele>1455</ele>
        <time>2021-04-17T05:41:21Z</time>
      </trkpt>
      <trkpt lat="45.21848" lon="5.99291">
        <ele>1455</ele>
        <time>2021-04-17T05:41:23Z</time>
      </trkpt>
      <trkpt lat="45.21846" lon="5.99287">
        <ele>1454.8</ele>
        <time>2021-04-17T05:41:25Z</time>
      </trkpt>
      <trkpt lat="45.21844" lon="5.99282">
        <ele>1454.8</ele>
        <time>2021-04-17T05:41:27Z</time>
      </trkpt>
      <trkpt lat="45.21843" lon="5.99279">
        <ele>1454.6</ele>
        <time>2021-04-17T05:41:28Z</time>
      </trkpt>
      <trkpt lat="45.21838" lon="5.99266">
        <ele>1454</ele>
        <time>2021-04-17T05:41:34Z</time>
      </trkpt>
      <trkpt lat="45.21837" lon="5.99264">
        <ele>1454.2</ele>
        <time>2021-04-17T05:41:35Z</time>
      </trkpt>
      <trkpt lat="45.21833" lon="5.99255">
        <ele>1455</ele>
        <time>2021-04-17T05:41:41Z</time>
      </trkpt>
      <trkpt lat="45.21832" lon="5.99253">
        <ele>1455.2</ele>
        <time>2021-04-17T05:41:42Z</time>
      </trkpt>
      <trkpt lat="45.21831" lon="5.99249">
        <ele>1455.4</ele>
        <time>2021-04-17T05:41:44Z</time>
      </trkpt>
      <trkpt lat="45.21826" lon="5.99242">
        <ele>1455.8</ele>
        <time>2021-04-17T05:41:50Z</time>
      </trkpt>
      <trkpt lat="45.21824" lon="5.99239">
        <ele>1456</ele>
        <time>2021-04-17T05:41:52Z</time>
      </trkpt>
      <trkpt lat="45.21818" lon="5.99231">
        <ele>1456.8</ele>
        <time>2021-04-17T05:41:58Z</time>
      </trkpt>
      <trkpt lat="45.21818" lon="5.99229">
        <ele>1457</ele>
        <time>2021-04-17T05:41:59Z</time>
      </trkpt>
      <trkpt lat="45.21817" lon="5.99222">
        <ele>1457.4</ele>
        <time>2021-04-17T05:42:02Z</time>
      </trkpt>
      <trkpt lat="45.21814" lon="5.9921">
        <ele>1457.6</ele>
        <time>2021-04-17T05:42:08Z</time>
      </trkpt>
      <trkpt lat="45.21811" lon="5.99205">
        <ele>1458</ele>
        <time>2021-04-17T05:42:11Z</time>
      </trkpt>
      <trkpt lat="45.2181" lon="5.99201">
        <ele>1458.4</ele>
        <time>2021-04-17T05:42:13Z</time>
      </trkpt>
      <trkpt lat="45.21807" lon="5.99192">
        <ele>1459.2</ele>
        <time>2021-04-17T05:42:19Z</time>
      </trkpt>
      <trkpt lat="45.21807" lon="5.99188">
        <ele>1459.6</ele>
        <time>2021-04-17T05:42:21Z</time>
      </trkpt>
      <trkpt lat="45.21806" lon="5.99183">
        <ele>1459.8</ele>
        <time>2021-04-17T05:42:23Z</time>
      </trkpt>
      <trkpt lat="45.21805" lon="5.99181">
        <ele>1460.2</ele>
        <time>2021-04-17T05:42:25Z</time>
      </trkpt>
      <trkpt lat="45.21804" lon="5.99175">
        <ele>1461</ele>
        <time>2021-04-17T05:42:28Z</time>
      </trkpt>
      <trkpt lat="45.21803" lon="5.9917">
        <ele>1461.4</ele>
        <time>2021-04-17T05:42:31Z</time>
      </trkpt>
      <trkpt lat="45.21802" lon="5.99168">
        <ele>1461.4</ele>
        <time>2021-04-17T05:42:32Z</time>
      </trkpt>
      <trkpt lat="45.21798" lon="5.99166">
        <ele>1461.8</ele>
        <time>2021-04-17T05:42:35Z</time>
      </trkpt>
      <trkpt lat="45.21796" lon="5.99162">
        <ele>1462.4</ele>
        <time>2021-04-17T05:42:38Z</time>
      </trkpt>
      <trkpt lat="45.21788" lon="5.99156">
        <ele>1463.2</ele>
        <time>2021-04-17T05:42:44Z</time>
      </trkpt>
      <trkpt lat="45.21787" lon="5.99154">
        <ele>1463.4</ele>
        <time>2021-04-17T05:42:46Z</time>
      </trkpt>
      <trkpt lat="45.21785" lon="5.99152">
        <ele>1463.8</ele>
        <time>2021-04-17T05:42:48Z</time>
      </trkpt>
      <trkpt lat="45.21783" lon="5.99149">
        <ele>1464</ele>
        <time>2021-04-17T05:42:50Z</time>
      </trkpt>
      <trkpt lat="45.2178" lon="5.99146">
        <ele>1464.4</ele>
        <time>2021-04-17T05:42:53Z</time>
      </trkpt>
      <trkpt lat="45.21778" lon="5.99145">
        <ele>1464.6</ele>
        <time>2021-04-17T05:42:54Z</time>
      </trkpt>
      <trkpt lat="45.21776" lon="5.99143">
        <ele>1464.8</ele>
        <time>2021-04-17T05:42:56Z</time>
      </trkpt>
      <trkpt lat="45.21769" lon="5.99138">
        <ele>1465.2</ele>
        <time>2021-04-17T05:43:02Z</time>
      </trkpt>
      <trkpt lat="45.21768" lon="5.99137">
        <ele>1465.4</ele>
        <time>2021-04-17T05:43:04Z</time>
      </trkpt>
      <trkpt lat="45.21768" lon="5.99137">
        <ele>1465.6</ele>
        <time>2021-04-17T05:43:06Z</time>
      </trkpt>
      <trkpt lat="45.21767" lon="5.99137">
        <ele>1465.8</ele>
        <time>2021-04-17T05:43:07Z</time>
      </trkpt>
      <trkpt lat="45.21767" lon="5.99137">
        <ele>1465.8</ele>
        <time>2021-04-17T05:43:08Z</time>
      </trkpt>
      <trkpt lat="45.21766" lon="5.99138">
        <ele>1465.6</ele>
        <time>2021-04-17T05:43:13Z</time>
      </trkpt>
      <trkpt lat="45.21766" lon="5.99137">
        <ele>1465.4</ele>
        <time>2021-04-17T05:43:19Z</time>
      </trkpt>
      <trkpt lat="45.21766" lon="5.99137">
        <ele>1465.4</ele>
        <time>2021-04-17T05:43:25Z</time>
      </trkpt>
      <trkpt lat="45.21766" lon="5.99137">
        <ele>1465.2</ele>
        <time>2021-04-17T05:43:26Z</time>
      </trkpt>
      <trkpt lat="45.21766" lon="5.99137">
        <ele>1465.4</ele>
        <time>2021-04-17T05:43:29Z</time>
      </trkpt>
      <trkpt lat="45.21766" lon="5.99138">
        <ele>1465.4</ele>
        <time>2021-04-17T05:43:31Z</time>
      </trkpt>
      <trkpt lat="45.21766" lon="5.99138">
        <ele>1465.6</ele>
        <time>2021-04-17T05:43:34Z</time>
      </trkpt>
      <trkpt lat="45.21764" lon="5.99137">
        <ele>1465.4</ele>
        <time>2021-04-17T05:43:36Z</time>
      </trkpt>
      <trkpt lat="45.21762" lon="5.99135">
        <ele>1465.4</ele>
        <time>2021-04-17T05:43:38Z</time>
      </trkpt>
      <trkpt lat="45.21759" lon="5.99132">
        <ele>1465.8</ele>
        <time>2021-04-17T05:43:42Z</time>
      </trkpt>
      <trkpt lat="45.21756" lon="5.99127">
        <ele>1466</ele>
        <time>2021-04-17T05:43:46Z</time>
      </trkpt>
      <trkpt lat="45.21755" lon="5.99114">
        <ele>1466.6</ele>
        <time>2021-04-17T05:43:52Z</time>
      </trkpt>
      <trkpt lat="45.21755" lon="5.99112">
        <ele>1466.8</ele>
        <time>2021-04-17T05:43:53Z</time>
      </trkpt>
      <trkpt lat="45.21754" lon="5.9911">
        <ele>1467.2</ele>
        <time>2021-04-17T05:43:55Z</time>
      </trkpt>
      <trkpt lat="45.21753" lon="5.99108">
        <ele>1467.2</ele>
        <time>2021-04-17T05:43:56Z</time>
      </trkpt>
      <trkpt lat="45.21752" lon="5.99105">
        <ele>1467.4</ele>
        <time>2021-04-17T05:43:59Z</time>
      </trkpt>
      <trkpt lat="45.2175" lon="5.99103">
        <ele>1467.4</ele>
        <time>2021-04-17T05:44:01Z</time>
      </trkpt>
      <trkpt lat="45.21749" lon="5.99101">
        <ele>1467.6</ele>
        <time>2021-04-17T05:44:03Z</time>
      </trkpt>
      <trkpt lat="45.21746" lon="5.99096">
        <ele>1467.6</ele>
        <time>2021-04-17T05:44:08Z</time>
      </trkpt>
      <trkpt lat="45.21746" lon="5.99088">
        <ele>1467.6</ele>
        <time>2021-04-17T05:44:11Z</time>
      </trkpt>
      <trkpt lat="45.21748" lon="5.99081">
        <ele>1467.4</ele>
        <time>2021-04-17T05:44:15Z</time>
      </trkpt>
      <trkpt lat="45.21749" lon="5.99077">
        <ele>1467.6</ele>
        <time>2021-04-17T05:44:18Z</time>
      </trkpt>
      <trkpt lat="45.21751" lon="5.99074">
        <ele>1467.8</ele>
        <time>2021-04-17T05:44:21Z</time>
      </trkpt>
      <trkpt lat="45.21752" lon="5.99073">
        <ele>1467.8</ele>
        <time>2021-04-17T05:44:22Z</time>
      </trkpt>
      <trkpt lat="45.21753" lon="5.99068">
        <ele>1468.2</ele>
        <time>2021-04-17T05:44:27Z</time>
      </trkpt>
      <trkpt lat="45.21754" lon="5.99067">
        <ele>1468.4</ele>
        <time>2021-04-17T05:44:28Z</time>
      </trkpt>
      <trkpt lat="45.21755" lon="5.99065">
        <ele>1468.8</ele>
        <time>2021-04-17T05:44:34Z</time>
      </trkpt>
      <trkpt lat="45.21755" lon="5.99064">
        <ele>1468.8</ele>
        <time>2021-04-17T05:44:38Z</time>
      </trkpt>
      <trkpt lat="45.21755" lon="5.99063">
        <ele>1468.8</ele>
        <time>2021-04-17T05:44:39Z</time>
      </trkpt>
      <trkpt lat="45.21754" lon="5.99062">
        <ele>1468.8</ele>
        <time>2021-04-17T05:44:41Z</time>
      </trkpt>
      <trkpt lat="45.21754" lon="5.99061">
        <ele>1468.8</ele>
        <time>2021-04-17T05:44:43Z</time>
      </trkpt>
      <trkpt lat="45.21754" lon="5.99061">
        <ele>1468.8</ele>
        <time>2021-04-17T05:44:45Z</time>
      </trkpt>
      <trkpt lat="45.21754" lon="5.99061">
        <ele>1468.8</ele>
        <time>2021-04-17T05:44:46Z</time>
      </trkpt>
      <trkpt lat="45.21754" lon="5.99061">
        <ele>1468.8</ele>
        <time>2021-04-17T05:44:47Z</time>
      </trkpt>
      <trkpt lat="45.21754" lon="5.99061">
        <ele>1468.8</ele>
        <time>2021-04-17T05:44:52Z</time>
      </trkpt>
      <trkpt lat="45.21754" lon="5.99061">
        <ele>1468.8</ele>
        <time>2021-04-17T05:44:54Z</time>
      </trkpt>
      <trkpt lat="45.21754" lon="5.99062">
        <ele>1468.8</ele>
        <time>2021-04-17T05:44:56Z</time>
      </trkpt>
      <trkpt lat="45.21753" lon="5.99064">
        <ele>1468.6</ele>
        <time>2021-04-17T05:45:02Z</time>
      </trkpt>
      <trkpt lat="45.21753" lon="5.99064">
        <ele>1468.6</ele>
        <time>2021-04-17T05:45:04Z</time>
      </trkpt>
      <trkpt lat="45.21752" lon="5.99063">
        <ele>1468.6</ele>
        <time>2021-04-17T05:45:08Z</time>
      </trkpt>
      <trkpt lat="45.21752" lon="5.99064">
        <ele>1468.6</ele>
        <time>2021-04-17T05:45:14Z</time>
      </trkpt>
      <trkpt lat="45.21752" lon="5.99064">
        <ele>1468.6</ele>
        <time>2021-04-17T05:45:16Z</time>
      </trkpt>
      <trkpt lat="45.21752" lon="5.99064">
        <ele>1468.6</ele>
        <time>2021-04-17T05:45:18Z</time>
      </trkpt>
      <trkpt lat="45.21752" lon="5.99064">
        <ele>1468.6</ele>
        <time>2021-04-17T05:45:19Z</time>
      </trkpt>
      <trkpt lat="45.21752" lon="5.99064">
        <ele>1468.4</ele>
        <time>2021-04-17T05:45:21Z</time>
      </trkpt>
      <trkpt lat="45.21752" lon="5.99064">
        <ele>1468.6</ele>
        <time>2021-04-17T05:45:24Z</time>
      </trkpt>
      <trkpt lat="45.21752" lon="5.99064">
        <ele>1468.6</ele>
        <time>2021-04-17T05:45:28Z</time>
      </trkpt>
      <trkpt lat="45.21753" lon="5.99063">
        <ele>1468.8</ele>
        <time>2021-04-17T05:45:34Z</time>
      </trkpt>
      <trkpt lat="45.21753" lon="5.99063">
        <ele>1468.6</ele>
        <time>2021-04-17T05:45:36Z</time>
      </trkpt>
      <trkpt lat="45.21753" lon="5.99063">
        <ele>1468.6</ele>
        <time>2021-04-17T05:45:38Z</time>
      </trkpt>
      <trkpt lat="45.21753" lon="5.99063">
        <ele>1468.6</ele>
        <time>2021-04-17T05:45:40Z</time>
      </trkpt>
      <trkpt lat="45.21753" lon="5.99063">
        <ele>1468.6</ele>
        <time>2021-04-17T05:45:43Z</time>
      </trkpt>
      <trkpt lat="45.21753" lon="5.99064">
        <ele>1468.6</ele>
        <time>2021-04-17T05:45:45Z</time>
      </trkpt>
      <trkpt lat="45.21753" lon="5.99065">
        <ele>1468.6</ele>
        <time>2021-04-17T05:45:50Z</time>
      </trkpt>
      <trkpt lat="45.21752" lon="5.99066">
        <ele>1468.6</ele>
        <time>2021-04-17T05:45:54Z</time>
      </trkpt>
      <trkpt lat="45.21752" lon="5.99066">
        <ele>1468.6</ele>
        <time>2021-04-17T05:45:56Z</time>
      </trkpt>
      <trkpt lat="45.21752" lon="5.99066">
        <ele>1468.6</ele>
        <time>2021-04-17T05:46:02Z</time>
      </trkpt>
      <trkpt lat="45.21751" lon="5.99066">
        <ele>1468.6</ele>
        <time>2021-04-17T05:46:05Z</time>
      </trkpt>
      <trkpt lat="45.21751" lon="5.99066">
        <ele>1468.6</ele>
        <time>2021-04-17T05:46:07Z</time>
      </trkpt>
      <trkpt lat="45.21751" lon="5.99066">
        <ele>1468.6</ele>
        <time>2021-04-17T05:46:08Z</time>
      </trkpt>
      <trkpt lat="45.21751" lon="5.99066">
        <ele>1468.6</ele>
        <time>2021-04-17T05:46:10Z</time>
      </trkpt>
      <trkpt lat="45.2175" lon="5.99064">
        <ele>1468.6</ele>
        <time>2021-04-17T05:46:16Z</time>
      </trkpt>
      <trkpt lat="45.2175" lon="5.99064">
        <ele>1468.6</ele>
        <time>2021-04-17T05:46:18Z</time>
      </trkpt>
      <trkpt lat="45.21749" lon="5.99064">
        <ele>1468.6</ele>
        <time>2021-04-17T05:46:20Z</time>
      </trkpt>
      <trkpt lat="45.21749" lon="5.99064">
        <ele>1468.6</ele>
        <time>2021-04-17T05:46:23Z</time>
      </trkpt>
      <trkpt lat="45.21749" lon="5.99064">
        <ele>1468.6</ele>
        <time>2021-04-17T05:46:25Z</time>
      </trkpt>
      <trkpt lat="45.21749" lon="5.99064">
        <ele>1468.6</ele>
        <time>2021-04-17T05:46:27Z</time>
      </trkpt>
      <trkpt lat="45.21749" lon="5.99064">
        <ele>1468.6</ele>
        <time>2021-04-17T05:46:28Z</time>
      </trkpt>
      <trkpt lat="45.21749" lon="5.99064">
        <ele>1468.6</ele>
        <time>2021-04-17T05:46:29Z</time>
      </trkpt>
      <trkpt lat="45.21749" lon="5.99064">
        <ele>1468.6</ele>
        <time>2021-04-17T05:46:32Z</time>
      </trkpt>
      <trkpt lat="45.21749" lon="5.99064">
        <ele>1468.6</ele>
        <time>2021-04-17T05:46:38Z</time>
      </trkpt>
      <trkpt lat="45.21749" lon="5.99064">
        <ele>1468.6</ele>
        <time>2021-04-17T05:46:40Z</time>
      </trkpt>
      <trkpt lat="45.21749" lon="5.99064">
        <ele>1468.6</ele>
        <time>2021-04-17T05:46:42Z</time>
      </trkpt>
      <trkpt lat="45.21749" lon="5.99064">
        <ele>1468.6</ele>
        <time>2021-04-17T05:46:43Z</time>
      </trkpt>
      <trkpt lat="45.21749" lon="5.99064">
        <ele>1468.6</ele>
        <time>2021-04-17T05:46:44Z</time>
      </trkpt>
      <trkpt lat="45.21749" lon="5.99064">
        <ele>1468.6</ele>
        <time>2021-04-17T05:46:50Z</time>
      </trkpt>
      <trkpt lat="45.21749" lon="5.99064">
        <ele>1468.6</ele>
        <time>2021-04-17T05:46:55Z</time>
      </trkpt>
      <trkpt lat="45.21749" lon="5.99064">
        <ele>1468.6</ele>
        <time>2021-04-17T05:46:56Z</time>
      </trkpt>
      <trkpt lat="45.21749" lon="5.99064">
        <ele>1468.6</ele>
        <time>2021-04-17T05:46:58Z</time>
      </trkpt>
      <trkpt lat="45.2175" lon="5.99065">
        <ele>1468.6</ele>
        <time>2021-04-17T05:47:02Z</time>
      </trkpt>
      <trkpt lat="45.2175" lon="5.99065">
        <ele>1468.6</ele>
        <time>2021-04-17T05:47:05Z</time>
      </trkpt>
      <trkpt lat="45.2175" lon="5.99065">
        <ele>1468.6</ele>
        <time>2021-04-17T05:47:07Z</time>
      </trkpt>
      <trkpt lat="45.2175" lon="5.99065">
        <ele>1468.6</ele>
        <time>2021-04-17T05:47:10Z</time>
      </trkpt>
      <trkpt lat="45.2175" lon="5.99066">
        <ele>1468.6</ele>
        <time>2021-04-17T05:47:14Z</time>
      </trkpt>
      <trkpt lat="45.2175" lon="5.99067">
        <ele>1468.6</ele>
        <time>2021-04-17T05:47:17Z</time>
      </trkpt>
      <trkpt lat="45.2175" lon="5.99067">
        <ele>1468.6</ele>
        <time>2021-04-17T05:47:18Z</time>
      </trkpt>
      <trkpt lat="45.2175" lon="5.99067">
        <ele>1468.6</ele>
        <time>2021-04-17T05:47:19Z</time>
      </trkpt>
      <trkpt lat="45.2175" lon="5.99067">
        <ele>1468.6</ele>
        <time>2021-04-17T05:47:22Z</time>
      </trkpt>
      <trkpt lat="45.21751" lon="5.99067">
        <ele>1468.6</ele>
        <time>2021-04-17T05:47:25Z</time>
      </trkpt>
      <trkpt lat="45.21751" lon="5.99068">
        <ele>1468.6</ele>
        <time>2021-04-17T05:47:27Z</time>
      </trkpt>
      <trkpt lat="45.21751" lon="5.99068">
        <ele>1468.6</ele>
        <time>2021-04-17T05:47:28Z</time>
      </trkpt>
      <trkpt lat="45.21752" lon="5.99068">
        <ele>1468.6</ele>
        <time>2021-04-17T05:47:34Z</time>
      </trkpt>
      <trkpt lat="45.21752" lon="5.99069">
        <ele>1468.6</ele>
        <time>2021-04-17T05:47:36Z</time>
      </trkpt>
      <trkpt lat="45.21752" lon="5.99069">
        <ele>1468.6</ele>
        <time>2021-04-17T05:47:38Z</time>
      </trkpt>
      <trkpt lat="45.21752" lon="5.99069">
        <ele>1468.6</ele>
        <time>2021-04-17T05:47:39Z</time>
      </trkpt>
      <trkpt lat="45.21752" lon="5.99069">
        <ele>1468.6</ele>
        <time>2021-04-17T05:47:44Z</time>
      </trkpt>
      <trkpt lat="45.21752" lon="5.99069">
        <ele>1468.6</ele>
        <time>2021-04-17T05:47:45Z</time>
      </trkpt>
      <trkpt lat="45.21751" lon="5.99069">
        <ele>1468.6</ele>
        <time>2021-04-17T05:47:46Z</time>
      </trkpt>
      <trkpt lat="45.21749" lon="5.99068">
        <ele>1468.6</ele>
        <time>2021-04-17T05:47:48Z</time>
      </trkpt>
      <trkpt lat="45.21748" lon="5.99068">
        <ele>1468.6</ele>
        <time>2021-04-17T05:47:49Z</time>
      </trkpt>
      <trkpt lat="45.21746" lon="5.99067">
        <ele>1468.6</ele>
        <time>2021-04-17T05:47:50Z</time>
      </trkpt>
      <trkpt lat="45.21745" lon="5.99066">
        <ele>1468.6</ele>
        <time>2021-04-17T05:47:51Z</time>
      </trkpt>
      <trkpt lat="45.21742" lon="5.99063">
        <ele>1468.6</ele>
        <time>2021-04-17T05:47:53Z</time>
      </trkpt>
      <trkpt lat="45.21738" lon="5.99062">
        <ele>1469</ele>
        <time>2021-04-17T05:47:56Z</time>
      </trkpt>
      <trkpt lat="45.21737" lon="5.99059">
        <ele>1469</ele>
        <time>2021-04-17T05:47:58Z</time>
      </trkpt>
      <trkpt lat="45.21736" lon="5.99056">
        <ele>1469.2</ele>
        <time>2021-04-17T05:48:00Z</time>
      </trkpt>
      <trkpt lat="45.21732" lon="5.99053">
        <ele>1470</ele>
        <time>2021-04-17T05:48:04Z</time>
      </trkpt>
      <trkpt lat="45.2173" lon="5.99051">
        <ele>1470.6</ele>
        <time>2021-04-17T05:48:06Z</time>
      </trkpt>
      <trkpt lat="45.21729" lon="5.9905">
        <ele>1470.8</ele>
        <time>2021-04-17T05:48:07Z</time>
      </trkpt>
      <trkpt lat="45.21727" lon="5.99049">
        <ele>1471.2</ele>
        <time>2021-04-17T05:48:09Z</time>
      </trkpt>
      <trkpt lat="45.21724" lon="5.99045">
        <ele>1471.8</ele>
        <time>2021-04-17T05:48:12Z</time>
      </trkpt>
      <trkpt lat="45.21724" lon="5.99042">
        <ele>1472</ele>
        <time>2021-04-17T05:48:14Z</time>
      </trkpt>
      <trkpt lat="45.21724" lon="5.9904">
        <ele>1472.2</ele>
        <time>2021-04-17T05:48:15Z</time>
      </trkpt>
      <trkpt lat="45.21724" lon="5.99036">
        <ele>1472.8</ele>
        <time>2021-04-17T05:48:17Z</time>
      </trkpt>
      <trkpt lat="45.21723" lon="5.99034">
        <ele>1473.4</ele>
        <time>2021-04-17T05:48:19Z</time>
      </trkpt>
      <trkpt lat="45.21722" lon="5.99032">
        <ele>1473.8</ele>
        <time>2021-04-17T05:48:21Z</time>
      </trkpt>
      <trkpt lat="45.21721" lon="5.9903">
        <ele>1474</ele>
        <time>2021-04-17T05:48:22Z</time>
      </trkpt>
      <trkpt lat="45.21719" lon="5.99029">
        <ele>1474.4</ele>
        <time>2021-04-17T05:48:24Z</time>
      </trkpt>
      <trkpt lat="45.21718" lon="5.99028">
        <ele>1474.6</ele>
        <time>2021-04-17T05:48:25Z</time>
      </trkpt>
      <trkpt lat="45.21713" lon="5.99025">
        <ele>1475</ele>
        <time>2021-04-17T05:48:30Z</time>
      </trkpt>
      <trkpt lat="45.21705" lon="5.99023">
        <ele>1475</ele>
        <time>2021-04-17T05:48:36Z</time>
      </trkpt>
      <trkpt lat="45.21704" lon="5.99023">
        <ele>1475.2</ele>
        <time>2021-04-17T05:48:37Z</time>
      </trkpt>
      <trkpt lat="45.21703" lon="5.99023">
        <ele>1475.2</ele>
        <time>2021-04-17T05:48:38Z</time>
      </trkpt>
      <trkpt lat="45.21702" lon="5.99023">
        <ele>1475.4</ele>
        <time>2021-04-17T05:48:39Z</time>
      </trkpt>
      <trkpt lat="45.21701" lon="5.99022">
        <ele>1475.6</ele>
        <time>2021-04-17T05:48:40Z</time>
      </trkpt>
      <trkpt lat="45.217" lon="5.9902">
        <ele>1476.2</ele>
        <time>2021-04-17T05:48:43Z</time>
      </trkpt>
      <trkpt lat="45.21699" lon="5.99019">
        <ele>1476.6</ele>
        <time>2021-04-17T05:48:44Z</time>
      </trkpt>
      <trkpt lat="45.21699" lon="5.99018">
        <ele>1476.8</ele>
        <time>2021-04-17T05:48:45Z</time>
      </trkpt>
      <trkpt lat="45.21698" lon="5.99012">
        <ele>1477.4</ele>
        <time>2021-04-17T05:48:49Z</time>
      </trkpt>
      <trkpt lat="45.21698" lon="5.99011">
        <ele>1477.8</ele>
        <time>2021-04-17T05:48:50Z</time>
      </trkpt>
      <trkpt lat="45.21698" lon="5.99011">
        <ele>1478</ele>
        <time>2021-04-17T05:48:51Z</time>
      </trkpt>
      <trkpt lat="45.21697" lon="5.99011">
        <ele>1478.8</ele>
        <time>2021-04-17T05:48:53Z</time>
      </trkpt>
      <trkpt lat="45.21697" lon="5.9901">
        <ele>1479</ele>
        <time>2021-04-17T05:48:54Z</time>
      </trkpt>
      <trkpt lat="45.21696" lon="5.99009">
        <ele>1479.4</ele>
        <time>2021-04-17T05:48:55Z</time>
      </trkpt>
      <trkpt lat="45.21693" lon="5.99008">
        <ele>1479.8</ele>
        <time>2021-04-17T05:48:58Z</time>
      </trkpt>
      <trkpt lat="45.21692" lon="5.99008">
        <ele>1480</ele>
        <time>2021-04-17T05:48:59Z</time>
      </trkpt>
      <trkpt lat="45.21691" lon="5.99008">
        <ele>1480.4</ele>
        <time>2021-04-17T05:49:01Z</time>
      </trkpt>
      <trkpt lat="45.21689" lon="5.99007">
        <ele>1480.8</ele>
        <time>2021-04-17T05:49:03Z</time>
      </trkpt>
      <trkpt lat="45.21687" lon="5.99005">
        <ele>1481.4</ele>
        <time>2021-04-17T05:49:05Z</time>
      </trkpt>
      <trkpt lat="45.21684" lon="5.98999">
        <ele>1482.2</ele>
        <time>2021-04-17T05:49:09Z</time>
      </trkpt>
      <trkpt lat="45.21682" lon="5.98997">
        <ele>1482.6</ele>
        <time>2021-04-17T05:49:11Z</time>
      </trkpt>
      <trkpt lat="45.21677" lon="5.98994">
        <ele>1482.8</ele>
        <time>2021-04-17T05:49:14Z</time>
      </trkpt>
      <trkpt lat="45.21677" lon="5.98993">
        <ele>1483.2</ele>
        <time>2021-04-17T05:49:15Z</time>
      </trkpt>
      <trkpt lat="45.21677" lon="5.98991">
        <ele>1483.6</ele>
        <time>2021-04-17T05:49:17Z</time>
      </trkpt>
      <trkpt lat="45.21677" lon="5.98988">
        <ele>1483.8</ele>
        <time>2021-04-17T05:49:18Z</time>
      </trkpt>
      <trkpt lat="45.21674" lon="5.98986">
        <ele>1484.2</ele>
        <time>2021-04-17T05:49:20Z</time>
      </trkpt>
      <trkpt lat="45.21672" lon="5.98983">
        <ele>1484.6</ele>
        <time>2021-04-17T05:49:22Z</time>
      </trkpt>
      <trkpt lat="45.21671" lon="5.98983">
        <ele>1485</ele>
        <time>2021-04-17T05:49:23Z</time>
      </trkpt>
      <trkpt lat="45.2167" lon="5.98981">
        <ele>1485.2</ele>
        <time>2021-04-17T05:49:24Z</time>
      </trkpt>
      <trkpt lat="45.21669" lon="5.98979">
        <ele>1485.6</ele>
        <time>2021-04-17T05:49:26Z</time>
      </trkpt>
      <trkpt lat="45.21669" lon="5.98978">
        <ele>1485.8</ele>
        <time>2021-04-17T05:49:27Z</time>
      </trkpt>
      <trkpt lat="45.2167" lon="5.98972">
        <ele>1486.8</ele>
        <time>2021-04-17T05:49:31Z</time>
      </trkpt>
      <trkpt lat="45.21669" lon="5.9897">
        <ele>1487</ele>
        <time>2021-04-17T05:49:32Z</time>
      </trkpt>
      <trkpt lat="45.21669" lon="5.9897">
        <ele>1487.2</ele>
        <time>2021-04-17T05:49:33Z</time>
      </trkpt>
      <trkpt lat="45.21665" lon="5.98966">
        <ele>1488</ele>
        <time>2021-04-17T05:49:37Z</time>
      </trkpt>
      <trkpt lat="45.21664" lon="5.98964">
        <ele>1488.2</ele>
        <time>2021-04-17T05:49:38Z</time>
      </trkpt>
      <trkpt lat="45.21662" lon="5.9896">
        <ele>1489</ele>
        <time>2021-04-17T05:49:42Z</time>
      </trkpt>
      <trkpt lat="45.21662" lon="5.98959">
        <ele>1489.2</ele>
        <time>2021-04-17T05:49:43Z</time>
      </trkpt>
      <trkpt lat="45.2166" lon="5.98958">
        <ele>1489.6</ele>
        <time>2021-04-17T05:49:45Z</time>
      </trkpt>
      <trkpt lat="45.21658" lon="5.98957">
        <ele>1490.2</ele>
        <time>2021-04-17T05:49:47Z</time>
      </trkpt>
      <trkpt lat="45.21658" lon="5.98955">
        <ele>1490.6</ele>
        <time>2021-04-17T05:49:48Z</time>
      </trkpt>
      <trkpt lat="45.21655" lon="5.98953">
        <ele>1491.2</ele>
        <time>2021-04-17T05:49:51Z</time>
      </trkpt>
      <trkpt lat="45.21651" lon="5.98951">
        <ele>1492</ele>
        <time>2021-04-17T05:49:54Z</time>
      </trkpt>
      <trkpt lat="45.21649" lon="5.98948">
        <ele>1492.4</ele>
        <time>2021-04-17T05:49:56Z</time>
      </trkpt>
      <trkpt lat="45.21649" lon="5.98947">
        <ele>1492.8</ele>
        <time>2021-04-17T05:49:57Z</time>
      </trkpt>
      <trkpt lat="45.21646" lon="5.98944">
        <ele>1493.6</ele>
        <time>2021-04-17T05:50:01Z</time>
      </trkpt>
      <trkpt lat="45.21645" lon="5.98942">
        <ele>1494</ele>
        <time>2021-04-17T05:50:03Z</time>
      </trkpt>
      <trkpt lat="45.21641" lon="5.98939">
        <ele>1494.6</ele>
        <time>2021-04-17T05:50:05Z</time>
      </trkpt>
      <trkpt lat="45.21638" lon="5.98936">
        <ele>1495.4</ele>
        <time>2021-04-17T05:50:09Z</time>
      </trkpt>
      <trkpt lat="45.21637" lon="5.98934">
        <ele>1495.8</ele>
        <time>2021-04-17T05:50:10Z</time>
      </trkpt>
      <trkpt lat="45.21637" lon="5.98933">
        <ele>1496</ele>
        <time>2021-04-17T05:50:11Z</time>
      </trkpt>
      <trkpt lat="45.21635" lon="5.98929">
        <ele>1496.4</ele>
        <time>2021-04-17T05:50:13Z</time>
      </trkpt>
      <trkpt lat="45.21633" lon="5.98925">
        <ele>1496.8</ele>
        <time>2021-04-17T05:50:15Z</time>
      </trkpt>
      <trkpt lat="45.21633" lon="5.98924">
        <ele>1497</ele>
        <time>2021-04-17T05:50:16Z</time>
      </trkpt>
      <trkpt lat="45.21632" lon="5.98921">
        <ele>1498</ele>
        <time>2021-04-17T05:50:19Z</time>
      </trkpt>
      <trkpt lat="45.21631" lon="5.98919">
        <ele>1498.2</ele>
        <time>2021-04-17T05:50:20Z</time>
      </trkpt>
      <trkpt lat="45.2163" lon="5.98917">
        <ele>1498.8</ele>
        <time>2021-04-17T05:50:22Z</time>
      </trkpt>
      <trkpt lat="45.21629" lon="5.98915">
        <ele>1499</ele>
        <time>2021-04-17T05:50:23Z</time>
      </trkpt>
      <trkpt lat="45.21629" lon="5.98912">
        <ele>1499.4</ele>
        <time>2021-04-17T05:50:25Z</time>
      </trkpt>
      <trkpt lat="45.2163" lon="5.98907">
        <ele>1500.2</ele>
        <time>2021-04-17T05:50:28Z</time>
      </trkpt>
      <trkpt lat="45.2163" lon="5.98906">
        <ele>1500.8</ele>
        <time>2021-04-17T05:50:30Z</time>
      </trkpt>
      <trkpt lat="45.21629" lon="5.98906">
        <ele>1501</ele>
        <time>2021-04-17T05:50:31Z</time>
      </trkpt>
      <trkpt lat="45.21627" lon="5.98904">
        <ele>1501.4</ele>
        <time>2021-04-17T05:50:33Z</time>
      </trkpt>
      <trkpt lat="45.21624" lon="5.989">
        <ele>1502.4</ele>
        <time>2021-04-17T05:50:37Z</time>
      </trkpt>
      <trkpt lat="45.21624" lon="5.98899">
        <ele>1502.6</ele>
        <time>2021-04-17T05:50:38Z</time>
      </trkpt>
      <trkpt lat="45.21618" lon="5.98894">
        <ele>1503.8</ele>
        <time>2021-04-17T05:50:43Z</time>
      </trkpt>
      <trkpt lat="45.21616" lon="5.98891">
        <ele>1504.4</ele>
        <time>2021-04-17T05:50:45Z</time>
      </trkpt>
      <trkpt lat="45.21614" lon="5.98888">
        <ele>1505</ele>
        <time>2021-04-17T05:50:47Z</time>
      </trkpt>
      <trkpt lat="45.21613" lon="5.98886">
        <ele>1505.6</ele>
        <time>2021-04-17T05:50:49Z</time>
      </trkpt>
      <trkpt lat="45.21612" lon="5.98882">
        <ele>1506.2</ele>
        <time>2021-04-17T05:50:51Z</time>
      </trkpt>
      <trkpt lat="45.21611" lon="5.98881">
        <ele>1506.4</ele>
        <time>2021-04-17T05:50:52Z</time>
      </trkpt>
      <trkpt lat="45.21608" lon="5.98879">
        <ele>1507.4</ele>
        <time>2021-04-17T05:50:56Z</time>
      </trkpt>
      <trkpt lat="45.21606" lon="5.98876">
        <ele>1508</ele>
        <time>2021-04-17T05:50:59Z</time>
      </trkpt>
      <trkpt lat="45.21605" lon="5.98873">
        <ele>1508.4</ele>
        <time>2021-04-17T05:51:01Z</time>
      </trkpt>
      <trkpt lat="45.21604" lon="5.98872">
        <ele>1508.6</ele>
        <time>2021-04-17T05:51:02Z</time>
      </trkpt>
      <trkpt lat="45.21604" lon="5.9887">
        <ele>1508.6</ele>
        <time>2021-04-17T05:51:03Z</time>
      </trkpt>
      <trkpt lat="45.21604" lon="5.98866">
        <ele>1509.2</ele>
        <time>2021-04-17T05:51:05Z</time>
      </trkpt>
      <trkpt lat="45.21605" lon="5.98863">
        <ele>1509.6</ele>
        <time>2021-04-17T05:51:07Z</time>
      </trkpt>
      <trkpt lat="45.21604" lon="5.98861">
        <ele>1510.2</ele>
        <time>2021-04-17T05:51:09Z</time>
      </trkpt>
      <trkpt lat="45.21603" lon="5.98858">
        <ele>1510.8</ele>
        <time>2021-04-17T05:51:11Z</time>
      </trkpt>
      <trkpt lat="45.21602" lon="5.98857">
        <ele>1511</ele>
        <time>2021-04-17T05:51:12Z</time>
      </trkpt>
      <trkpt lat="45.21601" lon="5.98854">
        <ele>1511.8</ele>
        <time>2021-04-17T05:51:14Z</time>
      </trkpt>
      <trkpt lat="45.21601" lon="5.98852">
        <ele>1512.2</ele>
        <time>2021-04-17T05:51:15Z</time>
      </trkpt>
      <trkpt lat="45.216" lon="5.98851">
        <ele>1512.4</ele>
        <time>2021-04-17T05:51:16Z</time>
      </trkpt>
      <trkpt lat="45.21599" lon="5.98847">
        <ele>1513.4</ele>
        <time>2021-04-17T05:51:19Z</time>
      </trkpt>
      <trkpt lat="45.21598" lon="5.98847">
        <ele>1513.6</ele>
        <time>2021-04-17T05:51:20Z</time>
      </trkpt>
      <trkpt lat="45.21599" lon="5.98846">
        <ele>1513.8</ele>
        <time>2021-04-17T05:51:21Z</time>
      </trkpt>
      <trkpt lat="45.21598" lon="5.98844">
        <ele>1514.4</ele>
        <time>2021-04-17T05:51:23Z</time>
      </trkpt>
      <trkpt lat="45.21597" lon="5.98842">
        <ele>1515</ele>
        <time>2021-04-17T05:51:25Z</time>
      </trkpt>
      <trkpt lat="45.21595" lon="5.98837">
        <ele>1515.8</ele>
        <time>2021-04-17T05:51:28Z</time>
      </trkpt>
      <trkpt lat="45.21595" lon="5.98833">
        <ele>1516.4</ele>
        <time>2021-04-17T05:51:30Z</time>
      </trkpt>
      <trkpt lat="45.21593" lon="5.98827">
        <ele>1517</ele>
        <time>2021-04-17T05:51:33Z</time>
      </trkpt>
      <trkpt lat="45.21593" lon="5.98826">
        <ele>1517.2</ele>
        <time>2021-04-17T05:51:34Z</time>
      </trkpt>
      <trkpt lat="45.21592" lon="5.98823">
        <ele>1517.6</ele>
        <time>2021-04-17T05:51:36Z</time>
      </trkpt>
      <trkpt lat="45.21591" lon="5.9882">
        <ele>1518.2</ele>
        <time>2021-04-17T05:51:38Z</time>
      </trkpt>
      <trkpt lat="45.21591" lon="5.98819">
        <ele>1518.6</ele>
        <time>2021-04-17T05:51:40Z</time>
      </trkpt>
      <trkpt lat="45.21589" lon="5.98816">
        <ele>1519.4</ele>
        <time>2021-04-17T05:51:43Z</time>
      </trkpt>
      <trkpt lat="45.21588" lon="5.98815">
        <ele>1519.6</ele>
        <time>2021-04-17T05:51:44Z</time>
      </trkpt>
      <trkpt lat="45.21586" lon="5.98814">
        <ele>1520.4</ele>
        <time>2021-04-17T05:51:45Z</time>
      </trkpt>
      <trkpt lat="45.21585" lon="5.98813">
        <ele>1520.4</ele>
        <time>2021-04-17T05:51:46Z</time>
      </trkpt>
      <trkpt lat="45.21584" lon="5.9881">
        <ele>1521.2</ele>
        <time>2021-04-17T05:51:48Z</time>
      </trkpt>
      <trkpt lat="45.21584" lon="5.98808">
        <ele>1521.4</ele>
        <time>2021-04-17T05:51:49Z</time>
      </trkpt>
      <trkpt lat="45.21582" lon="5.98806">
        <ele>1521.8</ele>
        <time>2021-04-17T05:51:51Z</time>
      </trkpt>
      <trkpt lat="45.21581" lon="5.98805">
        <ele>1522</ele>
        <time>2021-04-17T05:51:52Z</time>
      </trkpt>
      <trkpt lat="45.21581" lon="5.98804">
        <ele>1522.4</ele>
        <time>2021-04-17T05:51:53Z</time>
      </trkpt>
      <trkpt lat="45.21581" lon="5.98803">
        <ele>1522.6</ele>
        <time>2021-04-17T05:51:54Z</time>
      </trkpt>
      <trkpt lat="45.2158" lon="5.98802">
        <ele>1522.8</ele>
        <time>2021-04-17T05:51:55Z</time>
      </trkpt>
      <trkpt lat="45.21579" lon="5.98801">
        <ele>1523.6</ele>
        <time>2021-04-17T05:51:57Z</time>
      </trkpt>
      <trkpt lat="45.21578" lon="5.98801">
        <ele>1524</ele>
        <time>2021-04-17T05:51:58Z</time>
      </trkpt>
      <trkpt lat="45.21574" lon="5.98799">
        <ele>1525.6</ele>
        <time>2021-04-17T05:52:02Z</time>
      </trkpt>
      <trkpt lat="45.21572" lon="5.98797">
        <ele>1526.2</ele>
        <time>2021-04-17T05:52:05Z</time>
      </trkpt>
      <trkpt lat="45.21572" lon="5.98794">
        <ele>1526.6</ele>
        <time>2021-04-17T05:52:07Z</time>
      </trkpt>
      <trkpt lat="45.21572" lon="5.98791">
        <ele>1527.4</ele>
        <time>2021-04-17T05:52:10Z</time>
      </trkpt>
      <trkpt lat="45.21571" lon="5.98792">
        <ele>1527.6</ele>
        <time>2021-04-17T05:52:11Z</time>
      </trkpt>
      <trkpt lat="45.2157" lon="5.98792">
        <ele>1528</ele>
        <time>2021-04-17T05:52:12Z</time>
      </trkpt>
      <trkpt lat="45.2157" lon="5.98791">
        <ele>1528.2</ele>
        <time>2021-04-17T05:52:13Z</time>
      </trkpt>
      <trkpt lat="45.21569" lon="5.98788">
        <ele>1529.2</ele>
        <time>2021-04-17T05:52:16Z</time>
      </trkpt>
      <trkpt lat="45.21569" lon="5.98787">
        <ele>1529.4</ele>
        <time>2021-04-17T05:52:17Z</time>
      </trkpt>
      <trkpt lat="45.21569" lon="5.98785">
        <ele>1530</ele>
        <time>2021-04-17T05:52:19Z</time>
      </trkpt>
      <trkpt lat="45.21569" lon="5.98784">
        <ele>1530.4</ele>
        <time>2021-04-17T05:52:21Z</time>
      </trkpt>
      <trkpt lat="45.21568" lon="5.9878">
        <ele>1531.2</ele>
        <time>2021-04-17T05:52:24Z</time>
      </trkpt>
      <trkpt lat="45.21567" lon="5.98778">
        <ele>1531.6</ele>
        <time>2021-04-17T05:52:25Z</time>
      </trkpt>
      <trkpt lat="45.21566" lon="5.98775">
        <ele>1532.4</ele>
        <time>2021-04-17T05:52:27Z</time>
      </trkpt>
      <trkpt lat="45.21565" lon="5.98774">
        <ele>1532.8</ele>
        <time>2021-04-17T05:52:28Z</time>
      </trkpt>
      <trkpt lat="45.21564" lon="5.98773">
        <ele>1533</ele>
        <time>2021-04-17T05:52:29Z</time>
      </trkpt>
      <trkpt lat="45.21563" lon="5.9877">
        <ele>1533.8</ele>
        <time>2021-04-17T05:52:31Z</time>
      </trkpt>
      <trkpt lat="45.21563" lon="5.98768">
        <ele>1534</ele>
        <time>2021-04-17T05:52:32Z</time>
      </trkpt>
      <trkpt lat="45.21562" lon="5.98768">
        <ele>1534.2</ele>
        <time>2021-04-17T05:52:33Z</time>
      </trkpt>
      <trkpt lat="45.21561" lon="5.98767">
        <ele>1534.8</ele>
        <time>2021-04-17T05:52:35Z</time>
      </trkpt>
      <trkpt lat="45.2156" lon="5.98765">
        <ele>1535.8</ele>
        <time>2021-04-17T05:52:39Z</time>
      </trkpt>
      <trkpt lat="45.21557" lon="5.98763">
        <ele>1537</ele>
        <time>2021-04-17T05:52:42Z</time>
      </trkpt>
      <trkpt lat="45.21554" lon="5.9876">
        <ele>1537.8</ele>
        <time>2021-04-17T05:52:45Z</time>
      </trkpt>
      <trkpt lat="45.21554" lon="5.98758">
        <ele>1538.2</ele>
        <time>2021-04-17T05:52:47Z</time>
      </trkpt>
      <trkpt lat="45.21552" lon="5.98756">
        <ele>1539.2</ele>
        <time>2021-04-17T05:52:50Z</time>
      </trkpt>
      <trkpt lat="45.21551" lon="5.98755">
        <ele>1539.4</ele>
        <time>2021-04-17T05:52:51Z</time>
      </trkpt>
      <trkpt lat="45.2155" lon="5.98752">
        <ele>1540</ele>
        <time>2021-04-17T05:52:53Z</time>
      </trkpt>
      <trkpt lat="45.21551" lon="5.98749">
        <ele>1540.8</ele>
        <time>2021-04-17T05:52:55Z</time>
      </trkpt>
      <trkpt lat="45.21551" lon="5.98747">
        <ele>1541</ele>
        <time>2021-04-17T05:52:56Z</time>
      </trkpt>
      <trkpt lat="45.21551" lon="5.98743">
        <ele>1541.8</ele>
        <time>2021-04-17T05:52:59Z</time>
      </trkpt>
      <trkpt lat="45.21552" lon="5.98741">
        <ele>1542.4</ele>
        <time>2021-04-17T05:53:01Z</time>
      </trkpt>
      <trkpt lat="45.21551" lon="5.98739">
        <ele>1542.8</ele>
        <time>2021-04-17T05:53:03Z</time>
      </trkpt>
      <trkpt lat="45.21547" lon="5.98736">
        <ele>1543.8</ele>
        <time>2021-04-17T05:53:07Z</time>
      </trkpt>
      <trkpt lat="45.21547" lon="5.98736">
        <ele>1544</ele>
        <time>2021-04-17T05:53:08Z</time>
      </trkpt>
      <trkpt lat="45.21543" lon="5.98734">
        <ele>1545.2</ele>
        <time>2021-04-17T05:53:12Z</time>
      </trkpt>
      <trkpt lat="45.21539" lon="5.98732">
        <ele>1546</ele>
        <time>2021-04-17T05:53:15Z</time>
      </trkpt>
      <trkpt lat="45.21537" lon="5.98732">
        <ele>1546.4</ele>
        <time>2021-04-17T05:53:16Z</time>
      </trkpt>
      <trkpt lat="45.21534" lon="5.98729">
        <ele>1547.4</ele>
        <time>2021-04-17T05:53:20Z</time>
      </trkpt>
      <trkpt lat="45.21534" lon="5.98725">
        <ele>1548</ele>
        <time>2021-04-17T05:53:22Z</time>
      </trkpt>
      <trkpt lat="45.21535" lon="5.98721">
        <ele>1548.6</ele>
        <time>2021-04-17T05:53:24Z</time>
      </trkpt>
      <trkpt lat="45.21534" lon="5.9872">
        <ele>1548.8</ele>
        <time>2021-04-17T05:53:25Z</time>
      </trkpt>
      <trkpt lat="45.21534" lon="5.98718">
        <ele>1549.2</ele>
        <time>2021-04-17T05:53:27Z</time>
      </trkpt>
      <trkpt lat="45.21534" lon="5.98717">
        <ele>1549.6</ele>
        <time>2021-04-17T05:53:28Z</time>
      </trkpt>
      <trkpt lat="45.21534" lon="5.98716">
        <ele>1550</ele>
        <time>2021-04-17T05:53:29Z</time>
      </trkpt>
      <trkpt lat="45.21531" lon="5.98714">
        <ele>1550.8</ele>
        <time>2021-04-17T05:53:32Z</time>
      </trkpt>
      <trkpt lat="45.21528" lon="5.98712">
        <ele>1551.8</ele>
        <time>2021-04-17T05:53:36Z</time>
      </trkpt>
      <trkpt lat="45.21527" lon="5.98711">
        <ele>1552.4</ele>
        <time>2021-04-17T05:53:38Z</time>
      </trkpt>
      <trkpt lat="45.21527" lon="5.98707">
        <ele>1552.8</ele>
        <time>2021-04-17T05:53:40Z</time>
      </trkpt>
      <trkpt lat="45.21527" lon="5.98704">
        <ele>1553.2</ele>
        <time>2021-04-17T05:53:42Z</time>
      </trkpt>
      <trkpt lat="45.21525" lon="5.98702">
        <ele>1554</ele>
        <time>2021-04-17T05:53:46Z</time>
      </trkpt>
      <trkpt lat="45.21522" lon="5.98701">
        <ele>1555</ele>
        <time>2021-04-17T05:53:49Z</time>
      </trkpt>
      <trkpt lat="45.21521" lon="5.987">
        <ele>1555.4</ele>
        <time>2021-04-17T05:53:50Z</time>
      </trkpt>
      <trkpt lat="45.2152" lon="5.98698">
        <ele>1556</ele>
        <time>2021-04-17T05:53:53Z</time>
      </trkpt>
      <trkpt lat="45.21519" lon="5.98696">
        <ele>1556.8</ele>
        <time>2021-04-17T05:53:55Z</time>
      </trkpt>
      <trkpt lat="45.21518" lon="5.98691">
        <ele>1557.8</ele>
        <time>2021-04-17T05:53:59Z</time>
      </trkpt>
      <trkpt lat="45.2152" lon="5.98686">
        <ele>1558.4</ele>
        <time>2021-04-17T05:54:02Z</time>
      </trkpt>
      <trkpt lat="45.21522" lon="5.98682">
        <ele>1559</ele>
        <time>2021-04-17T05:54:04Z</time>
      </trkpt>
      <trkpt lat="45.21522" lon="5.98681">
        <ele>1559.2</ele>
        <time>2021-04-17T05:54:05Z</time>
      </trkpt>
      <trkpt lat="45.21523" lon="5.98677">
        <ele>1560</ele>
        <time>2021-04-17T05:54:08Z</time>
      </trkpt>
      <trkpt lat="45.21523" lon="5.98676">
        <ele>1561</ele>
        <time>2021-04-17T05:54:11Z</time>
      </trkpt>
      <trkpt lat="45.21521" lon="5.98676">
        <ele>1561.8</ele>
        <time>2021-04-17T05:54:13Z</time>
      </trkpt>
      <trkpt lat="45.21518" lon="5.98675">
        <ele>1562.2</ele>
        <time>2021-04-17T05:54:15Z</time>
      </trkpt>
      <trkpt lat="45.21516" lon="5.98675">
        <ele>1563</ele>
        <time>2021-04-17T05:54:18Z</time>
      </trkpt>
      <trkpt lat="45.21515" lon="5.98677">
        <ele>1563.4</ele>
        <time>2021-04-17T05:54:20Z</time>
      </trkpt>
      <trkpt lat="45.21513" lon="5.98677">
        <ele>1564.6</ele>
        <time>2021-04-17T05:54:23Z</time>
      </trkpt>
      <trkpt lat="45.21512" lon="5.98678">
        <ele>1565</ele>
        <time>2021-04-17T05:54:25Z</time>
      </trkpt>
      <trkpt lat="45.2151" lon="5.98678">
        <ele>1565.6</ele>
        <time>2021-04-17T05:54:27Z</time>
      </trkpt>
      <trkpt lat="45.21508" lon="5.98674">
        <ele>1566.2</ele>
        <time>2021-04-17T05:54:30Z</time>
      </trkpt>
      <trkpt lat="45.2151" lon="5.98667">
        <ele>1566.6</ele>
        <time>2021-04-17T05:54:34Z</time>
      </trkpt>
      <trkpt lat="45.2151" lon="5.98665">
        <ele>1567.2</ele>
        <time>2021-04-17T05:54:36Z</time>
      </trkpt>
      <trkpt lat="45.2151" lon="5.98662">
        <ele>1567.8</ele>
        <time>2021-04-17T05:54:38Z</time>
      </trkpt>
      <trkpt lat="45.21509" lon="5.9866">
        <ele>1569</ele>
        <time>2021-04-17T05:54:42Z</time>
      </trkpt>
      <trkpt lat="45.21508" lon="5.9866">
        <ele>1569.8</ele>
        <time>2021-04-17T05:54:44Z</time>
      </trkpt>
      <trkpt lat="45.21507" lon="5.9866">
        <ele>1570</ele>
        <time>2021-04-17T05:54:45Z</time>
      </trkpt>
      <trkpt lat="45.21505" lon="5.9866">
        <ele>1571</ele>
        <time>2021-04-17T05:54:50Z</time>
      </trkpt>
      <trkpt lat="45.21504" lon="5.98657">
        <ele>1572.4</ele>
        <time>2021-04-17T05:54:54Z</time>
      </trkpt>
      <trkpt lat="45.21504" lon="5.98656">
        <ele>1572.6</ele>
        <time>2021-04-17T05:54:55Z</time>
      </trkpt>
      <trkpt lat="45.21505" lon="5.98649">
        <ele>1573.2</ele>
        <time>2021-04-17T05:54:59Z</time>
      </trkpt>
      <trkpt lat="45.21505" lon="5.98648">
        <ele>1573.4</ele>
        <time>2021-04-17T05:55:00Z</time>
      </trkpt>
      <trkpt lat="45.21505" lon="5.9864">
        <ele>1574.4</ele>
        <time>2021-04-17T05:55:05Z</time>
      </trkpt>
      <trkpt lat="45.21506" lon="5.98636">
        <ele>1575.6</ele>
        <time>2021-04-17T05:55:09Z</time>
      </trkpt>
      <trkpt lat="45.21504" lon="5.98636">
        <ele>1576.6</ele>
        <time>2021-04-17T05:55:13Z</time>
      </trkpt>
      <trkpt lat="45.21504" lon="5.98636">
        <ele>1577</ele>
        <time>2021-04-17T05:55:14Z</time>
      </trkpt>
      <trkpt lat="45.21499" lon="5.98638">
        <ele>1578.2</ele>
        <time>2021-04-17T05:55:18Z</time>
      </trkpt>
      <trkpt lat="45.21498" lon="5.98638">
        <ele>1578.4</ele>
        <time>2021-04-17T05:55:19Z</time>
      </trkpt>
      <trkpt lat="45.21496" lon="5.98639">
        <ele>1579.2</ele>
        <time>2021-04-17T05:55:23Z</time>
      </trkpt>
      <trkpt lat="45.21495" lon="5.98638">
        <ele>1579.4</ele>
        <time>2021-04-17T05:55:24Z</time>
      </trkpt>
      <trkpt lat="45.21495" lon="5.98631">
        <ele>1580.2</ele>
        <time>2021-04-17T05:55:28Z</time>
      </trkpt>
      <trkpt lat="45.21497" lon="5.98626">
        <ele>1581.2</ele>
        <time>2021-04-17T05:55:32Z</time>
      </trkpt>
      <trkpt lat="45.21497" lon="5.98626">
        <ele>1581.8</ele>
        <time>2021-04-17T05:55:34Z</time>
      </trkpt>
      <trkpt lat="45.21496" lon="5.98625">
        <ele>1582.4</ele>
        <time>2021-04-17T05:55:36Z</time>
      </trkpt>
      <trkpt lat="45.21495" lon="5.98624">
        <ele>1582.8</ele>
        <time>2021-04-17T05:55:37Z</time>
      </trkpt>
      <trkpt lat="45.21493" lon="5.98623">
        <ele>1583.6</ele>
        <time>2021-04-17T05:55:40Z</time>
      </trkpt>
      <trkpt lat="45.21492" lon="5.98623">
        <ele>1584</ele>
        <time>2021-04-17T05:55:41Z</time>
      </trkpt>
      <trkpt lat="45.21492" lon="5.98616">
        <ele>1584.8</ele>
        <time>2021-04-17T05:55:45Z</time>
      </trkpt>
      <trkpt lat="45.21492" lon="5.98613">
        <ele>1585.2</ele>
        <time>2021-04-17T05:55:47Z</time>
      </trkpt>
      <trkpt lat="45.21492" lon="5.98611">
        <ele>1585.8</ele>
        <time>2021-04-17T05:55:49Z</time>
      </trkpt>
      <trkpt lat="45.21494" lon="5.98609">
        <ele>1587</ele>
        <time>2021-04-17T05:55:52Z</time>
      </trkpt>
      <trkpt lat="45.21493" lon="5.98608">
        <ele>1587.4</ele>
        <time>2021-04-17T05:55:54Z</time>
      </trkpt>
      <trkpt lat="45.21492" lon="5.98609">
        <ele>1588</ele>
        <time>2021-04-17T05:55:56Z</time>
      </trkpt>
      <trkpt lat="45.21491" lon="5.9861">
        <ele>1588.2</ele>
        <time>2021-04-17T05:55:57Z</time>
      </trkpt>
      <trkpt lat="45.21487" lon="5.98612">
        <ele>1589</ele>
        <time>2021-04-17T05:56:00Z</time>
      </trkpt>
      <trkpt lat="45.21486" lon="5.98613">
        <ele>1589.2</ele>
        <time>2021-04-17T05:56:01Z</time>
      </trkpt>
      <trkpt lat="45.21481" lon="5.98615">
        <ele>1590.2</ele>
        <time>2021-04-17T05:56:06Z</time>
      </trkpt>
      <trkpt lat="45.2148" lon="5.98615">
        <ele>1591</ele>
        <time>2021-04-17T05:56:08Z</time>
      </trkpt>
      <trkpt lat="45.21479" lon="5.98615">
        <ele>1591.6</ele>
        <time>2021-04-17T05:56:10Z</time>
      </trkpt>
      <trkpt lat="45.21476" lon="5.98613">
        <ele>1592.4</ele>
        <time>2021-04-17T05:56:13Z</time>
      </trkpt>
      <trkpt lat="45.21475" lon="5.98612">
        <ele>1592.6</ele>
        <time>2021-04-17T05:56:14Z</time>
      </trkpt>
      <trkpt lat="45.21475" lon="5.9861">
        <ele>1592.8</ele>
        <time>2021-04-17T05:56:15Z</time>
      </trkpt>
      <trkpt lat="45.21475" lon="5.98607">
        <ele>1593.2</ele>
        <time>2021-04-17T05:56:17Z</time>
      </trkpt>
      <trkpt lat="45.21477" lon="5.98602">
        <ele>1593.4</ele>
        <time>2021-04-17T05:56:19Z</time>
      </trkpt>
      <trkpt lat="45.21477" lon="5.986">
        <ele>1593.6</ele>
        <time>2021-04-17T05:56:20Z</time>
      </trkpt>
      <trkpt lat="45.21476" lon="5.98599">
        <ele>1593.6</ele>
        <time>2021-04-17T05:56:21Z</time>
      </trkpt>
      <trkpt lat="45.21477" lon="5.98596">
        <ele>1594.2</ele>
        <time>2021-04-17T05:56:24Z</time>
      </trkpt>
      <trkpt lat="45.21478" lon="5.98594">
        <ele>1594.4</ele>
        <time>2021-04-17T05:56:26Z</time>
      </trkpt>
      <trkpt lat="45.21478" lon="5.98593">
        <ele>1594.8</ele>
        <time>2021-04-17T05:56:27Z</time>
      </trkpt>
      <trkpt lat="45.21479" lon="5.98586">
        <ele>1595.8</ele>
        <time>2021-04-17T05:56:33Z</time>
      </trkpt>
      <trkpt lat="45.21479" lon="5.98586">
        <ele>1596</ele>
        <time>2021-04-17T05:56:34Z</time>
      </trkpt>
      <trkpt lat="45.2148" lon="5.98582">
        <ele>1597.2</ele>
        <time>2021-04-17T05:56:38Z</time>
      </trkpt>
      <trkpt lat="45.2148" lon="5.98581">
        <ele>1597.4</ele>
        <time>2021-04-17T05:56:39Z</time>
      </trkpt>
      <trkpt lat="45.2148" lon="5.98581">
        <ele>1598.4</ele>
        <time>2021-04-17T05:56:42Z</time>
      </trkpt>
      <trkpt lat="45.21478" lon="5.98582">
        <ele>1599</ele>
        <time>2021-04-17T05:56:45Z</time>
      </trkpt>
      <trkpt lat="45.21476" lon="5.98583">
        <ele>1599.4</ele>
        <time>2021-04-17T05:56:47Z</time>
      </trkpt>
      <trkpt lat="45.21473" lon="5.98585">
        <ele>1600.6</ele>
        <time>2021-04-17T05:56:52Z</time>
      </trkpt>
      <trkpt lat="45.2147" lon="5.98589">
        <ele>1601.8</ele>
        <time>2021-04-17T05:56:56Z</time>
      </trkpt>
      <trkpt lat="45.21469" lon="5.98589">
        <ele>1602</ele>
        <time>2021-04-17T05:56:57Z</time>
      </trkpt>
      <trkpt lat="45.21469" lon="5.98583">
        <ele>1603</ele>
        <time>2021-04-17T05:57:02Z</time>
      </trkpt>
      <trkpt lat="45.21469" lon="5.98581">
        <ele>1603.2</ele>
        <time>2021-04-17T05:57:03Z</time>
      </trkpt>
      <trkpt lat="45.21468" lon="5.98579">
        <ele>1604</ele>
        <time>2021-04-17T05:57:06Z</time>
      </trkpt>
      <trkpt lat="45.21469" lon="5.98576">
        <ele>1604.2</ele>
        <time>2021-04-17T05:57:08Z</time>
      </trkpt>
      <trkpt lat="45.21471" lon="5.98572">
        <ele>1605</ele>
        <time>2021-04-17T05:57:12Z</time>
      </trkpt>
      <trkpt lat="45.21471" lon="5.98571">
        <ele>1605.4</ele>
        <time>2021-04-17T05:57:13Z</time>
      </trkpt>
      <trkpt lat="45.21472" lon="5.98569">
        <ele>1606.2</ele>
        <time>2021-04-17T05:57:16Z</time>
      </trkpt>
      <trkpt lat="45.21471" lon="5.98568">
        <ele>1606.6</ele>
        <time>2021-04-17T05:57:17Z</time>
      </trkpt>
      <trkpt lat="45.21469" lon="5.98568">
        <ele>1607.6</ele>
        <time>2021-04-17T05:57:20Z</time>
      </trkpt>
      <trkpt lat="45.21467" lon="5.9857">
        <ele>1608.6</ele>
        <time>2021-04-17T05:57:24Z</time>
      </trkpt>
      <trkpt lat="45.21463" lon="5.9857">
        <ele>1609.8</ele>
        <time>2021-04-17T05:57:28Z</time>
      </trkpt>
      <trkpt lat="45.21459" lon="5.98571">
        <ele>1610.8</ele>
        <time>2021-04-17T05:57:32Z</time>
      </trkpt>
      <trkpt lat="45.21458" lon="5.98571">
        <ele>1611.2</ele>
        <time>2021-04-17T05:57:33Z</time>
      </trkpt>
      <trkpt lat="45.21457" lon="5.98571">
        <ele>1612</ele>
        <time>2021-04-17T05:57:36Z</time>
      </trkpt>
      <trkpt lat="45.21456" lon="5.98569">
        <ele>1612.6</ele>
        <time>2021-04-17T05:57:38Z</time>
      </trkpt>
      <trkpt lat="45.21457" lon="5.98566">
        <ele>1612.8</ele>
        <time>2021-04-17T05:57:40Z</time>
      </trkpt>
      <trkpt lat="45.21457" lon="5.98564">
        <ele>1613.2</ele>
        <time>2021-04-17T05:57:41Z</time>
      </trkpt>
      <trkpt lat="45.21457" lon="5.98562">
        <ele>1613.6</ele>
        <time>2021-04-17T05:57:43Z</time>
      </trkpt>
      <trkpt lat="45.21458" lon="5.98559">
        <ele>1614</ele>
        <time>2021-04-17T05:57:45Z</time>
      </trkpt>
      <trkpt lat="45.21458" lon="5.98558">
        <ele>1614.2</ele>
        <time>2021-04-17T05:57:46Z</time>
      </trkpt>
      <trkpt lat="45.21458" lon="5.98556">
        <ele>1614.2</ele>
        <time>2021-04-17T05:57:47Z</time>
      </trkpt>
      <trkpt lat="45.21457" lon="5.98554">
        <ele>1614.4</ele>
        <time>2021-04-17T05:57:49Z</time>
      </trkpt>
      <trkpt lat="45.21457" lon="5.9855">
        <ele>1615.4</ele>
        <time>2021-04-17T05:57:53Z</time>
      </trkpt>
      <trkpt lat="45.21459" lon="5.98544">
        <ele>1616.4</ele>
        <time>2021-04-17T05:57:58Z</time>
      </trkpt>
      <trkpt lat="45.21459" lon="5.98544">
        <ele>1616.6</ele>
        <time>2021-04-17T05:57:59Z</time>
      </trkpt>
      <trkpt lat="45.21459" lon="5.98543">
        <ele>1617.2</ele>
        <time>2021-04-17T05:58:01Z</time>
      </trkpt>
      <trkpt lat="45.2146" lon="5.98544">
        <ele>1617.6</ele>
        <time>2021-04-17T05:58:03Z</time>
      </trkpt>
      <trkpt lat="45.21459" lon="5.98545">
        <ele>1617.6</ele>
        <time>2021-04-17T05:58:04Z</time>
      </trkpt>
      <trkpt lat="45.21454" lon="5.98548">
        <ele>1619</ele>
        <time>2021-04-17T05:58:10Z</time>
      </trkpt>
      <trkpt lat="45.21451" lon="5.9855">
        <ele>1620</ele>
        <time>2021-04-17T05:58:15Z</time>
      </trkpt>
      <trkpt lat="45.21448" lon="5.98552">
        <ele>1621.2</ele>
        <time>2021-04-17T05:58:20Z</time>
      </trkpt>
      <trkpt lat="45.21445" lon="5.98553">
        <ele>1622.4</ele>
        <time>2021-04-17T05:58:24Z</time>
      </trkpt>
      <trkpt lat="45.21442" lon="5.98556">
        <ele>1623.4</ele>
        <time>2021-04-17T05:58:28Z</time>
      </trkpt>
      <trkpt lat="45.21442" lon="5.98557">
        <ele>1623.6</ele>
        <time>2021-04-17T05:58:29Z</time>
      </trkpt>
      <trkpt lat="45.2144" lon="5.9856">
        <ele>1624.4</ele>
        <time>2021-04-17T05:58:33Z</time>
      </trkpt>
      <trkpt lat="45.21439" lon="5.9856">
        <ele>1624.8</ele>
        <time>2021-04-17T05:58:35Z</time>
      </trkpt>
      <trkpt lat="45.21439" lon="5.98557">
        <ele>1625.2</ele>
        <time>2021-04-17T05:58:39Z</time>
      </trkpt>
      <trkpt lat="45.2144" lon="5.98555">
        <ele>1625.6</ele>
        <time>2021-04-17T05:58:41Z</time>
      </trkpt>
      <trkpt lat="45.21441" lon="5.9855">
        <ele>1626.4</ele>
        <time>2021-04-17T05:58:46Z</time>
      </trkpt>
      <trkpt lat="45.21441" lon="5.98549">
        <ele>1626.6</ele>
        <time>2021-04-17T05:58:47Z</time>
      </trkpt>
      <trkpt lat="45.21441" lon="5.98547">
        <ele>1627.6</ele>
        <time>2021-04-17T05:58:51Z</time>
      </trkpt>
      <trkpt lat="45.21441" lon="5.98546">
        <ele>1627.8</ele>
        <time>2021-04-17T05:58:52Z</time>
      </trkpt>
      <trkpt lat="45.21439" lon="5.98542">
        <ele>1629.2</ele>
        <time>2021-04-17T05:58:56Z</time>
      </trkpt>
      <trkpt lat="45.21437" lon="5.9854">
        <ele>1629.6</ele>
        <time>2021-04-17T05:58:58Z</time>
      </trkpt>
      <trkpt lat="45.21437" lon="5.98537">
        <ele>1630.2</ele>
        <time>2021-04-17T05:59:01Z</time>
      </trkpt>
      <trkpt lat="45.21435" lon="5.98535">
        <ele>1630.8</ele>
        <time>2021-04-17T05:59:03Z</time>
      </trkpt>
      <trkpt lat="45.21435" lon="5.98535">
        <ele>1631.2</ele>
        <time>2021-04-17T05:59:04Z</time>
      </trkpt>
      <trkpt lat="45.21436" lon="5.98532">
        <ele>1632.2</ele>
        <time>2021-04-17T05:59:07Z</time>
      </trkpt>
      <trkpt lat="45.21436" lon="5.9853">
        <ele>1632.4</ele>
        <time>2021-04-17T05:59:08Z</time>
      </trkpt>
      <trkpt lat="45.21435" lon="5.98529">
        <ele>1632.6</ele>
        <time>2021-04-17T05:59:09Z</time>
      </trkpt>
      <trkpt lat="45.21432" lon="5.98526">
        <ele>1633.6</ele>
        <time>2021-04-17T05:59:13Z</time>
      </trkpt>
      <trkpt lat="45.21431" lon="5.98524">
        <ele>1634.2</ele>
        <time>2021-04-17T05:59:15Z</time>
      </trkpt>
      <trkpt lat="45.21432" lon="5.98521">
        <ele>1634.8</ele>
        <time>2021-04-17T05:59:18Z</time>
      </trkpt>
      <trkpt lat="45.21432" lon="5.98518">
        <ele>1635.4</ele>
        <time>2021-04-17T05:59:20Z</time>
      </trkpt>
      <trkpt lat="45.21431" lon="5.98516">
        <ele>1635.8</ele>
        <time>2021-04-17T05:59:22Z</time>
      </trkpt>
      <trkpt lat="45.21432" lon="5.98514">
        <ele>1636.4</ele>
        <time>2021-04-17T05:59:25Z</time>
      </trkpt>
      <trkpt lat="45.21433" lon="5.98514">
        <ele>1636.8</ele>
        <time>2021-04-17T05:59:27Z</time>
      </trkpt>
      <trkpt lat="45.21433" lon="5.98514">
        <ele>1637</ele>
        <time>2021-04-17T05:59:28Z</time>
      </trkpt>
      <trkpt lat="45.21431" lon="5.98518">
        <ele>1638.2</ele>
        <time>2021-04-17T05:59:33Z</time>
      </trkpt>
      <trkpt lat="45.21428" lon="5.9852">
        <ele>1639.2</ele>
        <time>2021-04-17T05:59:39Z</time>
      </trkpt>
      <trkpt lat="45.21428" lon="5.98515">
        <ele>1639.8</ele>
        <time>2021-04-17T05:59:44Z</time>
      </trkpt>
      <trkpt lat="45.21428" lon="5.98514">
        <ele>1640.4</ele>
        <time>2021-04-17T05:59:46Z</time>
      </trkpt>
      <trkpt lat="45.21427" lon="5.98509">
        <ele>1641.2</ele>
        <time>2021-04-17T05:59:50Z</time>
      </trkpt>
      <trkpt lat="45.21427" lon="5.98508">
        <ele>1641.4</ele>
        <time>2021-04-17T05:59:51Z</time>
      </trkpt>
      <trkpt lat="45.21428" lon="5.98502">
        <ele>1642.6</ele>
        <time>2021-04-17T05:59:56Z</time>
      </trkpt>
      <trkpt lat="45.21428" lon="5.98501">
        <ele>1642.6</ele>
        <time>2021-04-17T05:59:57Z</time>
      </trkpt>
      <trkpt lat="45.21429" lon="5.98497">
        <ele>1643.2</ele>
        <time>2021-04-17T06:00:00Z</time>
      </trkpt>
      <trkpt lat="45.2143" lon="5.98494">
        <ele>1643.6</ele>
        <time>2021-04-17T06:00:02Z</time>
      </trkpt>
      <trkpt lat="45.2143" lon="5.98492">
        <ele>1644</ele>
        <time>2021-04-17T06:00:04Z</time>
      </trkpt>
      <trkpt lat="45.2143" lon="5.98489">
        <ele>1644.4</ele>
        <time>2021-04-17T06:00:06Z</time>
      </trkpt>
      <trkpt lat="45.21431" lon="5.98486">
        <ele>1644.8</ele>
        <time>2021-04-17T06:00:08Z</time>
      </trkpt>
      <trkpt lat="45.2143" lon="5.98486">
        <ele>1645</ele>
        <time>2021-04-17T06:00:09Z</time>
      </trkpt>
      <trkpt lat="45.21431" lon="5.98484">
        <ele>1645.4</ele>
        <time>2021-04-17T06:00:11Z</time>
      </trkpt>
      <trkpt lat="45.21432" lon="5.98483">
        <ele>1645.6</ele>
        <time>2021-04-17T06:00:12Z</time>
      </trkpt>
      <trkpt lat="45.21432" lon="5.98481">
        <ele>1646</ele>
        <time>2021-04-17T06:00:14Z</time>
      </trkpt>
      <trkpt lat="45.2143" lon="5.9848">
        <ele>1646.6</ele>
        <time>2021-04-17T06:00:16Z</time>
      </trkpt>
      <trkpt lat="45.21429" lon="5.98479">
        <ele>1647.2</ele>
        <time>2021-04-17T06:00:18Z</time>
      </trkpt>
      <trkpt lat="45.21429" lon="5.98476">
        <ele>1648</ele>
        <time>2021-04-17T06:00:22Z</time>
      </trkpt>
      <trkpt lat="45.2143" lon="5.98475">
        <ele>1648.2</ele>
        <time>2021-04-17T06:00:23Z</time>
      </trkpt>
      <trkpt lat="45.2143" lon="5.98475">
        <ele>1648.8</ele>
        <time>2021-04-17T06:00:27Z</time>
      </trkpt>
      <trkpt lat="45.21431" lon="5.98474">
        <ele>1649</ele>
        <time>2021-04-17T06:00:33Z</time>
      </trkpt>
      <trkpt lat="45.21431" lon="5.98476">
        <ele>1649</ele>
        <time>2021-04-17T06:00:35Z</time>
      </trkpt>
      <trkpt lat="45.21431" lon="5.98477">
        <ele>1649</ele>
        <time>2021-04-17T06:00:38Z</time>
      </trkpt>
      <trkpt lat="45.21431" lon="5.98477">
        <ele>1649</ele>
        <time>2021-04-17T06:00:41Z</time>
      </trkpt>
      <trkpt lat="45.21431" lon="5.98477">
        <ele>1649</ele>
        <time>2021-04-17T06:00:42Z</time>
      </trkpt>
      <trkpt lat="45.21431" lon="5.98477">
        <ele>1649</ele>
        <time>2021-04-17T06:00:44Z</time>
      </trkpt>
      <trkpt lat="45.21431" lon="5.98477">
        <ele>1649</ele>
        <time>2021-04-17T06:00:46Z</time>
      </trkpt>
      <trkpt lat="45.21431" lon="5.98477">
        <ele>1649</ele>
        <time>2021-04-17T06:00:47Z</time>
      </trkpt>
      <trkpt lat="45.21431" lon="5.98476">
        <ele>1648.8</ele>
        <time>2021-04-17T06:00:49Z</time>
      </trkpt>
      <trkpt lat="45.21431" lon="5.98476">
        <ele>1648.8</ele>
        <time>2021-04-17T06:00:50Z</time>
      </trkpt>
      <trkpt lat="45.21431" lon="5.98475">
        <ele>1648.8</ele>
        <time>2021-04-17T06:00:51Z</time>
      </trkpt>
      <trkpt lat="45.21431" lon="5.98475">
        <ele>1649</ele>
        <time>2021-04-17T06:00:53Z</time>
      </trkpt>
      <trkpt lat="45.21433" lon="5.98474">
        <ele>1648.8</ele>
        <time>2021-04-17T06:00:59Z</time>
      </trkpt>
      <trkpt lat="45.21433" lon="5.98475">
        <ele>1648.8</ele>
        <time>2021-04-17T06:01:02Z</time>
      </trkpt>
      <trkpt lat="45.21433" lon="5.98475">
        <ele>1649</ele>
        <time>2021-04-17T06:01:06Z</time>
      </trkpt>
      <trkpt lat="45.21433" lon="5.98475">
        <ele>1649.2</ele>
        <time>2021-04-17T06:01:07Z</time>
      </trkpt>
      <trkpt lat="45.21433" lon="5.98475">
        <ele>1649.2</ele>
        <time>2021-04-17T06:01:08Z</time>
      </trkpt>
      <trkpt lat="45.21432" lon="5.98476">
        <ele>1649.8</ele>
        <time>2021-04-17T06:01:10Z</time>
      </trkpt>
      <trkpt lat="45.2143" lon="5.98477">
        <ele>1650.2</ele>
        <time>2021-04-17T06:01:12Z</time>
      </trkpt>
      <trkpt lat="45.21429" lon="5.98478">
        <ele>1650.6</ele>
        <time>2021-04-17T06:01:13Z</time>
      </trkpt>
      <trkpt lat="45.21426" lon="5.9848">
        <ele>1651.6</ele>
        <time>2021-04-17T06:01:17Z</time>
      </trkpt>
      <trkpt lat="45.21422" lon="5.98482">
        <ele>1652.4</ele>
        <time>2021-04-17T06:01:20Z</time>
      </trkpt>
      <trkpt lat="45.21421" lon="5.98483">
        <ele>1652.6</ele>
        <time>2021-04-17T06:01:21Z</time>
      </trkpt>
      <trkpt lat="45.2142" lon="5.98485">
        <ele>1653.2</ele>
        <time>2021-04-17T06:01:24Z</time>
      </trkpt>
      <trkpt lat="45.21419" lon="5.98487">
        <ele>1653.8</ele>
        <time>2021-04-17T06:01:26Z</time>
      </trkpt>
      <trkpt lat="45.21418" lon="5.98488">
        <ele>1654.4</ele>
        <time>2021-04-17T06:01:28Z</time>
      </trkpt>
      <trkpt lat="45.21416" lon="5.98489">
        <ele>1655</ele>
        <time>2021-04-17T06:01:30Z</time>
      </trkpt>
      <trkpt lat="45.21415" lon="5.98489">
        <ele>1655.4</ele>
        <time>2021-04-17T06:01:32Z</time>
      </trkpt>
      <trkpt lat="45.21413" lon="5.9849">
        <ele>1656</ele>
        <time>2021-04-17T06:01:35Z</time>
      </trkpt>
      <trkpt lat="45.21413" lon="5.9849">
        <ele>1656</ele>
        <time>2021-04-17T06:01:36Z</time>
      </trkpt>
      <trkpt lat="45.21412" lon="5.9849">
        <ele>1656.2</ele>
        <time>2021-04-17T06:01:37Z</time>
      </trkpt>
      <trkpt lat="45.21413" lon="5.98489">
        <ele>1656.2</ele>
        <time>2021-04-17T06:01:38Z</time>
      </trkpt>
      <trkpt lat="45.21413" lon="5.98487">
        <ele>1656.4</ele>
        <time>2021-04-17T06:01:40Z</time>
      </trkpt>
      <trkpt lat="45.21412" lon="5.98483">
        <ele>1657</ele>
        <time>2021-04-17T06:01:43Z</time>
      </trkpt>
      <trkpt lat="45.21412" lon="5.98479">
        <ele>1658</ele>
        <time>2021-04-17T06:01:46Z</time>
      </trkpt>
      <trkpt lat="45.21412" lon="5.98479">
        <ele>1658.2</ele>
        <time>2021-04-17T06:01:47Z</time>
      </trkpt>
      <trkpt lat="45.21412" lon="5.98479">
        <ele>1659</ele>
        <time>2021-04-17T06:01:52Z</time>
      </trkpt>
      <trkpt lat="45.2141" lon="5.9848">
        <ele>1659.2</ele>
        <time>2021-04-17T06:01:54Z</time>
      </trkpt>
      <trkpt lat="45.21408" lon="5.98482">
        <ele>1659.8</ele>
        <time>2021-04-17T06:01:57Z</time>
      </trkpt>
      <trkpt lat="45.21407" lon="5.98484">
        <ele>1660.4</ele>
        <time>2021-04-17T06:02:00Z</time>
      </trkpt>
      <trkpt lat="45.21403" lon="5.98486">
        <ele>1661.6</ele>
        <time>2021-04-17T06:02:05Z</time>
      </trkpt>
      <trkpt lat="45.21402" lon="5.98487">
        <ele>1661.8</ele>
        <time>2021-04-17T06:02:06Z</time>
      </trkpt>
      <trkpt lat="45.214" lon="5.98487">
        <ele>1662.8</ele>
        <time>2021-04-17T06:02:09Z</time>
      </trkpt>
      <trkpt lat="45.214" lon="5.98488">
        <ele>1663.2</ele>
        <time>2021-04-17T06:02:11Z</time>
      </trkpt>
      <trkpt lat="45.21398" lon="5.98489">
        <ele>1664</ele>
        <time>2021-04-17T06:02:13Z</time>
      </trkpt>
      <trkpt lat="45.21396" lon="5.98492">
        <ele>1665.2</ele>
        <time>2021-04-17T06:02:17Z</time>
      </trkpt>
      <trkpt lat="45.21395" lon="5.98492">
        <ele>1665.2</ele>
        <time>2021-04-17T06:02:18Z</time>
      </trkpt>
      <trkpt lat="45.21395" lon="5.98493">
        <ele>1665.4</ele>
        <time>2021-04-17T06:02:19Z</time>
      </trkpt>
      <trkpt lat="45.21393" lon="5.98496">
        <ele>1666.2</ele>
        <time>2021-04-17T06:02:22Z</time>
      </trkpt>
      <trkpt lat="45.21392" lon="5.98496">
        <ele>1666.4</ele>
        <time>2021-04-17T06:02:23Z</time>
      </trkpt>
      <trkpt lat="45.21391" lon="5.98499">
        <ele>1666.8</ele>
        <time>2021-04-17T06:02:26Z</time>
      </trkpt>
      <trkpt lat="45.21389" lon="5.98501">
        <ele>1667.2</ele>
        <time>2021-04-17T06:02:29Z</time>
      </trkpt>
      <trkpt lat="45.21387" lon="5.98504">
        <ele>1668</ele>
        <time>2021-04-17T06:02:33Z</time>
      </trkpt>
      <trkpt lat="45.21386" lon="5.98505">
        <ele>1668.4</ele>
        <time>2021-04-17T06:02:35Z</time>
      </trkpt>
      <trkpt lat="45.21384" lon="5.98509">
        <ele>1669.2</ele>
        <time>2021-04-17T06:02:41Z</time>
      </trkpt>
      <trkpt lat="45.21383" lon="5.9851">
        <ele>1669.4</ele>
        <time>2021-04-17T06:02:42Z</time>
      </trkpt>
      <trkpt lat="45.21383" lon="5.9851">
        <ele>1669.6</ele>
        <time>2021-04-17T06:02:43Z</time>
      </trkpt>
      <trkpt lat="45.21381" lon="5.98513">
        <ele>1670.8</ele>
        <time>2021-04-17T06:02:48Z</time>
      </trkpt>
      <trkpt lat="45.2138" lon="5.98514">
        <ele>1671.4</ele>
        <time>2021-04-17T06:02:51Z</time>
      </trkpt>
      <trkpt lat="45.21379" lon="5.98515">
        <ele>1671.8</ele>
        <time>2021-04-17T06:02:54Z</time>
      </trkpt>
      <trkpt lat="45.21376" lon="5.98518">
        <ele>1672.6</ele>
        <time>2021-04-17T06:02:59Z</time>
      </trkpt>
      <trkpt lat="45.21375" lon="5.98518">
        <ele>1673</ele>
        <time>2021-04-17T06:03:00Z</time>
      </trkpt>
      <trkpt lat="45.21374" lon="5.98519">
        <ele>1673.6</ele>
        <time>2021-04-17T06:03:03Z</time>
      </trkpt>
      <trkpt lat="45.21373" lon="5.9852">
        <ele>1674</ele>
        <time>2021-04-17T06:03:05Z</time>
      </trkpt>
      <trkpt lat="45.21372" lon="5.98522">
        <ele>1674.8</ele>
        <time>2021-04-17T06:03:08Z</time>
      </trkpt>
      <trkpt lat="45.21371" lon="5.98524">
        <ele>1675.4</ele>
        <time>2021-04-17T06:03:10Z</time>
      </trkpt>
      <trkpt lat="45.21369" lon="5.98524">
        <ele>1675.8</ele>
        <time>2021-04-17T06:03:12Z</time>
      </trkpt>
      <trkpt lat="45.21369" lon="5.98527">
        <ele>1676.6</ele>
        <time>2021-04-17T06:03:15Z</time>
      </trkpt>
      <trkpt lat="45.21369" lon="5.98528">
        <ele>1677.2</ele>
        <time>2021-04-17T06:03:18Z</time>
      </trkpt>
      <trkpt lat="45.21368" lon="5.9853">
        <ele>1677.6</ele>
        <time>2021-04-17T06:03:24Z</time>
      </trkpt>
      <trkpt lat="45.21368" lon="5.98532">
        <ele>1678.4</ele>
        <time>2021-04-17T06:03:30Z</time>
      </trkpt>
      <trkpt lat="45.21366" lon="5.98533">
        <ele>1678.6</ele>
        <time>2021-04-17T06:03:32Z</time>
      </trkpt>
      <trkpt lat="45.21365" lon="5.98533">
        <ele>1678.6</ele>
        <time>2021-04-17T06:03:33Z</time>
      </trkpt>
      <trkpt lat="45.21364" lon="5.98535">
        <ele>1679.6</ele>
        <time>2021-04-17T06:03:37Z</time>
      </trkpt>
      <trkpt lat="45.21363" lon="5.98535">
        <ele>1679.8</ele>
        <time>2021-04-17T06:03:38Z</time>
      </trkpt>
      <trkpt lat="45.21364" lon="5.98531">
        <ele>1680.4</ele>
        <time>2021-04-17T06:03:42Z</time>
      </trkpt>
      <trkpt lat="45.21362" lon="5.98529">
        <ele>1680.8</ele>
        <time>2021-04-17T06:03:45Z</time>
      </trkpt>
      <trkpt lat="45.21361" lon="5.98526">
        <ele>1681.2</ele>
        <time>2021-04-17T06:03:48Z</time>
      </trkpt>
      <trkpt lat="45.2136" lon="5.98523">
        <ele>1681.8</ele>
        <time>2021-04-17T06:03:53Z</time>
      </trkpt>
      <trkpt lat="45.21359" lon="5.98524">
        <ele>1682</ele>
        <time>2021-04-17T06:03:54Z</time>
      </trkpt>
      <trkpt lat="45.2136" lon="5.98525">
        <ele>1682.4</ele>
        <time>2021-04-17T06:03:56Z</time>
      </trkpt>
      <trkpt lat="45.21359" lon="5.98526">
        <ele>1683</ele>
        <time>2021-04-17T06:04:00Z</time>
      </trkpt>
      <trkpt lat="45.21359" lon="5.98526">
        <ele>1683.2</ele>
        <time>2021-04-17T06:04:01Z</time>
      </trkpt>
      <trkpt lat="45.21358" lon="5.98527">
        <ele>1684</ele>
        <time>2021-04-17T06:04:03Z</time>
      </trkpt>
      <trkpt lat="45.21358" lon="5.98528">
        <ele>1684.2</ele>
        <time>2021-04-17T06:04:04Z</time>
      </trkpt>
      <trkpt lat="45.21358" lon="5.98525">
        <ele>1685.2</ele>
        <time>2021-04-17T06:04:07Z</time>
      </trkpt>
      <trkpt lat="45.21358" lon="5.98525">
        <ele>1685.4</ele>
        <time>2021-04-17T06:04:08Z</time>
      </trkpt>
      <trkpt lat="45.21357" lon="5.98523">
        <ele>1686.2</ele>
        <time>2021-04-17T06:04:12Z</time>
      </trkpt>
      <trkpt lat="45.21358" lon="5.98523">
        <ele>1686.4</ele>
        <time>2021-04-17T06:04:14Z</time>
      </trkpt>
      <trkpt lat="45.21357" lon="5.98522">
        <ele>1686.6</ele>
        <time>2021-04-17T06:04:18Z</time>
      </trkpt>
      <trkpt lat="45.21356" lon="5.98521">
        <ele>1686.8</ele>
        <time>2021-04-17T06:04:19Z</time>
      </trkpt>
      <trkpt lat="45.21355" lon="5.98517">
        <ele>1687.6</ele>
        <time>2021-04-17T06:04:23Z</time>
      </trkpt>
      <trkpt lat="45.21354" lon="5.98516">
        <ele>1687.8</ele>
        <time>2021-04-17T06:04:24Z</time>
      </trkpt>
      <trkpt lat="45.21355" lon="5.98511">
        <ele>1688.2</ele>
        <time>2021-04-17T06:04:28Z</time>
      </trkpt>
      <trkpt lat="45.21355" lon="5.98508">
        <ele>1688.6</ele>
        <time>2021-04-17T06:04:32Z</time>
      </trkpt>
      <trkpt lat="45.21357" lon="5.98504">
        <ele>1689.2</ele>
        <time>2021-04-17T06:04:35Z</time>
      </trkpt>
      <trkpt lat="45.21355" lon="5.98502">
        <ele>1689.4</ele>
        <time>2021-04-17T06:04:40Z</time>
      </trkpt>
      <trkpt lat="45.21354" lon="5.98501">
        <ele>1689.8</ele>
        <time>2021-04-17T06:04:42Z</time>
      </trkpt>
      <trkpt lat="45.21353" lon="5.98497">
        <ele>1690.8</ele>
        <time>2021-04-17T06:04:48Z</time>
      </trkpt>
      <trkpt lat="45.21353" lon="5.98496">
        <ele>1691</ele>
        <time>2021-04-17T06:04:49Z</time>
      </trkpt>
      <trkpt lat="45.21352" lon="5.98491">
        <ele>1691.6</ele>
        <time>2021-04-17T06:04:53Z</time>
      </trkpt>
      <trkpt lat="45.21352" lon="5.98491">
        <ele>1691.8</ele>
        <time>2021-04-17T06:04:54Z</time>
      </trkpt>
      <trkpt lat="45.21352" lon="5.98489">
        <ele>1692</ele>
        <time>2021-04-17T06:04:55Z</time>
      </trkpt>
      <trkpt lat="45.21354" lon="5.98487">
        <ele>1692.6</ele>
        <time>2021-04-17T06:04:58Z</time>
      </trkpt>
      <trkpt lat="45.21352" lon="5.98485">
        <ele>1693.2</ele>
        <time>2021-04-17T06:05:01Z</time>
      </trkpt>
      <trkpt lat="45.21351" lon="5.98484">
        <ele>1693.6</ele>
        <time>2021-04-17T06:05:03Z</time>
      </trkpt>
      <trkpt lat="45.21352" lon="5.98481">
        <ele>1694.2</ele>
        <time>2021-04-17T06:05:07Z</time>
      </trkpt>
      <trkpt lat="45.21352" lon="5.98479">
        <ele>1694.4</ele>
        <time>2021-04-17T06:05:09Z</time>
      </trkpt>
      <trkpt lat="45.21351" lon="5.98477">
        <ele>1695.2</ele>
        <time>2021-04-17T06:05:12Z</time>
      </trkpt>
      <trkpt lat="45.21349" lon="5.98474">
        <ele>1696.2</ele>
        <time>2021-04-17T06:05:16Z</time>
      </trkpt>
      <trkpt lat="45.21349" lon="5.98468">
        <ele>1697.2</ele>
        <time>2021-04-17T06:05:22Z</time>
      </trkpt>
      <trkpt lat="45.21348" lon="5.98462">
        <ele>1698.4</ele>
        <time>2021-04-17T06:05:28Z</time>
      </trkpt>
      <trkpt lat="45.21348" lon="5.98457">
        <ele>1698.8</ele>
        <time>2021-04-17T06:05:31Z</time>
      </trkpt>
      <trkpt lat="45.21349" lon="5.98456">
        <ele>1699</ele>
        <time>2021-04-17T06:05:33Z</time>
      </trkpt>
      <trkpt lat="45.21349" lon="5.98456">
        <ele>1699.2</ele>
        <time>2021-04-17T06:05:35Z</time>
      </trkpt>
      <trkpt lat="45.21349" lon="5.98455">
        <ele>1699.4</ele>
        <time>2021-04-17T06:05:37Z</time>
      </trkpt>
      <trkpt lat="45.21349" lon="5.98453">
        <ele>1699.8</ele>
        <time>2021-04-17T06:05:39Z</time>
      </trkpt>
      <trkpt lat="45.2135" lon="5.98449">
        <ele>1700.6</ele>
        <time>2021-04-17T06:05:44Z</time>
      </trkpt>
      <trkpt lat="45.21351" lon="5.98448">
        <ele>1700.6</ele>
        <time>2021-04-17T06:05:46Z</time>
      </trkpt>
      <trkpt lat="45.21351" lon="5.98447">
        <ele>1700.6</ele>
        <time>2021-04-17T06:05:52Z</time>
      </trkpt>
      <trkpt lat="45.21351" lon="5.98446">
        <ele>1700.6</ele>
        <time>2021-04-17T06:05:53Z</time>
      </trkpt>
      <trkpt lat="45.21351" lon="5.98444">
        <ele>1700.8</ele>
        <time>2021-04-17T06:05:57Z</time>
      </trkpt>
      <trkpt lat="45.21352" lon="5.98441">
        <ele>1701.2</ele>
        <time>2021-04-17T06:06:00Z</time>
      </trkpt>
      <trkpt lat="45.21351" lon="5.98439">
        <ele>1701.8</ele>
        <time>2021-04-17T06:06:02Z</time>
      </trkpt>
      <trkpt lat="45.2135" lon="5.98436">
        <ele>1702.2</ele>
        <time>2021-04-17T06:06:06Z</time>
      </trkpt>
      <trkpt lat="45.2135" lon="5.98434">
        <ele>1702.8</ele>
        <time>2021-04-17T06:06:08Z</time>
      </trkpt>
      <trkpt lat="45.21351" lon="5.98432">
        <ele>1703.2</ele>
        <time>2021-04-17T06:06:12Z</time>
      </trkpt>
      <trkpt lat="45.21351" lon="5.98432">
        <ele>1703.4</ele>
        <time>2021-04-17T06:06:14Z</time>
      </trkpt>
      <trkpt lat="45.21351" lon="5.98432">
        <ele>1703.4</ele>
        <time>2021-04-17T06:06:19Z</time>
      </trkpt>
      <trkpt lat="45.2135" lon="5.98433">
        <ele>1703.4</ele>
        <time>2021-04-17T06:06:21Z</time>
      </trkpt>
      <trkpt lat="45.2135" lon="5.98433">
        <ele>1703.4</ele>
        <time>2021-04-17T06:06:24Z</time>
      </trkpt>
      <trkpt lat="45.2135" lon="5.98433">
        <ele>1703.4</ele>
        <time>2021-04-17T06:06:26Z</time>
      </trkpt>
      <trkpt lat="45.2135" lon="5.98433">
        <ele>1703.4</ele>
        <time>2021-04-17T06:06:27Z</time>
      </trkpt>
      <trkpt lat="45.2135" lon="5.98433">
        <ele>1703.4</ele>
        <time>2021-04-17T06:06:29Z</time>
      </trkpt>
      <trkpt lat="45.2135" lon="5.98433">
        <ele>1703.4</ele>
        <time>2021-04-17T06:06:30Z</time>
      </trkpt>
      <trkpt lat="45.21351" lon="5.98433">
        <ele>1703.2</ele>
        <time>2021-04-17T06:06:36Z</time>
      </trkpt>
      <trkpt lat="45.21351" lon="5.98432">
        <ele>1703.6</ele>
        <time>2021-04-17T06:06:42Z</time>
      </trkpt>
      <trkpt lat="45.21351" lon="5.98432">
        <ele>1703.6</ele>
        <time>2021-04-17T06:06:43Z</time>
      </trkpt>
      <trkpt lat="45.21351" lon="5.98432">
        <ele>1703.8</ele>
        <time>2021-04-17T06:06:44Z</time>
      </trkpt>
      <trkpt lat="45.21351" lon="5.98432">
        <ele>1704.4</ele>
        <time>2021-04-17T06:06:47Z</time>
      </trkpt>
      <trkpt lat="45.21351" lon="5.98429">
        <ele>1704.8</ele>
        <time>2021-04-17T06:06:50Z</time>
      </trkpt>
      <trkpt lat="45.21351" lon="5.98427">
        <ele>1704.8</ele>
        <time>2021-04-17T06:06:51Z</time>
      </trkpt>
      <trkpt lat="45.2135" lon="5.98423">
        <ele>1705.2</ele>
        <time>2021-04-17T06:06:53Z</time>
      </trkpt>
      <trkpt lat="45.21351" lon="5.98414">
        <ele>1705.6</ele>
        <time>2021-04-17T06:06:57Z</time>
      </trkpt>
      <trkpt lat="45.21352" lon="5.9841">
        <ele>1706</ele>
        <time>2021-04-17T06:07:00Z</time>
      </trkpt>
      <trkpt lat="45.21352" lon="5.98408">
        <ele>1706.4</ele>
        <time>2021-04-17T06:07:02Z</time>
      </trkpt>
      <trkpt lat="45.21351" lon="5.98404">
        <ele>1706.8</ele>
        <time>2021-04-17T06:07:05Z</time>
      </trkpt>
      <trkpt lat="45.21349" lon="5.984">
        <ele>1707.2</ele>
        <time>2021-04-17T06:07:09Z</time>
      </trkpt>
      <trkpt lat="45.2135" lon="5.98395">
        <ele>1707.6</ele>
        <time>2021-04-17T06:07:13Z</time>
      </trkpt>
      <trkpt lat="45.21352" lon="5.98391">
        <ele>1708.2</ele>
        <time>2021-04-17T06:07:17Z</time>
      </trkpt>
      <trkpt lat="45.21351" lon="5.9839">
        <ele>1708.4</ele>
        <time>2021-04-17T06:07:19Z</time>
      </trkpt>
      <trkpt lat="45.21352" lon="5.98388">
        <ele>1708.6</ele>
        <time>2021-04-17T06:07:21Z</time>
      </trkpt>
      <trkpt lat="45.21353" lon="5.98385">
        <ele>1709.4</ele>
        <time>2021-04-17T06:07:24Z</time>
      </trkpt>
      <trkpt lat="45.21355" lon="5.98381">
        <ele>1710.2</ele>
        <time>2021-04-17T06:07:28Z</time>
      </trkpt>
      <trkpt lat="45.21355" lon="5.9838">
        <ele>1710.4</ele>
        <time>2021-04-17T06:07:29Z</time>
      </trkpt>
      <trkpt lat="45.21354" lon="5.98379">
        <ele>1710.8</ele>
        <time>2021-04-17T06:07:30Z</time>
      </trkpt>
      <trkpt lat="45.21354" lon="5.98379">
        <ele>1711.6</ele>
        <time>2021-04-17T06:07:33Z</time>
      </trkpt>
      <trkpt lat="45.21354" lon="5.98379">
        <ele>1712.2</ele>
        <time>2021-04-17T06:07:36Z</time>
      </trkpt>
      <trkpt lat="45.21353" lon="5.9838">
        <ele>1712.6</ele>
        <time>2021-04-17T06:07:38Z</time>
      </trkpt>
      <trkpt lat="45.2135" lon="5.98381">
        <ele>1713.6</ele>
        <time>2021-04-17T06:07:43Z</time>
      </trkpt>
      <trkpt lat="45.2135" lon="5.98382">
        <ele>1713.8</ele>
        <time>2021-04-17T06:07:44Z</time>
      </trkpt>
      <trkpt lat="45.21349" lon="5.98381">
        <ele>1714.8</ele>
        <time>2021-04-17T06:07:48Z</time>
      </trkpt>
      <trkpt lat="45.21348" lon="5.98379">
        <ele>1715.6</ele>
        <time>2021-04-17T06:07:52Z</time>
      </trkpt>
      <trkpt lat="45.21348" lon="5.98377">
        <ele>1716</ele>
        <time>2021-04-17T06:07:54Z</time>
      </trkpt>
      <trkpt lat="45.21348" lon="5.98373">
        <ele>1717.2</ele>
        <time>2021-04-17T06:07:58Z</time>
      </trkpt>
      <trkpt lat="45.21348" lon="5.98372">
        <ele>1717.4</ele>
        <time>2021-04-17T06:07:59Z</time>
      </trkpt>
      <trkpt lat="45.21348" lon="5.98369">
        <ele>1718.2</ele>
        <time>2021-04-17T06:08:04Z</time>
      </trkpt>
      <trkpt lat="45.21347" lon="5.98369">
        <ele>1718.4</ele>
        <time>2021-04-17T06:08:05Z</time>
      </trkpt>
      <trkpt lat="45.21346" lon="5.9837">
        <ele>1719.4</ele>
        <time>2021-04-17T06:08:10Z</time>
      </trkpt>
      <trkpt lat="45.21345" lon="5.9837">
        <ele>1720</ele>
        <time>2021-04-17T06:08:12Z</time>
      </trkpt>
      <trkpt lat="45.21343" lon="5.98371">
        <ele>1720.4</ele>
        <time>2021-04-17T06:08:14Z</time>
      </trkpt>
      <trkpt lat="45.21341" lon="5.98372">
        <ele>1721.6</ele>
        <time>2021-04-17T06:08:18Z</time>
      </trkpt>
      <trkpt lat="45.2134" lon="5.98374">
        <ele>1722.4</ele>
        <time>2021-04-17T06:08:21Z</time>
      </trkpt>
      <trkpt lat="45.21339" lon="5.98375">
        <ele>1722.6</ele>
        <time>2021-04-17T06:08:22Z</time>
      </trkpt>
      <trkpt lat="45.21337" lon="5.98376">
        <ele>1723.6</ele>
        <time>2021-04-17T06:08:26Z</time>
      </trkpt>
      <trkpt lat="45.21334" lon="5.98379">
        <ele>1724.8</ele>
        <time>2021-04-17T06:08:31Z</time>
      </trkpt>
      <trkpt lat="45.21332" lon="5.98381">
        <ele>1725.8</ele>
        <time>2021-04-17T06:08:35Z</time>
      </trkpt>
      <trkpt lat="45.21331" lon="5.98381">
        <ele>1726</ele>
        <time>2021-04-17T06:08:36Z</time>
      </trkpt>
      <trkpt lat="45.21331" lon="5.9838">
        <ele>1726.4</ele>
        <time>2021-04-17T06:08:38Z</time>
      </trkpt>
      <trkpt lat="45.21332" lon="5.98375">
        <ele>1727</ele>
        <time>2021-04-17T06:08:43Z</time>
      </trkpt>
      <trkpt lat="45.21331" lon="5.98374">
        <ele>1727.2</ele>
        <time>2021-04-17T06:08:44Z</time>
      </trkpt>
      <trkpt lat="45.21331" lon="5.9837">
        <ele>1727.8</ele>
        <time>2021-04-17T06:08:47Z</time>
      </trkpt>
      <trkpt lat="45.21333" lon="5.98367">
        <ele>1728.2</ele>
        <time>2021-04-17T06:08:49Z</time>
      </trkpt>
      <trkpt lat="45.21333" lon="5.98366">
        <ele>1728.6</ele>
        <time>2021-04-17T06:08:50Z</time>
      </trkpt>
      <trkpt lat="45.21333" lon="5.98362">
        <ele>1729.4</ele>
        <time>2021-04-17T06:08:53Z</time>
      </trkpt>
      <trkpt lat="45.21333" lon="5.98358">
        <ele>1730</ele>
        <time>2021-04-17T06:08:56Z</time>
      </trkpt>
      <trkpt lat="45.21334" lon="5.98355">
        <ele>1730.4</ele>
        <time>2021-04-17T06:08:59Z</time>
      </trkpt>
      <trkpt lat="45.21335" lon="5.9835">
        <ele>1731.2</ele>
        <time>2021-04-17T06:09:03Z</time>
      </trkpt>
      <trkpt lat="45.21336" lon="5.98349">
        <ele>1731.6</ele>
        <time>2021-04-17T06:09:05Z</time>
      </trkpt>
      <trkpt lat="45.21336" lon="5.98348">
        <ele>1732</ele>
        <time>2021-04-17T06:09:06Z</time>
      </trkpt>
      <trkpt lat="45.21336" lon="5.98343">
        <ele>1732.8</ele>
        <time>2021-04-17T06:09:10Z</time>
      </trkpt>
      <trkpt lat="45.21337" lon="5.9834">
        <ele>1733.8</ele>
        <time>2021-04-17T06:09:14Z</time>
      </trkpt>
      <trkpt lat="45.21342" lon="5.98338">
        <ele>1734.2</ele>
        <time>2021-04-17T06:09:20Z</time>
      </trkpt>
      <trkpt lat="45.2134" lon="5.98336">
        <ele>1734.2</ele>
        <time>2021-04-17T06:09:23Z</time>
      </trkpt>
      <trkpt lat="45.21342" lon="5.98335">
        <ele>1734.8</ele>
        <time>2021-04-17T06:09:28Z</time>
      </trkpt>
      <trkpt lat="45.21341" lon="5.98335">
        <ele>1734.8</ele>
        <time>2021-04-17T06:09:30Z</time>
      </trkpt>
      <trkpt lat="45.21341" lon="5.98335">
        <ele>1734.8</ele>
        <time>2021-04-17T06:09:32Z</time>
      </trkpt>
      <trkpt lat="45.21341" lon="5.98334">
        <ele>1734.8</ele>
        <time>2021-04-17T06:09:34Z</time>
      </trkpt>
      <trkpt lat="45.21342" lon="5.98331">
        <ele>1734.8</ele>
        <time>2021-04-17T06:09:38Z</time>
      </trkpt>
      <trkpt lat="45.21342" lon="5.9833">
        <ele>1735</ele>
        <time>2021-04-17T06:09:39Z</time>
      </trkpt>
      <trkpt lat="45.21344" lon="5.98329">
        <ele>1735.2</ele>
        <time>2021-04-17T06:09:41Z</time>
      </trkpt>
      <trkpt lat="45.21345" lon="5.98327">
        <ele>1735.4</ele>
        <time>2021-04-17T06:09:43Z</time>
      </trkpt>
      <trkpt lat="45.21346" lon="5.98325">
        <ele>1735.6</ele>
        <time>2021-04-17T06:09:48Z</time>
      </trkpt>
      <trkpt lat="45.21349" lon="5.98322">
        <ele>1736</ele>
        <time>2021-04-17T06:09:53Z</time>
      </trkpt>
      <trkpt lat="45.21349" lon="5.98319">
        <ele>1736.2</ele>
        <time>2021-04-17T06:09:56Z</time>
      </trkpt>
      <trkpt lat="45.21351" lon="5.98312">
        <ele>1736.4</ele>
        <time>2021-04-17T06:10:01Z</time>
      </trkpt>
      <trkpt lat="45.21355" lon="5.98307">
        <ele>1734.6</ele>
        <time>2021-04-17T06:10:06Z</time>
      </trkpt>
      <trkpt lat="45.21357" lon="5.98306">
        <ele>1734</ele>
        <time>2021-04-17T06:10:07Z</time>
      </trkpt>
      <trkpt lat="45.21358" lon="5.98305">
        <ele>1733</ele>
        <time>2021-04-17T06:10:08Z</time>
      </trkpt>
      <trkpt lat="45.21359" lon="5.98304">
        <ele>1732.4</ele>
        <time>2021-04-17T06:10:09Z</time>
      </trkpt>
      <trkpt lat="45.2136" lon="5.98303">
        <ele>1732</ele>
        <time>2021-04-17T06:10:10Z</time>
      </trkpt>
      <trkpt lat="45.21361" lon="5.98302">
        <ele>1731.8</ele>
        <time>2021-04-17T06:10:11Z</time>
      </trkpt>
      <trkpt lat="45.21365" lon="5.98298">
        <ele>1730.6</ele>
        <time>2021-04-17T06:10:13Z</time>
      </trkpt>
      <trkpt lat="45.21367" lon="5.98297">
        <ele>1729</ele>
        <time>2021-04-17T06:10:15Z</time>
      </trkpt>
      <trkpt lat="45.21368" lon="5.98297">
        <ele>1728.6</ele>
        <time>2021-04-17T06:10:16Z</time>
      </trkpt>
      <trkpt lat="45.21368" lon="5.98297">
        <ele>1728.2</ele>
        <time>2021-04-17T06:10:17Z</time>
      </trkpt>
      <trkpt lat="45.21369" lon="5.98297">
        <ele>1728</ele>
        <time>2021-04-17T06:10:18Z</time>
      </trkpt>
      <trkpt lat="45.2137" lon="5.98297">
        <ele>1728</ele>
        <time>2021-04-17T06:10:19Z</time>
      </trkpt>
      <trkpt lat="45.21371" lon="5.98297">
        <ele>1727.8</ele>
        <time>2021-04-17T06:10:21Z</time>
      </trkpt>
      <trkpt lat="45.21372" lon="5.98295">
        <ele>1727.4</ele>
        <time>2021-04-17T06:10:25Z</time>
      </trkpt>
      <trkpt lat="45.21378" lon="5.98289">
        <ele>1727</ele>
        <time>2021-04-17T06:10:30Z</time>
      </trkpt>
      <trkpt lat="45.21379" lon="5.98288">
        <ele>1727</ele>
        <time>2021-04-17T06:10:31Z</time>
      </trkpt>
      <trkpt lat="45.21381" lon="5.98287">
        <ele>1726.8</ele>
        <time>2021-04-17T06:10:32Z</time>
      </trkpt>
      <trkpt lat="45.21383" lon="5.98281">
        <ele>1726.4</ele>
        <time>2021-04-17T06:10:37Z</time>
      </trkpt>
      <trkpt lat="45.21386" lon="5.98278">
        <ele>1726.4</ele>
        <time>2021-04-17T06:10:39Z</time>
      </trkpt>
      <trkpt lat="45.2139" lon="5.98273">
        <ele>1726</ele>
        <time>2021-04-17T06:10:44Z</time>
      </trkpt>
      <trkpt lat="45.21394" lon="5.98268">
        <ele>1726</ele>
        <time>2021-04-17T06:10:49Z</time>
      </trkpt>
      <trkpt lat="45.21395" lon="5.98267">
        <ele>1725.8</ele>
        <time>2021-04-17T06:10:51Z</time>
      </trkpt>
      <trkpt lat="45.21397" lon="5.98263">
        <ele>1725.6</ele>
        <time>2021-04-17T06:10:55Z</time>
      </trkpt>
      <trkpt lat="45.21401" lon="5.9826">
        <ele>1726.2</ele>
        <time>2021-04-17T06:10:58Z</time>
      </trkpt>
      <trkpt lat="45.21401" lon="5.98259">
        <ele>1726.6</ele>
        <time>2021-04-17T06:10:59Z</time>
      </trkpt>
      <trkpt lat="45.21403" lon="5.98258">
        <ele>1727.2</ele>
        <time>2021-04-17T06:11:01Z</time>
      </trkpt>
      <trkpt lat="45.21408" lon="5.98255">
        <ele>1728.2</ele>
        <time>2021-04-17T06:11:06Z</time>
      </trkpt>
      <trkpt lat="45.21409" lon="5.98254">
        <ele>1728.4</ele>
        <time>2021-04-17T06:11:07Z</time>
      </trkpt>
      <trkpt lat="45.21413" lon="5.9825">
        <ele>1729.4</ele>
        <time>2021-04-17T06:11:12Z</time>
      </trkpt>
      <trkpt lat="45.21416" lon="5.98247">
        <ele>1730</ele>
        <time>2021-04-17T06:11:15Z</time>
      </trkpt>
      <trkpt lat="45.21417" lon="5.98245">
        <ele>1730.6</ele>
        <time>2021-04-17T06:11:17Z</time>
      </trkpt>
      <trkpt lat="45.2142" lon="5.98242">
        <ele>1731</ele>
        <time>2021-04-17T06:11:20Z</time>
      </trkpt>
      <trkpt lat="45.21422" lon="5.9824">
        <ele>1731.6</ele>
        <time>2021-04-17T06:11:22Z</time>
      </trkpt>
      <trkpt lat="45.21423" lon="5.9824">
        <ele>1732</ele>
        <time>2021-04-17T06:11:23Z</time>
      </trkpt>
      <trkpt lat="45.21424" lon="5.98237">
        <ele>1732.4</ele>
        <time>2021-04-17T06:11:26Z</time>
      </trkpt>
      <trkpt lat="45.21425" lon="5.98237">
        <ele>1732.6</ele>
        <time>2021-04-17T06:11:27Z</time>
      </trkpt>
      <trkpt lat="45.21427" lon="5.98235">
        <ele>1733</ele>
        <time>2021-04-17T06:11:29Z</time>
      </trkpt>
      <trkpt lat="45.21429" lon="5.98234">
        <ele>1733.6</ele>
        <time>2021-04-17T06:11:31Z</time>
      </trkpt>
      <trkpt lat="45.21433" lon="5.98232">
        <ele>1734.8</ele>
        <time>2021-04-17T06:11:35Z</time>
      </trkpt>
      <trkpt lat="45.21436" lon="5.98228">
        <ele>1735.8</ele>
        <time>2021-04-17T06:11:41Z</time>
      </trkpt>
      <trkpt lat="45.21438" lon="5.98225">
        <ele>1736.4</ele>
        <time>2021-04-17T06:11:43Z</time>
      </trkpt>
      <trkpt lat="45.21438" lon="5.98224">
        <ele>1736.6</ele>
        <time>2021-04-17T06:11:44Z</time>
      </trkpt>
      <trkpt lat="45.21438" lon="5.98221">
        <ele>1736.8</ele>
        <time>2021-04-17T06:11:47Z</time>
      </trkpt>
      <trkpt lat="45.21438" lon="5.98214">
        <ele>1737.6</ele>
        <time>2021-04-17T06:11:53Z</time>
      </trkpt>
      <trkpt lat="45.21438" lon="5.9821">
        <ele>1737.8</ele>
        <time>2021-04-17T06:11:56Z</time>
      </trkpt>
      <trkpt lat="45.21437" lon="5.9821">
        <ele>1738</ele>
        <time>2021-04-17T06:11:57Z</time>
      </trkpt>
      <trkpt lat="45.21436" lon="5.98208">
        <ele>1738.4</ele>
        <time>2021-04-17T06:12:00Z</time>
      </trkpt>
      <trkpt lat="45.21432" lon="5.98208">
        <ele>1739</ele>
        <time>2021-04-17T06:12:04Z</time>
      </trkpt>
      <trkpt lat="45.21432" lon="5.98208">
        <ele>1739</ele>
        <time>2021-04-17T06:12:05Z</time>
      </trkpt>
      <trkpt lat="45.2143" lon="5.98208">
        <ele>1739.4</ele>
        <time>2021-04-17T06:12:08Z</time>
      </trkpt>
      <trkpt lat="45.21427" lon="5.98206">
        <ele>1740.2</ele>
        <time>2021-04-17T06:12:12Z</time>
      </trkpt>
      <trkpt lat="45.21425" lon="5.98204">
        <ele>1740.8</ele>
        <time>2021-04-17T06:12:15Z</time>
      </trkpt>
      <trkpt lat="45.21424" lon="5.98202">
        <ele>1741.2</ele>
        <time>2021-04-17T06:12:17Z</time>
      </trkpt>
      <trkpt lat="45.21423" lon="5.98198">
        <ele>1741.6</ele>
        <time>2021-04-17T06:12:20Z</time>
      </trkpt>
      <trkpt lat="45.21423" lon="5.98197">
        <ele>1742</ele>
        <time>2021-04-17T06:12:21Z</time>
      </trkpt>
      <trkpt lat="45.21423" lon="5.98194">
        <ele>1742.4</ele>
        <time>2021-04-17T06:12:23Z</time>
      </trkpt>
      <trkpt lat="45.21422" lon="5.9819">
        <ele>1742.8</ele>
        <time>2021-04-17T06:12:26Z</time>
      </trkpt>
      <trkpt lat="45.21423" lon="5.98183">
        <ele>1743</ele>
        <time>2021-04-17T06:12:30Z</time>
      </trkpt>
      <trkpt lat="45.21422" lon="5.98179">
        <ele>1743.4</ele>
        <time>2021-04-17T06:12:34Z</time>
      </trkpt>
      <trkpt lat="45.21422" lon="5.98178">
        <ele>1743.8</ele>
        <time>2021-04-17T06:12:35Z</time>
      </trkpt>
      <trkpt lat="45.21422" lon="5.98176">
        <ele>1744</ele>
        <time>2021-04-17T06:12:36Z</time>
      </trkpt>
      <trkpt lat="45.21422" lon="5.98174">
        <ele>1744.8</ele>
        <time>2021-04-17T06:12:38Z</time>
      </trkpt>
      <trkpt lat="45.21421" lon="5.98171">
        <ele>1745.4</ele>
        <time>2021-04-17T06:12:41Z</time>
      </trkpt>
      <trkpt lat="45.21419" lon="5.98167">
        <ele>1745.8</ele>
        <time>2021-04-17T06:12:44Z</time>
      </trkpt>
      <trkpt lat="45.21416" lon="5.98159">
        <ele>1746.4</ele>
        <time>2021-04-17T06:12:50Z</time>
      </trkpt>
      <trkpt lat="45.21416" lon="5.98158">
        <ele>1746.4</ele>
        <time>2021-04-17T06:12:51Z</time>
      </trkpt>
      <trkpt lat="45.21416" lon="5.98155">
        <ele>1746.8</ele>
        <time>2021-04-17T06:12:53Z</time>
      </trkpt>
      <trkpt lat="45.21416" lon="5.98147">
        <ele>1747.8</ele>
        <time>2021-04-17T06:12:59Z</time>
      </trkpt>
      <trkpt lat="45.21416" lon="5.98145">
        <ele>1748</ele>
        <time>2021-04-17T06:13:00Z</time>
      </trkpt>
      <trkpt lat="45.21414" lon="5.98143">
        <ele>1749.2</ele>
        <time>2021-04-17T06:13:05Z</time>
      </trkpt>
      <trkpt lat="45.21413" lon="5.98143">
        <ele>1749.8</ele>
        <time>2021-04-17T06:13:06Z</time>
      </trkpt>
      <trkpt lat="45.21411" lon="5.98143">
        <ele>1750.4</ele>
        <time>2021-04-17T06:13:09Z</time>
      </trkpt>
      <trkpt lat="45.21408" lon="5.98144">
        <ele>1751.4</ele>
        <time>2021-04-17T06:13:14Z</time>
      </trkpt>
      <trkpt lat="45.21403" lon="5.98142">
        <ele>1752.4</ele>
        <time>2021-04-17T06:13:20Z</time>
      </trkpt>
      <trkpt lat="45.21402" lon="5.98142">
        <ele>1752.8</ele>
        <time>2021-04-17T06:13:22Z</time>
      </trkpt>
      <trkpt lat="45.21398" lon="5.98141">
        <ele>1753.6</ele>
        <time>2021-04-17T06:13:26Z</time>
      </trkpt>
      <trkpt lat="45.21394" lon="5.98138">
        <ele>1754.6</ele>
        <time>2021-04-17T06:13:32Z</time>
      </trkpt>
      <trkpt lat="45.21392" lon="5.98136">
        <ele>1755</ele>
        <time>2021-04-17T06:13:34Z</time>
      </trkpt>
      <trkpt lat="45.21393" lon="5.98133">
        <ele>1755.4</ele>
        <time>2021-04-17T06:13:36Z</time>
      </trkpt>
      <trkpt lat="45.21393" lon="5.9813">
        <ele>1755.8</ele>
        <time>2021-04-17T06:13:38Z</time>
      </trkpt>
      <trkpt lat="45.21394" lon="5.98128">
        <ele>1756</ele>
        <time>2021-04-17T06:13:40Z</time>
      </trkpt>
      <trkpt lat="45.21393" lon="5.98121">
        <ele>1756.8</ele>
        <time>2021-04-17T06:13:46Z</time>
      </trkpt>
      <trkpt lat="45.21394" lon="5.9812">
        <ele>1757</ele>
        <time>2021-04-17T06:13:47Z</time>
      </trkpt>
      <trkpt lat="45.21395" lon="5.98116">
        <ele>1758</ele>
        <time>2021-04-17T06:13:51Z</time>
      </trkpt>
      <trkpt lat="45.21396" lon="5.98109">
        <ele>1758.8</ele>
        <time>2021-04-17T06:13:57Z</time>
      </trkpt>
      <trkpt lat="45.21397" lon="5.98108">
        <ele>1758.8</ele>
        <time>2021-04-17T06:13:58Z</time>
      </trkpt>
      <trkpt lat="45.21397" lon="5.98106">
        <ele>1759</ele>
        <time>2021-04-17T06:14:00Z</time>
      </trkpt>
      <trkpt lat="45.214" lon="5.98101">
        <ele>1759.6</ele>
        <time>2021-04-17T06:14:05Z</time>
      </trkpt>
      <trkpt lat="45.21401" lon="5.98097">
        <ele>1760.2</ele>
        <time>2021-04-17T06:14:09Z</time>
      </trkpt>
      <trkpt lat="45.21402" lon="5.98092">
        <ele>1761.2</ele>
        <time>2021-04-17T06:14:13Z</time>
      </trkpt>
      <trkpt lat="45.21402" lon="5.98092">
        <ele>1761.4</ele>
        <time>2021-04-17T06:14:14Z</time>
      </trkpt>
      <trkpt lat="45.21405" lon="5.98086">
        <ele>1762.4</ele>
        <time>2021-04-17T06:14:19Z</time>
      </trkpt>
      <trkpt lat="45.21407" lon="5.98084">
        <ele>1762.8</ele>
        <time>2021-04-17T06:14:21Z</time>
      </trkpt>
      <trkpt lat="45.21408" lon="5.98082">
        <ele>1763.6</ele>
        <time>2021-04-17T06:14:24Z</time>
      </trkpt>
      <trkpt lat="45.21409" lon="5.9808">
        <ele>1764</ele>
        <time>2021-04-17T06:14:27Z</time>
      </trkpt>
      <trkpt lat="45.21411" lon="5.98078">
        <ele>1764.6</ele>
        <time>2021-04-17T06:14:30Z</time>
      </trkpt>
      <trkpt lat="45.21414" lon="5.98074">
        <ele>1765.4</ele>
        <time>2021-04-17T06:14:35Z</time>
      </trkpt>
      <trkpt lat="45.21415" lon="5.98073">
        <ele>1765.6</ele>
        <time>2021-04-17T06:14:36Z</time>
      </trkpt>
      <trkpt lat="45.21418" lon="5.98071">
        <ele>1766.6</ele>
        <time>2021-04-17T06:14:40Z</time>
      </trkpt>
      <trkpt lat="45.21418" lon="5.98071">
        <ele>1767</ele>
        <time>2021-04-17T06:14:42Z</time>
      </trkpt>
      <trkpt lat="45.21417" lon="5.98069">
        <ele>1767.6</ele>
        <time>2021-04-17T06:14:45Z</time>
      </trkpt>
      <trkpt lat="45.21416" lon="5.98065">
        <ele>1768.4</ele>
        <time>2021-04-17T06:14:49Z</time>
      </trkpt>
      <trkpt lat="45.21416" lon="5.98064">
        <ele>1768.8</ele>
        <time>2021-04-17T06:14:51Z</time>
      </trkpt>
      <trkpt lat="45.21418" lon="5.98061">
        <ele>1769.2</ele>
        <time>2021-04-17T06:14:55Z</time>
      </trkpt>
      <trkpt lat="45.21421" lon="5.9806">
        <ele>1769.8</ele>
        <time>2021-04-17T06:14:58Z</time>
      </trkpt>
      <trkpt lat="45.21425" lon="5.98059">
        <ele>1770.6</ele>
        <time>2021-04-17T06:15:04Z</time>
      </trkpt>
      <trkpt lat="45.21425" lon="5.98059">
        <ele>1771</ele>
        <time>2021-04-17T06:15:05Z</time>
      </trkpt>
      <trkpt lat="45.21425" lon="5.98057">
        <ele>1772</ele>
        <time>2021-04-17T06:15:10Z</time>
      </trkpt>
      <trkpt lat="45.21424" lon="5.98056">
        <ele>1772.2</ele>
        <time>2021-04-17T06:15:11Z</time>
      </trkpt>
      <trkpt lat="45.21422" lon="5.9805">
        <ele>1773</ele>
        <time>2021-04-17T06:15:16Z</time>
      </trkpt>
      <trkpt lat="45.21424" lon="5.9805">
        <ele>1773.4</ele>
        <time>2021-04-17T06:15:18Z</time>
      </trkpt>
      <trkpt lat="45.21429" lon="5.98047">
        <ele>1774.2</ele>
        <time>2021-04-17T06:15:22Z</time>
      </trkpt>
      <trkpt lat="45.21436" lon="5.98044">
        <ele>1775</ele>
        <time>2021-04-17T06:15:28Z</time>
      </trkpt>
      <trkpt lat="45.21437" lon="5.98044">
        <ele>1775.4</ele>
        <time>2021-04-17T06:15:29Z</time>
      </trkpt>
      <trkpt lat="45.21442" lon="5.98041">
        <ele>1776.4</ele>
        <time>2021-04-17T06:15:34Z</time>
      </trkpt>
      <trkpt lat="45.21443" lon="5.9804">
        <ele>1776.8</ele>
        <time>2021-04-17T06:15:36Z</time>
      </trkpt>
      <trkpt lat="45.21446" lon="5.98038">
        <ele>1777.6</ele>
        <time>2021-04-17T06:15:40Z</time>
      </trkpt>
      <trkpt lat="45.21447" lon="5.98034">
        <ele>1778.2</ele>
        <time>2021-04-17T06:15:43Z</time>
      </trkpt>
      <trkpt lat="45.21448" lon="5.98033">
        <ele>1778.4</ele>
        <time>2021-04-17T06:15:44Z</time>
      </trkpt>
      <trkpt lat="45.21449" lon="5.98031">
        <ele>1778.8</ele>
        <time>2021-04-17T06:15:46Z</time>
      </trkpt>
      <trkpt lat="45.21449" lon="5.98028">
        <ele>1779</ele>
        <time>2021-04-17T06:15:49Z</time>
      </trkpt>
      <trkpt lat="45.21448" lon="5.98026">
        <ele>1779.6</ele>
        <time>2021-04-17T06:15:51Z</time>
      </trkpt>
      <trkpt lat="45.21447" lon="5.98025">
        <ele>1779.8</ele>
        <time>2021-04-17T06:15:52Z</time>
      </trkpt>
      <trkpt lat="45.21446" lon="5.98018">
        <ele>1781</ele>
        <time>2021-04-17T06:15:58Z</time>
      </trkpt>
      <trkpt lat="45.21446" lon="5.98017">
        <ele>1781.2</ele>
        <time>2021-04-17T06:15:59Z</time>
      </trkpt>
      <trkpt lat="45.21444" lon="5.9801">
        <ele>1782.2</ele>
        <time>2021-04-17T06:16:05Z</time>
      </trkpt>
      <trkpt lat="45.21445" lon="5.98007">
        <ele>1783</ele>
        <time>2021-04-17T06:16:08Z</time>
      </trkpt>
      <trkpt lat="45.21444" lon="5.98006">
        <ele>1783.2</ele>
        <time>2021-04-17T06:16:09Z</time>
      </trkpt>
      <trkpt lat="45.21447" lon="5.98">
        <ele>1784</ele>
        <time>2021-04-17T06:16:14Z</time>
      </trkpt>
      <trkpt lat="45.21447" lon="5.97998">
        <ele>1784.2</ele>
        <time>2021-04-17T06:16:15Z</time>
      </trkpt>
      <trkpt lat="45.21448" lon="5.97992">
        <ele>1785.4</ele>
        <time>2021-04-17T06:16:21Z</time>
      </trkpt>
      <trkpt lat="45.21447" lon="5.97989">
        <ele>1785.8</ele>
        <time>2021-04-17T06:16:25Z</time>
      </trkpt>
      <trkpt lat="45.21447" lon="5.97989">
        <ele>1785.8</ele>
        <time>2021-04-17T06:16:26Z</time>
      </trkpt>
      <trkpt lat="45.21445" lon="5.97991">
        <ele>1786.4</ele>
        <time>2021-04-17T06:16:31Z</time>
      </trkpt>
      <trkpt lat="45.21444" lon="5.97992">
        <ele>1786.6</ele>
        <time>2021-04-17T06:16:32Z</time>
      </trkpt>
      <trkpt lat="45.21441" lon="5.97994">
        <ele>1787.6</ele>
        <time>2021-04-17T06:16:36Z</time>
      </trkpt>
      <trkpt lat="45.2144" lon="5.97995">
        <ele>1788.4</ele>
        <time>2021-04-17T06:16:39Z</time>
      </trkpt>
      <trkpt lat="45.21439" lon="5.97995">
        <ele>1788.6</ele>
        <time>2021-04-17T06:16:40Z</time>
      </trkpt>
      <trkpt lat="45.21436" lon="5.97994">
        <ele>1789</ele>
        <time>2021-04-17T06:16:44Z</time>
      </trkpt>
      <trkpt lat="45.21434" lon="5.97993">
        <ele>1789.4</ele>
        <time>2021-04-17T06:16:47Z</time>
      </trkpt>
      <trkpt lat="45.21433" lon="5.97993">
        <ele>1789.6</ele>
        <time>2021-04-17T06:16:49Z</time>
      </trkpt>
      <trkpt lat="45.2143" lon="5.97993">
        <ele>1790.4</ele>
        <time>2021-04-17T06:16:53Z</time>
      </trkpt>
      <trkpt lat="45.21429" lon="5.97993">
        <ele>1790.6</ele>
        <time>2021-04-17T06:16:54Z</time>
      </trkpt>
      <trkpt lat="45.21426" lon="5.97993">
        <ele>1791.8</ele>
        <time>2021-04-17T06:17:00Z</time>
      </trkpt>
      <trkpt lat="45.21426" lon="5.97991">
        <ele>1792</ele>
        <time>2021-04-17T06:17:02Z</time>
      </trkpt>
      <trkpt lat="45.21428" lon="5.97985">
        <ele>1792.8</ele>
        <time>2021-04-17T06:17:07Z</time>
      </trkpt>
      <trkpt lat="45.21428" lon="5.97983">
        <ele>1793.2</ele>
        <time>2021-04-17T06:17:09Z</time>
      </trkpt>
      <trkpt lat="45.21429" lon="5.97979">
        <ele>1794</ele>
        <time>2021-04-17T06:17:13Z</time>
      </trkpt>
      <trkpt lat="45.21429" lon="5.97974">
        <ele>1795</ele>
        <time>2021-04-17T06:17:17Z</time>
      </trkpt>
      <trkpt lat="45.21429" lon="5.97972">
        <ele>1795.4</ele>
        <time>2021-04-17T06:17:18Z</time>
      </trkpt>
      <trkpt lat="45.21429" lon="5.97967">
        <ele>1796</ele>
        <time>2021-04-17T06:17:22Z</time>
      </trkpt>
      <trkpt lat="45.21428" lon="5.97964">
        <ele>1796.2</ele>
        <time>2021-04-17T06:17:24Z</time>
      </trkpt>
      <trkpt lat="45.21428" lon="5.97962">
        <ele>1796.4</ele>
        <time>2021-04-17T06:17:26Z</time>
      </trkpt>
      <trkpt lat="45.21428" lon="5.9796">
        <ele>1796.8</ele>
        <time>2021-04-17T06:17:28Z</time>
      </trkpt>
      <trkpt lat="45.21428" lon="5.97958">
        <ele>1797.2</ele>
        <time>2021-04-17T06:17:30Z</time>
      </trkpt>
      <trkpt lat="45.21427" lon="5.97956">
        <ele>1797.8</ele>
        <time>2021-04-17T06:17:33Z</time>
      </trkpt>
      <trkpt lat="45.21426" lon="5.97954">
        <ele>1798.4</ele>
        <time>2021-04-17T06:17:36Z</time>
      </trkpt>
      <trkpt lat="45.21422" lon="5.97949">
        <ele>1799.4</ele>
        <time>2021-04-17T06:17:42Z</time>
      </trkpt>
      <trkpt lat="45.21421" lon="5.97942">
        <ele>1800.6</ele>
        <time>2021-04-17T06:17:48Z</time>
      </trkpt>
      <trkpt lat="45.21421" lon="5.9794">
        <ele>1801</ele>
        <time>2021-04-17T06:17:51Z</time>
      </trkpt>
      <trkpt lat="45.2142" lon="5.97936">
        <ele>1801.8</ele>
        <time>2021-04-17T06:17:55Z</time>
      </trkpt>
      <trkpt lat="45.2142" lon="5.97934">
        <ele>1802.2</ele>
        <time>2021-04-17T06:17:58Z</time>
      </trkpt>
      <trkpt lat="45.21417" lon="5.97937">
        <ele>1802.8</ele>
        <time>2021-04-17T06:18:04Z</time>
      </trkpt>
      <trkpt lat="45.21416" lon="5.97938">
        <ele>1803</ele>
        <time>2021-04-17T06:18:05Z</time>
      </trkpt>
      <trkpt lat="45.21415" lon="5.97939">
        <ele>1803.2</ele>
        <time>2021-04-17T06:18:06Z</time>
      </trkpt>
      <trkpt lat="45.21414" lon="5.97941">
        <ele>1803.8</ele>
        <time>2021-04-17T06:18:09Z</time>
      </trkpt>
      <trkpt lat="45.21413" lon="5.97943">
        <ele>1804.4</ele>
        <time>2021-04-17T06:18:12Z</time>
      </trkpt>
      <trkpt lat="45.21412" lon="5.97945">
        <ele>1805</ele>
        <time>2021-04-17T06:18:15Z</time>
      </trkpt>
      <trkpt lat="45.21408" lon="5.97949">
        <ele>1806</ele>
        <time>2021-04-17T06:18:21Z</time>
      </trkpt>
      <trkpt lat="45.21407" lon="5.97949">
        <ele>1806.2</ele>
        <time>2021-04-17T06:18:22Z</time>
      </trkpt>
      <trkpt lat="45.21403" lon="5.97951">
        <ele>1806.8</ele>
        <time>2021-04-17T06:18:27Z</time>
      </trkpt>
      <trkpt lat="45.21403" lon="5.97951">
        <ele>1807</ele>
        <time>2021-04-17T06:18:28Z</time>
      </trkpt>
      <trkpt lat="45.214" lon="5.97952">
        <ele>1807.6</ele>
        <time>2021-04-17T06:18:30Z</time>
      </trkpt>
      <trkpt lat="45.21399" lon="5.97952">
        <ele>1808</ele>
        <time>2021-04-17T06:18:33Z</time>
      </trkpt>
      <trkpt lat="45.21397" lon="5.97952">
        <ele>1808.6</ele>
        <time>2021-04-17T06:18:35Z</time>
      </trkpt>
      <trkpt lat="45.21395" lon="5.97951">
        <ele>1809</ele>
        <time>2021-04-17T06:18:37Z</time>
      </trkpt>
      <trkpt lat="45.21392" lon="5.97951">
        <ele>1809.6</ele>
        <time>2021-04-17T06:18:41Z</time>
      </trkpt>
      <trkpt lat="45.21387" lon="5.97949">
        <ele>1810.8</ele>
        <time>2021-04-17T06:18:46Z</time>
      </trkpt>
      <trkpt lat="45.21387" lon="5.97949">
        <ele>1811</ele>
        <time>2021-04-17T06:18:47Z</time>
      </trkpt>
      <trkpt lat="45.21384" lon="5.97949">
        <ele>1812.2</ele>
        <time>2021-04-17T06:18:50Z</time>
      </trkpt>
      <trkpt lat="45.21381" lon="5.97949">
        <ele>1813.2</ele>
        <time>2021-04-17T06:18:54Z</time>
      </trkpt>
      <trkpt lat="45.2138" lon="5.97949">
        <ele>1813.4</ele>
        <time>2021-04-17T06:18:55Z</time>
      </trkpt>
      <trkpt lat="45.21377" lon="5.97949">
        <ele>1814.4</ele>
        <time>2021-04-17T06:18:59Z</time>
      </trkpt>
      <trkpt lat="45.21375" lon="5.97947">
        <ele>1815</ele>
        <time>2021-04-17T06:19:02Z</time>
      </trkpt>
      <trkpt lat="45.21375" lon="5.97946">
        <ele>1815.4</ele>
        <time>2021-04-17T06:19:03Z</time>
      </trkpt>
      <trkpt lat="45.21375" lon="5.97943">
        <ele>1815.8</ele>
        <time>2021-04-17T06:19:05Z</time>
      </trkpt>
      <trkpt lat="45.21374" lon="5.97941">
        <ele>1816.2</ele>
        <time>2021-04-17T06:19:07Z</time>
      </trkpt>
      <trkpt lat="45.21374" lon="5.9794">
        <ele>1816.2</ele>
        <time>2021-04-17T06:19:08Z</time>
      </trkpt>
      <trkpt lat="45.21374" lon="5.97939">
        <ele>1816.4</ele>
        <time>2021-04-17T06:19:09Z</time>
      </trkpt>
      <trkpt lat="45.21375" lon="5.97938">
        <ele>1816.8</ele>
        <time>2021-04-17T06:19:11Z</time>
      </trkpt>
      <trkpt lat="45.21376" lon="5.97938">
        <ele>1817.2</ele>
        <time>2021-04-17T06:19:14Z</time>
      </trkpt>
      <trkpt lat="45.21375" lon="5.97939">
        <ele>1817.4</ele>
        <time>2021-04-17T06:19:20Z</time>
      </trkpt>
      <trkpt lat="45.21375" lon="5.97939">
        <ele>1817.2</ele>
        <time>2021-04-17T06:19:21Z</time>
      </trkpt>
      <trkpt lat="45.21375" lon="5.97939">
        <ele>1817</ele>
        <time>2021-04-17T06:19:26Z</time>
      </trkpt>
      <trkpt lat="45.21375" lon="5.97939">
        <ele>1817.2</ele>
        <time>2021-04-17T06:19:30Z</time>
      </trkpt>
      <trkpt lat="45.21375" lon="5.97939">
        <ele>1817.4</ele>
        <time>2021-04-17T06:19:34Z</time>
      </trkpt>
      <trkpt lat="45.21375" lon="5.97939">
        <ele>1817.4</ele>
        <time>2021-04-17T06:19:35Z</time>
      </trkpt>
      <trkpt lat="45.21375" lon="5.97939">
        <ele>1817.4</ele>
        <time>2021-04-17T06:19:37Z</time>
      </trkpt>
      <trkpt lat="45.21375" lon="5.97938">
        <ele>1817.4</ele>
        <time>2021-04-17T06:19:39Z</time>
      </trkpt>
      <trkpt lat="45.21375" lon="5.97938">
        <ele>1817.4</ele>
        <time>2021-04-17T06:19:40Z</time>
      </trkpt>
      <trkpt lat="45.21375" lon="5.97938">
        <ele>1817.4</ele>
        <time>2021-04-17T06:19:42Z</time>
      </trkpt>
      <trkpt lat="45.21375" lon="5.97938">
        <ele>1817.4</ele>
        <time>2021-04-17T06:19:44Z</time>
      </trkpt>
      <trkpt lat="45.21375" lon="5.97938">
        <ele>1817.6</ele>
        <time>2021-04-17T06:19:46Z</time>
      </trkpt>
      <trkpt lat="45.21375" lon="5.97938">
        <ele>1817.6</ele>
        <time>2021-04-17T06:19:48Z</time>
      </trkpt>
      <trkpt lat="45.21375" lon="5.97938">
        <ele>1817.4</ele>
        <time>2021-04-17T06:19:50Z</time>
      </trkpt>
      <trkpt lat="45.21375" lon="5.97938">
        <ele>1817.2</ele>
        <time>2021-04-17T06:19:56Z</time>
      </trkpt>
      <trkpt lat="45.21375" lon="5.97937">
        <ele>1817</ele>
        <time>2021-04-17T06:19:59Z</time>
      </trkpt>
      <trkpt lat="45.21375" lon="5.97938">
        <ele>1817.2</ele>
        <time>2021-04-17T06:20:02Z</time>
      </trkpt>
      <trkpt lat="45.21375" lon="5.97938">
        <ele>1817.2</ele>
        <time>2021-04-17T06:20:03Z</time>
      </trkpt>
      <trkpt lat="45.21376" lon="5.97938">
        <ele>1817.2</ele>
        <time>2021-04-17T06:20:04Z</time>
      </trkpt>
      <trkpt lat="45.21376" lon="5.97938">
        <ele>1817.2</ele>
        <time>2021-04-17T06:20:05Z</time>
      </trkpt>
      <trkpt lat="45.21376" lon="5.97938">
        <ele>1817.2</ele>
        <time>2021-04-17T06:20:08Z</time>
      </trkpt>
      <trkpt lat="45.21376" lon="5.97938">
        <ele>1817.2</ele>
        <time>2021-04-17T06:20:10Z</time>
      </trkpt>
      <trkpt lat="45.21376" lon="5.97938">
        <ele>1817.2</ele>
        <time>2021-04-17T06:20:12Z</time>
      </trkpt>
      <trkpt lat="45.21376" lon="5.97938">
        <ele>1817.4</ele>
        <time>2021-04-17T06:20:13Z</time>
      </trkpt>
      <trkpt lat="45.21376" lon="5.97938">
        <ele>1817.6</ele>
        <time>2021-04-17T06:20:14Z</time>
      </trkpt>
      <trkpt lat="45.21376" lon="5.97938">
        <ele>1817.8</ele>
        <time>2021-04-17T06:20:15Z</time>
      </trkpt>
      <trkpt lat="45.21376" lon="5.97935">
        <ele>1818.4</ele>
        <time>2021-04-17T06:20:16Z</time>
      </trkpt>
      <trkpt lat="45.21375" lon="5.97934">
        <ele>1818.6</ele>
        <time>2021-04-17T06:20:17Z</time>
      </trkpt>
      <trkpt lat="45.21375" lon="5.97934">
        <ele>1818.6</ele>
        <time>2021-04-17T06:20:18Z</time>
      </trkpt>
      <trkpt lat="45.21375" lon="5.97934">
        <ele>1818.6</ele>
        <time>2021-04-17T06:20:19Z</time>
      </trkpt>
      <trkpt lat="45.21375" lon="5.97934">
        <ele>1818.8</ele>
        <time>2021-04-17T06:20:21Z</time>
      </trkpt>
      <trkpt lat="45.21375" lon="5.97934">
        <ele>1819</ele>
        <time>2021-04-17T06:20:23Z</time>
      </trkpt>
      <trkpt lat="45.21375" lon="5.97934">
        <ele>1819</ele>
        <time>2021-04-17T06:20:24Z</time>
      </trkpt>
      <trkpt lat="45.21375" lon="5.97934">
        <ele>1819.2</ele>
        <time>2021-04-17T06:20:25Z</time>
      </trkpt>
      <trkpt lat="45.21375" lon="5.97931">
        <ele>1819.2</ele>
        <time>2021-04-17T06:20:27Z</time>
      </trkpt>
      <trkpt lat="45.21376" lon="5.97924">
        <ele>1819.8</ele>
        <time>2021-04-17T06:20:30Z</time>
      </trkpt>
      <trkpt lat="45.21375" lon="5.9792">
        <ele>1820.4</ele>
        <time>2021-04-17T06:20:32Z</time>
      </trkpt>
      <trkpt lat="45.21374" lon="5.97919">
        <ele>1820.8</ele>
        <time>2021-04-17T06:20:33Z</time>
      </trkpt>
      <trkpt lat="45.21374" lon="5.97916">
        <ele>1821.4</ele>
        <time>2021-04-17T06:20:36Z</time>
      </trkpt>
      <trkpt lat="45.21374" lon="5.97916">
        <ele>1821.4</ele>
        <time>2021-04-17T06:20:37Z</time>
      </trkpt>
      <trkpt lat="45.21374" lon="5.97916">
        <ele>1821.4</ele>
        <time>2021-04-17T06:20:39Z</time>
      </trkpt>
      <trkpt lat="45.21374" lon="5.97916">
        <ele>1821.6</ele>
        <time>2021-04-17T06:20:45Z</time>
      </trkpt>
      <trkpt lat="45.21374" lon="5.97916">
        <ele>1821.6</ele>
        <time>2021-04-17T06:20:46Z</time>
      </trkpt>
      <trkpt lat="45.21374" lon="5.97916">
        <ele>1821.6</ele>
        <time>2021-04-17T06:20:48Z</time>
      </trkpt>
      <trkpt lat="45.21374" lon="5.97916">
        <ele>1821.6</ele>
        <time>2021-04-17T06:20:52Z</time>
      </trkpt>
      <trkpt lat="45.21374" lon="5.97916">
        <ele>1821.4</ele>
        <time>2021-04-17T06:20:54Z</time>
      </trkpt>
      <trkpt lat="45.21374" lon="5.97916">
        <ele>1821.4</ele>
        <time>2021-04-17T06:20:56Z</time>
      </trkpt>
      <trkpt lat="45.21374" lon="5.97916">
        <ele>1821.4</ele>
        <time>2021-04-17T06:20:58Z</time>
      </trkpt>
      <trkpt lat="45.21374" lon="5.97916">
        <ele>1821.4</ele>
        <time>2021-04-17T06:21:01Z</time>
      </trkpt>
      <trkpt lat="45.21374" lon="5.97916">
        <ele>1821.4</ele>
        <time>2021-04-17T06:21:02Z</time>
      </trkpt>
      <trkpt lat="45.21374" lon="5.97916">
        <ele>1821.4</ele>
        <time>2021-04-17T06:21:03Z</time>
      </trkpt>
      <trkpt lat="45.21374" lon="5.97916">
        <ele>1821.4</ele>
        <time>2021-04-17T06:21:05Z</time>
      </trkpt>
      <trkpt lat="45.21374" lon="5.97916">
        <ele>1821.2</ele>
        <time>2021-04-17T06:21:07Z</time>
      </trkpt>
      <trkpt lat="45.21374" lon="5.97916">
        <ele>1821.2</ele>
        <time>2021-04-17T06:21:09Z</time>
      </trkpt>
      <trkpt lat="45.21374" lon="5.97916">
        <ele>1821.2</ele>
        <time>2021-04-17T06:21:11Z</time>
      </trkpt>
      <trkpt lat="45.21374" lon="5.97916">
        <ele>1821.2</ele>
        <time>2021-04-17T06:21:15Z</time>
      </trkpt>
      <trkpt lat="45.21374" lon="5.97916">
        <ele>1821.2</ele>
        <time>2021-04-17T06:21:17Z</time>
      </trkpt>
      <trkpt lat="45.21374" lon="5.97916">
        <ele>1821.4</ele>
        <time>2021-04-17T06:21:18Z</time>
      </trkpt>
      <trkpt lat="45.21374" lon="5.97916">
        <ele>1821.4</ele>
        <time>2021-04-17T06:21:19Z</time>
      </trkpt>
      <trkpt lat="45.21374" lon="5.97916">
        <ele>1821.4</ele>
        <time>2021-04-17T06:21:20Z</time>
      </trkpt>
      <trkpt lat="45.21374" lon="5.97916">
        <ele>1821.6</ele>
        <time>2021-04-17T06:21:21Z</time>
      </trkpt>
      <trkpt lat="45.21374" lon="5.97916">
        <ele>1821.8</ele>
        <time>2021-04-17T06:21:23Z</time>
      </trkpt>
      <trkpt lat="45.2137" lon="5.97911">
        <ele>1822.4</ele>
        <time>2021-04-17T06:21:28Z</time>
      </trkpt>
      <trkpt lat="45.21369" lon="5.97909">
        <ele>1822.6</ele>
        <time>2021-04-17T06:21:29Z</time>
      </trkpt>
      <trkpt lat="45.21368" lon="5.97908">
        <ele>1822.8</ele>
        <time>2021-04-17T06:21:30Z</time>
      </trkpt>
      <trkpt lat="45.21366" lon="5.97904">
        <ele>1823.2</ele>
        <time>2021-04-17T06:21:32Z</time>
      </trkpt>
      <trkpt lat="45.21363" lon="5.97901">
        <ele>1823.8</ele>
        <time>2021-04-17T06:21:35Z</time>
      </trkpt>
      <trkpt lat="45.21362" lon="5.979">
        <ele>1824</ele>
        <time>2021-04-17T06:21:36Z</time>
      </trkpt>
      <trkpt lat="45.21362" lon="5.97899">
        <ele>1824.2</ele>
        <time>2021-04-17T06:21:37Z</time>
      </trkpt>
      <trkpt lat="45.21361" lon="5.97899">
        <ele>1824.6</ele>
        <time>2021-04-17T06:21:38Z</time>
      </trkpt>
      <trkpt lat="45.2136" lon="5.97897">
        <ele>1825.2</ele>
        <time>2021-04-17T06:21:40Z</time>
      </trkpt>
      <trkpt lat="45.21358" lon="5.97895">
        <ele>1825.6</ele>
        <time>2021-04-17T06:21:42Z</time>
      </trkpt>
      <trkpt lat="45.21357" lon="5.97893">
        <ele>1826</ele>
        <time>2021-04-17T06:21:44Z</time>
      </trkpt>
      <trkpt lat="45.21357" lon="5.97892">
        <ele>1826.4</ele>
        <time>2021-04-17T06:21:45Z</time>
      </trkpt>
      <trkpt lat="45.21356" lon="5.97891">
        <ele>1826.6</ele>
        <time>2021-04-17T06:21:46Z</time>
      </trkpt>
      <trkpt lat="45.21355" lon="5.97888">
        <ele>1827</ele>
        <time>2021-04-17T06:21:49Z</time>
      </trkpt>
      <trkpt lat="45.21353" lon="5.97885">
        <ele>1827.4</ele>
        <time>2021-04-17T06:21:52Z</time>
      </trkpt>
      <trkpt lat="45.21352" lon="5.97884">
        <ele>1827.6</ele>
        <time>2021-04-17T06:21:53Z</time>
      </trkpt>
      <trkpt lat="45.21351" lon="5.97882">
        <ele>1827.8</ele>
        <time>2021-04-17T06:21:55Z</time>
      </trkpt>
      <trkpt lat="45.21349" lon="5.97878">
        <ele>1828.4</ele>
        <time>2021-04-17T06:21:59Z</time>
      </trkpt>
      <trkpt lat="45.21348" lon="5.97876">
        <ele>1828.6</ele>
        <time>2021-04-17T06:22:01Z</time>
      </trkpt>
      <trkpt lat="45.21346" lon="5.97873">
        <ele>1829.2</ele>
        <time>2021-04-17T06:22:04Z</time>
      </trkpt>
      <trkpt lat="45.21345" lon="5.97871">
        <ele>1829.8</ele>
        <time>2021-04-17T06:22:07Z</time>
      </trkpt>
      <trkpt lat="45.21342" lon="5.97867">
        <ele>1830.4</ele>
        <time>2021-04-17T06:22:11Z</time>
      </trkpt>
      <trkpt lat="45.21341" lon="5.97863">
        <ele>1830.8</ele>
        <time>2021-04-17T06:22:14Z</time>
      </trkpt>
      <trkpt lat="45.21337" lon="5.97858">
        <ele>1831.8</ele>
        <time>2021-04-17T06:22:20Z</time>
      </trkpt>
      <trkpt lat="45.21335" lon="5.97853">
        <ele>1833</ele>
        <time>2021-04-17T06:22:25Z</time>
      </trkpt>
      <trkpt lat="45.21335" lon="5.97852">
        <ele>1833.6</ele>
        <time>2021-04-17T06:22:27Z</time>
      </trkpt>
      <trkpt lat="45.21334" lon="5.97849">
        <ele>1834</ele>
        <time>2021-04-17T06:22:29Z</time>
      </trkpt>
      <trkpt lat="45.21333" lon="5.97846">
        <ele>1835</ele>
        <time>2021-04-17T06:22:33Z</time>
      </trkpt>
      <trkpt lat="45.21332" lon="5.97844">
        <ele>1835.4</ele>
        <time>2021-04-17T06:22:35Z</time>
      </trkpt>
      <trkpt lat="45.21331" lon="5.97842">
        <ele>1836.2</ele>
        <time>2021-04-17T06:22:37Z</time>
      </trkpt>
      <trkpt lat="45.2133" lon="5.97837">
        <ele>1837.2</ele>
        <time>2021-04-17T06:22:41Z</time>
      </trkpt>
      <trkpt lat="45.2133" lon="5.97834">
        <ele>1838.2</ele>
        <time>2021-04-17T06:22:44Z</time>
      </trkpt>
      <trkpt lat="45.21329" lon="5.97833">
        <ele>1838.4</ele>
        <time>2021-04-17T06:22:45Z</time>
      </trkpt>
      <trkpt lat="45.21328" lon="5.97827">
        <ele>1839.6</ele>
        <time>2021-04-17T06:22:50Z</time>
      </trkpt>
      <trkpt lat="45.21327" lon="5.97824">
        <ele>1840.4</ele>
        <time>2021-04-17T06:22:54Z</time>
      </trkpt>
      <trkpt lat="45.21327" lon="5.97821">
        <ele>1841</ele>
        <time>2021-04-17T06:22:56Z</time>
      </trkpt>
      <trkpt lat="45.21326" lon="5.97817">
        <ele>1842</ele>
        <time>2021-04-17T06:23:00Z</time>
      </trkpt>
      <trkpt lat="45.21325" lon="5.97815">
        <ele>1842.4</ele>
        <time>2021-04-17T06:23:02Z</time>
      </trkpt>
      <trkpt lat="45.21323" lon="5.97811">
        <ele>1843.4</ele>
        <time>2021-04-17T06:23:06Z</time>
      </trkpt>
      <trkpt lat="45.21323" lon="5.97809">
        <ele>1844.4</ele>
        <time>2021-04-17T06:23:09Z</time>
      </trkpt>
      <trkpt lat="45.21323" lon="5.97808">
        <ele>1844.6</ele>
        <time>2021-04-17T06:23:10Z</time>
      </trkpt>
      <trkpt lat="45.21321" lon="5.97804">
        <ele>1845.8</ele>
        <time>2021-04-17T06:23:14Z</time>
      </trkpt>
      <trkpt lat="45.2132" lon="5.978">
        <ele>1846.8</ele>
        <time>2021-04-17T06:23:18Z</time>
      </trkpt>
      <trkpt lat="45.2132" lon="5.97796">
        <ele>1847.4</ele>
        <time>2021-04-17T06:23:21Z</time>
      </trkpt>
      <trkpt lat="45.2132" lon="5.97792">
        <ele>1848</ele>
        <time>2021-04-17T06:23:24Z</time>
      </trkpt>
      <trkpt lat="45.21321" lon="5.97787">
        <ele>1849.2</ele>
        <time>2021-04-17T06:23:29Z</time>
      </trkpt>
      <trkpt lat="45.21321" lon="5.97785">
        <ele>1849.8</ele>
        <time>2021-04-17T06:23:31Z</time>
      </trkpt>
      <trkpt lat="45.2132" lon="5.9778">
        <ele>1850.4</ele>
        <time>2021-04-17T06:23:35Z</time>
      </trkpt>
      <trkpt lat="45.21321" lon="5.97778">
        <ele>1850.8</ele>
        <time>2021-04-17T06:23:37Z</time>
      </trkpt>
      <trkpt lat="45.21321" lon="5.97775">
        <ele>1851.4</ele>
        <time>2021-04-17T06:23:39Z</time>
      </trkpt>
      <trkpt lat="45.21321" lon="5.97774">
        <ele>1851.6</ele>
        <time>2021-04-17T06:23:40Z</time>
      </trkpt>
      <trkpt lat="45.21321" lon="5.97772">
        <ele>1852</ele>
        <time>2021-04-17T06:23:42Z</time>
      </trkpt>
      <trkpt lat="45.21321" lon="5.9777">
        <ele>1852.4</ele>
        <time>2021-04-17T06:23:44Z</time>
      </trkpt>
      <trkpt lat="45.2132" lon="5.97764">
        <ele>1853.6</ele>
        <time>2021-04-17T06:23:50Z</time>
      </trkpt>
      <trkpt lat="45.2132" lon="5.97759">
        <ele>1854.6</ele>
        <time>2021-04-17T06:23:55Z</time>
      </trkpt>
      <trkpt lat="45.2132" lon="5.97758">
        <ele>1854.8</ele>
        <time>2021-04-17T06:23:56Z</time>
      </trkpt>
      <trkpt lat="45.21321" lon="5.97753">
        <ele>1856</ele>
        <time>2021-04-17T06:24:01Z</time>
      </trkpt>
      <trkpt lat="45.2132" lon="5.97749">
        <ele>1857.2</ele>
        <time>2021-04-17T06:24:05Z</time>
      </trkpt>
      <trkpt lat="45.21319" lon="5.97743">
        <ele>1858.2</ele>
        <time>2021-04-17T06:24:10Z</time>
      </trkpt>
      <trkpt lat="45.21318" lon="5.97741">
        <ele>1858.6</ele>
        <time>2021-04-17T06:24:12Z</time>
      </trkpt>
      <trkpt lat="45.21318" lon="5.97738">
        <ele>1859.2</ele>
        <time>2021-04-17T06:24:15Z</time>
      </trkpt>
      <trkpt lat="45.21316" lon="5.97733">
        <ele>1860</ele>
        <time>2021-04-17T06:24:19Z</time>
      </trkpt>
      <trkpt lat="45.21316" lon="5.97733">
        <ele>1860.2</ele>
        <time>2021-04-17T06:24:20Z</time>
      </trkpt>
      <trkpt lat="45.21315" lon="5.97727">
        <ele>1861.4</ele>
        <time>2021-04-17T06:24:24Z</time>
      </trkpt>
      <trkpt lat="45.21314" lon="5.97725">
        <ele>1862.2</ele>
        <time>2021-04-17T06:24:26Z</time>
      </trkpt>
      <trkpt lat="45.21313" lon="5.97722">
        <ele>1862.8</ele>
        <time>2021-04-17T06:24:29Z</time>
      </trkpt>
      <trkpt lat="45.21311" lon="5.97717">
        <ele>1864</ele>
        <time>2021-04-17T06:24:34Z</time>
      </trkpt>
      <trkpt lat="45.21309" lon="5.97713">
        <ele>1865</ele>
        <time>2021-04-17T06:24:39Z</time>
      </trkpt>
      <trkpt lat="45.21308" lon="5.97711">
        <ele>1866</ele>
        <time>2021-04-17T06:24:43Z</time>
      </trkpt>
      <trkpt lat="45.21308" lon="5.9771">
        <ele>1866.2</ele>
        <time>2021-04-17T06:24:44Z</time>
      </trkpt>
      <trkpt lat="45.21307" lon="5.97709">
        <ele>1866.6</ele>
        <time>2021-04-17T06:24:45Z</time>
      </trkpt>
      <trkpt lat="45.21306" lon="5.97708">
        <ele>1867.4</ele>
        <time>2021-04-17T06:24:48Z</time>
      </trkpt>
      <trkpt lat="45.21306" lon="5.97708">
        <ele>1867.8</ele>
        <time>2021-04-17T06:24:50Z</time>
      </trkpt>
      <trkpt lat="45.21304" lon="5.97704">
        <ele>1868.4</ele>
        <time>2021-04-17T06:24:53Z</time>
      </trkpt>
      <trkpt lat="45.21302" lon="5.97699">
        <ele>1869.6</ele>
        <time>2021-04-17T06:24:58Z</time>
      </trkpt>
      <trkpt lat="45.21301" lon="5.97697">
        <ele>1871</ele>
        <time>2021-04-17T06:25:03Z</time>
      </trkpt>
      <trkpt lat="45.213" lon="5.97694">
        <ele>1871.8</ele>
        <time>2021-04-17T06:25:06Z</time>
      </trkpt>
      <trkpt lat="45.21299" lon="5.97692">
        <ele>1872.2</ele>
        <time>2021-04-17T06:25:08Z</time>
      </trkpt>
      <trkpt lat="45.21299" lon="5.97687">
        <ele>1873.2</ele>
        <time>2021-04-17T06:25:12Z</time>
      </trkpt>
      <trkpt lat="45.21296" lon="5.97685">
        <ele>1874.2</ele>
        <time>2021-04-17T06:25:16Z</time>
      </trkpt>
      <trkpt lat="45.21296" lon="5.97684">
        <ele>1874.4</ele>
        <time>2021-04-17T06:25:17Z</time>
      </trkpt>
      <trkpt lat="45.21295" lon="5.97682">
        <ele>1875.2</ele>
        <time>2021-04-17T06:25:20Z</time>
      </trkpt>
      <trkpt lat="45.21295" lon="5.97681">
        <ele>1875.6</ele>
        <time>2021-04-17T06:25:21Z</time>
      </trkpt>
      <trkpt lat="45.21293" lon="5.97677">
        <ele>1876.8</ele>
        <time>2021-04-17T06:25:25Z</time>
      </trkpt>
      <trkpt lat="45.2129" lon="5.97673">
        <ele>1878</ele>
        <time>2021-04-17T06:25:31Z</time>
      </trkpt>
      <trkpt lat="45.21289" lon="5.97672">
        <ele>1878.4</ele>
        <time>2021-04-17T06:25:33Z</time>
      </trkpt>
      <trkpt lat="45.21288" lon="5.9767">
        <ele>1879.2</ele>
        <time>2021-04-17T06:25:36Z</time>
      </trkpt>
      <trkpt lat="45.21286" lon="5.97669">
        <ele>1880.4</ele>
        <time>2021-04-17T06:25:42Z</time>
      </trkpt>
      <trkpt lat="45.21284" lon="5.97665">
        <ele>1881.6</ele>
        <time>2021-04-17T06:25:47Z</time>
      </trkpt>
      <trkpt lat="45.21283" lon="5.97663">
        <ele>1882</ele>
        <time>2021-04-17T06:25:49Z</time>
      </trkpt>
      <trkpt lat="45.21282" lon="5.97661">
        <ele>1882.8</ele>
        <time>2021-04-17T06:25:51Z</time>
      </trkpt>
      <trkpt lat="45.21282" lon="5.9766">
        <ele>1883</ele>
        <time>2021-04-17T06:25:52Z</time>
      </trkpt>
      <trkpt lat="45.2128" lon="5.97657">
        <ele>1883.6</ele>
        <time>2021-04-17T06:25:56Z</time>
      </trkpt>
      <trkpt lat="45.2128" lon="5.97657">
        <ele>1883.8</ele>
        <time>2021-04-17T06:25:58Z</time>
      </trkpt>
      <trkpt lat="45.21277" lon="5.97654">
        <ele>1885</ele>
        <time>2021-04-17T06:26:03Z</time>
      </trkpt>
      <trkpt lat="45.21276" lon="5.97654">
        <ele>1885.6</ele>
        <time>2021-04-17T06:26:05Z</time>
      </trkpt>
      <trkpt lat="45.21275" lon="5.97653">
        <ele>1886</ele>
        <time>2021-04-17T06:26:07Z</time>
      </trkpt>
      <trkpt lat="45.21272" lon="5.97653">
        <ele>1887.4</ele>
        <time>2021-04-17T06:26:10Z</time>
      </trkpt>
      <trkpt lat="45.2127" lon="5.97652">
        <ele>1888.2</ele>
        <time>2021-04-17T06:26:16Z</time>
      </trkpt>
      <trkpt lat="45.21269" lon="5.97652">
        <ele>1888.4</ele>
        <time>2021-04-17T06:26:17Z</time>
      </trkpt>
      <trkpt lat="45.21267" lon="5.9765">
        <ele>1889</ele>
        <time>2021-04-17T06:26:19Z</time>
      </trkpt>
      <trkpt lat="45.21265" lon="5.9765">
        <ele>1889.6</ele>
        <time>2021-04-17T06:26:22Z</time>
      </trkpt>
      <trkpt lat="45.21266" lon="5.97651">
        <ele>1890.2</ele>
        <time>2021-04-17T06:26:27Z</time>
      </trkpt>
      <trkpt lat="45.21266" lon="5.97648">
        <ele>1890.4</ele>
        <time>2021-04-17T06:26:33Z</time>
      </trkpt>
      <trkpt lat="45.21266" lon="5.97648">
        <ele>1890.4</ele>
        <time>2021-04-17T06:26:36Z</time>
      </trkpt>
      <trkpt lat="45.21266" lon="5.97648">
        <ele>1890.4</ele>
        <time>2021-04-17T06:26:39Z</time>
      </trkpt>
      <trkpt lat="45.21266" lon="5.97648">
        <ele>1890.4</ele>
        <time>2021-04-17T06:26:41Z</time>
      </trkpt>
      <trkpt lat="45.21266" lon="5.97648">
        <ele>1890.4</ele>
        <time>2021-04-17T06:26:43Z</time>
      </trkpt>
      <trkpt lat="45.21266" lon="5.97648">
        <ele>1890.4</ele>
        <time>2021-04-17T06:26:46Z</time>
      </trkpt>
      <trkpt lat="45.21266" lon="5.97648">
        <ele>1890.4</ele>
        <time>2021-04-17T06:26:48Z</time>
      </trkpt>
      <trkpt lat="45.21266" lon="5.97648">
        <ele>1890.4</ele>
        <time>2021-04-17T06:26:50Z</time>
      </trkpt>
      <trkpt lat="45.21266" lon="5.97648">
        <ele>1890.6</ele>
        <time>2021-04-17T06:26:51Z</time>
      </trkpt>
      <trkpt lat="45.21265" lon="5.97647">
        <ele>1890.6</ele>
        <time>2021-04-17T06:26:52Z</time>
      </trkpt>
      <trkpt lat="45.21265" lon="5.97647">
        <ele>1890.6</ele>
        <time>2021-04-17T06:26:54Z</time>
      </trkpt>
      <trkpt lat="45.21265" lon="5.97647">
        <ele>1890.6</ele>
        <time>2021-04-17T06:26:55Z</time>
      </trkpt>
      <trkpt lat="45.21265" lon="5.97647">
        <ele>1890.6</ele>
        <time>2021-04-17T06:26:56Z</time>
      </trkpt>
      <trkpt lat="45.21265" lon="5.97647">
        <ele>1890.6</ele>
        <time>2021-04-17T06:26:57Z</time>
      </trkpt>
      <trkpt lat="45.21265" lon="5.97646">
        <ele>1890.6</ele>
        <time>2021-04-17T06:26:58Z</time>
      </trkpt>
      <trkpt lat="45.21265" lon="5.97646">
        <ele>1890.6</ele>
        <time>2021-04-17T06:26:59Z</time>
      </trkpt>
      <trkpt lat="45.21265" lon="5.97646">
        <ele>1890.6</ele>
        <time>2021-04-17T06:27:00Z</time>
      </trkpt>
      <trkpt lat="45.21265" lon="5.97645">
        <ele>1890.6</ele>
        <time>2021-04-17T06:27:05Z</time>
      </trkpt>
      <trkpt lat="45.21265" lon="5.97645">
        <ele>1890.4</ele>
        <time>2021-04-17T06:27:07Z</time>
      </trkpt>
      <trkpt lat="45.21265" lon="5.97644">
        <ele>1890.4</ele>
        <time>2021-04-17T06:27:08Z</time>
      </trkpt>
      <trkpt lat="45.21265" lon="5.97643">
        <ele>1890.4</ele>
        <time>2021-04-17T06:27:12Z</time>
      </trkpt>
      <trkpt lat="45.21265" lon="5.97643">
        <ele>1890.4</ele>
        <time>2021-04-17T06:27:14Z</time>
      </trkpt>
      <trkpt lat="45.21265" lon="5.97642">
        <ele>1890.4</ele>
        <time>2021-04-17T06:27:17Z</time>
      </trkpt>
      <trkpt lat="45.21264" lon="5.97642">
        <ele>1890.8</ele>
        <time>2021-04-17T06:27:20Z</time>
      </trkpt>
      <trkpt lat="45.21264" lon="5.97642">
        <ele>1890.8</ele>
        <time>2021-04-17T06:27:21Z</time>
      </trkpt>
      <trkpt lat="45.21264" lon="5.97642">
        <ele>1891</ele>
        <time>2021-04-17T06:27:23Z</time>
      </trkpt>
      <trkpt lat="45.21263" lon="5.97642">
        <ele>1891.6</ele>
        <time>2021-04-17T06:27:25Z</time>
      </trkpt>
      <trkpt lat="45.21262" lon="5.97642">
        <ele>1891.8</ele>
        <time>2021-04-17T06:27:26Z</time>
      </trkpt>
      <trkpt lat="45.2126" lon="5.97641">
        <ele>1892.2</ele>
        <time>2021-04-17T06:27:28Z</time>
      </trkpt>
      <trkpt lat="45.21258" lon="5.97641">
        <ele>1892.8</ele>
        <time>2021-04-17T06:27:30Z</time>
      </trkpt>
      <trkpt lat="45.21257" lon="5.97641">
        <ele>1893</ele>
        <time>2021-04-17T06:27:31Z</time>
      </trkpt>
      <trkpt lat="45.21256" lon="5.97641">
        <ele>1893.4</ele>
        <time>2021-04-17T06:27:32Z</time>
      </trkpt>
      <trkpt lat="45.21254" lon="5.97641">
        <ele>1894.2</ele>
        <time>2021-04-17T06:27:34Z</time>
      </trkpt>
      <trkpt lat="45.21253" lon="5.9764">
        <ele>1895</ele>
        <time>2021-04-17T06:27:37Z</time>
      </trkpt>
      <trkpt lat="45.21252" lon="5.9764">
        <ele>1895.4</ele>
        <time>2021-04-17T06:27:38Z</time>
      </trkpt>
      <trkpt lat="45.21251" lon="5.9764">
        <ele>1896</ele>
        <time>2021-04-17T06:27:41Z</time>
      </trkpt>
      <trkpt lat="45.2125" lon="5.9764">
        <ele>1896.2</ele>
        <time>2021-04-17T06:27:42Z</time>
      </trkpt>
      <trkpt lat="45.21249" lon="5.97641">
        <ele>1896.4</ele>
        <time>2021-04-17T06:27:43Z</time>
      </trkpt>
      <trkpt lat="45.21247" lon="5.97641">
        <ele>1897.2</ele>
        <time>2021-04-17T06:27:46Z</time>
      </trkpt>
      <trkpt lat="45.21246" lon="5.97641">
        <ele>1897.6</ele>
        <time>2021-04-17T06:27:48Z</time>
      </trkpt>
      <trkpt lat="45.21246" lon="5.97641">
        <ele>1898</ele>
        <time>2021-04-17T06:27:49Z</time>
      </trkpt>
      <trkpt lat="45.21246" lon="5.9764">
        <ele>1898.4</ele>
        <time>2021-04-17T06:27:52Z</time>
      </trkpt>
      <trkpt lat="45.21246" lon="5.9764">
        <ele>1898.4</ele>
        <time>2021-04-17T06:27:54Z</time>
      </trkpt>
      <trkpt lat="45.21249" lon="5.97639">
        <ele>1898.4</ele>
        <time>2021-04-17T06:28:00Z</time>
      </trkpt>
      <trkpt lat="45.21249" lon="5.97639">
        <ele>1898.8</ele>
        <time>2021-04-17T06:28:03Z</time>
      </trkpt>
      <trkpt lat="45.21249" lon="5.97636">
        <ele>1899.6</ele>
        <time>2021-04-17T06:28:06Z</time>
      </trkpt>
      <trkpt lat="45.2125" lon="5.97633">
        <ele>1900</ele>
        <time>2021-04-17T06:28:08Z</time>
      </trkpt>
      <trkpt lat="45.21251" lon="5.97632">
        <ele>1900.2</ele>
        <time>2021-04-17T06:28:09Z</time>
      </trkpt>
      <trkpt lat="45.21251" lon="5.97626">
        <ele>1901</ele>
        <time>2021-04-17T06:28:13Z</time>
      </trkpt>
      <trkpt lat="45.21252" lon="5.97625">
        <ele>1901.2</ele>
        <time>2021-04-17T06:28:14Z</time>
      </trkpt>
      <trkpt lat="45.21252" lon="5.97624">
        <ele>1901.4</ele>
        <time>2021-04-17T06:28:15Z</time>
      </trkpt>
      <trkpt lat="45.21253" lon="5.97621">
        <ele>1902.2</ele>
        <time>2021-04-17T06:28:19Z</time>
      </trkpt>
      <trkpt lat="45.21254" lon="5.97618">
        <ele>1902.8</ele>
        <time>2021-04-17T06:28:22Z</time>
      </trkpt>
      <trkpt lat="45.21254" lon="5.97617">
        <ele>1903.2</ele>
        <time>2021-04-17T06:28:25Z</time>
      </trkpt>
      <trkpt lat="45.21257" lon="5.97613">
        <ele>1904</ele>
        <time>2021-04-17T06:28:28Z</time>
      </trkpt>
      <trkpt lat="45.21258" lon="5.97612">
        <ele>1904.2</ele>
        <time>2021-04-17T06:28:29Z</time>
      </trkpt>
      <trkpt lat="45.21258" lon="5.97612">
        <ele>1904.4</ele>
        <time>2021-04-17T06:28:30Z</time>
      </trkpt>
      <trkpt lat="45.2126" lon="5.97611">
        <ele>1905</ele>
        <time>2021-04-17T06:28:32Z</time>
      </trkpt>
      <trkpt lat="45.21263" lon="5.97608">
        <ele>1905.6</ele>
        <time>2021-04-17T06:28:36Z</time>
      </trkpt>
      <trkpt lat="45.21264" lon="5.97608">
        <ele>1906.2</ele>
        <time>2021-04-17T06:28:38Z</time>
      </trkpt>
      <trkpt lat="45.21266" lon="5.97607">
        <ele>1906.6</ele>
        <time>2021-04-17T06:28:40Z</time>
      </trkpt>
      <trkpt lat="45.21267" lon="5.97606">
        <ele>1907</ele>
        <time>2021-04-17T06:28:43Z</time>
      </trkpt>
      <trkpt lat="45.21268" lon="5.97606">
        <ele>1907.4</ele>
        <time>2021-04-17T06:28:48Z</time>
      </trkpt>
      <trkpt lat="45.21268" lon="5.97604">
        <ele>1907.8</ele>
        <time>2021-04-17T06:28:52Z</time>
      </trkpt>
      <trkpt lat="45.21269" lon="5.97603">
        <ele>1908.2</ele>
        <time>2021-04-17T06:28:55Z</time>
      </trkpt>
      <trkpt lat="45.2127" lon="5.97601">
        <ele>1908.8</ele>
        <time>2021-04-17T06:28:59Z</time>
      </trkpt>
      <trkpt lat="45.21271" lon="5.976">
        <ele>1909</ele>
        <time>2021-04-17T06:29:01Z</time>
      </trkpt>
      <trkpt lat="45.21275" lon="5.97599">
        <ele>1909.6</ele>
        <time>2021-04-17T06:29:07Z</time>
      </trkpt>
      <trkpt lat="45.21275" lon="5.97598">
        <ele>1909.8</ele>
        <time>2021-04-17T06:29:09Z</time>
      </trkpt>
      <trkpt lat="45.21276" lon="5.97598">
        <ele>1910</ele>
        <time>2021-04-17T06:29:10Z</time>
      </trkpt>
      <trkpt lat="45.21277" lon="5.97599">
        <ele>1910.8</ele>
        <time>2021-04-17T06:29:16Z</time>
      </trkpt>
      <trkpt lat="45.21277" lon="5.976">
        <ele>1911</ele>
        <time>2021-04-17T06:29:17Z</time>
      </trkpt>
      <trkpt lat="45.21278" lon="5.976">
        <ele>1911.2</ele>
        <time>2021-04-17T06:29:23Z</time>
      </trkpt>
      <trkpt lat="45.21278" lon="5.976">
        <ele>1911.8</ele>
        <time>2021-04-17T06:29:29Z</time>
      </trkpt>
      <trkpt lat="45.21278" lon="5.976">
        <ele>1912.2</ele>
        <time>2021-04-17T06:29:31Z</time>
      </trkpt>
      <trkpt lat="45.21279" lon="5.97599">
        <ele>1913.2</ele>
        <time>2021-04-17T06:29:37Z</time>
      </trkpt>
      <trkpt lat="45.21281" lon="5.97599">
        <ele>1913.8</ele>
        <time>2021-04-17T06:29:43Z</time>
      </trkpt>
      <trkpt lat="45.21284" lon="5.97598">
        <ele>1914.4</ele>
        <time>2021-04-17T06:29:48Z</time>
      </trkpt>
      <trkpt lat="45.21287" lon="5.97597">
        <ele>1915.2</ele>
        <time>2021-04-17T06:29:51Z</time>
      </trkpt>
      <trkpt lat="45.21289" lon="5.97596">
        <ele>1915.4</ele>
        <time>2021-04-17T06:29:53Z</time>
      </trkpt>
      <trkpt lat="45.21293" lon="5.97596">
        <ele>1915.8</ele>
        <time>2021-04-17T06:29:56Z</time>
      </trkpt>
      <trkpt lat="45.21296" lon="5.97595">
        <ele>1916.4</ele>
        <time>2021-04-17T06:30:00Z</time>
      </trkpt>
      <trkpt lat="45.21298" lon="5.97594">
        <ele>1917</ele>
        <time>2021-04-17T06:30:02Z</time>
      </trkpt>
      <trkpt lat="45.21298" lon="5.97594">
        <ele>1917</ele>
        <time>2021-04-17T06:30:03Z</time>
      </trkpt>
      <trkpt lat="45.21298" lon="5.97594">
        <ele>1917</ele>
        <time>2021-04-17T06:30:04Z</time>
      </trkpt>
      <trkpt lat="45.21301" lon="5.97593">
        <ele>1917.6</ele>
        <time>2021-04-17T06:30:08Z</time>
      </trkpt>
      <trkpt lat="45.21309" lon="5.976">
        <ele>1917.8</ele>
        <time>2021-04-17T06:30:14Z</time>
      </trkpt>
      <trkpt lat="45.2131" lon="5.976">
        <ele>1918</ele>
        <time>2021-04-17T06:30:15Z</time>
      </trkpt>
      <trkpt lat="45.21313" lon="5.976">
        <ele>1918.6</ele>
        <time>2021-04-17T06:30:21Z</time>
      </trkpt>
      <trkpt lat="45.21316" lon="5.97599">
        <ele>1919.6</ele>
        <time>2021-04-17T06:30:27Z</time>
      </trkpt>
      <trkpt lat="45.2132" lon="5.97599">
        <ele>1920.8</ele>
        <time>2021-04-17T06:30:33Z</time>
      </trkpt>
      <trkpt lat="45.21321" lon="5.97598">
        <ele>1920.8</ele>
        <time>2021-04-17T06:30:34Z</time>
      </trkpt>
      <trkpt lat="45.21321" lon="5.97599">
        <ele>1921.2</ele>
        <time>2021-04-17T06:30:39Z</time>
      </trkpt>
      <trkpt lat="45.21319" lon="5.97599">
        <ele>1921.8</ele>
        <time>2021-04-17T06:30:45Z</time>
      </trkpt>
      <trkpt lat="45.21319" lon="5.97598">
        <ele>1922</ele>
        <time>2021-04-17T06:30:46Z</time>
      </trkpt>
      <trkpt lat="45.21319" lon="5.97595">
        <ele>1922.8</ele>
        <time>2021-04-17T06:30:50Z</time>
      </trkpt>
      <trkpt lat="45.21318" lon="5.97592">
        <ele>1923.8</ele>
        <time>2021-04-17T06:30:54Z</time>
      </trkpt>
      <trkpt lat="45.21317" lon="5.97592">
        <ele>1924.2</ele>
        <time>2021-04-17T06:30:56Z</time>
      </trkpt>
      <trkpt lat="45.21318" lon="5.97592">
        <ele>1924.8</ele>
        <time>2021-04-17T06:31:00Z</time>
      </trkpt>
      <trkpt lat="45.21319" lon="5.97593">
        <ele>1925</ele>
        <time>2021-04-17T06:31:01Z</time>
      </trkpt>
      <trkpt lat="45.21325" lon="5.97592">
        <ele>1926</ele>
        <time>2021-04-17T06:31:07Z</time>
      </trkpt>
      <trkpt lat="45.21325" lon="5.97591">
        <ele>1926.2</ele>
        <time>2021-04-17T06:31:08Z</time>
      </trkpt>
      <trkpt lat="45.21328" lon="5.97591">
        <ele>1927.4</ele>
        <time>2021-04-17T06:31:13Z</time>
      </trkpt>
      <trkpt lat="45.21329" lon="5.97591">
        <ele>1927.6</ele>
        <time>2021-04-17T06:31:14Z</time>
      </trkpt>
      <trkpt lat="45.21333" lon="5.97591">
        <ele>1928.4</ele>
        <time>2021-04-17T06:31:19Z</time>
      </trkpt>
      <trkpt lat="45.21336" lon="5.97593">
        <ele>1928.8</ele>
        <time>2021-04-17T06:31:22Z</time>
      </trkpt>
      <trkpt lat="45.21337" lon="5.97593">
        <ele>1929</ele>
        <time>2021-04-17T06:31:23Z</time>
      </trkpt>
      <trkpt lat="45.21339" lon="5.97595">
        <ele>1929.4</ele>
        <time>2021-04-17T06:31:26Z</time>
      </trkpt>
      <trkpt lat="45.2134" lon="5.97595">
        <ele>1929.8</ele>
        <time>2021-04-17T06:31:28Z</time>
      </trkpt>
      <trkpt lat="45.21342" lon="5.97595">
        <ele>1930.4</ele>
        <time>2021-04-17T06:31:30Z</time>
      </trkpt>
      <trkpt lat="45.21343" lon="5.97595">
        <ele>1930.8</ele>
        <time>2021-04-17T06:31:31Z</time>
      </trkpt>
      <trkpt lat="45.21346" lon="5.97595">
        <ele>1931.6</ele>
        <time>2021-04-17T06:31:34Z</time>
      </trkpt>
      <trkpt lat="45.21352" lon="5.97595">
        <ele>1932.8</ele>
        <time>2021-04-17T06:31:39Z</time>
      </trkpt>
      <trkpt lat="45.21354" lon="5.97594">
        <ele>1933.2</ele>
        <time>2021-04-17T06:31:42Z</time>
      </trkpt>
      <trkpt lat="45.21356" lon="5.97594">
        <ele>1934</ele>
        <time>2021-04-17T06:31:45Z</time>
      </trkpt>
      <trkpt lat="45.21359" lon="5.97592">
        <ele>1935</ele>
        <time>2021-04-17T06:31:49Z</time>
      </trkpt>
      <trkpt lat="45.21361" lon="5.97591">
        <ele>1935.8</ele>
        <time>2021-04-17T06:31:51Z</time>
      </trkpt>
      <trkpt lat="45.21364" lon="5.97589">
        <ele>1937</ele>
        <time>2021-04-17T06:31:53Z</time>
      </trkpt>
      <trkpt lat="45.21367" lon="5.97588">
        <ele>1938</ele>
        <time>2021-04-17T06:31:59Z</time>
      </trkpt>
      <trkpt lat="45.2137" lon="5.97587">
        <ele>1939</ele>
        <time>2021-04-17T06:32:03Z</time>
      </trkpt>
      <trkpt lat="45.21372" lon="5.97584">
        <ele>1940.2</ele>
        <time>2021-04-17T06:32:07Z</time>
      </trkpt>
      <trkpt lat="45.21375" lon="5.97581">
        <ele>1941.2</ele>
        <time>2021-04-17T06:32:11Z</time>
      </trkpt>
      <trkpt lat="45.21377" lon="5.97579">
        <ele>1942</ele>
        <time>2021-04-17T06:32:14Z</time>
      </trkpt>
      <trkpt lat="45.21379" lon="5.97577">
        <ele>1942.4</ele>
        <time>2021-04-17T06:32:16Z</time>
      </trkpt>
      <trkpt lat="45.21383" lon="5.97573">
        <ele>1943.4</ele>
        <time>2021-04-17T06:32:21Z</time>
      </trkpt>
      <trkpt lat="45.21388" lon="5.97568">
        <ele>1944.4</ele>
        <time>2021-04-17T06:32:27Z</time>
      </trkpt>
      <trkpt lat="45.21389" lon="5.97568">
        <ele>1944.6</ele>
        <time>2021-04-17T06:32:28Z</time>
      </trkpt>
      <trkpt lat="45.21391" lon="5.97566">
        <ele>1945.4</ele>
        <time>2021-04-17T06:32:31Z</time>
      </trkpt>
      <trkpt lat="45.21393" lon="5.97564">
        <ele>1945.8</ele>
        <time>2021-04-17T06:32:33Z</time>
      </trkpt>
      <trkpt lat="45.21397" lon="5.97561">
        <ele>1946.8</ele>
        <time>2021-04-17T06:32:39Z</time>
      </trkpt>
      <trkpt lat="45.214" lon="5.97559">
        <ele>1947.2</ele>
        <time>2021-04-17T06:32:42Z</time>
      </trkpt>
      <trkpt lat="45.21401" lon="5.97556">
        <ele>1947.8</ele>
        <time>2021-04-17T06:32:45Z</time>
      </trkpt>
      <trkpt lat="45.21402" lon="5.97555">
        <ele>1948.2</ele>
        <time>2021-04-17T06:32:47Z</time>
      </trkpt>
      <trkpt lat="45.21401" lon="5.97555">
        <ele>1948.2</ele>
        <time>2021-04-17T06:32:48Z</time>
      </trkpt>
      <trkpt lat="45.21401" lon="5.97555">
        <ele>1948.8</ele>
        <time>2021-04-17T06:32:53Z</time>
      </trkpt>
      <trkpt lat="45.214" lon="5.97554">
        <ele>1948.8</ele>
        <time>2021-04-17T06:32:54Z</time>
      </trkpt>
      <trkpt lat="45.21401" lon="5.97555">
        <ele>1949</ele>
        <time>2021-04-17T06:33:00Z</time>
      </trkpt>
      <trkpt lat="45.21401" lon="5.97555">
        <ele>1949</ele>
        <time>2021-04-17T06:33:04Z</time>
      </trkpt>
      <trkpt lat="45.21401" lon="5.97555">
        <ele>1949</ele>
        <time>2021-04-17T06:33:08Z</time>
      </trkpt>
      <trkpt lat="45.21401" lon="5.97555">
        <ele>1949</ele>
        <time>2021-04-17T06:33:10Z</time>
      </trkpt>
      <trkpt lat="45.21401" lon="5.97555">
        <ele>1949</ele>
        <time>2021-04-17T06:33:12Z</time>
      </trkpt>
      <trkpt lat="45.21401" lon="5.97555">
        <ele>1949</ele>
        <time>2021-04-17T06:33:13Z</time>
      </trkpt>
      <trkpt lat="45.21401" lon="5.97555">
        <ele>1949</ele>
        <time>2021-04-17T06:33:14Z</time>
      </trkpt>
      <trkpt lat="45.21401" lon="5.97555">
        <ele>1948.8</ele>
        <time>2021-04-17T06:33:16Z</time>
      </trkpt>
      <trkpt lat="45.21401" lon="5.97555">
        <ele>1948.8</ele>
        <time>2021-04-17T06:33:18Z</time>
      </trkpt>
      <trkpt lat="45.214" lon="5.97555">
        <ele>1948.6</ele>
        <time>2021-04-17T06:33:20Z</time>
      </trkpt>
      <trkpt lat="45.214" lon="5.97555">
        <ele>1948.6</ele>
        <time>2021-04-17T06:33:22Z</time>
      </trkpt>
      <trkpt lat="45.214" lon="5.97555">
        <ele>1948.6</ele>
        <time>2021-04-17T06:33:25Z</time>
      </trkpt>
      <trkpt lat="45.214" lon="5.97555">
        <ele>1948.6</ele>
        <time>2021-04-17T06:33:26Z</time>
      </trkpt>
      <trkpt lat="45.214" lon="5.97555">
        <ele>1948.6</ele>
        <time>2021-04-17T06:33:27Z</time>
      </trkpt>
      <trkpt lat="45.214" lon="5.97555">
        <ele>1948.6</ele>
        <time>2021-04-17T06:33:29Z</time>
      </trkpt>
      <trkpt lat="45.214" lon="5.97555">
        <ele>1948.6</ele>
        <time>2021-04-17T06:33:31Z</time>
      </trkpt>
      <trkpt lat="45.214" lon="5.97554">
        <ele>1948.6</ele>
        <time>2021-04-17T06:33:34Z</time>
      </trkpt>
      <trkpt lat="45.214" lon="5.97554">
        <ele>1948.8</ele>
        <time>2021-04-17T06:33:36Z</time>
      </trkpt>
      <trkpt lat="45.214" lon="5.97554">
        <ele>1949.2</ele>
        <time>2021-04-17T06:33:38Z</time>
      </trkpt>
      <trkpt lat="45.21397" lon="5.97553">
        <ele>1949.4</ele>
        <time>2021-04-17T06:33:40Z</time>
      </trkpt>
      <trkpt lat="45.21395" lon="5.97552">
        <ele>1950</ele>
        <time>2021-04-17T06:33:42Z</time>
      </trkpt>
      <trkpt lat="45.21391" lon="5.9755">
        <ele>1951</ele>
        <time>2021-04-17T06:33:45Z</time>
      </trkpt>
      <trkpt lat="45.21389" lon="5.97549">
        <ele>1951.6</ele>
        <time>2021-04-17T06:33:47Z</time>
      </trkpt>
      <trkpt lat="45.21388" lon="5.97548">
        <ele>1952</ele>
        <time>2021-04-17T06:33:49Z</time>
      </trkpt>
      <trkpt lat="45.21384" lon="5.97545">
        <ele>1953.4</ele>
        <time>2021-04-17T06:33:54Z</time>
      </trkpt>
      <trkpt lat="45.21384" lon="5.97545">
        <ele>1953.8</ele>
        <time>2021-04-17T06:33:55Z</time>
      </trkpt>
      <trkpt lat="45.21382" lon="5.97543">
        <ele>1954.6</ele>
        <time>2021-04-17T06:33:57Z</time>
      </trkpt>
      <trkpt lat="45.21381" lon="5.97542">
        <ele>1955.2</ele>
        <time>2021-04-17T06:33:59Z</time>
      </trkpt>
      <trkpt lat="45.2138" lon="5.97541">
        <ele>1955.6</ele>
        <time>2021-04-17T06:34:00Z</time>
      </trkpt>
      <trkpt lat="45.21379" lon="5.97541">
        <ele>1956</ele>
        <time>2021-04-17T06:34:01Z</time>
      </trkpt>
      <trkpt lat="45.21377" lon="5.97538">
        <ele>1956.8</ele>
        <time>2021-04-17T06:34:05Z</time>
      </trkpt>
      <trkpt lat="45.21376" lon="5.97537">
        <ele>1957.4</ele>
        <time>2021-04-17T06:34:07Z</time>
      </trkpt>
      <trkpt lat="45.21374" lon="5.97535">
        <ele>1958</ele>
        <time>2021-04-17T06:34:10Z</time>
      </trkpt>
      <trkpt lat="45.21374" lon="5.97534">
        <ele>1958.4</ele>
        <time>2021-04-17T06:34:11Z</time>
      </trkpt>
      <trkpt lat="45.21373" lon="5.97533">
        <ele>1958.8</ele>
        <time>2021-04-17T06:34:12Z</time>
      </trkpt>
      <trkpt lat="45.21371" lon="5.97531">
        <ele>1959.6</ele>
        <time>2021-04-17T06:34:15Z</time>
      </trkpt>
      <trkpt lat="45.21371" lon="5.97528">
        <ele>1960.8</ele>
        <time>2021-04-17T06:34:20Z</time>
      </trkpt>
      <trkpt lat="45.21372" lon="5.97527">
        <ele>1961</ele>
        <time>2021-04-17T06:34:21Z</time>
      </trkpt>
      <trkpt lat="45.21374" lon="5.97524">
        <ele>1962</ele>
        <time>2021-04-17T06:34:25Z</time>
      </trkpt>
      <trkpt lat="45.21377" lon="5.97522">
        <ele>1963</ele>
        <time>2021-04-17T06:34:29Z</time>
      </trkpt>
      <trkpt lat="45.2138" lon="5.97519">
        <ele>1964.2</ele>
        <time>2021-04-17T06:34:33Z</time>
      </trkpt>
      <trkpt lat="45.2138" lon="5.97519">
        <ele>1964.4</ele>
        <time>2021-04-17T06:34:34Z</time>
      </trkpt>
      <trkpt lat="45.21381" lon="5.97517">
        <ele>1965.2</ele>
        <time>2021-04-17T06:34:37Z</time>
      </trkpt>
      <trkpt lat="45.21382" lon="5.97514">
        <ele>1966.2</ele>
        <time>2021-04-17T06:34:41Z</time>
      </trkpt>
      <trkpt lat="45.21382" lon="5.97512">
        <ele>1966.6</ele>
        <time>2021-04-17T06:34:43Z</time>
      </trkpt>
      <trkpt lat="45.21381" lon="5.97511">
        <ele>1967.4</ele>
        <time>2021-04-17T06:34:45Z</time>
      </trkpt>
      <trkpt lat="45.21378" lon="5.9751">
        <ele>1968.6</ele>
        <time>2021-04-17T06:34:50Z</time>
      </trkpt>
      <trkpt lat="45.21375" lon="5.97508">
        <ele>1969.4</ele>
        <time>2021-04-17T06:34:54Z</time>
      </trkpt>
      <trkpt lat="45.21375" lon="5.97507">
        <ele>1969.6</ele>
        <time>2021-04-17T06:34:55Z</time>
      </trkpt>
      <trkpt lat="45.21374" lon="5.97506">
        <ele>1969.8</ele>
        <time>2021-04-17T06:34:56Z</time>
      </trkpt>
      <trkpt lat="45.21374" lon="5.97506">
        <ele>1970</ele>
        <time>2021-04-17T06:34:57Z</time>
      </trkpt>
      <trkpt lat="45.21372" lon="5.97503">
        <ele>1970.8</ele>
        <time>2021-04-17T06:35:00Z</time>
      </trkpt>
      <trkpt lat="45.2137" lon="5.97501">
        <ele>1971.8</ele>
        <time>2021-04-17T06:35:03Z</time>
      </trkpt>
      <trkpt lat="45.21369" lon="5.975">
        <ele>1972</ele>
        <time>2021-04-17T06:35:04Z</time>
      </trkpt>
      <trkpt lat="45.21368" lon="5.97499">
        <ele>1972.4</ele>
        <time>2021-04-17T06:35:06Z</time>
      </trkpt>
      <trkpt lat="45.21366" lon="5.97497">
        <ele>1973.2</ele>
        <time>2021-04-17T06:35:09Z</time>
      </trkpt>
      <trkpt lat="45.21364" lon="5.97493">
        <ele>1974.4</ele>
        <time>2021-04-17T06:35:14Z</time>
      </trkpt>
      <trkpt lat="45.21366" lon="5.9749">
        <ele>1975.4</ele>
        <time>2021-04-17T06:35:19Z</time>
      </trkpt>
      <trkpt lat="45.21367" lon="5.9749">
        <ele>1975.6</ele>
        <time>2021-04-17T06:35:20Z</time>
      </trkpt>
      <trkpt lat="45.21369" lon="5.97487">
        <ele>1976.6</ele>
        <time>2021-04-17T06:35:25Z</time>
      </trkpt>
      <trkpt lat="45.2137" lon="5.97483">
        <ele>1977.6</ele>
        <time>2021-04-17T06:35:29Z</time>
      </trkpt>
      <trkpt lat="45.2137" lon="5.97482">
        <ele>1977.8</ele>
        <time>2021-04-17T06:35:30Z</time>
      </trkpt>
      <trkpt lat="45.2137" lon="5.97478">
        <ele>1978.8</ele>
        <time>2021-04-17T06:35:34Z</time>
      </trkpt>
      <trkpt lat="45.2137" lon="5.97476">
        <ele>1979.4</ele>
        <time>2021-04-17T06:35:36Z</time>
      </trkpt>
      <trkpt lat="45.21369" lon="5.97476">
        <ele>1980</ele>
        <time>2021-04-17T06:35:37Z</time>
      </trkpt>
      <trkpt lat="45.21367" lon="5.97474">
        <ele>1980.6</ele>
        <time>2021-04-17T06:35:42Z</time>
      </trkpt>
      <trkpt lat="45.21366" lon="5.97474">
        <ele>1981.2</ele>
        <time>2021-04-17T06:35:44Z</time>
      </trkpt>
      <trkpt lat="45.21363" lon="5.97473">
        <ele>1982.2</ele>
        <time>2021-04-17T06:35:47Z</time>
      </trkpt>
      <trkpt lat="45.21363" lon="5.97473">
        <ele>1982.4</ele>
        <time>2021-04-17T06:35:48Z</time>
      </trkpt>
      <trkpt lat="45.2136" lon="5.97472">
        <ele>1983.2</ele>
        <time>2021-04-17T06:35:52Z</time>
      </trkpt>
      <trkpt lat="45.21358" lon="5.97471">
        <ele>1983.6</ele>
        <time>2021-04-17T06:35:54Z</time>
      </trkpt>
      <trkpt lat="45.21356" lon="5.97471">
        <ele>1984.2</ele>
        <time>2021-04-17T06:35:57Z</time>
      </trkpt>
      <trkpt lat="45.21355" lon="5.97471">
        <ele>1984.6</ele>
        <time>2021-04-17T06:35:58Z</time>
      </trkpt>
      <trkpt lat="45.21352" lon="5.9747">
        <ele>1985.8</ele>
        <time>2021-04-17T06:36:02Z</time>
      </trkpt>
      <trkpt lat="45.21352" lon="5.97469">
        <ele>1986</ele>
        <time>2021-04-17T06:36:03Z</time>
      </trkpt>
      <trkpt lat="45.21349" lon="5.97469">
        <ele>1986.8</ele>
        <time>2021-04-17T06:36:07Z</time>
      </trkpt>
      <trkpt lat="45.21347" lon="5.97466">
        <ele>1988</ele>
        <time>2021-04-17T06:36:11Z</time>
      </trkpt>
      <trkpt lat="45.21348" lon="5.97462">
        <ele>1989.2</ele>
        <time>2021-04-17T06:36:16Z</time>
      </trkpt>
      <trkpt lat="45.21348" lon="5.97459">
        <ele>1989.6</ele>
        <time>2021-04-17T06:36:18Z</time>
      </trkpt>
      <trkpt lat="45.21349" lon="5.97455">
        <ele>1990.2</ele>
        <time>2021-04-17T06:36:21Z</time>
      </trkpt>
      <trkpt lat="45.21349" lon="5.97449">
        <ele>1991.2</ele>
        <time>2021-04-17T06:36:26Z</time>
      </trkpt>
      <trkpt lat="45.21349" lon="5.97447">
        <ele>1991.4</ele>
        <time>2021-04-17T06:36:27Z</time>
      </trkpt>
      <trkpt lat="45.2135" lon="5.97442">
        <ele>1992.6</ele>
        <time>2021-04-17T06:36:31Z</time>
      </trkpt>
      <trkpt lat="45.2135" lon="5.97437">
        <ele>1993.6</ele>
        <time>2021-04-17T06:36:35Z</time>
      </trkpt>
      <trkpt lat="45.21348" lon="5.97429">
        <ele>1994.8</ele>
        <time>2021-04-17T06:36:41Z</time>
      </trkpt>
      <trkpt lat="45.21347" lon="5.97425">
        <ele>1995.8</ele>
        <time>2021-04-17T06:36:45Z</time>
      </trkpt>
      <trkpt lat="45.21346" lon="5.97421">
        <ele>1996.4</ele>
        <time>2021-04-17T06:36:48Z</time>
      </trkpt>
      <trkpt lat="45.21345" lon="5.97419">
        <ele>1996.8</ele>
        <time>2021-04-17T06:36:50Z</time>
      </trkpt>
      <trkpt lat="45.21342" lon="5.97413">
        <ele>1997.8</ele>
        <time>2021-04-17T06:36:55Z</time>
      </trkpt>
      <trkpt lat="45.21339" lon="5.97407">
        <ele>1998.6</ele>
        <time>2021-04-17T06:37:00Z</time>
      </trkpt>
      <trkpt lat="45.21338" lon="5.97404">
        <ele>1999</ele>
        <time>2021-04-17T06:37:02Z</time>
      </trkpt>
      <trkpt lat="45.21335" lon="5.97397">
        <ele>2000</ele>
        <time>2021-04-17T06:37:08Z</time>
      </trkpt>
      <trkpt lat="45.21335" lon="5.97396">
        <ele>2000</ele>
        <time>2021-04-17T06:37:09Z</time>
      </trkpt>
      <trkpt lat="45.21332" lon="5.97391">
        <ele>2000.8</ele>
        <time>2021-04-17T06:37:13Z</time>
      </trkpt>
      <trkpt lat="45.21332" lon="5.9739">
        <ele>2001</ele>
        <time>2021-04-17T06:37:14Z</time>
      </trkpt>
      <trkpt lat="45.21327" lon="5.97382">
        <ele>2002.2</ele>
        <time>2021-04-17T06:37:20Z</time>
      </trkpt>
      <trkpt lat="45.21325" lon="5.97379">
        <ele>2002.6</ele>
        <time>2021-04-17T06:37:23Z</time>
      </trkpt>
      <trkpt lat="45.21323" lon="5.97377">
        <ele>2003.2</ele>
        <time>2021-04-17T06:37:27Z</time>
      </trkpt>
      <trkpt lat="45.2132" lon="5.97372">
        <ele>2004</ele>
        <time>2021-04-17T06:37:31Z</time>
      </trkpt>
      <trkpt lat="45.2132" lon="5.97371">
        <ele>2004.2</ele>
        <time>2021-04-17T06:37:32Z</time>
      </trkpt>
      <trkpt lat="45.21318" lon="5.97369">
        <ele>2004.6</ele>
        <time>2021-04-17T06:37:34Z</time>
      </trkpt>
      <trkpt lat="45.21317" lon="5.97367">
        <ele>2005</ele>
        <time>2021-04-17T06:37:36Z</time>
      </trkpt>
      <trkpt lat="45.21317" lon="5.97366">
        <ele>2005.2</ele>
        <time>2021-04-17T06:37:37Z</time>
      </trkpt>
      <trkpt lat="45.21315" lon="5.97363">
        <ele>2005.8</ele>
        <time>2021-04-17T06:37:40Z</time>
      </trkpt>
      <trkpt lat="45.21312" lon="5.97359">
        <ele>2006.4</ele>
        <time>2021-04-17T06:37:44Z</time>
      </trkpt>
      <trkpt lat="45.21309" lon="5.97355">
        <ele>2007.6</ele>
        <time>2021-04-17T06:37:49Z</time>
      </trkpt>
      <trkpt lat="45.21308" lon="5.97354">
        <ele>2007.8</ele>
        <time>2021-04-17T06:37:50Z</time>
      </trkpt>
      <trkpt lat="45.21306" lon="5.9735">
        <ele>2008.6</ele>
        <time>2021-04-17T06:37:54Z</time>
      </trkpt>
      <trkpt lat="45.21305" lon="5.97347">
        <ele>2009</ele>
        <time>2021-04-17T06:37:56Z</time>
      </trkpt>
      <trkpt lat="45.21304" lon="5.97345">
        <ele>2009.8</ele>
        <time>2021-04-17T06:37:57Z</time>
      </trkpt>
      <trkpt lat="45.21301" lon="5.9734">
        <ele>2010.4</ele>
        <time>2021-04-17T06:38:03Z</time>
      </trkpt>
      <trkpt lat="45.213" lon="5.97339">
        <ele>2010.8</ele>
        <time>2021-04-17T06:38:05Z</time>
      </trkpt>
      <trkpt lat="45.21299" lon="5.97338">
        <ele>2010.8</ele>
        <time>2021-04-17T06:38:06Z</time>
      </trkpt>
      <trkpt lat="45.21298" lon="5.97336">
        <ele>2011.2</ele>
        <time>2021-04-17T06:38:08Z</time>
      </trkpt>
      <trkpt lat="45.21296" lon="5.97333">
        <ele>2012</ele>
        <time>2021-04-17T06:38:11Z</time>
      </trkpt>
      <trkpt lat="45.21293" lon="5.97327">
        <ele>2013.2</ele>
        <time>2021-04-17T06:38:17Z</time>
      </trkpt>
      <trkpt lat="45.2129" lon="5.97322">
        <ele>2014.2</ele>
        <time>2021-04-17T06:38:22Z</time>
      </trkpt>
      <trkpt lat="45.21287" lon="5.97318">
        <ele>2015</ele>
        <time>2021-04-17T06:38:27Z</time>
      </trkpt>
      <trkpt lat="45.21286" lon="5.97317">
        <ele>2015.2</ele>
        <time>2021-04-17T06:38:28Z</time>
      </trkpt>
      <trkpt lat="45.21284" lon="5.97314">
        <ele>2016.4</ele>
        <time>2021-04-17T06:38:32Z</time>
      </trkpt>
      <trkpt lat="45.2128" lon="5.97308">
        <ele>2017.4</ele>
        <time>2021-04-17T06:38:38Z</time>
      </trkpt>
      <trkpt lat="45.21277" lon="5.97303">
        <ele>2018.6</ele>
        <time>2021-04-17T06:38:43Z</time>
      </trkpt>
      <trkpt lat="45.21273" lon="5.97298">
        <ele>2019.4</ele>
        <time>2021-04-17T06:38:49Z</time>
      </trkpt>
      <trkpt lat="45.21272" lon="5.97298">
        <ele>2019.6</ele>
        <time>2021-04-17T06:38:50Z</time>
      </trkpt>
      <trkpt lat="45.2127" lon="5.97295">
        <ele>2020</ele>
        <time>2021-04-17T06:38:53Z</time>
      </trkpt>
      <trkpt lat="45.21268" lon="5.97293">
        <ele>2020.4</ele>
        <time>2021-04-17T06:38:56Z</time>
      </trkpt>
      <trkpt lat="45.21267" lon="5.97292">
        <ele>2020.6</ele>
        <time>2021-04-17T06:38:57Z</time>
      </trkpt>
      <trkpt lat="45.21262" lon="5.97287">
        <ele>2022.8</ele>
        <time>2021-04-17T06:39:03Z</time>
      </trkpt>
      <trkpt lat="45.21262" lon="5.97287">
        <ele>2022.8</ele>
        <time>2021-04-17T06:39:05Z</time>
      </trkpt>
      <trkpt lat="45.2126" lon="5.97285">
        <ele>2023.8</ele>
        <time>2021-04-17T06:39:08Z</time>
      </trkpt>
      <trkpt lat="45.21257" lon="5.9728">
        <ele>2025</ele>
        <time>2021-04-17T06:39:14Z</time>
      </trkpt>
      <trkpt lat="45.21254" lon="5.97276">
        <ele>2025.6</ele>
        <time>2021-04-17T06:39:18Z</time>
      </trkpt>
      <trkpt lat="45.21252" lon="5.97275">
        <ele>2026.2</ele>
        <time>2021-04-17T06:39:21Z</time>
      </trkpt>
      <trkpt lat="45.21249" lon="5.9727">
        <ele>2027.4</ele>
        <time>2021-04-17T06:39:26Z</time>
      </trkpt>
      <trkpt lat="45.21247" lon="5.97268">
        <ele>2027.8</ele>
        <time>2021-04-17T06:39:29Z</time>
      </trkpt>
      <trkpt lat="45.21244" lon="5.97266">
        <ele>2028.6</ele>
        <time>2021-04-17T06:39:32Z</time>
      </trkpt>
      <trkpt lat="45.2124" lon="5.97262">
        <ele>2029.6</ele>
        <time>2021-04-17T06:39:37Z</time>
      </trkpt>
      <trkpt lat="45.21239" lon="5.97261">
        <ele>2030</ele>
        <time>2021-04-17T06:39:39Z</time>
      </trkpt>
      <trkpt lat="45.21237" lon="5.97259">
        <ele>2030.8</ele>
        <time>2021-04-17T06:39:42Z</time>
      </trkpt>
      <trkpt lat="45.21234" lon="5.97257">
        <ele>2031.8</ele>
        <time>2021-04-17T06:39:46Z</time>
      </trkpt>
      <trkpt lat="45.21233" lon="5.97256">
        <ele>2032</ele>
        <time>2021-04-17T06:39:47Z</time>
      </trkpt>
      <trkpt lat="45.2123" lon="5.97254">
        <ele>2033</ele>
        <time>2021-04-17T06:39:51Z</time>
      </trkpt>
      <trkpt lat="45.21226" lon="5.97251">
        <ele>2034</ele>
        <time>2021-04-17T06:39:56Z</time>
      </trkpt>
      <trkpt lat="45.21224" lon="5.9725">
        <ele>2034.6</ele>
        <time>2021-04-17T06:39:58Z</time>
      </trkpt>
      <trkpt lat="45.21223" lon="5.97249">
        <ele>2035.4</ele>
        <time>2021-04-17T06:40:00Z</time>
      </trkpt>
      <trkpt lat="45.21221" lon="5.97248">
        <ele>2036.4</ele>
        <time>2021-04-17T06:40:03Z</time>
      </trkpt>
      <trkpt lat="45.21218" lon="5.97247">
        <ele>2037</ele>
        <time>2021-04-17T06:40:06Z</time>
      </trkpt>
      <trkpt lat="45.21217" lon="5.97246">
        <ele>2037.6</ele>
        <time>2021-04-17T06:40:08Z</time>
      </trkpt>
      <trkpt lat="45.21214" lon="5.97245">
        <ele>2038.8</ele>
        <time>2021-04-17T06:40:13Z</time>
      </trkpt>
      <trkpt lat="45.21212" lon="5.97245">
        <ele>2039.2</ele>
        <time>2021-04-17T06:40:15Z</time>
      </trkpt>
      <trkpt lat="45.21208" lon="5.97245">
        <ele>2040</ele>
        <time>2021-04-17T06:40:20Z</time>
      </trkpt>
      <trkpt lat="45.21206" lon="5.97244">
        <ele>2040.4</ele>
        <time>2021-04-17T06:40:22Z</time>
      </trkpt>
      <trkpt lat="45.21203" lon="5.97244">
        <ele>2041</ele>
        <time>2021-04-17T06:40:26Z</time>
      </trkpt>
      <trkpt lat="45.21201" lon="5.97244">
        <ele>2041.6</ele>
        <time>2021-04-17T06:40:28Z</time>
      </trkpt>
      <trkpt lat="45.212" lon="5.97244">
        <ele>2042.2</ele>
        <time>2021-04-17T06:40:30Z</time>
      </trkpt>
      <trkpt lat="45.21199" lon="5.97244">
        <ele>2042.6</ele>
        <time>2021-04-17T06:40:31Z</time>
      </trkpt>
      <trkpt lat="45.21196" lon="5.97243">
        <ele>2043.4</ele>
        <time>2021-04-17T06:40:34Z</time>
      </trkpt>
      <trkpt lat="45.21194" lon="5.97243">
        <ele>2044.2</ele>
        <time>2021-04-17T06:40:37Z</time>
      </trkpt>
      <trkpt lat="45.21192" lon="5.97243">
        <ele>2044.6</ele>
        <time>2021-04-17T06:40:39Z</time>
      </trkpt>
      <trkpt lat="45.21188" lon="5.97242">
        <ele>2045.6</ele>
        <time>2021-04-17T06:40:45Z</time>
      </trkpt>
      <trkpt lat="45.21185" lon="5.97243">
        <ele>2046.6</ele>
        <time>2021-04-17T06:40:48Z</time>
      </trkpt>
      <trkpt lat="45.21184" lon="5.97243">
        <ele>2047</ele>
        <time>2021-04-17T06:40:49Z</time>
      </trkpt>
      <trkpt lat="45.21182" lon="5.97243">
        <ele>2047.8</ele>
        <time>2021-04-17T06:40:52Z</time>
      </trkpt>
      <trkpt lat="45.21177" lon="5.97245">
        <ele>2048.8</ele>
        <time>2021-04-17T06:40:58Z</time>
      </trkpt>
      <trkpt lat="45.21176" lon="5.97245">
        <ele>2049</ele>
        <time>2021-04-17T06:40:59Z</time>
      </trkpt>
      <trkpt lat="45.21176" lon="5.97245">
        <ele>2049.2</ele>
        <time>2021-04-17T06:41:00Z</time>
      </trkpt>
      <trkpt lat="45.21172" lon="5.97246">
        <ele>2050</ele>
        <time>2021-04-17T06:41:04Z</time>
      </trkpt>
      <trkpt lat="45.21169" lon="5.97245">
        <ele>2050.8</ele>
        <time>2021-04-17T06:41:08Z</time>
      </trkpt>
      <trkpt lat="45.21168" lon="5.97246">
        <ele>2051.2</ele>
        <time>2021-04-17T06:41:09Z</time>
      </trkpt>
      <trkpt lat="45.21164" lon="5.97246">
        <ele>2052</ele>
        <time>2021-04-17T06:41:15Z</time>
      </trkpt>
      <trkpt lat="45.21163" lon="5.97247">
        <ele>2052.2</ele>
        <time>2021-04-17T06:41:16Z</time>
      </trkpt>
      <trkpt lat="45.21159" lon="5.97249">
        <ele>2053.4</ele>
        <time>2021-04-17T06:41:22Z</time>
      </trkpt>
      <trkpt lat="45.21156" lon="5.97252">
        <ele>2054.6</ele>
        <time>2021-04-17T06:41:27Z</time>
      </trkpt>
      <trkpt lat="45.21154" lon="5.97253">
        <ele>2055.4</ele>
        <time>2021-04-17T06:41:30Z</time>
      </trkpt>
      <trkpt lat="45.21152" lon="5.97254">
        <ele>2055.6</ele>
        <time>2021-04-17T06:41:32Z</time>
      </trkpt>
      <trkpt lat="45.21149" lon="5.97256">
        <ele>2057</ele>
        <time>2021-04-17T06:41:37Z</time>
      </trkpt>
      <trkpt lat="45.21149" lon="5.97256">
        <ele>2057.4</ele>
        <time>2021-04-17T06:41:38Z</time>
      </trkpt>
      <trkpt lat="45.21146" lon="5.97258">
        <ele>2058</ele>
        <time>2021-04-17T06:41:42Z</time>
      </trkpt>
      <trkpt lat="45.21143" lon="5.97259">
        <ele>2058.8</ele>
        <time>2021-04-17T06:41:47Z</time>
      </trkpt>
      <trkpt lat="45.21142" lon="5.9726">
        <ele>2059.2</ele>
        <time>2021-04-17T06:41:49Z</time>
      </trkpt>
      <trkpt lat="45.21141" lon="5.97261">
        <ele>2059.4</ele>
        <time>2021-04-17T06:41:50Z</time>
      </trkpt>
      <trkpt lat="45.21138" lon="5.97263">
        <ele>2060.4</ele>
        <time>2021-04-17T06:41:56Z</time>
      </trkpt>
      <trkpt lat="45.21135" lon="5.97265">
        <ele>2061.4</ele>
        <time>2021-04-17T06:42:01Z</time>
      </trkpt>
      <trkpt lat="45.21134" lon="5.97265">
        <ele>2062.6</ele>
        <time>2021-04-17T06:42:06Z</time>
      </trkpt>
      <trkpt lat="45.21136" lon="5.97267">
        <ele>2063.2</ele>
        <time>2021-04-17T06:42:12Z</time>
      </trkpt>
      <trkpt lat="45.21138" lon="5.97268">
        <ele>2063.2</ele>
        <time>2021-04-17T06:42:14Z</time>
      </trkpt>
      <trkpt lat="45.2114" lon="5.97269">
        <ele>2063.6</ele>
        <time>2021-04-17T06:42:17Z</time>
      </trkpt>
      <trkpt lat="45.21141" lon="5.97269">
        <ele>2063.8</ele>
        <time>2021-04-17T06:42:18Z</time>
      </trkpt>
      <trkpt lat="45.21143" lon="5.9727">
        <ele>2064.8</ele>
        <time>2021-04-17T06:42:21Z</time>
      </trkpt>
      <trkpt lat="45.21144" lon="5.97271">
        <ele>2065.6</ele>
        <time>2021-04-17T06:42:23Z</time>
      </trkpt>
      <trkpt lat="45.21145" lon="5.97272">
        <ele>2065.8</ele>
        <time>2021-04-17T06:42:24Z</time>
      </trkpt>
      <trkpt lat="45.21146" lon="5.97272">
        <ele>2066.2</ele>
        <time>2021-04-17T06:42:25Z</time>
      </trkpt>
      <trkpt lat="45.21149" lon="5.97275">
        <ele>2066.8</ele>
        <time>2021-04-17T06:42:28Z</time>
      </trkpt>
      <trkpt lat="45.21153" lon="5.97279">
        <ele>2067.6</ele>
        <time>2021-04-17T06:42:33Z</time>
      </trkpt>
      <trkpt lat="45.21154" lon="5.97281">
        <ele>2068</ele>
        <time>2021-04-17T06:42:35Z</time>
      </trkpt>
      <trkpt lat="45.21156" lon="5.97284">
        <ele>2069.2</ele>
        <time>2021-04-17T06:42:39Z</time>
      </trkpt>
      <trkpt lat="45.21157" lon="5.97286">
        <ele>2069.6</ele>
        <time>2021-04-17T06:42:41Z</time>
      </trkpt>
      <trkpt lat="45.21159" lon="5.97292">
        <ele>2070</ele>
        <time>2021-04-17T06:42:47Z</time>
      </trkpt>
      <trkpt lat="45.2116" lon="5.97293">
        <ele>2070.2</ele>
        <time>2021-04-17T06:42:49Z</time>
      </trkpt>
      <trkpt lat="45.21161" lon="5.97295">
        <ele>2070.2</ele>
        <time>2021-04-17T06:42:50Z</time>
      </trkpt>
      <trkpt lat="45.21163" lon="5.97298">
        <ele>2071.4</ele>
        <time>2021-04-17T06:42:54Z</time>
      </trkpt>
      <trkpt lat="45.21164" lon="5.97302">
        <ele>2072.2</ele>
        <time>2021-04-17T06:42:58Z</time>
      </trkpt>
      <trkpt lat="45.21165" lon="5.97304">
        <ele>2072.6</ele>
        <time>2021-04-17T06:43:01Z</time>
      </trkpt>
      <trkpt lat="45.21166" lon="5.97309">
        <ele>2073.8</ele>
        <time>2021-04-17T06:43:06Z</time>
      </trkpt>
      <trkpt lat="45.21167" lon="5.97313">
        <ele>2074.6</ele>
        <time>2021-04-17T06:43:09Z</time>
      </trkpt>
      <trkpt lat="45.21167" lon="5.97314">
        <ele>2075</ele>
        <time>2021-04-17T06:43:10Z</time>
      </trkpt>
      <trkpt lat="45.21167" lon="5.97317">
        <ele>2076</ele>
        <time>2021-04-17T06:43:13Z</time>
      </trkpt>
      <trkpt lat="45.21167" lon="5.9732">
        <ele>2077</ele>
        <time>2021-04-17T06:43:16Z</time>
      </trkpt>
      <trkpt lat="45.21167" lon="5.97321">
        <ele>2077</ele>
        <time>2021-04-17T06:43:17Z</time>
      </trkpt>
      <trkpt lat="45.21167" lon="5.97324">
        <ele>2078.2</ele>
        <time>2021-04-17T06:43:20Z</time>
      </trkpt>
      <trkpt lat="45.21168" lon="5.97327">
        <ele>2078.6</ele>
        <time>2021-04-17T06:43:23Z</time>
      </trkpt>
      <trkpt lat="45.21167" lon="5.97331">
        <ele>2079</ele>
        <time>2021-04-17T06:43:27Z</time>
      </trkpt>
      <trkpt lat="45.21167" lon="5.97332">
        <ele>2079.2</ele>
        <time>2021-04-17T06:43:28Z</time>
      </trkpt>
      <trkpt lat="45.21167" lon="5.97335">
        <ele>2080</ele>
        <time>2021-04-17T06:43:32Z</time>
      </trkpt>
      <trkpt lat="45.21167" lon="5.97336">
        <ele>2080.6</ele>
        <time>2021-04-17T06:43:33Z</time>
      </trkpt>
      <trkpt lat="45.21167" lon="5.97337">
        <ele>2080.8</ele>
        <time>2021-04-17T06:43:34Z</time>
      </trkpt>
      <trkpt lat="45.21166" lon="5.97339">
        <ele>2081.6</ele>
        <time>2021-04-17T06:43:36Z</time>
      </trkpt>
      <trkpt lat="45.21166" lon="5.97344">
        <ele>2082.6</ele>
        <time>2021-04-17T06:43:41Z</time>
      </trkpt>
      <trkpt lat="45.21165" lon="5.97346">
        <ele>2083.2</ele>
        <time>2021-04-17T06:43:43Z</time>
      </trkpt>
      <trkpt lat="45.21163" lon="5.97349">
        <ele>2083.8</ele>
        <time>2021-04-17T06:43:46Z</time>
      </trkpt>
      <trkpt lat="45.21162" lon="5.97351">
        <ele>2084</ele>
        <time>2021-04-17T06:43:48Z</time>
      </trkpt>
      <trkpt lat="45.2116" lon="5.97352">
        <ele>2084.8</ele>
        <time>2021-04-17T06:43:51Z</time>
      </trkpt>
      <trkpt lat="45.21159" lon="5.97352">
        <ele>2085</ele>
        <time>2021-04-17T06:43:52Z</time>
      </trkpt>
      <trkpt lat="45.21157" lon="5.97349">
        <ele>2085.6</ele>
        <time>2021-04-17T06:43:56Z</time>
      </trkpt>
      <trkpt lat="45.21156" lon="5.97348">
        <ele>2085.8</ele>
        <time>2021-04-17T06:43:58Z</time>
      </trkpt>
      <trkpt lat="45.21155" lon="5.97346">
        <ele>2086.6</ele>
        <time>2021-04-17T06:43:59Z</time>
      </trkpt>
      <trkpt lat="45.21155" lon="5.97343">
        <ele>2087.8</ele>
        <time>2021-04-17T06:44:03Z</time>
      </trkpt>
      <trkpt lat="45.21154" lon="5.9734">
        <ele>2087.6</ele>
        <time>2021-04-17T06:44:06Z</time>
      </trkpt>
      <trkpt lat="45.21152" lon="5.97339">
        <ele>2088.2</ele>
        <time>2021-04-17T06:44:10Z</time>
      </trkpt>
      <trkpt lat="45.21151" lon="5.97338">
        <ele>2089.2</ele>
        <time>2021-04-17T06:44:12Z</time>
      </trkpt>
      <trkpt lat="45.21148" lon="5.97338">
        <ele>2090.2</ele>
        <time>2021-04-17T06:44:17Z</time>
      </trkpt>
      <trkpt lat="45.21147" lon="5.97339">
        <ele>2090.2</ele>
        <time>2021-04-17T06:44:18Z</time>
      </trkpt>
      <trkpt lat="45.21145" lon="5.97339">
        <ele>2091.4</ele>
        <time>2021-04-17T06:44:21Z</time>
      </trkpt>
      <trkpt lat="45.21142" lon="5.97343">
        <ele>2092.4</ele>
        <time>2021-04-17T06:44:26Z</time>
      </trkpt>
      <trkpt lat="45.21142" lon="5.97344">
        <ele>2092.8</ele>
        <time>2021-04-17T06:44:27Z</time>
      </trkpt>
      <trkpt lat="45.21141" lon="5.97345">
        <ele>2093.8</ele>
        <time>2021-04-17T06:44:29Z</time>
      </trkpt>
      <trkpt lat="45.21139" lon="5.97348">
        <ele>2094.8</ele>
        <time>2021-04-17T06:44:33Z</time>
      </trkpt>
      <trkpt lat="45.21138" lon="5.97349">
        <ele>2095.8</ele>
        <time>2021-04-17T06:44:34Z</time>
      </trkpt>
      <trkpt lat="45.21136" lon="5.97351">
        <ele>2096.2</ele>
        <time>2021-04-17T06:44:37Z</time>
      </trkpt>
      <trkpt lat="45.21134" lon="5.97353">
        <ele>2097.2</ele>
        <time>2021-04-17T06:44:40Z</time>
      </trkpt>
      <trkpt lat="45.21133" lon="5.97354">
        <ele>2097.4</ele>
        <time>2021-04-17T06:44:42Z</time>
      </trkpt>
      <trkpt lat="45.21131" lon="5.97356">
        <ele>2098.2</ele>
        <time>2021-04-17T06:44:46Z</time>
      </trkpt>
      <trkpt lat="45.21128" lon="5.97359">
        <ele>2098.6</ele>
        <time>2021-04-17T06:44:50Z</time>
      </trkpt>
      <trkpt lat="45.21125" lon="5.97363">
        <ele>2099.4</ele>
        <time>2021-04-17T06:44:55Z</time>
      </trkpt>
      <trkpt lat="45.21123" lon="5.97365">
        <ele>2099.8</ele>
        <time>2021-04-17T06:44:57Z</time>
      </trkpt>
      <trkpt lat="45.21121" lon="5.97367">
        <ele>2099.8</ele>
        <time>2021-04-17T06:44:59Z</time>
      </trkpt>
      <trkpt lat="45.21116" lon="5.9737">
        <ele>2100</ele>
        <time>2021-04-17T06:45:04Z</time>
      </trkpt>
      <trkpt lat="45.21113" lon="5.97371">
        <ele>2100.4</ele>
        <time>2021-04-17T06:45:07Z</time>
      </trkpt>
      <trkpt lat="45.21109" lon="5.97374">
        <ele>2101.4</ele>
        <time>2021-04-17T06:45:13Z</time>
      </trkpt>
      <trkpt lat="45.21107" lon="5.97375">
        <ele>2101.6</ele>
        <time>2021-04-17T06:45:15Z</time>
      </trkpt>
      <trkpt lat="45.21105" lon="5.97375">
        <ele>2101.8</ele>
        <time>2021-04-17T06:45:16Z</time>
      </trkpt>
      <trkpt lat="45.21103" lon="5.97375">
        <ele>2102.6</ele>
        <time>2021-04-17T06:45:18Z</time>
      </trkpt>
      <trkpt lat="45.21098" lon="5.97376">
        <ele>2102.2</ele>
        <time>2021-04-17T06:45:24Z</time>
      </trkpt>
      <trkpt lat="45.21097" lon="5.97377">
        <ele>2102.2</ele>
        <time>2021-04-17T06:45:25Z</time>
      </trkpt>
      <trkpt lat="45.21096" lon="5.97378">
        <ele>2102.4</ele>
        <time>2021-04-17T06:45:26Z</time>
      </trkpt>
      <trkpt lat="45.21091" lon="5.9738">
        <ele>2103.8</ele>
        <time>2021-04-17T06:45:31Z</time>
      </trkpt>
      <trkpt lat="45.21088" lon="5.97381">
        <ele>2104.4</ele>
        <time>2021-04-17T06:45:35Z</time>
      </trkpt>
      <trkpt lat="45.21087" lon="5.97381">
        <ele>2104.2</ele>
        <time>2021-04-17T06:45:36Z</time>
      </trkpt>
      <trkpt lat="45.21082" lon="5.97384">
        <ele>2104.8</ele>
        <time>2021-04-17T06:45:42Z</time>
      </trkpt>
      <trkpt lat="45.21081" lon="5.97385">
        <ele>2105.2</ele>
        <time>2021-04-17T06:45:43Z</time>
      </trkpt>
      <trkpt lat="45.21077" lon="5.97387">
        <ele>2106.2</ele>
        <time>2021-04-17T06:45:46Z</time>
      </trkpt>
      <trkpt lat="45.2107" lon="5.9739">
        <ele>2106</ele>
        <time>2021-04-17T06:45:52Z</time>
      </trkpt>
      <trkpt lat="45.21069" lon="5.97392">
        <ele>2106</ele>
        <time>2021-04-17T06:45:54Z</time>
      </trkpt>
      <trkpt lat="45.21063" lon="5.97396">
        <ele>2106.4</ele>
        <time>2021-04-17T06:46:00Z</time>
      </trkpt>
      <trkpt lat="45.21059" lon="5.97399">
        <ele>2106.8</ele>
        <time>2021-04-17T06:46:04Z</time>
      </trkpt>
      <trkpt lat="45.21057" lon="5.974">
        <ele>2106.8</ele>
        <time>2021-04-17T06:46:08Z</time>
      </trkpt>
      <trkpt lat="45.21057" lon="5.974">
        <ele>2106.8</ele>
        <time>2021-04-17T06:46:09Z</time>
      </trkpt>
      <trkpt lat="45.21057" lon="5.974">
        <ele>2106.8</ele>
        <time>2021-04-17T06:46:11Z</time>
      </trkpt>
      <trkpt lat="45.21056" lon="5.974">
        <ele>2107.2</ele>
        <time>2021-04-17T06:46:16Z</time>
      </trkpt>
      <trkpt lat="45.21054" lon="5.97402">
        <ele>2108</ele>
        <time>2021-04-17T06:46:19Z</time>
      </trkpt>
      <trkpt lat="45.2105" lon="5.97403">
        <ele>2108.4</ele>
        <time>2021-04-17T06:46:22Z</time>
      </trkpt>
      <trkpt lat="45.21046" lon="5.97405">
        <ele>2108.6</ele>
        <time>2021-04-17T06:46:27Z</time>
      </trkpt>
      <trkpt lat="45.21041" lon="5.97407">
        <ele>2108.8</ele>
        <time>2021-04-17T06:46:33Z</time>
      </trkpt>
      <trkpt lat="45.21036" lon="5.97408">
        <ele>2108.8</ele>
        <time>2021-04-17T06:46:39Z</time>
      </trkpt>
      <trkpt lat="45.21035" lon="5.97408">
        <ele>2108.8</ele>
        <time>2021-04-17T06:46:40Z</time>
      </trkpt>
      <trkpt lat="45.21034" lon="5.97408">
        <ele>2109</ele>
        <time>2021-04-17T06:46:46Z</time>
      </trkpt>
      <trkpt lat="45.21034" lon="5.97408">
        <ele>2109</ele>
        <time>2021-04-17T06:46:47Z</time>
      </trkpt>
      <trkpt lat="45.21033" lon="5.97409">
        <ele>2108.8</ele>
        <time>2021-04-17T06:46:49Z</time>
      </trkpt>
      <trkpt lat="45.21033" lon="5.97408">
        <ele>2108.8</ele>
        <time>2021-04-17T06:46:52Z</time>
      </trkpt>
      <trkpt lat="45.21033" lon="5.97408">
        <ele>2108.6</ele>
        <time>2021-04-17T06:46:56Z</time>
      </trkpt>
      <trkpt lat="45.21033" lon="5.97408">
        <ele>2108.4</ele>
        <time>2021-04-17T06:46:58Z</time>
      </trkpt>
      <trkpt lat="45.21033" lon="5.97408">
        <ele>2108.4</ele>
        <time>2021-04-17T06:47:00Z</time>
      </trkpt>
      <trkpt lat="45.21033" lon="5.97408">
        <ele>2108.4</ele>
        <time>2021-04-17T06:47:03Z</time>
      </trkpt>
      <trkpt lat="45.21033" lon="5.97408">
        <ele>2108.4</ele>
        <time>2021-04-17T06:47:04Z</time>
      </trkpt>
      <trkpt lat="45.21033" lon="5.97408">
        <ele>2108.4</ele>
        <time>2021-04-17T06:47:06Z</time>
      </trkpt>
      <trkpt lat="45.21033" lon="5.97408">
        <ele>2108.2</ele>
        <time>2021-04-17T06:47:10Z</time>
      </trkpt>
      <trkpt lat="45.21033" lon="5.97408">
        <ele>2108.2</ele>
        <time>2021-04-17T06:47:11Z</time>
      </trkpt>
      <trkpt lat="45.21033" lon="5.97408">
        <ele>2108.2</ele>
        <time>2021-04-17T06:47:17Z</time>
      </trkpt>
      <trkpt lat="45.21033" lon="5.97408">
        <ele>2108.2</ele>
        <time>2021-04-17T06:47:19Z</time>
      </trkpt>
      <trkpt lat="45.21033" lon="5.97408">
        <ele>2108.2</ele>
        <time>2021-04-17T06:47:21Z</time>
      </trkpt>
      <trkpt lat="45.21033" lon="5.97408">
        <ele>2108.2</ele>
        <time>2021-04-17T06:47:22Z</time>
      </trkpt>
      <trkpt lat="45.21033" lon="5.97408">
        <ele>2108.2</ele>
        <time>2021-04-17T06:47:23Z</time>
      </trkpt>
      <trkpt lat="45.21033" lon="5.97408">
        <ele>2108.2</ele>
        <time>2021-04-17T06:47:24Z</time>
      </trkpt>
      <trkpt lat="45.21033" lon="5.97408">
        <ele>2108</ele>
        <time>2021-04-17T06:47:28Z</time>
      </trkpt>
      <trkpt lat="45.21033" lon="5.97408">
        <ele>2108</ele>
        <time>2021-04-17T06:47:29Z</time>
      </trkpt>
      <trkpt lat="45.21033" lon="5.97409">
        <ele>2108</ele>
        <time>2021-04-17T06:47:32Z</time>
      </trkpt>
      <trkpt lat="45.21033" lon="5.97409">
        <ele>2108</ele>
        <time>2021-04-17T06:47:34Z</time>
      </trkpt>
      <trkpt lat="45.21033" lon="5.97409">
        <ele>2108</ele>
        <time>2021-04-17T06:47:35Z</time>
      </trkpt>
      <trkpt lat="45.21033" lon="5.97409">
        <ele>2108</ele>
        <time>2021-04-17T06:47:36Z</time>
      </trkpt>
      <trkpt lat="45.21033" lon="5.97409">
        <ele>2108</ele>
        <time>2021-04-17T06:47:37Z</time>
      </trkpt>
      <trkpt lat="45.21033" lon="5.97409">
        <ele>2108</ele>
        <time>2021-04-17T06:47:39Z</time>
      </trkpt>
      <trkpt lat="45.21033" lon="5.97409">
        <ele>2107.8</ele>
        <time>2021-04-17T06:47:44Z</time>
      </trkpt>
      <trkpt lat="45.21033" lon="5.97409">
        <ele>2107.8</ele>
        <time>2021-04-17T06:47:45Z</time>
      </trkpt>
      <trkpt lat="45.21033" lon="5.97409">
        <ele>2107.8</ele>
        <time>2021-04-17T06:47:49Z</time>
      </trkpt>
      <trkpt lat="45.21033" lon="5.9741">
        <ele>2107.6</ele>
        <time>2021-04-17T06:47:51Z</time>
      </trkpt>
      <trkpt lat="45.21033" lon="5.9741">
        <ele>2107.6</ele>
        <time>2021-04-17T06:47:57Z</time>
      </trkpt>
      <trkpt lat="45.21033" lon="5.9741">
        <ele>2107.4</ele>
        <time>2021-04-17T06:47:59Z</time>
      </trkpt>
      <trkpt lat="45.21033" lon="5.9741">
        <ele>2107.2</ele>
        <time>2021-04-17T06:48:05Z</time>
      </trkpt>
      <trkpt lat="45.21034" lon="5.9741">
        <ele>2107.4</ele>
        <time>2021-04-17T06:48:11Z</time>
      </trkpt>
      <trkpt lat="45.21034" lon="5.9741">
        <ele>2107.4</ele>
        <time>2021-04-17T06:48:15Z</time>
      </trkpt>
      <trkpt lat="45.21034" lon="5.9741">
        <ele>2107.6</ele>
        <time>2021-04-17T06:48:17Z</time>
      </trkpt>
      <trkpt lat="45.21034" lon="5.9741">
        <ele>2107.6</ele>
        <time>2021-04-17T06:48:18Z</time>
      </trkpt>
      <trkpt lat="45.21034" lon="5.9741">
        <ele>2107.6</ele>
        <time>2021-04-17T06:48:20Z</time>
      </trkpt>
      <trkpt lat="45.21034" lon="5.97409">
        <ele>2107.8</ele>
        <time>2021-04-17T06:48:26Z</time>
      </trkpt>
      <trkpt lat="45.21034" lon="5.97409">
        <ele>2108</ele>
        <time>2021-04-17T06:48:29Z</time>
      </trkpt>
      <trkpt lat="45.21034" lon="5.97409">
        <ele>2108.4</ele>
        <time>2021-04-17T06:48:31Z</time>
      </trkpt>
      <trkpt lat="45.21034" lon="5.97409">
        <ele>2108.6</ele>
        <time>2021-04-17T06:48:33Z</time>
      </trkpt>
      <trkpt lat="45.21034" lon="5.97409">
        <ele>2108</ele>
        <time>2021-04-17T06:48:38Z</time>
      </trkpt>
      <trkpt lat="45.21034" lon="5.97409">
        <ele>2107.6</ele>
        <time>2021-04-17T06:48:42Z</time>
      </trkpt>
      <trkpt lat="45.21034" lon="5.97409">
        <ele>2107.8</ele>
        <time>2021-04-17T06:48:43Z</time>
      </trkpt>
      <trkpt lat="45.21034" lon="5.97409">
        <ele>2107.8</ele>
        <time>2021-04-17T06:48:44Z</time>
      </trkpt>
      <trkpt lat="45.21034" lon="5.97409">
        <ele>2108.4</ele>
        <time>2021-04-17T06:48:47Z</time>
      </trkpt>
      <trkpt lat="45.21034" lon="5.97409">
        <ele>2108.6</ele>
        <time>2021-04-17T06:48:49Z</time>
      </trkpt>
      <trkpt lat="45.21034" lon="5.97409">
        <ele>2109</ele>
        <time>2021-04-17T06:48:55Z</time>
      </trkpt>
      <trkpt lat="45.21034" lon="5.97409">
        <ele>2109.4</ele>
        <time>2021-04-17T06:48:59Z</time>
      </trkpt>
      <trkpt lat="45.21034" lon="5.97409">
        <ele>2109.6</ele>
        <time>2021-04-17T06:49:00Z</time>
      </trkpt>
      <trkpt lat="45.21034" lon="5.97409">
        <ele>2111.2</ele>
        <time>2021-04-17T06:49:04Z</time>
      </trkpt>
      <trkpt lat="45.21034" lon="5.97409">
        <ele>2111</ele>
        <time>2021-04-17T06:49:07Z</time>
      </trkpt>
      <trkpt lat="45.21034" lon="5.97409">
        <ele>2110.4</ele>
        <time>2021-04-17T06:49:08Z</time>
      </trkpt>
      <trkpt lat="45.21034" lon="5.97409">
        <ele>2109.6</ele>
        <time>2021-04-17T06:49:09Z</time>
      </trkpt>
      <trkpt lat="45.21034" lon="5.97409">
        <ele>2109</ele>
        <time>2021-04-17T06:49:10Z</time>
      </trkpt>
      <trkpt lat="45.21034" lon="5.97409">
        <ele>2108.4</ele>
        <time>2021-04-17T06:49:11Z</time>
      </trkpt>
      <trkpt lat="45.21034" lon="5.97409">
        <ele>2108.4</ele>
        <time>2021-04-17T06:49:12Z</time>
      </trkpt>
      <trkpt lat="45.21034" lon="5.97409">
        <ele>2108.6</ele>
        <time>2021-04-17T06:49:15Z</time>
      </trkpt>
      <trkpt lat="45.21034" lon="5.97409">
        <ele>2108.6</ele>
        <time>2021-04-17T06:49:17Z</time>
      </trkpt>
      <trkpt lat="45.21034" lon="5.97409">
        <ele>2108.6</ele>
        <time>2021-04-17T06:49:19Z</time>
      </trkpt>
      <trkpt lat="45.21034" lon="5.97409">
        <ele>2108.4</ele>
        <time>2021-04-17T06:49:20Z</time>
      </trkpt>
      <trkpt lat="45.21034" lon="5.97409">
        <ele>2108</ele>
        <time>2021-04-17T06:49:21Z</time>
      </trkpt>
      <trkpt lat="45.21034" lon="5.97409">
        <ele>2107.6</ele>
        <time>2021-04-17T06:49:27Z</time>
      </trkpt>
      <trkpt lat="45.21034" lon="5.97409">
        <ele>2107.6</ele>
        <time>2021-04-17T06:49:28Z</time>
      </trkpt>
      <trkpt lat="45.21034" lon="5.97409">
        <ele>2107.4</ele>
        <time>2021-04-17T06:49:30Z</time>
      </trkpt>
      <trkpt lat="45.21033" lon="5.97409">
        <ele>2107.4</ele>
        <time>2021-04-17T06:49:36Z</time>
      </trkpt>
      <trkpt lat="45.21033" lon="5.97409">
        <ele>2107.4</ele>
        <time>2021-04-17T06:49:38Z</time>
      </trkpt>
      <trkpt lat="45.21033" lon="5.97409">
        <ele>2107.4</ele>
        <time>2021-04-17T06:49:40Z</time>
      </trkpt>
      <trkpt lat="45.21033" lon="5.9741">
        <ele>2107</ele>
        <time>2021-04-17T06:49:44Z</time>
      </trkpt>
      <trkpt lat="45.21033" lon="5.9741">
        <ele>2107</ele>
        <time>2021-04-17T06:49:45Z</time>
      </trkpt>
      <trkpt lat="45.21033" lon="5.97409">
        <ele>2106.8</ele>
        <time>2021-04-17T06:49:47Z</time>
      </trkpt>
      <trkpt lat="45.21032" lon="5.97409">
        <ele>2106.2</ele>
        <time>2021-04-17T06:49:51Z</time>
      </trkpt>
      <trkpt lat="45.21032" lon="5.97409">
        <ele>2105.4</ele>
        <time>2021-04-17T06:49:54Z</time>
      </trkpt>
      <trkpt lat="45.21031" lon="5.9741">
        <ele>2105</ele>
        <time>2021-04-17T06:49:57Z</time>
      </trkpt>
      <trkpt lat="45.21027" lon="5.97418">
        <ele>2104</ele>
        <time>2021-04-17T06:50:00Z</time>
      </trkpt>
      <trkpt lat="45.21024" lon="5.97426">
        <ele>2103</ele>
        <time>2021-04-17T06:50:03Z</time>
      </trkpt>
      <trkpt lat="45.2102" lon="5.97432">
        <ele>2102</ele>
        <time>2021-04-17T06:50:06Z</time>
      </trkpt>
      <trkpt lat="45.21019" lon="5.97432">
        <ele>2101.6</ele>
        <time>2021-04-17T06:50:07Z</time>
      </trkpt>
      <trkpt lat="45.21019" lon="5.97433">
        <ele>2101.4</ele>
        <time>2021-04-17T06:50:08Z</time>
      </trkpt>
      <trkpt lat="45.21015" lon="5.97434">
        <ele>2100.8</ele>
        <time>2021-04-17T06:50:11Z</time>
      </trkpt>
      <trkpt lat="45.21009" lon="5.97435">
        <ele>2099.8</ele>
        <time>2021-04-17T06:50:15Z</time>
      </trkpt>
      <trkpt lat="45.21005" lon="5.97437">
        <ele>2098.8</ele>
        <time>2021-04-17T06:50:18Z</time>
      </trkpt>
      <trkpt lat="45.21004" lon="5.97437">
        <ele>2098.4</ele>
        <time>2021-04-17T06:50:19Z</time>
      </trkpt>
      <trkpt lat="45.20998" lon="5.9744">
        <ele>2097.2</ele>
        <time>2021-04-17T06:50:23Z</time>
      </trkpt>
      <trkpt lat="45.20991" lon="5.97444">
        <ele>2096.2</ele>
        <time>2021-04-17T06:50:29Z</time>
      </trkpt>
      <trkpt lat="45.20991" lon="5.97444">
        <ele>2096</ele>
        <time>2021-04-17T06:50:31Z</time>
      </trkpt>
      <trkpt lat="45.20991" lon="5.97444">
        <ele>2095.8</ele>
        <time>2021-04-17T06:50:34Z</time>
      </trkpt>
      <trkpt lat="45.20991" lon="5.97444">
        <ele>2095.8</ele>
        <time>2021-04-17T06:50:36Z</time>
      </trkpt>
      <trkpt lat="45.20991" lon="5.97444">
        <ele>2095.6</ele>
        <time>2021-04-17T06:50:37Z</time>
      </trkpt>
      <trkpt lat="45.2099" lon="5.97444">
        <ele>2095.6</ele>
        <time>2021-04-17T06:50:38Z</time>
      </trkpt>
      <trkpt lat="45.2099" lon="5.97444">
        <ele>2095.8</ele>
        <time>2021-04-17T06:50:41Z</time>
      </trkpt>
      <trkpt lat="45.2099" lon="5.97444">
        <ele>2095.6</ele>
        <time>2021-04-17T06:50:45Z</time>
      </trkpt>
      <trkpt lat="45.2099" lon="5.97444">
        <ele>2095.6</ele>
        <time>2021-04-17T06:50:46Z</time>
      </trkpt>
      <trkpt lat="45.2099" lon="5.97444">
        <ele>2095.6</ele>
        <time>2021-04-17T06:50:47Z</time>
      </trkpt>
      <trkpt lat="45.2099" lon="5.97444">
        <ele>2095.6</ele>
        <time>2021-04-17T06:50:49Z</time>
      </trkpt>
      <trkpt lat="45.2099" lon="5.97444">
        <ele>2095.6</ele>
        <time>2021-04-17T06:50:50Z</time>
      </trkpt>
      <trkpt lat="45.2099" lon="5.97444">
        <ele>2095.6</ele>
        <time>2021-04-17T06:50:52Z</time>
      </trkpt>
      <trkpt lat="45.2099" lon="5.97444">
        <ele>2095.6</ele>
        <time>2021-04-17T06:50:58Z</time>
      </trkpt>
      <trkpt lat="45.2099" lon="5.97444">
        <ele>2095.6</ele>
        <time>2021-04-17T06:50:59Z</time>
      </trkpt>
      <trkpt lat="45.2099" lon="5.97444">
        <ele>2095.6</ele>
        <time>2021-04-17T06:51:01Z</time>
      </trkpt>
      <trkpt lat="45.2099" lon="5.97444">
        <ele>2095.6</ele>
        <time>2021-04-17T06:51:03Z</time>
      </trkpt>
      <trkpt lat="45.2099" lon="5.97444">
        <ele>2095.6</ele>
        <time>2021-04-17T06:51:04Z</time>
      </trkpt>
      <trkpt lat="45.20987" lon="5.97446">
        <ele>2096</ele>
        <time>2021-04-17T06:51:08Z</time>
      </trkpt>
      <trkpt lat="45.20984" lon="5.97448">
        <ele>2096.4</ele>
        <time>2021-04-17T06:51:11Z</time>
      </trkpt>
      <trkpt lat="45.20982" lon="5.97451">
        <ele>2096.8</ele>
        <time>2021-04-17T06:51:13Z</time>
      </trkpt>
      <trkpt lat="45.20978" lon="5.97454">
        <ele>2097.2</ele>
        <time>2021-04-17T06:51:17Z</time>
      </trkpt>
      <trkpt lat="45.20978" lon="5.97454">
        <ele>2097.2</ele>
        <time>2021-04-17T06:51:18Z</time>
      </trkpt>
      <trkpt lat="45.20975" lon="5.97456">
        <ele>2097.6</ele>
        <time>2021-04-17T06:51:21Z</time>
      </trkpt>
      <trkpt lat="45.20973" lon="5.97458">
        <ele>2097.8</ele>
        <time>2021-04-17T06:51:24Z</time>
      </trkpt>
      <trkpt lat="45.20972" lon="5.97459">
        <ele>2098.4</ele>
        <time>2021-04-17T06:51:26Z</time>
      </trkpt>
      <trkpt lat="45.20971" lon="5.9746">
        <ele>2098.8</ele>
        <time>2021-04-17T06:51:28Z</time>
      </trkpt>
      <trkpt lat="45.20968" lon="5.97462">
        <ele>2099.2</ele>
        <time>2021-04-17T06:51:31Z</time>
      </trkpt>
      <trkpt lat="45.20967" lon="5.97462">
        <ele>2099.6</ele>
        <time>2021-04-17T06:51:32Z</time>
      </trkpt>
      <trkpt lat="45.20965" lon="5.97464">
        <ele>2100.4</ele>
        <time>2021-04-17T06:51:36Z</time>
      </trkpt>
      <trkpt lat="45.20964" lon="5.97465">
        <ele>2100.8</ele>
        <time>2021-04-17T06:51:39Z</time>
      </trkpt>
      <trkpt lat="45.20962" lon="5.97466">
        <ele>2101.8</ele>
        <time>2021-04-17T06:51:43Z</time>
      </trkpt>
      <trkpt lat="45.20962" lon="5.97466">
        <ele>2102.4</ele>
        <time>2021-04-17T06:51:46Z</time>
      </trkpt>
      <trkpt lat="45.20962" lon="5.97466">
        <ele>2102.2</ele>
        <time>2021-04-17T06:51:51Z</time>
      </trkpt>
      <trkpt lat="45.20962" lon="5.97466">
        <ele>2102</ele>
        <time>2021-04-17T06:51:52Z</time>
      </trkpt>
      <trkpt lat="45.20961" lon="5.97466">
        <ele>2101.6</ele>
        <time>2021-04-17T06:51:58Z</time>
      </trkpt>
      <trkpt lat="45.20961" lon="5.97466">
        <ele>2102</ele>
        <time>2021-04-17T06:52:01Z</time>
      </trkpt>
      <trkpt lat="45.20961" lon="5.97466">
        <ele>2102.2</ele>
        <time>2021-04-17T06:52:03Z</time>
      </trkpt>
      <trkpt lat="45.20961" lon="5.97466">
        <ele>2102.2</ele>
        <time>2021-04-17T06:52:04Z</time>
      </trkpt>
      <trkpt lat="45.20961" lon="5.97466">
        <ele>2102.2</ele>
        <time>2021-04-17T06:52:06Z</time>
      </trkpt>
      <trkpt lat="45.20961" lon="5.97467">
        <ele>2102.2</ele>
        <time>2021-04-17T06:52:10Z</time>
      </trkpt>
      <trkpt lat="45.2096" lon="5.97467">
        <ele>2102.2</ele>
        <time>2021-04-17T06:52:12Z</time>
      </trkpt>
      <trkpt lat="45.2096" lon="5.97467">
        <ele>2102.2</ele>
        <time>2021-04-17T06:52:15Z</time>
      </trkpt>
      <trkpt lat="45.2096" lon="5.97467">
        <ele>2102.2</ele>
        <time>2021-04-17T06:52:17Z</time>
      </trkpt>
      <trkpt lat="45.2096" lon="5.97467">
        <ele>2102.4</ele>
        <time>2021-04-17T06:52:18Z</time>
      </trkpt>
      <trkpt lat="45.2096" lon="5.97467">
        <ele>2102.8</ele>
        <time>2021-04-17T06:52:19Z</time>
      </trkpt>
      <trkpt lat="45.2096" lon="5.97467">
        <ele>2102.8</ele>
        <time>2021-04-17T06:52:20Z</time>
      </trkpt>
      <trkpt lat="45.20957" lon="5.97472">
        <ele>2103.8</ele>
        <time>2021-04-17T06:52:24Z</time>
      </trkpt>
      <trkpt lat="45.20956" lon="5.97472">
        <ele>2104</ele>
        <time>2021-04-17T06:52:25Z</time>
      </trkpt>
      <trkpt lat="45.20954" lon="5.97475">
        <ele>2105</ele>
        <time>2021-04-17T06:52:29Z</time>
      </trkpt>
      <trkpt lat="45.20954" lon="5.97475">
        <ele>2105.2</ele>
        <time>2021-04-17T06:52:30Z</time>
      </trkpt>
      <trkpt lat="45.20954" lon="5.97475">
        <ele>2105.6</ele>
        <time>2021-04-17T06:52:36Z</time>
      </trkpt>
      <trkpt lat="45.20954" lon="5.97475">
        <ele>2105.6</ele>
        <time>2021-04-17T06:52:37Z</time>
      </trkpt>
      <trkpt lat="45.20954" lon="5.97475">
        <ele>2105.6</ele>
        <time>2021-04-17T06:52:39Z</time>
      </trkpt>
      <trkpt lat="45.20954" lon="5.97475">
        <ele>2105.4</ele>
        <time>2021-04-17T06:52:45Z</time>
      </trkpt>
      <trkpt lat="45.20954" lon="5.97475">
        <ele>2105.4</ele>
        <time>2021-04-17T06:52:46Z</time>
      </trkpt>
      <trkpt lat="45.20954" lon="5.97475">
        <ele>2105.2</ele>
        <time>2021-04-17T06:52:47Z</time>
      </trkpt>
      <trkpt lat="45.20954" lon="5.97475">
        <ele>2105.4</ele>
        <time>2021-04-17T06:52:51Z</time>
      </trkpt>
      <trkpt lat="45.20954" lon="5.97475">
        <ele>2105.4</ele>
        <time>2021-04-17T06:52:52Z</time>
      </trkpt>
      <trkpt lat="45.20955" lon="5.97475">
        <ele>2105.2</ele>
        <time>2021-04-17T06:52:58Z</time>
      </trkpt>
      <trkpt lat="45.20955" lon="5.97475">
        <ele>2105</ele>
        <time>2021-04-17T06:53:03Z</time>
      </trkpt>
      <trkpt lat="45.20955" lon="5.97475">
        <ele>2105</ele>
        <time>2021-04-17T06:53:04Z</time>
      </trkpt>
      <trkpt lat="45.20955" lon="5.97475">
        <ele>2105</ele>
        <time>2021-04-17T06:53:07Z</time>
      </trkpt>
      <trkpt lat="45.20956" lon="5.97475">
        <ele>2105</ele>
        <time>2021-04-17T06:53:09Z</time>
      </trkpt>
      <trkpt lat="45.20956" lon="5.97475">
        <ele>2105</ele>
        <time>2021-04-17T06:53:10Z</time>
      </trkpt>
      <trkpt lat="45.20956" lon="5.97475">
        <ele>2105</ele>
        <time>2021-04-17T06:53:12Z</time>
      </trkpt>
      <trkpt lat="45.20956" lon="5.97474">
        <ele>2105.2</ele>
        <time>2021-04-17T06:53:14Z</time>
      </trkpt>
      <trkpt lat="45.20956" lon="5.97474">
        <ele>2105.4</ele>
        <time>2021-04-17T06:53:16Z</time>
      </trkpt>
      <trkpt lat="45.20956" lon="5.97474">
        <ele>2105.4</ele>
        <time>2021-04-17T06:53:18Z</time>
      </trkpt>
      <trkpt lat="45.20956" lon="5.97474">
        <ele>2105.4</ele>
        <time>2021-04-17T06:53:19Z</time>
      </trkpt>
      <trkpt lat="45.20956" lon="5.97474">
        <ele>2105.4</ele>
        <time>2021-04-17T06:53:21Z</time>
      </trkpt>
      <trkpt lat="45.20956" lon="5.97474">
        <ele>2106</ele>
        <time>2021-04-17T06:53:27Z</time>
      </trkpt>
      <trkpt lat="45.20956" lon="5.97474">
        <ele>2106</ele>
        <time>2021-04-17T06:53:32Z</time>
      </trkpt>
      <trkpt lat="45.20956" lon="5.97473">
        <ele>2106</ele>
        <time>2021-04-17T06:53:37Z</time>
      </trkpt>
      <trkpt lat="45.20956" lon="5.97473">
        <ele>2106</ele>
        <time>2021-04-17T06:53:41Z</time>
      </trkpt>
      <trkpt lat="45.20956" lon="5.97473">
        <ele>2106.2</ele>
        <time>2021-04-17T06:53:43Z</time>
      </trkpt>
      <trkpt lat="45.20956" lon="5.97473">
        <ele>2106.2</ele>
        <time>2021-04-17T06:53:44Z</time>
      </trkpt>
      <trkpt lat="45.20956" lon="5.97473">
        <ele>2106.2</ele>
        <time>2021-04-17T06:53:45Z</time>
      </trkpt>
      <trkpt lat="45.20956" lon="5.97473">
        <ele>2106.4</ele>
        <time>2021-04-17T06:53:46Z</time>
      </trkpt>
      <trkpt lat="45.20955" lon="5.97473">
        <ele>2106.4</ele>
        <time>2021-04-17T06:53:47Z</time>
      </trkpt>
      <trkpt lat="45.20955" lon="5.97473">
        <ele>2106.6</ele>
        <time>2021-04-17T06:53:51Z</time>
      </trkpt>
      <trkpt lat="45.20955" lon="5.97473">
        <ele>2106.6</ele>
        <time>2021-04-17T06:53:52Z</time>
      </trkpt>
      <trkpt lat="45.20955" lon="5.97473">
        <ele>2106.6</ele>
        <time>2021-04-17T06:53:53Z</time>
      </trkpt>
      <trkpt lat="45.20955" lon="5.97474">
        <ele>2106.6</ele>
        <time>2021-04-17T06:53:57Z</time>
      </trkpt>
      <trkpt lat="45.20955" lon="5.97474">
        <ele>2106.6</ele>
        <time>2021-04-17T06:54:00Z</time>
      </trkpt>
      <trkpt lat="45.20955" lon="5.97474">
        <ele>2106.6</ele>
        <time>2021-04-17T06:54:01Z</time>
      </trkpt>
      <trkpt lat="45.20954" lon="5.97475">
        <ele>2106.6</ele>
        <time>2021-04-17T06:54:07Z</time>
      </trkpt>
      <trkpt lat="45.20954" lon="5.97475">
        <ele>2106.6</ele>
        <time>2021-04-17T06:54:08Z</time>
      </trkpt>
      <trkpt lat="45.20954" lon="5.97475">
        <ele>2106.6</ele>
        <time>2021-04-17T06:54:09Z</time>
      </trkpt>
      <trkpt lat="45.20954" lon="5.97475">
        <ele>2106.4</ele>
        <time>2021-04-17T06:54:13Z</time>
      </trkpt>
      <trkpt lat="45.20954" lon="5.97475">
        <ele>2106.4</ele>
        <time>2021-04-17T06:54:14Z</time>
      </trkpt>
      <trkpt lat="45.20954" lon="5.97476">
        <ele>2106.4</ele>
        <time>2021-04-17T06:54:16Z</time>
      </trkpt>
      <trkpt lat="45.20954" lon="5.97476">
        <ele>2106.4</ele>
        <time>2021-04-17T06:54:17Z</time>
      </trkpt>
      <trkpt lat="45.20954" lon="5.97476">
        <ele>2106.4</ele>
        <time>2021-04-17T06:54:18Z</time>
      </trkpt>
      <trkpt lat="45.20954" lon="5.97477">
        <ele>2106.4</ele>
        <time>2021-04-17T06:54:20Z</time>
      </trkpt>
      <trkpt lat="45.20954" lon="5.97477">
        <ele>2106.4</ele>
        <time>2021-04-17T06:54:21Z</time>
      </trkpt>
      <trkpt lat="45.20954" lon="5.97478">
        <ele>2106.4</ele>
        <time>2021-04-17T06:54:22Z</time>
      </trkpt>
      <trkpt lat="45.20953" lon="5.97478">
        <ele>2106.4</ele>
        <time>2021-04-17T06:54:26Z</time>
      </trkpt>
      <trkpt lat="45.20953" lon="5.97478">
        <ele>2106.4</ele>
        <time>2021-04-17T06:54:28Z</time>
      </trkpt>
      <trkpt lat="45.20953" lon="5.97478">
        <ele>2106.4</ele>
        <time>2021-04-17T06:54:32Z</time>
      </trkpt>
      <trkpt lat="45.20953" lon="5.97478">
        <ele>2106.2</ele>
        <time>2021-04-17T06:54:33Z</time>
      </trkpt>
      <trkpt lat="45.20953" lon="5.97478">
        <ele>2105.6</ele>
        <time>2021-04-17T06:54:35Z</time>
      </trkpt>
      <trkpt lat="45.20953" lon="5.97478">
        <ele>2105.6</ele>
        <time>2021-04-17T06:54:40Z</time>
      </trkpt>
      <trkpt lat="45.20954" lon="5.97478">
        <ele>2106.2</ele>
        <time>2021-04-17T06:54:45Z</time>
      </trkpt>
      <trkpt lat="45.20954" lon="5.97478">
        <ele>2106.2</ele>
        <time>2021-04-17T06:54:46Z</time>
      </trkpt>
      <trkpt lat="45.20954" lon="5.97478">
        <ele>2106.4</ele>
        <time>2021-04-17T06:54:48Z</time>
      </trkpt>
      <trkpt lat="45.20954" lon="5.97478">
        <ele>2107</ele>
        <time>2021-04-17T06:54:52Z</time>
      </trkpt>
      <trkpt lat="45.20954" lon="5.97478">
        <ele>2106.8</ele>
        <time>2021-04-17T06:54:54Z</time>
      </trkpt>
      <trkpt lat="45.20954" lon="5.97478">
        <ele>2106.8</ele>
        <time>2021-04-17T06:54:57Z</time>
      </trkpt>
      <trkpt lat="45.20954" lon="5.97478">
        <ele>2106.8</ele>
        <time>2021-04-17T06:55:03Z</time>
      </trkpt>
      <trkpt lat="45.20954" lon="5.97478">
        <ele>2106.8</ele>
        <time>2021-04-17T06:55:08Z</time>
      </trkpt>
      <trkpt lat="45.20954" lon="5.97478">
        <ele>2106.8</ele>
        <time>2021-04-17T06:55:10Z</time>
      </trkpt>
      <trkpt lat="45.20954" lon="5.97478">
        <ele>2106.8</ele>
        <time>2021-04-17T06:55:15Z</time>
      </trkpt>
      <trkpt lat="45.20954" lon="5.97478">
        <ele>2106.8</ele>
        <time>2021-04-17T06:55:16Z</time>
      </trkpt>
      <trkpt lat="45.20954" lon="5.97478">
        <ele>2106.8</ele>
        <time>2021-04-17T06:55:17Z</time>
      </trkpt>
      <trkpt lat="45.20954" lon="5.97478">
        <ele>2106.8</ele>
        <time>2021-04-17T06:55:23Z</time>
      </trkpt>
      <trkpt lat="45.20954" lon="5.97478">
        <ele>2106.8</ele>
        <time>2021-04-17T06:55:29Z</time>
      </trkpt>
      <trkpt lat="45.20954" lon="5.97478">
        <ele>2106.8</ele>
        <time>2021-04-17T06:55:33Z</time>
      </trkpt>
      <trkpt lat="45.20954" lon="5.97478">
        <ele>2106.8</ele>
        <time>2021-04-17T06:55:34Z</time>
      </trkpt>
      <trkpt lat="45.20954" lon="5.97478">
        <ele>2106.8</ele>
        <time>2021-04-17T06:55:39Z</time>
      </trkpt>
      <trkpt lat="45.20955" lon="5.97478">
        <ele>2106.8</ele>
        <time>2021-04-17T06:55:45Z</time>
      </trkpt>
      <trkpt lat="45.20955" lon="5.97478">
        <ele>2106.8</ele>
        <time>2021-04-17T06:55:47Z</time>
      </trkpt>
      <trkpt lat="45.20955" lon="5.97478">
        <ele>2106.8</ele>
        <time>2021-04-17T06:55:53Z</time>
      </trkpt>
      <trkpt lat="45.20955" lon="5.97478">
        <ele>2106.8</ele>
        <time>2021-04-17T06:55:56Z</time>
      </trkpt>
      <trkpt lat="45.20955" lon="5.97478">
        <ele>2106.8</ele>
        <time>2021-04-17T06:56:02Z</time>
      </trkpt>
      <trkpt lat="45.20955" lon="5.97478">
        <ele>2106.8</ele>
        <time>2021-04-17T06:56:05Z</time>
      </trkpt>
      <trkpt lat="45.20955" lon="5.97478">
        <ele>2106.8</ele>
        <time>2021-04-17T06:56:06Z</time>
      </trkpt>
      <trkpt lat="45.20955" lon="5.97478">
        <ele>2106.8</ele>
        <time>2021-04-17T06:56:08Z</time>
      </trkpt>
      <trkpt lat="45.20955" lon="5.97478">
        <ele>2106.8</ele>
        <time>2021-04-17T06:56:11Z</time>
      </trkpt>
      <trkpt lat="45.20955" lon="5.97478">
        <ele>2106.8</ele>
        <time>2021-04-17T06:56:13Z</time>
      </trkpt>
      <trkpt lat="45.20955" lon="5.97478">
        <ele>2106.8</ele>
        <time>2021-04-17T06:56:16Z</time>
      </trkpt>
      <trkpt lat="45.20955" lon="5.97478">
        <ele>2106.8</ele>
        <time>2021-04-17T06:56:20Z</time>
      </trkpt>
      <trkpt lat="45.20955" lon="5.97478">
        <ele>2106.8</ele>
        <time>2021-04-17T06:56:24Z</time>
      </trkpt>
      <trkpt lat="45.20955" lon="5.97478">
        <ele>2106.8</ele>
        <time>2021-04-17T06:56:25Z</time>
      </trkpt>
      <trkpt lat="45.20955" lon="5.97478">
        <ele>2106.8</ele>
        <time>2021-04-17T06:56:30Z</time>
      </trkpt>
      <trkpt lat="45.20955" lon="5.97478">
        <ele>2106.8</ele>
        <time>2021-04-17T06:56:31Z</time>
      </trkpt>
      <trkpt lat="45.20955" lon="5.97478">
        <ele>2106.8</ele>
        <time>2021-04-17T06:56:32Z</time>
      </trkpt>
      <trkpt lat="45.20955" lon="5.97478">
        <ele>2106.8</ele>
        <time>2021-04-17T06:56:34Z</time>
      </trkpt>
      <trkpt lat="45.20955" lon="5.97478">
        <ele>2106.8</ele>
        <time>2021-04-17T06:56:36Z</time>
      </trkpt>
      <trkpt lat="45.20955" lon="5.97478">
        <ele>2106.8</ele>
        <time>2021-04-17T06:56:40Z</time>
      </trkpt>
      <trkpt lat="45.20955" lon="5.97478">
        <ele>2106.8</ele>
        <time>2021-04-17T06:56:41Z</time>
      </trkpt>
      <trkpt lat="45.20955" lon="5.97478">
        <ele>2106.8</ele>
        <time>2021-04-17T06:56:46Z</time>
      </trkpt>
      <trkpt lat="45.20955" lon="5.97478">
        <ele>2106.8</ele>
        <time>2021-04-17T06:56:47Z</time>
      </trkpt>
      <trkpt lat="45.20955" lon="5.97478">
        <ele>2106.8</ele>
        <time>2021-04-17T06:56:50Z</time>
      </trkpt>
      <trkpt lat="45.20955" lon="5.97478">
        <ele>2106.8</ele>
        <time>2021-04-17T06:56:51Z</time>
      </trkpt>
      <trkpt lat="45.20955" lon="5.97478">
        <ele>2106.8</ele>
        <time>2021-04-17T06:56:52Z</time>
      </trkpt>
      <trkpt lat="45.20955" lon="5.97478">
        <ele>2106.8</ele>
        <time>2021-04-17T06:56:53Z</time>
      </trkpt>
      <trkpt lat="45.20955" lon="5.97478">
        <ele>2110.4</ele>
        <time>2021-04-17T06:56:55Z</time>
      </trkpt>
      <trkpt lat="45.20955" lon="5.97478">
        <ele>2109.8</ele>
        <time>2021-04-17T06:56:56Z</time>
      </trkpt>
      <trkpt lat="45.20955" lon="5.97478">
        <ele>2106.8</ele>
        <time>2021-04-17T06:56:57Z</time>
      </trkpt>
      <trkpt lat="45.20955" lon="5.97478">
        <ele>2107.2</ele>
        <time>2021-04-17T06:56:59Z</time>
      </trkpt>
      <trkpt lat="45.20955" lon="5.97478">
        <ele>2104.8</ele>
        <time>2021-04-17T06:57:00Z</time>
      </trkpt>
      <trkpt lat="45.20955" lon="5.97478">
        <ele>2106.2</ele>
        <time>2021-04-17T06:57:01Z</time>
      </trkpt>
      <trkpt lat="45.20955" lon="5.97478">
        <ele>2106.4</ele>
        <time>2021-04-17T06:57:02Z</time>
      </trkpt>
      <trkpt lat="45.20955" lon="5.97478">
        <ele>2106</ele>
        <time>2021-04-17T06:57:03Z</time>
      </trkpt>
      <trkpt lat="45.20955" lon="5.97478">
        <ele>2106.2</ele>
        <time>2021-04-17T06:57:07Z</time>
      </trkpt>
      <trkpt lat="45.20955" lon="5.97478">
        <ele>2106.2</ele>
        <time>2021-04-17T06:57:09Z</time>
      </trkpt>
      <trkpt lat="45.20955" lon="5.97478">
        <ele>2106.4</ele>
        <time>2021-04-17T06:57:12Z</time>
      </trkpt>
      <trkpt lat="45.20955" lon="5.97478">
        <ele>2106.6</ele>
        <time>2021-04-17T06:57:14Z</time>
      </trkpt>
      <trkpt lat="45.20955" lon="5.97478">
        <ele>2106.6</ele>
        <time>2021-04-17T06:57:16Z</time>
      </trkpt>
      <trkpt lat="45.20955" lon="5.97478">
        <ele>2106.6</ele>
        <time>2021-04-17T06:57:18Z</time>
      </trkpt>
      <trkpt lat="45.20955" lon="5.97478">
        <ele>2106.6</ele>
        <time>2021-04-17T06:57:19Z</time>
      </trkpt>
      <trkpt lat="45.20955" lon="5.97478">
        <ele>2106.6</ele>
        <time>2021-04-17T06:57:21Z</time>
      </trkpt>
      <trkpt lat="45.20955" lon="5.97478">
        <ele>2106.2</ele>
        <time>2021-04-17T06:57:23Z</time>
      </trkpt>
      <trkpt lat="45.20955" lon="5.97478">
        <ele>2105.8</ele>
        <time>2021-04-17T06:57:24Z</time>
      </trkpt>
      <trkpt lat="45.20955" lon="5.97478">
        <ele>2106</ele>
        <time>2021-04-17T06:57:25Z</time>
      </trkpt>
      <trkpt lat="45.20955" lon="5.97478">
        <ele>2105.8</ele>
        <time>2021-04-17T06:57:28Z</time>
      </trkpt>
      <trkpt lat="45.20955" lon="5.97478">
        <ele>2105.4</ele>
        <time>2021-04-17T06:57:34Z</time>
      </trkpt>
      <trkpt lat="45.20955" lon="5.97478">
        <ele>2105.2</ele>
        <time>2021-04-17T06:57:36Z</time>
      </trkpt>
      <trkpt lat="45.20955" lon="5.97478">
        <ele>2105.2</ele>
        <time>2021-04-17T06:57:40Z</time>
      </trkpt>
      <trkpt lat="45.20955" lon="5.97478">
        <ele>2105.2</ele>
        <time>2021-04-17T06:57:43Z</time>
      </trkpt>
      <trkpt lat="45.20955" lon="5.97478">
        <ele>2105.4</ele>
        <time>2021-04-17T06:57:44Z</time>
      </trkpt>
      <trkpt lat="45.20955" lon="5.97478">
        <ele>2105.4</ele>
        <time>2021-04-17T06:57:46Z</time>
      </trkpt>
      <trkpt lat="45.20955" lon="5.97478">
        <ele>2105.6</ele>
        <time>2021-04-17T06:57:48Z</time>
      </trkpt>
      <trkpt lat="45.20955" lon="5.97478">
        <ele>2105.6</ele>
        <time>2021-04-17T06:57:51Z</time>
      </trkpt>
      <trkpt lat="45.20955" lon="5.97478">
        <ele>2105.8</ele>
        <time>2021-04-17T06:57:53Z</time>
      </trkpt>
      <trkpt lat="45.20955" lon="5.97478">
        <ele>2105.6</ele>
        <time>2021-04-17T06:57:59Z</time>
      </trkpt>
      <trkpt lat="45.20955" lon="5.97478">
        <ele>2106</ele>
        <time>2021-04-17T06:58:02Z</time>
      </trkpt>
      <trkpt lat="45.20955" lon="5.97478">
        <ele>2106</ele>
        <time>2021-04-17T06:58:05Z</time>
      </trkpt>
      <trkpt lat="45.20955" lon="5.97478">
        <ele>2106</ele>
        <time>2021-04-17T06:58:09Z</time>
      </trkpt>
      <trkpt lat="45.20955" lon="5.97478">
        <ele>2105.8</ele>
        <time>2021-04-17T06:58:12Z</time>
      </trkpt>
      <trkpt lat="45.20955" lon="5.97478">
        <ele>2105.8</ele>
        <time>2021-04-17T06:58:13Z</time>
      </trkpt>
      <trkpt lat="45.20955" lon="5.97478">
        <ele>2105.8</ele>
        <time>2021-04-17T06:58:14Z</time>
      </trkpt>
      <trkpt lat="45.20955" lon="5.97478">
        <ele>2105.8</ele>
        <time>2021-04-17T06:58:16Z</time>
      </trkpt>
      <trkpt lat="45.20955" lon="5.97478">
        <ele>2105.6</ele>
        <time>2021-04-17T06:58:18Z</time>
      </trkpt>
      <trkpt lat="45.20954" lon="5.97478">
        <ele>2105.4</ele>
        <time>2021-04-17T06:58:21Z</time>
      </trkpt>
      <trkpt lat="45.20954" lon="5.97478">
        <ele>2105.4</ele>
        <time>2021-04-17T06:58:27Z</time>
      </trkpt>
      <trkpt lat="45.20954" lon="5.97478">
        <ele>2105</ele>
        <time>2021-04-17T06:58:31Z</time>
      </trkpt>
      <trkpt lat="45.20954" lon="5.97478">
        <ele>2104.8</ele>
        <time>2021-04-17T06:58:33Z</time>
      </trkpt>
      <trkpt lat="45.20954" lon="5.97478">
        <ele>2105</ele>
        <time>2021-04-17T06:58:39Z</time>
      </trkpt>
      <trkpt lat="45.20954" lon="5.97478">
        <ele>2105.2</ele>
        <time>2021-04-17T06:58:42Z</time>
      </trkpt>
      <trkpt lat="45.20954" lon="5.97478">
        <ele>2105.2</ele>
        <time>2021-04-17T06:58:43Z</time>
      </trkpt>
      <trkpt lat="45.20954" lon="5.97478">
        <ele>2105.2</ele>
        <time>2021-04-17T06:58:45Z</time>
      </trkpt>
      <trkpt lat="45.20954" lon="5.97478">
        <ele>2105.2</ele>
        <time>2021-04-17T06:58:47Z</time>
      </trkpt>
      <trkpt lat="45.20954" lon="5.97478">
        <ele>2105.2</ele>
        <time>2021-04-17T06:58:49Z</time>
      </trkpt>
      <trkpt lat="45.20954" lon="5.97478">
        <ele>2105.4</ele>
        <time>2021-04-17T06:58:50Z</time>
      </trkpt>
      <trkpt lat="45.20954" lon="5.97478">
        <ele>2105.4</ele>
        <time>2021-04-17T06:58:51Z</time>
      </trkpt>
      <trkpt lat="45.20954" lon="5.97478">
        <ele>2105.4</ele>
        <time>2021-04-17T06:58:52Z</time>
      </trkpt>
      <trkpt lat="45.20954" lon="5.97478">
        <ele>2105.4</ele>
        <time>2021-04-17T06:58:53Z</time>
      </trkpt>
      <trkpt lat="45.20954" lon="5.97478">
        <ele>2105.2</ele>
        <time>2021-04-17T06:58:57Z</time>
      </trkpt>
      <trkpt lat="45.20954" lon="5.97478">
        <ele>2105.2</ele>
        <time>2021-04-17T06:59:01Z</time>
      </trkpt>
      <trkpt lat="45.20954" lon="5.97478">
        <ele>2105.2</ele>
        <time>2021-04-17T06:59:02Z</time>
      </trkpt>
      <trkpt lat="45.20954" lon="5.97478">
        <ele>2105.2</ele>
        <time>2021-04-17T06:59:03Z</time>
      </trkpt>
      <trkpt lat="45.20954" lon="5.97478">
        <ele>2105.2</ele>
        <time>2021-04-17T06:59:08Z</time>
      </trkpt>
      <trkpt lat="45.20954" lon="5.97478">
        <ele>2105.4</ele>
        <time>2021-04-17T06:59:14Z</time>
      </trkpt>
      <trkpt lat="45.20954" lon="5.97478">
        <ele>2105.4</ele>
        <time>2021-04-17T06:59:16Z</time>
      </trkpt>
      <trkpt lat="45.20954" lon="5.97477">
        <ele>2105.4</ele>
        <time>2021-04-17T06:59:21Z</time>
      </trkpt>
      <trkpt lat="45.20954" lon="5.97477">
        <ele>2105.6</ele>
        <time>2021-04-17T06:59:27Z</time>
      </trkpt>
      <trkpt lat="45.20953" lon="5.97477">
        <ele>2105.4</ele>
        <time>2021-04-17T06:59:31Z</time>
      </trkpt>
      <trkpt lat="45.20953" lon="5.97477">
        <ele>2105.2</ele>
        <time>2021-04-17T06:59:32Z</time>
      </trkpt>
      <trkpt lat="45.20953" lon="5.97477">
        <ele>2105.2</ele>
        <time>2021-04-17T06:59:33Z</time>
      </trkpt>
      <trkpt lat="45.20953" lon="5.97477">
        <ele>2105</ele>
        <time>2021-04-17T06:59:35Z</time>
      </trkpt>
      <trkpt lat="45.20952" lon="5.97477">
        <ele>2105</ele>
        <time>2021-04-17T06:59:40Z</time>
      </trkpt>
      <trkpt lat="45.20952" lon="5.97477">
        <ele>2105.2</ele>
        <time>2021-04-17T06:59:41Z</time>
      </trkpt>
      <trkpt lat="45.20952" lon="5.97477">
        <ele>2105.2</ele>
        <time>2021-04-17T06:59:42Z</time>
      </trkpt>
      <trkpt lat="45.20952" lon="5.97477">
        <ele>2105.2</ele>
        <time>2021-04-17T06:59:44Z</time>
      </trkpt>
      <trkpt lat="45.20953" lon="5.97477">
        <ele>2105.2</ele>
        <time>2021-04-17T06:59:50Z</time>
      </trkpt>
      <trkpt lat="45.20953" lon="5.97477">
        <ele>2105.2</ele>
        <time>2021-04-17T06:59:56Z</time>
      </trkpt>
      <trkpt lat="45.20953" lon="5.97476">
        <ele>2105.2</ele>
        <time>2021-04-17T07:00:02Z</time>
      </trkpt>
      <trkpt lat="45.20953" lon="5.97476">
        <ele>2105.8</ele>
        <time>2021-04-17T07:00:05Z</time>
      </trkpt>
      <trkpt lat="45.20953" lon="5.97476">
        <ele>2105.8</ele>
        <time>2021-04-17T07:00:07Z</time>
      </trkpt>
      <trkpt lat="45.20954" lon="5.97476">
        <ele>2105.6</ele>
        <time>2021-04-17T07:00:11Z</time>
      </trkpt>
      <trkpt lat="45.20954" lon="5.97476">
        <ele>2105.6</ele>
        <time>2021-04-17T07:00:13Z</time>
      </trkpt>
      <trkpt lat="45.20954" lon="5.97476">
        <ele>2105.4</ele>
        <time>2021-04-17T07:00:19Z</time>
      </trkpt>
      <trkpt lat="45.20954" lon="5.97477">
        <ele>2105.4</ele>
        <time>2021-04-17T07:00:25Z</time>
      </trkpt>
      <trkpt lat="45.20954" lon="5.97477">
        <ele>2105.4</ele>
        <time>2021-04-17T07:00:29Z</time>
      </trkpt>
      <trkpt lat="45.20954" lon="5.97477">
        <ele>2106.2</ele>
        <time>2021-04-17T07:00:30Z</time>
      </trkpt>
      <trkpt lat="45.20954" lon="5.97477">
        <ele>2106.2</ele>
        <time>2021-04-17T07:00:36Z</time>
      </trkpt>
      <trkpt lat="45.20954" lon="5.97477">
        <ele>2106.2</ele>
        <time>2021-04-17T07:00:41Z</time>
      </trkpt>
      <trkpt lat="45.20953" lon="5.97477">
        <ele>2106.2</ele>
        <time>2021-04-17T07:00:46Z</time>
      </trkpt>
      <trkpt lat="45.20953" lon="5.97477">
        <ele>2106.2</ele>
        <time>2021-04-17T07:00:48Z</time>
      </trkpt>
      <trkpt lat="45.20953" lon="5.97477">
        <ele>2106.2</ele>
        <time>2021-04-17T07:00:52Z</time>
      </trkpt>
      <trkpt lat="45.20953" lon="5.97477">
        <ele>2106.2</ele>
        <time>2021-04-17T07:00:53Z</time>
      </trkpt>
      <trkpt lat="45.20953" lon="5.97477">
        <ele>2106.2</ele>
        <time>2021-04-17T07:00:58Z</time>
      </trkpt>
      <trkpt lat="45.20953" lon="5.97477">
        <ele>2106.4</ele>
        <time>2021-04-17T07:00:59Z</time>
      </trkpt>
      <trkpt lat="45.20953" lon="5.97477">
        <ele>2106.6</ele>
        <time>2021-04-17T07:01:01Z</time>
      </trkpt>
      <trkpt lat="45.20953" lon="5.97477">
        <ele>2106.8</ele>
        <time>2021-04-17T07:01:02Z</time>
      </trkpt>
      <trkpt lat="45.20953" lon="5.97477">
        <ele>2106.8</ele>
        <time>2021-04-17T07:01:08Z</time>
      </trkpt>
      <trkpt lat="45.20953" lon="5.97477">
        <ele>2106.8</ele>
        <time>2021-04-17T07:01:11Z</time>
      </trkpt>
      <trkpt lat="45.20953" lon="5.97477">
        <ele>2106.6</ele>
        <time>2021-04-17T07:01:16Z</time>
      </trkpt>
      <trkpt lat="45.20953" lon="5.97477">
        <ele>2106.6</ele>
        <time>2021-04-17T07:01:17Z</time>
      </trkpt>
      <trkpt lat="45.20953" lon="5.97477">
        <ele>2106.6</ele>
        <time>2021-04-17T07:01:18Z</time>
      </trkpt>
      <trkpt lat="45.20953" lon="5.97477">
        <ele>2106.8</ele>
        <time>2021-04-17T07:01:23Z</time>
      </trkpt>
      <trkpt lat="45.20953" lon="5.97477">
        <ele>2106.8</ele>
        <time>2021-04-17T07:01:26Z</time>
      </trkpt>
      <trkpt lat="45.20953" lon="5.97477">
        <ele>2106.8</ele>
        <time>2021-04-17T07:01:32Z</time>
      </trkpt>
      <trkpt lat="45.20953" lon="5.97477">
        <ele>2106.8</ele>
        <time>2021-04-17T07:01:38Z</time>
      </trkpt>
      <trkpt lat="45.20953" lon="5.97477">
        <ele>2106.6</ele>
        <time>2021-04-17T07:01:44Z</time>
      </trkpt>
      <trkpt lat="45.20953" lon="5.97477">
        <ele>2106.6</ele>
        <time>2021-04-17T07:01:45Z</time>
      </trkpt>
      <trkpt lat="45.20953" lon="5.97477">
        <ele>2106.6</ele>
        <time>2021-04-17T07:01:46Z</time>
      </trkpt>
      <trkpt lat="45.20953" lon="5.97477">
        <ele>2106.6</ele>
        <time>2021-04-17T07:01:48Z</time>
      </trkpt>
      <trkpt lat="45.20953" lon="5.97477">
        <ele>2106.8</ele>
        <time>2021-04-17T07:01:50Z</time>
      </trkpt>
      <trkpt lat="45.20953" lon="5.97477">
        <ele>2106.8</ele>
        <time>2021-04-17T07:01:54Z</time>
      </trkpt>
      <trkpt lat="45.20953" lon="5.97477">
        <ele>2106.8</ele>
        <time>2021-04-17T07:01:56Z</time>
      </trkpt>
      <trkpt lat="45.20953" lon="5.97477">
        <ele>2107</ele>
        <time>2021-04-17T07:01:57Z</time>
      </trkpt>
      <trkpt lat="45.20953" lon="5.97477">
        <ele>2107.4</ele>
        <time>2021-04-17T07:01:59Z</time>
      </trkpt>
      <trkpt lat="45.20953" lon="5.97477">
        <ele>2107.6</ele>
        <time>2021-04-17T07:02:00Z</time>
      </trkpt>
      <trkpt lat="45.20953" lon="5.97477">
        <ele>2108.2</ele>
        <time>2021-04-17T07:02:03Z</time>
      </trkpt>
      <trkpt lat="45.20953" lon="5.97477">
        <ele>2108.4</ele>
        <time>2021-04-17T07:02:04Z</time>
      </trkpt>
      <trkpt lat="45.20953" lon="5.97477">
        <ele>2108.8</ele>
        <time>2021-04-17T07:02:06Z</time>
      </trkpt>
      <trkpt lat="45.20953" lon="5.97477">
        <ele>2109.6</ele>
        <time>2021-04-17T07:02:09Z</time>
      </trkpt>
      <trkpt lat="45.20953" lon="5.97478">
        <ele>2110.2</ele>
        <time>2021-04-17T07:02:13Z</time>
      </trkpt>
      <trkpt lat="45.20953" lon="5.97478">
        <ele>2110.6</ele>
        <time>2021-04-17T07:02:16Z</time>
      </trkpt>
      <trkpt lat="45.20953" lon="5.97479">
        <ele>2111</ele>
        <time>2021-04-17T07:02:18Z</time>
      </trkpt>
      <trkpt lat="45.20951" lon="5.97481">
        <ele>2111.6</ele>
        <time>2021-04-17T07:02:24Z</time>
      </trkpt>
      <trkpt lat="45.20951" lon="5.97481">
        <ele>2111.8</ele>
        <time>2021-04-17T07:02:26Z</time>
      </trkpt>
      <trkpt lat="45.2095" lon="5.97483">
        <ele>2112.8</ele>
        <time>2021-04-17T07:02:32Z</time>
      </trkpt>
      <trkpt lat="45.20949" lon="5.97484">
        <ele>2114</ele>
        <time>2021-04-17T07:02:37Z</time>
      </trkpt>
      <trkpt lat="45.20949" lon="5.97485">
        <ele>2115.2</ele>
        <time>2021-04-17T07:02:43Z</time>
      </trkpt>
      <trkpt lat="45.20949" lon="5.97485">
        <ele>2116.2</ele>
        <time>2021-04-17T07:02:47Z</time>
      </trkpt>
      <trkpt lat="45.20949" lon="5.97485">
        <ele>2117.4</ele>
        <time>2021-04-17T07:02:52Z</time>
      </trkpt>
      <trkpt lat="45.20949" lon="5.97485">
        <ele>2118</ele>
        <time>2021-04-17T07:02:56Z</time>
      </trkpt>
      <trkpt lat="45.20949" lon="5.97485">
        <ele>2118.4</ele>
        <time>2021-04-17T07:02:58Z</time>
      </trkpt>
      <trkpt lat="45.20949" lon="5.97485">
        <ele>2119.6</ele>
        <time>2021-04-17T07:03:03Z</time>
      </trkpt>
      <trkpt lat="45.20949" lon="5.97485">
        <ele>2120.8</ele>
        <time>2021-04-17T07:03:09Z</time>
      </trkpt>
      <trkpt lat="45.20948" lon="5.97486">
        <ele>2121.8</ele>
        <time>2021-04-17T07:03:13Z</time>
      </trkpt>
      <trkpt lat="45.20948" lon="5.97486">
        <ele>2123</ele>
        <time>2021-04-17T07:03:19Z</time>
      </trkpt>
      <trkpt lat="45.20948" lon="5.97486">
        <ele>2124</ele>
        <time>2021-04-17T07:03:24Z</time>
      </trkpt>
      <trkpt lat="45.20948" lon="5.97486">
        <ele>2125.2</ele>
        <time>2021-04-17T07:03:30Z</time>
      </trkpt>
      <trkpt lat="45.20948" lon="5.97486">
        <ele>2126.4</ele>
        <time>2021-04-17T07:03:35Z</time>
      </trkpt>
      <trkpt lat="45.20948" lon="5.97487">
        <ele>2127.8</ele>
        <time>2021-04-17T07:03:39Z</time>
      </trkpt>
      <trkpt lat="45.20948" lon="5.97487">
        <ele>2128.8</ele>
        <time>2021-04-17T07:03:43Z</time>
      </trkpt>
      <trkpt lat="45.20947" lon="5.97487">
        <ele>2130</ele>
        <time>2021-04-17T07:03:48Z</time>
      </trkpt>
      <trkpt lat="45.20947" lon="5.97487">
        <ele>2131.2</ele>
        <time>2021-04-17T07:03:52Z</time>
      </trkpt>
      <trkpt lat="45.20947" lon="5.97488">
        <ele>2132.2</ele>
        <time>2021-04-17T07:03:58Z</time>
      </trkpt>
      <trkpt lat="45.20947" lon="5.97488">
        <ele>2133.2</ele>
        <time>2021-04-17T07:04:04Z</time>
      </trkpt>
      <trkpt lat="45.20946" lon="5.97488">
        <ele>2133.6</ele>
        <time>2021-04-17T07:04:10Z</time>
      </trkpt>
      <trkpt lat="45.20946" lon="5.97488">
        <ele>2133.6</ele>
        <time>2021-04-17T07:04:13Z</time>
      </trkpt>
      <trkpt lat="45.20946" lon="5.97489">
        <ele>2133.4</ele>
        <time>2021-04-17T07:04:15Z</time>
      </trkpt>
      <trkpt lat="45.20946" lon="5.97489">
        <ele>2133.4</ele>
        <time>2021-04-17T07:04:16Z</time>
      </trkpt>
      <trkpt lat="45.20946" lon="5.97489">
        <ele>2133.4</ele>
        <time>2021-04-17T07:04:17Z</time>
      </trkpt>
      <trkpt lat="45.20946" lon="5.97489">
        <ele>2133.4</ele>
        <time>2021-04-17T07:04:19Z</time>
      </trkpt>
      <trkpt lat="45.20946" lon="5.97489">
        <ele>2133.6</ele>
        <time>2021-04-17T07:04:25Z</time>
      </trkpt>
      <trkpt lat="45.20945" lon="5.97489">
        <ele>2133.8</ele>
        <time>2021-04-17T07:04:29Z</time>
      </trkpt>
      <trkpt lat="45.20945" lon="5.9749">
        <ele>2133.8</ele>
        <time>2021-04-17T07:04:31Z</time>
      </trkpt>
      <trkpt lat="45.20945" lon="5.9749">
        <ele>2133.8</ele>
        <time>2021-04-17T07:04:33Z</time>
      </trkpt>
      <trkpt lat="45.20945" lon="5.9749">
        <ele>2133.4</ele>
        <time>2021-04-17T07:04:39Z</time>
      </trkpt>
      <trkpt lat="45.20945" lon="5.9749">
        <ele>2133.4</ele>
        <time>2021-04-17T07:04:41Z</time>
      </trkpt>
      <trkpt lat="45.20945" lon="5.9749">
        <ele>2133.4</ele>
        <time>2021-04-17T07:04:42Z</time>
      </trkpt>
      <trkpt lat="45.20945" lon="5.97491">
        <ele>2133.6</ele>
        <time>2021-04-17T07:04:47Z</time>
      </trkpt>
      <trkpt lat="45.20944" lon="5.97491">
        <ele>2133.8</ele>
        <time>2021-04-17T07:04:49Z</time>
      </trkpt>
      <trkpt lat="45.20944" lon="5.97491">
        <ele>2133.8</ele>
        <time>2021-04-17T07:04:52Z</time>
      </trkpt>
      <trkpt lat="45.20944" lon="5.97491">
        <ele>2133.6</ele>
        <time>2021-04-17T07:04:53Z</time>
      </trkpt>
      <trkpt lat="45.20944" lon="5.97491">
        <ele>2133.4</ele>
        <time>2021-04-17T07:04:59Z</time>
      </trkpt>
      <trkpt lat="45.20944" lon="5.97491">
        <ele>2133.4</ele>
        <time>2021-04-17T07:05:02Z</time>
      </trkpt>
      <trkpt lat="45.20944" lon="5.97492">
        <ele>2133.4</ele>
        <time>2021-04-17T07:05:03Z</time>
      </trkpt>
      <trkpt lat="45.20944" lon="5.97492">
        <ele>2133.4</ele>
        <time>2021-04-17T07:05:04Z</time>
      </trkpt>
      <trkpt lat="45.20943" lon="5.97492">
        <ele>2133.4</ele>
        <time>2021-04-17T07:05:10Z</time>
      </trkpt>
      <trkpt lat="45.20943" lon="5.97492">
        <ele>2133.4</ele>
        <time>2021-04-17T07:05:16Z</time>
      </trkpt>
      <trkpt lat="45.20943" lon="5.97493">
        <ele>2133.4</ele>
        <time>2021-04-17T07:05:22Z</time>
      </trkpt>
      <trkpt lat="45.20943" lon="5.97493">
        <ele>2133.4</ele>
        <time>2021-04-17T07:05:24Z</time>
      </trkpt>
      <trkpt lat="45.20943" lon="5.97493">
        <ele>2133.4</ele>
        <time>2021-04-17T07:05:25Z</time>
      </trkpt>
      <trkpt lat="45.20943" lon="5.97493">
        <ele>2133.4</ele>
        <time>2021-04-17T07:05:26Z</time>
      </trkpt>
      <trkpt lat="45.20943" lon="5.97493">
        <ele>2133.4</ele>
        <time>2021-04-17T07:05:27Z</time>
      </trkpt>
      <trkpt lat="45.20943" lon="5.97493">
        <ele>2133.4</ele>
        <time>2021-04-17T07:05:29Z</time>
      </trkpt>
      <trkpt lat="45.20942" lon="5.97494">
        <ele>2133.4</ele>
        <time>2021-04-17T07:05:35Z</time>
      </trkpt>
      <trkpt lat="45.20942" lon="5.97494">
        <ele>2133.4</ele>
        <time>2021-04-17T07:05:41Z</time>
      </trkpt>
      <trkpt lat="45.20942" lon="5.97494">
        <ele>2133.4</ele>
        <time>2021-04-17T07:05:42Z</time>
      </trkpt>
      <trkpt lat="45.20942" lon="5.97494">
        <ele>2133.4</ele>
        <time>2021-04-17T07:05:43Z</time>
      </trkpt>
      <trkpt lat="45.20942" lon="5.97494">
        <ele>2133.4</ele>
        <time>2021-04-17T07:05:44Z</time>
      </trkpt>
      <trkpt lat="45.20942" lon="5.97494">
        <ele>2133.4</ele>
        <time>2021-04-17T07:05:45Z</time>
      </trkpt>
      <trkpt lat="45.20942" lon="5.97494">
        <ele>2133.4</ele>
        <time>2021-04-17T07:05:47Z</time>
      </trkpt>
      <trkpt lat="45.20942" lon="5.97494">
        <ele>2133.4</ele>
        <time>2021-04-17T07:05:49Z</time>
      </trkpt>
      <trkpt lat="45.20942" lon="5.97494">
        <ele>2133.4</ele>
        <time>2021-04-17T07:05:50Z</time>
      </trkpt>
      <trkpt lat="45.20942" lon="5.97494">
        <ele>2133.4</ele>
        <time>2021-04-17T07:05:51Z</time>
      </trkpt>
      <trkpt lat="45.20941" lon="5.97495">
        <ele>2133.4</ele>
        <time>2021-04-17T07:05:54Z</time>
      </trkpt>
      <trkpt lat="45.20941" lon="5.97495">
        <ele>2133.4</ele>
        <time>2021-04-17T07:05:55Z</time>
      </trkpt>
      <trkpt lat="45.20941" lon="5.97495">
        <ele>2133.4</ele>
        <time>2021-04-17T07:05:56Z</time>
      </trkpt>
      <trkpt lat="45.20941" lon="5.97495">
        <ele>2133.4</ele>
        <time>2021-04-17T07:05:57Z</time>
      </trkpt>
      <trkpt lat="45.20941" lon="5.97495">
        <ele>2133.4</ele>
        <time>2021-04-17T07:05:59Z</time>
      </trkpt>
      <trkpt lat="45.20941" lon="5.97495">
        <ele>2133.4</ele>
        <time>2021-04-17T07:06:01Z</time>
      </trkpt>
      <trkpt lat="45.20941" lon="5.97495">
        <ele>2133.4</ele>
        <time>2021-04-17T07:06:02Z</time>
      </trkpt>
      <trkpt lat="45.20941" lon="5.97495">
        <ele>2133.4</ele>
        <time>2021-04-17T07:06:04Z</time>
      </trkpt>
      <trkpt lat="45.20933" lon="5.97507">
        <ele>2133.4</ele>
        <time>2021-04-17T07:06:10Z</time>
      </trkpt>
      <trkpt lat="45.20924" lon="5.9752">
        <ele>2133.4</ele>
        <time>2021-04-17T07:06:13Z</time>
      </trkpt>
      <trkpt lat="45.20916" lon="5.97532">
        <ele>2133.4</ele>
        <time>2021-04-17T07:06:16Z</time>
      </trkpt>
      <trkpt lat="45.20913" lon="5.97539">
        <ele>2133.4</ele>
        <time>2021-04-17T07:06:20Z</time>
      </trkpt>
      <trkpt lat="45.20913" lon="5.9754">
        <ele>2133.4</ele>
        <time>2021-04-17T07:06:23Z</time>
      </trkpt>
      <trkpt lat="45.20913" lon="5.97542">
        <ele>2133.4</ele>
        <time>2021-04-17T07:06:26Z</time>
      </trkpt>
      <trkpt lat="45.20913" lon="5.97543">
        <ele>2133.4</ele>
        <time>2021-04-17T07:06:29Z</time>
      </trkpt>
      <trkpt lat="45.20913" lon="5.97544">
        <ele>2133.4</ele>
        <time>2021-04-17T07:06:32Z</time>
      </trkpt>
      <trkpt lat="45.20913" lon="5.97545">
        <ele>2133.4</ele>
        <time>2021-04-17T07:06:33Z</time>
      </trkpt>
      <trkpt lat="45.20913" lon="5.97545">
        <ele>2133.4</ele>
        <time>2021-04-17T07:06:36Z</time>
      </trkpt>
      <trkpt lat="45.20914" lon="5.97545">
        <ele>2133.4</ele>
        <time>2021-04-17T07:06:42Z</time>
      </trkpt>
      <trkpt lat="45.20914" lon="5.97545">
        <ele>2133.4</ele>
        <time>2021-04-17T07:06:48Z</time>
      </trkpt>
      <trkpt lat="45.20914" lon="5.97545">
        <ele>2133.4</ele>
        <time>2021-04-17T07:06:52Z</time>
      </trkpt>
      <trkpt lat="45.20914" lon="5.97545">
        <ele>2133.4</ele>
        <time>2021-04-17T07:06:54Z</time>
      </trkpt>
      <trkpt lat="45.20914" lon="5.97545">
        <ele>2133.4</ele>
        <time>2021-04-17T07:06:56Z</time>
      </trkpt>
      <trkpt lat="45.20914" lon="5.97547">
        <ele>2133.4</ele>
        <time>2021-04-17T07:07:02Z</time>
      </trkpt>
      <trkpt lat="45.20914" lon="5.97547">
        <ele>2143.2</ele>
        <time>2021-04-17T07:07:05Z</time>
      </trkpt>
      <trkpt lat="45.20914" lon="5.97547">
        <ele>2144</ele>
        <time>2021-04-17T07:07:07Z</time>
      </trkpt>
      <trkpt lat="45.20914" lon="5.97547">
        <ele>2144.4</ele>
        <time>2021-04-17T07:07:10Z</time>
      </trkpt>
      <trkpt lat="45.20914" lon="5.97547">
        <ele>2144.4</ele>
        <time>2021-04-17T07:07:13Z</time>
      </trkpt>
      <trkpt lat="45.20914" lon="5.97548">
        <ele>2144.4</ele>
        <time>2021-04-17T07:07:17Z</time>
      </trkpt>
      <trkpt lat="45.20913" lon="5.9755">
        <ele>2144.6</ele>
        <time>2021-04-17T07:07:20Z</time>
      </trkpt>
      <trkpt lat="45.20913" lon="5.97551">
        <ele>2144.6</ele>
        <time>2021-04-17T07:07:22Z</time>
      </trkpt>
      <trkpt lat="45.20913" lon="5.97552">
        <ele>2145.2</ele>
        <time>2021-04-17T07:07:24Z</time>
      </trkpt>
      <trkpt lat="45.20912" lon="5.97553">
        <ele>2145.6</ele>
        <time>2021-04-17T07:07:26Z</time>
      </trkpt>
      <trkpt lat="45.20912" lon="5.97553">
        <ele>2146.2</ele>
        <time>2021-04-17T07:07:28Z</time>
      </trkpt>
      <trkpt lat="45.20912" lon="5.97553">
        <ele>2146.6</ele>
        <time>2021-04-17T07:07:31Z</time>
      </trkpt>
      <trkpt lat="45.20912" lon="5.97554">
        <ele>2147</ele>
        <time>2021-04-17T07:07:36Z</time>
      </trkpt>
      <trkpt lat="45.2091" lon="5.97555">
        <ele>2147.2</ele>
        <time>2021-04-17T07:07:41Z</time>
      </trkpt>
      <trkpt lat="45.20909" lon="5.97555">
        <ele>2147.4</ele>
        <time>2021-04-17T07:07:44Z</time>
      </trkpt>
      <trkpt lat="45.20908" lon="5.97555">
        <ele>2147.4</ele>
        <time>2021-04-17T07:07:46Z</time>
      </trkpt>
      <trkpt lat="45.20907" lon="5.97555">
        <ele>2147.4</ele>
        <time>2021-04-17T07:07:47Z</time>
      </trkpt>
      <trkpt lat="45.20907" lon="5.97555">
        <ele>2147.4</ele>
        <time>2021-04-17T07:07:48Z</time>
      </trkpt>
      <trkpt lat="45.20906" lon="5.97555">
        <ele>2147.6</ele>
        <time>2021-04-17T07:07:50Z</time>
      </trkpt>
      <trkpt lat="45.20906" lon="5.97555">
        <ele>2147.8</ele>
        <time>2021-04-17T07:07:51Z</time>
      </trkpt>
      <trkpt lat="45.20906" lon="5.97555">
        <ele>2148.4</ele>
        <time>2021-04-17T07:07:57Z</time>
      </trkpt>
      <trkpt lat="45.20906" lon="5.97555">
        <ele>2148.4</ele>
        <time>2021-04-17T07:07:59Z</time>
      </trkpt>
      <trkpt lat="45.20905" lon="5.97555">
        <ele>2148.8</ele>
        <time>2021-04-17T07:08:03Z</time>
      </trkpt>
      <trkpt lat="45.20904" lon="5.97555">
        <ele>2149</ele>
        <time>2021-04-17T07:08:09Z</time>
      </trkpt>
      <trkpt lat="45.20904" lon="5.97555">
        <ele>2149.2</ele>
        <time>2021-04-17T07:08:10Z</time>
      </trkpt>
      <trkpt lat="45.20904" lon="5.97555">
        <ele>2149.2</ele>
        <time>2021-04-17T07:08:11Z</time>
      </trkpt>
      <trkpt lat="45.20904" lon="5.97555">
        <ele>2149.2</ele>
        <time>2021-04-17T07:08:12Z</time>
      </trkpt>
      <trkpt lat="45.20904" lon="5.97555">
        <ele>2149.4</ele>
        <time>2021-04-17T07:08:13Z</time>
      </trkpt>
      <trkpt lat="45.20904" lon="5.97555">
        <ele>2149.6</ele>
        <time>2021-04-17T07:08:15Z</time>
      </trkpt>
      <trkpt lat="45.20904" lon="5.97555">
        <ele>2149.6</ele>
        <time>2021-04-17T07:08:16Z</time>
      </trkpt>
      <trkpt lat="45.20904" lon="5.97555">
        <ele>2149.8</ele>
        <time>2021-04-17T07:08:17Z</time>
      </trkpt>
      <trkpt lat="45.20904" lon="5.97555">
        <ele>2150</ele>
        <time>2021-04-17T07:08:19Z</time>
      </trkpt>
      <trkpt lat="45.20904" lon="5.97555">
        <ele>2151</ele>
        <time>2021-04-17T07:08:24Z</time>
      </trkpt>
      <trkpt lat="45.20905" lon="5.97556">
        <ele>2152</ele>
        <time>2021-04-17T07:08:29Z</time>
      </trkpt>
      <trkpt lat="45.20906" lon="5.97556">
        <ele>2152.6</ele>
        <time>2021-04-17T07:08:32Z</time>
      </trkpt>
      <trkpt lat="45.20907" lon="5.97558">
        <ele>2153.2</ele>
        <time>2021-04-17T07:08:37Z</time>
      </trkpt>
      <trkpt lat="45.20908" lon="5.97561">
        <ele>2153.8</ele>
        <time>2021-04-17T07:08:43Z</time>
      </trkpt>
      <trkpt lat="45.20908" lon="5.97562">
        <ele>2154</ele>
        <time>2021-04-17T07:08:46Z</time>
      </trkpt>
      <trkpt lat="45.20908" lon="5.97563">
        <ele>2154.2</ele>
        <time>2021-04-17T07:08:49Z</time>
      </trkpt>
      <trkpt lat="45.20907" lon="5.97564">
        <ele>2155</ele>
        <time>2021-04-17T07:08:55Z</time>
      </trkpt>
      <trkpt lat="45.20906" lon="5.97565">
        <ele>2155.2</ele>
        <time>2021-04-17T07:09:01Z</time>
      </trkpt>
      <trkpt lat="45.20905" lon="5.97566">
        <ele>2156</ele>
        <time>2021-04-17T07:09:07Z</time>
      </trkpt>
      <trkpt lat="45.20905" lon="5.97566">
        <ele>2156.4</ele>
        <time>2021-04-17T07:09:08Z</time>
      </trkpt>
      <trkpt lat="45.20905" lon="5.97566">
        <ele>2157</ele>
        <time>2021-04-17T07:09:14Z</time>
      </trkpt>
      <trkpt lat="45.20905" lon="5.97567">
        <ele>2157.2</ele>
        <time>2021-04-17T07:09:20Z</time>
      </trkpt>
      <trkpt lat="45.20905" lon="5.97568">
        <ele>2157.6</ele>
        <time>2021-04-17T07:09:23Z</time>
      </trkpt>
      <trkpt lat="45.20905" lon="5.97569">
        <ele>2158.6</ele>
        <time>2021-04-17T07:09:29Z</time>
      </trkpt>
      <trkpt lat="45.20905" lon="5.97569">
        <ele>2158.6</ele>
        <time>2021-04-17T07:09:31Z</time>
      </trkpt>
      <trkpt lat="45.20905" lon="5.97569">
        <ele>2158.6</ele>
        <time>2021-04-17T07:09:37Z</time>
      </trkpt>
      <trkpt lat="45.20905" lon="5.9757">
        <ele>2158.6</ele>
        <time>2021-04-17T07:09:39Z</time>
      </trkpt>
      <trkpt lat="45.20905" lon="5.9757">
        <ele>2158.6</ele>
        <time>2021-04-17T07:09:45Z</time>
      </trkpt>
      <trkpt lat="45.20905" lon="5.97571">
        <ele>2158.6</ele>
        <time>2021-04-17T07:09:51Z</time>
      </trkpt>
      <trkpt lat="45.20905" lon="5.97571">
        <ele>2158.6</ele>
        <time>2021-04-17T07:09:52Z</time>
      </trkpt>
      <trkpt lat="45.20905" lon="5.97571">
        <ele>2158.4</ele>
        <time>2021-04-17T07:09:58Z</time>
      </trkpt>
      <trkpt lat="45.20905" lon="5.97571">
        <ele>2159.2</ele>
        <time>2021-04-17T07:10:04Z</time>
      </trkpt>
      <trkpt lat="45.20905" lon="5.97571">
        <ele>2159.8</ele>
        <time>2021-04-17T07:10:09Z</time>
      </trkpt>
      <trkpt lat="45.20904" lon="5.97572">
        <ele>2160.6</ele>
        <time>2021-04-17T07:10:15Z</time>
      </trkpt>
      <trkpt lat="45.20904" lon="5.97572">
        <ele>2160.8</ele>
        <time>2021-04-17T07:10:17Z</time>
      </trkpt>
      <trkpt lat="45.20903" lon="5.97574">
        <ele>2161.4</ele>
        <time>2021-04-17T07:10:23Z</time>
      </trkpt>
      <trkpt lat="45.20903" lon="5.97574">
        <ele>2162</ele>
        <time>2021-04-17T07:10:27Z</time>
      </trkpt>
      <trkpt lat="45.20902" lon="5.97577">
        <ele>2163.2</ele>
        <time>2021-04-17T07:10:33Z</time>
      </trkpt>
      <trkpt lat="45.20902" lon="5.97579">
        <ele>2164.4</ele>
        <time>2021-04-17T07:10:38Z</time>
      </trkpt>
      <trkpt lat="45.20902" lon="5.9758">
        <ele>2165.4</ele>
        <time>2021-04-17T07:10:42Z</time>
      </trkpt>
      <trkpt lat="45.209" lon="5.97585">
        <ele>2166.4</ele>
        <time>2021-04-17T07:10:47Z</time>
      </trkpt>
      <trkpt lat="45.209" lon="5.97585">
        <ele>2166.6</ele>
        <time>2021-04-17T07:10:48Z</time>
      </trkpt>
      <trkpt lat="45.20899" lon="5.97589">
        <ele>2167.6</ele>
        <time>2021-04-17T07:10:53Z</time>
      </trkpt>
      <trkpt lat="45.20899" lon="5.9759">
        <ele>2168</ele>
        <time>2021-04-17T07:10:54Z</time>
      </trkpt>
      <trkpt lat="45.20899" lon="5.97591">
        <ele>2168.8</ele>
        <time>2021-04-17T07:10:57Z</time>
      </trkpt>
      <trkpt lat="45.20899" lon="5.97593">
        <ele>2169.8</ele>
        <time>2021-04-17T07:11:03Z</time>
      </trkpt>
      <trkpt lat="45.20899" lon="5.97594">
        <ele>2170</ele>
        <time>2021-04-17T07:11:05Z</time>
      </trkpt>
      <trkpt lat="45.20899" lon="5.97597">
        <ele>2170.8</ele>
        <time>2021-04-17T07:11:10Z</time>
      </trkpt>
      <trkpt lat="45.20899" lon="5.97598">
        <ele>2171.8</ele>
        <time>2021-04-17T07:11:14Z</time>
      </trkpt>
      <trkpt lat="45.20899" lon="5.97598">
        <ele>2172.2</ele>
        <time>2021-04-17T07:11:16Z</time>
      </trkpt>
      <trkpt lat="45.20899" lon="5.97598">
        <ele>2172.4</ele>
        <time>2021-04-17T07:11:20Z</time>
      </trkpt>
      <trkpt lat="45.20899" lon="5.97598">
        <ele>2172.2</ele>
        <time>2021-04-17T07:11:26Z</time>
      </trkpt>
      <trkpt lat="45.20899" lon="5.97598">
        <ele>2172</ele>
        <time>2021-04-17T07:11:30Z</time>
      </trkpt>
      <trkpt lat="45.20899" lon="5.97598">
        <ele>2172</ele>
        <time>2021-04-17T07:11:32Z</time>
      </trkpt>
      <trkpt lat="45.20899" lon="5.97598">
        <ele>2172</ele>
        <time>2021-04-17T07:11:33Z</time>
      </trkpt>
      <trkpt lat="45.20899" lon="5.97598">
        <ele>2172</ele>
        <time>2021-04-17T07:11:35Z</time>
      </trkpt>
      <trkpt lat="45.20899" lon="5.97598">
        <ele>2172</ele>
        <time>2021-04-17T07:11:36Z</time>
      </trkpt>
      <trkpt lat="45.20899" lon="5.97598">
        <ele>2172.2</ele>
        <time>2021-04-17T07:11:38Z</time>
      </trkpt>
      <trkpt lat="45.20899" lon="5.97598">
        <ele>2172</ele>
        <time>2021-04-17T07:11:42Z</time>
      </trkpt>
      <trkpt lat="45.20899" lon="5.97599">
        <ele>2172</ele>
        <time>2021-04-17T07:11:48Z</time>
      </trkpt>
      <trkpt lat="45.20899" lon="5.97599">
        <ele>2172.6</ele>
        <time>2021-04-17T07:11:51Z</time>
      </trkpt>
      <trkpt lat="45.20899" lon="5.97599">
        <ele>2173</ele>
        <time>2021-04-17T07:11:52Z</time>
      </trkpt>
      <trkpt lat="45.20899" lon="5.97599">
        <ele>2173.2</ele>
        <time>2021-04-17T07:11:53Z</time>
      </trkpt>
      <trkpt lat="45.20899" lon="5.97599">
        <ele>2174</ele>
        <time>2021-04-17T07:11:57Z</time>
      </trkpt>
      <trkpt lat="45.20899" lon="5.976">
        <ele>2175</ele>
        <time>2021-04-17T07:12:02Z</time>
      </trkpt>
      <trkpt lat="45.20899" lon="5.976">
        <ele>2175.2</ele>
        <time>2021-04-17T07:12:03Z</time>
      </trkpt>
      <trkpt lat="45.20899" lon="5.97603">
        <ele>2176</ele>
        <time>2021-04-17T07:12:08Z</time>
      </trkpt>
      <trkpt lat="45.20899" lon="5.97603">
        <ele>2176.2</ele>
        <time>2021-04-17T07:12:09Z</time>
      </trkpt>
      <trkpt lat="45.20899" lon="5.97605">
        <ele>2177.2</ele>
        <time>2021-04-17T07:12:14Z</time>
      </trkpt>
      <trkpt lat="45.20899" lon="5.97606">
        <ele>2177.6</ele>
        <time>2021-04-17T07:12:16Z</time>
      </trkpt>
      <trkpt lat="45.20899" lon="5.97609">
        <ele>2178</ele>
        <time>2021-04-17T07:12:20Z</time>
      </trkpt>
      <trkpt lat="45.20899" lon="5.97611">
        <ele>2178.2</ele>
        <time>2021-04-17T07:12:23Z</time>
      </trkpt>
      <trkpt lat="45.20899" lon="5.97611">
        <ele>2178.2</ele>
        <time>2021-04-17T07:12:24Z</time>
      </trkpt>
      <trkpt lat="45.20899" lon="5.97613">
        <ele>2178.8</ele>
        <time>2021-04-17T07:12:28Z</time>
      </trkpt>
      <trkpt lat="45.20899" lon="5.97614">
        <ele>2179.2</ele>
        <time>2021-04-17T07:12:32Z</time>
      </trkpt>
      <trkpt lat="45.20898" lon="5.97615">
        <ele>2180</ele>
        <time>2021-04-17T07:12:38Z</time>
      </trkpt>
      <trkpt lat="45.20897" lon="5.97616">
        <ele>2180.4</ele>
        <time>2021-04-17T07:12:41Z</time>
      </trkpt>
      <trkpt lat="45.20895" lon="5.97618">
        <ele>2181.2</ele>
        <time>2021-04-17T07:12:47Z</time>
      </trkpt>
      <trkpt lat="45.20895" lon="5.97619">
        <ele>2181.4</ele>
        <time>2021-04-17T07:12:49Z</time>
      </trkpt>
      <trkpt lat="45.20894" lon="5.97619">
        <ele>2182</ele>
        <time>2021-04-17T07:12:55Z</time>
      </trkpt>
      <trkpt lat="45.20894" lon="5.9762">
        <ele>2182.6</ele>
        <time>2021-04-17T07:12:58Z</time>
      </trkpt>
      <trkpt lat="45.20894" lon="5.97621">
        <ele>2183.6</ele>
        <time>2021-04-17T07:13:04Z</time>
      </trkpt>
      <trkpt lat="45.20894" lon="5.97621">
        <ele>2183.8</ele>
        <time>2021-04-17T07:13:05Z</time>
      </trkpt>
      <trkpt lat="45.20894" lon="5.97622">
        <ele>2184.8</ele>
        <time>2021-04-17T07:13:10Z</time>
      </trkpt>
      <trkpt lat="45.20894" lon="5.97624">
        <ele>2186.2</ele>
        <time>2021-04-17T07:13:14Z</time>
      </trkpt>
      <trkpt lat="45.20895" lon="5.9763">
        <ele>2187</ele>
        <time>2021-04-17T07:13:19Z</time>
      </trkpt>
      <trkpt lat="45.20896" lon="5.97631">
        <ele>2187.2</ele>
        <time>2021-04-17T07:13:20Z</time>
      </trkpt>
      <trkpt lat="45.20896" lon="5.97635">
        <ele>2188.2</ele>
        <time>2021-04-17T07:13:26Z</time>
      </trkpt>
      <trkpt lat="45.20896" lon="5.97635">
        <ele>2188.4</ele>
        <time>2021-04-17T07:13:27Z</time>
      </trkpt>
      <trkpt lat="45.20896" lon="5.97636">
        <ele>2188.8</ele>
        <time>2021-04-17T07:13:29Z</time>
      </trkpt>
      <trkpt lat="45.20896" lon="5.97639">
        <ele>2189.6</ele>
        <time>2021-04-17T07:13:33Z</time>
      </trkpt>
      <trkpt lat="45.20895" lon="5.97642">
        <ele>2190.4</ele>
        <time>2021-04-17T07:13:38Z</time>
      </trkpt>
      <trkpt lat="45.20895" lon="5.97643">
        <ele>2190.6</ele>
        <time>2021-04-17T07:13:40Z</time>
      </trkpt>
      <trkpt lat="45.20894" lon="5.97646">
        <ele>2191.4</ele>
        <time>2021-04-17T07:13:46Z</time>
      </trkpt>
      <trkpt lat="45.20894" lon="5.97648">
        <ele>2192</ele>
        <time>2021-04-17T07:13:49Z</time>
      </trkpt>
      <trkpt lat="45.20894" lon="5.97648">
        <ele>2192.2</ele>
        <time>2021-04-17T07:13:54Z</time>
      </trkpt>
      <trkpt lat="45.20893" lon="5.97648">
        <ele>2192.2</ele>
        <time>2021-04-17T07:13:59Z</time>
      </trkpt>
      <trkpt lat="45.20893" lon="5.9765">
        <ele>2192.8</ele>
        <time>2021-04-17T07:14:05Z</time>
      </trkpt>
      <trkpt lat="45.20893" lon="5.97651">
        <ele>2193</ele>
        <time>2021-04-17T07:14:06Z</time>
      </trkpt>
      <trkpt lat="45.20892" lon="5.97653">
        <ele>2194</ele>
        <time>2021-04-17T07:14:12Z</time>
      </trkpt>
      <trkpt lat="45.20892" lon="5.97653">
        <ele>2194</ele>
        <time>2021-04-17T07:14:13Z</time>
      </trkpt>
      <trkpt lat="45.20893" lon="5.97653">
        <ele>2194.2</ele>
        <time>2021-04-17T07:14:15Z</time>
      </trkpt>
      <trkpt lat="45.20893" lon="5.97654">
        <ele>2194.2</ele>
        <time>2021-04-17T07:14:18Z</time>
      </trkpt>
      <trkpt lat="45.20893" lon="5.97654">
        <ele>2194.4</ele>
        <time>2021-04-17T07:14:21Z</time>
      </trkpt>
      <trkpt lat="45.20893" lon="5.97655">
        <ele>2194.6</ele>
        <time>2021-04-17T07:14:22Z</time>
      </trkpt>
      <trkpt lat="45.20892" lon="5.97656">
        <ele>2195.2</ele>
        <time>2021-04-17T07:14:28Z</time>
      </trkpt>
      <trkpt lat="45.20892" lon="5.97657">
        <ele>2195.6</ele>
        <time>2021-04-17T07:14:32Z</time>
      </trkpt>
      <trkpt lat="45.20892" lon="5.97657">
        <ele>2195.8</ele>
        <time>2021-04-17T07:14:35Z</time>
      </trkpt>
      <trkpt lat="45.20892" lon="5.97658">
        <ele>2195.8</ele>
        <time>2021-04-17T07:14:37Z</time>
      </trkpt>
      <trkpt lat="45.20893" lon="5.97658">
        <ele>2195.8</ele>
        <time>2021-04-17T07:14:43Z</time>
      </trkpt>
      <trkpt lat="45.20893" lon="5.97658">
        <ele>2196.2</ele>
        <time>2021-04-17T07:14:47Z</time>
      </trkpt>
      <trkpt lat="45.20893" lon="5.97658">
        <ele>2196.6</ele>
        <time>2021-04-17T07:14:49Z</time>
      </trkpt>
      <trkpt lat="45.20892" lon="5.97658">
        <ele>2197.4</ele>
        <time>2021-04-17T07:14:52Z</time>
      </trkpt>
      <trkpt lat="45.20892" lon="5.97658">
        <ele>2198.6</ele>
        <time>2021-04-17T07:14:57Z</time>
      </trkpt>
      <trkpt lat="45.20892" lon="5.97658">
        <ele>2199.6</ele>
        <time>2021-04-17T07:15:00Z</time>
      </trkpt>
      <trkpt lat="45.20892" lon="5.97659">
        <ele>2200.6</ele>
        <time>2021-04-17T07:15:04Z</time>
      </trkpt>
      <trkpt lat="45.20892" lon="5.9766">
        <ele>2201</ele>
        <time>2021-04-17T07:15:07Z</time>
      </trkpt>
      <trkpt lat="45.20892" lon="5.97661">
        <ele>2201</ele>
        <time>2021-04-17T07:15:10Z</time>
      </trkpt>
      <trkpt lat="45.20891" lon="5.97663">
        <ele>2201.6</ele>
        <time>2021-04-17T07:15:13Z</time>
      </trkpt>
      <trkpt lat="45.20891" lon="5.97663">
        <ele>2202</ele>
        <time>2021-04-17T07:15:14Z</time>
      </trkpt>
      <trkpt lat="45.2089" lon="5.97665">
        <ele>2203.2</ele>
        <time>2021-04-17T07:15:17Z</time>
      </trkpt>
      <trkpt lat="45.2089" lon="5.97666">
        <ele>2203.4</ele>
        <time>2021-04-17T07:15:18Z</time>
      </trkpt>
      <trkpt lat="45.20889" lon="5.97667">
        <ele>2204</ele>
        <time>2021-04-17T07:15:22Z</time>
      </trkpt>
      <trkpt lat="45.20889" lon="5.97668">
        <ele>2204.2</ele>
        <time>2021-04-17T07:15:23Z</time>
      </trkpt>
      <trkpt lat="45.20889" lon="5.97669">
        <ele>2205.4</ele>
        <time>2021-04-17T07:15:26Z</time>
      </trkpt>
      <trkpt lat="45.20887" lon="5.97671">
        <ele>2206.4</ele>
        <time>2021-04-17T07:15:30Z</time>
      </trkpt>
      <trkpt lat="45.20885" lon="5.97672">
        <ele>2207.6</ele>
        <time>2021-04-17T07:15:35Z</time>
      </trkpt>
      <trkpt lat="45.20884" lon="5.97673">
        <ele>2208.8</ele>
        <time>2021-04-17T07:15:39Z</time>
      </trkpt>
      <trkpt lat="45.20883" lon="5.97676">
        <ele>2210</ele>
        <time>2021-04-17T07:15:44Z</time>
      </trkpt>
      <trkpt lat="45.20882" lon="5.9768">
        <ele>2211</ele>
        <time>2021-04-17T07:15:49Z</time>
      </trkpt>
      <trkpt lat="45.2088" lon="5.97682">
        <ele>2212.2</ele>
        <time>2021-04-17T07:15:53Z</time>
      </trkpt>
      <trkpt lat="45.20879" lon="5.97685">
        <ele>2213.4</ele>
        <time>2021-04-17T07:15:59Z</time>
      </trkpt>
      <trkpt lat="45.20877" lon="5.97687">
        <ele>2214.6</ele>
        <time>2021-04-17T07:16:05Z</time>
      </trkpt>
      <trkpt lat="45.20875" lon="5.9769">
        <ele>2215.6</ele>
        <time>2021-04-17T07:16:11Z</time>
      </trkpt>
      <trkpt lat="45.20875" lon="5.97691">
        <ele>2215.8</ele>
        <time>2021-04-17T07:16:13Z</time>
      </trkpt>
      <trkpt lat="45.20873" lon="5.97694">
        <ele>2217.2</ele>
        <time>2021-04-17T07:16:19Z</time>
      </trkpt>
      <trkpt lat="45.20873" lon="5.97695">
        <ele>2218.2</ele>
        <time>2021-04-17T07:16:24Z</time>
      </trkpt>
      <trkpt lat="45.20872" lon="5.97696">
        <ele>2218.2</ele>
        <time>2021-04-17T07:16:28Z</time>
      </trkpt>
      <trkpt lat="45.20871" lon="5.97696">
        <ele>2218.6</ele>
        <time>2021-04-17T07:16:34Z</time>
      </trkpt>
      <trkpt lat="45.2087" lon="5.97696">
        <ele>2219.2</ele>
        <time>2021-04-17T07:16:36Z</time>
      </trkpt>
      <trkpt lat="45.2087" lon="5.97697">
        <ele>2220</ele>
        <time>2021-04-17T07:16:42Z</time>
      </trkpt>
      <trkpt lat="45.2087" lon="5.97698">
        <ele>2219.8</ele>
        <time>2021-04-17T07:16:48Z</time>
      </trkpt>
      <trkpt lat="45.2087" lon="5.977">
        <ele>2220</ele>
        <time>2021-04-17T07:16:52Z</time>
      </trkpt>
      <trkpt lat="45.2087" lon="5.97701">
        <ele>2220.2</ele>
        <time>2021-04-17T07:16:55Z</time>
      </trkpt>
      <trkpt lat="45.20869" lon="5.97701">
        <ele>2220.2</ele>
        <time>2021-04-17T07:17:01Z</time>
      </trkpt>
      <trkpt lat="45.20869" lon="5.97701">
        <ele>2220.2</ele>
        <time>2021-04-17T07:17:02Z</time>
      </trkpt>
      <trkpt lat="45.20869" lon="5.977">
        <ele>2220.6</ele>
        <time>2021-04-17T07:17:08Z</time>
      </trkpt>
      <trkpt lat="45.20868" lon="5.977">
        <ele>2221</ele>
        <time>2021-04-17T07:17:12Z</time>
      </trkpt>
      <trkpt lat="45.20868" lon="5.97699">
        <ele>2221.2</ele>
        <time>2021-04-17T07:17:15Z</time>
      </trkpt>
      <trkpt lat="45.20868" lon="5.97699">
        <ele>2222.2</ele>
        <time>2021-04-17T07:17:21Z</time>
      </trkpt>
      <trkpt lat="45.20868" lon="5.97699">
        <ele>2222.4</ele>
        <time>2021-04-17T07:17:22Z</time>
      </trkpt>
      <trkpt lat="45.20867" lon="5.97699">
        <ele>2223.2</ele>
        <time>2021-04-17T07:17:28Z</time>
      </trkpt>
      <trkpt lat="45.20867" lon="5.97699">
        <ele>2223.4</ele>
        <time>2021-04-17T07:17:29Z</time>
      </trkpt>
      <trkpt lat="45.20866" lon="5.97699">
        <ele>2224</ele>
        <time>2021-04-17T07:17:35Z</time>
      </trkpt>
      <trkpt lat="45.20865" lon="5.97699">
        <ele>2224.4</ele>
        <time>2021-04-17T07:17:37Z</time>
      </trkpt>
      <trkpt lat="45.20865" lon="5.97699">
        <ele>2225.2</ele>
        <time>2021-04-17T07:17:39Z</time>
      </trkpt>
      <trkpt lat="45.20865" lon="5.97699">
        <ele>2225.6</ele>
        <time>2021-04-17T07:17:42Z</time>
      </trkpt>
      <trkpt lat="45.20865" lon="5.977">
        <ele>2226.6</ele>
        <time>2021-04-17T07:17:48Z</time>
      </trkpt>
      <trkpt lat="45.20864" lon="5.977">
        <ele>2226.6</ele>
        <time>2021-04-17T07:17:50Z</time>
      </trkpt>
      <trkpt lat="45.20864" lon="5.97701">
        <ele>2227.6</ele>
        <time>2021-04-17T07:17:56Z</time>
      </trkpt>
      <trkpt lat="45.20864" lon="5.97701">
        <ele>2227.8</ele>
        <time>2021-04-17T07:17:57Z</time>
      </trkpt>
      <trkpt lat="45.20864" lon="5.97701">
        <ele>2228.8</ele>
        <time>2021-04-17T07:18:02Z</time>
      </trkpt>
      <trkpt lat="45.20864" lon="5.97702">
        <ele>2229.8</ele>
        <time>2021-04-17T07:18:08Z</time>
      </trkpt>
      <trkpt lat="45.20864" lon="5.97702">
        <ele>2231.2</ele>
        <time>2021-04-17T07:18:13Z</time>
      </trkpt>
      <trkpt lat="45.20864" lon="5.97702">
        <ele>2232.2</ele>
        <time>2021-04-17T07:18:18Z</time>
      </trkpt>
      <trkpt lat="45.20864" lon="5.97702">
        <ele>2233.2</ele>
        <time>2021-04-17T07:18:23Z</time>
      </trkpt>
      <trkpt lat="45.20864" lon="5.97706">
        <ele>2234</ele>
        <time>2021-04-17T07:18:29Z</time>
      </trkpt>
      <trkpt lat="45.20863" lon="5.97709">
        <ele>2234.4</ele>
        <time>2021-04-17T07:18:30Z</time>
      </trkpt>
      <trkpt lat="45.20863" lon="5.97713">
        <ele>2234.8</ele>
        <time>2021-04-17T07:18:32Z</time>
      </trkpt>
      <trkpt lat="45.20863" lon="5.97718">
        <ele>2235.2</ele>
        <time>2021-04-17T07:18:35Z</time>
      </trkpt>
      <trkpt lat="45.20863" lon="5.97722">
        <ele>2235.4</ele>
        <time>2021-04-17T07:18:37Z</time>
      </trkpt>
      <trkpt lat="45.20863" lon="5.97723">
        <ele>2235.6</ele>
        <time>2021-04-17T07:18:38Z</time>
      </trkpt>
      <trkpt lat="45.20862" lon="5.97724">
        <ele>2236.8</ele>
        <time>2021-04-17T07:18:42Z</time>
      </trkpt>
      <trkpt lat="45.20863" lon="5.97725">
        <ele>2237.4</ele>
        <time>2021-04-17T07:18:44Z</time>
      </trkpt>
      <trkpt lat="45.20862" lon="5.97726">
        <ele>2237.8</ele>
        <time>2021-04-17T07:18:46Z</time>
      </trkpt>
      <trkpt lat="45.20862" lon="5.97726">
        <ele>2238</ele>
        <time>2021-04-17T07:18:47Z</time>
      </trkpt>
      <trkpt lat="45.20862" lon="5.97728">
        <ele>2239.2</ele>
        <time>2021-04-17T07:18:51Z</time>
      </trkpt>
      <trkpt lat="45.20862" lon="5.97728">
        <ele>2239.8</ele>
        <time>2021-04-17T07:18:54Z</time>
      </trkpt>
      <trkpt lat="45.20863" lon="5.97729">
        <ele>2240</ele>
        <time>2021-04-17T07:18:57Z</time>
      </trkpt>
      <trkpt lat="45.20862" lon="5.97729">
        <ele>2240.2</ele>
        <time>2021-04-17T07:18:58Z</time>
      </trkpt>
      <trkpt lat="45.20861" lon="5.97731">
        <ele>2241</ele>
        <time>2021-04-17T07:19:03Z</time>
      </trkpt>
      <trkpt lat="45.2086" lon="5.97731">
        <ele>2241.2</ele>
        <time>2021-04-17T07:19:05Z</time>
      </trkpt>
      <trkpt lat="45.20859" lon="5.97734">
        <ele>2242.4</ele>
        <time>2021-04-17T07:19:10Z</time>
      </trkpt>
      <trkpt lat="45.20859" lon="5.97734">
        <ele>2242.6</ele>
        <time>2021-04-17T07:19:11Z</time>
      </trkpt>
      <trkpt lat="45.20858" lon="5.97734">
        <ele>2243.4</ele>
        <time>2021-04-17T07:19:14Z</time>
      </trkpt>
      <trkpt lat="45.20857" lon="5.97735">
        <ele>2244.2</ele>
        <time>2021-04-17T07:19:18Z</time>
      </trkpt>
      <trkpt lat="45.20857" lon="5.97735">
        <ele>2244.6</ele>
        <time>2021-04-17T07:19:19Z</time>
      </trkpt>
      <trkpt lat="45.20855" lon="5.97737">
        <ele>2245.8</ele>
        <time>2021-04-17T07:19:25Z</time>
      </trkpt>
      <trkpt lat="45.20855" lon="5.97737">
        <ele>2246.2</ele>
        <time>2021-04-17T07:19:27Z</time>
      </trkpt>
      <trkpt lat="45.20854" lon="5.97738">
        <ele>2246.8</ele>
        <time>2021-04-17T07:19:30Z</time>
      </trkpt>
      <trkpt lat="45.20851" lon="5.97739">
        <ele>2247.8</ele>
        <time>2021-04-17T07:19:35Z</time>
      </trkpt>
      <trkpt lat="45.20851" lon="5.9774">
        <ele>2248</ele>
        <time>2021-04-17T07:19:36Z</time>
      </trkpt>
      <trkpt lat="45.2085" lon="5.97742">
        <ele>2249</ele>
        <time>2021-04-17T07:19:41Z</time>
      </trkpt>
      <trkpt lat="45.20849" lon="5.97742">
        <ele>2249.4</ele>
        <time>2021-04-17T07:19:43Z</time>
      </trkpt>
      <trkpt lat="45.2085" lon="5.97743">
        <ele>2249.8</ele>
        <time>2021-04-17T07:19:45Z</time>
      </trkpt>
      <trkpt lat="45.20849" lon="5.97743">
        <ele>2250</ele>
        <time>2021-04-17T07:19:46Z</time>
      </trkpt>
      <trkpt lat="45.20849" lon="5.97744">
        <ele>2250.4</ele>
        <time>2021-04-17T07:19:50Z</time>
      </trkpt>
      <trkpt lat="45.20848" lon="5.97745">
        <ele>2250.4</ele>
        <time>2021-04-17T07:19:56Z</time>
      </trkpt>
      <trkpt lat="45.20848" lon="5.97745">
        <ele>2250.4</ele>
        <time>2021-04-17T07:19:58Z</time>
      </trkpt>
      <trkpt lat="45.20848" lon="5.97745">
        <ele>2250.4</ele>
        <time>2021-04-17T07:20:03Z</time>
      </trkpt>
      <trkpt lat="45.20848" lon="5.97745">
        <ele>2250.8</ele>
        <time>2021-04-17T07:20:07Z</time>
      </trkpt>
      <trkpt lat="45.20848" lon="5.97745">
        <ele>2250.8</ele>
        <time>2021-04-17T07:20:10Z</time>
      </trkpt>
      <trkpt lat="45.20847" lon="5.97745">
        <ele>2250.8</ele>
        <time>2021-04-17T07:20:13Z</time>
      </trkpt>
      <trkpt lat="45.20847" lon="5.97745">
        <ele>2250.8</ele>
        <time>2021-04-17T07:20:14Z</time>
      </trkpt>
      <trkpt lat="45.20847" lon="5.97745">
        <ele>2250.8</ele>
        <time>2021-04-17T07:20:15Z</time>
      </trkpt>
      <trkpt lat="45.20847" lon="5.97745">
        <ele>2250.8</ele>
        <time>2021-04-17T07:20:16Z</time>
      </trkpt>
      <trkpt lat="45.20847" lon="5.97745">
        <ele>2250.8</ele>
        <time>2021-04-17T07:20:17Z</time>
      </trkpt>
      <trkpt lat="45.20847" lon="5.97745">
        <ele>2250.4</ele>
        <time>2021-04-17T07:20:20Z</time>
      </trkpt>
      <trkpt lat="45.20847" lon="5.97745">
        <ele>2250.2</ele>
        <time>2021-04-17T07:20:23Z</time>
      </trkpt>
      <trkpt lat="45.20848" lon="5.97745">
        <ele>2250.4</ele>
        <time>2021-04-17T07:20:29Z</time>
      </trkpt>
      <trkpt lat="45.20848" lon="5.97745">
        <ele>2250.4</ele>
        <time>2021-04-17T07:20:30Z</time>
      </trkpt>
      <trkpt lat="45.20848" lon="5.97744">
        <ele>2250.4</ele>
        <time>2021-04-17T07:20:35Z</time>
      </trkpt>
      <trkpt lat="45.20848" lon="5.97744">
        <ele>2250.4</ele>
        <time>2021-04-17T07:20:36Z</time>
      </trkpt>
      <trkpt lat="45.20848" lon="5.97744">
        <ele>2250.4</ele>
        <time>2021-04-17T07:20:37Z</time>
      </trkpt>
      <trkpt lat="45.20848" lon="5.97744">
        <ele>2250.2</ele>
        <time>2021-04-17T07:20:39Z</time>
      </trkpt>
      <trkpt lat="45.20848" lon="5.97744">
        <ele>2250.4</ele>
        <time>2021-04-17T07:20:41Z</time>
      </trkpt>
      <trkpt lat="45.20848" lon="5.97744">
        <ele>2250.8</ele>
        <time>2021-04-17T07:20:43Z</time>
      </trkpt>
      <trkpt lat="45.20847" lon="5.97743">
        <ele>2251.2</ele>
        <time>2021-04-17T07:20:45Z</time>
      </trkpt>
      <trkpt lat="45.20846" lon="5.97743">
        <ele>2252</ele>
        <time>2021-04-17T07:20:51Z</time>
      </trkpt>
      <trkpt lat="45.20846" lon="5.97743">
        <ele>2252.2</ele>
        <time>2021-04-17T07:20:52Z</time>
      </trkpt>
      <trkpt lat="45.20846" lon="5.97743">
        <ele>2252.6</ele>
        <time>2021-04-17T07:20:55Z</time>
      </trkpt>
      <trkpt lat="45.20845" lon="5.97743">
        <ele>2253</ele>
        <time>2021-04-17T07:20:58Z</time>
      </trkpt>
      <trkpt lat="45.20845" lon="5.97743">
        <ele>2253.4</ele>
        <time>2021-04-17T07:21:00Z</time>
      </trkpt>
      <trkpt lat="45.20843" lon="5.97743">
        <ele>2254.4</ele>
        <time>2021-04-17T07:21:04Z</time>
      </trkpt>
      <trkpt lat="45.20841" lon="5.97743">
        <ele>2255.4</ele>
        <time>2021-04-17T07:21:09Z</time>
      </trkpt>
      <trkpt lat="45.20839" lon="5.97743">
        <ele>2255.6</ele>
        <time>2021-04-17T07:21:13Z</time>
      </trkpt>
      <trkpt lat="45.20836" lon="5.97743">
        <ele>2256.6</ele>
        <time>2021-04-17T07:21:19Z</time>
      </trkpt>
      <trkpt lat="45.20836" lon="5.97743">
        <ele>2256.8</ele>
        <time>2021-04-17T07:21:20Z</time>
      </trkpt>
      <trkpt lat="45.20834" lon="5.97744">
        <ele>2257.6</ele>
        <time>2021-04-17T07:21:26Z</time>
      </trkpt>
      <trkpt lat="45.20834" lon="5.97745">
        <ele>2257.4</ele>
        <time>2021-04-17T07:21:32Z</time>
      </trkpt>
      <trkpt lat="45.20834" lon="5.97745">
        <ele>2257.4</ele>
        <time>2021-04-17T07:21:33Z</time>
      </trkpt>
      <trkpt lat="45.20834" lon="5.97746">
        <ele>2257.4</ele>
        <time>2021-04-17T07:21:36Z</time>
      </trkpt>
      <trkpt lat="45.20835" lon="5.97747">
        <ele>2257.8</ele>
        <time>2021-04-17T07:21:39Z</time>
      </trkpt>
      <trkpt lat="45.20835" lon="5.97747">
        <ele>2258.2</ele>
        <time>2021-04-17T07:21:41Z</time>
      </trkpt>
      <trkpt lat="45.20835" lon="5.97747">
        <ele>2258.6</ele>
        <time>2021-04-17T07:21:44Z</time>
      </trkpt>
      <trkpt lat="45.20835" lon="5.97748">
        <ele>2258.8</ele>
        <time>2021-04-17T07:21:46Z</time>
      </trkpt>
      <trkpt lat="45.20835" lon="5.97754">
        <ele>2260</ele>
        <time>2021-04-17T07:21:51Z</time>
      </trkpt>
      <trkpt lat="45.20835" lon="5.97756">
        <ele>2260.2</ele>
        <time>2021-04-17T07:21:52Z</time>
      </trkpt>
      <trkpt lat="45.20834" lon="5.9776">
        <ele>2260.6</ele>
        <time>2021-04-17T07:21:55Z</time>
      </trkpt>
      <trkpt lat="45.20833" lon="5.97762">
        <ele>2261</ele>
        <time>2021-04-17T07:21:58Z</time>
      </trkpt>
      <trkpt lat="45.20833" lon="5.97764">
        <ele>2261.6</ele>
        <time>2021-04-17T07:22:01Z</time>
      </trkpt>
      <trkpt lat="45.20831" lon="5.97766">
        <ele>2262.2</ele>
        <time>2021-04-17T07:22:05Z</time>
      </trkpt>
      <trkpt lat="45.20829" lon="5.97768">
        <ele>2262.6</ele>
        <time>2021-04-17T07:22:09Z</time>
      </trkpt>
      <trkpt lat="45.20828" lon="5.97771">
        <ele>2263.2</ele>
        <time>2021-04-17T07:22:14Z</time>
      </trkpt>
      <trkpt lat="45.20827" lon="5.97771">
        <ele>2263.4</ele>
        <time>2021-04-17T07:22:15Z</time>
      </trkpt>
      <trkpt lat="45.20827" lon="5.97772">
        <ele>2264.4</ele>
        <time>2021-04-17T07:22:18Z</time>
      </trkpt>
      <trkpt lat="45.20827" lon="5.97772">
        <ele>2264.6</ele>
        <time>2021-04-17T07:22:19Z</time>
      </trkpt>
      <trkpt lat="45.20826" lon="5.97774">
        <ele>2266</ele>
        <time>2021-04-17T07:22:23Z</time>
      </trkpt>
      <trkpt lat="45.20826" lon="5.97775">
        <ele>2267</ele>
        <time>2021-04-17T07:22:25Z</time>
      </trkpt>
      <trkpt lat="45.20826" lon="5.97775">
        <ele>2267.2</ele>
        <time>2021-04-17T07:22:26Z</time>
      </trkpt>
      <trkpt lat="45.20825" lon="5.97778">
        <ele>2268</ele>
        <time>2021-04-17T07:22:30Z</time>
      </trkpt>
      <trkpt lat="45.20825" lon="5.97778">
        <ele>2268</ele>
        <time>2021-04-17T07:22:31Z</time>
      </trkpt>
      <trkpt lat="45.20824" lon="5.97779">
        <ele>2268.6</ele>
        <time>2021-04-17T07:22:34Z</time>
      </trkpt>
      <trkpt lat="45.20823" lon="5.97783">
        <ele>2268.8</ele>
        <time>2021-04-17T07:22:40Z</time>
      </trkpt>
      <trkpt lat="45.20823" lon="5.97786">
        <ele>2269</ele>
        <time>2021-04-17T07:22:43Z</time>
      </trkpt>
      <trkpt lat="45.20823" lon="5.97787">
        <ele>2269.2</ele>
        <time>2021-04-17T07:22:44Z</time>
      </trkpt>
      <trkpt lat="45.20822" lon="5.97793">
        <ele>2269.8</ele>
        <time>2021-04-17T07:22:50Z</time>
      </trkpt>
      <trkpt lat="45.20821" lon="5.97795">
        <ele>2270</ele>
        <time>2021-04-17T07:22:52Z</time>
      </trkpt>
      <trkpt lat="45.2082" lon="5.97795">
        <ele>2270.2</ele>
        <time>2021-04-17T07:22:53Z</time>
      </trkpt>
      <trkpt lat="45.20819" lon="5.978">
        <ele>2271.2</ele>
        <time>2021-04-17T07:22:59Z</time>
      </trkpt>
      <trkpt lat="45.20818" lon="5.978">
        <ele>2271.2</ele>
        <time>2021-04-17T07:23:00Z</time>
      </trkpt>
      <trkpt lat="45.20816" lon="5.97803">
        <ele>2272.2</ele>
        <time>2021-04-17T07:23:06Z</time>
      </trkpt>
      <trkpt lat="45.20816" lon="5.97804">
        <ele>2272.2</ele>
        <time>2021-04-17T07:23:07Z</time>
      </trkpt>
      <trkpt lat="45.20816" lon="5.97804">
        <ele>2272.2</ele>
        <time>2021-04-17T07:23:11Z</time>
      </trkpt>
      <trkpt lat="45.20816" lon="5.97804">
        <ele>2272.4</ele>
        <time>2021-04-17T07:23:15Z</time>
      </trkpt>
      <trkpt lat="45.20816" lon="5.97804">
        <ele>2272.4</ele>
        <time>2021-04-17T07:23:19Z</time>
      </trkpt>
      <trkpt lat="45.20816" lon="5.97804">
        <ele>2272.6</ele>
        <time>2021-04-17T07:23:23Z</time>
      </trkpt>
      <trkpt lat="45.20816" lon="5.97804">
        <ele>2272.6</ele>
        <time>2021-04-17T07:23:27Z</time>
      </trkpt>
      <trkpt lat="45.20816" lon="5.97804">
        <ele>2272.8</ele>
        <time>2021-04-17T07:23:29Z</time>
      </trkpt>
      <trkpt lat="45.20816" lon="5.97805">
        <ele>2272.8</ele>
        <time>2021-04-17T07:23:35Z</time>
      </trkpt>
      <trkpt lat="45.20815" lon="5.97805">
        <ele>2273.2</ele>
        <time>2021-04-17T07:23:39Z</time>
      </trkpt>
      <trkpt lat="45.20815" lon="5.97805">
        <ele>2273.2</ele>
        <time>2021-04-17T07:23:43Z</time>
      </trkpt>
      <trkpt lat="45.20815" lon="5.97805">
        <ele>2273.2</ele>
        <time>2021-04-17T07:23:45Z</time>
      </trkpt>
      <trkpt lat="45.20815" lon="5.97805">
        <ele>2273.2</ele>
        <time>2021-04-17T07:23:51Z</time>
      </trkpt>
      <trkpt lat="45.20815" lon="5.97805">
        <ele>2273.4</ele>
        <time>2021-04-17T07:23:53Z</time>
      </trkpt>
      <trkpt lat="45.20815" lon="5.97805">
        <ele>2273.6</ele>
        <time>2021-04-17T07:23:54Z</time>
      </trkpt>
      <trkpt lat="45.20815" lon="5.97806">
        <ele>2273.6</ele>
        <time>2021-04-17T07:23:55Z</time>
      </trkpt>
      <trkpt lat="45.20815" lon="5.97806">
        <ele>2273.6</ele>
        <time>2021-04-17T07:23:56Z</time>
      </trkpt>
      <trkpt lat="45.20815" lon="5.97806">
        <ele>2273.8</ele>
        <time>2021-04-17T07:23:59Z</time>
      </trkpt>
      <trkpt lat="45.20814" lon="5.97806">
        <ele>2273.6</ele>
        <time>2021-04-17T07:24:02Z</time>
      </trkpt>
      <trkpt lat="45.20814" lon="5.97806">
        <ele>2273.4</ele>
        <time>2021-04-17T07:24:03Z</time>
      </trkpt>
      <trkpt lat="45.20814" lon="5.97806">
        <ele>2273</ele>
        <time>2021-04-17T07:24:07Z</time>
      </trkpt>
      <trkpt lat="45.20814" lon="5.97807">
        <ele>2272.6</ele>
        <time>2021-04-17T07:24:13Z</time>
      </trkpt>
      <trkpt lat="45.20814" lon="5.97807">
        <ele>2273</ele>
        <time>2021-04-17T07:24:19Z</time>
      </trkpt>
      <trkpt lat="45.20814" lon="5.97807">
        <ele>2273.2</ele>
        <time>2021-04-17T07:24:21Z</time>
      </trkpt>
      <trkpt lat="45.20814" lon="5.97807">
        <ele>2273.6</ele>
        <time>2021-04-17T07:24:27Z</time>
      </trkpt>
      <trkpt lat="45.20814" lon="5.97807">
        <ele>2273.8</ele>
        <time>2021-04-17T07:24:33Z</time>
      </trkpt>
      <trkpt lat="45.20814" lon="5.97807">
        <ele>2274.2</ele>
        <time>2021-04-17T07:24:39Z</time>
      </trkpt>
      <trkpt lat="45.20814" lon="5.97807">
        <ele>2274.4</ele>
        <time>2021-04-17T07:24:43Z</time>
      </trkpt>
      <trkpt lat="45.20813" lon="5.97808">
        <ele>2274.4</ele>
        <time>2021-04-17T07:24:47Z</time>
      </trkpt>
      <trkpt lat="45.20813" lon="5.97808">
        <ele>2274.2</ele>
        <time>2021-04-17T07:24:52Z</time>
      </trkpt>
      <trkpt lat="45.20813" lon="5.97808">
        <ele>2274.2</ele>
        <time>2021-04-17T07:24:53Z</time>
      </trkpt>
      <trkpt lat="45.20813" lon="5.97808">
        <ele>2274.2</ele>
        <time>2021-04-17T07:24:54Z</time>
      </trkpt>
      <trkpt lat="45.20813" lon="5.97808">
        <ele>2274.2</ele>
        <time>2021-04-17T07:25:00Z</time>
      </trkpt>
      <trkpt lat="45.20813" lon="5.97808">
        <ele>2274</ele>
        <time>2021-04-17T07:25:03Z</time>
      </trkpt>
      <trkpt lat="45.20813" lon="5.97809">
        <ele>2273.8</ele>
        <time>2021-04-17T07:25:04Z</time>
      </trkpt>
      <trkpt lat="45.20813" lon="5.97809">
        <ele>2273.8</ele>
        <time>2021-04-17T07:25:07Z</time>
      </trkpt>
      <trkpt lat="45.20813" lon="5.97809">
        <ele>2274</ele>
        <time>2021-04-17T07:25:11Z</time>
      </trkpt>
      <trkpt lat="45.20812" lon="5.97809">
        <ele>2274</ele>
        <time>2021-04-17T07:25:15Z</time>
      </trkpt>
      <trkpt lat="45.20812" lon="5.97809">
        <ele>2274</ele>
        <time>2021-04-17T07:25:18Z</time>
      </trkpt>
      <trkpt lat="45.20812" lon="5.97809">
        <ele>2274</ele>
        <time>2021-04-17T07:25:19Z</time>
      </trkpt>
      <trkpt lat="45.20812" lon="5.97809">
        <ele>2274</ele>
        <time>2021-04-17T07:25:21Z</time>
      </trkpt>
      <trkpt lat="45.20812" lon="5.9781">
        <ele>2274.2</ele>
        <time>2021-04-17T07:25:27Z</time>
      </trkpt>
      <trkpt lat="45.20812" lon="5.9781">
        <ele>2274.4</ele>
        <time>2021-04-17T07:25:30Z</time>
      </trkpt>
      <trkpt lat="45.20812" lon="5.9781">
        <ele>2274.8</ele>
        <time>2021-04-17T07:25:36Z</time>
      </trkpt>
      <trkpt lat="45.20812" lon="5.9781">
        <ele>2275.2</ele>
        <time>2021-04-17T07:25:42Z</time>
      </trkpt>
      <trkpt lat="45.20812" lon="5.9781">
        <ele>2275.2</ele>
        <time>2021-04-17T07:25:43Z</time>
      </trkpt>
      <trkpt lat="45.20812" lon="5.9781">
        <ele>2275.4</ele>
        <time>2021-04-17T07:25:45Z</time>
      </trkpt>
      <trkpt lat="45.20811" lon="5.97811">
        <ele>2275.4</ele>
        <time>2021-04-17T07:25:46Z</time>
      </trkpt>
      <trkpt lat="45.20811" lon="5.97811">
        <ele>2275.6</ele>
        <time>2021-04-17T07:25:52Z</time>
      </trkpt>
      <trkpt lat="45.20811" lon="5.97811">
        <ele>2276.2</ele>
        <time>2021-04-17T07:25:58Z</time>
      </trkpt>
      <trkpt lat="45.20811" lon="5.97811">
        <ele>2276.2</ele>
        <time>2021-04-17T07:26:02Z</time>
      </trkpt>
      <trkpt lat="45.20811" lon="5.97811">
        <ele>2276.4</ele>
        <time>2021-04-17T07:26:04Z</time>
      </trkpt>
      <trkpt lat="45.20811" lon="5.97811">
        <ele>2276.8</ele>
        <time>2021-04-17T07:26:09Z</time>
      </trkpt>
      <trkpt lat="45.20811" lon="5.97811">
        <ele>2276.8</ele>
        <time>2021-04-17T07:26:10Z</time>
      </trkpt>
      <trkpt lat="45.20811" lon="5.97812">
        <ele>2276.6</ele>
        <time>2021-04-17T07:26:12Z</time>
      </trkpt>
      <trkpt lat="45.20811" lon="5.97812">
        <ele>2276.4</ele>
        <time>2021-04-17T07:26:16Z</time>
      </trkpt>
      <trkpt lat="45.20811" lon="5.97812">
        <ele>2276.4</ele>
        <time>2021-04-17T07:26:18Z</time>
      </trkpt>
      <trkpt lat="45.2081" lon="5.97812">
        <ele>2276.2</ele>
        <time>2021-04-17T07:26:21Z</time>
      </trkpt>
      <trkpt lat="45.2081" lon="5.97812">
        <ele>2276</ele>
        <time>2021-04-17T07:26:23Z</time>
      </trkpt>
      <trkpt lat="45.2081" lon="5.97812">
        <ele>2275.8</ele>
        <time>2021-04-17T07:26:25Z</time>
      </trkpt>
      <trkpt lat="45.2081" lon="5.97813">
        <ele>2275.6</ele>
        <time>2021-04-17T07:26:26Z</time>
      </trkpt>
      <trkpt lat="45.2081" lon="5.97813">
        <ele>2275.6</ele>
        <time>2021-04-17T07:26:27Z</time>
      </trkpt>
      <trkpt lat="45.2081" lon="5.97813">
        <ele>2275.6</ele>
        <time>2021-04-17T07:26:28Z</time>
      </trkpt>
      <trkpt lat="45.2081" lon="5.97813">
        <ele>2275.6</ele>
        <time>2021-04-17T07:26:34Z</time>
      </trkpt>
      <trkpt lat="45.2081" lon="5.97813">
        <ele>2275.8</ele>
        <time>2021-04-17T07:26:40Z</time>
      </trkpt>
      <trkpt lat="45.2081" lon="5.97813">
        <ele>2275.8</ele>
        <time>2021-04-17T07:26:41Z</time>
      </trkpt>
      <trkpt lat="45.20809" lon="5.97813">
        <ele>2276</ele>
        <time>2021-04-17T07:26:42Z</time>
      </trkpt>
      <trkpt lat="45.20809" lon="5.97814">
        <ele>2276.4</ele>
        <time>2021-04-17T07:26:45Z</time>
      </trkpt>
      <trkpt lat="45.20809" lon="5.97814">
        <ele>2276.8</ele>
        <time>2021-04-17T07:26:49Z</time>
      </trkpt>
      <trkpt lat="45.20809" lon="5.97814">
        <ele>2276.8</ele>
        <time>2021-04-17T07:26:50Z</time>
      </trkpt>
      <trkpt lat="45.20809" lon="5.97814">
        <ele>2276.8</ele>
        <time>2021-04-17T07:26:52Z</time>
      </trkpt>
      <trkpt lat="45.20809" lon="5.97814">
        <ele>2276.8</ele>
        <time>2021-04-17T07:26:54Z</time>
      </trkpt>
      <trkpt lat="45.20809" lon="5.97814">
        <ele>2277</ele>
        <time>2021-04-17T07:26:55Z</time>
      </trkpt>
      <trkpt lat="45.20809" lon="5.97815">
        <ele>2277</ele>
        <time>2021-04-17T07:26:57Z</time>
      </trkpt>
      <trkpt lat="45.20809" lon="5.97815">
        <ele>2277.2</ele>
        <time>2021-04-17T07:26:59Z</time>
      </trkpt>
      <trkpt lat="45.20809" lon="5.97815">
        <ele>2277.4</ele>
        <time>2021-04-17T07:27:03Z</time>
      </trkpt>
      <trkpt lat="45.20808" lon="5.97815">
        <ele>2277</ele>
        <time>2021-04-17T07:27:09Z</time>
      </trkpt>
      <trkpt lat="45.20808" lon="5.97815">
        <ele>2277</ele>
        <time>2021-04-17T07:27:12Z</time>
      </trkpt>
      <trkpt lat="45.20808" lon="5.97815">
        <ele>2277.2</ele>
        <time>2021-04-17T07:27:14Z</time>
      </trkpt>
      <trkpt lat="45.20808" lon="5.97815">
        <ele>2277.4</ele>
        <time>2021-04-17T07:27:17Z</time>
      </trkpt>
      <trkpt lat="45.20808" lon="5.97816">
        <ele>2277.6</ele>
        <time>2021-04-17T07:27:19Z</time>
      </trkpt>
      <trkpt lat="45.20808" lon="5.97816">
        <ele>2277.8</ele>
        <time>2021-04-17T07:27:20Z</time>
      </trkpt>
      <trkpt lat="45.20808" lon="5.97816">
        <ele>2278.2</ele>
        <time>2021-04-17T07:27:23Z</time>
      </trkpt>
      <trkpt lat="45.20808" lon="5.97816">
        <ele>2278.4</ele>
        <time>2021-04-17T07:27:26Z</time>
      </trkpt>
      <trkpt lat="45.20808" lon="5.97816">
        <ele>2278.6</ele>
        <time>2021-04-17T07:27:27Z</time>
      </trkpt>
      <trkpt lat="45.20807" lon="5.97816">
        <ele>2279</ele>
        <time>2021-04-17T07:27:29Z</time>
      </trkpt>
      <trkpt lat="45.20807" lon="5.97817">
        <ele>2279.6</ele>
        <time>2021-04-17T07:27:33Z</time>
      </trkpt>
      <trkpt lat="45.20807" lon="5.97817">
        <ele>2279.8</ele>
        <time>2021-04-17T07:27:36Z</time>
      </trkpt>
      <trkpt lat="45.20807" lon="5.97817">
        <ele>2281</ele>
        <time>2021-04-17T07:27:42Z</time>
      </trkpt>
      <trkpt lat="45.20807" lon="5.97817">
        <ele>2281.8</ele>
        <time>2021-04-17T07:27:48Z</time>
      </trkpt>
      <trkpt lat="45.20807" lon="5.97817">
        <ele>2282</ele>
        <time>2021-04-17T07:27:50Z</time>
      </trkpt>
      <trkpt lat="45.20807" lon="5.97817">
        <ele>2282</ele>
        <time>2021-04-17T07:27:51Z</time>
      </trkpt>
      <trkpt lat="45.20807" lon="5.97817">
        <ele>2282</ele>
        <time>2021-04-17T07:27:52Z</time>
      </trkpt>
      <trkpt lat="45.20807" lon="5.97818">
        <ele>2282.2</ele>
        <time>2021-04-17T07:27:57Z</time>
      </trkpt>
      <trkpt lat="45.20807" lon="5.97818">
        <ele>2283</ele>
        <time>2021-04-17T07:28:03Z</time>
      </trkpt>
      <trkpt lat="45.20806" lon="5.97818">
        <ele>2283.2</ele>
        <time>2021-04-17T07:28:04Z</time>
      </trkpt>
      <trkpt lat="45.20806" lon="5.97818">
        <ele>2284</ele>
        <time>2021-04-17T07:28:10Z</time>
      </trkpt>
      <trkpt lat="45.20806" lon="5.97818">
        <ele>2284.2</ele>
        <time>2021-04-17T07:28:12Z</time>
      </trkpt>
      <trkpt lat="45.20806" lon="5.97818">
        <ele>2284.4</ele>
        <time>2021-04-17T07:28:15Z</time>
      </trkpt>
      <trkpt lat="45.20806" lon="5.97818">
        <ele>2285</ele>
        <time>2021-04-17T07:28:21Z</time>
      </trkpt>
      <trkpt lat="45.20806" lon="5.97819">
        <ele>2285</ele>
        <time>2021-04-17T07:28:27Z</time>
      </trkpt>
      <trkpt lat="45.20806" lon="5.97819">
        <ele>2284.8</ele>
        <time>2021-04-17T07:28:30Z</time>
      </trkpt>
      <trkpt lat="45.20806" lon="5.97819">
        <ele>2284.8</ele>
        <time>2021-04-17T07:28:34Z</time>
      </trkpt>
      <trkpt lat="45.20806" lon="5.97819">
        <ele>2284.6</ele>
        <time>2021-04-17T07:28:36Z</time>
      </trkpt>
      <trkpt lat="45.20806" lon="5.97819">
        <ele>2284.6</ele>
        <time>2021-04-17T07:28:37Z</time>
      </trkpt>
      <trkpt lat="45.20805" lon="5.97819">
        <ele>2284.4</ele>
        <time>2021-04-17T07:28:39Z</time>
      </trkpt>
      <trkpt lat="45.20805" lon="5.9782">
        <ele>2284.4</ele>
        <time>2021-04-17T07:28:40Z</time>
      </trkpt>
      <trkpt lat="45.20805" lon="5.9782">
        <ele>2284.4</ele>
        <time>2021-04-17T07:28:43Z</time>
      </trkpt>
      <trkpt lat="45.20805" lon="5.9782">
        <ele>2284.4</ele>
        <time>2021-04-17T07:28:44Z</time>
      </trkpt>
      <trkpt lat="45.20805" lon="5.9782">
        <ele>2284.2</ele>
        <time>2021-04-17T07:28:50Z</time>
      </trkpt>
      <trkpt lat="45.20805" lon="5.9782">
        <ele>2284.2</ele>
        <time>2021-04-17T07:28:51Z</time>
      </trkpt>
      <trkpt lat="45.20805" lon="5.9782">
        <ele>2284.2</ele>
        <time>2021-04-17T07:28:52Z</time>
      </trkpt>
      <trkpt lat="45.20805" lon="5.9782">
        <ele>2284.2</ele>
        <time>2021-04-17T07:28:53Z</time>
      </trkpt>
      <trkpt lat="45.20805" lon="5.97821">
        <ele>2284.2</ele>
        <time>2021-04-17T07:28:54Z</time>
      </trkpt>
      <trkpt lat="45.20804" lon="5.97821">
        <ele>2284</ele>
        <time>2021-04-17T07:28:56Z</time>
      </trkpt>
      <trkpt lat="45.20804" lon="5.97821">
        <ele>2284</ele>
        <time>2021-04-17T07:28:57Z</time>
      </trkpt>
      <trkpt lat="45.20804" lon="5.97821">
        <ele>2284.2</ele>
        <time>2021-04-17T07:28:59Z</time>
      </trkpt>
      <trkpt lat="45.20804" lon="5.97821">
        <ele>2284.2</ele>
        <time>2021-04-17T07:29:01Z</time>
      </trkpt>
      <trkpt lat="45.20804" lon="5.97821">
        <ele>2284.4</ele>
        <time>2021-04-17T07:29:02Z</time>
      </trkpt>
      <trkpt lat="45.20804" lon="5.97822">
        <ele>2284.6</ele>
        <time>2021-04-17T07:29:04Z</time>
      </trkpt>
      <trkpt lat="45.20804" lon="5.97822">
        <ele>2284.6</ele>
        <time>2021-04-17T07:29:05Z</time>
      </trkpt>
      <trkpt lat="45.20804" lon="5.97822">
        <ele>2284.8</ele>
        <time>2021-04-17T07:29:07Z</time>
      </trkpt>
      <trkpt lat="45.20804" lon="5.97822">
        <ele>2285</ele>
        <time>2021-04-17T07:29:08Z</time>
      </trkpt>
      <trkpt lat="45.20804" lon="5.97822">
        <ele>2285</ele>
        <time>2021-04-17T07:29:09Z</time>
      </trkpt>
      <trkpt lat="45.20803" lon="5.97822">
        <ele>2285</ele>
        <time>2021-04-17T07:29:10Z</time>
      </trkpt>
      <trkpt lat="45.20803" lon="5.97822">
        <ele>2285.2</ele>
        <time>2021-04-17T07:29:14Z</time>
      </trkpt>
      <trkpt lat="45.20803" lon="5.97823">
        <ele>2285.2</ele>
        <time>2021-04-17T07:29:15Z</time>
      </trkpt>
      <trkpt lat="45.20803" lon="5.97823">
        <ele>2285.2</ele>
        <time>2021-04-17T07:29:16Z</time>
      </trkpt>
      <trkpt lat="45.20803" lon="5.97823">
        <ele>2285</ele>
        <time>2021-04-17T07:29:17Z</time>
      </trkpt>
      <trkpt lat="45.20803" lon="5.97823">
        <ele>2285</ele>
        <time>2021-04-17T07:29:20Z</time>
      </trkpt>
      <trkpt lat="45.20803" lon="5.97823">
        <ele>2285.2</ele>
        <time>2021-04-17T07:29:22Z</time>
      </trkpt>
      <trkpt lat="45.20803" lon="5.97823">
        <ele>2285.6</ele>
        <time>2021-04-17T07:29:25Z</time>
      </trkpt>
      <trkpt lat="45.20803" lon="5.97824">
        <ele>2286</ele>
        <time>2021-04-17T07:29:28Z</time>
      </trkpt>
      <trkpt lat="45.20802" lon="5.97824">
        <ele>2286.4</ele>
        <time>2021-04-17T07:29:30Z</time>
      </trkpt>
      <trkpt lat="45.20802" lon="5.97824">
        <ele>2286.8</ele>
        <time>2021-04-17T07:29:32Z</time>
      </trkpt>
      <trkpt lat="45.20802" lon="5.97824">
        <ele>2287.6</ele>
        <time>2021-04-17T07:29:35Z</time>
      </trkpt>
      <trkpt lat="45.20802" lon="5.97824">
        <ele>2288.6</ele>
        <time>2021-04-17T07:29:38Z</time>
      </trkpt>
      <trkpt lat="45.20802" lon="5.97824">
        <ele>2288.8</ele>
        <time>2021-04-17T07:29:39Z</time>
      </trkpt>
      <trkpt lat="45.20802" lon="5.97824">
        <ele>2289</ele>
        <time>2021-04-17T07:29:42Z</time>
      </trkpt>
      <trkpt lat="45.20802" lon="5.97825">
        <ele>2289.2</ele>
        <time>2021-04-17T07:29:44Z</time>
      </trkpt>
      <trkpt lat="45.20802" lon="5.97825">
        <ele>2289.4</ele>
        <time>2021-04-17T07:29:48Z</time>
      </trkpt>
      <trkpt lat="45.20802" lon="5.97825">
        <ele>2289</ele>
        <time>2021-04-17T07:29:54Z</time>
      </trkpt>
      <trkpt lat="45.20802" lon="5.97825">
        <ele>2289.2</ele>
        <time>2021-04-17T07:29:55Z</time>
      </trkpt>
      <trkpt lat="45.20801" lon="5.97825">
        <ele>2289.4</ele>
        <time>2021-04-17T07:30:01Z</time>
      </trkpt>
      <trkpt lat="45.20801" lon="5.97825">
        <ele>2289.6</ele>
        <time>2021-04-17T07:30:03Z</time>
      </trkpt>
      <trkpt lat="45.20801" lon="5.97826">
        <ele>2289.4</ele>
        <time>2021-04-17T07:30:04Z</time>
      </trkpt>
      <trkpt lat="45.20801" lon="5.97826">
        <ele>2289.4</ele>
        <time>2021-04-17T07:30:06Z</time>
      </trkpt>
      <trkpt lat="45.20801" lon="5.97826">
        <ele>2289.4</ele>
        <time>2021-04-17T07:30:08Z</time>
      </trkpt>
      <trkpt lat="45.20801" lon="5.97826">
        <ele>2289.6</ele>
        <time>2021-04-17T07:30:14Z</time>
      </trkpt>
      <trkpt lat="45.20801" lon="5.97826">
        <ele>2289.8</ele>
        <time>2021-04-17T07:30:16Z</time>
      </trkpt>
      <trkpt lat="45.20801" lon="5.97826">
        <ele>2290</ele>
        <time>2021-04-17T07:30:17Z</time>
      </trkpt>
      <trkpt lat="45.20801" lon="5.97826">
        <ele>2290.4</ele>
        <time>2021-04-17T07:30:19Z</time>
      </trkpt>
      <trkpt lat="45.20801" lon="5.97827">
        <ele>2290.6</ele>
        <time>2021-04-17T07:30:21Z</time>
      </trkpt>
      <trkpt lat="45.208" lon="5.97827">
        <ele>2290.8</ele>
        <time>2021-04-17T07:30:22Z</time>
      </trkpt>
      <trkpt lat="45.208" lon="5.97827">
        <ele>2291.4</ele>
        <time>2021-04-17T07:30:24Z</time>
      </trkpt>
      <trkpt lat="45.208" lon="5.97827">
        <ele>2291.6</ele>
        <time>2021-04-17T07:30:25Z</time>
      </trkpt>
      <trkpt lat="45.208" lon="5.97827">
        <ele>2291.8</ele>
        <time>2021-04-17T07:30:27Z</time>
      </trkpt>
      <trkpt lat="45.208" lon="5.97827">
        <ele>2292.2</ele>
        <time>2021-04-17T07:30:32Z</time>
      </trkpt>
      <trkpt lat="45.208" lon="5.97828">
        <ele>2292.4</ele>
        <time>2021-04-17T07:30:33Z</time>
      </trkpt>
      <trkpt lat="45.208" lon="5.97828">
        <ele>2293.4</ele>
        <time>2021-04-17T07:30:38Z</time>
      </trkpt>
      <trkpt lat="45.208" lon="5.97828">
        <ele>2294.6</ele>
        <time>2021-04-17T07:30:43Z</time>
      </trkpt>
      <trkpt lat="45.208" lon="5.97828">
        <ele>2295</ele>
        <time>2021-04-17T07:30:46Z</time>
      </trkpt>
      <trkpt lat="45.20799" lon="5.97828">
        <ele>2295.4</ele>
        <time>2021-04-17T07:30:49Z</time>
      </trkpt>
      <trkpt lat="45.20799" lon="5.97828">
        <ele>2295.6</ele>
        <time>2021-04-17T07:30:52Z</time>
      </trkpt>
      <trkpt lat="45.20799" lon="5.97828">
        <ele>2296.6</ele>
        <time>2021-04-17T07:30:58Z</time>
      </trkpt>
      <trkpt lat="45.20799" lon="5.97829">
        <ele>2296.6</ele>
        <time>2021-04-17T07:31:04Z</time>
      </trkpt>
      <trkpt lat="45.20799" lon="5.97829">
        <ele>2296.8</ele>
        <time>2021-04-17T07:31:06Z</time>
      </trkpt>
      <trkpt lat="45.20799" lon="5.97829">
        <ele>2297.8</ele>
        <time>2021-04-17T07:31:12Z</time>
      </trkpt>
      <trkpt lat="45.20799" lon="5.97829">
        <ele>2298</ele>
        <time>2021-04-17T07:31:13Z</time>
      </trkpt>
      <trkpt lat="45.20792" lon="5.97841">
        <ele>2299.2</ele>
        <time>2021-04-17T07:31:16Z</time>
      </trkpt>
      <trkpt lat="45.20788" lon="5.97849">
        <ele>2299.8</ele>
        <time>2021-04-17T07:31:18Z</time>
      </trkpt>
      <trkpt lat="45.20786" lon="5.97854">
        <ele>2300.6</ele>
        <time>2021-04-17T07:31:21Z</time>
      </trkpt>
      <trkpt lat="45.20785" lon="5.97856">
        <ele>2301.8</ele>
        <time>2021-04-17T07:31:25Z</time>
      </trkpt>
      <trkpt lat="45.20785" lon="5.97856">
        <ele>2302.2</ele>
        <time>2021-04-17T07:31:27Z</time>
      </trkpt>
      <trkpt lat="45.20785" lon="5.97856">
        <ele>2302</ele>
        <time>2021-04-17T07:31:33Z</time>
      </trkpt>
      <trkpt lat="45.20785" lon="5.97856">
        <ele>2302</ele>
        <time>2021-04-17T07:31:36Z</time>
      </trkpt>
      <trkpt lat="45.20785" lon="5.97856">
        <ele>2302.8</ele>
        <time>2021-04-17T07:31:42Z</time>
      </trkpt>
      <trkpt lat="45.20785" lon="5.97856">
        <ele>2303</ele>
        <time>2021-04-17T07:31:44Z</time>
      </trkpt>
      <trkpt lat="45.20786" lon="5.97856">
        <ele>2303.2</ele>
        <time>2021-04-17T07:31:47Z</time>
      </trkpt>
      <trkpt lat="45.20786" lon="5.97856">
        <ele>2303.2</ele>
        <time>2021-04-17T07:31:49Z</time>
      </trkpt>
      <trkpt lat="45.20786" lon="5.97856">
        <ele>2303.4</ele>
        <time>2021-04-17T07:31:52Z</time>
      </trkpt>
      <trkpt lat="45.20786" lon="5.97856">
        <ele>2303.4</ele>
        <time>2021-04-17T07:31:53Z</time>
      </trkpt>
      <trkpt lat="45.20786" lon="5.97856">
        <ele>2303.6</ele>
        <time>2021-04-17T07:31:55Z</time>
      </trkpt>
      <trkpt lat="45.20787" lon="5.97857">
        <ele>2303.8</ele>
        <time>2021-04-17T07:31:59Z</time>
      </trkpt>
      <trkpt lat="45.20787" lon="5.97857">
        <ele>2304.6</ele>
        <time>2021-04-17T07:32:04Z</time>
      </trkpt>
      <trkpt lat="45.20787" lon="5.97857">
        <ele>2304.8</ele>
        <time>2021-04-17T07:32:05Z</time>
      </trkpt>
      <trkpt lat="45.20787" lon="5.97857">
        <ele>2304.8</ele>
        <time>2021-04-17T07:32:07Z</time>
      </trkpt>
      <trkpt lat="45.20787" lon="5.97857">
        <ele>2304.8</ele>
        <time>2021-04-17T07:32:12Z</time>
      </trkpt>
      <trkpt lat="45.20787" lon="5.97858">
        <ele>2305</ele>
        <time>2021-04-17T07:32:16Z</time>
      </trkpt>
      <trkpt lat="45.20787" lon="5.97858">
        <ele>2305.6</ele>
        <time>2021-04-17T07:32:18Z</time>
      </trkpt>
      <trkpt lat="45.20787" lon="5.97859">
        <ele>2306.2</ele>
        <time>2021-04-17T07:32:19Z</time>
      </trkpt>
      <trkpt lat="45.20787" lon="5.97859">
        <ele>2307</ele>
        <time>2021-04-17T07:32:21Z</time>
      </trkpt>
      <trkpt lat="45.20787" lon="5.9786">
        <ele>2307.4</ele>
        <time>2021-04-17T07:32:22Z</time>
      </trkpt>
      <trkpt lat="45.20787" lon="5.9786">
        <ele>2307.8</ele>
        <time>2021-04-17T07:32:23Z</time>
      </trkpt>
      <trkpt lat="45.20787" lon="5.9786">
        <ele>2307.8</ele>
        <time>2021-04-17T07:32:26Z</time>
      </trkpt>
      <trkpt lat="45.20785" lon="5.97861">
        <ele>2307.6</ele>
        <time>2021-04-17T07:32:32Z</time>
      </trkpt>
      <trkpt lat="45.20784" lon="5.97861">
        <ele>2307.8</ele>
        <time>2021-04-17T07:32:38Z</time>
      </trkpt>
      <trkpt lat="45.20782" lon="5.97865">
        <ele>2308</ele>
        <time>2021-04-17T07:32:44Z</time>
      </trkpt>
      <trkpt lat="45.20781" lon="5.97867">
        <ele>2308.4</ele>
        <time>2021-04-17T07:32:48Z</time>
      </trkpt>
      <trkpt lat="45.2078" lon="5.97868">
        <ele>2308.6</ele>
        <time>2021-04-17T07:32:50Z</time>
      </trkpt>
      <trkpt lat="45.20779" lon="5.97869">
        <ele>2309.4</ele>
        <time>2021-04-17T07:32:56Z</time>
      </trkpt>
      <trkpt lat="45.20779" lon="5.9787">
        <ele>2309.6</ele>
        <time>2021-04-17T07:32:57Z</time>
      </trkpt>
      <trkpt lat="45.20778" lon="5.97871">
        <ele>2310.4</ele>
        <time>2021-04-17T07:33:03Z</time>
      </trkpt>
      <trkpt lat="45.20778" lon="5.97872">
        <ele>2310.6</ele>
        <time>2021-04-17T07:33:06Z</time>
      </trkpt>
      <trkpt lat="45.20777" lon="5.97875">
        <ele>2311</ele>
        <time>2021-04-17T07:33:12Z</time>
      </trkpt>
      <trkpt lat="45.20775" lon="5.97877">
        <ele>2312</ele>
        <time>2021-04-17T07:33:17Z</time>
      </trkpt>
      <trkpt lat="45.20774" lon="5.97878">
        <ele>2312.8</ele>
        <time>2021-04-17T07:33:23Z</time>
      </trkpt>
      <trkpt lat="45.20773" lon="5.97878">
        <ele>2313</ele>
        <time>2021-04-17T07:33:24Z</time>
      </trkpt>
      <trkpt lat="45.20772" lon="5.9788">
        <ele>2313.8</ele>
        <time>2021-04-17T07:33:30Z</time>
      </trkpt>
      <trkpt lat="45.20772" lon="5.97881">
        <ele>2314</ele>
        <time>2021-04-17T07:33:32Z</time>
      </trkpt>
      <trkpt lat="45.20771" lon="5.97881">
        <ele>2314</ele>
        <time>2021-04-17T07:33:33Z</time>
      </trkpt>
      <trkpt lat="45.20769" lon="5.97883">
        <ele>2314</ele>
        <time>2021-04-17T07:33:39Z</time>
      </trkpt>
      <trkpt lat="45.20768" lon="5.97884">
        <ele>2314</ele>
        <time>2021-04-17T07:33:45Z</time>
      </trkpt>
      <trkpt lat="45.20767" lon="5.97884">
        <ele>2313.8</ele>
        <time>2021-04-17T07:33:48Z</time>
      </trkpt>
      <trkpt lat="45.20767" lon="5.97884">
        <ele>2313.8</ele>
        <time>2021-04-17T07:33:49Z</time>
      </trkpt>
      <trkpt lat="45.20767" lon="5.97885">
        <ele>2314</ele>
        <time>2021-04-17T07:33:51Z</time>
      </trkpt>
      <trkpt lat="45.20767" lon="5.97885">
        <ele>2314.2</ele>
        <time>2021-04-17T07:33:53Z</time>
      </trkpt>
      <trkpt lat="45.20767" lon="5.97885">
        <ele>2314.2</ele>
        <time>2021-04-17T07:33:54Z</time>
      </trkpt>
      <trkpt lat="45.20767" lon="5.97885">
        <ele>2314.2</ele>
        <time>2021-04-17T07:33:55Z</time>
      </trkpt>
      <trkpt lat="45.20767" lon="5.97885">
        <ele>2314.2</ele>
        <time>2021-04-17T07:33:56Z</time>
      </trkpt>
      <trkpt lat="45.20766" lon="5.97886">
        <ele>2313.6</ele>
        <time>2021-04-17T07:34:01Z</time>
      </trkpt>
      <trkpt lat="45.20765" lon="5.97886">
        <ele>2313.8</ele>
        <time>2021-04-17T07:34:02Z</time>
      </trkpt>
      <trkpt lat="45.20765" lon="5.97887">
        <ele>2313.8</ele>
        <time>2021-04-17T07:34:03Z</time>
      </trkpt>
      <trkpt lat="45.20765" lon="5.97887">
        <ele>2313.8</ele>
        <time>2021-04-17T07:34:04Z</time>
      </trkpt>
      <trkpt lat="45.20765" lon="5.97887">
        <ele>2313.8</ele>
        <time>2021-04-17T07:34:05Z</time>
      </trkpt>
      <trkpt lat="45.20764" lon="5.97887">
        <ele>2313.8</ele>
        <time>2021-04-17T07:34:07Z</time>
      </trkpt>
      <trkpt lat="45.20764" lon="5.97887">
        <ele>2314</ele>
        <time>2021-04-17T07:34:08Z</time>
      </trkpt>
      <trkpt lat="45.20764" lon="5.97887">
        <ele>2314</ele>
        <time>2021-04-17T07:34:09Z</time>
      </trkpt>
      <trkpt lat="45.20763" lon="5.97888">
        <ele>2314</ele>
        <time>2021-04-17T07:34:15Z</time>
      </trkpt>
      <trkpt lat="45.20762" lon="5.97888">
        <ele>2313.8</ele>
        <time>2021-04-17T07:34:21Z</time>
      </trkpt>
      <trkpt lat="45.20761" lon="5.97888">
        <ele>2313.6</ele>
        <time>2021-04-17T07:34:24Z</time>
      </trkpt>
      <trkpt lat="45.20761" lon="5.97888">
        <ele>2313.4</ele>
        <time>2021-04-17T07:34:27Z</time>
      </trkpt>
      <trkpt lat="45.20761" lon="5.97889">
        <ele>2313.4</ele>
        <time>2021-04-17T07:34:29Z</time>
      </trkpt>
      <trkpt lat="45.20761" lon="5.97889">
        <ele>2313.4</ele>
        <time>2021-04-17T07:34:30Z</time>
      </trkpt>
      <trkpt lat="45.2076" lon="5.97889">
        <ele>2314.2</ele>
        <time>2021-04-17T07:34:36Z</time>
      </trkpt>
      <trkpt lat="45.2076" lon="5.97889">
        <ele>2314.2</ele>
        <time>2021-04-17T07:34:39Z</time>
      </trkpt>
      <trkpt lat="45.2076" lon="5.9789">
        <ele>2314.2</ele>
        <time>2021-04-17T07:34:45Z</time>
      </trkpt>
      <trkpt lat="45.20759" lon="5.9789">
        <ele>2314.2</ele>
        <time>2021-04-17T07:34:48Z</time>
      </trkpt>
      <trkpt lat="45.20759" lon="5.9789">
        <ele>2314.2</ele>
        <time>2021-04-17T07:34:51Z</time>
      </trkpt>
      <trkpt lat="45.20759" lon="5.9789">
        <ele>2314.2</ele>
        <time>2021-04-17T07:34:56Z</time>
      </trkpt>
      <trkpt lat="45.20759" lon="5.9789">
        <ele>2314.2</ele>
        <time>2021-04-17T07:35:02Z</time>
      </trkpt>
      <trkpt lat="45.20759" lon="5.9789">
        <ele>2314.2</ele>
        <time>2021-04-17T07:35:08Z</time>
      </trkpt>
      <trkpt lat="45.20759" lon="5.9789">
        <ele>2314.2</ele>
        <time>2021-04-17T07:35:12Z</time>
      </trkpt>
      <trkpt lat="45.20759" lon="5.9789">
        <ele>2314.2</ele>
        <time>2021-04-17T07:35:14Z</time>
      </trkpt>
      <trkpt lat="45.20759" lon="5.9789">
        <ele>2314.2</ele>
        <time>2021-04-17T07:35:15Z</time>
      </trkpt>
      <trkpt lat="45.20759" lon="5.9789">
        <ele>2314.2</ele>
        <time>2021-04-17T07:35:17Z</time>
      </trkpt>
      <trkpt lat="45.20759" lon="5.9789">
        <ele>2314.2</ele>
        <time>2021-04-17T07:35:19Z</time>
      </trkpt>
      <trkpt lat="45.20759" lon="5.9789">
        <ele>2314.2</ele>
        <time>2021-04-17T07:35:22Z</time>
      </trkpt>
      <trkpt lat="45.20759" lon="5.9789">
        <ele>2314.2</ele>
        <time>2021-04-17T07:35:25Z</time>
      </trkpt>
      <trkpt lat="45.20759" lon="5.9789">
        <ele>2314.2</ele>
        <time>2021-04-17T07:35:26Z</time>
      </trkpt>
      <trkpt lat="45.20759" lon="5.9789">
        <ele>2314.2</ele>
        <time>2021-04-17T07:35:27Z</time>
      </trkpt>
      <trkpt lat="45.20759" lon="5.9789">
        <ele>2314.2</ele>
        <time>2021-04-17T07:35:28Z</time>
      </trkpt>
      <trkpt lat="45.20759" lon="5.9789">
        <ele>2314.2</ele>
        <time>2021-04-17T07:35:30Z</time>
      </trkpt>
      <trkpt lat="45.20759" lon="5.9789">
        <ele>2314.2</ele>
        <time>2021-04-17T07:35:32Z</time>
      </trkpt>
      <trkpt lat="45.20759" lon="5.9789">
        <ele>2318.6</ele>
        <time>2021-04-17T07:35:33Z</time>
      </trkpt>
      <trkpt lat="45.20759" lon="5.9789">
        <ele>2319.4</ele>
        <time>2021-04-17T07:35:36Z</time>
      </trkpt>
      <trkpt lat="45.20759" lon="5.9789">
        <ele>2319.2</ele>
        <time>2021-04-17T07:35:41Z</time>
      </trkpt>
      <trkpt lat="45.20759" lon="5.9789">
        <ele>2319.6</ele>
        <time>2021-04-17T07:35:46Z</time>
      </trkpt>
      <trkpt lat="45.20759" lon="5.9789">
        <ele>2320.2</ele>
        <time>2021-04-17T07:35:52Z</time>
      </trkpt>
      <trkpt lat="45.20759" lon="5.9789">
        <ele>2320.6</ele>
        <time>2021-04-17T07:35:57Z</time>
      </trkpt>
      <trkpt lat="45.20759" lon="5.9789">
        <ele>2320.8</ele>
        <time>2021-04-17T07:35:58Z</time>
      </trkpt>
      <trkpt lat="45.20758" lon="5.9789">
        <ele>2321.4</ele>
        <time>2021-04-17T07:36:03Z</time>
      </trkpt>
      <trkpt lat="45.20758" lon="5.9789">
        <ele>2321.8</ele>
        <time>2021-04-17T07:36:06Z</time>
      </trkpt>
      <trkpt lat="45.20758" lon="5.97891">
        <ele>2322.2</ele>
        <time>2021-04-17T07:36:11Z</time>
      </trkpt>
      <trkpt lat="45.20758" lon="5.97891">
        <ele>2322.4</ele>
        <time>2021-04-17T07:36:17Z</time>
      </trkpt>
      <trkpt lat="45.20758" lon="5.97891">
        <ele>2323</ele>
        <time>2021-04-17T07:36:20Z</time>
      </trkpt>
      <trkpt lat="45.20758" lon="5.97891">
        <ele>2324</ele>
        <time>2021-04-17T07:36:25Z</time>
      </trkpt>
      <trkpt lat="45.20758" lon="5.97891">
        <ele>2324.8</ele>
        <time>2021-04-17T07:36:31Z</time>
      </trkpt>
      <trkpt lat="45.20758" lon="5.97891">
        <ele>2325</ele>
        <time>2021-04-17T07:36:35Z</time>
      </trkpt>
      <trkpt lat="45.20758" lon="5.97891">
        <ele>2325.2</ele>
        <time>2021-04-17T07:36:39Z</time>
      </trkpt>
      <trkpt lat="45.20758" lon="5.97891">
        <ele>2325.2</ele>
        <time>2021-04-17T07:36:41Z</time>
      </trkpt>
      <trkpt lat="45.20758" lon="5.97891">
        <ele>2325.2</ele>
        <time>2021-04-17T07:36:42Z</time>
      </trkpt>
      <trkpt lat="45.20757" lon="5.97891">
        <ele>2325.2</ele>
        <time>2021-04-17T07:36:45Z</time>
      </trkpt>
      <trkpt lat="45.20757" lon="5.97892">
        <ele>2326.2</ele>
        <time>2021-04-17T07:36:50Z</time>
      </trkpt>
      <trkpt lat="45.20757" lon="5.97892">
        <ele>2326.8</ele>
        <time>2021-04-17T07:36:52Z</time>
      </trkpt>
      <trkpt lat="45.20757" lon="5.97892">
        <ele>2327.2</ele>
        <time>2021-04-17T07:36:54Z</time>
      </trkpt>
      <trkpt lat="45.20757" lon="5.97892">
        <ele>2328.4</ele>
        <time>2021-04-17T07:36:58Z</time>
      </trkpt>
      <trkpt lat="45.20757" lon="5.97892">
        <ele>2329.2</ele>
        <time>2021-04-17T07:37:01Z</time>
      </trkpt>
      <trkpt lat="45.20757" lon="5.97892">
        <ele>2329.6</ele>
        <time>2021-04-17T07:37:03Z</time>
      </trkpt>
      <trkpt lat="45.20757" lon="5.97892">
        <ele>2330.4</ele>
        <time>2021-04-17T07:37:09Z</time>
      </trkpt>
      <trkpt lat="45.20757" lon="5.97892">
        <ele>2330.8</ele>
        <time>2021-04-17T07:37:12Z</time>
      </trkpt>
      <trkpt lat="45.20756" lon="5.97893">
        <ele>2331.4</ele>
        <time>2021-04-17T07:37:18Z</time>
      </trkpt>
      <trkpt lat="45.20756" lon="5.97893">
        <ele>2331.6</ele>
        <time>2021-04-17T07:37:20Z</time>
      </trkpt>
      <trkpt lat="45.20756" lon="5.97893">
        <ele>2331.8</ele>
        <time>2021-04-17T07:37:25Z</time>
      </trkpt>
      <trkpt lat="45.20756" lon="5.97893">
        <ele>2332.2</ele>
        <time>2021-04-17T07:37:30Z</time>
      </trkpt>
      <trkpt lat="45.20756" lon="5.97893">
        <ele>2332.8</ele>
        <time>2021-04-17T07:37:34Z</time>
      </trkpt>
      <trkpt lat="45.20756" lon="5.97894">
        <ele>2334</ele>
        <time>2021-04-17T07:37:39Z</time>
      </trkpt>
      <trkpt lat="45.20756" lon="5.97894">
        <ele>2334</ele>
        <time>2021-04-17T07:37:41Z</time>
      </trkpt>
      <trkpt lat="45.20755" lon="5.97894">
        <ele>2334</ele>
        <time>2021-04-17T07:37:43Z</time>
      </trkpt>
      <trkpt lat="45.20755" lon="5.97894">
        <ele>2334</ele>
        <time>2021-04-17T07:37:45Z</time>
      </trkpt>
      <trkpt lat="45.20755" lon="5.97894">
        <ele>2334</ele>
        <time>2021-04-17T07:37:47Z</time>
      </trkpt>
      <trkpt lat="45.20755" lon="5.97894">
        <ele>2334</ele>
        <time>2021-04-17T07:37:48Z</time>
      </trkpt>
      <trkpt lat="45.20755" lon="5.97894">
        <ele>2334</ele>
        <time>2021-04-17T07:37:49Z</time>
      </trkpt>
      <trkpt lat="45.20755" lon="5.97894">
        <ele>2334.2</ele>
        <time>2021-04-17T07:37:51Z</time>
      </trkpt>
      <trkpt lat="45.20755" lon="5.97894">
        <ele>2334.4</ele>
        <time>2021-04-17T07:37:57Z</time>
      </trkpt>
      <trkpt lat="45.20755" lon="5.97895">
        <ele>2335</ele>
        <time>2021-04-17T07:38:00Z</time>
      </trkpt>
      <trkpt lat="45.20755" lon="5.97895">
        <ele>2335.6</ele>
        <time>2021-04-17T07:38:04Z</time>
      </trkpt>
      <trkpt lat="45.20754" lon="5.97895">
        <ele>2336</ele>
        <time>2021-04-17T07:38:08Z</time>
      </trkpt>
      <trkpt lat="45.20754" lon="5.97895">
        <ele>2336.4</ele>
        <time>2021-04-17T07:38:14Z</time>
      </trkpt>
      <trkpt lat="45.20754" lon="5.97895">
        <ele>2336.6</ele>
        <time>2021-04-17T07:38:20Z</time>
      </trkpt>
      <trkpt lat="45.20754" lon="5.97896">
        <ele>2336.6</ele>
        <time>2021-04-17T07:38:23Z</time>
      </trkpt>
      <trkpt lat="45.20753" lon="5.97896">
        <ele>2336.6</ele>
        <time>2021-04-17T07:38:28Z</time>
      </trkpt>
      <trkpt lat="45.20753" lon="5.97896">
        <ele>2336.6</ele>
        <time>2021-04-17T07:38:30Z</time>
      </trkpt>
      <trkpt lat="45.20753" lon="5.97896">
        <ele>2336.8</ele>
        <time>2021-04-17T07:38:35Z</time>
      </trkpt>
      <trkpt lat="45.20753" lon="5.97896">
        <ele>2336.8</ele>
        <time>2021-04-17T07:38:36Z</time>
      </trkpt>
      <trkpt lat="45.20753" lon="5.97896">
        <ele>2337</ele>
        <time>2021-04-17T07:38:38Z</time>
      </trkpt>
      <trkpt lat="45.20753" lon="5.97896">
        <ele>2337.4</ele>
        <time>2021-04-17T07:38:41Z</time>
      </trkpt>
      <trkpt lat="45.20752" lon="5.97896">
        <ele>2337.6</ele>
        <time>2021-04-17T07:38:42Z</time>
      </trkpt>
      <trkpt lat="45.20752" lon="5.97897">
        <ele>2337.8</ele>
        <time>2021-04-17T07:38:47Z</time>
      </trkpt>
      <trkpt lat="45.20752" lon="5.97897">
        <ele>2338</ele>
        <time>2021-04-17T07:38:50Z</time>
      </trkpt>
      <trkpt lat="45.20752" lon="5.97897">
        <ele>2338.4</ele>
        <time>2021-04-17T07:38:56Z</time>
      </trkpt>
      <trkpt lat="45.20752" lon="5.97897">
        <ele>2338.6</ele>
        <time>2021-04-17T07:38:57Z</time>
      </trkpt>
      <trkpt lat="45.20751" lon="5.97897">
        <ele>2338.8</ele>
        <time>2021-04-17T07:39:00Z</time>
      </trkpt>
      <trkpt lat="45.20751" lon="5.97897">
        <ele>2339</ele>
        <time>2021-04-17T07:39:03Z</time>
      </trkpt>
      <trkpt lat="45.20751" lon="5.97897">
        <ele>2339</ele>
        <time>2021-04-17T07:39:04Z</time>
      </trkpt>
      <trkpt lat="45.20751" lon="5.97898">
        <ele>2339.6</ele>
        <time>2021-04-17T07:39:07Z</time>
      </trkpt>
      <trkpt lat="45.20751" lon="5.97898">
        <ele>2339.8</ele>
        <time>2021-04-17T07:39:08Z</time>
      </trkpt>
      <trkpt lat="45.20751" lon="5.97898">
        <ele>2340.2</ele>
        <time>2021-04-17T07:39:10Z</time>
      </trkpt>
      <trkpt lat="45.2075" lon="5.97898">
        <ele>2341.2</ele>
        <time>2021-04-17T07:39:16Z</time>
      </trkpt>
      <trkpt lat="45.2075" lon="5.97898">
        <ele>2341.4</ele>
        <time>2021-04-17T07:39:18Z</time>
      </trkpt>
      <trkpt lat="45.2075" lon="5.97898">
        <ele>2342.2</ele>
        <time>2021-04-17T07:39:24Z</time>
      </trkpt>
      <trkpt lat="45.2075" lon="5.97898">
        <ele>2342.2</ele>
        <time>2021-04-17T07:39:25Z</time>
      </trkpt>
      <trkpt lat="45.2075" lon="5.97898">
        <ele>2342.4</ele>
        <time>2021-04-17T07:39:27Z</time>
      </trkpt>
      <trkpt lat="45.20749" lon="5.97899">
        <ele>2342.8</ele>
        <time>2021-04-17T07:39:33Z</time>
      </trkpt>
      <trkpt lat="45.20749" lon="5.97899">
        <ele>2342.6</ele>
        <time>2021-04-17T07:39:36Z</time>
      </trkpt>
      <trkpt lat="45.20749" lon="5.97899">
        <ele>2342.6</ele>
        <time>2021-04-17T07:39:41Z</time>
      </trkpt>
      <trkpt lat="45.20749" lon="5.97899">
        <ele>2343</ele>
        <time>2021-04-17T07:39:44Z</time>
      </trkpt>
      <trkpt lat="45.20748" lon="5.97899">
        <ele>2343.4</ele>
        <time>2021-04-17T07:39:46Z</time>
      </trkpt>
      <trkpt lat="45.20748" lon="5.979">
        <ele>2344</ele>
        <time>2021-04-17T07:39:50Z</time>
      </trkpt>
      <trkpt lat="45.20748" lon="5.979">
        <ele>2344.4</ele>
        <time>2021-04-17T07:39:52Z</time>
      </trkpt>
      <trkpt lat="45.20748" lon="5.979">
        <ele>2345.4</ele>
        <time>2021-04-17T07:39:56Z</time>
      </trkpt>
      <trkpt lat="45.20748" lon="5.979">
        <ele>2345.6</ele>
        <time>2021-04-17T07:39:57Z</time>
      </trkpt>
      <trkpt lat="45.20747" lon="5.979">
        <ele>2346.8</ele>
        <time>2021-04-17T07:40:03Z</time>
      </trkpt>
      <trkpt lat="45.20747" lon="5.979">
        <ele>2347.8</ele>
        <time>2021-04-17T07:40:07Z</time>
      </trkpt>
      <trkpt lat="45.20747" lon="5.979">
        <ele>2348.8</ele>
        <time>2021-04-17T07:40:10Z</time>
      </trkpt>
      <trkpt lat="45.20747" lon="5.97901">
        <ele>2349.4</ele>
        <time>2021-04-17T07:40:13Z</time>
      </trkpt>
      <trkpt lat="45.20746" lon="5.97901">
        <ele>2349.8</ele>
        <time>2021-04-17T07:40:16Z</time>
      </trkpt>
      <trkpt lat="45.20746" lon="5.97901">
        <ele>2350.2</ele>
        <time>2021-04-17T07:40:20Z</time>
      </trkpt>
      <trkpt lat="45.20746" lon="5.97901">
        <ele>2350.8</ele>
        <time>2021-04-17T07:40:26Z</time>
      </trkpt>
      <trkpt lat="45.20745" lon="5.97901">
        <ele>2351</ele>
        <time>2021-04-17T07:40:27Z</time>
      </trkpt>
      <trkpt lat="45.20745" lon="5.97902">
        <ele>2351</ele>
        <time>2021-04-17T07:40:29Z</time>
      </trkpt>
      <trkpt lat="45.20745" lon="5.97902">
        <ele>2351.2</ele>
        <time>2021-04-17T07:40:33Z</time>
      </trkpt>
      <trkpt lat="45.20745" lon="5.97902">
        <ele>2351.4</ele>
        <time>2021-04-17T07:40:36Z</time>
      </trkpt>
      <trkpt lat="45.20745" lon="5.97902">
        <ele>2351.4</ele>
        <time>2021-04-17T07:40:38Z</time>
      </trkpt>
      <trkpt lat="45.20744" lon="5.97902">
        <ele>2351.4</ele>
        <time>2021-04-17T07:40:40Z</time>
      </trkpt>
      <trkpt lat="45.20744" lon="5.97902">
        <ele>2352</ele>
        <time>2021-04-17T07:40:45Z</time>
      </trkpt>
      <trkpt lat="45.20744" lon="5.97903">
        <ele>2352.2</ele>
        <time>2021-04-17T07:40:47Z</time>
      </trkpt>
      <trkpt lat="45.20744" lon="5.97903">
        <ele>2352.2</ele>
        <time>2021-04-17T07:40:49Z</time>
      </trkpt>
      <trkpt lat="45.20744" lon="5.97903">
        <ele>2352.6</ele>
        <time>2021-04-17T07:40:51Z</time>
      </trkpt>
      <trkpt lat="45.20743" lon="5.97903">
        <ele>2352.6</ele>
        <time>2021-04-17T07:40:52Z</time>
      </trkpt>
      <trkpt lat="45.20743" lon="5.97903">
        <ele>2353.2</ele>
        <time>2021-04-17T07:40:55Z</time>
      </trkpt>
      <trkpt lat="45.20743" lon="5.97903">
        <ele>2353.8</ele>
        <time>2021-04-17T07:41:00Z</time>
      </trkpt>
      <trkpt lat="45.20742" lon="5.97904">
        <ele>2353.8</ele>
        <time>2021-04-17T07:41:04Z</time>
      </trkpt>
      <trkpt lat="45.20742" lon="5.97904">
        <ele>2353.8</ele>
        <time>2021-04-17T07:41:05Z</time>
      </trkpt>
      <trkpt lat="45.20742" lon="5.97904">
        <ele>2353.8</ele>
        <time>2021-04-17T07:41:11Z</time>
      </trkpt>
      <trkpt lat="45.20741" lon="5.97904">
        <ele>2353.4</ele>
        <time>2021-04-17T07:41:17Z</time>
      </trkpt>
      <trkpt lat="45.20741" lon="5.97904">
        <ele>2353.2</ele>
        <time>2021-04-17T07:41:21Z</time>
      </trkpt>
      <trkpt lat="45.20741" lon="5.97905">
        <ele>2353</ele>
        <time>2021-04-17T07:41:22Z</time>
      </trkpt>
      <trkpt lat="45.20741" lon="5.97905">
        <ele>2353.2</ele>
        <time>2021-04-17T07:41:24Z</time>
      </trkpt>
      <trkpt lat="45.20741" lon="5.97905">
        <ele>2353.2</ele>
        <time>2021-04-17T07:41:25Z</time>
      </trkpt>
      <trkpt lat="45.20741" lon="5.97905">
        <ele>2353.6</ele>
        <time>2021-04-17T07:41:27Z</time>
      </trkpt>
      <trkpt lat="45.2074" lon="5.97905">
        <ele>2354</ele>
        <time>2021-04-17T07:41:32Z</time>
      </trkpt>
      <trkpt lat="45.2074" lon="5.97905">
        <ele>2354.2</ele>
        <time>2021-04-17T07:41:33Z</time>
      </trkpt>
      <trkpt lat="45.2074" lon="5.97905">
        <ele>2354.2</ele>
        <time>2021-04-17T07:41:34Z</time>
      </trkpt>
      <trkpt lat="45.2074" lon="5.97905">
        <ele>2354.2</ele>
        <time>2021-04-17T07:41:35Z</time>
      </trkpt>
      <trkpt lat="45.2074" lon="5.97905">
        <ele>2354.4</ele>
        <time>2021-04-17T07:41:36Z</time>
      </trkpt>
      <trkpt lat="45.2074" lon="5.97905">
        <ele>2355</ele>
        <time>2021-04-17T07:41:38Z</time>
      </trkpt>
      <trkpt lat="45.2074" lon="5.97905">
        <ele>2355.2</ele>
        <time>2021-04-17T07:41:39Z</time>
      </trkpt>
      <trkpt lat="45.2074" lon="5.97905">
        <ele>2355.2</ele>
        <time>2021-04-17T07:41:40Z</time>
      </trkpt>
      <trkpt lat="45.2074" lon="5.97906">
        <ele>2355.6</ele>
        <time>2021-04-17T07:41:42Z</time>
      </trkpt>
      <trkpt lat="45.20739" lon="5.97906">
        <ele>2356.2</ele>
        <time>2021-04-17T07:41:44Z</time>
      </trkpt>
      <trkpt lat="45.20739" lon="5.97906">
        <ele>2356.6</ele>
        <time>2021-04-17T07:41:45Z</time>
      </trkpt>
      <trkpt lat="45.20739" lon="5.97906">
        <ele>2356.8</ele>
        <time>2021-04-17T07:41:47Z</time>
      </trkpt>
      <trkpt lat="45.20739" lon="5.97906">
        <ele>2356.8</ele>
        <time>2021-04-17T07:41:49Z</time>
      </trkpt>
      <trkpt lat="45.20739" lon="5.97906">
        <ele>2357.4</ele>
        <time>2021-04-17T07:41:54Z</time>
      </trkpt>
      <trkpt lat="45.20738" lon="5.97907">
        <ele>2357.8</ele>
        <time>2021-04-17T07:41:58Z</time>
      </trkpt>
      <trkpt lat="45.20738" lon="5.97907">
        <ele>2358.4</ele>
        <time>2021-04-17T07:42:01Z</time>
      </trkpt>
      <trkpt lat="45.20738" lon="5.97907">
        <ele>2358.6</ele>
        <time>2021-04-17T07:42:02Z</time>
      </trkpt>
      <trkpt lat="45.20738" lon="5.97907">
        <ele>2359.4</ele>
        <time>2021-04-17T07:42:08Z</time>
      </trkpt>
      <trkpt lat="45.20737" lon="5.97908">
        <ele>2359.4</ele>
        <time>2021-04-17T07:42:12Z</time>
      </trkpt>
      <trkpt lat="45.20737" lon="5.97908">
        <ele>2359.6</ele>
        <time>2021-04-17T07:42:13Z</time>
      </trkpt>
      <trkpt lat="45.20737" lon="5.97908">
        <ele>2360.4</ele>
        <time>2021-04-17T07:42:19Z</time>
      </trkpt>
      <trkpt lat="45.20737" lon="5.97908">
        <ele>2360.6</ele>
        <time>2021-04-17T07:42:20Z</time>
      </trkpt>
      <trkpt lat="45.20736" lon="5.97909">
        <ele>2360.6</ele>
        <time>2021-04-17T07:42:26Z</time>
      </trkpt>
      <trkpt lat="45.20736" lon="5.97909">
        <ele>2360.6</ele>
        <time>2021-04-17T07:42:30Z</time>
      </trkpt>
      <trkpt lat="45.20736" lon="5.97909">
        <ele>2361.6</ele>
        <time>2021-04-17T07:42:36Z</time>
      </trkpt>
      <trkpt lat="45.20736" lon="5.97909">
        <ele>2361.6</ele>
        <time>2021-04-17T07:42:37Z</time>
      </trkpt>
      <trkpt lat="45.20735" lon="5.9791">
        <ele>2362.8</ele>
        <time>2021-04-17T07:42:42Z</time>
      </trkpt>
      <trkpt lat="45.20735" lon="5.9791">
        <ele>2363.4</ele>
        <time>2021-04-17T07:42:48Z</time>
      </trkpt>
      <trkpt lat="45.20735" lon="5.97911">
        <ele>2364</ele>
        <time>2021-04-17T07:42:51Z</time>
      </trkpt>
      <trkpt lat="45.20734" lon="5.97911">
        <ele>2365.2</ele>
        <time>2021-04-17T07:42:55Z</time>
      </trkpt>
      <trkpt lat="45.20734" lon="5.97911">
        <ele>2365.6</ele>
        <time>2021-04-17T07:43:01Z</time>
      </trkpt>
      <trkpt lat="45.20734" lon="5.97912">
        <ele>2365.6</ele>
        <time>2021-04-17T07:43:07Z</time>
      </trkpt>
      <trkpt lat="45.20733" lon="5.97912">
        <ele>2366.2</ele>
        <time>2021-04-17T07:43:13Z</time>
      </trkpt>
      <trkpt lat="45.20733" lon="5.97913">
        <ele>2366.8</ele>
        <time>2021-04-17T07:43:19Z</time>
      </trkpt>
      <trkpt lat="45.20732" lon="5.97913">
        <ele>2367.4</ele>
        <time>2021-04-17T07:43:23Z</time>
      </trkpt>
      <trkpt lat="45.20732" lon="5.97914">
        <ele>2367.6</ele>
        <time>2021-04-17T07:43:27Z</time>
      </trkpt>
      <trkpt lat="45.20732" lon="5.97914">
        <ele>2367.8</ele>
        <time>2021-04-17T07:43:29Z</time>
      </trkpt>
      <trkpt lat="45.20732" lon="5.97914">
        <ele>2368</ele>
        <time>2021-04-17T07:43:31Z</time>
      </trkpt>
      <trkpt lat="45.20732" lon="5.97914">
        <ele>2368.4</ele>
        <time>2021-04-17T07:43:36Z</time>
      </trkpt>
      <trkpt lat="45.20731" lon="5.97915">
        <ele>2368.6</ele>
        <time>2021-04-17T07:43:42Z</time>
      </trkpt>
      <trkpt lat="45.20731" lon="5.97915">
        <ele>2368.8</ele>
        <time>2021-04-17T07:43:44Z</time>
      </trkpt>
      <trkpt lat="45.20731" lon="5.97916">
        <ele>2369.2</ele>
        <time>2021-04-17T07:43:50Z</time>
      </trkpt>
      <trkpt lat="45.20731" lon="5.97916">
        <ele>2369.4</ele>
        <time>2021-04-17T07:43:51Z</time>
      </trkpt>
      <trkpt lat="45.2073" lon="5.97916">
        <ele>2370.4</ele>
        <time>2021-04-17T07:43:54Z</time>
      </trkpt>
      <trkpt lat="45.2073" lon="5.97916">
        <ele>2370.8</ele>
        <time>2021-04-17T07:43:57Z</time>
      </trkpt>
      <trkpt lat="45.2073" lon="5.97917">
        <ele>2371.4</ele>
        <time>2021-04-17T07:44:01Z</time>
      </trkpt>
      <trkpt lat="45.2073" lon="5.97917">
        <ele>2372.6</ele>
        <time>2021-04-17T07:44:07Z</time>
      </trkpt>
      <trkpt lat="45.20729" lon="5.97917">
        <ele>2372.8</ele>
        <time>2021-04-17T07:44:12Z</time>
      </trkpt>
      <trkpt lat="45.20729" lon="5.97918">
        <ele>2373.4</ele>
        <time>2021-04-17T07:44:18Z</time>
      </trkpt>
      <trkpt lat="45.20729" lon="5.97918">
        <ele>2373.6</ele>
        <time>2021-04-17T07:44:19Z</time>
      </trkpt>
      <trkpt lat="45.20729" lon="5.97919">
        <ele>2373.8</ele>
        <time>2021-04-17T07:44:25Z</time>
      </trkpt>
      <trkpt lat="45.20728" lon="5.97919">
        <ele>2373.8</ele>
        <time>2021-04-17T07:44:28Z</time>
      </trkpt>
      <trkpt lat="45.20728" lon="5.97919">
        <ele>2373.8</ele>
        <time>2021-04-17T07:44:29Z</time>
      </trkpt>
      <trkpt lat="45.20728" lon="5.97919">
        <ele>2373.8</ele>
        <time>2021-04-17T07:44:31Z</time>
      </trkpt>
      <trkpt lat="45.20728" lon="5.97919">
        <ele>2374</ele>
        <time>2021-04-17T07:44:32Z</time>
      </trkpt>
      <trkpt lat="45.20728" lon="5.97919">
        <ele>2374</ele>
        <time>2021-04-17T07:44:33Z</time>
      </trkpt>
      <trkpt lat="45.20728" lon="5.97919">
        <ele>2374</ele>
        <time>2021-04-17T07:44:34Z</time>
      </trkpt>
      <trkpt lat="45.20728" lon="5.9792">
        <ele>2374.4</ele>
        <time>2021-04-17T07:44:38Z</time>
      </trkpt>
      <trkpt lat="45.20728" lon="5.9792">
        <ele>2374.6</ele>
        <time>2021-04-17T07:44:40Z</time>
      </trkpt>
      <trkpt lat="45.20727" lon="5.9792">
        <ele>2374.6</ele>
        <time>2021-04-17T07:44:42Z</time>
      </trkpt>
      <trkpt lat="45.20727" lon="5.97921">
        <ele>2375</ele>
        <time>2021-04-17T07:44:48Z</time>
      </trkpt>
      <trkpt lat="45.20727" lon="5.97921">
        <ele>2375.6</ele>
        <time>2021-04-17T07:44:54Z</time>
      </trkpt>
      <trkpt lat="45.20727" lon="5.97921">
        <ele>2376</ele>
        <time>2021-04-17T07:44:57Z</time>
      </trkpt>
      <trkpt lat="45.20726" lon="5.97922">
        <ele>2377</ele>
        <time>2021-04-17T07:45:01Z</time>
      </trkpt>
      <trkpt lat="45.20726" lon="5.97922">
        <ele>2377.4</ele>
        <time>2021-04-17T07:45:02Z</time>
      </trkpt>
      <trkpt lat="45.20726" lon="5.97922">
        <ele>2378</ele>
        <time>2021-04-17T07:45:04Z</time>
      </trkpt>
      <trkpt lat="45.20726" lon="5.97922">
        <ele>2378.6</ele>
        <time>2021-04-17T07:45:06Z</time>
      </trkpt>
      <trkpt lat="45.20726" lon="5.97923">
        <ele>2378.8</ele>
        <time>2021-04-17T07:45:09Z</time>
      </trkpt>
      <trkpt lat="45.20726" lon="5.97923">
        <ele>2379</ele>
        <time>2021-04-17T07:45:11Z</time>
      </trkpt>
      <trkpt lat="45.20726" lon="5.97923">
        <ele>2379</ele>
        <time>2021-04-17T07:45:14Z</time>
      </trkpt>
      <trkpt lat="45.20725" lon="5.97924">
        <ele>2379.2</ele>
        <time>2021-04-17T07:45:20Z</time>
      </trkpt>
      <trkpt lat="45.20725" lon="5.97924">
        <ele>2379.2</ele>
        <time>2021-04-17T07:45:22Z</time>
      </trkpt>
      <trkpt lat="45.20725" lon="5.97924">
        <ele>2379.2</ele>
        <time>2021-04-17T07:45:24Z</time>
      </trkpt>
      <trkpt lat="45.20725" lon="5.97924">
        <ele>2379.2</ele>
        <time>2021-04-17T07:45:27Z</time>
      </trkpt>
      <trkpt lat="45.20725" lon="5.97924">
        <ele>2379.2</ele>
        <time>2021-04-17T07:45:28Z</time>
      </trkpt>
      <trkpt lat="45.20725" lon="5.97925">
        <ele>2379.8</ele>
        <time>2021-04-17T07:45:33Z</time>
      </trkpt>
      <trkpt lat="45.20724" lon="5.97925">
        <ele>2379.8</ele>
        <time>2021-04-17T07:45:36Z</time>
      </trkpt>
      <trkpt lat="45.20724" lon="5.97925">
        <ele>2380</ele>
        <time>2021-04-17T07:45:37Z</time>
      </trkpt>
      <trkpt lat="45.20724" lon="5.97926">
        <ele>2380.2</ele>
        <time>2021-04-17T07:45:38Z</time>
      </trkpt>
      <trkpt lat="45.20724" lon="5.97926">
        <ele>2380.4</ele>
        <time>2021-04-17T07:45:40Z</time>
      </trkpt>
      <trkpt lat="45.20724" lon="5.97926">
        <ele>2380.4</ele>
        <time>2021-04-17T07:45:46Z</time>
      </trkpt>
      <trkpt lat="45.20724" lon="5.97927">
        <ele>2379.8</ele>
        <time>2021-04-17T07:45:48Z</time>
      </trkpt>
      <trkpt lat="45.20724" lon="5.97927">
        <ele>2379.2</ele>
        <time>2021-04-17T07:45:50Z</time>
      </trkpt>
      <trkpt lat="45.20724" lon="5.97927">
        <ele>2378.8</ele>
        <time>2021-04-17T07:45:51Z</time>
      </trkpt>
      <trkpt lat="45.20723" lon="5.97927">
        <ele>2378.2</ele>
        <time>2021-04-17T07:45:56Z</time>
      </trkpt>
      <trkpt lat="45.20723" lon="5.97928">
        <ele>2378.2</ele>
        <time>2021-04-17T07:46:00Z</time>
      </trkpt>
      <trkpt lat="45.20723" lon="5.97928">
        <ele>2378.2</ele>
        <time>2021-04-17T07:46:01Z</time>
      </trkpt>
      <trkpt lat="45.20723" lon="5.97928">
        <ele>2378.2</ele>
        <time>2021-04-17T07:46:02Z</time>
      </trkpt>
      <trkpt lat="45.20723" lon="5.97928">
        <ele>2378.2</ele>
        <time>2021-04-17T07:46:03Z</time>
      </trkpt>
      <trkpt lat="45.20723" lon="5.97928">
        <ele>2378.4</ele>
        <time>2021-04-17T07:46:04Z</time>
      </trkpt>
      <trkpt lat="45.20723" lon="5.97929">
        <ele>2380</ele>
        <time>2021-04-17T07:46:08Z</time>
      </trkpt>
      <trkpt lat="45.20723" lon="5.97929">
        <ele>2380.2</ele>
        <time>2021-04-17T07:46:09Z</time>
      </trkpt>
      <trkpt lat="45.20723" lon="5.97929">
        <ele>2380.2</ele>
        <time>2021-04-17T07:46:10Z</time>
      </trkpt>
      <trkpt lat="45.20723" lon="5.97929">
        <ele>2380</ele>
        <time>2021-04-17T07:46:11Z</time>
      </trkpt>
      <trkpt lat="45.20723" lon="5.97929">
        <ele>2380</ele>
        <time>2021-04-17T07:46:12Z</time>
      </trkpt>
      <trkpt lat="45.20723" lon="5.97929">
        <ele>2379.8</ele>
        <time>2021-04-17T07:46:13Z</time>
      </trkpt>
      <trkpt lat="45.20722" lon="5.97929">
        <ele>2379.8</ele>
        <time>2021-04-17T07:46:16Z</time>
      </trkpt>
      <trkpt lat="45.20722" lon="5.9793">
        <ele>2379.8</ele>
        <time>2021-04-17T07:46:17Z</time>
      </trkpt>
      <trkpt lat="45.20722" lon="5.9793">
        <ele>2379.6</ele>
        <time>2021-04-17T07:46:23Z</time>
      </trkpt>
      <trkpt lat="45.20722" lon="5.9793">
        <ele>2379.4</ele>
        <time>2021-04-17T07:46:24Z</time>
      </trkpt>
      <trkpt lat="45.20722" lon="5.9793">
        <ele>2379.2</ele>
        <time>2021-04-17T07:46:26Z</time>
      </trkpt>
      <trkpt lat="45.20722" lon="5.97931">
        <ele>2379.4</ele>
        <time>2021-04-17T07:46:28Z</time>
      </trkpt>
      <trkpt lat="45.20722" lon="5.97931">
        <ele>2379.4</ele>
        <time>2021-04-17T07:46:29Z</time>
      </trkpt>
      <trkpt lat="45.20722" lon="5.97931">
        <ele>2379.4</ele>
        <time>2021-04-17T07:46:31Z</time>
      </trkpt>
      <trkpt lat="45.20722" lon="5.97931">
        <ele>2379.6</ele>
        <time>2021-04-17T07:46:33Z</time>
      </trkpt>
      <trkpt lat="45.20722" lon="5.97931">
        <ele>2379.8</ele>
        <time>2021-04-17T07:46:34Z</time>
      </trkpt>
      <trkpt lat="45.20721" lon="5.97931">
        <ele>2380.2</ele>
        <time>2021-04-17T07:46:35Z</time>
      </trkpt>
      <trkpt lat="45.20721" lon="5.97931">
        <ele>2380.4</ele>
        <time>2021-04-17T07:46:36Z</time>
      </trkpt>
      <trkpt lat="45.20721" lon="5.97931">
        <ele>2380.6</ele>
        <time>2021-04-17T07:46:37Z</time>
      </trkpt>
      <trkpt lat="45.20721" lon="5.97932">
        <ele>2380.6</ele>
        <time>2021-04-17T07:46:38Z</time>
      </trkpt>
      <trkpt lat="45.20721" lon="5.97932">
        <ele>2380.8</ele>
        <time>2021-04-17T07:46:39Z</time>
      </trkpt>
      <trkpt lat="45.20721" lon="5.97932">
        <ele>2381</ele>
        <time>2021-04-17T07:46:41Z</time>
      </trkpt>
      <trkpt lat="45.20721" lon="5.97932">
        <ele>2380.8</ele>
        <time>2021-04-17T07:46:43Z</time>
      </trkpt>
      <trkpt lat="45.20721" lon="5.97932">
        <ele>2381.2</ele>
        <time>2021-04-17T07:46:44Z</time>
      </trkpt>
      <trkpt lat="45.20721" lon="5.97932">
        <ele>2381.4</ele>
        <time>2021-04-17T07:46:46Z</time>
      </trkpt>
      <trkpt lat="45.20721" lon="5.97932">
        <ele>2380.8</ele>
        <time>2021-04-17T07:46:47Z</time>
      </trkpt>
      <trkpt lat="45.20721" lon="5.97932">
        <ele>2380.8</ele>
        <time>2021-04-17T07:46:48Z</time>
      </trkpt>
      <trkpt lat="45.20721" lon="5.97932">
        <ele>2380.8</ele>
        <time>2021-04-17T07:46:49Z</time>
      </trkpt>
      <trkpt lat="45.20721" lon="5.97933">
        <ele>2379.6</ele>
        <time>2021-04-17T07:46:52Z</time>
      </trkpt>
      <trkpt lat="45.20721" lon="5.97933">
        <ele>2378.2</ele>
        <time>2021-04-17T07:46:54Z</time>
      </trkpt>
      <trkpt lat="45.20721" lon="5.97933">
        <ele>2377.8</ele>
        <time>2021-04-17T07:46:55Z</time>
      </trkpt>
      <trkpt lat="45.2072" lon="5.97933">
        <ele>2377.2</ele>
        <time>2021-04-17T07:46:58Z</time>
      </trkpt>
      <trkpt lat="45.2072" lon="5.97933">
        <ele>2377.2</ele>
        <time>2021-04-17T07:46:59Z</time>
      </trkpt>
      <trkpt lat="45.2072" lon="5.97934">
        <ele>2377.4</ele>
        <time>2021-04-17T07:47:04Z</time>
      </trkpt>
      <trkpt lat="45.2072" lon="5.97934">
        <ele>2377.4</ele>
        <time>2021-04-17T07:47:05Z</time>
      </trkpt>
      <trkpt lat="45.2072" lon="5.97934">
        <ele>2377.4</ele>
        <time>2021-04-17T07:47:06Z</time>
      </trkpt>
      <trkpt lat="45.2072" lon="5.97934">
        <ele>2377.6</ele>
        <time>2021-04-17T07:47:08Z</time>
      </trkpt>
      <trkpt lat="45.2072" lon="5.97934">
        <ele>2378.2</ele>
        <time>2021-04-17T07:47:10Z</time>
      </trkpt>
      <trkpt lat="45.2072" lon="5.97935">
        <ele>2379.4</ele>
        <time>2021-04-17T07:47:15Z</time>
      </trkpt>
      <trkpt lat="45.2072" lon="5.97935">
        <ele>2379.6</ele>
        <time>2021-04-17T07:47:19Z</time>
      </trkpt>
      <trkpt lat="45.2072" lon="5.97935">
        <ele>2378.8</ele>
        <time>2021-04-17T07:47:21Z</time>
      </trkpt>
      <trkpt lat="45.20719" lon="5.97935">
        <ele>2378.4</ele>
        <time>2021-04-17T07:47:22Z</time>
      </trkpt>
      <trkpt lat="45.20719" lon="5.97936">
        <ele>2377.2</ele>
        <time>2021-04-17T07:47:26Z</time>
      </trkpt>
      <trkpt lat="45.20719" lon="5.97936">
        <ele>2376.6</ele>
        <time>2021-04-17T07:47:32Z</time>
      </trkpt>
      <trkpt lat="45.20719" lon="5.97937">
        <ele>2376.8</ele>
        <time>2021-04-17T07:47:35Z</time>
      </trkpt>
      <trkpt lat="45.20719" lon="5.97937">
        <ele>2377</ele>
        <time>2021-04-17T07:47:36Z</time>
      </trkpt>
      <trkpt lat="45.20719" lon="5.97937">
        <ele>2377</ele>
        <time>2021-04-17T07:47:37Z</time>
      </trkpt>
      <trkpt lat="45.20719" lon="5.97937">
        <ele>2377.2</ele>
        <time>2021-04-17T07:47:39Z</time>
      </trkpt>
      <trkpt lat="45.20719" lon="5.97937">
        <ele>2377</ele>
        <time>2021-04-17T07:47:40Z</time>
      </trkpt>
      <trkpt lat="45.20719" lon="5.97937">
        <ele>2376.2</ele>
        <time>2021-04-17T07:47:45Z</time>
      </trkpt>
      <trkpt lat="45.20718" lon="5.97938">
        <ele>2376.2</ele>
        <time>2021-04-17T07:47:46Z</time>
      </trkpt>
      <trkpt lat="45.20718" lon="5.97938">
        <ele>2376.2</ele>
        <time>2021-04-17T07:47:47Z</time>
      </trkpt>
      <trkpt lat="45.20718" lon="5.97938">
        <ele>2376</ele>
        <time>2021-04-17T07:47:49Z</time>
      </trkpt>
      <trkpt lat="45.20718" lon="5.97938">
        <ele>2375.8</ele>
        <time>2021-04-17T07:47:51Z</time>
      </trkpt>
      <trkpt lat="45.20718" lon="5.97938">
        <ele>2375.6</ele>
        <time>2021-04-17T07:47:54Z</time>
      </trkpt>
      <trkpt lat="45.20718" lon="5.97938">
        <ele>2375.4</ele>
        <time>2021-04-17T07:47:57Z</time>
      </trkpt>
      <trkpt lat="45.20718" lon="5.97939">
        <ele>2375</ele>
        <time>2021-04-17T07:47:59Z</time>
      </trkpt>
      <trkpt lat="45.20718" lon="5.97939">
        <ele>2374.6</ele>
        <time>2021-04-17T07:48:04Z</time>
      </trkpt>
      <trkpt lat="45.20717" lon="5.97939">
        <ele>2374</ele>
        <time>2021-04-17T07:48:10Z</time>
      </trkpt>
      <trkpt lat="45.20717" lon="5.9794">
        <ele>2373</ele>
        <time>2021-04-17T07:48:14Z</time>
      </trkpt>
      <trkpt lat="45.20717" lon="5.9794">
        <ele>2372.4</ele>
        <time>2021-04-17T07:48:20Z</time>
      </trkpt>
      <trkpt lat="45.20717" lon="5.97941">
        <ele>2372.8</ele>
        <time>2021-04-17T07:48:24Z</time>
      </trkpt>
      <trkpt lat="45.20717" lon="5.97941">
        <ele>2372.8</ele>
        <time>2021-04-17T07:48:28Z</time>
      </trkpt>
      <trkpt lat="45.20716" lon="5.97941">
        <ele>2372.6</ele>
        <time>2021-04-17T07:48:30Z</time>
      </trkpt>
      <trkpt lat="45.20716" lon="5.97941">
        <ele>2372.2</ele>
        <time>2021-04-17T07:48:34Z</time>
      </trkpt>
      <trkpt lat="45.20716" lon="5.97941">
        <ele>2371.8</ele>
        <time>2021-04-17T07:48:36Z</time>
      </trkpt>
      <trkpt lat="45.20716" lon="5.97942">
        <ele>2371.2</ele>
        <time>2021-04-17T07:48:38Z</time>
      </trkpt>
      <trkpt lat="45.20716" lon="5.97942">
        <ele>2371</ele>
        <time>2021-04-17T07:48:40Z</time>
      </trkpt>
      <trkpt lat="45.20716" lon="5.97942">
        <ele>2371.2</ele>
        <time>2021-04-17T07:48:41Z</time>
      </trkpt>
      <trkpt lat="45.20716" lon="5.97942">
        <ele>2370.8</ele>
        <time>2021-04-17T07:48:43Z</time>
      </trkpt>
      <trkpt lat="45.20716" lon="5.97942">
        <ele>2370.6</ele>
        <time>2021-04-17T07:48:44Z</time>
      </trkpt>
      <trkpt lat="45.20716" lon="5.97942">
        <ele>2370.2</ele>
        <time>2021-04-17T07:48:46Z</time>
      </trkpt>
      <trkpt lat="45.20716" lon="5.97942">
        <ele>2370</ele>
        <time>2021-04-17T07:48:47Z</time>
      </trkpt>
      <trkpt lat="45.20715" lon="5.97942">
        <ele>2369.4</ele>
        <time>2021-04-17T07:48:49Z</time>
      </trkpt>
      <trkpt lat="45.20715" lon="5.97943">
        <ele>2368.6</ele>
        <time>2021-04-17T07:48:55Z</time>
      </trkpt>
      <trkpt lat="45.20715" lon="5.97943">
        <ele>2368.2</ele>
        <time>2021-04-17T07:48:56Z</time>
      </trkpt>
      <trkpt lat="45.20715" lon="5.97943">
        <ele>2367.4</ele>
        <time>2021-04-17T07:49:02Z</time>
      </trkpt>
      <trkpt lat="45.20715" lon="5.97944">
        <ele>2366.8</ele>
        <time>2021-04-17T07:49:04Z</time>
      </trkpt>
      <trkpt lat="45.20715" lon="5.97944">
        <ele>2366</ele>
        <time>2021-04-17T07:49:07Z</time>
      </trkpt>
      <trkpt lat="45.20715" lon="5.97944">
        <ele>2365.6</ele>
        <time>2021-04-17T07:49:08Z</time>
      </trkpt>
      <trkpt lat="45.20714" lon="5.97944">
        <ele>2365.2</ele>
        <time>2021-04-17T07:49:09Z</time>
      </trkpt>
      <trkpt lat="45.20714" lon="5.97944">
        <ele>2364.2</ele>
        <time>2021-04-17T07:49:12Z</time>
      </trkpt>
      <trkpt lat="45.20714" lon="5.97944">
        <ele>2363.2</ele>
        <time>2021-04-17T07:49:16Z</time>
      </trkpt>
      <trkpt lat="45.20714" lon="5.97945">
        <ele>2362.2</ele>
        <time>2021-04-17T07:49:20Z</time>
      </trkpt>
      <trkpt lat="45.20714" lon="5.97945">
        <ele>2360.8</ele>
        <time>2021-04-17T07:49:23Z</time>
      </trkpt>
      <trkpt lat="45.20714" lon="5.97945">
        <ele>2359.8</ele>
        <time>2021-04-17T07:49:27Z</time>
      </trkpt>
      <trkpt lat="45.20713" lon="5.97946">
        <ele>2358.6</ele>
        <time>2021-04-17T07:49:32Z</time>
      </trkpt>
      <trkpt lat="45.20713" lon="5.97946">
        <ele>2358</ele>
        <time>2021-04-17T07:49:35Z</time>
      </trkpt>
      <trkpt lat="45.20713" lon="5.97946">
        <ele>2358.2</ele>
        <time>2021-04-17T07:49:38Z</time>
      </trkpt>
      <trkpt lat="45.20712" lon="5.97947">
        <ele>2359</ele>
        <time>2021-04-17T07:49:44Z</time>
      </trkpt>
      <trkpt lat="45.20712" lon="5.97947">
        <ele>2357.8</ele>
        <time>2021-04-17T07:49:48Z</time>
      </trkpt>
      <trkpt lat="45.20712" lon="5.97947">
        <ele>2357.6</ele>
        <time>2021-04-17T07:49:49Z</time>
      </trkpt>
      <trkpt lat="45.20712" lon="5.97947">
        <ele>2357.4</ele>
        <time>2021-04-17T07:49:51Z</time>
      </trkpt>
      <trkpt lat="45.20712" lon="5.97947">
        <ele>2357.6</ele>
        <time>2021-04-17T07:49:53Z</time>
      </trkpt>
      <trkpt lat="45.20712" lon="5.97948">
        <ele>2357.8</ele>
        <time>2021-04-17T07:49:57Z</time>
      </trkpt>
      <trkpt lat="45.20711" lon="5.97948">
        <ele>2358</ele>
        <time>2021-04-17T07:49:59Z</time>
      </trkpt>
      <trkpt lat="45.20711" lon="5.97948">
        <ele>2358</ele>
        <time>2021-04-17T07:50:01Z</time>
      </trkpt>
      <trkpt lat="45.20711" lon="5.97948">
        <ele>2357.8</ele>
        <time>2021-04-17T07:50:03Z</time>
      </trkpt>
      <trkpt lat="45.20711" lon="5.97948">
        <ele>2357.4</ele>
        <time>2021-04-17T07:50:04Z</time>
      </trkpt>
      <trkpt lat="45.20711" lon="5.97948">
        <ele>2357.2</ele>
        <time>2021-04-17T07:50:06Z</time>
      </trkpt>
      <trkpt lat="45.20711" lon="5.97949">
        <ele>2357</ele>
        <time>2021-04-17T07:50:08Z</time>
      </trkpt>
      <trkpt lat="45.20711" lon="5.97949">
        <ele>2356.8</ele>
        <time>2021-04-17T07:50:09Z</time>
      </trkpt>
      <trkpt lat="45.20711" lon="5.97949">
        <ele>2356.6</ele>
        <time>2021-04-17T07:50:11Z</time>
      </trkpt>
      <trkpt lat="45.2071" lon="5.97949">
        <ele>2356.6</ele>
        <time>2021-04-17T07:50:13Z</time>
      </trkpt>
      <trkpt lat="45.2071" lon="5.97949">
        <ele>2356.6</ele>
        <time>2021-04-17T07:50:15Z</time>
      </trkpt>
      <trkpt lat="45.2071" lon="5.97949">
        <ele>2356.6</ele>
        <time>2021-04-17T07:50:17Z</time>
      </trkpt>
      <trkpt lat="45.2071" lon="5.9795">
        <ele>2356.8</ele>
        <time>2021-04-17T07:50:19Z</time>
      </trkpt>
      <trkpt lat="45.2071" lon="5.9795">
        <ele>2357</ele>
        <time>2021-04-17T07:50:20Z</time>
      </trkpt>
      <trkpt lat="45.2071" lon="5.9795">
        <ele>2357</ele>
        <time>2021-04-17T07:50:21Z</time>
      </trkpt>
      <trkpt lat="45.2071" lon="5.9795">
        <ele>2357.4</ele>
        <time>2021-04-17T07:50:23Z</time>
      </trkpt>
      <trkpt lat="45.2071" lon="5.9795">
        <ele>2357.8</ele>
        <time>2021-04-17T07:50:28Z</time>
      </trkpt>
      <trkpt lat="45.20709" lon="5.9795">
        <ele>2357.8</ele>
        <time>2021-04-17T07:50:30Z</time>
      </trkpt>
      <trkpt lat="45.20709" lon="5.97951">
        <ele>2357.8</ele>
        <time>2021-04-17T07:50:31Z</time>
      </trkpt>
      <trkpt lat="45.20709" lon="5.97951">
        <ele>2357.6</ele>
        <time>2021-04-17T07:50:33Z</time>
      </trkpt>
      <trkpt lat="45.20709" lon="5.97951">
        <ele>2357.4</ele>
        <time>2021-04-17T07:50:35Z</time>
      </trkpt>
      <trkpt lat="45.20709" lon="5.97951">
        <ele>2357.6</ele>
        <time>2021-04-17T07:50:36Z</time>
      </trkpt>
      <trkpt lat="45.20709" lon="5.97951">
        <ele>2357.6</ele>
        <time>2021-04-17T07:50:37Z</time>
      </trkpt>
      <trkpt lat="45.20709" lon="5.97951">
        <ele>2357.6</ele>
        <time>2021-04-17T07:50:38Z</time>
      </trkpt>
      <trkpt lat="45.20709" lon="5.97951">
        <ele>2357.6</ele>
        <time>2021-04-17T07:50:39Z</time>
      </trkpt>
      <trkpt lat="45.20709" lon="5.97951">
        <ele>2357.8</ele>
        <time>2021-04-17T07:50:41Z</time>
      </trkpt>
      <trkpt lat="45.20709" lon="5.97951">
        <ele>2358</ele>
        <time>2021-04-17T07:50:42Z</time>
      </trkpt>
      <trkpt lat="45.20709" lon="5.97951">
        <ele>2358.2</ele>
        <time>2021-04-17T07:50:43Z</time>
      </trkpt>
      <trkpt lat="45.20708" lon="5.97952">
        <ele>2358.4</ele>
        <time>2021-04-17T07:50:44Z</time>
      </trkpt>
      <trkpt lat="45.20708" lon="5.97952">
        <ele>2358.6</ele>
        <time>2021-04-17T07:50:45Z</time>
      </trkpt>
      <trkpt lat="45.20708" lon="5.97952">
        <ele>2358.8</ele>
        <time>2021-04-17T07:50:47Z</time>
      </trkpt>
      <trkpt lat="45.20708" lon="5.97952">
        <ele>2358.2</ele>
        <time>2021-04-17T07:50:50Z</time>
      </trkpt>
      <trkpt lat="45.20708" lon="5.97952">
        <ele>2357</ele>
        <time>2021-04-17T07:50:54Z</time>
      </trkpt>
      <trkpt lat="45.20708" lon="5.97952">
        <ele>2356.8</ele>
        <time>2021-04-17T07:50:56Z</time>
      </trkpt>
      <trkpt lat="45.20707" lon="5.97953">
        <ele>2357</ele>
        <time>2021-04-17T07:51:02Z</time>
      </trkpt>
      <trkpt lat="45.20707" lon="5.97953">
        <ele>2357</ele>
        <time>2021-04-17T07:51:03Z</time>
      </trkpt>
      <trkpt lat="45.20707" lon="5.97953">
        <ele>2357</ele>
        <time>2021-04-17T07:51:04Z</time>
      </trkpt>
      <trkpt lat="45.20707" lon="5.97953">
        <ele>2356.4</ele>
        <time>2021-04-17T07:51:10Z</time>
      </trkpt>
      <trkpt lat="45.20706" lon="5.97954">
        <ele>2356</ele>
        <time>2021-04-17T07:51:16Z</time>
      </trkpt>
      <trkpt lat="45.20706" lon="5.97954">
        <ele>2355.8</ele>
        <time>2021-04-17T07:51:20Z</time>
      </trkpt>
      <trkpt lat="45.20706" lon="5.97954">
        <ele>2356</ele>
        <time>2021-04-17T07:51:21Z</time>
      </trkpt>
      <trkpt lat="45.20706" lon="5.97954">
        <ele>2356</ele>
        <time>2021-04-17T07:51:22Z</time>
      </trkpt>
      <trkpt lat="45.20706" lon="5.97954">
        <ele>2356</ele>
        <time>2021-04-17T07:51:23Z</time>
      </trkpt>
      <trkpt lat="45.20706" lon="5.97955">
        <ele>2356</ele>
        <time>2021-04-17T07:51:27Z</time>
      </trkpt>
      <trkpt lat="45.20706" lon="5.97955">
        <ele>2355.8</ele>
        <time>2021-04-17T07:51:30Z</time>
      </trkpt>
      <trkpt lat="45.20705" lon="5.97955">
        <ele>2355.6</ele>
        <time>2021-04-17T07:51:35Z</time>
      </trkpt>
      <trkpt lat="45.20705" lon="5.97956">
        <ele>2355.4</ele>
        <time>2021-04-17T07:51:39Z</time>
      </trkpt>
      <trkpt lat="45.20705" lon="5.97956">
        <ele>2355.6</ele>
        <time>2021-04-17T07:51:41Z</time>
      </trkpt>
      <trkpt lat="45.20705" lon="5.97956">
        <ele>2356.2</ele>
        <time>2021-04-17T07:51:46Z</time>
      </trkpt>
      <trkpt lat="45.20704" lon="5.97957">
        <ele>2356.2</ele>
        <time>2021-04-17T07:51:52Z</time>
      </trkpt>
      <trkpt lat="45.20704" lon="5.97957">
        <ele>2356</ele>
        <time>2021-04-17T07:51:54Z</time>
      </trkpt>
      <trkpt lat="45.20704" lon="5.97957">
        <ele>2356</ele>
        <time>2021-04-17T07:51:55Z</time>
      </trkpt>
      <trkpt lat="45.20704" lon="5.97957">
        <ele>2356</ele>
        <time>2021-04-17T07:51:56Z</time>
      </trkpt>
      <trkpt lat="45.20704" lon="5.97958">
        <ele>2356</ele>
        <time>2021-04-17T07:52:02Z</time>
      </trkpt>
      <trkpt lat="45.20704" lon="5.97958">
        <ele>2356.2</ele>
        <time>2021-04-17T07:52:04Z</time>
      </trkpt>
      <trkpt lat="45.20703" lon="5.97958">
        <ele>2356</ele>
        <time>2021-04-17T07:52:06Z</time>
      </trkpt>
      <trkpt lat="45.20703" lon="5.97958">
        <ele>2355.8</ele>
        <time>2021-04-17T07:52:08Z</time>
      </trkpt>
      <trkpt lat="45.20703" lon="5.97958">
        <ele>2355.6</ele>
        <time>2021-04-17T07:52:10Z</time>
      </trkpt>
      <trkpt lat="45.20703" lon="5.97958">
        <ele>2355.6</ele>
        <time>2021-04-17T07:52:11Z</time>
      </trkpt>
      <trkpt lat="45.20703" lon="5.97958">
        <ele>2355.2</ele>
        <time>2021-04-17T07:52:15Z</time>
      </trkpt>
      <trkpt lat="45.20703" lon="5.97959">
        <ele>2355.2</ele>
        <time>2021-04-17T07:52:17Z</time>
      </trkpt>
      <trkpt lat="45.20703" lon="5.97959">
        <ele>2355.2</ele>
        <time>2021-04-17T07:52:18Z</time>
      </trkpt>
      <trkpt lat="45.20703" lon="5.97959">
        <ele>2355.2</ele>
        <time>2021-04-17T07:52:22Z</time>
      </trkpt>
      <trkpt lat="45.20703" lon="5.97959">
        <ele>2355.4</ele>
        <time>2021-04-17T07:52:23Z</time>
      </trkpt>
      <trkpt lat="45.20702" lon="5.97959">
        <ele>2355.6</ele>
        <time>2021-04-17T07:52:24Z</time>
      </trkpt>
      <trkpt lat="45.20702" lon="5.9796">
        <ele>2355.8</ele>
        <time>2021-04-17T07:52:30Z</time>
      </trkpt>
      <trkpt lat="45.20702" lon="5.9796">
        <ele>2355.4</ele>
        <time>2021-04-17T07:52:36Z</time>
      </trkpt>
      <trkpt lat="45.20702" lon="5.9796">
        <ele>2355.4</ele>
        <time>2021-04-17T07:52:38Z</time>
      </trkpt>
      <trkpt lat="45.20702" lon="5.9796">
        <ele>2355.2</ele>
        <time>2021-04-17T07:52:39Z</time>
      </trkpt>
      <trkpt lat="45.20702" lon="5.9796">
        <ele>2355.2</ele>
        <time>2021-04-17T07:52:40Z</time>
      </trkpt>
      <trkpt lat="45.20701" lon="5.97961">
        <ele>2355.2</ele>
        <time>2021-04-17T07:52:43Z</time>
      </trkpt>
      <trkpt lat="45.20701" lon="5.97961">
        <ele>2355.2</ele>
        <time>2021-04-17T07:52:44Z</time>
      </trkpt>
      <trkpt lat="45.20701" lon="5.97961">
        <ele>2355.4</ele>
        <time>2021-04-17T07:52:46Z</time>
      </trkpt>
      <trkpt lat="45.20701" lon="5.97961">
        <ele>2355.4</ele>
        <time>2021-04-17T07:52:47Z</time>
      </trkpt>
      <trkpt lat="45.20701" lon="5.97961">
        <ele>2355.6</ele>
        <time>2021-04-17T07:52:53Z</time>
      </trkpt>
      <trkpt lat="45.20701" lon="5.97961">
        <ele>2355.6</ele>
        <time>2021-04-17T07:52:54Z</time>
      </trkpt>
      <trkpt lat="45.20701" lon="5.97961">
        <ele>2355.6</ele>
        <time>2021-04-17T07:52:55Z</time>
      </trkpt>
      <trkpt lat="45.20701" lon="5.97962">
        <ele>2355.6</ele>
        <time>2021-04-17T07:52:57Z</time>
      </trkpt>
      <trkpt lat="45.20701" lon="5.97962">
        <ele>2355.6</ele>
        <time>2021-04-17T07:52:59Z</time>
      </trkpt>
      <trkpt lat="45.20701" lon="5.97962">
        <ele>2355.6</ele>
        <time>2021-04-17T07:53:00Z</time>
      </trkpt>
      <trkpt lat="45.20701" lon="5.97962">
        <ele>2355.6</ele>
        <time>2021-04-17T07:53:01Z</time>
      </trkpt>
      <trkpt lat="45.207" lon="5.97962">
        <ele>2355.6</ele>
        <time>2021-04-17T07:53:06Z</time>
      </trkpt>
      <trkpt lat="45.207" lon="5.97962">
        <ele>2355.6</ele>
        <time>2021-04-17T07:53:07Z</time>
      </trkpt>
      <trkpt lat="45.207" lon="5.97962">
        <ele>2355.6</ele>
        <time>2021-04-17T07:53:09Z</time>
      </trkpt>
      <trkpt lat="45.207" lon="5.97962">
        <ele>2355.6</ele>
        <time>2021-04-17T07:53:11Z</time>
      </trkpt>
      <trkpt lat="45.207" lon="5.97963">
        <ele>2355.6</ele>
        <time>2021-04-17T07:53:13Z</time>
      </trkpt>
      <trkpt lat="45.207" lon="5.97963">
        <ele>2355.6</ele>
        <time>2021-04-17T07:53:19Z</time>
      </trkpt>
      <trkpt lat="45.207" lon="5.97963">
        <ele>2355.6</ele>
        <time>2021-04-17T07:53:20Z</time>
      </trkpt>
      <trkpt lat="45.20699" lon="5.97963">
        <ele>2355.6</ele>
        <time>2021-04-17T07:53:22Z</time>
      </trkpt>
      <trkpt lat="45.20699" lon="5.97963">
        <ele>2355.6</ele>
        <time>2021-04-17T07:53:23Z</time>
      </trkpt>
      <trkpt lat="45.20699" lon="5.97963">
        <ele>2355.6</ele>
        <time>2021-04-17T07:53:24Z</time>
      </trkpt>
      <trkpt lat="45.20699" lon="5.97963">
        <ele>2355.6</ele>
        <time>2021-04-17T07:53:26Z</time>
      </trkpt>
      <trkpt lat="45.20699" lon="5.97964">
        <ele>2355.6</ele>
        <time>2021-04-17T07:53:30Z</time>
      </trkpt>
      <trkpt lat="45.20699" lon="5.97964">
        <ele>2355.6</ele>
        <time>2021-04-17T07:53:35Z</time>
      </trkpt>
      <trkpt lat="45.20699" lon="5.97964">
        <ele>2355.6</ele>
        <time>2021-04-17T07:53:39Z</time>
      </trkpt>
      <trkpt lat="45.20699" lon="5.97964">
        <ele>2355.6</ele>
        <time>2021-04-17T07:53:40Z</time>
      </trkpt>
      <trkpt lat="45.20698" lon="5.97964">
        <ele>2355.6</ele>
        <time>2021-04-17T07:53:43Z</time>
      </trkpt>
      <trkpt lat="45.20698" lon="5.97965">
        <ele>2355.6</ele>
        <time>2021-04-17T07:53:47Z</time>
      </trkpt>
      <trkpt lat="45.20698" lon="5.97965">
        <ele>2355.6</ele>
        <time>2021-04-17T07:53:49Z</time>
      </trkpt>
      <trkpt lat="45.20698" lon="5.97965">
        <ele>2355.6</ele>
        <time>2021-04-17T07:53:53Z</time>
      </trkpt>
      <trkpt lat="45.20698" lon="5.97965">
        <ele>2355.6</ele>
        <time>2021-04-17T07:53:59Z</time>
      </trkpt>
      <trkpt lat="45.20697" lon="5.97966">
        <ele>2355.6</ele>
        <time>2021-04-17T07:54:05Z</time>
      </trkpt>
      <trkpt lat="45.20697" lon="5.97966">
        <ele>2355.6</ele>
        <time>2021-04-17T07:54:11Z</time>
      </trkpt>
      <trkpt lat="45.20697" lon="5.97966">
        <ele>2355.6</ele>
        <time>2021-04-17T07:54:12Z</time>
      </trkpt>
      <trkpt lat="45.20697" lon="5.97967">
        <ele>2355.6</ele>
        <time>2021-04-17T07:54:17Z</time>
      </trkpt>
      <trkpt lat="45.20697" lon="5.97967">
        <ele>2355.6</ele>
        <time>2021-04-17T07:54:18Z</time>
      </trkpt>
      <trkpt lat="45.20697" lon="5.97967">
        <ele>2355.6</ele>
        <time>2021-04-17T07:54:20Z</time>
      </trkpt>
      <trkpt lat="45.20697" lon="5.97967">
        <ele>2355.6</ele>
        <time>2021-04-17T07:54:21Z</time>
      </trkpt>
      <trkpt lat="45.20696" lon="5.97967">
        <ele>2355.6</ele>
        <time>2021-04-17T07:54:26Z</time>
      </trkpt>
      <trkpt lat="45.20696" lon="5.97967">
        <ele>2355.6</ele>
        <time>2021-04-17T07:54:27Z</time>
      </trkpt>
      <trkpt lat="45.20696" lon="5.97967">
        <ele>2355.6</ele>
        <time>2021-04-17T07:54:29Z</time>
      </trkpt>
      <trkpt lat="45.20696" lon="5.97967">
        <ele>2355.6</ele>
        <time>2021-04-17T07:54:31Z</time>
      </trkpt>
      <trkpt lat="45.20696" lon="5.97968">
        <ele>2355.6</ele>
        <time>2021-04-17T07:54:34Z</time>
      </trkpt>
      <trkpt lat="45.20696" lon="5.97968">
        <ele>2355.6</ele>
        <time>2021-04-17T07:54:37Z</time>
      </trkpt>
      <trkpt lat="45.20696" lon="5.97968">
        <ele>2355.6</ele>
        <time>2021-04-17T07:54:40Z</time>
      </trkpt>
      <trkpt lat="45.20696" lon="5.97968">
        <ele>2355.6</ele>
        <time>2021-04-17T07:54:41Z</time>
      </trkpt>
      <trkpt lat="45.20696" lon="5.97968">
        <ele>2355.6</ele>
        <time>2021-04-17T07:54:42Z</time>
      </trkpt>
      <trkpt lat="45.20696" lon="5.97968">
        <ele>2355.6</ele>
        <time>2021-04-17T07:54:44Z</time>
      </trkpt>
      <trkpt lat="45.20696" lon="5.97968">
        <ele>2355.6</ele>
        <time>2021-04-17T07:54:46Z</time>
      </trkpt>
      <trkpt lat="45.20695" lon="5.97969">
        <ele>2355.6</ele>
        <time>2021-04-17T07:54:51Z</time>
      </trkpt>
      <trkpt lat="45.20695" lon="5.97969">
        <ele>2355.6</ele>
        <time>2021-04-17T07:54:52Z</time>
      </trkpt>
      <trkpt lat="45.20695" lon="5.97969">
        <ele>2355.6</ele>
        <time>2021-04-17T07:54:53Z</time>
      </trkpt>
      <trkpt lat="45.20695" lon="5.97969">
        <ele>2355.6</ele>
        <time>2021-04-17T07:54:57Z</time>
      </trkpt>
      <trkpt lat="45.20695" lon="5.97969">
        <ele>2355.6</ele>
        <time>2021-04-17T07:55:01Z</time>
      </trkpt>
      <trkpt lat="45.20695" lon="5.97969">
        <ele>2355.6</ele>
        <time>2021-04-17T07:55:02Z</time>
      </trkpt>
      <trkpt lat="45.20695" lon="5.97969">
        <ele>2355.6</ele>
        <time>2021-04-17T07:55:04Z</time>
      </trkpt>
      <trkpt lat="45.20695" lon="5.97969">
        <ele>2355.6</ele>
        <time>2021-04-17T07:55:06Z</time>
      </trkpt>
      <trkpt lat="45.20695" lon="5.9797">
        <ele>2355.6</ele>
        <time>2021-04-17T07:55:09Z</time>
      </trkpt>
      <trkpt lat="45.20695" lon="5.9797">
        <ele>2355.6</ele>
        <time>2021-04-17T07:55:11Z</time>
      </trkpt>
      <trkpt lat="45.20695" lon="5.9797">
        <ele>2355.6</ele>
        <time>2021-04-17T07:55:12Z</time>
      </trkpt>
      <trkpt lat="45.20694" lon="5.9797">
        <ele>2355.6</ele>
        <time>2021-04-17T07:55:15Z</time>
      </trkpt>
      <trkpt lat="45.20694" lon="5.9797">
        <ele>2355.6</ele>
        <time>2021-04-17T07:55:21Z</time>
      </trkpt>
      <trkpt lat="45.20694" lon="5.9797">
        <ele>2355.6</ele>
        <time>2021-04-17T07:55:24Z</time>
      </trkpt>
      <trkpt lat="45.20694" lon="5.9797">
        <ele>2355.6</ele>
        <time>2021-04-17T07:55:26Z</time>
      </trkpt>
      <trkpt lat="45.20694" lon="5.97971">
        <ele>2355.6</ele>
        <time>2021-04-17T07:55:30Z</time>
      </trkpt>
      <trkpt lat="45.20694" lon="5.97971">
        <ele>2355.6</ele>
        <time>2021-04-17T07:55:36Z</time>
      </trkpt>
      <trkpt lat="45.20694" lon="5.97971">
        <ele>2355.6</ele>
        <time>2021-04-17T07:55:38Z</time>
      </trkpt>
      <trkpt lat="45.20694" lon="5.97971">
        <ele>2355.6</ele>
        <time>2021-04-17T07:55:39Z</time>
      </trkpt>
      <trkpt lat="45.20693" lon="5.97971">
        <ele>2355.6</ele>
        <time>2021-04-17T07:55:40Z</time>
      </trkpt>
      <trkpt lat="45.20693" lon="5.97971">
        <ele>2355.6</ele>
        <time>2021-04-17T07:55:42Z</time>
      </trkpt>
      <trkpt lat="45.20693" lon="5.97971">
        <ele>2355.6</ele>
        <time>2021-04-17T07:55:44Z</time>
      </trkpt>
      <trkpt lat="45.20693" lon="5.97971">
        <ele>2355.6</ele>
        <time>2021-04-17T07:55:45Z</time>
      </trkpt>
      <trkpt lat="45.20693" lon="5.97971">
        <ele>2355.6</ele>
        <time>2021-04-17T07:55:47Z</time>
      </trkpt>
      <trkpt lat="45.20693" lon="5.97972">
        <ele>2355.6</ele>
        <time>2021-04-17T07:55:49Z</time>
      </trkpt>
      <trkpt lat="45.20693" lon="5.97972">
        <ele>2355.6</ele>
        <time>2021-04-17T07:55:52Z</time>
      </trkpt>
      <trkpt lat="45.20693" lon="5.97972">
        <ele>2355.6</ele>
        <time>2021-04-17T07:55:54Z</time>
      </trkpt>
      <trkpt lat="45.20693" lon="5.97972">
        <ele>2355.6</ele>
        <time>2021-04-17T07:55:58Z</time>
      </trkpt>
      <trkpt lat="45.20693" lon="5.97972">
        <ele>2355.6</ele>
        <time>2021-04-17T07:55:59Z</time>
      </trkpt>
      <trkpt lat="45.20693" lon="5.97972">
        <ele>2355.6</ele>
        <time>2021-04-17T07:56:01Z</time>
      </trkpt>
      <trkpt lat="45.20693" lon="5.97972">
        <ele>2355.6</ele>
        <time>2021-04-17T07:56:04Z</time>
      </trkpt>
      <trkpt lat="45.20693" lon="5.97972">
        <ele>2355.6</ele>
        <time>2021-04-17T07:56:06Z</time>
      </trkpt>
      <trkpt lat="45.20692" lon="5.97973">
        <ele>2355.6</ele>
        <time>2021-04-17T07:56:08Z</time>
      </trkpt>
      <trkpt lat="45.20692" lon="5.97973">
        <ele>2355.6</ele>
        <time>2021-04-17T07:56:12Z</time>
      </trkpt>
      <trkpt lat="45.20692" lon="5.97973">
        <ele>2355.6</ele>
        <time>2021-04-17T07:56:14Z</time>
      </trkpt>
      <trkpt lat="45.20692" lon="5.97973">
        <ele>2355.6</ele>
        <time>2021-04-17T07:56:18Z</time>
      </trkpt>
      <trkpt lat="45.20692" lon="5.97973">
        <ele>2355.6</ele>
        <time>2021-04-17T07:56:20Z</time>
      </trkpt>
      <trkpt lat="45.20692" lon="5.97973">
        <ele>2355.6</ele>
        <time>2021-04-17T07:56:21Z</time>
      </trkpt>
      <trkpt lat="45.20692" lon="5.97973">
        <ele>2355.6</ele>
        <time>2021-04-17T07:56:23Z</time>
      </trkpt>
      <trkpt lat="45.20692" lon="5.97973">
        <ele>2355.6</ele>
        <time>2021-04-17T07:56:26Z</time>
      </trkpt>
      <trkpt lat="45.20692" lon="5.97974">
        <ele>2355.6</ele>
        <time>2021-04-17T07:56:27Z</time>
      </trkpt>
      <trkpt lat="45.20692" lon="5.97974">
        <ele>2355.6</ele>
        <time>2021-04-17T07:56:28Z</time>
      </trkpt>
      <trkpt lat="45.20692" lon="5.97974">
        <ele>2355.6</ele>
        <time>2021-04-17T07:56:30Z</time>
      </trkpt>
      <trkpt lat="45.20692" lon="5.97974">
        <ele>2355.6</ele>
        <time>2021-04-17T07:56:32Z</time>
      </trkpt>
      <trkpt lat="45.20692" lon="5.97974">
        <ele>2355.6</ele>
        <time>2021-04-17T07:56:34Z</time>
      </trkpt>
      <trkpt lat="45.20691" lon="5.97974">
        <ele>2355.6</ele>
        <time>2021-04-17T07:56:35Z</time>
      </trkpt>
      <trkpt lat="45.20691" lon="5.97974">
        <ele>2355.6</ele>
        <time>2021-04-17T07:56:39Z</time>
      </trkpt>
      <trkpt lat="45.20691" lon="5.97974">
        <ele>2355.6</ele>
        <time>2021-04-17T07:56:40Z</time>
      </trkpt>
      <trkpt lat="45.20691" lon="5.97974">
        <ele>2355.6</ele>
        <time>2021-04-17T07:56:41Z</time>
      </trkpt>
      <trkpt lat="45.20691" lon="5.97975">
        <ele>2355.6</ele>
        <time>2021-04-17T07:56:47Z</time>
      </trkpt>
      <trkpt lat="45.20691" lon="5.97975">
        <ele>2355.6</ele>
        <time>2021-04-17T07:56:48Z</time>
      </trkpt>
      <trkpt lat="45.20691" lon="5.97975">
        <ele>2355.6</ele>
        <time>2021-04-17T07:56:49Z</time>
      </trkpt>
      <trkpt lat="45.20691" lon="5.97975">
        <ele>2355.6</ele>
        <time>2021-04-17T07:56:51Z</time>
      </trkpt>
      <trkpt lat="45.20691" lon="5.97975">
        <ele>2355.6</ele>
        <time>2021-04-17T07:56:52Z</time>
      </trkpt>
      <trkpt lat="45.20691" lon="5.97975">
        <ele>2355.6</ele>
        <time>2021-04-17T07:56:53Z</time>
      </trkpt>
      <trkpt lat="45.20691" lon="5.97975">
        <ele>2355.6</ele>
        <time>2021-04-17T07:56:54Z</time>
      </trkpt>
      <trkpt lat="45.20691" lon="5.97975">
        <ele>2355.6</ele>
        <time>2021-04-17T07:56:55Z</time>
      </trkpt>
      <trkpt lat="45.20691" lon="5.97975">
        <ele>2355.6</ele>
        <time>2021-04-17T07:56:57Z</time>
      </trkpt>
      <trkpt lat="45.20691" lon="5.97975">
        <ele>2355.6</ele>
        <time>2021-04-17T07:56:59Z</time>
      </trkpt>
      <trkpt lat="45.20691" lon="5.97975">
        <ele>2355.6</ele>
        <time>2021-04-17T07:57:00Z</time>
      </trkpt>
      <trkpt lat="45.20691" lon="5.97975">
        <ele>2355.6</ele>
        <time>2021-04-17T07:57:02Z</time>
      </trkpt>
      <trkpt lat="45.20691" lon="5.97975">
        <ele>2355.6</ele>
        <time>2021-04-17T07:57:05Z</time>
      </trkpt>
      <trkpt lat="45.2069" lon="5.97975">
        <ele>2355.6</ele>
        <time>2021-04-17T07:57:09Z</time>
      </trkpt>
      <trkpt lat="45.2069" lon="5.97976">
        <ele>2355.6</ele>
        <time>2021-04-17T07:57:12Z</time>
      </trkpt>
      <trkpt lat="45.2069" lon="5.97976">
        <ele>2355.6</ele>
        <time>2021-04-17T07:57:18Z</time>
      </trkpt>
      <trkpt lat="45.2069" lon="5.97976">
        <ele>2355.6</ele>
        <time>2021-04-17T07:57:22Z</time>
      </trkpt>
      <trkpt lat="45.2069" lon="5.97976">
        <ele>2355.6</ele>
        <time>2021-04-17T07:57:23Z</time>
      </trkpt>
      <trkpt lat="45.2069" lon="5.97976">
        <ele>2355.6</ele>
        <time>2021-04-17T07:57:29Z</time>
      </trkpt>
      <trkpt lat="45.2069" lon="5.97976">
        <ele>2355.6</ele>
        <time>2021-04-17T07:57:32Z</time>
      </trkpt>
      <trkpt lat="45.2069" lon="5.97977">
        <ele>2355.6</ele>
        <time>2021-04-17T07:57:33Z</time>
      </trkpt>
      <trkpt lat="45.2069" lon="5.97977">
        <ele>2355.6</ele>
        <time>2021-04-17T07:57:35Z</time>
      </trkpt>
      <trkpt lat="45.20689" lon="5.97977">
        <ele>2355.6</ele>
        <time>2021-04-17T07:57:37Z</time>
      </trkpt>
      <trkpt lat="45.20689" lon="5.97977">
        <ele>2355.6</ele>
        <time>2021-04-17T07:57:42Z</time>
      </trkpt>
      <trkpt lat="45.20689" lon="5.97977">
        <ele>2355.6</ele>
        <time>2021-04-17T07:57:43Z</time>
      </trkpt>
      <trkpt lat="45.20689" lon="5.97977">
        <ele>2355.6</ele>
        <time>2021-04-17T07:57:44Z</time>
      </trkpt>
      <trkpt lat="45.20689" lon="5.97977">
        <ele>2355.6</ele>
        <time>2021-04-17T07:57:45Z</time>
      </trkpt>
      <trkpt lat="45.20689" lon="5.97977">
        <ele>2355.6</ele>
        <time>2021-04-17T07:57:46Z</time>
      </trkpt>
      <trkpt lat="45.20689" lon="5.97977">
        <ele>2355.6</ele>
        <time>2021-04-17T07:57:49Z</time>
      </trkpt>
      <trkpt lat="45.20689" lon="5.97977">
        <ele>2355.6</ele>
        <time>2021-04-17T07:57:52Z</time>
      </trkpt>
      <trkpt lat="45.20689" lon="5.97977">
        <ele>2355.6</ele>
        <time>2021-04-17T07:57:54Z</time>
      </trkpt>
      <trkpt lat="45.20689" lon="5.97978">
        <ele>2355.6</ele>
        <time>2021-04-17T07:57:58Z</time>
      </trkpt>
      <trkpt lat="45.20689" lon="5.97978">
        <ele>2355.6</ele>
        <time>2021-04-17T07:57:59Z</time>
      </trkpt>
      <trkpt lat="45.20689" lon="5.97978">
        <ele>2355.6</ele>
        <time>2021-04-17T07:58:01Z</time>
      </trkpt>
      <trkpt lat="45.20689" lon="5.97978">
        <ele>2355.6</ele>
        <time>2021-04-17T07:58:04Z</time>
      </trkpt>
      <trkpt lat="45.20688" lon="5.97978">
        <ele>2355.6</ele>
        <time>2021-04-17T07:58:06Z</time>
      </trkpt>
      <trkpt lat="45.20688" lon="5.97978">
        <ele>2355.6</ele>
        <time>2021-04-17T07:58:11Z</time>
      </trkpt>
      <trkpt lat="45.20688" lon="5.97978">
        <ele>2355.6</ele>
        <time>2021-04-17T07:58:15Z</time>
      </trkpt>
      <trkpt lat="45.20688" lon="5.97978">
        <ele>2355.6</ele>
        <time>2021-04-17T07:58:16Z</time>
      </trkpt>
      <trkpt lat="45.20688" lon="5.97978">
        <ele>2355.6</ele>
        <time>2021-04-17T07:58:17Z</time>
      </trkpt>
      <trkpt lat="45.20688" lon="5.97978">
        <ele>2355.6</ele>
        <time>2021-04-17T07:58:19Z</time>
      </trkpt>
      <trkpt lat="45.20688" lon="5.97979">
        <ele>2355.6</ele>
        <time>2021-04-17T07:58:25Z</time>
      </trkpt>
      <trkpt lat="45.20688" lon="5.97979">
        <ele>2355.6</ele>
        <time>2021-04-17T07:58:29Z</time>
      </trkpt>
      <trkpt lat="45.20688" lon="5.97979">
        <ele>2355.6</ele>
        <time>2021-04-17T07:58:31Z</time>
      </trkpt>
      <trkpt lat="45.20687" lon="5.97979">
        <ele>2355.6</ele>
        <time>2021-04-17T07:58:35Z</time>
      </trkpt>
      <trkpt lat="45.20687" lon="5.97979">
        <ele>2355.6</ele>
        <time>2021-04-17T07:58:41Z</time>
      </trkpt>
      <trkpt lat="45.20687" lon="5.97979">
        <ele>2355.6</ele>
        <time>2021-04-17T07:58:46Z</time>
      </trkpt>
      <trkpt lat="45.20687" lon="5.97979">
        <ele>2355.6</ele>
        <time>2021-04-17T07:58:47Z</time>
      </trkpt>
      <trkpt lat="45.20687" lon="5.9798">
        <ele>2355.6</ele>
        <time>2021-04-17T07:58:48Z</time>
      </trkpt>
      <trkpt lat="45.20687" lon="5.9798">
        <ele>2355.6</ele>
        <time>2021-04-17T07:58:50Z</time>
      </trkpt>
      <trkpt lat="45.20687" lon="5.9798">
        <ele>2355.6</ele>
        <time>2021-04-17T07:58:51Z</time>
      </trkpt>
      <trkpt lat="45.20687" lon="5.9798">
        <ele>2355.6</ele>
        <time>2021-04-17T07:58:53Z</time>
      </trkpt>
      <trkpt lat="45.20687" lon="5.9798">
        <ele>2355.6</ele>
        <time>2021-04-17T07:58:54Z</time>
      </trkpt>
      <trkpt lat="45.20687" lon="5.9798">
        <ele>2355.6</ele>
        <time>2021-04-17T07:59:00Z</time>
      </trkpt>
      <trkpt lat="45.20687" lon="5.9798">
        <ele>2355.6</ele>
        <time>2021-04-17T07:59:06Z</time>
      </trkpt>
      <trkpt lat="45.20686" lon="5.9798">
        <ele>2355.6</ele>
        <time>2021-04-17T07:59:07Z</time>
      </trkpt>
      <trkpt lat="45.20686" lon="5.9798">
        <ele>2355.6</ele>
        <time>2021-04-17T07:59:09Z</time>
      </trkpt>
      <trkpt lat="45.20686" lon="5.9798">
        <ele>2355.6</ele>
        <time>2021-04-17T07:59:10Z</time>
      </trkpt>
      <trkpt lat="45.20686" lon="5.9798">
        <ele>2355.6</ele>
        <time>2021-04-17T07:59:11Z</time>
      </trkpt>
      <trkpt lat="45.20686" lon="5.9798">
        <ele>2355.6</ele>
        <time>2021-04-17T07:59:14Z</time>
      </trkpt>
      <trkpt lat="45.20686" lon="5.97981">
        <ele>2355.6</ele>
        <time>2021-04-17T07:59:15Z</time>
      </trkpt>
      <trkpt lat="45.20686" lon="5.97981">
        <ele>2355.6</ele>
        <time>2021-04-17T07:59:16Z</time>
      </trkpt>
      <trkpt lat="45.20686" lon="5.97981">
        <ele>2355.6</ele>
        <time>2021-04-17T07:59:19Z</time>
      </trkpt>
      <trkpt lat="45.20686" lon="5.97981">
        <ele>2355.6</ele>
        <time>2021-04-17T07:59:21Z</time>
      </trkpt>
      <trkpt lat="45.20686" lon="5.97981">
        <ele>2355.6</ele>
        <time>2021-04-17T07:59:26Z</time>
      </trkpt>
      <trkpt lat="45.20686" lon="5.97981">
        <ele>2355.6</ele>
        <time>2021-04-17T07:59:27Z</time>
      </trkpt>
      <trkpt lat="45.20686" lon="5.97981">
        <ele>2355.6</ele>
        <time>2021-04-17T07:59:28Z</time>
      </trkpt>
      <trkpt lat="45.20686" lon="5.97981">
        <ele>2355.6</ele>
        <time>2021-04-17T07:59:29Z</time>
      </trkpt>
      <trkpt lat="45.20686" lon="5.97981">
        <ele>2355.6</ele>
        <time>2021-04-17T07:59:31Z</time>
      </trkpt>
      <trkpt lat="45.20686" lon="5.97981">
        <ele>2355.6</ele>
        <time>2021-04-17T07:59:32Z</time>
      </trkpt>
      <trkpt lat="45.20686" lon="5.97981">
        <ele>2355.6</ele>
        <time>2021-04-17T07:59:33Z</time>
      </trkpt>
      <trkpt lat="45.20686" lon="5.97981">
        <ele>2355.6</ele>
        <time>2021-04-17T07:59:34Z</time>
      </trkpt>
      <trkpt lat="45.20686" lon="5.97981">
        <ele>2355.6</ele>
        <time>2021-04-17T07:59:36Z</time>
      </trkpt>
      <trkpt lat="45.20686" lon="5.97981">
        <ele>2355.6</ele>
        <time>2021-04-17T07:59:37Z</time>
      </trkpt>
      <trkpt lat="45.20686" lon="5.97981">
        <ele>2355.6</ele>
        <time>2021-04-17T07:59:38Z</time>
      </trkpt>
      <trkpt lat="45.20686" lon="5.97981">
        <ele>2355.6</ele>
        <time>2021-04-17T07:59:39Z</time>
      </trkpt>
      <trkpt lat="45.20685" lon="5.97982">
        <ele>2355.6</ele>
        <time>2021-04-17T07:59:43Z</time>
      </trkpt>
      <trkpt lat="45.20685" lon="5.97982">
        <ele>2355.6</ele>
        <time>2021-04-17T07:59:49Z</time>
      </trkpt>
      <trkpt lat="45.20685" lon="5.97982">
        <ele>2355.6</ele>
        <time>2021-04-17T07:59:50Z</time>
      </trkpt>
      <trkpt lat="45.20685" lon="5.97982">
        <ele>2355.6</ele>
        <time>2021-04-17T07:59:52Z</time>
      </trkpt>
      <trkpt lat="45.20685" lon="5.97982">
        <ele>2355.6</ele>
        <time>2021-04-17T07:59:56Z</time>
      </trkpt>
      <trkpt lat="45.20685" lon="5.97982">
        <ele>2355.6</ele>
        <time>2021-04-17T08:00:01Z</time>
      </trkpt>
      <trkpt lat="45.20685" lon="5.97982">
        <ele>2355.6</ele>
        <time>2021-04-17T08:00:02Z</time>
      </trkpt>
      <trkpt lat="45.20685" lon="5.97982">
        <ele>2355.6</ele>
        <time>2021-04-17T08:00:05Z</time>
      </trkpt>
      <trkpt lat="45.20685" lon="5.97983">
        <ele>2355.6</ele>
        <time>2021-04-17T08:00:11Z</time>
      </trkpt>
      <trkpt lat="45.20684" lon="5.97983">
        <ele>2355.6</ele>
        <time>2021-04-17T08:00:15Z</time>
      </trkpt>
      <trkpt lat="45.20682" lon="5.97985">
        <ele>2355.6</ele>
        <time>2021-04-17T08:00:16Z</time>
      </trkpt>
      <trkpt lat="45.20681" lon="5.97989">
        <ele>2355.6</ele>
        <time>2021-04-17T08:00:17Z</time>
      </trkpt>
      <trkpt lat="45.20679" lon="5.97992">
        <ele>2355.6</ele>
        <time>2021-04-17T08:00:18Z</time>
      </trkpt>
      <trkpt lat="45.20678" lon="5.97995">
        <ele>2355.6</ele>
        <time>2021-04-17T08:00:19Z</time>
      </trkpt>
      <trkpt lat="45.20675" lon="5.97998">
        <ele>2355.6</ele>
        <time>2021-04-17T08:00:20Z</time>
      </trkpt>
      <trkpt lat="45.20669" lon="5.98003">
        <ele>2354.2</ele>
        <time>2021-04-17T08:00:22Z</time>
      </trkpt>
      <trkpt lat="45.20666" lon="5.98005">
        <ele>2353.6</ele>
        <time>2021-04-17T08:00:23Z</time>
      </trkpt>
      <trkpt lat="45.20661" lon="5.9801">
        <ele>2353.2</ele>
        <time>2021-04-17T08:00:25Z</time>
      </trkpt>
      <trkpt lat="45.20661" lon="5.98011">
        <ele>2353.2</ele>
        <time>2021-04-17T08:00:27Z</time>
      </trkpt>
      <trkpt lat="45.20659" lon="5.98012">
        <ele>2352.8</ele>
        <time>2021-04-17T08:00:33Z</time>
      </trkpt>
      <trkpt lat="45.20659" lon="5.98014">
        <ele>2352</ele>
        <time>2021-04-17T08:00:35Z</time>
      </trkpt>
      <trkpt lat="45.20656" lon="5.98014">
        <ele>2350.6</ele>
        <time>2021-04-17T08:00:37Z</time>
      </trkpt>
      <trkpt lat="45.20654" lon="5.98014">
        <ele>2349.6</ele>
        <time>2021-04-17T08:00:38Z</time>
      </trkpt>
      <trkpt lat="45.20653" lon="5.98014">
        <ele>2348.6</ele>
        <time>2021-04-17T08:00:39Z</time>
      </trkpt>
      <trkpt lat="45.2065" lon="5.98017">
        <ele>2347.2</ele>
        <time>2021-04-17T08:00:41Z</time>
      </trkpt>
      <trkpt lat="45.2065" lon="5.98021">
        <ele>2346.4</ele>
        <time>2021-04-17T08:00:42Z</time>
      </trkpt>
      <trkpt lat="45.20649" lon="5.98024">
        <ele>2345.2</ele>
        <time>2021-04-17T08:00:43Z</time>
      </trkpt>
      <trkpt lat="45.20648" lon="5.98026">
        <ele>2343.4</ele>
        <time>2021-04-17T08:00:44Z</time>
      </trkpt>
      <trkpt lat="45.20649" lon="5.98029">
        <ele>2341.2</ele>
        <time>2021-04-17T08:00:45Z</time>
      </trkpt>
      <trkpt lat="45.20651" lon="5.98032">
        <ele>2339.2</ele>
        <time>2021-04-17T08:00:46Z</time>
      </trkpt>
      <trkpt lat="45.20652" lon="5.98035">
        <ele>2337.2</ele>
        <time>2021-04-17T08:00:47Z</time>
      </trkpt>
      <trkpt lat="45.20651" lon="5.98037">
        <ele>2335.6</ele>
        <time>2021-04-17T08:00:48Z</time>
      </trkpt>
      <trkpt lat="45.20649" lon="5.9804">
        <ele>2334.2</ele>
        <time>2021-04-17T08:00:49Z</time>
      </trkpt>
      <trkpt lat="45.20648" lon="5.98042">
        <ele>2332.8</ele>
        <time>2021-04-17T08:00:50Z</time>
      </trkpt>
      <trkpt lat="45.20647" lon="5.98043">
        <ele>2331.2</ele>
        <time>2021-04-17T08:00:51Z</time>
      </trkpt>
      <trkpt lat="45.20647" lon="5.98043">
        <ele>2329.8</ele>
        <time>2021-04-17T08:00:52Z</time>
      </trkpt>
      <trkpt lat="45.20646" lon="5.98044">
        <ele>2329</ele>
        <time>2021-04-17T08:00:53Z</time>
      </trkpt>
      <trkpt lat="45.20646" lon="5.98044">
        <ele>2328.6</ele>
        <time>2021-04-17T08:00:54Z</time>
      </trkpt>
      <trkpt lat="45.20646" lon="5.98044">
        <ele>2328.2</ele>
        <time>2021-04-17T08:00:55Z</time>
      </trkpt>
      <trkpt lat="45.20646" lon="5.98044">
        <ele>2328</ele>
        <time>2021-04-17T08:00:57Z</time>
      </trkpt>
      <trkpt lat="45.20647" lon="5.98042">
        <ele>2327.8</ele>
        <time>2021-04-17T08:01:00Z</time>
      </trkpt>
      <trkpt lat="45.20646" lon="5.98042">
        <ele>2327.4</ele>
        <time>2021-04-17T08:01:02Z</time>
      </trkpt>
      <trkpt lat="45.20646" lon="5.98042">
        <ele>2327.6</ele>
        <time>2021-04-17T08:01:08Z</time>
      </trkpt>
      <trkpt lat="45.20644" lon="5.98048">
        <ele>2326</ele>
        <time>2021-04-17T08:01:13Z</time>
      </trkpt>
      <trkpt lat="45.20643" lon="5.98049">
        <ele>2324.4</ele>
        <time>2021-04-17T08:01:14Z</time>
      </trkpt>
      <trkpt lat="45.20642" lon="5.98051">
        <ele>2323</ele>
        <time>2021-04-17T08:01:15Z</time>
      </trkpt>
      <trkpt lat="45.20643" lon="5.98055">
        <ele>2322</ele>
        <time>2021-04-17T08:01:16Z</time>
      </trkpt>
      <trkpt lat="45.20642" lon="5.9806">
        <ele>2320.4</ele>
        <time>2021-04-17T08:01:17Z</time>
      </trkpt>
      <trkpt lat="45.20641" lon="5.98064">
        <ele>2318.4</ele>
        <time>2021-04-17T08:01:18Z</time>
      </trkpt>
      <trkpt lat="45.2064" lon="5.98066">
        <ele>2316</ele>
        <time>2021-04-17T08:01:19Z</time>
      </trkpt>
      <trkpt lat="45.2064" lon="5.98068">
        <ele>2313.8</ele>
        <time>2021-04-17T08:01:20Z</time>
      </trkpt>
      <trkpt lat="45.20639" lon="5.98068">
        <ele>2312.4</ele>
        <time>2021-04-17T08:01:21Z</time>
      </trkpt>
      <trkpt lat="45.20639" lon="5.9807">
        <ele>2311.4</ele>
        <time>2021-04-17T08:01:22Z</time>
      </trkpt>
      <trkpt lat="45.2064" lon="5.98072">
        <ele>2310.6</ele>
        <time>2021-04-17T08:01:23Z</time>
      </trkpt>
      <trkpt lat="45.20643" lon="5.98072">
        <ele>2309.4</ele>
        <time>2021-04-17T08:01:25Z</time>
      </trkpt>
      <trkpt lat="45.20642" lon="5.98072">
        <ele>2308.2</ele>
        <time>2021-04-17T08:01:27Z</time>
      </trkpt>
      <trkpt lat="45.20642" lon="5.98072">
        <ele>2307.6</ele>
        <time>2021-04-17T08:01:29Z</time>
      </trkpt>
      <trkpt lat="45.20646" lon="5.98078">
        <ele>2307.2</ele>
        <time>2021-04-17T08:01:33Z</time>
      </trkpt>
      <trkpt lat="45.20646" lon="5.98079">
        <ele>2306.6</ele>
        <time>2021-04-17T08:01:34Z</time>
      </trkpt>
      <trkpt lat="45.20646" lon="5.98081">
        <ele>2305.4</ele>
        <time>2021-04-17T08:01:35Z</time>
      </trkpt>
      <trkpt lat="45.20647" lon="5.98085">
        <ele>2304</ele>
        <time>2021-04-17T08:01:36Z</time>
      </trkpt>
      <trkpt lat="45.20648" lon="5.98087">
        <ele>2302.4</ele>
        <time>2021-04-17T08:01:37Z</time>
      </trkpt>
      <trkpt lat="45.20649" lon="5.98087">
        <ele>2301</ele>
        <time>2021-04-17T08:01:38Z</time>
      </trkpt>
      <trkpt lat="45.2065" lon="5.98088">
        <ele>2300.2</ele>
        <time>2021-04-17T08:01:39Z</time>
      </trkpt>
      <trkpt lat="45.2065" lon="5.98089">
        <ele>2299.8</ele>
        <time>2021-04-17T08:01:40Z</time>
      </trkpt>
      <trkpt lat="45.20649" lon="5.9809">
        <ele>2299.2</ele>
        <time>2021-04-17T08:01:41Z</time>
      </trkpt>
      <trkpt lat="45.20646" lon="5.9809">
        <ele>2298.4</ele>
        <time>2021-04-17T08:01:42Z</time>
      </trkpt>
      <trkpt lat="45.20643" lon="5.98092">
        <ele>2297.2</ele>
        <time>2021-04-17T08:01:43Z</time>
      </trkpt>
      <trkpt lat="45.20641" lon="5.98093">
        <ele>2295.8</ele>
        <time>2021-04-17T08:01:44Z</time>
      </trkpt>
      <trkpt lat="45.2064" lon="5.98095">
        <ele>2294.6</ele>
        <time>2021-04-17T08:01:45Z</time>
      </trkpt>
      <trkpt lat="45.20639" lon="5.98096">
        <ele>2293.2</ele>
        <time>2021-04-17T08:01:47Z</time>
      </trkpt>
      <trkpt lat="45.2064" lon="5.98096">
        <ele>2292.8</ele>
        <time>2021-04-17T08:01:49Z</time>
      </trkpt>
      <trkpt lat="45.2064" lon="5.98096">
        <ele>2292.6</ele>
        <time>2021-04-17T08:01:51Z</time>
      </trkpt>
      <trkpt lat="45.20641" lon="5.98096">
        <ele>2292.6</ele>
        <time>2021-04-17T08:01:53Z</time>
      </trkpt>
      <trkpt lat="45.20643" lon="5.98097">
        <ele>2292.2</ele>
        <time>2021-04-17T08:01:56Z</time>
      </trkpt>
      <trkpt lat="45.20645" lon="5.98102">
        <ele>2291</ele>
        <time>2021-04-17T08:01:58Z</time>
      </trkpt>
      <trkpt lat="45.20645" lon="5.98105">
        <ele>2289.8</ele>
        <time>2021-04-17T08:01:59Z</time>
      </trkpt>
      <trkpt lat="45.20644" lon="5.98108">
        <ele>2288.6</ele>
        <time>2021-04-17T08:02:00Z</time>
      </trkpt>
      <trkpt lat="45.20644" lon="5.9811">
        <ele>2287.6</ele>
        <time>2021-04-17T08:02:01Z</time>
      </trkpt>
      <trkpt lat="45.20646" lon="5.98112">
        <ele>2286.6</ele>
        <time>2021-04-17T08:02:02Z</time>
      </trkpt>
      <trkpt lat="45.20647" lon="5.98116">
        <ele>2283.6</ele>
        <time>2021-04-17T08:02:03Z</time>
      </trkpt>
      <trkpt lat="45.20647" lon="5.98122">
        <ele>2281.8</ele>
        <time>2021-04-17T08:02:05Z</time>
      </trkpt>
      <trkpt lat="45.20646" lon="5.98125">
        <ele>2280.2</ele>
        <time>2021-04-17T08:02:06Z</time>
      </trkpt>
      <trkpt lat="45.20647" lon="5.98127">
        <ele>2278.8</ele>
        <time>2021-04-17T08:02:07Z</time>
      </trkpt>
      <trkpt lat="45.20649" lon="5.9813">
        <ele>2277.4</ele>
        <time>2021-04-17T08:02:08Z</time>
      </trkpt>
      <trkpt lat="45.2065" lon="5.98133">
        <ele>2275.8</ele>
        <time>2021-04-17T08:02:09Z</time>
      </trkpt>
      <trkpt lat="45.20648" lon="5.98137">
        <ele>2274</ele>
        <time>2021-04-17T08:02:10Z</time>
      </trkpt>
      <trkpt lat="45.20646" lon="5.98141">
        <ele>2272</ele>
        <time>2021-04-17T08:02:11Z</time>
      </trkpt>
      <trkpt lat="45.20644" lon="5.98144">
        <ele>2270</ele>
        <time>2021-04-17T08:02:12Z</time>
      </trkpt>
      <trkpt lat="45.20644" lon="5.98146">
        <ele>2268.8</ele>
        <time>2021-04-17T08:02:13Z</time>
      </trkpt>
      <trkpt lat="45.20647" lon="5.98152">
        <ele>2266.8</ele>
        <time>2021-04-17T08:02:15Z</time>
      </trkpt>
      <trkpt lat="45.20648" lon="5.98155">
        <ele>2265</ele>
        <time>2021-04-17T08:02:16Z</time>
      </trkpt>
      <trkpt lat="45.20648" lon="5.98159">
        <ele>2262.8</ele>
        <time>2021-04-17T08:02:17Z</time>
      </trkpt>
      <trkpt lat="45.2065" lon="5.98163">
        <ele>2260.8</ele>
        <time>2021-04-17T08:02:18Z</time>
      </trkpt>
      <trkpt lat="45.20651" lon="5.98168">
        <ele>2258.6</ele>
        <time>2021-04-17T08:02:19Z</time>
      </trkpt>
      <trkpt lat="45.20651" lon="5.98172">
        <ele>2255.6</ele>
        <time>2021-04-17T08:02:20Z</time>
      </trkpt>
      <trkpt lat="45.20652" lon="5.98175">
        <ele>2252.6</ele>
        <time>2021-04-17T08:02:21Z</time>
      </trkpt>
      <trkpt lat="45.20655" lon="5.98178">
        <ele>2249.8</ele>
        <time>2021-04-17T08:02:22Z</time>
      </trkpt>
      <trkpt lat="45.20656" lon="5.98181">
        <ele>2246.8</ele>
        <time>2021-04-17T08:02:23Z</time>
      </trkpt>
      <trkpt lat="45.20656" lon="5.98185">
        <ele>2243.8</ele>
        <time>2021-04-17T08:02:24Z</time>
      </trkpt>
      <trkpt lat="45.20655" lon="5.98189">
        <ele>2241.2</ele>
        <time>2021-04-17T08:02:25Z</time>
      </trkpt>
      <trkpt lat="45.20655" lon="5.98192">
        <ele>2239</ele>
        <time>2021-04-17T08:02:26Z</time>
      </trkpt>
      <trkpt lat="45.20656" lon="5.98196">
        <ele>2237.2</ele>
        <time>2021-04-17T08:02:27Z</time>
      </trkpt>
      <trkpt lat="45.20658" lon="5.98201">
        <ele>2235.6</ele>
        <time>2021-04-17T08:02:28Z</time>
      </trkpt>
      <trkpt lat="45.20658" lon="5.98206">
        <ele>2233.2</ele>
        <time>2021-04-17T08:02:29Z</time>
      </trkpt>
      <trkpt lat="45.20658" lon="5.98209">
        <ele>2230.4</ele>
        <time>2021-04-17T08:02:30Z</time>
      </trkpt>
      <trkpt lat="45.2066" lon="5.9821">
        <ele>2228.2</ele>
        <time>2021-04-17T08:02:31Z</time>
      </trkpt>
      <trkpt lat="45.20662" lon="5.9821">
        <ele>2226</ele>
        <time>2021-04-17T08:02:32Z</time>
      </trkpt>
      <trkpt lat="45.20664" lon="5.98208">
        <ele>2223.8</ele>
        <time>2021-04-17T08:02:33Z</time>
      </trkpt>
      <trkpt lat="45.20664" lon="5.98207">
        <ele>2222.2</ele>
        <time>2021-04-17T08:02:34Z</time>
      </trkpt>
      <trkpt lat="45.20664" lon="5.98206">
        <ele>2221.2</ele>
        <time>2021-04-17T08:02:35Z</time>
      </trkpt>
      <trkpt lat="45.20664" lon="5.98206">
        <ele>2220.6</ele>
        <time>2021-04-17T08:02:36Z</time>
      </trkpt>
      <trkpt lat="45.20663" lon="5.98204">
        <ele>2220</ele>
        <time>2021-04-17T08:02:38Z</time>
      </trkpt>
      <trkpt lat="45.20664" lon="5.98204">
        <ele>2220</ele>
        <time>2021-04-17T08:02:39Z</time>
      </trkpt>
      <trkpt lat="45.20663" lon="5.98211">
        <ele>2219.6</ele>
        <time>2021-04-17T08:02:41Z</time>
      </trkpt>
      <trkpt lat="45.20662" lon="5.98213">
        <ele>2218.8</ele>
        <time>2021-04-17T08:02:42Z</time>
      </trkpt>
      <trkpt lat="45.20662" lon="5.98215">
        <ele>2217</ele>
        <time>2021-04-17T08:02:44Z</time>
      </trkpt>
      <trkpt lat="45.20662" lon="5.98219">
        <ele>2216</ele>
        <time>2021-04-17T08:02:47Z</time>
      </trkpt>
      <trkpt lat="45.20666" lon="5.98221">
        <ele>2214.2</ele>
        <time>2021-04-17T08:02:50Z</time>
      </trkpt>
      <trkpt lat="45.20666" lon="5.9822">
        <ele>2213.2</ele>
        <time>2021-04-17T08:02:51Z</time>
      </trkpt>
      <trkpt lat="45.20668" lon="5.9822">
        <ele>2211.6</ele>
        <time>2021-04-17T08:02:53Z</time>
      </trkpt>
      <trkpt lat="45.20668" lon="5.98221">
        <ele>2211.2</ele>
        <time>2021-04-17T08:02:54Z</time>
      </trkpt>
      <trkpt lat="45.20666" lon="5.98226">
        <ele>2210.6</ele>
        <time>2021-04-17T08:02:56Z</time>
      </trkpt>
      <trkpt lat="45.20662" lon="5.98232">
        <ele>2208.6</ele>
        <time>2021-04-17T08:02:58Z</time>
      </trkpt>
      <trkpt lat="45.20662" lon="5.98234">
        <ele>2207.6</ele>
        <time>2021-04-17T08:02:59Z</time>
      </trkpt>
      <trkpt lat="45.20662" lon="5.98237">
        <ele>2207</ele>
        <time>2021-04-17T08:03:00Z</time>
      </trkpt>
      <trkpt lat="45.20663" lon="5.98241">
        <ele>2206.4</ele>
        <time>2021-04-17T08:03:01Z</time>
      </trkpt>
      <trkpt lat="45.20663" lon="5.98247">
        <ele>2205</ele>
        <time>2021-04-17T08:03:02Z</time>
      </trkpt>
      <trkpt lat="45.20663" lon="5.9825">
        <ele>2202.8</ele>
        <time>2021-04-17T08:03:03Z</time>
      </trkpt>
      <trkpt lat="45.20663" lon="5.98252">
        <ele>2200.4</ele>
        <time>2021-04-17T08:03:04Z</time>
      </trkpt>
      <trkpt lat="45.20663" lon="5.98252">
        <ele>2198.6</ele>
        <time>2021-04-17T08:03:05Z</time>
      </trkpt>
      <trkpt lat="45.20663" lon="5.98252">
        <ele>2197.8</ele>
        <time>2021-04-17T08:03:06Z</time>
      </trkpt>
      <trkpt lat="45.20663" lon="5.98252">
        <ele>2197.4</ele>
        <time>2021-04-17T08:03:07Z</time>
      </trkpt>
      <trkpt lat="45.20666" lon="5.98257">
        <ele>2196.8</ele>
        <time>2021-04-17T08:03:11Z</time>
      </trkpt>
      <trkpt lat="45.20668" lon="5.98259">
        <ele>2196.8</ele>
        <time>2021-04-17T08:03:13Z</time>
      </trkpt>
      <trkpt lat="45.20669" lon="5.98259">
        <ele>2196.8</ele>
        <time>2021-04-17T08:03:14Z</time>
      </trkpt>
      <trkpt lat="45.20671" lon="5.98264">
        <ele>2196.8</ele>
        <time>2021-04-17T08:03:17Z</time>
      </trkpt>
      <trkpt lat="45.20676" lon="5.98267">
        <ele>2196.2</ele>
        <time>2021-04-17T08:03:19Z</time>
      </trkpt>
      <trkpt lat="45.20678" lon="5.98271">
        <ele>2195</ele>
        <time>2021-04-17T08:03:20Z</time>
      </trkpt>
      <trkpt lat="45.2068" lon="5.98276">
        <ele>2193.2</ele>
        <time>2021-04-17T08:03:21Z</time>
      </trkpt>
      <trkpt lat="45.20682" lon="5.9828">
        <ele>2191.4</ele>
        <time>2021-04-17T08:03:22Z</time>
      </trkpt>
      <trkpt lat="45.20682" lon="5.98285">
        <ele>2189.2</ele>
        <time>2021-04-17T08:03:23Z</time>
      </trkpt>
      <trkpt lat="45.20682" lon="5.9829">
        <ele>2186.6</ele>
        <time>2021-04-17T08:03:24Z</time>
      </trkpt>
      <trkpt lat="45.20684" lon="5.98295">
        <ele>2184</ele>
        <time>2021-04-17T08:03:25Z</time>
      </trkpt>
      <trkpt lat="45.20686" lon="5.98302">
        <ele>2181.4</ele>
        <time>2021-04-17T08:03:26Z</time>
      </trkpt>
      <trkpt lat="45.20686" lon="5.98307">
        <ele>2179</ele>
        <time>2021-04-17T08:03:27Z</time>
      </trkpt>
      <trkpt lat="45.20685" lon="5.98312">
        <ele>2176.4</ele>
        <time>2021-04-17T08:03:28Z</time>
      </trkpt>
      <trkpt lat="45.20684" lon="5.98317">
        <ele>2174</ele>
        <time>2021-04-17T08:03:29Z</time>
      </trkpt>
      <trkpt lat="45.20683" lon="5.98323">
        <ele>2171.6</ele>
        <time>2021-04-17T08:03:30Z</time>
      </trkpt>
      <trkpt lat="45.20684" lon="5.98325">
        <ele>2168.2</ele>
        <time>2021-04-17T08:03:31Z</time>
      </trkpt>
      <trkpt lat="45.20689" lon="5.98332">
        <ele>2165.4</ele>
        <time>2021-04-17T08:03:33Z</time>
      </trkpt>
      <trkpt lat="45.20688" lon="5.98338">
        <ele>2162</ele>
        <time>2021-04-17T08:03:34Z</time>
      </trkpt>
      <trkpt lat="45.20688" lon="5.98343">
        <ele>2158.8</ele>
        <time>2021-04-17T08:03:35Z</time>
      </trkpt>
      <trkpt lat="45.20687" lon="5.98344">
        <ele>2156.6</ele>
        <time>2021-04-17T08:03:36Z</time>
      </trkpt>
      <trkpt lat="45.20688" lon="5.98345">
        <ele>2155.2</ele>
        <time>2021-04-17T08:03:37Z</time>
      </trkpt>
      <trkpt lat="45.20688" lon="5.98346">
        <ele>2154.2</ele>
        <time>2021-04-17T08:03:38Z</time>
      </trkpt>
      <trkpt lat="45.2069" lon="5.98345">
        <ele>2153.4</ele>
        <time>2021-04-17T08:03:39Z</time>
      </trkpt>
      <trkpt lat="45.20692" lon="5.98342">
        <ele>2152.2</ele>
        <time>2021-04-17T08:03:40Z</time>
      </trkpt>
      <trkpt lat="45.20692" lon="5.9834">
        <ele>2150.6</ele>
        <time>2021-04-17T08:03:41Z</time>
      </trkpt>
      <trkpt lat="45.20692" lon="5.98337">
        <ele>2149.2</ele>
        <time>2021-04-17T08:03:42Z</time>
      </trkpt>
      <trkpt lat="45.20692" lon="5.98335">
        <ele>2148.2</ele>
        <time>2021-04-17T08:03:43Z</time>
      </trkpt>
      <trkpt lat="45.2069" lon="5.98333">
        <ele>2147.4</ele>
        <time>2021-04-17T08:03:44Z</time>
      </trkpt>
      <trkpt lat="45.20691" lon="5.98338">
        <ele>2146.8</ele>
        <time>2021-04-17T08:03:46Z</time>
      </trkpt>
      <trkpt lat="45.20691" lon="5.98342">
        <ele>2146.6</ele>
        <time>2021-04-17T08:03:47Z</time>
      </trkpt>
      <trkpt lat="45.2069" lon="5.98349">
        <ele>2144.8</ele>
        <time>2021-04-17T08:03:49Z</time>
      </trkpt>
      <trkpt lat="45.20689" lon="5.98354">
        <ele>2143.6</ele>
        <time>2021-04-17T08:03:50Z</time>
      </trkpt>
      <trkpt lat="45.2069" lon="5.98357">
        <ele>2142.4</ele>
        <time>2021-04-17T08:03:51Z</time>
      </trkpt>
      <trkpt lat="45.20692" lon="5.98358">
        <ele>2141.2</ele>
        <time>2021-04-17T08:03:52Z</time>
      </trkpt>
      <trkpt lat="45.20694" lon="5.98361">
        <ele>2139.8</ele>
        <time>2021-04-17T08:03:53Z</time>
      </trkpt>
      <trkpt lat="45.20694" lon="5.98365">
        <ele>2137.8</ele>
        <time>2021-04-17T08:03:54Z</time>
      </trkpt>
      <trkpt lat="45.20692" lon="5.9837">
        <ele>2135.8</ele>
        <time>2021-04-17T08:03:55Z</time>
      </trkpt>
      <trkpt lat="45.20693" lon="5.98375">
        <ele>2134</ele>
        <time>2021-04-17T08:03:56Z</time>
      </trkpt>
      <trkpt lat="45.20696" lon="5.98377">
        <ele>2132</ele>
        <time>2021-04-17T08:03:57Z</time>
      </trkpt>
      <trkpt lat="45.20699" lon="5.98378">
        <ele>2129.6</ele>
        <time>2021-04-17T08:03:58Z</time>
      </trkpt>
      <trkpt lat="45.20703" lon="5.98376">
        <ele>2127</ele>
        <time>2021-04-17T08:03:59Z</time>
      </trkpt>
      <trkpt lat="45.20705" lon="5.98374">
        <ele>2124.8</ele>
        <time>2021-04-17T08:04:00Z</time>
      </trkpt>
      <trkpt lat="45.20706" lon="5.98373">
        <ele>2123.4</ele>
        <time>2021-04-17T08:04:01Z</time>
      </trkpt>
      <trkpt lat="45.20706" lon="5.98371">
        <ele>2122.4</ele>
        <time>2021-04-17T08:04:03Z</time>
      </trkpt>
      <trkpt lat="45.20705" lon="5.98369">
        <ele>2122.2</ele>
        <time>2021-04-17T08:04:05Z</time>
      </trkpt>
      <trkpt lat="45.20707" lon="5.98365">
        <ele>2122</ele>
        <time>2021-04-17T08:04:08Z</time>
      </trkpt>
      <trkpt lat="45.20708" lon="5.98364">
        <ele>2121.8</ele>
        <time>2021-04-17T08:04:11Z</time>
      </trkpt>
      <trkpt lat="45.20708" lon="5.9836">
        <ele>2121.6</ele>
        <time>2021-04-17T08:04:15Z</time>
      </trkpt>
      <trkpt lat="45.20709" lon="5.98359">
        <ele>2121.6</ele>
        <time>2021-04-17T08:04:18Z</time>
      </trkpt>
      <trkpt lat="45.20709" lon="5.98358">
        <ele>2121.8</ele>
        <time>2021-04-17T08:04:19Z</time>
      </trkpt>
      <trkpt lat="45.2071" lon="5.98358">
        <ele>2121.8</ele>
        <time>2021-04-17T08:04:20Z</time>
      </trkpt>
      <trkpt lat="45.2071" lon="5.98357">
        <ele>2121.8</ele>
        <time>2021-04-17T08:04:21Z</time>
      </trkpt>
      <trkpt lat="45.20711" lon="5.98357">
        <ele>2121.8</ele>
        <time>2021-04-17T08:04:23Z</time>
      </trkpt>
      <trkpt lat="45.2071" lon="5.98356">
        <ele>2121.8</ele>
        <time>2021-04-17T08:04:25Z</time>
      </trkpt>
      <trkpt lat="45.2071" lon="5.98356">
        <ele>2121.6</ele>
        <time>2021-04-17T08:04:27Z</time>
      </trkpt>
      <trkpt lat="45.2071" lon="5.98356">
        <ele>2121.6</ele>
        <time>2021-04-17T08:04:31Z</time>
      </trkpt>
      <trkpt lat="45.2071" lon="5.98355">
        <ele>2121.6</ele>
        <time>2021-04-17T08:04:34Z</time>
      </trkpt>
      <trkpt lat="45.2071" lon="5.98355">
        <ele>2121.4</ele>
        <time>2021-04-17T08:04:37Z</time>
      </trkpt>
      <trkpt lat="45.2071" lon="5.98355">
        <ele>2121.2</ele>
        <time>2021-04-17T08:04:38Z</time>
      </trkpt>
      <trkpt lat="45.2071" lon="5.98355">
        <ele>2121.2</ele>
        <time>2021-04-17T08:04:39Z</time>
      </trkpt>
      <trkpt lat="45.2071" lon="5.98355">
        <ele>2121.2</ele>
        <time>2021-04-17T08:04:40Z</time>
      </trkpt>
      <trkpt lat="45.2071" lon="5.98355">
        <ele>2121.2</ele>
        <time>2021-04-17T08:04:41Z</time>
      </trkpt>
      <trkpt lat="45.2071" lon="5.98355">
        <ele>2121.2</ele>
        <time>2021-04-17T08:04:42Z</time>
      </trkpt>
      <trkpt lat="45.2071" lon="5.98355">
        <ele>2121.2</ele>
        <time>2021-04-17T08:04:44Z</time>
      </trkpt>
      <trkpt lat="45.2071" lon="5.98355">
        <ele>2121.2</ele>
        <time>2021-04-17T08:04:46Z</time>
      </trkpt>
      <trkpt lat="45.20711" lon="5.98358">
        <ele>2121</ele>
        <time>2021-04-17T08:04:48Z</time>
      </trkpt>
      <trkpt lat="45.20708" lon="5.98364">
        <ele>2120</ele>
        <time>2021-04-17T08:04:50Z</time>
      </trkpt>
      <trkpt lat="45.20706" lon="5.98366">
        <ele>2119</ele>
        <time>2021-04-17T08:04:51Z</time>
      </trkpt>
      <trkpt lat="45.20705" lon="5.98368">
        <ele>2117.8</ele>
        <time>2021-04-17T08:04:52Z</time>
      </trkpt>
      <trkpt lat="45.20702" lon="5.98372">
        <ele>2116.4</ele>
        <time>2021-04-17T08:04:54Z</time>
      </trkpt>
      <trkpt lat="45.20699" lon="5.98377">
        <ele>2115.2</ele>
        <time>2021-04-17T08:04:56Z</time>
      </trkpt>
      <trkpt lat="45.20698" lon="5.98378">
        <ele>2114.4</ele>
        <time>2021-04-17T08:04:57Z</time>
      </trkpt>
      <trkpt lat="45.20698" lon="5.98379">
        <ele>2113.8</ele>
        <time>2021-04-17T08:04:58Z</time>
      </trkpt>
      <trkpt lat="45.20697" lon="5.9838">
        <ele>2113.4</ele>
        <time>2021-04-17T08:04:59Z</time>
      </trkpt>
      <trkpt lat="45.20697" lon="5.9838">
        <ele>2113</ele>
        <time>2021-04-17T08:05:00Z</time>
      </trkpt>
      <trkpt lat="45.20697" lon="5.98382">
        <ele>2112.8</ele>
        <time>2021-04-17T08:05:02Z</time>
      </trkpt>
      <trkpt lat="45.20696" lon="5.98384">
        <ele>2112.6</ele>
        <time>2021-04-17T08:05:03Z</time>
      </trkpt>
      <trkpt lat="45.20692" lon="5.98396">
        <ele>2111.6</ele>
        <time>2021-04-17T08:05:06Z</time>
      </trkpt>
      <trkpt lat="45.20689" lon="5.98399">
        <ele>2110.6</ele>
        <time>2021-04-17T08:05:07Z</time>
      </trkpt>
      <trkpt lat="45.20686" lon="5.98403">
        <ele>2109</ele>
        <time>2021-04-17T08:05:08Z</time>
      </trkpt>
      <trkpt lat="45.20684" lon="5.98406">
        <ele>2107.2</ele>
        <time>2021-04-17T08:05:09Z</time>
      </trkpt>
      <trkpt lat="45.20682" lon="5.98409">
        <ele>2106</ele>
        <time>2021-04-17T08:05:10Z</time>
      </trkpt>
      <trkpt lat="45.20679" lon="5.98415">
        <ele>2104.2</ele>
        <time>2021-04-17T08:05:12Z</time>
      </trkpt>
      <trkpt lat="45.20678" lon="5.9842">
        <ele>2103</ele>
        <time>2021-04-17T08:05:13Z</time>
      </trkpt>
      <trkpt lat="45.20676" lon="5.98425">
        <ele>2102</ele>
        <time>2021-04-17T08:05:14Z</time>
      </trkpt>
      <trkpt lat="45.20675" lon="5.9843">
        <ele>2100.6</ele>
        <time>2021-04-17T08:05:15Z</time>
      </trkpt>
      <trkpt lat="45.20673" lon="5.98436">
        <ele>2099</ele>
        <time>2021-04-17T08:05:16Z</time>
      </trkpt>
      <trkpt lat="45.20673" lon="5.98439">
        <ele>2096.4</ele>
        <time>2021-04-17T08:05:17Z</time>
      </trkpt>
      <trkpt lat="45.20673" lon="5.98444">
        <ele>2095.6</ele>
        <time>2021-04-17T08:05:19Z</time>
      </trkpt>
      <trkpt lat="45.20674" lon="5.98446">
        <ele>2094.6</ele>
        <time>2021-04-17T08:05:20Z</time>
      </trkpt>
      <trkpt lat="45.20676" lon="5.98447">
        <ele>2092.6</ele>
        <time>2021-04-17T08:05:21Z</time>
      </trkpt>
      <trkpt lat="45.2068" lon="5.98453">
        <ele>2090.8</ele>
        <time>2021-04-17T08:05:23Z</time>
      </trkpt>
      <trkpt lat="45.20681" lon="5.98456">
        <ele>2088.4</ele>
        <time>2021-04-17T08:05:24Z</time>
      </trkpt>
      <trkpt lat="45.20683" lon="5.98459">
        <ele>2085.8</ele>
        <time>2021-04-17T08:05:25Z</time>
      </trkpt>
      <trkpt lat="45.20685" lon="5.98465">
        <ele>2083.2</ele>
        <time>2021-04-17T08:05:26Z</time>
      </trkpt>
      <trkpt lat="45.20686" lon="5.98469">
        <ele>2080.8</ele>
        <time>2021-04-17T08:05:27Z</time>
      </trkpt>
      <trkpt lat="45.20688" lon="5.98472">
        <ele>2078.8</ele>
        <time>2021-04-17T08:05:28Z</time>
      </trkpt>
      <trkpt lat="45.20693" lon="5.98474">
        <ele>2077</ele>
        <time>2021-04-17T08:05:29Z</time>
      </trkpt>
      <trkpt lat="45.20694" lon="5.9848">
        <ele>2074.8</ele>
        <time>2021-04-17T08:05:30Z</time>
      </trkpt>
      <trkpt lat="45.20693" lon="5.98484">
        <ele>2072.2</ele>
        <time>2021-04-17T08:05:31Z</time>
      </trkpt>
      <trkpt lat="45.20693" lon="5.98488">
        <ele>2069.8</ele>
        <time>2021-04-17T08:05:32Z</time>
      </trkpt>
      <trkpt lat="45.20694" lon="5.98491">
        <ele>2068</ele>
        <time>2021-04-17T08:05:33Z</time>
      </trkpt>
      <trkpt lat="45.20695" lon="5.98492">
        <ele>2066.8</ele>
        <time>2021-04-17T08:05:34Z</time>
      </trkpt>
      <trkpt lat="45.20699" lon="5.98492">
        <ele>2065.6</ele>
        <time>2021-04-17T08:05:35Z</time>
      </trkpt>
      <trkpt lat="45.20702" lon="5.98492">
        <ele>2064</ele>
        <time>2021-04-17T08:05:36Z</time>
      </trkpt>
      <trkpt lat="45.20704" lon="5.98496">
        <ele>2062.6</ele>
        <time>2021-04-17T08:05:37Z</time>
      </trkpt>
      <trkpt lat="45.20704" lon="5.98501">
        <ele>2061.4</ele>
        <time>2021-04-17T08:05:38Z</time>
      </trkpt>
      <trkpt lat="45.20705" lon="5.98504">
        <ele>2060</ele>
        <time>2021-04-17T08:05:39Z</time>
      </trkpt>
      <trkpt lat="45.20707" lon="5.98508">
        <ele>2058.2</ele>
        <time>2021-04-17T08:05:40Z</time>
      </trkpt>
      <trkpt lat="45.20709" lon="5.98513">
        <ele>2056.2</ele>
        <time>2021-04-17T08:05:41Z</time>
      </trkpt>
      <trkpt lat="45.20708" lon="5.98518">
        <ele>2053.8</ele>
        <time>2021-04-17T08:05:42Z</time>
      </trkpt>
      <trkpt lat="45.20709" lon="5.98522">
        <ele>2051.6</ele>
        <time>2021-04-17T08:05:43Z</time>
      </trkpt>
      <trkpt lat="45.20713" lon="5.98526">
        <ele>2049.8</ele>
        <time>2021-04-17T08:05:44Z</time>
      </trkpt>
      <trkpt lat="45.20714" lon="5.9853">
        <ele>2047.6</ele>
        <time>2021-04-17T08:05:45Z</time>
      </trkpt>
      <trkpt lat="45.20714" lon="5.98536">
        <ele>2045.2</ele>
        <time>2021-04-17T08:05:46Z</time>
      </trkpt>
      <trkpt lat="45.20712" lon="5.98542">
        <ele>2042.6</ele>
        <time>2021-04-17T08:05:47Z</time>
      </trkpt>
      <trkpt lat="45.2071" lon="5.98548">
        <ele>2039.8</ele>
        <time>2021-04-17T08:05:48Z</time>
      </trkpt>
      <trkpt lat="45.20707" lon="5.98553">
        <ele>2037.4</ele>
        <time>2021-04-17T08:05:49Z</time>
      </trkpt>
      <trkpt lat="45.20704" lon="5.98557">
        <ele>2035.6</ele>
        <time>2021-04-17T08:05:50Z</time>
      </trkpt>
      <trkpt lat="45.20701" lon="5.98561">
        <ele>2034.2</ele>
        <time>2021-04-17T08:05:51Z</time>
      </trkpt>
      <trkpt lat="45.20698" lon="5.98565">
        <ele>2033.2</ele>
        <time>2021-04-17T08:05:52Z</time>
      </trkpt>
      <trkpt lat="45.2069" lon="5.98574">
        <ele>2031.2</ele>
        <time>2021-04-17T08:05:54Z</time>
      </trkpt>
      <trkpt lat="45.20686" lon="5.9858">
        <ele>2030.2</ele>
        <time>2021-04-17T08:05:55Z</time>
      </trkpt>
      <trkpt lat="45.20681" lon="5.98586">
        <ele>2029</ele>
        <time>2021-04-17T08:05:56Z</time>
      </trkpt>
      <trkpt lat="45.20677" lon="5.98592">
        <ele>2027.6</ele>
        <time>2021-04-17T08:05:57Z</time>
      </trkpt>
      <trkpt lat="45.20672" lon="5.98599">
        <ele>2025.6</ele>
        <time>2021-04-17T08:05:58Z</time>
      </trkpt>
      <trkpt lat="45.20667" lon="5.98606">
        <ele>2023.6</ele>
        <time>2021-04-17T08:05:59Z</time>
      </trkpt>
      <trkpt lat="45.20663" lon="5.98612">
        <ele>2021.8</ele>
        <time>2021-04-17T08:06:00Z</time>
      </trkpt>
      <trkpt lat="45.20659" lon="5.98617">
        <ele>2020.2</ele>
        <time>2021-04-17T08:06:01Z</time>
      </trkpt>
      <trkpt lat="45.20655" lon="5.98622">
        <ele>2019</ele>
        <time>2021-04-17T08:06:02Z</time>
      </trkpt>
      <trkpt lat="45.20652" lon="5.98625">
        <ele>2017.8</ele>
        <time>2021-04-17T08:06:03Z</time>
      </trkpt>
      <trkpt lat="45.20649" lon="5.98626">
        <ele>2017</ele>
        <time>2021-04-17T08:06:04Z</time>
      </trkpt>
      <trkpt lat="45.20648" lon="5.98626">
        <ele>2016.4</ele>
        <time>2021-04-17T08:06:05Z</time>
      </trkpt>
      <trkpt lat="45.20647" lon="5.98625">
        <ele>2016</ele>
        <time>2021-04-17T08:06:06Z</time>
      </trkpt>
      <trkpt lat="45.20647" lon="5.98625">
        <ele>2015.8</ele>
        <time>2021-04-17T08:06:07Z</time>
      </trkpt>
      <trkpt lat="45.20644" lon="5.98625">
        <ele>2015.8</ele>
        <time>2021-04-17T08:06:12Z</time>
      </trkpt>
      <trkpt lat="45.2064" lon="5.98624">
        <ele>2015.8</ele>
        <time>2021-04-17T08:06:14Z</time>
      </trkpt>
      <trkpt lat="45.20636" lon="5.98624">
        <ele>2015.8</ele>
        <time>2021-04-17T08:06:17Z</time>
      </trkpt>
      <trkpt lat="45.20635" lon="5.98623">
        <ele>2015.8</ele>
        <time>2021-04-17T08:06:19Z</time>
      </trkpt>
      <trkpt lat="45.20634" lon="5.98624">
        <ele>2015.8</ele>
        <time>2021-04-17T08:06:21Z</time>
      </trkpt>
      <trkpt lat="45.20634" lon="5.98625">
        <ele>2015.8</ele>
        <time>2021-04-17T08:06:22Z</time>
      </trkpt>
      <trkpt lat="45.20633" lon="5.98626">
        <ele>2015.8</ele>
        <time>2021-04-17T08:06:28Z</time>
      </trkpt>
      <trkpt lat="45.20631" lon="5.98626">
        <ele>2015.8</ele>
        <time>2021-04-17T08:06:31Z</time>
      </trkpt>
      <trkpt lat="45.20631" lon="5.98626">
        <ele>2015.8</ele>
        <time>2021-04-17T08:06:33Z</time>
      </trkpt>
      <trkpt lat="45.20631" lon="5.98626">
        <ele>2015.8</ele>
        <time>2021-04-17T08:06:38Z</time>
      </trkpt>
      <trkpt lat="45.20631" lon="5.98626">
        <ele>2015.8</ele>
        <time>2021-04-17T08:06:40Z</time>
      </trkpt>
      <trkpt lat="45.20631" lon="5.98626">
        <ele>2015.8</ele>
        <time>2021-04-17T08:06:41Z</time>
      </trkpt>
      <trkpt lat="45.20631" lon="5.98626">
        <ele>2015.6</ele>
        <time>2021-04-17T08:06:45Z</time>
      </trkpt>
      <trkpt lat="45.20631" lon="5.98626">
        <ele>2015.6</ele>
        <time>2021-04-17T08:06:46Z</time>
      </trkpt>
      <trkpt lat="45.20631" lon="5.98626">
        <ele>2015.6</ele>
        <time>2021-04-17T08:06:47Z</time>
      </trkpt>
      <trkpt lat="45.20632" lon="5.98625">
        <ele>2015.6</ele>
        <time>2021-04-17T08:06:50Z</time>
      </trkpt>
      <trkpt lat="45.20633" lon="5.98625">
        <ele>2015.6</ele>
        <time>2021-04-17T08:06:53Z</time>
      </trkpt>
      <trkpt lat="45.20633" lon="5.98625">
        <ele>2015.6</ele>
        <time>2021-04-17T08:06:55Z</time>
      </trkpt>
      <trkpt lat="45.20633" lon="5.98625">
        <ele>2015.6</ele>
        <time>2021-04-17T08:06:56Z</time>
      </trkpt>
      <trkpt lat="45.20633" lon="5.98622">
        <ele>2015.4</ele>
        <time>2021-04-17T08:07:02Z</time>
      </trkpt>
      <trkpt lat="45.20633" lon="5.98622">
        <ele>2015.4</ele>
        <time>2021-04-17T08:07:03Z</time>
      </trkpt>
      <trkpt lat="45.20633" lon="5.98621">
        <ele>2015.2</ele>
        <time>2021-04-17T08:07:08Z</time>
      </trkpt>
      <trkpt lat="45.20633" lon="5.98621">
        <ele>2015.2</ele>
        <time>2021-04-17T08:07:10Z</time>
      </trkpt>
      <trkpt lat="45.20633" lon="5.98621">
        <ele>2015.2</ele>
        <time>2021-04-17T08:07:12Z</time>
      </trkpt>
      <trkpt lat="45.20633" lon="5.98621">
        <ele>2015.2</ele>
        <time>2021-04-17T08:07:13Z</time>
      </trkpt>
      <trkpt lat="45.20633" lon="5.98621">
        <ele>2015.2</ele>
        <time>2021-04-17T08:07:14Z</time>
      </trkpt>
      <trkpt lat="45.20633" lon="5.98621">
        <ele>2015.2</ele>
        <time>2021-04-17T08:07:16Z</time>
      </trkpt>
      <trkpt lat="45.20633" lon="5.98621">
        <ele>2015.2</ele>
        <time>2021-04-17T08:07:17Z</time>
      </trkpt>
      <trkpt lat="45.20633" lon="5.98621">
        <ele>2015.2</ele>
        <time>2021-04-17T08:07:18Z</time>
      </trkpt>
      <trkpt lat="45.20633" lon="5.98621">
        <ele>2015.2</ele>
        <time>2021-04-17T08:07:20Z</time>
      </trkpt>
      <trkpt lat="45.20633" lon="5.98621">
        <ele>2015.2</ele>
        <time>2021-04-17T08:07:22Z</time>
      </trkpt>
      <trkpt lat="45.20633" lon="5.98621">
        <ele>2015.2</ele>
        <time>2021-04-17T08:07:27Z</time>
      </trkpt>
      <trkpt lat="45.20633" lon="5.98621">
        <ele>2015.4</ele>
        <time>2021-04-17T08:07:29Z</time>
      </trkpt>
      <trkpt lat="45.20633" lon="5.98621">
        <ele>2015.4</ele>
        <time>2021-04-17T08:07:32Z</time>
      </trkpt>
      <trkpt lat="45.20633" lon="5.98621">
        <ele>2015.4</ele>
        <time>2021-04-17T08:07:36Z</time>
      </trkpt>
      <trkpt lat="45.20633" lon="5.98621">
        <ele>2015.4</ele>
        <time>2021-04-17T08:07:39Z</time>
      </trkpt>
      <trkpt lat="45.20633" lon="5.98621">
        <ele>2015.4</ele>
        <time>2021-04-17T08:07:43Z</time>
      </trkpt>
      <trkpt lat="45.20632" lon="5.98621">
        <ele>2015.2</ele>
        <time>2021-04-17T08:07:49Z</time>
      </trkpt>
      <trkpt lat="45.20631" lon="5.98621">
        <ele>2015.2</ele>
        <time>2021-04-17T08:07:52Z</time>
      </trkpt>
      <trkpt lat="45.2063" lon="5.98622">
        <ele>2015.2</ele>
        <time>2021-04-17T08:07:55Z</time>
      </trkpt>
      <trkpt lat="45.2063" lon="5.98622">
        <ele>2015.2</ele>
        <time>2021-04-17T08:07:56Z</time>
      </trkpt>
      <trkpt lat="45.2063" lon="5.98622">
        <ele>2015.2</ele>
        <time>2021-04-17T08:07:57Z</time>
      </trkpt>
      <trkpt lat="45.20629" lon="5.98622">
        <ele>2015.4</ele>
        <time>2021-04-17T08:08:03Z</time>
      </trkpt>
      <trkpt lat="45.20629" lon="5.98623">
        <ele>2015.4</ele>
        <time>2021-04-17T08:08:07Z</time>
      </trkpt>
      <trkpt lat="45.20629" lon="5.98623">
        <ele>2015.2</ele>
        <time>2021-04-17T08:08:08Z</time>
      </trkpt>
      <trkpt lat="45.20628" lon="5.98623">
        <ele>2014.8</ele>
        <time>2021-04-17T08:08:12Z</time>
      </trkpt>
      <trkpt lat="45.20628" lon="5.98623">
        <ele>2014.8</ele>
        <time>2021-04-17T08:08:13Z</time>
      </trkpt>
      <trkpt lat="45.20628" lon="5.98623">
        <ele>2014.8</ele>
        <time>2021-04-17T08:08:16Z</time>
      </trkpt>
      <trkpt lat="45.20629" lon="5.98623">
        <ele>2014.8</ele>
        <time>2021-04-17T08:08:17Z</time>
      </trkpt>
      <trkpt lat="45.20629" lon="5.98624">
        <ele>2014.8</ele>
        <time>2021-04-17T08:08:23Z</time>
      </trkpt>
      <trkpt lat="45.20629" lon="5.98624">
        <ele>2014.8</ele>
        <time>2021-04-17T08:08:26Z</time>
      </trkpt>
      <trkpt lat="45.20629" lon="5.98624">
        <ele>2014.8</ele>
        <time>2021-04-17T08:08:28Z</time>
      </trkpt>
      <trkpt lat="45.20629" lon="5.98624">
        <ele>2014.8</ele>
        <time>2021-04-17T08:08:29Z</time>
      </trkpt>
      <trkpt lat="45.20629" lon="5.98624">
        <ele>2014.8</ele>
        <time>2021-04-17T08:08:30Z</time>
      </trkpt>
      <trkpt lat="45.2063" lon="5.98625">
        <ele>2014.8</ele>
        <time>2021-04-17T08:08:32Z</time>
      </trkpt>
      <trkpt lat="45.2063" lon="5.98625">
        <ele>2014.8</ele>
        <time>2021-04-17T08:08:33Z</time>
      </trkpt>
      <trkpt lat="45.2063" lon="5.98625">
        <ele>2014.8</ele>
        <time>2021-04-17T08:08:35Z</time>
      </trkpt>
      <trkpt lat="45.2063" lon="5.98625">
        <ele>2014.8</ele>
        <time>2021-04-17T08:08:37Z</time>
      </trkpt>
      <trkpt lat="45.2063" lon="5.98625">
        <ele>2014.8</ele>
        <time>2021-04-17T08:08:38Z</time>
      </trkpt>
      <trkpt lat="45.2063" lon="5.98625">
        <ele>2014.8</ele>
        <time>2021-04-17T08:08:39Z</time>
      </trkpt>
      <trkpt lat="45.2063" lon="5.98625">
        <ele>2014.8</ele>
        <time>2021-04-17T08:08:40Z</time>
      </trkpt>
      <trkpt lat="45.2063" lon="5.98625">
        <ele>2014.8</ele>
        <time>2021-04-17T08:08:41Z</time>
      </trkpt>
      <trkpt lat="45.2063" lon="5.98625">
        <ele>2014.8</ele>
        <time>2021-04-17T08:08:43Z</time>
      </trkpt>
      <trkpt lat="45.20631" lon="5.98625">
        <ele>2014.8</ele>
        <time>2021-04-17T08:08:45Z</time>
      </trkpt>
      <trkpt lat="45.20631" lon="5.98625">
        <ele>2014.8</ele>
        <time>2021-04-17T08:08:49Z</time>
      </trkpt>
      <trkpt lat="45.20631" lon="5.98625">
        <ele>2014.8</ele>
        <time>2021-04-17T08:08:50Z</time>
      </trkpt>
      <trkpt lat="45.20631" lon="5.98625">
        <ele>2014.8</ele>
        <time>2021-04-17T08:08:52Z</time>
      </trkpt>
      <trkpt lat="45.20631" lon="5.98624">
        <ele>2014.8</ele>
        <time>2021-04-17T08:08:54Z</time>
      </trkpt>
      <trkpt lat="45.20632" lon="5.98624">
        <ele>2014.8</ele>
        <time>2021-04-17T08:08:56Z</time>
      </trkpt>
      <trkpt lat="45.20632" lon="5.98624">
        <ele>2014.8</ele>
        <time>2021-04-17T08:09:01Z</time>
      </trkpt>
      <trkpt lat="45.20632" lon="5.98623">
        <ele>2014.8</ele>
        <time>2021-04-17T08:09:05Z</time>
      </trkpt>
      <trkpt lat="45.20633" lon="5.98623">
        <ele>2014.8</ele>
        <time>2021-04-17T08:09:07Z</time>
      </trkpt>
      <trkpt lat="45.20633" lon="5.98623">
        <ele>2014.8</ele>
        <time>2021-04-17T08:09:08Z</time>
      </trkpt>
      <trkpt lat="45.20633" lon="5.98623">
        <ele>2014.8</ele>
        <time>2021-04-17T08:09:12Z</time>
      </trkpt>
      <trkpt lat="45.20633" lon="5.98623">
        <ele>2014.8</ele>
        <time>2021-04-17T08:09:14Z</time>
      </trkpt>
      <trkpt lat="45.20633" lon="5.98623">
        <ele>2014.8</ele>
        <time>2021-04-17T08:09:15Z</time>
      </trkpt>
      <trkpt lat="45.20633" lon="5.98623">
        <ele>2014.8</ele>
        <time>2021-04-17T08:09:17Z</time>
      </trkpt>
      <trkpt lat="45.20633" lon="5.98623">
        <ele>2014.8</ele>
        <time>2021-04-17T08:09:22Z</time>
      </trkpt>
      <trkpt lat="45.20633" lon="5.98623">
        <ele>2014.8</ele>
        <time>2021-04-17T08:09:25Z</time>
      </trkpt>
      <trkpt lat="45.20633" lon="5.98622">
        <ele>2014.8</ele>
        <time>2021-04-17T08:09:27Z</time>
      </trkpt>
      <trkpt lat="45.20633" lon="5.98622">
        <ele>2014.8</ele>
        <time>2021-04-17T08:09:28Z</time>
      </trkpt>
      <trkpt lat="45.20633" lon="5.98622">
        <ele>2014.8</ele>
        <time>2021-04-17T08:09:32Z</time>
      </trkpt>
      <trkpt lat="45.20633" lon="5.98622">
        <ele>2014.8</ele>
        <time>2021-04-17T08:09:35Z</time>
      </trkpt>
      <trkpt lat="45.20634" lon="5.98621">
        <ele>2014.8</ele>
        <time>2021-04-17T08:09:38Z</time>
      </trkpt>
      <trkpt lat="45.20634" lon="5.98621">
        <ele>2014.8</ele>
        <time>2021-04-17T08:09:39Z</time>
      </trkpt>
      <trkpt lat="45.20635" lon="5.9862">
        <ele>2014.8</ele>
        <time>2021-04-17T08:09:45Z</time>
      </trkpt>
      <trkpt lat="45.20635" lon="5.9862">
        <ele>2014.8</ele>
        <time>2021-04-17T08:09:51Z</time>
      </trkpt>
      <trkpt lat="45.20635" lon="5.9862">
        <ele>2014.8</ele>
        <time>2021-04-17T08:09:57Z</time>
      </trkpt>
      <trkpt lat="45.20635" lon="5.9862">
        <ele>2014.8</ele>
        <time>2021-04-17T08:10:03Z</time>
      </trkpt>
      <trkpt lat="45.20635" lon="5.9862">
        <ele>2014.8</ele>
        <time>2021-04-17T08:10:07Z</time>
      </trkpt>
      <trkpt lat="45.20635" lon="5.9862">
        <ele>2014.8</ele>
        <time>2021-04-17T08:10:09Z</time>
      </trkpt>
      <trkpt lat="45.20635" lon="5.9862">
        <ele>2014.8</ele>
        <time>2021-04-17T08:10:10Z</time>
      </trkpt>
      <trkpt lat="45.20635" lon="5.9862">
        <ele>2014.8</ele>
        <time>2021-04-17T08:10:11Z</time>
      </trkpt>
      <trkpt lat="45.20635" lon="5.9862">
        <ele>2014.8</ele>
        <time>2021-04-17T08:10:12Z</time>
      </trkpt>
      <trkpt lat="45.20635" lon="5.9862">
        <ele>2014.8</ele>
        <time>2021-04-17T08:10:13Z</time>
      </trkpt>
      <trkpt lat="45.20635" lon="5.9862">
        <ele>2014.8</ele>
        <time>2021-04-17T08:10:14Z</time>
      </trkpt>
      <trkpt lat="45.20635" lon="5.9862">
        <ele>2014.8</ele>
        <time>2021-04-17T08:10:17Z</time>
      </trkpt>
      <trkpt lat="45.20635" lon="5.9862">
        <ele>2014.8</ele>
        <time>2021-04-17T08:10:19Z</time>
      </trkpt>
      <trkpt lat="45.20635" lon="5.9862">
        <ele>2014.8</ele>
        <time>2021-04-17T08:10:20Z</time>
      </trkpt>
      <trkpt lat="45.20635" lon="5.9862">
        <ele>2014.8</ele>
        <time>2021-04-17T08:10:21Z</time>
      </trkpt>
      <trkpt lat="45.20635" lon="5.9862">
        <ele>2014.8</ele>
        <time>2021-04-17T08:10:23Z</time>
      </trkpt>
      <trkpt lat="45.20635" lon="5.9862">
        <ele>2014.8</ele>
        <time>2021-04-17T08:10:25Z</time>
      </trkpt>
      <trkpt lat="45.20635" lon="5.9862">
        <ele>2014.8</ele>
        <time>2021-04-17T08:10:27Z</time>
      </trkpt>
      <trkpt lat="45.20635" lon="5.9862">
        <ele>2014.8</ele>
        <time>2021-04-17T08:10:28Z</time>
      </trkpt>
      <trkpt lat="45.20636" lon="5.9862">
        <ele>2014.8</ele>
        <time>2021-04-17T08:10:29Z</time>
      </trkpt>
      <trkpt lat="45.20636" lon="5.9862">
        <ele>2014.8</ele>
        <time>2021-04-17T08:10:34Z</time>
      </trkpt>
      <trkpt lat="45.20636" lon="5.9862">
        <ele>2014.8</ele>
        <time>2021-04-17T08:10:35Z</time>
      </trkpt>
      <trkpt lat="45.20636" lon="5.9862">
        <ele>2014.8</ele>
        <time>2021-04-17T08:10:36Z</time>
      </trkpt>
      <trkpt lat="45.20636" lon="5.9862">
        <ele>2014.8</ele>
        <time>2021-04-17T08:10:38Z</time>
      </trkpt>
      <trkpt lat="45.20636" lon="5.9862">
        <ele>2014.8</ele>
        <time>2021-04-17T08:10:40Z</time>
      </trkpt>
      <trkpt lat="45.20636" lon="5.9862">
        <ele>2014.8</ele>
        <time>2021-04-17T08:10:42Z</time>
      </trkpt>
      <trkpt lat="45.20636" lon="5.9862">
        <ele>2014.8</ele>
        <time>2021-04-17T08:10:48Z</time>
      </trkpt>
      <trkpt lat="45.20636" lon="5.9862">
        <ele>2014.8</ele>
        <time>2021-04-17T08:10:49Z</time>
      </trkpt>
      <trkpt lat="45.20636" lon="5.9862">
        <ele>2014.8</ele>
        <time>2021-04-17T08:10:50Z</time>
      </trkpt>
      <trkpt lat="45.20636" lon="5.9862">
        <ele>2014.8</ele>
        <time>2021-04-17T08:10:52Z</time>
      </trkpt>
      <trkpt lat="45.20636" lon="5.9862">
        <ele>2014.8</ele>
        <time>2021-04-17T08:10:57Z</time>
      </trkpt>
      <trkpt lat="45.20636" lon="5.9862">
        <ele>2014.8</ele>
        <time>2021-04-17T08:10:59Z</time>
      </trkpt>
      <trkpt lat="45.20636" lon="5.9862">
        <ele>2014.8</ele>
        <time>2021-04-17T08:11:00Z</time>
      </trkpt>
      <trkpt lat="45.20636" lon="5.9862">
        <ele>2014.8</ele>
        <time>2021-04-17T08:11:06Z</time>
      </trkpt>
      <trkpt lat="45.20636" lon="5.9862">
        <ele>2014.8</ele>
        <time>2021-04-17T08:11:09Z</time>
      </trkpt>
      <trkpt lat="45.20636" lon="5.9862">
        <ele>2014.8</ele>
        <time>2021-04-17T08:11:14Z</time>
      </trkpt>
      <trkpt lat="45.20636" lon="5.9862">
        <ele>2014.8</ele>
        <time>2021-04-17T08:11:15Z</time>
      </trkpt>
      <trkpt lat="45.20636" lon="5.9862">
        <ele>2014.8</ele>
        <time>2021-04-17T08:11:16Z</time>
      </trkpt>
      <trkpt lat="45.20636" lon="5.9862">
        <ele>2014.8</ele>
        <time>2021-04-17T08:11:19Z</time>
      </trkpt>
      <trkpt lat="45.20636" lon="5.9862">
        <ele>2014.8</ele>
        <time>2021-04-17T08:11:20Z</time>
      </trkpt>
      <trkpt lat="45.20636" lon="5.9862">
        <ele>2014.8</ele>
        <time>2021-04-17T08:11:24Z</time>
      </trkpt>
      <trkpt lat="45.20636" lon="5.9862">
        <ele>2014.8</ele>
        <time>2021-04-17T08:11:26Z</time>
      </trkpt>
      <trkpt lat="45.20636" lon="5.9862">
        <ele>2014.8</ele>
        <time>2021-04-17T08:11:32Z</time>
      </trkpt>
      <trkpt lat="45.20636" lon="5.9862">
        <ele>2014.8</ele>
        <time>2021-04-17T08:11:38Z</time>
      </trkpt>
      <trkpt lat="45.20636" lon="5.9862">
        <ele>2014.8</ele>
        <time>2021-04-17T08:11:41Z</time>
      </trkpt>
      <trkpt lat="45.20636" lon="5.9862">
        <ele>2014.8</ele>
        <time>2021-04-17T08:11:43Z</time>
      </trkpt>
      <trkpt lat="45.20636" lon="5.9862">
        <ele>2014.8</ele>
        <time>2021-04-17T08:11:45Z</time>
      </trkpt>
      <trkpt lat="45.20636" lon="5.9862">
        <ele>2014.8</ele>
        <time>2021-04-17T08:11:51Z</time>
      </trkpt>
      <trkpt lat="45.20636" lon="5.9862">
        <ele>2014.8</ele>
        <time>2021-04-17T08:11:54Z</time>
      </trkpt>
      <trkpt lat="45.20636" lon="5.9862">
        <ele>2014.8</ele>
        <time>2021-04-17T08:11:59Z</time>
      </trkpt>
      <trkpt lat="45.20636" lon="5.9862">
        <ele>2014.8</ele>
        <time>2021-04-17T08:12:05Z</time>
      </trkpt>
      <trkpt lat="45.20636" lon="5.9862">
        <ele>2014.8</ele>
        <time>2021-04-17T08:12:08Z</time>
      </trkpt>
      <trkpt lat="45.20636" lon="5.9862">
        <ele>2014.8</ele>
        <time>2021-04-17T08:12:10Z</time>
      </trkpt>
      <trkpt lat="45.20636" lon="5.9862">
        <ele>2014.8</ele>
        <time>2021-04-17T08:12:11Z</time>
      </trkpt>
      <trkpt lat="45.20636" lon="5.98621">
        <ele>2014.8</ele>
        <time>2021-04-17T08:12:13Z</time>
      </trkpt>
      <trkpt lat="45.20634" lon="5.98624">
        <ele>2014.8</ele>
        <time>2021-04-17T08:12:15Z</time>
      </trkpt>
      <trkpt lat="45.20634" lon="5.98625">
        <ele>2014.8</ele>
        <time>2021-04-17T08:12:16Z</time>
      </trkpt>
      <trkpt lat="45.20632" lon="5.98629">
        <ele>2015</ele>
        <time>2021-04-17T08:12:18Z</time>
      </trkpt>
      <trkpt lat="45.20628" lon="5.98634">
        <ele>2015</ele>
        <time>2021-04-17T08:12:21Z</time>
      </trkpt>
      <trkpt lat="45.20624" lon="5.9864">
        <ele>2015.6</ele>
        <time>2021-04-17T08:12:26Z</time>
      </trkpt>
      <trkpt lat="45.20622" lon="5.98643">
        <ele>2015.8</ele>
        <time>2021-04-17T08:12:29Z</time>
      </trkpt>
      <trkpt lat="45.2062" lon="5.98645">
        <ele>2016</ele>
        <time>2021-04-17T08:12:31Z</time>
      </trkpt>
      <trkpt lat="45.20619" lon="5.98649">
        <ele>2016.4</ele>
        <time>2021-04-17T08:12:34Z</time>
      </trkpt>
      <trkpt lat="45.20617" lon="5.9865">
        <ele>2016.4</ele>
        <time>2021-04-17T08:12:35Z</time>
      </trkpt>
      <trkpt lat="45.20617" lon="5.98651">
        <ele>2016.8</ele>
        <time>2021-04-17T08:12:37Z</time>
      </trkpt>
      <trkpt lat="45.2062" lon="5.98652">
        <ele>2017</ele>
        <time>2021-04-17T08:12:42Z</time>
      </trkpt>
      <trkpt lat="45.2062" lon="5.98652">
        <ele>2017</ele>
        <time>2021-04-17T08:12:43Z</time>
      </trkpt>
      <trkpt lat="45.2062" lon="5.98657">
        <ele>2017</ele>
        <time>2021-04-17T08:12:49Z</time>
      </trkpt>
      <trkpt lat="45.20618" lon="5.9866">
        <ele>2017</ele>
        <time>2021-04-17T08:12:51Z</time>
      </trkpt>
      <trkpt lat="45.20617" lon="5.98663">
        <ele>2017.4</ele>
        <time>2021-04-17T08:12:53Z</time>
      </trkpt>
      <trkpt lat="45.20616" lon="5.98667">
        <ele>2018.2</ele>
        <time>2021-04-17T08:12:56Z</time>
      </trkpt>
      <trkpt lat="45.20616" lon="5.98669">
        <ele>2018.6</ele>
        <time>2021-04-17T08:12:57Z</time>
      </trkpt>
      <trkpt lat="45.20615" lon="5.98675">
        <ele>2019.6</ele>
        <time>2021-04-17T08:13:01Z</time>
      </trkpt>
      <trkpt lat="45.20609" lon="5.98684">
        <ele>2020.6</ele>
        <time>2021-04-17T08:13:07Z</time>
      </trkpt>
      <trkpt lat="45.20609" lon="5.98685">
        <ele>2020.8</ele>
        <time>2021-04-17T08:13:08Z</time>
      </trkpt>
      <trkpt lat="45.20603" lon="5.9869">
        <ele>2021.8</ele>
        <time>2021-04-17T08:13:12Z</time>
      </trkpt>
      <trkpt lat="45.20601" lon="5.98693">
        <ele>2023</ele>
        <time>2021-04-17T08:13:15Z</time>
      </trkpt>
      <trkpt lat="45.20599" lon="5.98695">
        <ele>2024</ele>
        <time>2021-04-17T08:13:18Z</time>
      </trkpt>
      <trkpt lat="45.20596" lon="5.98698">
        <ele>2025.2</ele>
        <time>2021-04-17T08:13:22Z</time>
      </trkpt>
      <trkpt lat="45.20593" lon="5.98699">
        <ele>2026.2</ele>
        <time>2021-04-17T08:13:25Z</time>
      </trkpt>
      <trkpt lat="45.2059" lon="5.98701">
        <ele>2027.4</ele>
        <time>2021-04-17T08:13:29Z</time>
      </trkpt>
      <trkpt lat="45.20588" lon="5.98706">
        <ele>2028.4</ele>
        <time>2021-04-17T08:13:33Z</time>
      </trkpt>
      <trkpt lat="45.20584" lon="5.98709">
        <ele>2029.6</ele>
        <time>2021-04-17T08:13:37Z</time>
      </trkpt>
      <trkpt lat="45.20582" lon="5.9871">
        <ele>2030.8</ele>
        <time>2021-04-17T08:13:41Z</time>
      </trkpt>
      <trkpt lat="45.20577" lon="5.98714">
        <ele>2032</ele>
        <time>2021-04-17T08:13:46Z</time>
      </trkpt>
      <trkpt lat="45.20573" lon="5.98719">
        <ele>2033</ele>
        <time>2021-04-17T08:13:50Z</time>
      </trkpt>
      <trkpt lat="45.20571" lon="5.9872">
        <ele>2033.4</ele>
        <time>2021-04-17T08:13:51Z</time>
      </trkpt>
      <trkpt lat="45.20568" lon="5.98722">
        <ele>2034.4</ele>
        <time>2021-04-17T08:13:54Z</time>
      </trkpt>
      <trkpt lat="45.20563" lon="5.98726">
        <ele>2035.6</ele>
        <time>2021-04-17T08:13:59Z</time>
      </trkpt>
      <trkpt lat="45.20557" lon="5.98729">
        <ele>2036.8</ele>
        <time>2021-04-17T08:14:04Z</time>
      </trkpt>
      <trkpt lat="45.20553" lon="5.98731">
        <ele>2037.6</ele>
        <time>2021-04-17T08:14:08Z</time>
      </trkpt>
      <trkpt lat="45.20552" lon="5.98732">
        <ele>2037.8</ele>
        <time>2021-04-17T08:14:09Z</time>
      </trkpt>
      <trkpt lat="45.20544" lon="5.98736">
        <ele>2038.8</ele>
        <time>2021-04-17T08:14:15Z</time>
      </trkpt>
      <trkpt lat="45.20543" lon="5.98737">
        <ele>2039</ele>
        <time>2021-04-17T08:14:16Z</time>
      </trkpt>
      <trkpt lat="45.20539" lon="5.9874">
        <ele>2040.2</ele>
        <time>2021-04-17T08:14:20Z</time>
      </trkpt>
      <trkpt lat="45.20535" lon="5.98742">
        <ele>2041.4</ele>
        <time>2021-04-17T08:14:24Z</time>
      </trkpt>
      <trkpt lat="45.20532" lon="5.98744">
        <ele>2042.6</ele>
        <time>2021-04-17T08:14:28Z</time>
      </trkpt>
      <trkpt lat="45.20529" lon="5.98748">
        <ele>2043.8</ele>
        <time>2021-04-17T08:14:32Z</time>
      </trkpt>
      <trkpt lat="45.20527" lon="5.98751">
        <ele>2044.4</ele>
        <time>2021-04-17T08:14:35Z</time>
      </trkpt>
      <trkpt lat="45.20526" lon="5.98753">
        <ele>2045.2</ele>
        <time>2021-04-17T08:14:37Z</time>
      </trkpt>
      <trkpt lat="45.20524" lon="5.98754">
        <ele>2046.2</ele>
        <time>2021-04-17T08:14:40Z</time>
      </trkpt>
      <trkpt lat="45.20522" lon="5.98757">
        <ele>2047.4</ele>
        <time>2021-04-17T08:14:44Z</time>
      </trkpt>
      <trkpt lat="45.20521" lon="5.98759">
        <ele>2047.6</ele>
        <time>2021-04-17T08:14:46Z</time>
      </trkpt>
      <trkpt lat="45.20518" lon="5.98762">
        <ele>2048.6</ele>
        <time>2021-04-17T08:14:49Z</time>
      </trkpt>
      <trkpt lat="45.20514" lon="5.98769">
        <ele>2050</ele>
        <time>2021-04-17T08:14:55Z</time>
      </trkpt>
      <trkpt lat="45.20513" lon="5.98769">
        <ele>2051</ele>
        <time>2021-04-17T08:14:57Z</time>
      </trkpt>
      <trkpt lat="45.20511" lon="5.9877">
        <ele>2051.4</ele>
        <time>2021-04-17T08:14:58Z</time>
      </trkpt>
      <trkpt lat="45.20507" lon="5.98772">
        <ele>2052.4</ele>
        <time>2021-04-17T08:15:02Z</time>
      </trkpt>
      <trkpt lat="45.20505" lon="5.98773">
        <ele>2053.4</ele>
        <time>2021-04-17T08:15:03Z</time>
      </trkpt>
      <trkpt lat="45.20504" lon="5.98774">
        <ele>2053.6</ele>
        <time>2021-04-17T08:15:05Z</time>
      </trkpt>
      <trkpt lat="45.20503" lon="5.98775">
        <ele>2053.8</ele>
        <time>2021-04-17T08:15:06Z</time>
      </trkpt>
      <trkpt lat="45.20499" lon="5.98778">
        <ele>2054.8</ele>
        <time>2021-04-17T08:15:10Z</time>
      </trkpt>
      <trkpt lat="45.20496" lon="5.9878">
        <ele>2055.4</ele>
        <time>2021-04-17T08:15:13Z</time>
      </trkpt>
      <trkpt lat="45.20495" lon="5.98781">
        <ele>2055.8</ele>
        <time>2021-04-17T08:15:14Z</time>
      </trkpt>
      <trkpt lat="45.20492" lon="5.98782">
        <ele>2057.2</ele>
        <time>2021-04-17T08:15:17Z</time>
      </trkpt>
      <trkpt lat="45.20489" lon="5.98784">
        <ele>2058.2</ele>
        <time>2021-04-17T08:15:21Z</time>
      </trkpt>
      <trkpt lat="45.20487" lon="5.98784">
        <ele>2058.8</ele>
        <time>2021-04-17T08:15:23Z</time>
      </trkpt>
      <trkpt lat="45.20485" lon="5.98784">
        <ele>2059.4</ele>
        <time>2021-04-17T08:15:25Z</time>
      </trkpt>
      <trkpt lat="45.20482" lon="5.98785">
        <ele>2060.4</ele>
        <time>2021-04-17T08:15:28Z</time>
      </trkpt>
      <trkpt lat="45.20481" lon="5.98786">
        <ele>2060.8</ele>
        <time>2021-04-17T08:15:29Z</time>
      </trkpt>
      <trkpt lat="45.20478" lon="5.98786">
        <ele>2061.4</ele>
        <time>2021-04-17T08:15:31Z</time>
      </trkpt>
      <trkpt lat="45.20473" lon="5.98787">
        <ele>2062.6</ele>
        <time>2021-04-17T08:15:37Z</time>
      </trkpt>
      <trkpt lat="45.2047" lon="5.98788">
        <ele>2063.6</ele>
        <time>2021-04-17T08:15:40Z</time>
      </trkpt>
      <trkpt lat="45.20469" lon="5.98788">
        <ele>2064</ele>
        <time>2021-04-17T08:15:41Z</time>
      </trkpt>
      <trkpt lat="45.20466" lon="5.98789">
        <ele>2065</ele>
        <time>2021-04-17T08:15:45Z</time>
      </trkpt>
      <trkpt lat="45.20463" lon="5.98791">
        <ele>2066</ele>
        <time>2021-04-17T08:15:49Z</time>
      </trkpt>
      <trkpt lat="45.20462" lon="5.98792">
        <ele>2066.2</ele>
        <time>2021-04-17T08:15:50Z</time>
      </trkpt>
      <trkpt lat="45.20461" lon="5.98793">
        <ele>2066.6</ele>
        <time>2021-04-17T08:15:52Z</time>
      </trkpt>
      <trkpt lat="45.2046" lon="5.9879">
        <ele>2067.4</ele>
        <time>2021-04-17T08:15:56Z</time>
      </trkpt>
      <trkpt lat="45.20461" lon="5.98782">
        <ele>2068.4</ele>
        <time>2021-04-17T08:16:02Z</time>
      </trkpt>
      <trkpt lat="45.20461" lon="5.9878">
        <ele>2068.6</ele>
        <time>2021-04-17T08:16:03Z</time>
      </trkpt>
      <trkpt lat="45.20463" lon="5.98775">
        <ele>2069.8</ele>
        <time>2021-04-17T08:16:07Z</time>
      </trkpt>
      <trkpt lat="45.20463" lon="5.9877">
        <ele>2071</ele>
        <time>2021-04-17T08:16:11Z</time>
      </trkpt>
      <trkpt lat="45.20463" lon="5.98769">
        <ele>2071.4</ele>
        <time>2021-04-17T08:16:13Z</time>
      </trkpt>
      <trkpt lat="45.20463" lon="5.98769">
        <ele>2071.8</ele>
        <time>2021-04-17T08:16:14Z</time>
      </trkpt>
      <trkpt lat="45.20463" lon="5.98769">
        <ele>2072</ele>
        <time>2021-04-17T08:16:15Z</time>
      </trkpt>
      <trkpt lat="45.20462" lon="5.9877">
        <ele>2072.6</ele>
        <time>2021-04-17T08:16:18Z</time>
      </trkpt>
      <trkpt lat="45.20459" lon="5.9877">
        <ele>2073</ele>
        <time>2021-04-17T08:16:21Z</time>
      </trkpt>
      <trkpt lat="45.20456" lon="5.98771">
        <ele>2074.2</ele>
        <time>2021-04-17T08:16:25Z</time>
      </trkpt>
      <trkpt lat="45.20456" lon="5.98772">
        <ele>2074.4</ele>
        <time>2021-04-17T08:16:26Z</time>
      </trkpt>
      <trkpt lat="45.20452" lon="5.98773">
        <ele>2075.6</ele>
        <time>2021-04-17T08:16:30Z</time>
      </trkpt>
      <trkpt lat="45.20449" lon="5.98775">
        <ele>2076.8</ele>
        <time>2021-04-17T08:16:34Z</time>
      </trkpt>
      <trkpt lat="45.20446" lon="5.98778">
        <ele>2077.8</ele>
        <time>2021-04-17T08:16:38Z</time>
      </trkpt>
      <trkpt lat="45.20442" lon="5.98781">
        <ele>2079</ele>
        <time>2021-04-17T08:16:44Z</time>
      </trkpt>
      <trkpt lat="45.20442" lon="5.98782">
        <ele>2079.2</ele>
        <time>2021-04-17T08:16:45Z</time>
      </trkpt>
      <trkpt lat="45.2044" lon="5.98783">
        <ele>2080.2</ele>
        <time>2021-04-17T08:16:47Z</time>
      </trkpt>
      <trkpt lat="45.20437" lon="5.9878">
        <ele>2081.2</ele>
        <time>2021-04-17T08:16:53Z</time>
      </trkpt>
      <trkpt lat="45.20438" lon="5.98779">
        <ele>2081.4</ele>
        <time>2021-04-17T08:16:54Z</time>
      </trkpt>
      <trkpt lat="45.20437" lon="5.98774">
        <ele>2082.6</ele>
        <time>2021-04-17T08:16:58Z</time>
      </trkpt>
      <trkpt lat="45.20437" lon="5.98772">
        <ele>2082.8</ele>
        <time>2021-04-17T08:16:59Z</time>
      </trkpt>
      <trkpt lat="45.20438" lon="5.98769">
        <ele>2083.6</ele>
        <time>2021-04-17T08:17:02Z</time>
      </trkpt>
      <trkpt lat="45.20439" lon="5.98765">
        <ele>2084.2</ele>
        <time>2021-04-17T08:17:05Z</time>
      </trkpt>
      <trkpt lat="45.20439" lon="5.98762">
        <ele>2084.8</ele>
        <time>2021-04-17T08:17:07Z</time>
      </trkpt>
      <trkpt lat="45.2044" lon="5.98758">
        <ele>2085.6</ele>
        <time>2021-04-17T08:17:10Z</time>
      </trkpt>
      <trkpt lat="45.20441" lon="5.98756">
        <ele>2086</ele>
        <time>2021-04-17T08:17:12Z</time>
      </trkpt>
      <trkpt lat="45.20442" lon="5.98754">
        <ele>2086.2</ele>
        <time>2021-04-17T08:17:13Z</time>
      </trkpt>
      <trkpt lat="45.20442" lon="5.9875">
        <ele>2087</ele>
        <time>2021-04-17T08:17:16Z</time>
      </trkpt>
      <trkpt lat="45.20443" lon="5.98746">
        <ele>2087.8</ele>
        <time>2021-04-17T08:17:20Z</time>
      </trkpt>
      <trkpt lat="45.20443" lon="5.98747">
        <ele>2088</ele>
        <time>2021-04-17T08:17:21Z</time>
      </trkpt>
      <trkpt lat="45.20442" lon="5.98748">
        <ele>2089.2</ele>
        <time>2021-04-17T08:17:26Z</time>
      </trkpt>
      <trkpt lat="45.20438" lon="5.98751">
        <ele>2090.4</ele>
        <time>2021-04-17T08:17:30Z</time>
      </trkpt>
      <trkpt lat="45.20435" lon="5.98753">
        <ele>2091</ele>
        <time>2021-04-17T08:17:33Z</time>
      </trkpt>
      <trkpt lat="45.20434" lon="5.98754">
        <ele>2091.4</ele>
        <time>2021-04-17T08:17:34Z</time>
      </trkpt>
      <trkpt lat="45.20432" lon="5.98755">
        <ele>2092.4</ele>
        <time>2021-04-17T08:17:37Z</time>
      </trkpt>
      <trkpt lat="45.20427" lon="5.98757">
        <ele>2093.6</ele>
        <time>2021-04-17T08:17:43Z</time>
      </trkpt>
      <trkpt lat="45.20425" lon="5.9876">
        <ele>2094.6</ele>
        <time>2021-04-17T08:17:46Z</time>
      </trkpt>
      <trkpt lat="45.20422" lon="5.98764">
        <ele>2095.6</ele>
        <time>2021-04-17T08:17:50Z</time>
      </trkpt>
      <trkpt lat="45.20419" lon="5.98766">
        <ele>2096.8</ele>
        <time>2021-04-17T08:17:54Z</time>
      </trkpt>
      <trkpt lat="45.20416" lon="5.98768">
        <ele>2097.8</ele>
        <time>2021-04-17T08:17:58Z</time>
      </trkpt>
      <trkpt lat="45.20414" lon="5.98765">
        <ele>2099</ele>
        <time>2021-04-17T08:18:03Z</time>
      </trkpt>
      <trkpt lat="45.20415" lon="5.98757">
        <ele>2099.6</ele>
        <time>2021-04-17T08:18:09Z</time>
      </trkpt>
      <trkpt lat="45.20414" lon="5.98755">
        <ele>2100.2</ele>
        <time>2021-04-17T08:18:11Z</time>
      </trkpt>
      <trkpt lat="45.20415" lon="5.98751">
        <ele>2101.4</ele>
        <time>2021-04-17T08:18:14Z</time>
      </trkpt>
      <trkpt lat="45.20415" lon="5.98745">
        <ele>2102.4</ele>
        <time>2021-04-17T08:18:18Z</time>
      </trkpt>
      <trkpt lat="45.20415" lon="5.98744">
        <ele>2102.6</ele>
        <time>2021-04-17T08:18:19Z</time>
      </trkpt>
      <trkpt lat="45.20415" lon="5.98743">
        <ele>2103.6</ele>
        <time>2021-04-17T08:18:23Z</time>
      </trkpt>
      <trkpt lat="45.20415" lon="5.98743">
        <ele>2104</ele>
        <time>2021-04-17T08:18:25Z</time>
      </trkpt>
      <trkpt lat="45.20413" lon="5.98745">
        <ele>2104.6</ele>
        <time>2021-04-17T08:18:28Z</time>
      </trkpt>
      <trkpt lat="45.20411" lon="5.98746">
        <ele>2105.4</ele>
        <time>2021-04-17T08:18:31Z</time>
      </trkpt>
      <trkpt lat="45.20409" lon="5.98748">
        <ele>2105.8</ele>
        <time>2021-04-17T08:18:33Z</time>
      </trkpt>
      <trkpt lat="45.20407" lon="5.98749">
        <ele>2107</ele>
        <time>2021-04-17T08:18:36Z</time>
      </trkpt>
      <trkpt lat="45.20405" lon="5.9875">
        <ele>2107.6</ele>
        <time>2021-04-17T08:18:38Z</time>
      </trkpt>
      <trkpt lat="45.20403" lon="5.98752">
        <ele>2108</ele>
        <time>2021-04-17T08:18:40Z</time>
      </trkpt>
      <trkpt lat="45.204" lon="5.98757">
        <ele>2109</ele>
        <time>2021-04-17T08:18:45Z</time>
      </trkpt>
      <trkpt lat="45.20398" lon="5.9876">
        <ele>2109.2</ele>
        <time>2021-04-17T08:18:47Z</time>
      </trkpt>
      <trkpt lat="45.20396" lon="5.98762">
        <ele>2110.4</ele>
        <time>2021-04-17T08:18:52Z</time>
      </trkpt>
      <trkpt lat="45.20393" lon="5.98765">
        <ele>2111.6</ele>
        <time>2021-04-17T08:18:56Z</time>
      </trkpt>
      <trkpt lat="45.2039" lon="5.98768">
        <ele>2112.8</ele>
        <time>2021-04-17T08:19:00Z</time>
      </trkpt>
      <trkpt lat="45.20387" lon="5.98773">
        <ele>2114</ele>
        <time>2021-04-17T08:19:05Z</time>
      </trkpt>
      <trkpt lat="45.20386" lon="5.98776">
        <ele>2114.2</ele>
        <time>2021-04-17T08:19:07Z</time>
      </trkpt>
      <trkpt lat="45.20385" lon="5.98777">
        <ele>2114.6</ele>
        <time>2021-04-17T08:19:09Z</time>
      </trkpt>
      <trkpt lat="45.20384" lon="5.98777">
        <ele>2114.8</ele>
        <time>2021-04-17T08:19:10Z</time>
      </trkpt>
      <trkpt lat="45.20383" lon="5.98778">
        <ele>2115</ele>
        <time>2021-04-17T08:19:11Z</time>
      </trkpt>
      <trkpt lat="45.20382" lon="5.98779">
        <ele>2115.2</ele>
        <time>2021-04-17T08:19:12Z</time>
      </trkpt>
      <trkpt lat="45.20381" lon="5.98779">
        <ele>2115.8</ele>
        <time>2021-04-17T08:19:14Z</time>
      </trkpt>
      <trkpt lat="45.2038" lon="5.9878">
        <ele>2116</ele>
        <time>2021-04-17T08:19:15Z</time>
      </trkpt>
      <trkpt lat="45.20374" lon="5.98783">
        <ele>2117.4</ele>
        <time>2021-04-17T08:19:21Z</time>
      </trkpt>
      <trkpt lat="45.20371" lon="5.98783">
        <ele>2118.6</ele>
        <time>2021-04-17T08:19:27Z</time>
      </trkpt>
      <trkpt lat="45.20371" lon="5.98783">
        <ele>2118.6</ele>
        <time>2021-04-17T08:19:28Z</time>
      </trkpt>
      <trkpt lat="45.20371" lon="5.98783">
        <ele>2118.8</ele>
        <time>2021-04-17T08:19:31Z</time>
      </trkpt>
      <trkpt lat="45.2037" lon="5.98784">
        <ele>2119</ele>
        <time>2021-04-17T08:19:37Z</time>
      </trkpt>
      <trkpt lat="45.2037" lon="5.98784">
        <ele>2119</ele>
        <time>2021-04-17T08:19:39Z</time>
      </trkpt>
      <trkpt lat="45.2037" lon="5.98784">
        <ele>2118.8</ele>
        <time>2021-04-17T08:19:43Z</time>
      </trkpt>
      <trkpt lat="45.2037" lon="5.98784">
        <ele>2118.8</ele>
        <time>2021-04-17T08:19:46Z</time>
      </trkpt>
      <trkpt lat="45.20371" lon="5.98784">
        <ele>2118.6</ele>
        <time>2021-04-17T08:19:52Z</time>
      </trkpt>
      <trkpt lat="45.20371" lon="5.98784">
        <ele>2118.6</ele>
        <time>2021-04-17T08:19:53Z</time>
      </trkpt>
      <trkpt lat="45.20371" lon="5.98784">
        <ele>2118.8</ele>
        <time>2021-04-17T08:19:54Z</time>
      </trkpt>
      <trkpt lat="45.20371" lon="5.98784">
        <ele>2118.6</ele>
        <time>2021-04-17T08:19:56Z</time>
      </trkpt>
      <trkpt lat="45.20371" lon="5.98784">
        <ele>2118.8</ele>
        <time>2021-04-17T08:19:58Z</time>
      </trkpt>
      <trkpt lat="45.20371" lon="5.98784">
        <ele>2118.8</ele>
        <time>2021-04-17T08:19:59Z</time>
      </trkpt>
      <trkpt lat="45.2037" lon="5.98783">
        <ele>2119.4</ele>
        <time>2021-04-17T08:20:03Z</time>
      </trkpt>
      <trkpt lat="45.2037" lon="5.98783">
        <ele>2119.8</ele>
        <time>2021-04-17T08:20:04Z</time>
      </trkpt>
      <trkpt lat="45.20369" lon="5.98784">
        <ele>2120</ele>
        <time>2021-04-17T08:20:05Z</time>
      </trkpt>
      <trkpt lat="45.20368" lon="5.98785">
        <ele>2120.2</ele>
        <time>2021-04-17T08:20:06Z</time>
      </trkpt>
      <trkpt lat="45.20368" lon="5.98785">
        <ele>2120.4</ele>
        <time>2021-04-17T08:20:08Z</time>
      </trkpt>
      <trkpt lat="45.20368" lon="5.98785">
        <ele>2120.4</ele>
        <time>2021-04-17T08:20:12Z</time>
      </trkpt>
      <trkpt lat="45.20368" lon="5.98785">
        <ele>2120.4</ele>
        <time>2021-04-17T08:20:13Z</time>
      </trkpt>
      <trkpt lat="45.20368" lon="5.98785">
        <ele>2120.4</ele>
        <time>2021-04-17T08:20:14Z</time>
      </trkpt>
      <trkpt lat="45.20368" lon="5.98785">
        <ele>2120.4</ele>
        <time>2021-04-17T08:20:20Z</time>
      </trkpt>
      <trkpt lat="45.20368" lon="5.98785">
        <ele>2120.4</ele>
        <time>2021-04-17T08:20:21Z</time>
      </trkpt>
      <trkpt lat="45.20368" lon="5.98785">
        <ele>2120.4</ele>
        <time>2021-04-17T08:20:27Z</time>
      </trkpt>
      <trkpt lat="45.20368" lon="5.98785">
        <ele>2120.4</ele>
        <time>2021-04-17T08:20:30Z</time>
      </trkpt>
      <trkpt lat="45.20368" lon="5.98785">
        <ele>2120.6</ele>
        <time>2021-04-17T08:20:33Z</time>
      </trkpt>
      <trkpt lat="45.20368" lon="5.98785">
        <ele>2120.8</ele>
        <time>2021-04-17T08:20:34Z</time>
      </trkpt>
      <trkpt lat="45.20368" lon="5.98785">
        <ele>2120.8</ele>
        <time>2021-04-17T08:20:36Z</time>
      </trkpt>
      <trkpt lat="45.20368" lon="5.98785">
        <ele>2121.6</ele>
        <time>2021-04-17T08:20:41Z</time>
      </trkpt>
      <trkpt lat="45.20364" lon="5.98785">
        <ele>2122</ele>
        <time>2021-04-17T08:20:43Z</time>
      </trkpt>
      <trkpt lat="45.2036" lon="5.98785">
        <ele>2122.6</ele>
        <time>2021-04-17T08:20:45Z</time>
      </trkpt>
      <trkpt lat="45.20357" lon="5.98785">
        <ele>2122.8</ele>
        <time>2021-04-17T08:20:46Z</time>
      </trkpt>
      <trkpt lat="45.20353" lon="5.98784">
        <ele>2123.2</ele>
        <time>2021-04-17T08:20:48Z</time>
      </trkpt>
      <trkpt lat="45.20347" lon="5.98783">
        <ele>2123.6</ele>
        <time>2021-04-17T08:20:51Z</time>
      </trkpt>
      <trkpt lat="45.20344" lon="5.98783">
        <ele>2124.2</ele>
        <time>2021-04-17T08:20:54Z</time>
      </trkpt>
      <trkpt lat="45.20342" lon="5.98782">
        <ele>2125</ele>
        <time>2021-04-17T08:20:57Z</time>
      </trkpt>
      <trkpt lat="45.20341" lon="5.98782">
        <ele>2125.4</ele>
        <time>2021-04-17T08:20:58Z</time>
      </trkpt>
      <trkpt lat="45.20339" lon="5.98782">
        <ele>2126</ele>
        <time>2021-04-17T08:21:00Z</time>
      </trkpt>
      <trkpt lat="45.20338" lon="5.98783">
        <ele>2126.4</ele>
        <time>2021-04-17T08:21:02Z</time>
      </trkpt>
      <trkpt lat="45.20335" lon="5.98783">
        <ele>2127</ele>
        <time>2021-04-17T08:21:05Z</time>
      </trkpt>
      <trkpt lat="45.20334" lon="5.98783">
        <ele>2127.2</ele>
        <time>2021-04-17T08:21:06Z</time>
      </trkpt>
      <trkpt lat="45.20333" lon="5.98783">
        <ele>2127.6</ele>
        <time>2021-04-17T08:21:07Z</time>
      </trkpt>
      <trkpt lat="45.20329" lon="5.98783">
        <ele>2128.8</ele>
        <time>2021-04-17T08:21:12Z</time>
      </trkpt>
      <trkpt lat="45.20327" lon="5.98783">
        <ele>2129.2</ele>
        <time>2021-04-17T08:21:14Z</time>
      </trkpt>
      <trkpt lat="45.20324" lon="5.98784">
        <ele>2129.8</ele>
        <time>2021-04-17T08:21:17Z</time>
      </trkpt>
      <trkpt lat="45.20321" lon="5.98783">
        <ele>2131</ele>
        <time>2021-04-17T08:21:22Z</time>
      </trkpt>
      <trkpt lat="45.20318" lon="5.98783">
        <ele>2131.4</ele>
        <time>2021-04-17T08:21:25Z</time>
      </trkpt>
      <trkpt lat="45.20317" lon="5.98782">
        <ele>2132</ele>
        <time>2021-04-17T08:21:27Z</time>
      </trkpt>
      <trkpt lat="45.20313" lon="5.98782">
        <ele>2133.2</ele>
        <time>2021-04-17T08:21:31Z</time>
      </trkpt>
      <trkpt lat="45.20312" lon="5.98782">
        <ele>2133.6</ele>
        <time>2021-04-17T08:21:32Z</time>
      </trkpt>
      <trkpt lat="45.2031" lon="5.9878">
        <ele>2134.4</ele>
        <time>2021-04-17T08:21:35Z</time>
      </trkpt>
      <trkpt lat="45.20306" lon="5.98779">
        <ele>2135.4</ele>
        <time>2021-04-17T08:21:40Z</time>
      </trkpt>
      <trkpt lat="45.20305" lon="5.98779">
        <ele>2136</ele>
        <time>2021-04-17T08:21:42Z</time>
      </trkpt>
      <trkpt lat="45.20303" lon="5.98779">
        <ele>2136.4</ele>
        <time>2021-04-17T08:21:44Z</time>
      </trkpt>
      <trkpt lat="45.203" lon="5.98778">
        <ele>2137.6</ele>
        <time>2021-04-17T08:21:48Z</time>
      </trkpt>
      <trkpt lat="45.20297" lon="5.98776">
        <ele>2138.2</ele>
        <time>2021-04-17T08:21:51Z</time>
      </trkpt>
      <trkpt lat="45.20295" lon="5.98775">
        <ele>2138.8</ele>
        <time>2021-04-17T08:21:53Z</time>
      </trkpt>
      <trkpt lat="45.20292" lon="5.98774">
        <ele>2140</ele>
        <time>2021-04-17T08:21:57Z</time>
      </trkpt>
      <trkpt lat="45.2029" lon="5.98774">
        <ele>2140.2</ele>
        <time>2021-04-17T08:21:59Z</time>
      </trkpt>
      <trkpt lat="45.20289" lon="5.98774">
        <ele>2140.4</ele>
        <time>2021-04-17T08:22:00Z</time>
      </trkpt>
      <trkpt lat="45.20286" lon="5.98775">
        <ele>2141.4</ele>
        <time>2021-04-17T08:22:02Z</time>
      </trkpt>
      <trkpt lat="45.20285" lon="5.98775">
        <ele>2141.8</ele>
        <time>2021-04-17T08:22:04Z</time>
      </trkpt>
      <trkpt lat="45.20283" lon="5.98776">
        <ele>2142.4</ele>
        <time>2021-04-17T08:22:07Z</time>
      </trkpt>
      <trkpt lat="45.20278" lon="5.98777">
        <ele>2143.8</ele>
        <time>2021-04-17T08:22:12Z</time>
      </trkpt>
      <trkpt lat="45.20277" lon="5.98777">
        <ele>2144</ele>
        <time>2021-04-17T08:22:13Z</time>
      </trkpt>
      <trkpt lat="45.20274" lon="5.98778">
        <ele>2144.8</ele>
        <time>2021-04-17T08:22:16Z</time>
      </trkpt>
      <trkpt lat="45.20271" lon="5.98778">
        <ele>2146</ele>
        <time>2021-04-17T08:22:20Z</time>
      </trkpt>
      <trkpt lat="45.2027" lon="5.98778">
        <ele>2146.2</ele>
        <time>2021-04-17T08:22:21Z</time>
      </trkpt>
      <trkpt lat="45.20266" lon="5.98778">
        <ele>2147.2</ele>
        <time>2021-04-17T08:22:25Z</time>
      </trkpt>
      <trkpt lat="45.20263" lon="5.98779">
        <ele>2148.2</ele>
        <time>2021-04-17T08:22:29Z</time>
      </trkpt>
      <trkpt lat="45.2026" lon="5.9878">
        <ele>2148.8</ele>
        <time>2021-04-17T08:22:32Z</time>
      </trkpt>
      <trkpt lat="45.20258" lon="5.98781">
        <ele>2149.2</ele>
        <time>2021-04-17T08:22:34Z</time>
      </trkpt>
      <trkpt lat="45.20254" lon="5.9878">
        <ele>2150.4</ele>
        <time>2021-04-17T08:22:39Z</time>
      </trkpt>
      <trkpt lat="45.20252" lon="5.98782">
        <ele>2151.4</ele>
        <time>2021-04-17T08:22:43Z</time>
      </trkpt>
      <trkpt lat="45.20248" lon="5.98783">
        <ele>2152.6</ele>
        <time>2021-04-17T08:22:47Z</time>
      </trkpt>
      <trkpt lat="45.20247" lon="5.98782">
        <ele>2152.8</ele>
        <time>2021-04-17T08:22:48Z</time>
      </trkpt>
      <trkpt lat="45.20242" lon="5.98783">
        <ele>2153.6</ele>
        <time>2021-04-17T08:22:53Z</time>
      </trkpt>
      <trkpt lat="45.20239" lon="5.98782">
        <ele>2154.6</ele>
        <time>2021-04-17T08:22:57Z</time>
      </trkpt>
      <trkpt lat="45.20237" lon="5.98783">
        <ele>2155.6</ele>
        <time>2021-04-17T08:23:00Z</time>
      </trkpt>
      <trkpt lat="45.20236" lon="5.98783">
        <ele>2155.8</ele>
        <time>2021-04-17T08:23:01Z</time>
      </trkpt>
      <trkpt lat="45.20229" lon="5.98782">
        <ele>2156.6</ele>
        <time>2021-04-17T08:23:07Z</time>
      </trkpt>
      <trkpt lat="45.20227" lon="5.98782">
        <ele>2157</ele>
        <time>2021-04-17T08:23:09Z</time>
      </trkpt>
      <trkpt lat="45.20222" lon="5.98782">
        <ele>2158</ele>
        <time>2021-04-17T08:23:14Z</time>
      </trkpt>
      <trkpt lat="45.2022" lon="5.98782">
        <ele>2158.8</ele>
        <time>2021-04-17T08:23:17Z</time>
      </trkpt>
      <trkpt lat="45.20218" lon="5.98781">
        <ele>2159.2</ele>
        <time>2021-04-17T08:23:20Z</time>
      </trkpt>
      <trkpt lat="45.20213" lon="5.98781">
        <ele>2160.4</ele>
        <time>2021-04-17T08:23:25Z</time>
      </trkpt>
      <trkpt lat="45.2021" lon="5.9878">
        <ele>2161.4</ele>
        <time>2021-04-17T08:23:28Z</time>
      </trkpt>
      <trkpt lat="45.2021" lon="5.9878">
        <ele>2161.6</ele>
        <time>2021-04-17T08:23:29Z</time>
      </trkpt>
      <trkpt lat="45.20205" lon="5.98782">
        <ele>2162.6</ele>
        <time>2021-04-17T08:23:34Z</time>
      </trkpt>
      <trkpt lat="45.20205" lon="5.98782">
        <ele>2162.8</ele>
        <time>2021-04-17T08:23:35Z</time>
      </trkpt>
      <trkpt lat="45.20204" lon="5.98783">
        <ele>2163</ele>
        <time>2021-04-17T08:23:36Z</time>
      </trkpt>
      <trkpt lat="45.20203" lon="5.98783">
        <ele>2163.8</ele>
        <time>2021-04-17T08:23:39Z</time>
      </trkpt>
      <trkpt lat="45.20201" lon="5.98786">
        <ele>2165</ele>
        <time>2021-04-17T08:23:42Z</time>
      </trkpt>
      <trkpt lat="45.20201" lon="5.98787">
        <ele>2165.6</ele>
        <time>2021-04-17T08:23:45Z</time>
      </trkpt>
      <trkpt lat="45.202" lon="5.98788">
        <ele>2166</ele>
        <time>2021-04-17T08:23:47Z</time>
      </trkpt>
      <trkpt lat="45.20197" lon="5.98791">
        <ele>2167</ele>
        <time>2021-04-17T08:23:51Z</time>
      </trkpt>
      <trkpt lat="45.20195" lon="5.98792">
        <ele>2167.4</ele>
        <time>2021-04-17T08:23:53Z</time>
      </trkpt>
      <trkpt lat="45.20192" lon="5.98792">
        <ele>2168.2</ele>
        <time>2021-04-17T08:23:56Z</time>
      </trkpt>
      <trkpt lat="45.20188" lon="5.98794">
        <ele>2169.4</ele>
        <time>2021-04-17T08:24:00Z</time>
      </trkpt>
      <trkpt lat="45.20187" lon="5.98795">
        <ele>2169.8</ele>
        <time>2021-04-17T08:24:01Z</time>
      </trkpt>
      <trkpt lat="45.20185" lon="5.988">
        <ele>2170.6</ele>
        <time>2021-04-17T08:24:06Z</time>
      </trkpt>
      <trkpt lat="45.20183" lon="5.988">
        <ele>2171.6</ele>
        <time>2021-04-17T08:24:09Z</time>
      </trkpt>
      <trkpt lat="45.20182" lon="5.988">
        <ele>2171.8</ele>
        <time>2021-04-17T08:24:10Z</time>
      </trkpt>
      <trkpt lat="45.2018" lon="5.98803">
        <ele>2172.8</ele>
        <time>2021-04-17T08:24:15Z</time>
      </trkpt>
      <trkpt lat="45.20178" lon="5.98802">
        <ele>2173.8</ele>
        <time>2021-04-17T08:24:18Z</time>
      </trkpt>
      <trkpt lat="45.20174" lon="5.98804">
        <ele>2175.2</ele>
        <time>2021-04-17T08:24:22Z</time>
      </trkpt>
      <trkpt lat="45.20171" lon="5.98806">
        <ele>2176</ele>
        <time>2021-04-17T08:24:25Z</time>
      </trkpt>
      <trkpt lat="45.2017" lon="5.98807">
        <ele>2176.2</ele>
        <time>2021-04-17T08:24:26Z</time>
      </trkpt>
      <trkpt lat="45.20168" lon="5.98809">
        <ele>2177.4</ele>
        <time>2021-04-17T08:24:31Z</time>
      </trkpt>
      <trkpt lat="45.20166" lon="5.98812">
        <ele>2178</ele>
        <time>2021-04-17T08:24:34Z</time>
      </trkpt>
      <trkpt lat="45.20164" lon="5.98812">
        <ele>2178.6</ele>
        <time>2021-04-17T08:24:36Z</time>
      </trkpt>
      <trkpt lat="45.20162" lon="5.98814">
        <ele>2179.6</ele>
        <time>2021-04-17T08:24:39Z</time>
      </trkpt>
      <trkpt lat="45.20161" lon="5.98815">
        <ele>2179.8</ele>
        <time>2021-04-17T08:24:40Z</time>
      </trkpt>
      <trkpt lat="45.20161" lon="5.98815">
        <ele>2180</ele>
        <time>2021-04-17T08:24:41Z</time>
      </trkpt>
      <trkpt lat="45.20158" lon="5.98816">
        <ele>2181</ele>
        <time>2021-04-17T08:24:45Z</time>
      </trkpt>
      <trkpt lat="45.20157" lon="5.98816">
        <ele>2181.8</ele>
        <time>2021-04-17T08:24:47Z</time>
      </trkpt>
      <trkpt lat="45.20156" lon="5.98817">
        <ele>2182</ele>
        <time>2021-04-17T08:24:48Z</time>
      </trkpt>
      <trkpt lat="45.20154" lon="5.98818">
        <ele>2182.8</ele>
        <time>2021-04-17T08:24:51Z</time>
      </trkpt>
      <trkpt lat="45.20153" lon="5.98819">
        <ele>2183.2</ele>
        <time>2021-04-17T08:24:52Z</time>
      </trkpt>
      <trkpt lat="45.2015" lon="5.98821">
        <ele>2184.4</ele>
        <time>2021-04-17T08:24:56Z</time>
      </trkpt>
      <trkpt lat="45.20149" lon="5.98822">
        <ele>2185</ele>
        <time>2021-04-17T08:24:58Z</time>
      </trkpt>
      <trkpt lat="45.20148" lon="5.98823">
        <ele>2185.4</ele>
        <time>2021-04-17T08:24:59Z</time>
      </trkpt>
      <trkpt lat="45.20145" lon="5.98825">
        <ele>2186.6</ele>
        <time>2021-04-17T08:25:04Z</time>
      </trkpt>
      <trkpt lat="45.20141" lon="5.98828">
        <ele>2187.8</ele>
        <time>2021-04-17T08:25:08Z</time>
      </trkpt>
      <trkpt lat="45.2014" lon="5.98828">
        <ele>2188.2</ele>
        <time>2021-04-17T08:25:10Z</time>
      </trkpt>
      <trkpt lat="45.20139" lon="5.98828">
        <ele>2188.6</ele>
        <time>2021-04-17T08:25:12Z</time>
      </trkpt>
      <trkpt lat="45.20139" lon="5.98828">
        <ele>2188.8</ele>
        <time>2021-04-17T08:25:13Z</time>
      </trkpt>
      <trkpt lat="45.20136" lon="5.9883">
        <ele>2189.8</ele>
        <time>2021-04-17T08:25:17Z</time>
      </trkpt>
      <trkpt lat="45.20131" lon="5.9883">
        <ele>2191.2</ele>
        <time>2021-04-17T08:25:22Z</time>
      </trkpt>
      <trkpt lat="45.20127" lon="5.98831">
        <ele>2192.2</ele>
        <time>2021-04-17T08:25:26Z</time>
      </trkpt>
      <trkpt lat="45.20125" lon="5.98832">
        <ele>2193.2</ele>
        <time>2021-04-17T08:25:29Z</time>
      </trkpt>
      <trkpt lat="45.20124" lon="5.98833">
        <ele>2193.4</ele>
        <time>2021-04-17T08:25:30Z</time>
      </trkpt>
      <trkpt lat="45.2012" lon="5.98836">
        <ele>2194.6</ele>
        <time>2021-04-17T08:25:34Z</time>
      </trkpt>
      <trkpt lat="45.20118" lon="5.98838">
        <ele>2195.6</ele>
        <time>2021-04-17T08:25:38Z</time>
      </trkpt>
      <trkpt lat="45.20115" lon="5.98842">
        <ele>2196.8</ele>
        <time>2021-04-17T08:25:42Z</time>
      </trkpt>
      <trkpt lat="45.20112" lon="5.98846">
        <ele>2197.8</ele>
        <time>2021-04-17T08:25:48Z</time>
      </trkpt>
      <trkpt lat="45.20111" lon="5.98844">
        <ele>2199</ele>
        <time>2021-04-17T08:25:53Z</time>
      </trkpt>
      <trkpt lat="45.2011" lon="5.98837">
        <ele>2200.4</ele>
        <time>2021-04-17T08:25:59Z</time>
      </trkpt>
      <trkpt lat="45.2011" lon="5.98835">
        <ele>2200.6</ele>
        <time>2021-04-17T08:26:00Z</time>
      </trkpt>
      <trkpt lat="45.20109" lon="5.98828">
        <ele>2201.4</ele>
        <time>2021-04-17T08:26:05Z</time>
      </trkpt>
      <trkpt lat="45.20108" lon="5.98827">
        <ele>2201.6</ele>
        <time>2021-04-17T08:26:06Z</time>
      </trkpt>
      <trkpt lat="45.20107" lon="5.98821">
        <ele>2202.8</ele>
        <time>2021-04-17T08:26:11Z</time>
      </trkpt>
      <trkpt lat="45.20107" lon="5.9882">
        <ele>2203</ele>
        <time>2021-04-17T08:26:12Z</time>
      </trkpt>
      <trkpt lat="45.20106" lon="5.98815">
        <ele>2204</ele>
        <time>2021-04-17T08:26:15Z</time>
      </trkpt>
      <trkpt lat="45.20106" lon="5.98812">
        <ele>2204.6</ele>
        <time>2021-04-17T08:26:17Z</time>
      </trkpt>
      <trkpt lat="45.20107" lon="5.98809">
        <ele>2205.2</ele>
        <time>2021-04-17T08:26:19Z</time>
      </trkpt>
      <trkpt lat="45.20108" lon="5.98803">
        <ele>2206.4</ele>
        <time>2021-04-17T08:26:23Z</time>
      </trkpt>
      <trkpt lat="45.20106" lon="5.98798">
        <ele>2207.8</ele>
        <time>2021-04-17T08:26:28Z</time>
      </trkpt>
      <trkpt lat="45.20107" lon="5.98794">
        <ele>2209</ele>
        <time>2021-04-17T08:26:32Z</time>
      </trkpt>
      <trkpt lat="45.20107" lon="5.9879">
        <ele>2209.4</ele>
        <time>2021-04-17T08:26:34Z</time>
      </trkpt>
      <trkpt lat="45.20107" lon="5.98789">
        <ele>2209.4</ele>
        <time>2021-04-17T08:26:35Z</time>
      </trkpt>
      <trkpt lat="45.20107" lon="5.98786">
        <ele>2210.2</ele>
        <time>2021-04-17T08:26:38Z</time>
      </trkpt>
      <trkpt lat="45.2011" lon="5.9878">
        <ele>2211</ele>
        <time>2021-04-17T08:26:42Z</time>
      </trkpt>
      <trkpt lat="45.20111" lon="5.98779">
        <ele>2211.4</ele>
        <time>2021-04-17T08:26:44Z</time>
      </trkpt>
      <trkpt lat="45.20115" lon="5.98775">
        <ele>2212.6</ele>
        <time>2021-04-17T08:26:48Z</time>
      </trkpt>
      <trkpt lat="45.20115" lon="5.98774">
        <ele>2212.8</ele>
        <time>2021-04-17T08:26:49Z</time>
      </trkpt>
      <trkpt lat="45.20115" lon="5.98771">
        <ele>2213.6</ele>
        <time>2021-04-17T08:26:53Z</time>
      </trkpt>
      <trkpt lat="45.20115" lon="5.9877">
        <ele>2213.8</ele>
        <time>2021-04-17T08:26:54Z</time>
      </trkpt>
      <trkpt lat="45.20116" lon="5.98768">
        <ele>2214.8</ele>
        <time>2021-04-17T08:26:57Z</time>
      </trkpt>
      <trkpt lat="45.2012" lon="5.98762">
        <ele>2215.6</ele>
        <time>2021-04-17T08:27:02Z</time>
      </trkpt>
      <trkpt lat="45.20121" lon="5.98758">
        <ele>2216.2</ele>
        <time>2021-04-17T08:27:05Z</time>
      </trkpt>
      <trkpt lat="45.20121" lon="5.98758">
        <ele>2216.4</ele>
        <time>2021-04-17T08:27:06Z</time>
      </trkpt>
      <trkpt lat="45.20122" lon="5.98753">
        <ele>2217</ele>
        <time>2021-04-17T08:27:09Z</time>
      </trkpt>
      <trkpt lat="45.20122" lon="5.98752">
        <ele>2217.4</ele>
        <time>2021-04-17T08:27:10Z</time>
      </trkpt>
      <trkpt lat="45.20123" lon="5.98752">
        <ele>2217.8</ele>
        <time>2021-04-17T08:27:12Z</time>
      </trkpt>
      <trkpt lat="45.20123" lon="5.98752">
        <ele>2218.4</ele>
        <time>2021-04-17T08:27:14Z</time>
      </trkpt>
      <trkpt lat="45.20123" lon="5.98753">
        <ele>2218.8</ele>
        <time>2021-04-17T08:27:19Z</time>
      </trkpt>
      <trkpt lat="45.20121" lon="5.98756">
        <ele>2219.6</ele>
        <time>2021-04-17T08:27:23Z</time>
      </trkpt>
      <trkpt lat="45.20121" lon="5.98757">
        <ele>2220</ele>
        <time>2021-04-17T08:27:25Z</time>
      </trkpt>
      <trkpt lat="45.20119" lon="5.98757">
        <ele>2220.6</ele>
        <time>2021-04-17T08:27:27Z</time>
      </trkpt>
      <trkpt lat="45.20117" lon="5.98758">
        <ele>2221.4</ele>
        <time>2021-04-17T08:27:30Z</time>
      </trkpt>
      <trkpt lat="45.20116" lon="5.98759">
        <ele>2221.8</ele>
        <time>2021-04-17T08:27:31Z</time>
      </trkpt>
      <trkpt lat="45.20113" lon="5.9876">
        <ele>2222.8</ele>
        <time>2021-04-17T08:27:36Z</time>
      </trkpt>
      <trkpt lat="45.20112" lon="5.9876">
        <ele>2223.2</ele>
        <time>2021-04-17T08:27:38Z</time>
      </trkpt>
      <trkpt lat="45.2011" lon="5.98762">
        <ele>2224</ele>
        <time>2021-04-17T08:27:41Z</time>
      </trkpt>
      <trkpt lat="45.20107" lon="5.98764">
        <ele>2225.2</ele>
        <time>2021-04-17T08:27:46Z</time>
      </trkpt>
      <trkpt lat="45.20105" lon="5.98766">
        <ele>2226.2</ele>
        <time>2021-04-17T08:27:51Z</time>
      </trkpt>
      <trkpt lat="45.20101" lon="5.98767">
        <ele>2227.2</ele>
        <time>2021-04-17T08:27:56Z</time>
      </trkpt>
      <trkpt lat="45.201" lon="5.98768">
        <ele>2227.8</ele>
        <time>2021-04-17T08:27:58Z</time>
      </trkpt>
      <trkpt lat="45.20097" lon="5.98771">
        <ele>2228.2</ele>
        <time>2021-04-17T08:28:00Z</time>
      </trkpt>
      <trkpt lat="45.20096" lon="5.98772">
        <ele>2229.6</ele>
        <time>2021-04-17T08:28:04Z</time>
      </trkpt>
      <trkpt lat="45.20093" lon="5.98773">
        <ele>2230.4</ele>
        <time>2021-04-17T08:28:07Z</time>
      </trkpt>
      <trkpt lat="45.20093" lon="5.98774">
        <ele>2230.6</ele>
        <time>2021-04-17T08:28:09Z</time>
      </trkpt>
      <trkpt lat="45.2009" lon="5.98776">
        <ele>2231.8</ele>
        <time>2021-04-17T08:28:13Z</time>
      </trkpt>
      <trkpt lat="45.20089" lon="5.98777">
        <ele>2232.4</ele>
        <time>2021-04-17T08:28:15Z</time>
      </trkpt>
      <trkpt lat="45.20088" lon="5.98778">
        <ele>2233</ele>
        <time>2021-04-17T08:28:18Z</time>
      </trkpt>
      <trkpt lat="45.20088" lon="5.98778">
        <ele>2233.8</ele>
        <time>2021-04-17T08:28:22Z</time>
      </trkpt>
      <trkpt lat="45.20087" lon="5.98777">
        <ele>2234.2</ele>
        <time>2021-04-17T08:28:23Z</time>
      </trkpt>
      <trkpt lat="45.20088" lon="5.98774">
        <ele>2235.2</ele>
        <time>2021-04-17T08:28:27Z</time>
      </trkpt>
      <trkpt lat="45.20088" lon="5.98773">
        <ele>2235.2</ele>
        <time>2021-04-17T08:28:28Z</time>
      </trkpt>
      <trkpt lat="45.20086" lon="5.98768">
        <ele>2236.2</ele>
        <time>2021-04-17T08:28:34Z</time>
      </trkpt>
      <trkpt lat="45.20087" lon="5.9876">
        <ele>2237.4</ele>
        <time>2021-04-17T08:28:40Z</time>
      </trkpt>
      <trkpt lat="45.20088" lon="5.98754">
        <ele>2238.6</ele>
        <time>2021-04-17T08:28:45Z</time>
      </trkpt>
      <trkpt lat="45.20088" lon="5.98753">
        <ele>2239.2</ele>
        <time>2021-04-17T08:28:47Z</time>
      </trkpt>
      <trkpt lat="45.2009" lon="5.9875">
        <ele>2239.8</ele>
        <time>2021-04-17T08:28:50Z</time>
      </trkpt>
      <trkpt lat="45.20093" lon="5.98745">
        <ele>2240.8</ele>
        <time>2021-04-17T08:28:54Z</time>
      </trkpt>
      <trkpt lat="45.20093" lon="5.98745">
        <ele>2240.8</ele>
        <time>2021-04-17T08:28:55Z</time>
      </trkpt>
      <trkpt lat="45.20094" lon="5.98738">
        <ele>2242</ele>
        <time>2021-04-17T08:29:00Z</time>
      </trkpt>
      <trkpt lat="45.20094" lon="5.98736">
        <ele>2243</ele>
        <time>2021-04-17T08:29:03Z</time>
      </trkpt>
      <trkpt lat="45.20096" lon="5.98734">
        <ele>2243.2</ele>
        <time>2021-04-17T08:29:05Z</time>
      </trkpt>
      <trkpt lat="45.20098" lon="5.98727">
        <ele>2244</ele>
        <time>2021-04-17T08:29:11Z</time>
      </trkpt>
      <trkpt lat="45.201" lon="5.98722">
        <ele>2245.2</ele>
        <time>2021-04-17T08:29:15Z</time>
      </trkpt>
      <trkpt lat="45.20102" lon="5.98719">
        <ele>2245.6</ele>
        <time>2021-04-17T08:29:18Z</time>
      </trkpt>
      <trkpt lat="45.20103" lon="5.98718">
        <ele>2246</ele>
        <time>2021-04-17T08:29:20Z</time>
      </trkpt>
      <trkpt lat="45.20104" lon="5.98716">
        <ele>2246.4</ele>
        <time>2021-04-17T08:29:22Z</time>
      </trkpt>
      <trkpt lat="45.20103" lon="5.98715">
        <ele>2246.4</ele>
        <time>2021-04-17T08:29:23Z</time>
      </trkpt>
      <trkpt lat="45.20105" lon="5.98711">
        <ele>2247.8</ele>
        <time>2021-04-17T08:29:27Z</time>
      </trkpt>
      <trkpt lat="45.20106" lon="5.98709">
        <ele>2248.6</ele>
        <time>2021-04-17T08:29:30Z</time>
      </trkpt>
      <trkpt lat="45.20106" lon="5.98708">
        <ele>2248.8</ele>
        <time>2021-04-17T08:29:31Z</time>
      </trkpt>
      <trkpt lat="45.20107" lon="5.98707">
        <ele>2249.2</ele>
        <time>2021-04-17T08:29:33Z</time>
      </trkpt>
      <trkpt lat="45.20111" lon="5.98702">
        <ele>2249.8</ele>
        <time>2021-04-17T08:29:37Z</time>
      </trkpt>
      <trkpt lat="45.20112" lon="5.98695">
        <ele>2251</ele>
        <time>2021-04-17T08:29:42Z</time>
      </trkpt>
      <trkpt lat="45.20113" lon="5.98693">
        <ele>2251.8</ele>
        <time>2021-04-17T08:29:45Z</time>
      </trkpt>
      <trkpt lat="45.20113" lon="5.98692">
        <ele>2252.2</ele>
        <time>2021-04-17T08:29:47Z</time>
      </trkpt>
      <trkpt lat="45.20114" lon="5.98689">
        <ele>2252.6</ele>
        <time>2021-04-17T08:29:49Z</time>
      </trkpt>
      <trkpt lat="45.20115" lon="5.98687">
        <ele>2253</ele>
        <time>2021-04-17T08:29:51Z</time>
      </trkpt>
      <trkpt lat="45.20116" lon="5.98685">
        <ele>2253.2</ele>
        <time>2021-04-17T08:29:53Z</time>
      </trkpt>
      <trkpt lat="45.20117" lon="5.98686">
        <ele>2254</ele>
        <time>2021-04-17T08:29:57Z</time>
      </trkpt>
      <trkpt lat="45.20115" lon="5.98688">
        <ele>2254.4</ele>
        <time>2021-04-17T08:30:01Z</time>
      </trkpt>
      <trkpt lat="45.20114" lon="5.98688">
        <ele>2254.8</ele>
        <time>2021-04-17T08:30:03Z</time>
      </trkpt>
      <trkpt lat="45.20112" lon="5.98687">
        <ele>2255.6</ele>
        <time>2021-04-17T08:30:06Z</time>
      </trkpt>
      <trkpt lat="45.20113" lon="5.98686">
        <ele>2256</ele>
        <time>2021-04-17T08:30:08Z</time>
      </trkpt>
      <trkpt lat="45.20114" lon="5.98683">
        <ele>2256.6</ele>
        <time>2021-04-17T08:30:11Z</time>
      </trkpt>
      <trkpt lat="45.20115" lon="5.98679">
        <ele>2257.2</ele>
        <time>2021-04-17T08:30:14Z</time>
      </trkpt>
      <trkpt lat="45.20116" lon="5.98676">
        <ele>2257.8</ele>
        <time>2021-04-17T08:30:16Z</time>
      </trkpt>
      <trkpt lat="45.20118" lon="5.98675">
        <ele>2258.4</ele>
        <time>2021-04-17T08:30:19Z</time>
      </trkpt>
      <trkpt lat="45.20119" lon="5.98674">
        <ele>2258.6</ele>
        <time>2021-04-17T08:30:20Z</time>
      </trkpt>
      <trkpt lat="45.2012" lon="5.98673">
        <ele>2258.8</ele>
        <time>2021-04-17T08:30:21Z</time>
      </trkpt>
      <trkpt lat="45.20124" lon="5.98669">
        <ele>2260</ele>
        <time>2021-04-17T08:30:26Z</time>
      </trkpt>
      <trkpt lat="45.20126" lon="5.98667">
        <ele>2261</ele>
        <time>2021-04-17T08:30:29Z</time>
      </trkpt>
      <trkpt lat="45.20127" lon="5.98666">
        <ele>2261</ele>
        <time>2021-04-17T08:30:30Z</time>
      </trkpt>
      <trkpt lat="45.2013" lon="5.98665">
        <ele>2261.8</ele>
        <time>2021-04-17T08:30:34Z</time>
      </trkpt>
      <trkpt lat="45.20131" lon="5.98663">
        <ele>2262</ele>
        <time>2021-04-17T08:30:36Z</time>
      </trkpt>
      <trkpt lat="45.20135" lon="5.98662">
        <ele>2263.2</ele>
        <time>2021-04-17T08:30:41Z</time>
      </trkpt>
      <trkpt lat="45.20135" lon="5.98662">
        <ele>2263.4</ele>
        <time>2021-04-17T08:30:42Z</time>
      </trkpt>
      <trkpt lat="45.20134" lon="5.98663">
        <ele>2264.2</ele>
        <time>2021-04-17T08:30:46Z</time>
      </trkpt>
      <trkpt lat="45.20134" lon="5.98663">
        <ele>2264.8</ele>
        <time>2021-04-17T08:30:49Z</time>
      </trkpt>
      <trkpt lat="45.20132" lon="5.98663">
        <ele>2265.4</ele>
        <time>2021-04-17T08:30:51Z</time>
      </trkpt>
      <trkpt lat="45.20131" lon="5.98664">
        <ele>2266</ele>
        <time>2021-04-17T08:30:53Z</time>
      </trkpt>
      <trkpt lat="45.20129" lon="5.98664">
        <ele>2266.2</ele>
        <time>2021-04-17T08:30:55Z</time>
      </trkpt>
      <trkpt lat="45.20128" lon="5.98665">
        <ele>2266.4</ele>
        <time>2021-04-17T08:30:57Z</time>
      </trkpt>
      <trkpt lat="45.20127" lon="5.98665">
        <ele>2266.6</ele>
        <time>2021-04-17T08:30:58Z</time>
      </trkpt>
      <trkpt lat="45.20123" lon="5.98664">
        <ele>2267.6</ele>
        <time>2021-04-17T08:31:03Z</time>
      </trkpt>
      <trkpt lat="45.2012" lon="5.98661">
        <ele>2268.6</ele>
        <time>2021-04-17T08:31:08Z</time>
      </trkpt>
      <trkpt lat="45.20117" lon="5.98661">
        <ele>2269.6</ele>
        <time>2021-04-17T08:31:11Z</time>
      </trkpt>
      <trkpt lat="45.20113" lon="5.98662">
        <ele>2271</ele>
        <time>2021-04-17T08:31:15Z</time>
      </trkpt>
      <trkpt lat="45.20111" lon="5.98664">
        <ele>2271.4</ele>
        <time>2021-04-17T08:31:18Z</time>
      </trkpt>
      <trkpt lat="45.20108" lon="5.98665">
        <ele>2272.2</ele>
        <time>2021-04-17T08:31:21Z</time>
      </trkpt>
      <trkpt lat="45.20108" lon="5.98665">
        <ele>2272.8</ele>
        <time>2021-04-17T08:31:23Z</time>
      </trkpt>
      <trkpt lat="45.20108" lon="5.98665">
        <ele>2273</ele>
        <time>2021-04-17T08:31:25Z</time>
      </trkpt>
      <trkpt lat="45.20108" lon="5.98665">
        <ele>2273.2</ele>
        <time>2021-04-17T08:31:26Z</time>
      </trkpt>
      <trkpt lat="45.20108" lon="5.98666">
        <ele>2273.4</ele>
        <time>2021-04-17T08:31:32Z</time>
      </trkpt>
      <trkpt lat="45.20108" lon="5.98666">
        <ele>2273.4</ele>
        <time>2021-04-17T08:31:35Z</time>
      </trkpt>
      <trkpt lat="45.20108" lon="5.98666">
        <ele>2273.4</ele>
        <time>2021-04-17T08:31:37Z</time>
      </trkpt>
      <trkpt lat="45.20108" lon="5.98666">
        <ele>2274</ele>
        <time>2021-04-17T08:31:42Z</time>
      </trkpt>
      <trkpt lat="45.20108" lon="5.98667">
        <ele>2274.4</ele>
        <time>2021-04-17T08:31:45Z</time>
      </trkpt>
      <trkpt lat="45.20105" lon="5.98668">
        <ele>2274.8</ele>
        <time>2021-04-17T08:31:47Z</time>
      </trkpt>
      <trkpt lat="45.20101" lon="5.98671">
        <ele>2275.6</ele>
        <time>2021-04-17T08:31:50Z</time>
      </trkpt>
      <trkpt lat="45.20094" lon="5.98676">
        <ele>2276.8</ele>
        <time>2021-04-17T08:31:56Z</time>
      </trkpt>
      <trkpt lat="45.20092" lon="5.98677">
        <ele>2277.6</ele>
        <time>2021-04-17T08:31:59Z</time>
      </trkpt>
      <trkpt lat="45.20091" lon="5.98677">
        <ele>2277.8</ele>
        <time>2021-04-17T08:32:00Z</time>
      </trkpt>
      <trkpt lat="45.20087" lon="5.98678">
        <ele>2278.8</ele>
        <time>2021-04-17T08:32:05Z</time>
      </trkpt>
      <trkpt lat="45.20084" lon="5.98679">
        <ele>2279.4</ele>
        <time>2021-04-17T08:32:08Z</time>
      </trkpt>
      <trkpt lat="45.2008" lon="5.9868">
        <ele>2280</ele>
        <time>2021-04-17T08:32:11Z</time>
      </trkpt>
      <trkpt lat="45.20076" lon="5.98685">
        <ele>2280.8</ele>
        <time>2021-04-17T08:32:16Z</time>
      </trkpt>
      <trkpt lat="45.20076" lon="5.98686">
        <ele>2281</ele>
        <time>2021-04-17T08:32:17Z</time>
      </trkpt>
      <trkpt lat="45.20071" lon="5.9869">
        <ele>2282</ele>
        <time>2021-04-17T08:32:23Z</time>
      </trkpt>
      <trkpt lat="45.20068" lon="5.98692">
        <ele>2283</ele>
        <time>2021-04-17T08:32:26Z</time>
      </trkpt>
      <trkpt lat="45.20066" lon="5.98693">
        <ele>2283.8</ele>
        <time>2021-04-17T08:32:30Z</time>
      </trkpt>
      <trkpt lat="45.20066" lon="5.98693">
        <ele>2284.2</ele>
        <time>2021-04-17T08:32:32Z</time>
      </trkpt>
      <trkpt lat="45.20066" lon="5.98692">
        <ele>2284.4</ele>
        <time>2021-04-17T08:32:33Z</time>
      </trkpt>
      <trkpt lat="45.20066" lon="5.9869">
        <ele>2284.6</ele>
        <time>2021-04-17T08:32:38Z</time>
      </trkpt>
      <trkpt lat="45.20068" lon="5.98683">
        <ele>2285.4</ele>
        <time>2021-04-17T08:32:44Z</time>
      </trkpt>
      <trkpt lat="45.20067" lon="5.98681">
        <ele>2285.8</ele>
        <time>2021-04-17T08:32:45Z</time>
      </trkpt>
      <trkpt lat="45.20067" lon="5.98679">
        <ele>2286.6</ele>
        <time>2021-04-17T08:32:47Z</time>
      </trkpt>
      <trkpt lat="45.20068" lon="5.98673">
        <ele>2287.2</ele>
        <time>2021-04-17T08:32:51Z</time>
      </trkpt>
      <trkpt lat="45.20068" lon="5.98672">
        <ele>2287.8</ele>
        <time>2021-04-17T08:32:53Z</time>
      </trkpt>
      <trkpt lat="45.2007" lon="5.98666">
        <ele>2288.6</ele>
        <time>2021-04-17T08:32:57Z</time>
      </trkpt>
      <trkpt lat="45.2007" lon="5.98665">
        <ele>2288.8</ele>
        <time>2021-04-17T08:32:58Z</time>
      </trkpt>
      <trkpt lat="45.2007" lon="5.98662">
        <ele>2289.4</ele>
        <time>2021-04-17T08:33:00Z</time>
      </trkpt>
      <trkpt lat="45.2007" lon="5.98661">
        <ele>2289.6</ele>
        <time>2021-04-17T08:33:01Z</time>
      </trkpt>
      <trkpt lat="45.20071" lon="5.9866">
        <ele>2289.8</ele>
        <time>2021-04-17T08:33:02Z</time>
      </trkpt>
      <trkpt lat="45.20071" lon="5.9866">
        <ele>2290</ele>
        <time>2021-04-17T08:33:03Z</time>
      </trkpt>
      <trkpt lat="45.20073" lon="5.98657">
        <ele>2290.4</ele>
        <time>2021-04-17T08:33:05Z</time>
      </trkpt>
      <trkpt lat="45.20073" lon="5.98656">
        <ele>2290.6</ele>
        <time>2021-04-17T08:33:06Z</time>
      </trkpt>
      <trkpt lat="45.20072" lon="5.98652">
        <ele>2291.2</ele>
        <time>2021-04-17T08:33:10Z</time>
      </trkpt>
      <trkpt lat="45.20074" lon="5.98649">
        <ele>2292.2</ele>
        <time>2021-04-17T08:33:13Z</time>
      </trkpt>
      <trkpt lat="45.20076" lon="5.98644">
        <ele>2293.4</ele>
        <time>2021-04-17T08:33:19Z</time>
      </trkpt>
      <trkpt lat="45.20076" lon="5.98644">
        <ele>2293.8</ele>
        <time>2021-04-17T08:33:21Z</time>
      </trkpt>
      <trkpt lat="45.20074" lon="5.98645">
        <ele>2294.4</ele>
        <time>2021-04-17T08:33:23Z</time>
      </trkpt>
      <trkpt lat="45.20072" lon="5.98648">
        <ele>2295.2</ele>
        <time>2021-04-17T08:33:28Z</time>
      </trkpt>
      <trkpt lat="45.20071" lon="5.98649">
        <ele>2295.6</ele>
        <time>2021-04-17T08:33:30Z</time>
      </trkpt>
      <trkpt lat="45.2007" lon="5.98649">
        <ele>2296</ele>
        <time>2021-04-17T08:33:31Z</time>
      </trkpt>
      <trkpt lat="45.20068" lon="5.98651">
        <ele>2296.8</ele>
        <time>2021-04-17T08:33:36Z</time>
      </trkpt>
      <trkpt lat="45.20067" lon="5.98652">
        <ele>2297.4</ele>
        <time>2021-04-17T08:33:38Z</time>
      </trkpt>
      <trkpt lat="45.20065" lon="5.98652">
        <ele>2297.8</ele>
        <time>2021-04-17T08:33:40Z</time>
      </trkpt>
      <trkpt lat="45.20062" lon="5.98653">
        <ele>2299</ele>
        <time>2021-04-17T08:33:44Z</time>
      </trkpt>
      <trkpt lat="45.20059" lon="5.98655">
        <ele>2299.8</ele>
        <time>2021-04-17T08:33:48Z</time>
      </trkpt>
      <trkpt lat="45.20058" lon="5.98656">
        <ele>2300</ele>
        <time>2021-04-17T08:33:49Z</time>
      </trkpt>
      <trkpt lat="45.20057" lon="5.98656">
        <ele>2300.4</ele>
        <time>2021-04-17T08:33:51Z</time>
      </trkpt>
      <trkpt lat="45.20056" lon="5.98657">
        <ele>2300.8</ele>
        <time>2021-04-17T08:33:53Z</time>
      </trkpt>
      <trkpt lat="45.20055" lon="5.98658">
        <ele>2301</ele>
        <time>2021-04-17T08:33:54Z</time>
      </trkpt>
      <trkpt lat="45.20053" lon="5.9866">
        <ele>2301.8</ele>
        <time>2021-04-17T08:33:57Z</time>
      </trkpt>
      <trkpt lat="45.20052" lon="5.98661">
        <ele>2302.2</ele>
        <time>2021-04-17T08:33:59Z</time>
      </trkpt>
      <trkpt lat="45.2005" lon="5.98663">
        <ele>2303</ele>
        <time>2021-04-17T08:34:02Z</time>
      </trkpt>
      <trkpt lat="45.20049" lon="5.98663">
        <ele>2303.4</ele>
        <time>2021-04-17T08:34:03Z</time>
      </trkpt>
      <trkpt lat="45.20048" lon="5.98665">
        <ele>2303.8</ele>
        <time>2021-04-17T08:34:05Z</time>
      </trkpt>
      <trkpt lat="45.20046" lon="5.98667">
        <ele>2304.4</ele>
        <time>2021-04-17T08:34:08Z</time>
      </trkpt>
      <trkpt lat="45.20045" lon="5.98668">
        <ele>2304.6</ele>
        <time>2021-04-17T08:34:10Z</time>
      </trkpt>
      <trkpt lat="45.20042" lon="5.9867">
        <ele>2305.2</ele>
        <time>2021-04-17T08:34:13Z</time>
      </trkpt>
      <trkpt lat="45.20042" lon="5.98671">
        <ele>2305.4</ele>
        <time>2021-04-17T08:34:14Z</time>
      </trkpt>
      <trkpt lat="45.20039" lon="5.98674">
        <ele>2306.4</ele>
        <time>2021-04-17T08:34:19Z</time>
      </trkpt>
      <trkpt lat="45.20038" lon="5.98675">
        <ele>2306.6</ele>
        <time>2021-04-17T08:34:20Z</time>
      </trkpt>
      <trkpt lat="45.20034" lon="5.98677">
        <ele>2307.6</ele>
        <time>2021-04-17T08:34:24Z</time>
      </trkpt>
      <trkpt lat="45.20031" lon="5.98679">
        <ele>2308</ele>
        <time>2021-04-17T08:34:28Z</time>
      </trkpt>
      <trkpt lat="45.20028" lon="5.98682">
        <ele>2308.6</ele>
        <time>2021-04-17T08:34:31Z</time>
      </trkpt>
      <trkpt lat="45.20024" lon="5.98687">
        <ele>2309.8</ele>
        <time>2021-04-17T08:34:36Z</time>
      </trkpt>
      <trkpt lat="45.20024" lon="5.98687">
        <ele>2309.8</ele>
        <time>2021-04-17T08:34:37Z</time>
      </trkpt>
      <trkpt lat="45.20022" lon="5.98689">
        <ele>2310.6</ele>
        <time>2021-04-17T08:34:41Z</time>
      </trkpt>
      <trkpt lat="45.20021" lon="5.98691">
        <ele>2310.8</ele>
        <time>2021-04-17T08:34:42Z</time>
      </trkpt>
      <trkpt lat="45.2002" lon="5.98695">
        <ele>2311.4</ele>
        <time>2021-04-17T08:34:46Z</time>
      </trkpt>
      <trkpt lat="45.20019" lon="5.98699">
        <ele>2312</ele>
        <time>2021-04-17T08:34:49Z</time>
      </trkpt>
      <trkpt lat="45.20016" lon="5.98705">
        <ele>2313</ele>
        <time>2021-04-17T08:34:55Z</time>
      </trkpt>
      <trkpt lat="45.20015" lon="5.98706">
        <ele>2313.2</ele>
        <time>2021-04-17T08:34:56Z</time>
      </trkpt>
      <trkpt lat="45.20012" lon="5.98713">
        <ele>2314</ele>
        <time>2021-04-17T08:35:02Z</time>
      </trkpt>
      <trkpt lat="45.20011" lon="5.98714">
        <ele>2314.2</ele>
        <time>2021-04-17T08:35:03Z</time>
      </trkpt>
      <trkpt lat="45.2001" lon="5.98715">
        <ele>2314.4</ele>
        <time>2021-04-17T08:35:04Z</time>
      </trkpt>
      <trkpt lat="45.20006" lon="5.98721">
        <ele>2315.2</ele>
        <time>2021-04-17T08:35:10Z</time>
      </trkpt>
      <trkpt lat="45.20005" lon="5.98722">
        <ele>2315.2</ele>
        <time>2021-04-17T08:35:11Z</time>
      </trkpt>
      <trkpt lat="45.20002" lon="5.98726">
        <ele>2315.6</ele>
        <time>2021-04-17T08:35:14Z</time>
      </trkpt>
      <trkpt lat="45.19999" lon="5.98731">
        <ele>2316.2</ele>
        <time>2021-04-17T08:35:19Z</time>
      </trkpt>
      <trkpt lat="45.19995" lon="5.98738">
        <ele>2317.4</ele>
        <time>2021-04-17T08:35:25Z</time>
      </trkpt>
      <trkpt lat="45.19995" lon="5.9874">
        <ele>2317.6</ele>
        <time>2021-04-17T08:35:26Z</time>
      </trkpt>
      <trkpt lat="45.1999" lon="5.98747">
        <ele>2318.2</ele>
        <time>2021-04-17T08:35:32Z</time>
      </trkpt>
      <trkpt lat="45.19988" lon="5.9875">
        <ele>2318.4</ele>
        <time>2021-04-17T08:35:35Z</time>
      </trkpt>
      <trkpt lat="45.19985" lon="5.98755">
        <ele>2318.8</ele>
        <time>2021-04-17T08:35:39Z</time>
      </trkpt>
      <trkpt lat="45.19983" lon="5.98757">
        <ele>2318.8</ele>
        <time>2021-04-17T08:35:41Z</time>
      </trkpt>
      <trkpt lat="45.19977" lon="5.98765">
        <ele>2319.2</ele>
        <time>2021-04-17T08:35:47Z</time>
      </trkpt>
      <trkpt lat="45.19974" lon="5.98772">
        <ele>2319.2</ele>
        <time>2021-04-17T08:35:51Z</time>
      </trkpt>
      <trkpt lat="45.1997" lon="5.9878">
        <ele>2319.4</ele>
        <time>2021-04-17T08:35:57Z</time>
      </trkpt>
      <trkpt lat="45.19968" lon="5.98784">
        <ele>2319.2</ele>
        <time>2021-04-17T08:36:00Z</time>
      </trkpt>
      <trkpt lat="45.19966" lon="5.98792">
        <ele>2319.4</ele>
        <time>2021-04-17T08:36:06Z</time>
      </trkpt>
      <trkpt lat="45.19965" lon="5.98793">
        <ele>2319.4</ele>
        <time>2021-04-17T08:36:07Z</time>
      </trkpt>
      <trkpt lat="45.19963" lon="5.98801">
        <ele>2320</ele>
        <time>2021-04-17T08:36:13Z</time>
      </trkpt>
      <trkpt lat="45.19961" lon="5.98806">
        <ele>2320.4</ele>
        <time>2021-04-17T08:36:17Z</time>
      </trkpt>
      <trkpt lat="45.1996" lon="5.98814">
        <ele>2321</ele>
        <time>2021-04-17T08:36:23Z</time>
      </trkpt>
      <trkpt lat="45.19959" lon="5.98819">
        <ele>2321.2</ele>
        <time>2021-04-17T08:36:26Z</time>
      </trkpt>
      <trkpt lat="45.19958" lon="5.98827">
        <ele>2321.2</ele>
        <time>2021-04-17T08:36:31Z</time>
      </trkpt>
      <trkpt lat="45.19958" lon="5.98831">
        <ele>2321.6</ele>
        <time>2021-04-17T08:36:34Z</time>
      </trkpt>
      <trkpt lat="45.19958" lon="5.98832">
        <ele>2321.8</ele>
        <time>2021-04-17T08:36:35Z</time>
      </trkpt>
      <trkpt lat="45.19959" lon="5.9884">
        <ele>2322.6</ele>
        <time>2021-04-17T08:36:41Z</time>
      </trkpt>
      <trkpt lat="45.19959" lon="5.98845">
        <ele>2323.4</ele>
        <time>2021-04-17T08:36:46Z</time>
      </trkpt>
      <trkpt lat="45.19959" lon="5.98849">
        <ele>2323.6</ele>
        <time>2021-04-17T08:36:49Z</time>
      </trkpt>
      <trkpt lat="45.1996" lon="5.98858">
        <ele>2324.8</ele>
        <time>2021-04-17T08:36:55Z</time>
      </trkpt>
      <trkpt lat="45.19959" lon="5.98866">
        <ele>2325.8</ele>
        <time>2021-04-17T08:37:01Z</time>
      </trkpt>
      <trkpt lat="45.19959" lon="5.98867">
        <ele>2326</ele>
        <time>2021-04-17T08:37:02Z</time>
      </trkpt>
      <trkpt lat="45.19959" lon="5.98869">
        <ele>2326.4</ele>
        <time>2021-04-17T08:37:04Z</time>
      </trkpt>
      <trkpt lat="45.19958" lon="5.98875">
        <ele>2327</ele>
        <time>2021-04-17T08:37:08Z</time>
      </trkpt>
      <trkpt lat="45.19957" lon="5.98882">
        <ele>2328</ele>
        <time>2021-04-17T08:37:14Z</time>
      </trkpt>
      <trkpt lat="45.19957" lon="5.98884">
        <ele>2328.2</ele>
        <time>2021-04-17T08:37:15Z</time>
      </trkpt>
      <trkpt lat="45.19957" lon="5.98885">
        <ele>2328.4</ele>
        <time>2021-04-17T08:37:16Z</time>
      </trkpt>
      <trkpt lat="45.19955" lon="5.98891">
        <ele>2329.4</ele>
        <time>2021-04-17T08:37:21Z</time>
      </trkpt>
      <trkpt lat="45.19955" lon="5.98897">
        <ele>2329.8</ele>
        <time>2021-04-17T08:37:25Z</time>
      </trkpt>
      <trkpt lat="45.19953" lon="5.98902">
        <ele>2330.4</ele>
        <time>2021-04-17T08:37:29Z</time>
      </trkpt>
      <trkpt lat="45.19952" lon="5.98908">
        <ele>2331.4</ele>
        <time>2021-04-17T08:37:34Z</time>
      </trkpt>
      <trkpt lat="45.19952" lon="5.9891">
        <ele>2331.6</ele>
        <time>2021-04-17T08:37:35Z</time>
      </trkpt>
      <trkpt lat="45.19951" lon="5.98917">
        <ele>2332.8</ele>
        <time>2021-04-17T08:37:41Z</time>
      </trkpt>
      <trkpt lat="45.19951" lon="5.9892">
        <ele>2333.2</ele>
        <time>2021-04-17T08:37:43Z</time>
      </trkpt>
      <trkpt lat="45.1995" lon="5.98925">
        <ele>2333.8</ele>
        <time>2021-04-17T08:37:47Z</time>
      </trkpt>
      <trkpt lat="45.19949" lon="5.98932">
        <ele>2334.6</ele>
        <time>2021-04-17T08:37:53Z</time>
      </trkpt>
      <trkpt lat="45.19948" lon="5.98934">
        <ele>2334.8</ele>
        <time>2021-04-17T08:37:55Z</time>
      </trkpt>
      <trkpt lat="45.19948" lon="5.98942">
        <ele>2336</ele>
        <time>2021-04-17T08:38:01Z</time>
      </trkpt>
      <trkpt lat="45.19947" lon="5.98948">
        <ele>2336.6</ele>
        <time>2021-04-17T08:38:05Z</time>
      </trkpt>
      <trkpt lat="45.19946" lon="5.98954">
        <ele>2337.2</ele>
        <time>2021-04-17T08:38:09Z</time>
      </trkpt>
      <trkpt lat="45.19946" lon="5.98956">
        <ele>2337.4</ele>
        <time>2021-04-17T08:38:11Z</time>
      </trkpt>
      <trkpt lat="45.19945" lon="5.98959">
        <ele>2337.8</ele>
        <time>2021-04-17T08:38:13Z</time>
      </trkpt>
      <trkpt lat="45.19945" lon="5.9896">
        <ele>2338</ele>
        <time>2021-04-17T08:38:14Z</time>
      </trkpt>
      <trkpt lat="45.19945" lon="5.98961">
        <ele>2338.2</ele>
        <time>2021-04-17T08:38:15Z</time>
      </trkpt>
      <trkpt lat="45.19944" lon="5.98966">
        <ele>2339.2</ele>
        <time>2021-04-17T08:38:19Z</time>
      </trkpt>
      <trkpt lat="45.19943" lon="5.9897">
        <ele>2339.8</ele>
        <time>2021-04-17T08:38:23Z</time>
      </trkpt>
      <trkpt lat="45.19943" lon="5.98972">
        <ele>2340.2</ele>
        <time>2021-04-17T08:38:25Z</time>
      </trkpt>
      <trkpt lat="45.19944" lon="5.98978">
        <ele>2341.2</ele>
        <time>2021-04-17T08:38:30Z</time>
      </trkpt>
      <trkpt lat="45.19943" lon="5.98979">
        <ele>2341.4</ele>
        <time>2021-04-17T08:38:31Z</time>
      </trkpt>
      <trkpt lat="45.19943" lon="5.98983">
        <ele>2342.2</ele>
        <time>2021-04-17T08:38:34Z</time>
      </trkpt>
      <trkpt lat="45.19943" lon="5.98987">
        <ele>2343.4</ele>
        <time>2021-04-17T08:38:38Z</time>
      </trkpt>
      <trkpt lat="45.19943" lon="5.98988">
        <ele>2343.4</ele>
        <time>2021-04-17T08:38:39Z</time>
      </trkpt>
      <trkpt lat="45.19944" lon="5.98994">
        <ele>2344.6</ele>
        <time>2021-04-17T08:38:44Z</time>
      </trkpt>
      <trkpt lat="45.19945" lon="5.98996">
        <ele>2345.6</ele>
        <time>2021-04-17T08:38:47Z</time>
      </trkpt>
      <trkpt lat="45.19946" lon="5.98998">
        <ele>2345.8</ele>
        <time>2021-04-17T08:38:48Z</time>
      </trkpt>
      <trkpt lat="45.19946" lon="5.99001">
        <ele>2346.8</ele>
        <time>2021-04-17T08:38:52Z</time>
      </trkpt>
      <trkpt lat="45.19945" lon="5.99001">
        <ele>2347</ele>
        <time>2021-04-17T08:38:53Z</time>
      </trkpt>
      <trkpt lat="45.19948" lon="5.99006">
        <ele>2347.8</ele>
        <time>2021-04-17T08:38:59Z</time>
      </trkpt>
      <trkpt lat="45.19947" lon="5.99007">
        <ele>2348</ele>
        <time>2021-04-17T08:39:00Z</time>
      </trkpt>
      <trkpt lat="45.19947" lon="5.99012">
        <ele>2349.4</ele>
        <time>2021-04-17T08:39:04Z</time>
      </trkpt>
      <trkpt lat="45.19947" lon="5.99015">
        <ele>2350.4</ele>
        <time>2021-04-17T08:39:08Z</time>
      </trkpt>
      <trkpt lat="45.19947" lon="5.99018">
        <ele>2351.2</ele>
        <time>2021-04-17T08:39:11Z</time>
      </trkpt>
      <trkpt lat="45.19947" lon="5.9902">
        <ele>2351.8</ele>
        <time>2021-04-17T08:39:13Z</time>
      </trkpt>
      <trkpt lat="45.19946" lon="5.99023">
        <ele>2353</ele>
        <time>2021-04-17T08:39:17Z</time>
      </trkpt>
      <trkpt lat="45.19946" lon="5.99026">
        <ele>2353.4</ele>
        <time>2021-04-17T08:39:20Z</time>
      </trkpt>
      <trkpt lat="45.19946" lon="5.9903">
        <ele>2354</ele>
        <time>2021-04-17T08:39:23Z</time>
      </trkpt>
      <trkpt lat="45.19946" lon="5.99035">
        <ele>2355.2</ele>
        <time>2021-04-17T08:39:28Z</time>
      </trkpt>
      <trkpt lat="45.19946" lon="5.99039">
        <ele>2355.8</ele>
        <time>2021-04-17T08:39:31Z</time>
      </trkpt>
      <trkpt lat="45.19947" lon="5.9904">
        <ele>2356.2</ele>
        <time>2021-04-17T08:39:33Z</time>
      </trkpt>
      <trkpt lat="45.19947" lon="5.99044">
        <ele>2357.2</ele>
        <time>2021-04-17T08:39:37Z</time>
      </trkpt>
      <trkpt lat="45.19948" lon="5.99046">
        <ele>2358</ele>
        <time>2021-04-17T08:39:40Z</time>
      </trkpt>
      <trkpt lat="45.19948" lon="5.99047">
        <ele>2358.2</ele>
        <time>2021-04-17T08:39:41Z</time>
      </trkpt>
      <trkpt lat="45.19949" lon="5.99052">
        <ele>2359.4</ele>
        <time>2021-04-17T08:39:47Z</time>
      </trkpt>
      <trkpt lat="45.1995" lon="5.99053">
        <ele>2359.8</ele>
        <time>2021-04-17T08:39:49Z</time>
      </trkpt>
      <trkpt lat="45.19951" lon="5.99055">
        <ele>2360.6</ele>
        <time>2021-04-17T08:39:53Z</time>
      </trkpt>
      <trkpt lat="45.19953" lon="5.99059">
        <ele>2361.4</ele>
        <time>2021-04-17T08:39:57Z</time>
      </trkpt>
      <trkpt lat="45.19953" lon="5.9906">
        <ele>2361.8</ele>
        <time>2021-04-17T08:39:59Z</time>
      </trkpt>
      <trkpt lat="45.19954" lon="5.99064">
        <ele>2362.8</ele>
        <time>2021-04-17T08:40:04Z</time>
      </trkpt>
      <trkpt lat="45.19954" lon="5.99065">
        <ele>2363</ele>
        <time>2021-04-17T08:40:05Z</time>
      </trkpt>
      <trkpt lat="45.19955" lon="5.9907">
        <ele>2363.8</ele>
        <time>2021-04-17T08:40:11Z</time>
      </trkpt>
      <trkpt lat="45.19955" lon="5.99071">
        <ele>2364</ele>
        <time>2021-04-17T08:40:12Z</time>
      </trkpt>
      <trkpt lat="45.19956" lon="5.99073">
        <ele>2365</ele>
        <time>2021-04-17T08:40:16Z</time>
      </trkpt>
      <trkpt lat="45.19957" lon="5.99075">
        <ele>2365.8</ele>
        <time>2021-04-17T08:40:21Z</time>
      </trkpt>
      <trkpt lat="45.19958" lon="5.99079">
        <ele>2366</ele>
        <time>2021-04-17T08:40:25Z</time>
      </trkpt>
      <trkpt lat="45.19958" lon="5.99079">
        <ele>2366.6</ele>
        <time>2021-04-17T08:40:27Z</time>
      </trkpt>
      <trkpt lat="45.19957" lon="5.9908">
        <ele>2367.2</ele>
        <time>2021-04-17T08:40:31Z</time>
      </trkpt>
      <trkpt lat="45.19956" lon="5.99079">
        <ele>2367.4</ele>
        <time>2021-04-17T08:40:33Z</time>
      </trkpt>
      <trkpt lat="45.19954" lon="5.99078">
        <ele>2368</ele>
        <time>2021-04-17T08:40:39Z</time>
      </trkpt>
      <trkpt lat="45.19953" lon="5.99077">
        <ele>2368.2</ele>
        <time>2021-04-17T08:40:40Z</time>
      </trkpt>
      <trkpt lat="45.19952" lon="5.99076">
        <ele>2368.6</ele>
        <time>2021-04-17T08:40:42Z</time>
      </trkpt>
      <trkpt lat="45.1995" lon="5.99074">
        <ele>2369.2</ele>
        <time>2021-04-17T08:40:46Z</time>
      </trkpt>
      <trkpt lat="45.19948" lon="5.99072">
        <ele>2370.2</ele>
        <time>2021-04-17T08:40:50Z</time>
      </trkpt>
      <trkpt lat="45.19947" lon="5.99071">
        <ele>2370.4</ele>
        <time>2021-04-17T08:40:51Z</time>
      </trkpt>
      <trkpt lat="45.19944" lon="5.99068">
        <ele>2371.6</ele>
        <time>2021-04-17T08:40:57Z</time>
      </trkpt>
      <trkpt lat="45.19943" lon="5.99068">
        <ele>2371.8</ele>
        <time>2021-04-17T08:40:58Z</time>
      </trkpt>
      <trkpt lat="45.1994" lon="5.99066">
        <ele>2372.6</ele>
        <time>2021-04-17T08:41:04Z</time>
      </trkpt>
      <trkpt lat="45.19939" lon="5.99066">
        <ele>2373</ele>
        <time>2021-04-17T08:41:06Z</time>
      </trkpt>
      <trkpt lat="45.19938" lon="5.99065">
        <ele>2373.8</ele>
        <time>2021-04-17T08:41:11Z</time>
      </trkpt>
      <trkpt lat="45.19938" lon="5.99065">
        <ele>2373.8</ele>
        <time>2021-04-17T08:41:12Z</time>
      </trkpt>
      <trkpt lat="45.19937" lon="5.99069">
        <ele>2374.4</ele>
        <time>2021-04-17T08:41:18Z</time>
      </trkpt>
      <trkpt lat="45.19937" lon="5.99072">
        <ele>2375</ele>
        <time>2021-04-17T08:41:21Z</time>
      </trkpt>
      <trkpt lat="45.19938" lon="5.99075">
        <ele>2376.2</ele>
        <time>2021-04-17T08:41:25Z</time>
      </trkpt>
      <trkpt lat="45.19937" lon="5.99076">
        <ele>2376.4</ele>
        <time>2021-04-17T08:41:26Z</time>
      </trkpt>
      <trkpt lat="45.19937" lon="5.9908">
        <ele>2377.2</ele>
        <time>2021-04-17T08:41:31Z</time>
      </trkpt>
      <trkpt lat="45.19936" lon="5.99079">
        <ele>2377.4</ele>
        <time>2021-04-17T08:41:32Z</time>
      </trkpt>
      <trkpt lat="45.19936" lon="5.99077">
        <ele>2378</ele>
        <time>2021-04-17T08:41:37Z</time>
      </trkpt>
      <trkpt lat="45.19936" lon="5.99077">
        <ele>2378</ele>
        <time>2021-04-17T08:41:43Z</time>
      </trkpt>
      <trkpt lat="45.19936" lon="5.99077">
        <ele>2378</ele>
        <time>2021-04-17T08:41:48Z</time>
      </trkpt>
      <trkpt lat="45.19936" lon="5.99077">
        <ele>2378</ele>
        <time>2021-04-17T08:41:51Z</time>
      </trkpt>
      <trkpt lat="45.19936" lon="5.99077">
        <ele>2378</ele>
        <time>2021-04-17T08:41:53Z</time>
      </trkpt>
      <trkpt lat="45.19936" lon="5.99077">
        <ele>2378</ele>
        <time>2021-04-17T08:41:56Z</time>
      </trkpt>
      <trkpt lat="45.19936" lon="5.99076">
        <ele>2378</ele>
        <time>2021-04-17T08:41:58Z</time>
      </trkpt>
      <trkpt lat="45.19936" lon="5.99076">
        <ele>2377.8</ele>
        <time>2021-04-17T08:41:59Z</time>
      </trkpt>
      <trkpt lat="45.19936" lon="5.99076">
        <ele>2377.8</ele>
        <time>2021-04-17T08:42:01Z</time>
      </trkpt>
      <trkpt lat="45.19935" lon="5.99076">
        <ele>2378.2</ele>
        <time>2021-04-17T08:42:02Z</time>
      </trkpt>
      <trkpt lat="45.19935" lon="5.99076">
        <ele>2378.2</ele>
        <time>2021-04-17T08:42:03Z</time>
      </trkpt>
      <trkpt lat="45.19935" lon="5.99076">
        <ele>2378.4</ele>
        <time>2021-04-17T08:42:06Z</time>
      </trkpt>
      <trkpt lat="45.19935" lon="5.99076">
        <ele>2378.8</ele>
        <time>2021-04-17T08:42:08Z</time>
      </trkpt>
      <trkpt lat="45.19935" lon="5.99079">
        <ele>2379.6</ele>
        <time>2021-04-17T08:42:11Z</time>
      </trkpt>
      <trkpt lat="45.19935" lon="5.99084">
        <ele>2380.2</ele>
        <time>2021-04-17T08:42:13Z</time>
      </trkpt>
      <trkpt lat="45.19935" lon="5.99087">
        <ele>2380.6</ele>
        <time>2021-04-17T08:42:14Z</time>
      </trkpt>
      <trkpt lat="45.19935" lon="5.99089">
        <ele>2380.8</ele>
        <time>2021-04-17T08:42:15Z</time>
      </trkpt>
      <trkpt lat="45.19935" lon="5.99098">
        <ele>2381.6</ele>
        <time>2021-04-17T08:42:19Z</time>
      </trkpt>
      <trkpt lat="45.19936" lon="5.99103">
        <ele>2382.2</ele>
        <time>2021-04-17T08:42:23Z</time>
      </trkpt>
      <trkpt lat="45.19937" lon="5.99105">
        <ele>2382.8</ele>
        <time>2021-04-17T08:42:25Z</time>
      </trkpt>
      <trkpt lat="45.19937" lon="5.99108">
        <ele>2383.6</ele>
        <time>2021-04-17T08:42:28Z</time>
      </trkpt>
      <trkpt lat="45.19937" lon="5.99111">
        <ele>2384</ele>
        <time>2021-04-17T08:42:30Z</time>
      </trkpt>
      <trkpt lat="45.19937" lon="5.99114">
        <ele>2384.8</ele>
        <time>2021-04-17T08:42:33Z</time>
      </trkpt>
      <trkpt lat="45.19937" lon="5.99116">
        <ele>2385.2</ele>
        <time>2021-04-17T08:42:35Z</time>
      </trkpt>
      <trkpt lat="45.19937" lon="5.9912">
        <ele>2386.2</ele>
        <time>2021-04-17T08:42:38Z</time>
      </trkpt>
      <trkpt lat="45.19937" lon="5.9912">
        <ele>2386.4</ele>
        <time>2021-04-17T08:42:39Z</time>
      </trkpt>
      <trkpt lat="45.19937" lon="5.99121">
        <ele>2387</ele>
        <time>2021-04-17T08:42:41Z</time>
      </trkpt>
      <trkpt lat="45.19937" lon="5.99122">
        <ele>2387.2</ele>
        <time>2021-04-17T08:42:42Z</time>
      </trkpt>
      <trkpt lat="45.19937" lon="5.99122">
        <ele>2387.4</ele>
        <time>2021-04-17T08:42:43Z</time>
      </trkpt>
      <trkpt lat="45.19936" lon="5.99121">
        <ele>2388.6</ele>
        <time>2021-04-17T08:42:47Z</time>
      </trkpt>
      <trkpt lat="45.19935" lon="5.9912">
        <ele>2388.8</ele>
        <time>2021-04-17T08:42:48Z</time>
      </trkpt>
      <trkpt lat="45.19933" lon="5.99116">
        <ele>2389.8</ele>
        <time>2021-04-17T08:42:53Z</time>
      </trkpt>
      <trkpt lat="45.1993" lon="5.99112">
        <ele>2391</ele>
        <time>2021-04-17T08:42:58Z</time>
      </trkpt>
      <trkpt lat="45.19927" lon="5.99108">
        <ele>2392</ele>
        <time>2021-04-17T08:43:04Z</time>
      </trkpt>
      <trkpt lat="45.19927" lon="5.99108">
        <ele>2392.2</ele>
        <time>2021-04-17T08:43:05Z</time>
      </trkpt>
      <trkpt lat="45.19927" lon="5.99107">
        <ele>2392.2</ele>
        <time>2021-04-17T08:43:06Z</time>
      </trkpt>
      <trkpt lat="45.19926" lon="5.99106">
        <ele>2392.4</ele>
        <time>2021-04-17T08:43:07Z</time>
      </trkpt>
      <trkpt lat="45.19925" lon="5.99105">
        <ele>2392.6</ele>
        <time>2021-04-17T08:43:09Z</time>
      </trkpt>
      <trkpt lat="45.19924" lon="5.99103">
        <ele>2393</ele>
        <time>2021-04-17T08:43:11Z</time>
      </trkpt>
      <trkpt lat="45.19923" lon="5.99102">
        <ele>2393.4</ele>
        <time>2021-04-17T08:43:12Z</time>
      </trkpt>
      <trkpt lat="45.19917" lon="5.991">
        <ele>2394.4</ele>
        <time>2021-04-17T08:43:17Z</time>
      </trkpt>
      <trkpt lat="45.19916" lon="5.991">
        <ele>2394.6</ele>
        <time>2021-04-17T08:43:18Z</time>
      </trkpt>
      <trkpt lat="45.19913" lon="5.99099">
        <ele>2395.2</ele>
        <time>2021-04-17T08:43:21Z</time>
      </trkpt>
      <trkpt lat="45.19911" lon="5.99098">
        <ele>2395.6</ele>
        <time>2021-04-17T08:43:23Z</time>
      </trkpt>
      <trkpt lat="45.19909" lon="5.99098">
        <ele>2395.8</ele>
        <time>2021-04-17T08:43:24Z</time>
      </trkpt>
      <trkpt lat="45.19906" lon="5.99097">
        <ele>2396.8</ele>
        <time>2021-04-17T08:43:29Z</time>
      </trkpt>
      <trkpt lat="45.19906" lon="5.99097">
        <ele>2396.8</ele>
        <time>2021-04-17T08:43:30Z</time>
      </trkpt>
      <trkpt lat="45.19905" lon="5.99101">
        <ele>2397</ele>
        <time>2021-04-17T08:43:36Z</time>
      </trkpt>
      <trkpt lat="45.19906" lon="5.99099">
        <ele>2397</ele>
        <time>2021-04-17T08:43:39Z</time>
      </trkpt>
      <trkpt lat="45.19907" lon="5.991">
        <ele>2397</ele>
        <time>2021-04-17T08:43:45Z</time>
      </trkpt>
      <trkpt lat="45.19907" lon="5.991">
        <ele>2397</ele>
        <time>2021-04-17T08:43:46Z</time>
      </trkpt>
      <trkpt lat="45.19907" lon="5.991">
        <ele>2397</ele>
        <time>2021-04-17T08:43:49Z</time>
      </trkpt>
      <trkpt lat="45.19907" lon="5.991">
        <ele>2397</ele>
        <time>2021-04-17T08:43:53Z</time>
      </trkpt>
      <trkpt lat="45.19907" lon="5.991">
        <ele>2397</ele>
        <time>2021-04-17T08:43:55Z</time>
      </trkpt>
      <trkpt lat="45.19906" lon="5.991">
        <ele>2397</ele>
        <time>2021-04-17T08:43:57Z</time>
      </trkpt>
      <trkpt lat="45.19906" lon="5.99101">
        <ele>2396.8</ele>
        <time>2021-04-17T08:44:01Z</time>
      </trkpt>
      <trkpt lat="45.19906" lon="5.99101">
        <ele>2397</ele>
        <time>2021-04-17T08:44:03Z</time>
      </trkpt>
      <trkpt lat="45.19905" lon="5.99101">
        <ele>2397</ele>
        <time>2021-04-17T08:44:04Z</time>
      </trkpt>
      <trkpt lat="45.19905" lon="5.99102">
        <ele>2397</ele>
        <time>2021-04-17T08:44:05Z</time>
      </trkpt>
      <trkpt lat="45.19905" lon="5.99103">
        <ele>2397</ele>
        <time>2021-04-17T08:44:06Z</time>
      </trkpt>
      <trkpt lat="45.19905" lon="5.99103">
        <ele>2397</ele>
        <time>2021-04-17T08:44:08Z</time>
      </trkpt>
      <trkpt lat="45.19905" lon="5.99103">
        <ele>2397.2</ele>
        <time>2021-04-17T08:44:10Z</time>
      </trkpt>
      <trkpt lat="45.19905" lon="5.99104">
        <ele>2397</ele>
        <time>2021-04-17T08:44:16Z</time>
      </trkpt>
      <trkpt lat="45.19905" lon="5.99104">
        <ele>2396.8</ele>
        <time>2021-04-17T08:44:20Z</time>
      </trkpt>
      <trkpt lat="45.19905" lon="5.99104">
        <ele>2397</ele>
        <time>2021-04-17T08:44:23Z</time>
      </trkpt>
      <trkpt lat="45.19906" lon="5.99104">
        <ele>2397</ele>
        <time>2021-04-17T08:44:26Z</time>
      </trkpt>
      <trkpt lat="45.19907" lon="5.99104">
        <ele>2397</ele>
        <time>2021-04-17T08:44:28Z</time>
      </trkpt>
      <trkpt lat="45.19908" lon="5.99104">
        <ele>2396.8</ele>
        <time>2021-04-17T08:44:33Z</time>
      </trkpt>
      <trkpt lat="45.19908" lon="5.99104">
        <ele>2396.8</ele>
        <time>2021-04-17T08:44:36Z</time>
      </trkpt>
      <trkpt lat="45.19908" lon="5.99104">
        <ele>2396.8</ele>
        <time>2021-04-17T08:44:38Z</time>
      </trkpt>
      <trkpt lat="45.19908" lon="5.99104">
        <ele>2396.8</ele>
        <time>2021-04-17T08:44:39Z</time>
      </trkpt>
      <trkpt lat="45.19908" lon="5.99104">
        <ele>2396.8</ele>
        <time>2021-04-17T08:44:44Z</time>
      </trkpt>
      <trkpt lat="45.19907" lon="5.99105">
        <ele>2396.8</ele>
        <time>2021-04-17T08:44:50Z</time>
      </trkpt>
      <trkpt lat="45.19907" lon="5.99105">
        <ele>2396.8</ele>
        <time>2021-04-17T08:44:52Z</time>
      </trkpt>
      <trkpt lat="45.19907" lon="5.99106">
        <ele>2396.8</ele>
        <time>2021-04-17T08:44:53Z</time>
      </trkpt>
      <trkpt lat="45.19906" lon="5.99106">
        <ele>2396.8</ele>
        <time>2021-04-17T08:44:54Z</time>
      </trkpt>
      <trkpt lat="45.19905" lon="5.99106">
        <ele>2396.8</ele>
        <time>2021-04-17T08:44:55Z</time>
      </trkpt>
      <trkpt lat="45.199" lon="5.99104">
        <ele>2396.8</ele>
        <time>2021-04-17T08:44:58Z</time>
      </trkpt>
      <trkpt lat="45.19898" lon="5.99104">
        <ele>2396.8</ele>
        <time>2021-04-17T08:44:59Z</time>
      </trkpt>
      <trkpt lat="45.19891" lon="5.99101">
        <ele>2397.4</ele>
        <time>2021-04-17T08:45:03Z</time>
      </trkpt>
      <trkpt lat="45.19888" lon="5.991">
        <ele>2398</ele>
        <time>2021-04-17T08:45:05Z</time>
      </trkpt>
      <trkpt lat="45.19887" lon="5.99099">
        <ele>2398.4</ele>
        <time>2021-04-17T08:45:06Z</time>
      </trkpt>
      <trkpt lat="45.19886" lon="5.99097">
        <ele>2398.4</ele>
        <time>2021-04-17T08:45:08Z</time>
      </trkpt>
      <trkpt lat="45.19885" lon="5.99096">
        <ele>2398.6</ele>
        <time>2021-04-17T08:45:09Z</time>
      </trkpt>
      <trkpt lat="45.19884" lon="5.99094">
        <ele>2398.8</ele>
        <time>2021-04-17T08:45:11Z</time>
      </trkpt>
      <trkpt lat="45.19883" lon="5.99093">
        <ele>2398.8</ele>
        <time>2021-04-17T08:45:12Z</time>
      </trkpt>
      <trkpt lat="45.19882" lon="5.99092">
        <ele>2399</ele>
        <time>2021-04-17T08:45:13Z</time>
      </trkpt>
      <trkpt lat="45.19881" lon="5.99089">
        <ele>2399.4</ele>
        <time>2021-04-17T08:45:15Z</time>
      </trkpt>
      <trkpt lat="45.1988" lon="5.99087">
        <ele>2400</ele>
        <time>2021-04-17T08:45:17Z</time>
      </trkpt>
      <trkpt lat="45.1988" lon="5.99085">
        <ele>2400</ele>
        <time>2021-04-17T08:45:18Z</time>
      </trkpt>
      <trkpt lat="45.19879" lon="5.99085">
        <ele>2400.2</ele>
        <time>2021-04-17T08:45:19Z</time>
      </trkpt>
      <trkpt lat="45.19877" lon="5.99083">
        <ele>2400.8</ele>
        <time>2021-04-17T08:45:22Z</time>
      </trkpt>
      <trkpt lat="45.19875" lon="5.99082">
        <ele>2401.2</ele>
        <time>2021-04-17T08:45:24Z</time>
      </trkpt>
      <trkpt lat="45.19874" lon="5.99082">
        <ele>2401.6</ele>
        <time>2021-04-17T08:45:25Z</time>
      </trkpt>
      <trkpt lat="45.19873" lon="5.99081">
        <ele>2402</ele>
        <time>2021-04-17T08:45:26Z</time>
      </trkpt>
      <trkpt lat="45.19871" lon="5.99079">
        <ele>2402.4</ele>
        <time>2021-04-17T08:45:28Z</time>
      </trkpt>
      <trkpt lat="45.19869" lon="5.99078">
        <ele>2403.2</ele>
        <time>2021-04-17T08:45:31Z</time>
      </trkpt>
      <trkpt lat="45.19869" lon="5.99076">
        <ele>2403.4</ele>
        <time>2021-04-17T08:45:32Z</time>
      </trkpt>
      <trkpt lat="45.19866" lon="5.99074">
        <ele>2404.4</ele>
        <time>2021-04-17T08:45:35Z</time>
      </trkpt>
      <trkpt lat="45.19864" lon="5.99073">
        <ele>2404.6</ele>
        <time>2021-04-17T08:45:36Z</time>
      </trkpt>
      <trkpt lat="45.19859" lon="5.99068">
        <ele>2405.8</ele>
        <time>2021-04-17T08:45:42Z</time>
      </trkpt>
      <trkpt lat="45.19859" lon="5.99067">
        <ele>2406</ele>
        <time>2021-04-17T08:45:43Z</time>
      </trkpt>
      <trkpt lat="45.19856" lon="5.99064">
        <ele>2406.8</ele>
        <time>2021-04-17T08:45:47Z</time>
      </trkpt>
      <trkpt lat="45.19855" lon="5.99063">
        <ele>2407</ele>
        <time>2021-04-17T08:45:48Z</time>
      </trkpt>
      <trkpt lat="45.19853" lon="5.99059">
        <ele>2407.6</ele>
        <time>2021-04-17T08:45:51Z</time>
      </trkpt>
      <trkpt lat="45.19853" lon="5.99058">
        <ele>2407.8</ele>
        <time>2021-04-17T08:45:52Z</time>
      </trkpt>
      <trkpt lat="45.19852" lon="5.99053">
        <ele>2409</ele>
        <time>2021-04-17T08:45:56Z</time>
      </trkpt>
      <trkpt lat="45.1985" lon="5.99049">
        <ele>2409.2</ele>
        <time>2021-04-17T08:45:58Z</time>
      </trkpt>
      <trkpt lat="45.19851" lon="5.99043">
        <ele>2410</ele>
        <time>2021-04-17T08:46:01Z</time>
      </trkpt>
      <trkpt lat="45.19849" lon="5.99043">
        <ele>2410.4</ele>
        <time>2021-04-17T08:46:03Z</time>
      </trkpt>
      <trkpt lat="45.19848" lon="5.99042">
        <ele>2410.6</ele>
        <time>2021-04-17T08:46:04Z</time>
      </trkpt>
      <trkpt lat="45.19849" lon="5.99039">
        <ele>2411.2</ele>
        <time>2021-04-17T08:46:06Z</time>
      </trkpt>
      <trkpt lat="45.19849" lon="5.99034">
        <ele>2411.6</ele>
        <time>2021-04-17T08:46:08Z</time>
      </trkpt>
      <trkpt lat="45.1985" lon="5.99033">
        <ele>2412</ele>
        <time>2021-04-17T08:46:09Z</time>
      </trkpt>
      <trkpt lat="45.19849" lon="5.99031">
        <ele>2412.2</ele>
        <time>2021-04-17T08:46:10Z</time>
      </trkpt>
      <trkpt lat="45.19848" lon="5.99029">
        <ele>2413</ele>
        <time>2021-04-17T08:46:13Z</time>
      </trkpt>
      <trkpt lat="45.19847" lon="5.99029">
        <ele>2413.2</ele>
        <time>2021-04-17T08:46:14Z</time>
      </trkpt>
      <trkpt lat="45.19845" lon="5.9903">
        <ele>2414.4</ele>
        <time>2021-04-17T08:46:19Z</time>
      </trkpt>
      <trkpt lat="45.19845" lon="5.99032">
        <ele>2415</ele>
        <time>2021-04-17T08:46:22Z</time>
      </trkpt>
      <trkpt lat="45.19844" lon="5.99033">
        <ele>2415.8</ele>
        <time>2021-04-17T08:46:24Z</time>
      </trkpt>
      <trkpt lat="45.19843" lon="5.99036">
        <ele>2416.8</ele>
        <time>2021-04-17T08:46:27Z</time>
      </trkpt>
      <trkpt lat="45.19841" lon="5.9904">
        <ele>2417.4</ele>
        <time>2021-04-17T08:46:31Z</time>
      </trkpt>
      <trkpt lat="45.19841" lon="5.99042">
        <ele>2418</ele>
        <time>2021-04-17T08:46:34Z</time>
      </trkpt>
      <trkpt lat="45.19843" lon="5.99045">
        <ele>2419.2</ele>
        <time>2021-04-17T08:46:38Z</time>
      </trkpt>
      <trkpt lat="45.19843" lon="5.99049">
        <ele>2419.8</ele>
        <time>2021-04-17T08:46:41Z</time>
      </trkpt>
      <trkpt lat="45.19842" lon="5.9905">
        <ele>2420.4</ele>
        <time>2021-04-17T08:46:43Z</time>
      </trkpt>
      <trkpt lat="45.19842" lon="5.99054">
        <ele>2421.4</ele>
        <time>2021-04-17T08:46:47Z</time>
      </trkpt>
      <trkpt lat="45.19842" lon="5.99056">
        <ele>2421.8</ele>
        <time>2021-04-17T08:46:49Z</time>
      </trkpt>
      <trkpt lat="45.19841" lon="5.99058">
        <ele>2422.4</ele>
        <time>2021-04-17T08:46:52Z</time>
      </trkpt>
      <trkpt lat="45.19841" lon="5.99058">
        <ele>2422.6</ele>
        <time>2021-04-17T08:46:56Z</time>
      </trkpt>
      <trkpt lat="45.19838" lon="5.99055">
        <ele>2423.4</ele>
        <time>2021-04-17T08:47:02Z</time>
      </trkpt>
      <trkpt lat="45.19837" lon="5.99054">
        <ele>2423.8</ele>
        <time>2021-04-17T08:47:03Z</time>
      </trkpt>
      <trkpt lat="45.19832" lon="5.99051">
        <ele>2424.6</ele>
        <time>2021-04-17T08:47:09Z</time>
      </trkpt>
      <trkpt lat="45.19832" lon="5.9905">
        <ele>2424.8</ele>
        <time>2021-04-17T08:47:10Z</time>
      </trkpt>
      <trkpt lat="45.19831" lon="5.9905">
        <ele>2425</ele>
        <time>2021-04-17T08:47:11Z</time>
      </trkpt>
      <trkpt lat="45.19829" lon="5.99046">
        <ele>2425.8</ele>
        <time>2021-04-17T08:47:15Z</time>
      </trkpt>
      <trkpt lat="45.19829" lon="5.99046">
        <ele>2426</ele>
        <time>2021-04-17T08:47:16Z</time>
      </trkpt>
      <trkpt lat="45.19828" lon="5.99045">
        <ele>2426.2</ele>
        <time>2021-04-17T08:47:17Z</time>
      </trkpt>
      <trkpt lat="45.19826" lon="5.99042">
        <ele>2427</ele>
        <time>2021-04-17T08:47:20Z</time>
      </trkpt>
      <trkpt lat="45.19825" lon="5.99038">
        <ele>2427.6</ele>
        <time>2021-04-17T08:47:23Z</time>
      </trkpt>
      <trkpt lat="45.19824" lon="5.99035">
        <ele>2428.2</ele>
        <time>2021-04-17T08:47:25Z</time>
      </trkpt>
      <trkpt lat="45.19823" lon="5.99033">
        <ele>2428.8</ele>
        <time>2021-04-17T08:47:27Z</time>
      </trkpt>
      <trkpt lat="45.19823" lon="5.9903">
        <ele>2429</ele>
        <time>2021-04-17T08:47:29Z</time>
      </trkpt>
      <trkpt lat="45.19824" lon="5.99029">
        <ele>2429.4</ele>
        <time>2021-04-17T08:47:31Z</time>
      </trkpt>
      <trkpt lat="45.19825" lon="5.99029">
        <ele>2430.2</ele>
        <time>2021-04-17T08:47:35Z</time>
      </trkpt>
      <trkpt lat="45.19824" lon="5.99032">
        <ele>2430.6</ele>
        <time>2021-04-17T08:47:40Z</time>
      </trkpt>
      <trkpt lat="45.19824" lon="5.99033">
        <ele>2430.8</ele>
        <time>2021-04-17T08:47:41Z</time>
      </trkpt>
      <trkpt lat="45.19823" lon="5.99036">
        <ele>2431.8</ele>
        <time>2021-04-17T08:47:45Z</time>
      </trkpt>
      <trkpt lat="45.19821" lon="5.9904">
        <ele>2433</ele>
        <time>2021-04-17T08:47:49Z</time>
      </trkpt>
      <trkpt lat="45.19819" lon="5.99047">
        <ele>2434.2</ele>
        <time>2021-04-17T08:47:55Z</time>
      </trkpt>
      <trkpt lat="45.19818" lon="5.99048">
        <ele>2434.4</ele>
        <time>2021-04-17T08:47:56Z</time>
      </trkpt>
      <trkpt lat="45.19818" lon="5.9905">
        <ele>2435.2</ele>
        <time>2021-04-17T08:47:59Z</time>
      </trkpt>
      <trkpt lat="45.19816" lon="5.99049">
        <ele>2436</ele>
        <time>2021-04-17T08:48:02Z</time>
      </trkpt>
      <trkpt lat="45.19815" lon="5.99047">
        <ele>2436.4</ele>
        <time>2021-04-17T08:48:04Z</time>
      </trkpt>
      <trkpt lat="45.1981" lon="5.99044">
        <ele>2437.4</ele>
        <time>2021-04-17T08:48:09Z</time>
      </trkpt>
      <trkpt lat="45.19809" lon="5.99044">
        <ele>2437.6</ele>
        <time>2021-04-17T08:48:10Z</time>
      </trkpt>
      <trkpt lat="45.19808" lon="5.99041">
        <ele>2438.6</ele>
        <time>2021-04-17T08:48:14Z</time>
      </trkpt>
      <trkpt lat="45.19806" lon="5.99038">
        <ele>2439.4</ele>
        <time>2021-04-17T08:48:18Z</time>
      </trkpt>
      <trkpt lat="45.19806" lon="5.99037">
        <ele>2439.8</ele>
        <time>2021-04-17T08:48:19Z</time>
      </trkpt>
      <trkpt lat="45.19805" lon="5.9903">
        <ele>2441</ele>
        <time>2021-04-17T08:48:24Z</time>
      </trkpt>
      <trkpt lat="45.19806" lon="5.99029">
        <ele>2441.4</ele>
        <time>2021-04-17T08:48:26Z</time>
      </trkpt>
      <trkpt lat="45.19806" lon="5.99029">
        <ele>2442</ele>
        <time>2021-04-17T08:48:29Z</time>
      </trkpt>
      <trkpt lat="45.19805" lon="5.99033">
        <ele>2442.4</ele>
        <time>2021-04-17T08:48:33Z</time>
      </trkpt>
      <trkpt lat="45.19804" lon="5.99037">
        <ele>2443.2</ele>
        <time>2021-04-17T08:48:37Z</time>
      </trkpt>
      <trkpt lat="45.19803" lon="5.99041">
        <ele>2444.2</ele>
        <time>2021-04-17T08:48:41Z</time>
      </trkpt>
      <trkpt lat="45.19803" lon="5.99042">
        <ele>2444.2</ele>
        <time>2021-04-17T08:48:42Z</time>
      </trkpt>
      <trkpt lat="45.19804" lon="5.99049">
        <ele>2445.6</ele>
        <time>2021-04-17T08:48:48Z</time>
      </trkpt>
      <trkpt lat="45.19804" lon="5.9905">
        <ele>2445.8</ele>
        <time>2021-04-17T08:48:49Z</time>
      </trkpt>
      <trkpt lat="45.19804" lon="5.99055">
        <ele>2446.6</ele>
        <time>2021-04-17T08:48:53Z</time>
      </trkpt>
      <trkpt lat="45.19805" lon="5.9906">
        <ele>2447.2</ele>
        <time>2021-04-17T08:48:57Z</time>
      </trkpt>
      <trkpt lat="45.19805" lon="5.99062">
        <ele>2447.8</ele>
        <time>2021-04-17T08:48:59Z</time>
      </trkpt>
      <trkpt lat="45.19806" lon="5.99068">
        <ele>2448.8</ele>
        <time>2021-04-17T08:49:04Z</time>
      </trkpt>
      <trkpt lat="45.19807" lon="5.99072">
        <ele>2449.6</ele>
        <time>2021-04-17T08:49:08Z</time>
      </trkpt>
      <trkpt lat="45.19808" lon="5.99074">
        <ele>2449.8</ele>
        <time>2021-04-17T08:49:09Z</time>
      </trkpt>
      <trkpt lat="45.19808" lon="5.9908">
        <ele>2451</ele>
        <time>2021-04-17T08:49:15Z</time>
      </trkpt>
      <trkpt lat="45.19808" lon="5.9908">
        <ele>2451.2</ele>
        <time>2021-04-17T08:49:16Z</time>
      </trkpt>
      <trkpt lat="45.19808" lon="5.9908">
        <ele>2451.2</ele>
        <time>2021-04-17T08:49:17Z</time>
      </trkpt>
      <trkpt lat="45.19809" lon="5.99082">
        <ele>2451.2</ele>
        <time>2021-04-17T08:49:23Z</time>
      </trkpt>
      <trkpt lat="45.19809" lon="5.99082">
        <ele>2451.4</ele>
        <time>2021-04-17T08:49:24Z</time>
      </trkpt>
      <trkpt lat="45.1981" lon="5.99084">
        <ele>2451.4</ele>
        <time>2021-04-17T08:49:29Z</time>
      </trkpt>
      <trkpt lat="45.1981" lon="5.99084">
        <ele>2451.2</ele>
        <time>2021-04-17T08:49:32Z</time>
      </trkpt>
      <trkpt lat="45.1981" lon="5.99084">
        <ele>2451.2</ele>
        <time>2021-04-17T08:49:34Z</time>
      </trkpt>
      <trkpt lat="45.1981" lon="5.99084">
        <ele>2451</ele>
        <time>2021-04-17T08:49:36Z</time>
      </trkpt>
      <trkpt lat="45.1981" lon="5.99084">
        <ele>2451</ele>
        <time>2021-04-17T08:49:37Z</time>
      </trkpt>
      <trkpt lat="45.1981" lon="5.99084">
        <ele>2451</ele>
        <time>2021-04-17T08:49:38Z</time>
      </trkpt>
      <trkpt lat="45.1981" lon="5.99084">
        <ele>2451</ele>
        <time>2021-04-17T08:49:39Z</time>
      </trkpt>
      <trkpt lat="45.1981" lon="5.99084">
        <ele>2451.2</ele>
        <time>2021-04-17T08:49:43Z</time>
      </trkpt>
      <trkpt lat="45.1981" lon="5.99084">
        <ele>2451.2</ele>
        <time>2021-04-17T08:49:45Z</time>
      </trkpt>
      <trkpt lat="45.1981" lon="5.99084">
        <ele>2451.2</ele>
        <time>2021-04-17T08:49:47Z</time>
      </trkpt>
      <trkpt lat="45.19811" lon="5.99084">
        <ele>2451.2</ele>
        <time>2021-04-17T08:49:53Z</time>
      </trkpt>
      <trkpt lat="45.19811" lon="5.99084">
        <ele>2451.2</ele>
        <time>2021-04-17T08:49:54Z</time>
      </trkpt>
      <trkpt lat="45.19811" lon="5.99084">
        <ele>2451.2</ele>
        <time>2021-04-17T08:49:55Z</time>
      </trkpt>
      <trkpt lat="45.19811" lon="5.99084">
        <ele>2451.2</ele>
        <time>2021-04-17T08:49:59Z</time>
      </trkpt>
      <trkpt lat="45.19811" lon="5.99084">
        <ele>2451.2</ele>
        <time>2021-04-17T08:50:00Z</time>
      </trkpt>
      <trkpt lat="45.19811" lon="5.99083">
        <ele>2451.2</ele>
        <time>2021-04-17T08:50:06Z</time>
      </trkpt>
      <trkpt lat="45.19811" lon="5.99082">
        <ele>2451.2</ele>
        <time>2021-04-17T08:50:08Z</time>
      </trkpt>
      <trkpt lat="45.19811" lon="5.99082">
        <ele>2451</ele>
        <time>2021-04-17T08:50:10Z</time>
      </trkpt>
      <trkpt lat="45.19811" lon="5.99082">
        <ele>2451</ele>
        <time>2021-04-17T08:50:12Z</time>
      </trkpt>
      <trkpt lat="45.19811" lon="5.99082">
        <ele>2451</ele>
        <time>2021-04-17T08:50:15Z</time>
      </trkpt>
      <trkpt lat="45.19811" lon="5.99082">
        <ele>2450.8</ele>
        <time>2021-04-17T08:50:17Z</time>
      </trkpt>
      <trkpt lat="45.19811" lon="5.99082">
        <ele>2450.8</ele>
        <time>2021-04-17T08:50:19Z</time>
      </trkpt>
      <trkpt lat="45.19811" lon="5.99082">
        <ele>2450.8</ele>
        <time>2021-04-17T08:50:21Z</time>
      </trkpt>
      <trkpt lat="45.19811" lon="5.99082">
        <ele>2450.8</ele>
        <time>2021-04-17T08:50:23Z</time>
      </trkpt>
      <trkpt lat="45.19811" lon="5.99082">
        <ele>2450.8</ele>
        <time>2021-04-17T08:50:24Z</time>
      </trkpt>
      <trkpt lat="45.19811" lon="5.99082">
        <ele>2450.8</ele>
        <time>2021-04-17T08:50:25Z</time>
      </trkpt>
      <trkpt lat="45.19811" lon="5.99082">
        <ele>2450.8</ele>
        <time>2021-04-17T08:50:27Z</time>
      </trkpt>
      <trkpt lat="45.19811" lon="5.99082">
        <ele>2450.8</ele>
        <time>2021-04-17T08:50:28Z</time>
      </trkpt>
      <trkpt lat="45.19811" lon="5.99082">
        <ele>2450.6</ele>
        <time>2021-04-17T08:50:30Z</time>
      </trkpt>
      <trkpt lat="45.1981" lon="5.99082">
        <ele>2450.8</ele>
        <time>2021-04-17T08:50:33Z</time>
      </trkpt>
      <trkpt lat="45.1981" lon="5.99082">
        <ele>2450.8</ele>
        <time>2021-04-17T08:50:34Z</time>
      </trkpt>
      <trkpt lat="45.19809" lon="5.99083">
        <ele>2450.8</ele>
        <time>2021-04-17T08:50:36Z</time>
      </trkpt>
      <trkpt lat="45.19808" lon="5.99083">
        <ele>2450.8</ele>
        <time>2021-04-17T08:50:38Z</time>
      </trkpt>
      <trkpt lat="45.19808" lon="5.99083">
        <ele>2450.8</ele>
        <time>2021-04-17T08:50:39Z</time>
      </trkpt>
      <trkpt lat="45.19808" lon="5.99083">
        <ele>2450.8</ele>
        <time>2021-04-17T08:50:40Z</time>
      </trkpt>
      <trkpt lat="45.19808" lon="5.99083">
        <ele>2450.8</ele>
        <time>2021-04-17T08:50:46Z</time>
      </trkpt>
      <trkpt lat="45.19807" lon="5.99082">
        <ele>2450.8</ele>
        <time>2021-04-17T08:50:51Z</time>
      </trkpt>
      <trkpt lat="45.19807" lon="5.99082">
        <ele>2450.8</ele>
        <time>2021-04-17T08:50:53Z</time>
      </trkpt>
      <trkpt lat="45.19807" lon="5.99082">
        <ele>2450.8</ele>
        <time>2021-04-17T08:50:55Z</time>
      </trkpt>
      <trkpt lat="45.19807" lon="5.99082">
        <ele>2450.8</ele>
        <time>2021-04-17T08:50:56Z</time>
      </trkpt>
      <trkpt lat="45.19807" lon="5.99082">
        <ele>2450.8</ele>
        <time>2021-04-17T08:50:57Z</time>
      </trkpt>
      <trkpt lat="45.19807" lon="5.99082">
        <ele>2450.8</ele>
        <time>2021-04-17T08:50:58Z</time>
      </trkpt>
      <trkpt lat="45.19807" lon="5.99081">
        <ele>2450.8</ele>
        <time>2021-04-17T08:50:59Z</time>
      </trkpt>
      <trkpt lat="45.19807" lon="5.99081">
        <ele>2450.8</ele>
        <time>2021-04-17T08:51:00Z</time>
      </trkpt>
      <trkpt lat="45.19807" lon="5.99081">
        <ele>2450.8</ele>
        <time>2021-04-17T08:51:01Z</time>
      </trkpt>
      <trkpt lat="45.19806" lon="5.99081">
        <ele>2450.8</ele>
        <time>2021-04-17T08:51:07Z</time>
      </trkpt>
      <trkpt lat="45.19806" lon="5.99081">
        <ele>2450.8</ele>
        <time>2021-04-17T08:51:08Z</time>
      </trkpt>
      <trkpt lat="45.19806" lon="5.99081">
        <ele>2450.8</ele>
        <time>2021-04-17T08:51:09Z</time>
      </trkpt>
      <trkpt lat="45.19806" lon="5.99081">
        <ele>2450.8</ele>
        <time>2021-04-17T08:51:10Z</time>
      </trkpt>
      <trkpt lat="45.19806" lon="5.99081">
        <ele>2450.8</ele>
        <time>2021-04-17T08:51:12Z</time>
      </trkpt>
      <trkpt lat="45.19806" lon="5.99081">
        <ele>2450.8</ele>
        <time>2021-04-17T08:51:14Z</time>
      </trkpt>
      <trkpt lat="45.19806" lon="5.99081">
        <ele>2450.8</ele>
        <time>2021-04-17T08:51:17Z</time>
      </trkpt>
      <trkpt lat="45.19805" lon="5.9908">
        <ele>2450.8</ele>
        <time>2021-04-17T08:51:22Z</time>
      </trkpt>
      <trkpt lat="45.19803" lon="5.9908">
        <ele>2450.8</ele>
        <time>2021-04-17T08:51:28Z</time>
      </trkpt>
      <trkpt lat="45.19803" lon="5.99079">
        <ele>2450.8</ele>
        <time>2021-04-17T08:51:29Z</time>
      </trkpt>
      <trkpt lat="45.19803" lon="5.99079">
        <ele>2450.8</ele>
        <time>2021-04-17T08:51:30Z</time>
      </trkpt>
      <trkpt lat="45.19803" lon="5.99079">
        <ele>2450.8</ele>
        <time>2021-04-17T08:51:36Z</time>
      </trkpt>
      <trkpt lat="45.19803" lon="5.99079">
        <ele>2450.8</ele>
        <time>2021-04-17T08:51:38Z</time>
      </trkpt>
      <trkpt lat="45.19802" lon="5.99078">
        <ele>2450.8</ele>
        <time>2021-04-17T08:51:40Z</time>
      </trkpt>
      <trkpt lat="45.19802" lon="5.99078">
        <ele>2450.8</ele>
        <time>2021-04-17T08:51:41Z</time>
      </trkpt>
      <trkpt lat="45.19802" lon="5.99078">
        <ele>2450.8</ele>
        <time>2021-04-17T08:51:42Z</time>
      </trkpt>
      <trkpt lat="45.19802" lon="5.99078">
        <ele>2450.8</ele>
        <time>2021-04-17T08:51:43Z</time>
      </trkpt>
      <trkpt lat="45.19802" lon="5.99078">
        <ele>2450.8</ele>
        <time>2021-04-17T08:51:49Z</time>
      </trkpt>
      <trkpt lat="45.19802" lon="5.99078">
        <ele>2450.8</ele>
        <time>2021-04-17T08:51:54Z</time>
      </trkpt>
      <trkpt lat="45.19802" lon="5.99078">
        <ele>2450.8</ele>
        <time>2021-04-17T08:51:55Z</time>
      </trkpt>
      <trkpt lat="45.19802" lon="5.99078">
        <ele>2450.8</ele>
        <time>2021-04-17T08:51:56Z</time>
      </trkpt>
      <trkpt lat="45.198" lon="5.99076">
        <ele>2450.8</ele>
        <time>2021-04-17T08:51:58Z</time>
      </trkpt>
      <trkpt lat="45.19796" lon="5.99074">
        <ele>2450.8</ele>
        <time>2021-04-17T08:52:01Z</time>
      </trkpt>
      <trkpt lat="45.19793" lon="5.99071">
        <ele>2450.6</ele>
        <time>2021-04-17T08:52:03Z</time>
      </trkpt>
      <trkpt lat="45.19791" lon="5.99069">
        <ele>2450.8</ele>
        <time>2021-04-17T08:52:05Z</time>
      </trkpt>
      <trkpt lat="45.19787" lon="5.99066">
        <ele>2451.4</ele>
        <time>2021-04-17T08:52:09Z</time>
      </trkpt>
      <trkpt lat="45.19786" lon="5.99064">
        <ele>2451.8</ele>
        <time>2021-04-17T08:52:11Z</time>
      </trkpt>
      <trkpt lat="45.19784" lon="5.99063">
        <ele>2452</ele>
        <time>2021-04-17T08:52:13Z</time>
      </trkpt>
      <trkpt lat="45.19783" lon="5.99061">
        <ele>2452.2</ele>
        <time>2021-04-17T08:52:15Z</time>
      </trkpt>
      <trkpt lat="45.19781" lon="5.9906">
        <ele>2452.8</ele>
        <time>2021-04-17T08:52:18Z</time>
      </trkpt>
      <trkpt lat="45.1978" lon="5.99059">
        <ele>2453</ele>
        <time>2021-04-17T08:52:19Z</time>
      </trkpt>
      <trkpt lat="45.1978" lon="5.99059">
        <ele>2453.2</ele>
        <time>2021-04-17T08:52:20Z</time>
      </trkpt>
      <trkpt lat="45.19779" lon="5.99058">
        <ele>2453.6</ele>
        <time>2021-04-17T08:52:23Z</time>
      </trkpt>
      <trkpt lat="45.19778" lon="5.99056">
        <ele>2454</ele>
        <time>2021-04-17T08:52:25Z</time>
      </trkpt>
      <trkpt lat="45.19777" lon="5.99055">
        <ele>2454.2</ele>
        <time>2021-04-17T08:52:26Z</time>
      </trkpt>
      <trkpt lat="45.19774" lon="5.99049">
        <ele>2454.8</ele>
        <time>2021-04-17T08:52:32Z</time>
      </trkpt>
      <trkpt lat="45.19772" lon="5.99046">
        <ele>2455.4</ele>
        <time>2021-04-17T08:52:36Z</time>
      </trkpt>
      <trkpt lat="45.1977" lon="5.99042">
        <ele>2456.4</ele>
        <time>2021-04-17T08:52:41Z</time>
      </trkpt>
      <trkpt lat="45.19766" lon="5.99035">
        <ele>2457.2</ele>
        <time>2021-04-17T08:52:47Z</time>
      </trkpt>
      <trkpt lat="45.19766" lon="5.99034">
        <ele>2457.4</ele>
        <time>2021-04-17T08:52:48Z</time>
      </trkpt>
      <trkpt lat="45.19766" lon="5.9903">
        <ele>2458.2</ele>
        <time>2021-04-17T08:52:52Z</time>
      </trkpt>
      <trkpt lat="45.19764" lon="5.99025">
        <ele>2458.4</ele>
        <time>2021-04-17T08:52:56Z</time>
      </trkpt>
      <trkpt lat="45.19764" lon="5.99022">
        <ele>2458.8</ele>
        <time>2021-04-17T08:52:59Z</time>
      </trkpt>
      <trkpt lat="45.19764" lon="5.99018">
        <ele>2459.6</ele>
        <time>2021-04-17T08:53:03Z</time>
      </trkpt>
      <trkpt lat="45.19764" lon="5.99013">
        <ele>2460.4</ele>
        <time>2021-04-17T08:53:08Z</time>
      </trkpt>
      <trkpt lat="45.19763" lon="5.99011">
        <ele>2460.6</ele>
        <time>2021-04-17T08:53:10Z</time>
      </trkpt>
      <trkpt lat="45.19763" lon="5.99008">
        <ele>2461.4</ele>
        <time>2021-04-17T08:53:14Z</time>
      </trkpt>
      <trkpt lat="45.19763" lon="5.99006">
        <ele>2462</ele>
        <time>2021-04-17T08:53:17Z</time>
      </trkpt>
      <trkpt lat="45.19763" lon="5.99003">
        <ele>2462.6</ele>
        <time>2021-04-17T08:53:20Z</time>
      </trkpt>
      <trkpt lat="45.19762" lon="5.99">
        <ele>2463</ele>
        <time>2021-04-17T08:53:23Z</time>
      </trkpt>
      <trkpt lat="45.1976" lon="5.98997">
        <ele>2463.6</ele>
        <time>2021-04-17T08:53:28Z</time>
      </trkpt>
      <trkpt lat="45.19758" lon="5.98995">
        <ele>2464.2</ele>
        <time>2021-04-17T08:53:31Z</time>
      </trkpt>
      <trkpt lat="45.19755" lon="5.9899">
        <ele>2464.8</ele>
        <time>2021-04-17T08:53:36Z</time>
      </trkpt>
      <trkpt lat="45.19755" lon="5.98988">
        <ele>2465.4</ele>
        <time>2021-04-17T08:53:38Z</time>
      </trkpt>
      <trkpt lat="45.19754" lon="5.98985">
        <ele>2466.2</ele>
        <time>2021-04-17T08:53:43Z</time>
      </trkpt>
      <trkpt lat="45.19756" lon="5.98981">
        <ele>2466.4</ele>
        <time>2021-04-17T08:53:46Z</time>
      </trkpt>
      <trkpt lat="45.19753" lon="5.98975">
        <ele>2466.8</ele>
        <time>2021-04-17T08:53:52Z</time>
      </trkpt>
      <trkpt lat="45.19752" lon="5.98972">
        <ele>2466.8</ele>
        <time>2021-04-17T08:53:54Z</time>
      </trkpt>
      <trkpt lat="45.19749" lon="5.98962">
        <ele>2466.4</ele>
        <time>2021-04-17T08:54:00Z</time>
      </trkpt>
      <trkpt lat="45.19748" lon="5.98961">
        <ele>2466.4</ele>
        <time>2021-04-17T08:54:01Z</time>
      </trkpt>
      <trkpt lat="45.19747" lon="5.98956">
        <ele>2466.4</ele>
        <time>2021-04-17T08:54:04Z</time>
      </trkpt>
      <trkpt lat="45.19748" lon="5.98952">
        <ele>2466.4</ele>
        <time>2021-04-17T08:54:07Z</time>
      </trkpt>
      <trkpt lat="45.19749" lon="5.98948">
        <ele>2466.6</ele>
        <time>2021-04-17T08:54:10Z</time>
      </trkpt>
      <trkpt lat="45.19746" lon="5.98942">
        <ele>2467</ele>
        <time>2021-04-17T08:54:16Z</time>
      </trkpt>
      <trkpt lat="45.19746" lon="5.98939">
        <ele>2467.2</ele>
        <time>2021-04-17T08:54:18Z</time>
      </trkpt>
      <trkpt lat="45.19746" lon="5.98937">
        <ele>2467.4</ele>
        <time>2021-04-17T08:54:20Z</time>
      </trkpt>
      <trkpt lat="45.19745" lon="5.98928">
        <ele>2468.2</ele>
        <time>2021-04-17T08:54:26Z</time>
      </trkpt>
      <trkpt lat="45.19744" lon="5.98926">
        <ele>2468.6</ele>
        <time>2021-04-17T08:54:29Z</time>
      </trkpt>
      <trkpt lat="45.19742" lon="5.98921">
        <ele>2469.8</ele>
        <time>2021-04-17T08:54:35Z</time>
      </trkpt>
      <trkpt lat="45.19742" lon="5.98919">
        <ele>2470</ele>
        <time>2021-04-17T08:54:37Z</time>
      </trkpt>
      <trkpt lat="45.19742" lon="5.9891">
        <ele>2470.6</ele>
        <time>2021-04-17T08:54:42Z</time>
      </trkpt>
      <trkpt lat="45.19742" lon="5.98909">
        <ele>2470.8</ele>
        <time>2021-04-17T08:54:43Z</time>
      </trkpt>
      <trkpt lat="45.19742" lon="5.98905">
        <ele>2471.2</ele>
        <time>2021-04-17T08:54:46Z</time>
      </trkpt>
      <trkpt lat="45.19742" lon="5.98896">
        <ele>2472</ele>
        <time>2021-04-17T08:54:51Z</time>
      </trkpt>
      <trkpt lat="45.19743" lon="5.98893">
        <ele>2472</ele>
        <time>2021-04-17T08:54:52Z</time>
      </trkpt>
      <trkpt lat="45.19742" lon="5.98881">
        <ele>2472.4</ele>
        <time>2021-04-17T08:54:58Z</time>
      </trkpt>
      <trkpt lat="45.19741" lon="5.98877">
        <ele>2472</ele>
        <time>2021-04-17T08:55:01Z</time>
      </trkpt>
      <trkpt lat="45.19742" lon="5.98867">
        <ele>2471</ele>
        <time>2021-04-17T08:55:07Z</time>
      </trkpt>
      <trkpt lat="45.19742" lon="5.98864">
        <ele>2470.8</ele>
        <time>2021-04-17T08:55:08Z</time>
      </trkpt>
      <trkpt lat="45.19741" lon="5.98861">
        <ele>2470.8</ele>
        <time>2021-04-17T08:55:10Z</time>
      </trkpt>
      <trkpt lat="45.19739" lon="5.98855">
        <ele>2471.8</ele>
        <time>2021-04-17T08:55:16Z</time>
      </trkpt>
      <trkpt lat="45.19739" lon="5.98854">
        <ele>2472</ele>
        <time>2021-04-17T08:55:17Z</time>
      </trkpt>
      <trkpt lat="45.19738" lon="5.98851">
        <ele>2472.4</ele>
        <time>2021-04-17T08:55:20Z</time>
      </trkpt>
      <trkpt lat="45.19736" lon="5.98847">
        <ele>2473</ele>
        <time>2021-04-17T08:55:23Z</time>
      </trkpt>
      <trkpt lat="45.19735" lon="5.98839">
        <ele>2474</ele>
        <time>2021-04-17T08:55:29Z</time>
      </trkpt>
      <trkpt lat="45.19734" lon="5.98836">
        <ele>2474.4</ele>
        <time>2021-04-17T08:55:31Z</time>
      </trkpt>
      <trkpt lat="45.19733" lon="5.9883">
        <ele>2474.8</ele>
        <time>2021-04-17T08:55:35Z</time>
      </trkpt>
      <trkpt lat="45.19732" lon="5.98824">
        <ele>2475</ele>
        <time>2021-04-17T08:55:39Z</time>
      </trkpt>
      <trkpt lat="45.19731" lon="5.98823">
        <ele>2475.2</ele>
        <time>2021-04-17T08:55:40Z</time>
      </trkpt>
      <trkpt lat="45.19727" lon="5.98815">
        <ele>2475.4</ele>
        <time>2021-04-17T08:55:46Z</time>
      </trkpt>
      <trkpt lat="45.19724" lon="5.98812">
        <ele>2475.6</ele>
        <time>2021-04-17T08:55:49Z</time>
      </trkpt>
      <trkpt lat="45.1972" lon="5.98808">
        <ele>2475.8</ele>
        <time>2021-04-17T08:55:55Z</time>
      </trkpt>
      <trkpt lat="45.19719" lon="5.98805">
        <ele>2476.2</ele>
        <time>2021-04-17T08:55:57Z</time>
      </trkpt>
      <trkpt lat="45.19717" lon="5.98802">
        <ele>2476.4</ele>
        <time>2021-04-17T08:56:01Z</time>
      </trkpt>
      <trkpt lat="45.19717" lon="5.988">
        <ele>2476.4</ele>
        <time>2021-04-17T08:56:04Z</time>
      </trkpt>
      <trkpt lat="45.19717" lon="5.98799">
        <ele>2476.6</ele>
        <time>2021-04-17T08:56:07Z</time>
      </trkpt>
      <trkpt lat="45.19717" lon="5.98799">
        <ele>2476.6</ele>
        <time>2021-04-17T08:56:09Z</time>
      </trkpt>
      <trkpt lat="45.19717" lon="5.98799">
        <ele>2476.6</ele>
        <time>2021-04-17T08:56:10Z</time>
      </trkpt>
      <trkpt lat="45.19718" lon="5.988">
        <ele>2476.8</ele>
        <time>2021-04-17T08:56:13Z</time>
      </trkpt>
      <trkpt lat="45.19718" lon="5.988">
        <ele>2476.6</ele>
        <time>2021-04-17T08:56:15Z</time>
      </trkpt>
      <trkpt lat="45.19717" lon="5.98801">
        <ele>2477</ele>
        <time>2021-04-17T08:56:18Z</time>
      </trkpt>
      <trkpt lat="45.19717" lon="5.98801">
        <ele>2477</ele>
        <time>2021-04-17T08:56:20Z</time>
      </trkpt>
      <trkpt lat="45.19717" lon="5.98801">
        <ele>2477</ele>
        <time>2021-04-17T08:56:21Z</time>
      </trkpt>
      <trkpt lat="45.19717" lon="5.98801">
        <ele>2476.8</ele>
        <time>2021-04-17T08:56:24Z</time>
      </trkpt>
      <trkpt lat="45.19717" lon="5.98801">
        <ele>2476.6</ele>
        <time>2021-04-17T08:56:30Z</time>
      </trkpt>
      <trkpt lat="45.19718" lon="5.98801">
        <ele>2476.8</ele>
        <time>2021-04-17T08:56:36Z</time>
      </trkpt>
      <trkpt lat="45.19718" lon="5.988">
        <ele>2477.2</ele>
        <time>2021-04-17T08:56:41Z</time>
      </trkpt>
      <trkpt lat="45.19718" lon="5.988">
        <ele>2477.4</ele>
        <time>2021-04-17T08:56:47Z</time>
      </trkpt>
      <trkpt lat="45.19717" lon="5.988">
        <ele>2477.4</ele>
        <time>2021-04-17T08:56:49Z</time>
      </trkpt>
      <trkpt lat="45.19717" lon="5.988">
        <ele>2477.6</ele>
        <time>2021-04-17T08:56:50Z</time>
      </trkpt>
      <trkpt lat="45.19717" lon="5.988">
        <ele>2477.6</ele>
        <time>2021-04-17T08:56:51Z</time>
      </trkpt>
      <trkpt lat="45.19717" lon="5.988">
        <ele>2477.6</ele>
        <time>2021-04-17T08:56:52Z</time>
      </trkpt>
      <trkpt lat="45.19717" lon="5.988">
        <ele>2477.8</ele>
        <time>2021-04-17T08:56:54Z</time>
      </trkpt>
      <trkpt lat="45.19717" lon="5.988">
        <ele>2477.8</ele>
        <time>2021-04-17T08:56:55Z</time>
      </trkpt>
      <trkpt lat="45.19717" lon="5.988">
        <ele>2478.2</ele>
        <time>2021-04-17T08:57:01Z</time>
      </trkpt>
      <trkpt lat="45.19717" lon="5.988">
        <ele>2478.2</ele>
        <time>2021-04-17T08:57:03Z</time>
      </trkpt>
      <trkpt lat="45.19717" lon="5.988">
        <ele>2478.2</ele>
        <time>2021-04-17T08:57:05Z</time>
      </trkpt>
      <trkpt lat="45.19717" lon="5.988">
        <ele>2478.2</ele>
        <time>2021-04-17T08:57:06Z</time>
      </trkpt>
      <trkpt lat="45.19717" lon="5.988">
        <ele>2478</ele>
        <time>2021-04-17T08:57:07Z</time>
      </trkpt>
      <trkpt lat="45.19717" lon="5.988">
        <ele>2478</ele>
        <time>2021-04-17T08:57:08Z</time>
      </trkpt>
      <trkpt lat="45.19717" lon="5.988">
        <ele>2478</ele>
        <time>2021-04-17T08:57:10Z</time>
      </trkpt>
      <trkpt lat="45.19717" lon="5.988">
        <ele>2478</ele>
        <time>2021-04-17T08:57:11Z</time>
      </trkpt>
      <trkpt lat="45.19718" lon="5.988">
        <ele>2478</ele>
        <time>2021-04-17T08:57:15Z</time>
      </trkpt>
      <trkpt lat="45.19718" lon="5.988">
        <ele>2478</ele>
        <time>2021-04-17T08:57:16Z</time>
      </trkpt>
      <trkpt lat="45.19718" lon="5.988">
        <ele>2478</ele>
        <time>2021-04-17T08:57:17Z</time>
      </trkpt>
      <trkpt lat="45.19718" lon="5.988">
        <ele>2478</ele>
        <time>2021-04-17T08:57:18Z</time>
      </trkpt>
      <trkpt lat="45.19718" lon="5.988">
        <ele>2477.8</ele>
        <time>2021-04-17T08:57:20Z</time>
      </trkpt>
      <trkpt lat="45.19718" lon="5.988">
        <ele>2477.8</ele>
        <time>2021-04-17T08:57:22Z</time>
      </trkpt>
      <trkpt lat="45.19719" lon="5.988">
        <ele>2477.8</ele>
        <time>2021-04-17T08:57:24Z</time>
      </trkpt>
      <trkpt lat="45.19719" lon="5.98799">
        <ele>2477.6</ele>
        <time>2021-04-17T08:57:27Z</time>
      </trkpt>
      <trkpt lat="45.19719" lon="5.98799">
        <ele>2477.6</ele>
        <time>2021-04-17T08:57:28Z</time>
      </trkpt>
      <trkpt lat="45.1972" lon="5.98799">
        <ele>2477.6</ele>
        <time>2021-04-17T08:57:32Z</time>
      </trkpt>
      <trkpt lat="45.1972" lon="5.98799">
        <ele>2477.6</ele>
        <time>2021-04-17T08:57:34Z</time>
      </trkpt>
      <trkpt lat="45.1972" lon="5.98799">
        <ele>2477.6</ele>
        <time>2021-04-17T08:57:35Z</time>
      </trkpt>
      <trkpt lat="45.1972" lon="5.98799">
        <ele>2477.6</ele>
        <time>2021-04-17T08:57:36Z</time>
      </trkpt>
      <trkpt lat="45.19721" lon="5.98799">
        <ele>2477.6</ele>
        <time>2021-04-17T08:57:38Z</time>
      </trkpt>
      <trkpt lat="45.19721" lon="5.98798">
        <ele>2477.6</ele>
        <time>2021-04-17T08:57:40Z</time>
      </trkpt>
      <trkpt lat="45.19721" lon="5.98798">
        <ele>2477.4</ele>
        <time>2021-04-17T08:57:44Z</time>
      </trkpt>
      <trkpt lat="45.19721" lon="5.98798">
        <ele>2477.4</ele>
        <time>2021-04-17T08:57:45Z</time>
      </trkpt>
      <trkpt lat="45.19721" lon="5.98798">
        <ele>2477.4</ele>
        <time>2021-04-17T08:57:47Z</time>
      </trkpt>
      <trkpt lat="45.19721" lon="5.98798">
        <ele>2477.2</ele>
        <time>2021-04-17T08:57:52Z</time>
      </trkpt>
      <trkpt lat="45.19721" lon="5.98799">
        <ele>2477.2</ele>
        <time>2021-04-17T08:57:56Z</time>
      </trkpt>
      <trkpt lat="45.19721" lon="5.98799">
        <ele>2477</ele>
        <time>2021-04-17T08:57:57Z</time>
      </trkpt>
      <trkpt lat="45.19721" lon="5.98799">
        <ele>2477.2</ele>
        <time>2021-04-17T08:58:00Z</time>
      </trkpt>
      <trkpt lat="45.19721" lon="5.98799">
        <ele>2477.2</ele>
        <time>2021-04-17T08:58:03Z</time>
      </trkpt>
      <trkpt lat="45.19721" lon="5.98799">
        <ele>2477.4</ele>
        <time>2021-04-17T08:58:05Z</time>
      </trkpt>
      <trkpt lat="45.19721" lon="5.98799">
        <ele>2477.4</ele>
        <time>2021-04-17T08:58:06Z</time>
      </trkpt>
      <trkpt lat="45.19721" lon="5.98799">
        <ele>2477.4</ele>
        <time>2021-04-17T08:58:08Z</time>
      </trkpt>
      <trkpt lat="45.19721" lon="5.98799">
        <ele>2477.6</ele>
        <time>2021-04-17T08:58:09Z</time>
      </trkpt>
      <trkpt lat="45.19721" lon="5.98799">
        <ele>2477.4</ele>
        <time>2021-04-17T08:58:11Z</time>
      </trkpt>
      <trkpt lat="45.19721" lon="5.98799">
        <ele>2477.2</ele>
        <time>2021-04-17T08:58:14Z</time>
      </trkpt>
      <trkpt lat="45.19721" lon="5.988">
        <ele>2477</ele>
        <time>2021-04-17T08:58:15Z</time>
      </trkpt>
      <trkpt lat="45.19721" lon="5.988">
        <ele>2477</ele>
        <time>2021-04-17T08:58:16Z</time>
      </trkpt>
      <trkpt lat="45.19721" lon="5.988">
        <ele>2477</ele>
        <time>2021-04-17T08:58:22Z</time>
      </trkpt>
      <trkpt lat="45.1972" lon="5.988">
        <ele>2477.8</ele>
        <time>2021-04-17T08:58:28Z</time>
      </trkpt>
      <trkpt lat="45.1972" lon="5.988">
        <ele>2478</ele>
        <time>2021-04-17T08:58:30Z</time>
      </trkpt>
      <trkpt lat="45.1972" lon="5.988">
        <ele>2478.2</ele>
        <time>2021-04-17T08:58:32Z</time>
      </trkpt>
      <trkpt lat="45.1972" lon="5.988">
        <ele>2478.4</ele>
        <time>2021-04-17T08:58:33Z</time>
      </trkpt>
      <trkpt lat="45.1972" lon="5.988">
        <ele>2478.4</ele>
        <time>2021-04-17T08:58:34Z</time>
      </trkpt>
      <trkpt lat="45.1972" lon="5.988">
        <ele>2478.6</ele>
        <time>2021-04-17T08:58:35Z</time>
      </trkpt>
      <trkpt lat="45.1972" lon="5.988">
        <ele>2478.6</ele>
        <time>2021-04-17T08:58:36Z</time>
      </trkpt>
      <trkpt lat="45.1972" lon="5.98799">
        <ele>2478.8</ele>
        <time>2021-04-17T08:58:39Z</time>
      </trkpt>
      <trkpt lat="45.1972" lon="5.98799">
        <ele>2479</ele>
        <time>2021-04-17T08:58:42Z</time>
      </trkpt>
      <trkpt lat="45.1972" lon="5.98798">
        <ele>2479.2</ele>
        <time>2021-04-17T08:58:45Z</time>
      </trkpt>
      <trkpt lat="45.1972" lon="5.98798">
        <ele>2478.6</ele>
        <time>2021-04-17T08:58:51Z</time>
      </trkpt>
      <trkpt lat="45.1972" lon="5.98798">
        <ele>2478.2</ele>
        <time>2021-04-17T08:58:53Z</time>
      </trkpt>
      <trkpt lat="45.1972" lon="5.98798">
        <ele>2478.2</ele>
        <time>2021-04-17T08:58:54Z</time>
      </trkpt>
      <trkpt lat="45.1972" lon="5.98798">
        <ele>2478.4</ele>
        <time>2021-04-17T08:58:56Z</time>
      </trkpt>
      <trkpt lat="45.1972" lon="5.98798">
        <ele>2478.4</ele>
        <time>2021-04-17T08:59:00Z</time>
      </trkpt>
      <trkpt lat="45.1972" lon="5.98798">
        <ele>2478.6</ele>
        <time>2021-04-17T08:59:04Z</time>
      </trkpt>
      <trkpt lat="45.1972" lon="5.98798">
        <ele>2478.6</ele>
        <time>2021-04-17T08:59:09Z</time>
      </trkpt>
      <trkpt lat="45.1972" lon="5.98798">
        <ele>2478.2</ele>
        <time>2021-04-17T08:59:11Z</time>
      </trkpt>
      <trkpt lat="45.1972" lon="5.98798">
        <ele>2478</ele>
        <time>2021-04-17T08:59:12Z</time>
      </trkpt>
      <trkpt lat="45.1972" lon="5.98798">
        <ele>2478</ele>
        <time>2021-04-17T08:59:14Z</time>
      </trkpt>
      <trkpt lat="45.19721" lon="5.98798">
        <ele>2478.4</ele>
        <time>2021-04-17T08:59:16Z</time>
      </trkpt>
      <trkpt lat="45.19721" lon="5.98798">
        <ele>2478.8</ele>
        <time>2021-04-17T08:59:18Z</time>
      </trkpt>
      <trkpt lat="45.19721" lon="5.98798">
        <ele>2479</ele>
        <time>2021-04-17T08:59:19Z</time>
      </trkpt>
      <trkpt lat="45.19721" lon="5.98798">
        <ele>2479</ele>
        <time>2021-04-17T08:59:20Z</time>
      </trkpt>
      <trkpt lat="45.19721" lon="5.98798">
        <ele>2479</ele>
        <time>2021-04-17T08:59:21Z</time>
      </trkpt>
      <trkpt lat="45.19721" lon="5.98798">
        <ele>2479</ele>
        <time>2021-04-17T08:59:22Z</time>
      </trkpt>
      <trkpt lat="45.19721" lon="5.98798">
        <ele>2479</ele>
        <time>2021-04-17T08:59:25Z</time>
      </trkpt>
      <trkpt lat="45.19721" lon="5.98798">
        <ele>2479</ele>
        <time>2021-04-17T08:59:26Z</time>
      </trkpt>
      <trkpt lat="45.19721" lon="5.98798">
        <ele>2479.2</ele>
        <time>2021-04-17T08:59:29Z</time>
      </trkpt>
      <trkpt lat="45.19721" lon="5.98798">
        <ele>2479</ele>
        <time>2021-04-17T08:59:31Z</time>
      </trkpt>
      <trkpt lat="45.19721" lon="5.98798">
        <ele>2478.8</ele>
        <time>2021-04-17T08:59:32Z</time>
      </trkpt>
      <trkpt lat="45.19721" lon="5.98798">
        <ele>2478.6</ele>
        <time>2021-04-17T08:59:35Z</time>
      </trkpt>
      <trkpt lat="45.19721" lon="5.98798">
        <ele>2478.6</ele>
        <time>2021-04-17T08:59:36Z</time>
      </trkpt>
      <trkpt lat="45.19721" lon="5.98798">
        <ele>2478.6</ele>
        <time>2021-04-17T08:59:38Z</time>
      </trkpt>
      <trkpt lat="45.19721" lon="5.98798">
        <ele>2478.8</ele>
        <time>2021-04-17T08:59:40Z</time>
      </trkpt>
      <trkpt lat="45.19721" lon="5.98798">
        <ele>2478.8</ele>
        <time>2021-04-17T08:59:42Z</time>
      </trkpt>
      <trkpt lat="45.19721" lon="5.98798">
        <ele>2478.8</ele>
        <time>2021-04-17T08:59:48Z</time>
      </trkpt>
      <trkpt lat="45.19721" lon="5.98798">
        <ele>2478.8</ele>
        <time>2021-04-17T08:59:49Z</time>
      </trkpt>
      <trkpt lat="45.19721" lon="5.98798">
        <ele>2478.6</ele>
        <time>2021-04-17T08:59:52Z</time>
      </trkpt>
      <trkpt lat="45.19721" lon="5.98798">
        <ele>2478.4</ele>
        <time>2021-04-17T08:59:55Z</time>
      </trkpt>
      <trkpt lat="45.19721" lon="5.98798">
        <ele>2478.4</ele>
        <time>2021-04-17T08:59:58Z</time>
      </trkpt>
      <trkpt lat="45.19721" lon="5.98798">
        <ele>2479</ele>
        <time>2021-04-17T09:00:00Z</time>
      </trkpt>
      <trkpt lat="45.19721" lon="5.98798">
        <ele>2478.8</ele>
        <time>2021-04-17T09:00:06Z</time>
      </trkpt>
      <trkpt lat="45.19721" lon="5.98798">
        <ele>2478.4</ele>
        <time>2021-04-17T09:00:11Z</time>
      </trkpt>
      <trkpt lat="45.19721" lon="5.98798">
        <ele>2478</ele>
        <time>2021-04-17T09:00:13Z</time>
      </trkpt>
      <trkpt lat="45.19721" lon="5.98798">
        <ele>2478</ele>
        <time>2021-04-17T09:00:14Z</time>
      </trkpt>
      <trkpt lat="45.19721" lon="5.98798">
        <ele>2478</ele>
        <time>2021-04-17T09:00:16Z</time>
      </trkpt>
      <trkpt lat="45.19721" lon="5.98798">
        <ele>2478.4</ele>
        <time>2021-04-17T09:00:22Z</time>
      </trkpt>
      <trkpt lat="45.19721" lon="5.98799">
        <ele>2478.4</ele>
        <time>2021-04-17T09:00:24Z</time>
      </trkpt>
      <trkpt lat="45.19721" lon="5.98799">
        <ele>2478.6</ele>
        <time>2021-04-17T09:00:27Z</time>
      </trkpt>
      <trkpt lat="45.19721" lon="5.98799">
        <ele>2478.8</ele>
        <time>2021-04-17T09:00:32Z</time>
      </trkpt>
      <trkpt lat="45.19721" lon="5.98799">
        <ele>2478.8</ele>
        <time>2021-04-17T09:00:34Z</time>
      </trkpt>
      <trkpt lat="45.19721" lon="5.98799">
        <ele>2478.8</ele>
        <time>2021-04-17T09:00:35Z</time>
      </trkpt>
      <trkpt lat="45.19721" lon="5.98799">
        <ele>2479</ele>
        <time>2021-04-17T09:00:37Z</time>
      </trkpt>
      <trkpt lat="45.19721" lon="5.98799">
        <ele>2479</ele>
        <time>2021-04-17T09:00:38Z</time>
      </trkpt>
      <trkpt lat="45.19721" lon="5.98799">
        <ele>2479.2</ele>
        <time>2021-04-17T09:00:42Z</time>
      </trkpt>
      <trkpt lat="45.19721" lon="5.98799">
        <ele>2479.2</ele>
        <time>2021-04-17T09:00:43Z</time>
      </trkpt>
      <trkpt lat="45.19721" lon="5.98799">
        <ele>2479.2</ele>
        <time>2021-04-17T09:00:44Z</time>
      </trkpt>
      <trkpt lat="45.19721" lon="5.98799">
        <ele>2479.4</ele>
        <time>2021-04-17T09:00:45Z</time>
      </trkpt>
      <trkpt lat="45.19721" lon="5.98799">
        <ele>2479.8</ele>
        <time>2021-04-17T09:00:46Z</time>
      </trkpt>
      <trkpt lat="45.19721" lon="5.98799">
        <ele>2480.2</ele>
        <time>2021-04-17T09:00:48Z</time>
      </trkpt>
      <trkpt lat="45.19721" lon="5.98799">
        <ele>2480.2</ele>
        <time>2021-04-17T09:00:51Z</time>
      </trkpt>
      <trkpt lat="45.19721" lon="5.98799">
        <ele>2480</ele>
        <time>2021-04-17T09:00:54Z</time>
      </trkpt>
      <trkpt lat="45.19721" lon="5.98799">
        <ele>2479.8</ele>
        <time>2021-04-17T09:00:56Z</time>
      </trkpt>
      <trkpt lat="45.19721" lon="5.98799">
        <ele>2479.8</ele>
        <time>2021-04-17T09:00:57Z</time>
      </trkpt>
      <trkpt lat="45.19721" lon="5.98799">
        <ele>2480.2</ele>
        <time>2021-04-17T09:00:59Z</time>
      </trkpt>
      <trkpt lat="45.19721" lon="5.98799">
        <ele>2480.4</ele>
        <time>2021-04-17T09:01:02Z</time>
      </trkpt>
      <trkpt lat="45.19721" lon="5.98799">
        <ele>2480.2</ele>
        <time>2021-04-17T09:01:06Z</time>
      </trkpt>
      <trkpt lat="45.19721" lon="5.98799">
        <ele>2480</ele>
        <time>2021-04-17T09:01:07Z</time>
      </trkpt>
      <trkpt lat="45.19721" lon="5.98799">
        <ele>2480</ele>
        <time>2021-04-17T09:01:08Z</time>
      </trkpt>
      <trkpt lat="45.19721" lon="5.98799">
        <ele>2479.4</ele>
        <time>2021-04-17T09:01:12Z</time>
      </trkpt>
      <trkpt lat="45.19721" lon="5.98799">
        <ele>2480.2</ele>
        <time>2021-04-17T09:01:17Z</time>
      </trkpt>
      <trkpt lat="45.19721" lon="5.98799">
        <ele>2480.2</ele>
        <time>2021-04-17T09:01:20Z</time>
      </trkpt>
      <trkpt lat="45.19721" lon="5.98799">
        <ele>2479.8</ele>
        <time>2021-04-17T09:01:25Z</time>
      </trkpt>
      <trkpt lat="45.19721" lon="5.98799">
        <ele>2480.2</ele>
        <time>2021-04-17T09:01:26Z</time>
      </trkpt>
      <trkpt lat="45.19721" lon="5.98799">
        <ele>2480.4</ele>
        <time>2021-04-17T09:01:27Z</time>
      </trkpt>
      <trkpt lat="45.19721" lon="5.98799">
        <ele>2480.8</ele>
        <time>2021-04-17T09:01:28Z</time>
      </trkpt>
      <trkpt lat="45.19724" lon="5.98804">
        <ele>2481</ele>
        <time>2021-04-17T09:01:32Z</time>
      </trkpt>
      <trkpt lat="45.19728" lon="5.9881">
        <ele>2480.4</ele>
        <time>2021-04-17T09:01:36Z</time>
      </trkpt>
      <trkpt lat="45.19728" lon="5.98811">
        <ele>2480.2</ele>
        <time>2021-04-17T09:01:37Z</time>
      </trkpt>
      <trkpt lat="45.19728" lon="5.98811">
        <ele>2480.2</ele>
        <time>2021-04-17T09:01:38Z</time>
      </trkpt>
      <trkpt lat="45.19728" lon="5.98811">
        <ele>2480.2</ele>
        <time>2021-04-17T09:01:40Z</time>
      </trkpt>
      <trkpt lat="45.19729" lon="5.98811">
        <ele>2480.4</ele>
        <time>2021-04-17T09:01:42Z</time>
      </trkpt>
      <trkpt lat="45.19729" lon="5.98811">
        <ele>2480.4</ele>
        <time>2021-04-17T09:01:46Z</time>
      </trkpt>
      <trkpt lat="45.19729" lon="5.98811">
        <ele>2480.8</ele>
        <time>2021-04-17T09:01:49Z</time>
      </trkpt>
      <trkpt lat="45.19729" lon="5.98811">
        <ele>2481</ele>
        <time>2021-04-17T09:01:55Z</time>
      </trkpt>
      <trkpt lat="45.19729" lon="5.98811">
        <ele>2481</ele>
        <time>2021-04-17T09:01:56Z</time>
      </trkpt>
      <trkpt lat="45.19729" lon="5.98811">
        <ele>2481</ele>
        <time>2021-04-17T09:01:58Z</time>
      </trkpt>
      <trkpt lat="45.19729" lon="5.98811">
        <ele>2480.6</ele>
        <time>2021-04-17T09:02:04Z</time>
      </trkpt>
      <trkpt lat="45.19729" lon="5.98811">
        <ele>2480.6</ele>
        <time>2021-04-17T09:02:05Z</time>
      </trkpt>
      <trkpt lat="45.19729" lon="5.98811">
        <ele>2480.6</ele>
        <time>2021-04-17T09:02:07Z</time>
      </trkpt>
      <trkpt lat="45.19728" lon="5.98811">
        <ele>2481</ele>
        <time>2021-04-17T09:02:08Z</time>
      </trkpt>
      <trkpt lat="45.19728" lon="5.98811">
        <ele>2481.4</ele>
        <time>2021-04-17T09:02:10Z</time>
      </trkpt>
      <trkpt lat="45.19728" lon="5.98811">
        <ele>2481.6</ele>
        <time>2021-04-17T09:02:11Z</time>
      </trkpt>
      <trkpt lat="45.19728" lon="5.98811">
        <ele>2481.8</ele>
        <time>2021-04-17T09:02:12Z</time>
      </trkpt>
      <trkpt lat="45.19728" lon="5.98811">
        <ele>2482</ele>
        <time>2021-04-17T09:02:14Z</time>
      </trkpt>
      <trkpt lat="45.19728" lon="5.98811">
        <ele>2481.8</ele>
        <time>2021-04-17T09:02:16Z</time>
      </trkpt>
      <trkpt lat="45.19728" lon="5.98811">
        <ele>2481.8</ele>
        <time>2021-04-17T09:02:17Z</time>
      </trkpt>
      <trkpt lat="45.19728" lon="5.98811">
        <ele>2481.8</ele>
        <time>2021-04-17T09:02:18Z</time>
      </trkpt>
      <trkpt lat="45.19728" lon="5.98811">
        <ele>2481.6</ele>
        <time>2021-04-17T09:02:19Z</time>
      </trkpt>
      <trkpt lat="45.1973" lon="5.98815">
        <ele>2481</ele>
        <time>2021-04-17T09:02:21Z</time>
      </trkpt>
      <trkpt lat="45.19731" lon="5.98817">
        <ele>2480.8</ele>
        <time>2021-04-17T09:02:22Z</time>
      </trkpt>
      <trkpt lat="45.19731" lon="5.98819">
        <ele>2480.4</ele>
        <time>2021-04-17T09:02:23Z</time>
      </trkpt>
      <trkpt lat="45.19732" lon="5.98821">
        <ele>2480</ele>
        <time>2021-04-17T09:02:24Z</time>
      </trkpt>
      <trkpt lat="45.19734" lon="5.98824">
        <ele>2479.4</ele>
        <time>2021-04-17T09:02:26Z</time>
      </trkpt>
      <trkpt lat="45.19734" lon="5.98825">
        <ele>2479.4</ele>
        <time>2021-04-17T09:02:27Z</time>
      </trkpt>
      <trkpt lat="45.19734" lon="5.98825">
        <ele>2479.4</ele>
        <time>2021-04-17T09:02:28Z</time>
      </trkpt>
      <trkpt lat="45.19734" lon="5.98825">
        <ele>2479.6</ele>
        <time>2021-04-17T09:02:29Z</time>
      </trkpt>
      <trkpt lat="45.19734" lon="5.98825">
        <ele>2480.2</ele>
        <time>2021-04-17T09:02:31Z</time>
      </trkpt>
      <trkpt lat="45.19735" lon="5.98825">
        <ele>2480.6</ele>
        <time>2021-04-17T09:02:34Z</time>
      </trkpt>
      <trkpt lat="45.19735" lon="5.98825">
        <ele>2480.6</ele>
        <time>2021-04-17T09:02:35Z</time>
      </trkpt>
      <trkpt lat="45.19735" lon="5.98826">
        <ele>2480.6</ele>
        <time>2021-04-17T09:02:38Z</time>
      </trkpt>
      <trkpt lat="45.19735" lon="5.98826">
        <ele>2480.6</ele>
        <time>2021-04-17T09:02:39Z</time>
      </trkpt>
      <trkpt lat="45.19735" lon="5.98826">
        <ele>2480.6</ele>
        <time>2021-04-17T09:02:41Z</time>
      </trkpt>
      <trkpt lat="45.19735" lon="5.98826">
        <ele>2480.6</ele>
        <time>2021-04-17T09:02:43Z</time>
      </trkpt>
      <trkpt lat="45.19735" lon="5.98826">
        <ele>2480.6</ele>
        <time>2021-04-17T09:02:44Z</time>
      </trkpt>
      <trkpt lat="45.19735" lon="5.98826">
        <ele>2480.6</ele>
        <time>2021-04-17T09:02:45Z</time>
      </trkpt>
      <trkpt lat="45.19735" lon="5.98826">
        <ele>2480.6</ele>
        <time>2021-04-17T09:02:47Z</time>
      </trkpt>
      <trkpt lat="45.19735" lon="5.98826">
        <ele>2480.8</ele>
        <time>2021-04-17T09:02:48Z</time>
      </trkpt>
      <trkpt lat="45.19735" lon="5.98826">
        <ele>2480.8</ele>
        <time>2021-04-17T09:02:49Z</time>
      </trkpt>
      <trkpt lat="45.19735" lon="5.98826">
        <ele>2481</ele>
        <time>2021-04-17T09:02:51Z</time>
      </trkpt>
      <trkpt lat="45.19735" lon="5.98826">
        <ele>2481.2</ele>
        <time>2021-04-17T09:02:52Z</time>
      </trkpt>
      <trkpt lat="45.19735" lon="5.98826">
        <ele>2481.2</ele>
        <time>2021-04-17T09:02:53Z</time>
      </trkpt>
      <trkpt lat="45.19735" lon="5.98826">
        <ele>2481.4</ele>
        <time>2021-04-17T09:02:55Z</time>
      </trkpt>
      <trkpt lat="45.19735" lon="5.98826">
        <ele>2481.4</ele>
        <time>2021-04-17T09:02:57Z</time>
      </trkpt>
      <trkpt lat="45.19735" lon="5.98826">
        <ele>2481.4</ele>
        <time>2021-04-17T09:03:00Z</time>
      </trkpt>
      <trkpt lat="45.19735" lon="5.98826">
        <ele>2481</ele>
        <time>2021-04-17T09:03:04Z</time>
      </trkpt>
      <trkpt lat="45.19735" lon="5.98826">
        <ele>2481.6</ele>
        <time>2021-04-17T09:03:10Z</time>
      </trkpt>
      <trkpt lat="45.19739" lon="5.98833">
        <ele>2480.8</ele>
        <time>2021-04-17T09:03:15Z</time>
      </trkpt>
      <trkpt lat="45.19739" lon="5.98836">
        <ele>2480.6</ele>
        <time>2021-04-17T09:03:16Z</time>
      </trkpt>
      <trkpt lat="45.1974" lon="5.98839">
        <ele>2480.4</ele>
        <time>2021-04-17T09:03:17Z</time>
      </trkpt>
      <trkpt lat="45.19742" lon="5.98845">
        <ele>2479.8</ele>
        <time>2021-04-17T09:03:19Z</time>
      </trkpt>
      <trkpt lat="45.19743" lon="5.98848">
        <ele>2479.4</ele>
        <time>2021-04-17T09:03:20Z</time>
      </trkpt>
      <trkpt lat="45.19747" lon="5.98858">
        <ele>2478.8</ele>
        <time>2021-04-17T09:03:24Z</time>
      </trkpt>
      <trkpt lat="45.19747" lon="5.98861">
        <ele>2478.6</ele>
        <time>2021-04-17T09:03:25Z</time>
      </trkpt>
      <trkpt lat="45.19748" lon="5.98864">
        <ele>2478.2</ele>
        <time>2021-04-17T09:03:26Z</time>
      </trkpt>
      <trkpt lat="45.19748" lon="5.98869">
        <ele>2477.4</ele>
        <time>2021-04-17T09:03:28Z</time>
      </trkpt>
      <trkpt lat="45.19749" lon="5.98873">
        <ele>2477</ele>
        <time>2021-04-17T09:03:30Z</time>
      </trkpt>
      <trkpt lat="45.19749" lon="5.98878">
        <ele>2477</ele>
        <time>2021-04-17T09:03:33Z</time>
      </trkpt>
      <trkpt lat="45.19749" lon="5.98879">
        <ele>2477.2</ele>
        <time>2021-04-17T09:03:34Z</time>
      </trkpt>
      <trkpt lat="45.19749" lon="5.98882">
        <ele>2477.6</ele>
        <time>2021-04-17T09:03:36Z</time>
      </trkpt>
      <trkpt lat="45.19749" lon="5.98887">
        <ele>2477.8</ele>
        <time>2021-04-17T09:03:39Z</time>
      </trkpt>
      <trkpt lat="45.19749" lon="5.98894">
        <ele>2477.8</ele>
        <time>2021-04-17T09:03:43Z</time>
      </trkpt>
      <trkpt lat="45.19748" lon="5.98903">
        <ele>2477.8</ele>
        <time>2021-04-17T09:03:48Z</time>
      </trkpt>
      <trkpt lat="45.19747" lon="5.98908">
        <ele>2478</ele>
        <time>2021-04-17T09:03:51Z</time>
      </trkpt>
      <trkpt lat="45.19746" lon="5.98911">
        <ele>2477.8</ele>
        <time>2021-04-17T09:03:53Z</time>
      </trkpt>
      <trkpt lat="45.19746" lon="5.98915">
        <ele>2477.8</ele>
        <time>2021-04-17T09:03:55Z</time>
      </trkpt>
      <trkpt lat="45.19745" lon="5.98925">
        <ele>2477.8</ele>
        <time>2021-04-17T09:04:01Z</time>
      </trkpt>
      <trkpt lat="45.19744" lon="5.9893">
        <ele>2477.8</ele>
        <time>2021-04-17T09:04:04Z</time>
      </trkpt>
      <trkpt lat="45.19743" lon="5.98936">
        <ele>2477.8</ele>
        <time>2021-04-17T09:04:08Z</time>
      </trkpt>
      <trkpt lat="45.19741" lon="5.98945">
        <ele>2477.8</ele>
        <time>2021-04-17T09:04:14Z</time>
      </trkpt>
      <trkpt lat="45.19741" lon="5.98947">
        <ele>2478.2</ele>
        <time>2021-04-17T09:04:16Z</time>
      </trkpt>
      <trkpt lat="45.1974" lon="5.98954">
        <ele>2479</ele>
        <time>2021-04-17T09:04:21Z</time>
      </trkpt>
      <trkpt lat="45.1974" lon="5.98955">
        <ele>2479</ele>
        <time>2021-04-17T09:04:22Z</time>
      </trkpt>
      <trkpt lat="45.1974" lon="5.98956">
        <ele>2479.2</ele>
        <time>2021-04-17T09:04:23Z</time>
      </trkpt>
      <trkpt lat="45.1974" lon="5.98957">
        <ele>2479.2</ele>
        <time>2021-04-17T09:04:24Z</time>
      </trkpt>
      <trkpt lat="45.19739" lon="5.98958">
        <ele>2479.4</ele>
        <time>2021-04-17T09:04:25Z</time>
      </trkpt>
      <trkpt lat="45.19738" lon="5.98962">
        <ele>2479.6</ele>
        <time>2021-04-17T09:04:28Z</time>
      </trkpt>
      <trkpt lat="45.19738" lon="5.9897">
        <ele>2480.2</ele>
        <time>2021-04-17T09:04:34Z</time>
      </trkpt>
      <trkpt lat="45.19738" lon="5.98972">
        <ele>2480.2</ele>
        <time>2021-04-17T09:04:36Z</time>
      </trkpt>
      <trkpt lat="45.19738" lon="5.98975">
        <ele>2480.2</ele>
        <time>2021-04-17T09:04:38Z</time>
      </trkpt>
      <trkpt lat="45.19738" lon="5.98976">
        <ele>2480.4</ele>
        <time>2021-04-17T09:04:40Z</time>
      </trkpt>
      <trkpt lat="45.19738" lon="5.98976">
        <ele>2480.8</ele>
        <time>2021-04-17T09:04:42Z</time>
      </trkpt>
      <trkpt lat="45.1974" lon="5.98975">
        <ele>2480.4</ele>
        <time>2021-04-17T09:04:48Z</time>
      </trkpt>
      <trkpt lat="45.1974" lon="5.98975">
        <ele>2480.4</ele>
        <time>2021-04-17T09:04:53Z</time>
      </trkpt>
      <trkpt lat="45.1974" lon="5.98975">
        <ele>2480.4</ele>
        <time>2021-04-17T09:04:55Z</time>
      </trkpt>
      <trkpt lat="45.1974" lon="5.98975">
        <ele>2480.4</ele>
        <time>2021-04-17T09:04:56Z</time>
      </trkpt>
      <trkpt lat="45.1974" lon="5.98975">
        <ele>2480.4</ele>
        <time>2021-04-17T09:04:58Z</time>
      </trkpt>
      <trkpt lat="45.1974" lon="5.98975">
        <ele>2480.4</ele>
        <time>2021-04-17T09:04:59Z</time>
      </trkpt>
      <trkpt lat="45.1974" lon="5.98975">
        <ele>2480.4</ele>
        <time>2021-04-17T09:05:01Z</time>
      </trkpt>
      <trkpt lat="45.1974" lon="5.98975">
        <ele>2480.4</ele>
        <time>2021-04-17T09:05:04Z</time>
      </trkpt>
      <trkpt lat="45.1974" lon="5.98975">
        <ele>2480.4</ele>
        <time>2021-04-17T09:05:05Z</time>
      </trkpt>
      <trkpt lat="45.1974" lon="5.98974">
        <ele>2480.4</ele>
        <time>2021-04-17T09:05:06Z</time>
      </trkpt>
      <trkpt lat="45.1974" lon="5.98974">
        <ele>2480.4</ele>
        <time>2021-04-17T09:05:07Z</time>
      </trkpt>
      <trkpt lat="45.1974" lon="5.98974">
        <ele>2480.4</ele>
        <time>2021-04-17T09:05:13Z</time>
      </trkpt>
      <trkpt lat="45.1974" lon="5.98977">
        <ele>2480.4</ele>
        <time>2021-04-17T09:05:15Z</time>
      </trkpt>
      <trkpt lat="45.1974" lon="5.98979">
        <ele>2480.4</ele>
        <time>2021-04-17T09:05:16Z</time>
      </trkpt>
      <trkpt lat="45.19739" lon="5.98981">
        <ele>2480.4</ele>
        <time>2021-04-17T09:05:17Z</time>
      </trkpt>
      <trkpt lat="45.19739" lon="5.98982">
        <ele>2480.4</ele>
        <time>2021-04-17T09:05:18Z</time>
      </trkpt>
      <trkpt lat="45.19739" lon="5.98984">
        <ele>2480.4</ele>
        <time>2021-04-17T09:05:19Z</time>
      </trkpt>
      <trkpt lat="45.19738" lon="5.98989">
        <ele>2480.4</ele>
        <time>2021-04-17T09:05:24Z</time>
      </trkpt>
      <trkpt lat="45.19738" lon="5.9899">
        <ele>2480.4</ele>
        <time>2021-04-17T09:05:25Z</time>
      </trkpt>
      <trkpt lat="45.19738" lon="5.98993">
        <ele>2480.4</ele>
        <time>2021-04-17T09:05:27Z</time>
      </trkpt>
      <trkpt lat="45.19737" lon="5.98994">
        <ele>2480.4</ele>
        <time>2021-04-17T09:05:28Z</time>
      </trkpt>
      <trkpt lat="45.19737" lon="5.98995">
        <ele>2480.4</ele>
        <time>2021-04-17T09:05:30Z</time>
      </trkpt>
      <trkpt lat="45.19736" lon="5.98995">
        <ele>2480.4</ele>
        <time>2021-04-17T09:05:31Z</time>
      </trkpt>
      <trkpt lat="45.19736" lon="5.98996">
        <ele>2480.4</ele>
        <time>2021-04-17T09:05:32Z</time>
      </trkpt>
      <trkpt lat="45.19736" lon="5.98999">
        <ele>2480.2</ele>
        <time>2021-04-17T09:05:34Z</time>
      </trkpt>
      <trkpt lat="45.19735" lon="5.99004">
        <ele>2480.2</ele>
        <time>2021-04-17T09:05:39Z</time>
      </trkpt>
      <trkpt lat="45.19735" lon="5.99005">
        <ele>2480.2</ele>
        <time>2021-04-17T09:05:40Z</time>
      </trkpt>
      <trkpt lat="45.19734" lon="5.99013">
        <ele>2480.6</ele>
        <time>2021-04-17T09:05:46Z</time>
      </trkpt>
      <trkpt lat="45.19734" lon="5.99013">
        <ele>2480.8</ele>
        <time>2021-04-17T09:05:47Z</time>
      </trkpt>
      <trkpt lat="45.19733" lon="5.99017">
        <ele>2481.2</ele>
        <time>2021-04-17T09:05:51Z</time>
      </trkpt>
      <trkpt lat="45.19733" lon="5.99018">
        <ele>2481.4</ele>
        <time>2021-04-17T09:05:52Z</time>
      </trkpt>
      <trkpt lat="45.19733" lon="5.9902">
        <ele>2481.4</ele>
        <time>2021-04-17T09:05:54Z</time>
      </trkpt>
      <trkpt lat="45.19733" lon="5.99025">
        <ele>2481.6</ele>
        <time>2021-04-17T09:06:00Z</time>
      </trkpt>
      <trkpt lat="45.19734" lon="5.99027">
        <ele>2481.6</ele>
        <time>2021-04-17T09:06:02Z</time>
      </trkpt>
      <trkpt lat="45.19733" lon="5.9903">
        <ele>2481.6</ele>
        <time>2021-04-17T09:06:04Z</time>
      </trkpt>
      <trkpt lat="45.19734" lon="5.99036">
        <ele>2481.4</ele>
        <time>2021-04-17T09:06:10Z</time>
      </trkpt>
      <trkpt lat="45.19733" lon="5.99041">
        <ele>2481.8</ele>
        <time>2021-04-17T09:06:16Z</time>
      </trkpt>
      <trkpt lat="45.19733" lon="5.99042">
        <ele>2481.8</ele>
        <time>2021-04-17T09:06:17Z</time>
      </trkpt>
      <trkpt lat="45.19732" lon="5.99047">
        <ele>2482.4</ele>
        <time>2021-04-17T09:06:23Z</time>
      </trkpt>
      <trkpt lat="45.19732" lon="5.99049">
        <ele>2482.4</ele>
        <time>2021-04-17T09:06:25Z</time>
      </trkpt>
      <trkpt lat="45.19729" lon="5.99056">
        <ele>2481.8</ele>
        <time>2021-04-17T09:06:31Z</time>
      </trkpt>
      <trkpt lat="45.19729" lon="5.99059">
        <ele>2481.8</ele>
        <time>2021-04-17T09:06:33Z</time>
      </trkpt>
      <trkpt lat="45.19729" lon="5.99064">
        <ele>2482.2</ele>
        <time>2021-04-17T09:06:39Z</time>
      </trkpt>
      <trkpt lat="45.19727" lon="5.99069">
        <ele>2483.2</ele>
        <time>2021-04-17T09:06:45Z</time>
      </trkpt>
      <trkpt lat="45.19727" lon="5.9907">
        <ele>2483.2</ele>
        <time>2021-04-17T09:06:46Z</time>
      </trkpt>
      <trkpt lat="45.19727" lon="5.99072">
        <ele>2483.4</ele>
        <time>2021-04-17T09:06:48Z</time>
      </trkpt>
      <trkpt lat="45.19728" lon="5.99077">
        <ele>2483.8</ele>
        <time>2021-04-17T09:06:54Z</time>
      </trkpt>
      <trkpt lat="45.19728" lon="5.99078">
        <ele>2484</ele>
        <time>2021-04-17T09:06:55Z</time>
      </trkpt>
      <trkpt lat="45.19729" lon="5.99079">
        <ele>2484.6</ele>
        <time>2021-04-17T09:06:57Z</time>
      </trkpt>
      <trkpt lat="45.19728" lon="5.99082">
        <ele>2485.6</ele>
        <time>2021-04-17T09:07:01Z</time>
      </trkpt>
      <trkpt lat="45.19729" lon="5.99087">
        <ele>2486.8</ele>
        <time>2021-04-17T09:07:05Z</time>
      </trkpt>
      <trkpt lat="45.19729" lon="5.99088">
        <ele>2487.4</ele>
        <time>2021-04-17T09:07:07Z</time>
      </trkpt>
      <trkpt lat="45.1973" lon="5.99091">
        <ele>2487.8</ele>
        <time>2021-04-17T09:07:11Z</time>
      </trkpt>
      <trkpt lat="45.1973" lon="5.99097">
        <ele>2489.2</ele>
        <time>2021-04-17T09:07:16Z</time>
      </trkpt>
      <trkpt lat="45.1973" lon="5.99099">
        <ele>2490</ele>
        <time>2021-04-17T09:07:19Z</time>
      </trkpt>
      <trkpt lat="45.1973" lon="5.99104">
        <ele>2490</ele>
        <time>2021-04-17T09:07:25Z</time>
      </trkpt>
      <trkpt lat="45.19729" lon="5.99106">
        <ele>2490</ele>
        <time>2021-04-17T09:07:28Z</time>
      </trkpt>
      <trkpt lat="45.19728" lon="5.99109">
        <ele>2490.2</ele>
        <time>2021-04-17T09:07:31Z</time>
      </trkpt>
      <trkpt lat="45.19728" lon="5.99113">
        <ele>2491.2</ele>
        <time>2021-04-17T09:07:35Z</time>
      </trkpt>
      <trkpt lat="45.19729" lon="5.99114">
        <ele>2491.4</ele>
        <time>2021-04-17T09:07:36Z</time>
      </trkpt>
      <trkpt lat="45.19729" lon="5.99115">
        <ele>2491.6</ele>
        <time>2021-04-17T09:07:37Z</time>
      </trkpt>
      <trkpt lat="45.19729" lon="5.99121">
        <ele>2492</ele>
        <time>2021-04-17T09:07:43Z</time>
      </trkpt>
      <trkpt lat="45.19729" lon="5.99124">
        <ele>2492.6</ele>
        <time>2021-04-17T09:07:46Z</time>
      </trkpt>
      <trkpt lat="45.19729" lon="5.9913">
        <ele>2493.6</ele>
        <time>2021-04-17T09:07:52Z</time>
      </trkpt>
      <trkpt lat="45.19728" lon="5.99132">
        <ele>2493.8</ele>
        <time>2021-04-17T09:07:54Z</time>
      </trkpt>
      <trkpt lat="45.19726" lon="5.99138">
        <ele>2494.8</ele>
        <time>2021-04-17T09:07:59Z</time>
      </trkpt>
      <trkpt lat="45.19724" lon="5.99141">
        <ele>2495.8</ele>
        <time>2021-04-17T09:08:02Z</time>
      </trkpt>
      <trkpt lat="45.19724" lon="5.99141">
        <ele>2495.8</ele>
        <time>2021-04-17T09:08:03Z</time>
      </trkpt>
      <trkpt lat="45.19724" lon="5.99142">
        <ele>2495.8</ele>
        <time>2021-04-17T09:08:04Z</time>
      </trkpt>
      <trkpt lat="45.19724" lon="5.99147">
        <ele>2497</ele>
        <time>2021-04-17T09:08:09Z</time>
      </trkpt>
      <trkpt lat="45.19725" lon="5.99151">
        <ele>2497.4</ele>
        <time>2021-04-17T09:08:13Z</time>
      </trkpt>
      <trkpt lat="45.19725" lon="5.99153">
        <ele>2497.8</ele>
        <time>2021-04-17T09:08:15Z</time>
      </trkpt>
      <trkpt lat="45.19725" lon="5.99154">
        <ele>2498.4</ele>
        <time>2021-04-17T09:08:16Z</time>
      </trkpt>
      <trkpt lat="45.19725" lon="5.99157">
        <ele>2499.2</ele>
        <time>2021-04-17T09:08:20Z</time>
      </trkpt>
      <trkpt lat="45.19725" lon="5.99158">
        <ele>2499.4</ele>
        <time>2021-04-17T09:08:21Z</time>
      </trkpt>
      <trkpt lat="45.19726" lon="5.99162">
        <ele>2500.4</ele>
        <time>2021-04-17T09:08:27Z</time>
      </trkpt>
      <trkpt lat="45.19727" lon="5.99168">
        <ele>2501</ele>
        <time>2021-04-17T09:08:33Z</time>
      </trkpt>
      <trkpt lat="45.19727" lon="5.99172">
        <ele>2501.6</ele>
        <time>2021-04-17T09:08:37Z</time>
      </trkpt>
      <trkpt lat="45.19727" lon="5.99175">
        <ele>2503</ele>
        <time>2021-04-17T09:08:41Z</time>
      </trkpt>
      <trkpt lat="45.19727" lon="5.99177">
        <ele>2503.8</ele>
        <time>2021-04-17T09:08:43Z</time>
      </trkpt>
      <trkpt lat="45.19727" lon="5.99178">
        <ele>2504</ele>
        <time>2021-04-17T09:08:44Z</time>
      </trkpt>
      <trkpt lat="45.19727" lon="5.99183">
        <ele>2505</ele>
        <time>2021-04-17T09:08:50Z</time>
      </trkpt>
      <trkpt lat="45.19727" lon="5.99185">
        <ele>2505.2</ele>
        <time>2021-04-17T09:08:53Z</time>
      </trkpt>
      <trkpt lat="45.19727" lon="5.99186">
        <ele>2505.2</ele>
        <time>2021-04-17T09:08:54Z</time>
      </trkpt>
      <trkpt lat="45.19727" lon="5.9919">
        <ele>2506.4</ele>
        <time>2021-04-17T09:08:59Z</time>
      </trkpt>
      <trkpt lat="45.19726" lon="5.99192">
        <ele>2506.6</ele>
        <time>2021-04-17T09:09:01Z</time>
      </trkpt>
      <trkpt lat="45.19725" lon="5.99196">
        <ele>2507.4</ele>
        <time>2021-04-17T09:09:06Z</time>
      </trkpt>
      <trkpt lat="45.19725" lon="5.99197">
        <ele>2507.6</ele>
        <time>2021-04-17T09:09:07Z</time>
      </trkpt>
      <trkpt lat="45.19725" lon="5.992">
        <ele>2508.6</ele>
        <time>2021-04-17T09:09:11Z</time>
      </trkpt>
      <trkpt lat="45.19726" lon="5.99201">
        <ele>2509.2</ele>
        <time>2021-04-17T09:09:15Z</time>
      </trkpt>
      <trkpt lat="45.19726" lon="5.99204">
        <ele>2509.8</ele>
        <time>2021-04-17T09:09:19Z</time>
      </trkpt>
      <trkpt lat="45.19727" lon="5.99207">
        <ele>2510.4</ele>
        <time>2021-04-17T09:09:23Z</time>
      </trkpt>
      <trkpt lat="45.19726" lon="5.99209">
        <ele>2510.8</ele>
        <time>2021-04-17T09:09:24Z</time>
      </trkpt>
      <trkpt lat="45.19726" lon="5.99213">
        <ele>2511.8</ele>
        <time>2021-04-17T09:09:30Z</time>
      </trkpt>
      <trkpt lat="45.19727" lon="5.99214">
        <ele>2512</ele>
        <time>2021-04-17T09:09:32Z</time>
      </trkpt>
      <trkpt lat="45.19727" lon="5.99216">
        <ele>2512.8</ele>
        <time>2021-04-17T09:09:36Z</time>
      </trkpt>
      <trkpt lat="45.19728" lon="5.99219">
        <ele>2513.4</ele>
        <time>2021-04-17T09:09:42Z</time>
      </trkpt>
      <trkpt lat="45.19728" lon="5.9922">
        <ele>2513.6</ele>
        <time>2021-04-17T09:09:43Z</time>
      </trkpt>
      <trkpt lat="45.19728" lon="5.99223">
        <ele>2514</ele>
        <time>2021-04-17T09:09:46Z</time>
      </trkpt>
      <trkpt lat="45.19727" lon="5.99227">
        <ele>2514.4</ele>
        <time>2021-04-17T09:09:52Z</time>
      </trkpt>
      <trkpt lat="45.19727" lon="5.99228">
        <ele>2514.4</ele>
        <time>2021-04-17T09:09:53Z</time>
      </trkpt>
      <trkpt lat="45.19727" lon="5.99231">
        <ele>2515.2</ele>
        <time>2021-04-17T09:09:56Z</time>
      </trkpt>
      <trkpt lat="45.19727" lon="5.99234">
        <ele>2516</ele>
        <time>2021-04-17T09:10:00Z</time>
      </trkpt>
      <trkpt lat="45.19727" lon="5.99235">
        <ele>2516.2</ele>
        <time>2021-04-17T09:10:01Z</time>
      </trkpt>
      <trkpt lat="45.19726" lon="5.99239">
        <ele>2517.4</ele>
        <time>2021-04-17T09:10:05Z</time>
      </trkpt>
      <trkpt lat="45.19725" lon="5.99243">
        <ele>2518</ele>
        <time>2021-04-17T09:10:10Z</time>
      </trkpt>
      <trkpt lat="45.19726" lon="5.99243">
        <ele>2518.6</ele>
        <time>2021-04-17T09:10:14Z</time>
      </trkpt>
      <trkpt lat="45.19727" lon="5.99244">
        <ele>2518.6</ele>
        <time>2021-04-17T09:10:16Z</time>
      </trkpt>
      <trkpt lat="45.19726" lon="5.99248">
        <ele>2518.8</ele>
        <time>2021-04-17T09:10:22Z</time>
      </trkpt>
      <trkpt lat="45.19726" lon="5.99247">
        <ele>2519</ele>
        <time>2021-04-17T09:10:23Z</time>
      </trkpt>
      <trkpt lat="45.19728" lon="5.99246">
        <ele>2519.4</ele>
        <time>2021-04-17T09:10:26Z</time>
      </trkpt>
      <trkpt lat="45.19728" lon="5.99246">
        <ele>2519.6</ele>
        <time>2021-04-17T09:10:31Z</time>
      </trkpt>
      <trkpt lat="45.19728" lon="5.99246">
        <ele>2519.6</ele>
        <time>2021-04-17T09:10:32Z</time>
      </trkpt>
      <trkpt lat="45.19728" lon="5.99246">
        <ele>2519.6</ele>
        <time>2021-04-17T09:10:35Z</time>
      </trkpt>
      <trkpt lat="45.19727" lon="5.99247">
        <ele>2519.6</ele>
        <time>2021-04-17T09:10:40Z</time>
      </trkpt>
      <trkpt lat="45.19727" lon="5.99247">
        <ele>2519.6</ele>
        <time>2021-04-17T09:10:41Z</time>
      </trkpt>
      <trkpt lat="45.19727" lon="5.99248">
        <ele>2520</ele>
        <time>2021-04-17T09:10:45Z</time>
      </trkpt>
      <trkpt lat="45.19727" lon="5.99249">
        <ele>2520.2</ele>
        <time>2021-04-17T09:10:50Z</time>
      </trkpt>
      <trkpt lat="45.19727" lon="5.99249">
        <ele>2520.4</ele>
        <time>2021-04-17T09:10:56Z</time>
      </trkpt>
      <trkpt lat="45.19725" lon="5.99248">
        <ele>2520.6</ele>
        <time>2021-04-17T09:11:02Z</time>
      </trkpt>
      <trkpt lat="45.19722" lon="5.99247">
        <ele>2520.6</ele>
        <time>2021-04-17T09:11:04Z</time>
      </trkpt>
      <trkpt lat="45.19719" lon="5.99242">
        <ele>2521.2</ele>
        <time>2021-04-17T09:11:10Z</time>
      </trkpt>
      <trkpt lat="45.19716" lon="5.99241">
        <ele>2521.6</ele>
        <time>2021-04-17T09:11:15Z</time>
      </trkpt>
      <trkpt lat="45.19714" lon="5.99239">
        <ele>2522</ele>
        <time>2021-04-17T09:11:18Z</time>
      </trkpt>
      <trkpt lat="45.19711" lon="5.99239">
        <ele>2522.6</ele>
        <time>2021-04-17T09:11:23Z</time>
      </trkpt>
      <trkpt lat="45.19709" lon="5.99238">
        <ele>2522.8</ele>
        <time>2021-04-17T09:11:24Z</time>
      </trkpt>
      <trkpt lat="45.19707" lon="5.99237">
        <ele>2523.4</ele>
        <time>2021-04-17T09:11:29Z</time>
      </trkpt>
      <trkpt lat="45.19707" lon="5.99235">
        <ele>2523.8</ele>
        <time>2021-04-17T09:11:33Z</time>
      </trkpt>
      <trkpt lat="45.19705" lon="5.99232">
        <ele>2524.4</ele>
        <time>2021-04-17T09:11:36Z</time>
      </trkpt>
      <trkpt lat="45.19704" lon="5.99231">
        <ele>2524.8</ele>
        <time>2021-04-17T09:11:38Z</time>
      </trkpt>
      <trkpt lat="45.19703" lon="5.99229">
        <ele>2525.2</ele>
        <time>2021-04-17T09:11:40Z</time>
      </trkpt>
      <trkpt lat="45.19701" lon="5.99228">
        <ele>2525.4</ele>
        <time>2021-04-17T09:11:42Z</time>
      </trkpt>
      <trkpt lat="45.197" lon="5.99228">
        <ele>2526</ele>
        <time>2021-04-17T09:11:44Z</time>
      </trkpt>
      <trkpt lat="45.19698" lon="5.99225">
        <ele>2526.4</ele>
        <time>2021-04-17T09:11:48Z</time>
      </trkpt>
      <trkpt lat="45.19697" lon="5.99224">
        <ele>2526.6</ele>
        <time>2021-04-17T09:11:50Z</time>
      </trkpt>
      <trkpt lat="45.19696" lon="5.99223">
        <ele>2527</ele>
        <time>2021-04-17T09:11:52Z</time>
      </trkpt>
      <trkpt lat="45.19697" lon="5.99222">
        <ele>2527.6</ele>
        <time>2021-04-17T09:11:56Z</time>
      </trkpt>
      <trkpt lat="45.19695" lon="5.99222">
        <ele>2527.6</ele>
        <time>2021-04-17T09:11:58Z</time>
      </trkpt>
      <trkpt lat="45.19696" lon="5.9922">
        <ele>2527.8</ele>
        <time>2021-04-17T09:12:02Z</time>
      </trkpt>
      <trkpt lat="45.19696" lon="5.9922">
        <ele>2527.6</ele>
        <time>2021-04-17T09:12:08Z</time>
      </trkpt>
      <trkpt lat="45.19696" lon="5.9922">
        <ele>2527.4</ele>
        <time>2021-04-17T09:12:09Z</time>
      </trkpt>
      <trkpt lat="45.19696" lon="5.9922">
        <ele>2527.6</ele>
        <time>2021-04-17T09:12:15Z</time>
      </trkpt>
      <trkpt lat="45.19696" lon="5.9922">
        <ele>2527.8</ele>
        <time>2021-04-17T09:12:16Z</time>
      </trkpt>
      <trkpt lat="45.19696" lon="5.99219">
        <ele>2528</ele>
        <time>2021-04-17T09:12:17Z</time>
      </trkpt>
      <trkpt lat="45.19695" lon="5.99216">
        <ele>2528.4</ele>
        <time>2021-04-17T09:12:20Z</time>
      </trkpt>
      <trkpt lat="45.1969" lon="5.99212">
        <ele>2529.2</ele>
        <time>2021-04-17T09:12:25Z</time>
      </trkpt>
      <trkpt lat="45.19689" lon="5.99211">
        <ele>2529.4</ele>
        <time>2021-04-17T09:12:26Z</time>
      </trkpt>
      <trkpt lat="45.19685" lon="5.99208">
        <ele>2530.4</ele>
        <time>2021-04-17T09:12:30Z</time>
      </trkpt>
      <trkpt lat="45.19684" lon="5.99207">
        <ele>2530.8</ele>
        <time>2021-04-17T09:12:32Z</time>
      </trkpt>
      <trkpt lat="45.19683" lon="5.99206">
        <ele>2531</ele>
        <time>2021-04-17T09:12:33Z</time>
      </trkpt>
      <trkpt lat="45.19683" lon="5.99206">
        <ele>2531.2</ele>
        <time>2021-04-17T09:12:34Z</time>
      </trkpt>
      <trkpt lat="45.19683" lon="5.99206">
        <ele>2531.4</ele>
        <time>2021-04-17T09:12:35Z</time>
      </trkpt>
      <trkpt lat="45.19683" lon="5.99205">
        <ele>2531.6</ele>
        <time>2021-04-17T09:12:36Z</time>
      </trkpt>
      <trkpt lat="45.1968" lon="5.99203">
        <ele>2532.4</ele>
        <time>2021-04-17T09:12:40Z</time>
      </trkpt>
      <trkpt lat="45.1968" lon="5.99203">
        <ele>2532.6</ele>
        <time>2021-04-17T09:12:41Z</time>
      </trkpt>
      <trkpt lat="45.19679" lon="5.99202">
        <ele>2533.2</ele>
        <time>2021-04-17T09:12:44Z</time>
      </trkpt>
      <trkpt lat="45.19677" lon="5.99201">
        <ele>2533.8</ele>
        <time>2021-04-17T09:12:46Z</time>
      </trkpt>
      <trkpt lat="45.1968" lon="5.99198">
        <ele>2534.2</ele>
        <time>2021-04-17T09:12:49Z</time>
      </trkpt>
      <trkpt lat="45.1968" lon="5.99198">
        <ele>2534.4</ele>
        <time>2021-04-17T09:12:53Z</time>
      </trkpt>
      <trkpt lat="45.1968" lon="5.99199">
        <ele>2534.6</ele>
        <time>2021-04-17T09:12:55Z</time>
      </trkpt>
      <trkpt lat="45.1968" lon="5.99199">
        <ele>2534.8</ele>
        <time>2021-04-17T09:12:56Z</time>
      </trkpt>
      <trkpt lat="45.19682" lon="5.99203">
        <ele>2535.6</ele>
        <time>2021-04-17T09:13:02Z</time>
      </trkpt>
      <trkpt lat="45.19683" lon="5.99203">
        <ele>2535.8</ele>
        <time>2021-04-17T09:13:04Z</time>
      </trkpt>
      <trkpt lat="45.19683" lon="5.99204">
        <ele>2536</ele>
        <time>2021-04-17T09:13:05Z</time>
      </trkpt>
      <trkpt lat="45.19684" lon="5.99207">
        <ele>2537</ele>
        <time>2021-04-17T09:13:10Z</time>
      </trkpt>
      <trkpt lat="45.19684" lon="5.99208">
        <ele>2537.4</ele>
        <time>2021-04-17T09:13:12Z</time>
      </trkpt>
      <trkpt lat="45.19685" lon="5.99211">
        <ele>2538.2</ele>
        <time>2021-04-17T09:13:17Z</time>
      </trkpt>
      <trkpt lat="45.19685" lon="5.99211">
        <ele>2538.4</ele>
        <time>2021-04-17T09:13:19Z</time>
      </trkpt>
      <trkpt lat="45.19685" lon="5.99214">
        <ele>2539.2</ele>
        <time>2021-04-17T09:13:23Z</time>
      </trkpt>
      <trkpt lat="45.19687" lon="5.99216">
        <ele>2539.8</ele>
        <time>2021-04-17T09:13:26Z</time>
      </trkpt>
      <trkpt lat="45.19687" lon="5.99218">
        <ele>2540</ele>
        <time>2021-04-17T09:13:28Z</time>
      </trkpt>
      <trkpt lat="45.19688" lon="5.99218">
        <ele>2540</ele>
        <time>2021-04-17T09:13:29Z</time>
      </trkpt>
      <trkpt lat="45.19688" lon="5.99221">
        <ele>2540.4</ele>
        <time>2021-04-17T09:13:32Z</time>
      </trkpt>
      <trkpt lat="45.19689" lon="5.99223">
        <ele>2541</ele>
        <time>2021-04-17T09:13:36Z</time>
      </trkpt>
      <trkpt lat="45.19689" lon="5.99224">
        <ele>2541.2</ele>
        <time>2021-04-17T09:13:39Z</time>
      </trkpt>
      <trkpt lat="45.19689" lon="5.99225">
        <ele>2541</ele>
        <time>2021-04-17T09:13:44Z</time>
      </trkpt>
      <trkpt lat="45.19689" lon="5.99227">
        <ele>2541.2</ele>
        <time>2021-04-17T09:13:48Z</time>
      </trkpt>
      <trkpt lat="45.19689" lon="5.99228">
        <ele>2541.4</ele>
        <time>2021-04-17T09:13:49Z</time>
      </trkpt>
      <trkpt lat="45.19689" lon="5.99231">
        <ele>2541.8</ele>
        <time>2021-04-17T09:13:52Z</time>
      </trkpt>
      <trkpt lat="45.19689" lon="5.99234">
        <ele>2542.2</ele>
        <time>2021-04-17T09:13:55Z</time>
      </trkpt>
      <trkpt lat="45.19688" lon="5.99236">
        <ele>2542.4</ele>
        <time>2021-04-17T09:13:57Z</time>
      </trkpt>
      <trkpt lat="45.19687" lon="5.99237">
        <ele>2543.6</ele>
        <time>2021-04-17T09:14:01Z</time>
      </trkpt>
      <trkpt lat="45.19687" lon="5.99236">
        <ele>2543.8</ele>
        <time>2021-04-17T09:14:02Z</time>
      </trkpt>
      <trkpt lat="45.19685" lon="5.99234">
        <ele>2544.2</ele>
        <time>2021-04-17T09:14:08Z</time>
      </trkpt>
      <trkpt lat="45.19684" lon="5.99234">
        <ele>2544.4</ele>
        <time>2021-04-17T09:14:09Z</time>
      </trkpt>
      <trkpt lat="45.19683" lon="5.99235">
        <ele>2544.6</ele>
        <time>2021-04-17T09:14:11Z</time>
      </trkpt>
      <trkpt lat="45.19683" lon="5.99235">
        <ele>2544.8</ele>
        <time>2021-04-17T09:14:15Z</time>
      </trkpt>
      <trkpt lat="45.19683" lon="5.99235">
        <ele>2544.8</ele>
        <time>2021-04-17T09:14:16Z</time>
      </trkpt>
      <trkpt lat="45.19683" lon="5.99235">
        <ele>2545.2</ele>
        <time>2021-04-17T09:14:22Z</time>
      </trkpt>
      <trkpt lat="45.19683" lon="5.99235">
        <ele>2545.2</ele>
        <time>2021-04-17T09:14:27Z</time>
      </trkpt>
      <trkpt lat="45.19683" lon="5.99235">
        <ele>2545.2</ele>
        <time>2021-04-17T09:14:28Z</time>
      </trkpt>
      <trkpt lat="45.19683" lon="5.99234">
        <ele>2545.2</ele>
        <time>2021-04-17T09:14:29Z</time>
      </trkpt>
      <trkpt lat="45.19683" lon="5.99234">
        <ele>2545</ele>
        <time>2021-04-17T09:14:35Z</time>
      </trkpt>
      <trkpt lat="45.19683" lon="5.99234">
        <ele>2545</ele>
        <time>2021-04-17T09:14:36Z</time>
      </trkpt>
      <trkpt lat="45.19682" lon="5.99233">
        <ele>2545.4</ele>
        <time>2021-04-17T09:14:42Z</time>
      </trkpt>
      <trkpt lat="45.19681" lon="5.99231">
        <ele>2545.6</ele>
        <time>2021-04-17T09:14:43Z</time>
      </trkpt>
      <trkpt lat="45.1968" lon="5.9923">
        <ele>2545.6</ele>
        <time>2021-04-17T09:14:44Z</time>
      </trkpt>
      <trkpt lat="45.19678" lon="5.99228">
        <ele>2546</ele>
        <time>2021-04-17T09:14:46Z</time>
      </trkpt>
      <trkpt lat="45.19676" lon="5.99226">
        <ele>2546.4</ele>
        <time>2021-04-17T09:14:48Z</time>
      </trkpt>
      <trkpt lat="45.19675" lon="5.99226">
        <ele>2546.8</ele>
        <time>2021-04-17T09:14:49Z</time>
      </trkpt>
      <trkpt lat="45.1967" lon="5.99224">
        <ele>2547.4</ele>
        <time>2021-04-17T09:14:53Z</time>
      </trkpt>
      <trkpt lat="45.19669" lon="5.99224">
        <ele>2547.8</ele>
        <time>2021-04-17T09:14:55Z</time>
      </trkpt>
      <trkpt lat="45.19671" lon="5.99222">
        <ele>2548</ele>
        <time>2021-04-17T09:14:57Z</time>
      </trkpt>
      <trkpt lat="45.19672" lon="5.99221">
        <ele>2548.2</ele>
        <time>2021-04-17T09:15:02Z</time>
      </trkpt>
      <trkpt lat="45.19673" lon="5.99223">
        <ele>2548.4</ele>
        <time>2021-04-17T09:15:04Z</time>
      </trkpt>
      <trkpt lat="45.19673" lon="5.99225">
        <ele>2548.8</ele>
        <time>2021-04-17T09:15:06Z</time>
      </trkpt>
      <trkpt lat="45.19674" lon="5.99227">
        <ele>2549.2</ele>
        <time>2021-04-17T09:15:08Z</time>
      </trkpt>
      <trkpt lat="45.19675" lon="5.99229">
        <ele>2549.6</ele>
        <time>2021-04-17T09:15:10Z</time>
      </trkpt>
      <trkpt lat="45.19676" lon="5.9923">
        <ele>2549.8</ele>
        <time>2021-04-17T09:15:12Z</time>
      </trkpt>
      <trkpt lat="45.19676" lon="5.99232">
        <ele>2550.2</ele>
        <time>2021-04-17T09:15:14Z</time>
      </trkpt>
      <trkpt lat="45.19676" lon="5.99236">
        <ele>2551</ele>
        <time>2021-04-17T09:15:18Z</time>
      </trkpt>
      <trkpt lat="45.19676" lon="5.99238">
        <ele>2551.2</ele>
        <time>2021-04-17T09:15:19Z</time>
      </trkpt>
      <trkpt lat="45.19678" lon="5.99239">
        <ele>2552</ele>
        <time>2021-04-17T09:15:25Z</time>
      </trkpt>
      <trkpt lat="45.19678" lon="5.99239">
        <ele>2552.2</ele>
        <time>2021-04-17T09:15:26Z</time>
      </trkpt>
      <trkpt lat="45.19678" lon="5.9924">
        <ele>2552.2</ele>
        <time>2021-04-17T09:15:32Z</time>
      </trkpt>
      <trkpt lat="45.19678" lon="5.99246">
        <ele>2552.6</ele>
        <time>2021-04-17T09:15:37Z</time>
      </trkpt>
      <trkpt lat="45.19678" lon="5.99247">
        <ele>2552.6</ele>
        <time>2021-04-17T09:15:38Z</time>
      </trkpt>
      <trkpt lat="45.19679" lon="5.99252">
        <ele>2553</ele>
        <time>2021-04-17T09:15:42Z</time>
      </trkpt>
      <trkpt lat="45.1968" lon="5.99255">
        <ele>2553.8</ele>
        <time>2021-04-17T09:15:45Z</time>
      </trkpt>
      <trkpt lat="45.1968" lon="5.99257">
        <ele>2554.2</ele>
        <time>2021-04-17T09:15:47Z</time>
      </trkpt>
      <trkpt lat="45.1968" lon="5.99258">
        <ele>2554.6</ele>
        <time>2021-04-17T09:15:51Z</time>
      </trkpt>
      <trkpt lat="45.1968" lon="5.99261">
        <ele>2555.2</ele>
        <time>2021-04-17T09:15:55Z</time>
      </trkpt>
      <trkpt lat="45.19679" lon="5.99264">
        <ele>2555.8</ele>
        <time>2021-04-17T09:15:58Z</time>
      </trkpt>
      <trkpt lat="45.1968" lon="5.99265">
        <ele>2556.2</ele>
        <time>2021-04-17T09:16:00Z</time>
      </trkpt>
      <trkpt lat="45.19679" lon="5.99265">
        <ele>2556.4</ele>
        <time>2021-04-17T09:16:06Z</time>
      </trkpt>
      <trkpt lat="45.19679" lon="5.99265">
        <ele>2556.4</ele>
        <time>2021-04-17T09:16:07Z</time>
      </trkpt>
      <trkpt lat="45.1968" lon="5.99265">
        <ele>2556.4</ele>
        <time>2021-04-17T09:16:11Z</time>
      </trkpt>
      <trkpt lat="45.1968" lon="5.99265">
        <ele>2557</ele>
        <time>2021-04-17T09:16:17Z</time>
      </trkpt>
      <trkpt lat="45.1968" lon="5.99265">
        <ele>2557.2</ele>
        <time>2021-04-17T09:16:19Z</time>
      </trkpt>
      <trkpt lat="45.1968" lon="5.99265">
        <ele>2557.2</ele>
        <time>2021-04-17T09:16:21Z</time>
      </trkpt>
      <trkpt lat="45.1968" lon="5.99265">
        <ele>2557.4</ele>
        <time>2021-04-17T09:16:24Z</time>
      </trkpt>
      <trkpt lat="45.1968" lon="5.99265">
        <ele>2557.4</ele>
        <time>2021-04-17T09:16:25Z</time>
      </trkpt>
      <trkpt lat="45.19679" lon="5.99265">
        <ele>2557.4</ele>
        <time>2021-04-17T09:16:26Z</time>
      </trkpt>
      <trkpt lat="45.19679" lon="5.99265">
        <ele>2557.4</ele>
        <time>2021-04-17T09:16:27Z</time>
      </trkpt>
      <trkpt lat="45.19679" lon="5.99266">
        <ele>2557.4</ele>
        <time>2021-04-17T09:16:33Z</time>
      </trkpt>
      <trkpt lat="45.19678" lon="5.99266">
        <ele>2557.8</ele>
        <time>2021-04-17T09:16:39Z</time>
      </trkpt>
      <trkpt lat="45.19678" lon="5.99266">
        <ele>2558</ele>
        <time>2021-04-17T09:16:43Z</time>
      </trkpt>
      <trkpt lat="45.19676" lon="5.99265">
        <ele>2558.2</ele>
        <time>2021-04-17T09:16:45Z</time>
      </trkpt>
      <trkpt lat="45.19675" lon="5.99264">
        <ele>2558.4</ele>
        <time>2021-04-17T09:16:46Z</time>
      </trkpt>
      <trkpt lat="45.19673" lon="5.99263">
        <ele>2558.8</ele>
        <time>2021-04-17T09:16:48Z</time>
      </trkpt>
      <trkpt lat="45.19671" lon="5.99262">
        <ele>2559</ele>
        <time>2021-04-17T09:16:50Z</time>
      </trkpt>
      <trkpt lat="45.19669" lon="5.99261">
        <ele>2559</ele>
        <time>2021-04-17T09:16:51Z</time>
      </trkpt>
      <trkpt lat="45.19668" lon="5.99259">
        <ele>2559.2</ele>
        <time>2021-04-17T09:16:53Z</time>
      </trkpt>
      <trkpt lat="45.19668" lon="5.99258">
        <ele>2559.4</ele>
        <time>2021-04-17T09:16:54Z</time>
      </trkpt>
      <trkpt lat="45.19664" lon="5.99258">
        <ele>2560</ele>
        <time>2021-04-17T09:16:57Z</time>
      </trkpt>
      <trkpt lat="45.19663" lon="5.99257">
        <ele>2560.4</ele>
        <time>2021-04-17T09:17:00Z</time>
      </trkpt>
      <trkpt lat="45.19663" lon="5.99257">
        <ele>2560.4</ele>
        <time>2021-04-17T09:17:01Z</time>
      </trkpt>
      <trkpt lat="45.19664" lon="5.99255">
        <ele>2560.6</ele>
        <time>2021-04-17T09:17:04Z</time>
      </trkpt>
      <trkpt lat="45.19665" lon="5.99255">
        <ele>2560.4</ele>
        <time>2021-04-17T09:17:08Z</time>
      </trkpt>
      <trkpt lat="45.19666" lon="5.99257">
        <ele>2560.8</ele>
        <time>2021-04-17T09:17:13Z</time>
      </trkpt>
      <trkpt lat="45.19667" lon="5.99259">
        <ele>2561</ele>
        <time>2021-04-17T09:17:16Z</time>
      </trkpt>
      <trkpt lat="45.19668" lon="5.99261">
        <ele>2561.6</ele>
        <time>2021-04-17T09:17:21Z</time>
      </trkpt>
      <trkpt lat="45.19669" lon="5.99266">
        <ele>2562.2</ele>
        <time>2021-04-17T09:17:27Z</time>
      </trkpt>
      <trkpt lat="45.19669" lon="5.99268">
        <ele>2562.6</ele>
        <time>2021-04-17T09:17:29Z</time>
      </trkpt>
      <trkpt lat="45.19669" lon="5.9927">
        <ele>2562.8</ele>
        <time>2021-04-17T09:17:31Z</time>
      </trkpt>
      <trkpt lat="45.1967" lon="5.99274">
        <ele>2563.8</ele>
        <time>2021-04-17T09:17:36Z</time>
      </trkpt>
      <trkpt lat="45.1967" lon="5.99274">
        <ele>2564</ele>
        <time>2021-04-17T09:17:37Z</time>
      </trkpt>
      <trkpt lat="45.19673" lon="5.99281">
        <ele>2564.8</ele>
        <time>2021-04-17T09:17:43Z</time>
      </trkpt>
      <trkpt lat="45.19672" lon="5.99288">
        <ele>2565.6</ele>
        <time>2021-04-17T09:17:49Z</time>
      </trkpt>
      <trkpt lat="45.19673" lon="5.99291">
        <ele>2566</ele>
        <time>2021-04-17T09:17:52Z</time>
      </trkpt>
      <trkpt lat="45.19674" lon="5.99298">
        <ele>2567</ele>
        <time>2021-04-17T09:17:58Z</time>
      </trkpt>
      <trkpt lat="45.19674" lon="5.99299">
        <ele>2567.2</ele>
        <time>2021-04-17T09:17:59Z</time>
      </trkpt>
      <trkpt lat="45.19674" lon="5.99304">
        <ele>2568</ele>
        <time>2021-04-17T09:18:03Z</time>
      </trkpt>
      <trkpt lat="45.19674" lon="5.9931">
        <ele>2568.6</ele>
        <time>2021-04-17T09:18:08Z</time>
      </trkpt>
      <trkpt lat="45.19675" lon="5.99313">
        <ele>2569.4</ele>
        <time>2021-04-17T09:18:11Z</time>
      </trkpt>
      <trkpt lat="45.19679" lon="5.99317">
        <ele>2570.4</ele>
        <time>2021-04-17T09:18:17Z</time>
      </trkpt>
      <trkpt lat="45.19679" lon="5.99318">
        <ele>2570.4</ele>
        <time>2021-04-17T09:18:18Z</time>
      </trkpt>
      <trkpt lat="45.1968" lon="5.99319">
        <ele>2570.6</ele>
        <time>2021-04-17T09:18:22Z</time>
      </trkpt>
      <trkpt lat="45.1968" lon="5.99319">
        <ele>2571.2</ele>
        <time>2021-04-17T09:18:28Z</time>
      </trkpt>
      <trkpt lat="45.19679" lon="5.9932">
        <ele>2571.4</ele>
        <time>2021-04-17T09:18:29Z</time>
      </trkpt>
      <trkpt lat="45.19677" lon="5.9932">
        <ele>2571.6</ele>
        <time>2021-04-17T09:18:31Z</time>
      </trkpt>
      <trkpt lat="45.19677" lon="5.9932">
        <ele>2572</ele>
        <time>2021-04-17T09:18:33Z</time>
      </trkpt>
      <trkpt lat="45.19678" lon="5.9932">
        <ele>2572.6</ele>
        <time>2021-04-17T09:18:35Z</time>
      </trkpt>
      <trkpt lat="45.19677" lon="5.9932">
        <ele>2572.8</ele>
        <time>2021-04-17T09:18:36Z</time>
      </trkpt>
      <trkpt lat="45.19676" lon="5.99321">
        <ele>2573.6</ele>
        <time>2021-04-17T09:18:39Z</time>
      </trkpt>
      <trkpt lat="45.19673" lon="5.99322">
        <ele>2574.6</ele>
        <time>2021-04-17T09:18:42Z</time>
      </trkpt>
      <trkpt lat="45.19673" lon="5.99322">
        <ele>2574.8</ele>
        <time>2021-04-17T09:18:43Z</time>
      </trkpt>
      <trkpt lat="45.19666" lon="5.99321">
        <ele>2575.8</ele>
        <time>2021-04-17T09:18:48Z</time>
      </trkpt>
      <trkpt lat="45.19665" lon="5.9932">
        <ele>2576.4</ele>
        <time>2021-04-17T09:18:50Z</time>
      </trkpt>
      <trkpt lat="45.19664" lon="5.99319">
        <ele>2577</ele>
        <time>2021-04-17T09:18:53Z</time>
      </trkpt>
      <trkpt lat="45.19662" lon="5.99319">
        <ele>2577.2</ele>
        <time>2021-04-17T09:18:59Z</time>
      </trkpt>
      <trkpt lat="45.19658" lon="5.99317">
        <ele>2578</ele>
        <time>2021-04-17T09:19:05Z</time>
      </trkpt>
      <trkpt lat="45.19656" lon="5.99317">
        <ele>2578.2</ele>
        <time>2021-04-17T09:19:06Z</time>
      </trkpt>
      <trkpt lat="45.19653" lon="5.99316">
        <ele>2579</ele>
        <time>2021-04-17T09:19:10Z</time>
      </trkpt>
      <trkpt lat="45.19652" lon="5.99316">
        <ele>2579.2</ele>
        <time>2021-04-17T09:19:11Z</time>
      </trkpt>
      <trkpt lat="45.19655" lon="5.99314">
        <ele>2579.6</ele>
        <time>2021-04-17T09:19:15Z</time>
      </trkpt>
      <trkpt lat="45.19655" lon="5.99315">
        <ele>2579.6</ele>
        <time>2021-04-17T09:19:21Z</time>
      </trkpt>
      <trkpt lat="45.19655" lon="5.99315">
        <ele>2579.8</ele>
        <time>2021-04-17T09:19:24Z</time>
      </trkpt>
      <trkpt lat="45.19657" lon="5.99314">
        <ele>2580</ele>
        <time>2021-04-17T09:19:27Z</time>
      </trkpt>
      <trkpt lat="45.19657" lon="5.99314">
        <ele>2580</ele>
        <time>2021-04-17T09:19:32Z</time>
      </trkpt>
      <trkpt lat="45.19657" lon="5.99314">
        <ele>2580</ele>
        <time>2021-04-17T09:19:34Z</time>
      </trkpt>
      <trkpt lat="45.19657" lon="5.99314">
        <ele>2580.2</ele>
        <time>2021-04-17T09:19:35Z</time>
      </trkpt>
      <trkpt lat="45.19657" lon="5.99316">
        <ele>2580.8</ele>
        <time>2021-04-17T09:19:37Z</time>
      </trkpt>
      <trkpt lat="45.19657" lon="5.99317">
        <ele>2581.2</ele>
        <time>2021-04-17T09:19:38Z</time>
      </trkpt>
      <trkpt lat="45.19656" lon="5.99321">
        <ele>2582.4</ele>
        <time>2021-04-17T09:19:41Z</time>
      </trkpt>
      <trkpt lat="45.19656" lon="5.99326">
        <ele>2583.4</ele>
        <time>2021-04-17T09:19:45Z</time>
      </trkpt>
      <trkpt lat="45.19655" lon="5.99331">
        <ele>2584.6</ele>
        <time>2021-04-17T09:19:50Z</time>
      </trkpt>
      <trkpt lat="45.19654" lon="5.99334">
        <ele>2585.4</ele>
        <time>2021-04-17T09:19:54Z</time>
      </trkpt>
      <trkpt lat="45.19653" lon="5.99335">
        <ele>2585.6</ele>
        <time>2021-04-17T09:19:55Z</time>
      </trkpt>
      <trkpt lat="45.19653" lon="5.99338">
        <ele>2586.6</ele>
        <time>2021-04-17T09:19:59Z</time>
      </trkpt>
      <trkpt lat="45.19652" lon="5.99339">
        <ele>2586.8</ele>
        <time>2021-04-17T09:20:00Z</time>
      </trkpt>
      <trkpt lat="45.19652" lon="5.99341">
        <ele>2587.8</ele>
        <time>2021-04-17T09:20:03Z</time>
      </trkpt>
      <trkpt lat="45.19651" lon="5.99342">
        <ele>2588</ele>
        <time>2021-04-17T09:20:04Z</time>
      </trkpt>
      <trkpt lat="45.1965" lon="5.99344">
        <ele>2588.6</ele>
        <time>2021-04-17T09:20:06Z</time>
      </trkpt>
      <trkpt lat="45.1965" lon="5.99347">
        <ele>2589.2</ele>
        <time>2021-04-17T09:20:08Z</time>
      </trkpt>
      <trkpt lat="45.19651" lon="5.99351">
        <ele>2590.2</ele>
        <time>2021-04-17T09:20:12Z</time>
      </trkpt>
      <trkpt lat="45.19651" lon="5.99351">
        <ele>2590.4</ele>
        <time>2021-04-17T09:20:14Z</time>
      </trkpt>
      <trkpt lat="45.19651" lon="5.99353">
        <ele>2590.8</ele>
        <time>2021-04-17T09:20:20Z</time>
      </trkpt>
      <trkpt lat="45.19651" lon="5.99354">
        <ele>2591</ele>
        <time>2021-04-17T09:20:22Z</time>
      </trkpt>
      <trkpt lat="45.1965" lon="5.99355">
        <ele>2591.2</ele>
        <time>2021-04-17T09:20:26Z</time>
      </trkpt>
      <trkpt lat="45.1965" lon="5.99357">
        <ele>2591.8</ele>
        <time>2021-04-17T09:20:29Z</time>
      </trkpt>
      <trkpt lat="45.19651" lon="5.99358">
        <ele>2592.2</ele>
        <time>2021-04-17T09:20:33Z</time>
      </trkpt>
      <trkpt lat="45.19651" lon="5.99361">
        <ele>2592.4</ele>
        <time>2021-04-17T09:20:36Z</time>
      </trkpt>
      <trkpt lat="45.19652" lon="5.99363">
        <ele>2592.8</ele>
        <time>2021-04-17T09:20:38Z</time>
      </trkpt>
      <trkpt lat="45.19653" lon="5.99365">
        <ele>2593.4</ele>
        <time>2021-04-17T09:20:41Z</time>
      </trkpt>
      <trkpt lat="45.19653" lon="5.99366">
        <ele>2593.8</ele>
        <time>2021-04-17T09:20:43Z</time>
      </trkpt>
      <trkpt lat="45.19655" lon="5.99369">
        <ele>2594.4</ele>
        <time>2021-04-17T09:20:47Z</time>
      </trkpt>
      <trkpt lat="45.19657" lon="5.99371">
        <ele>2595</ele>
        <time>2021-04-17T09:20:50Z</time>
      </trkpt>
      <trkpt lat="45.19659" lon="5.99373">
        <ele>2595.6</ele>
        <time>2021-04-17T09:20:53Z</time>
      </trkpt>
      <trkpt lat="45.19661" lon="5.99373">
        <ele>2596.6</ele>
        <time>2021-04-17T09:20:58Z</time>
      </trkpt>
      <trkpt lat="45.19661" lon="5.99373">
        <ele>2597</ele>
        <time>2021-04-17T09:21:00Z</time>
      </trkpt>
      <trkpt lat="45.19661" lon="5.99373">
        <ele>2597</ele>
        <time>2021-04-17T09:21:01Z</time>
      </trkpt>
      <trkpt lat="45.19662" lon="5.99374">
        <ele>2597</ele>
        <time>2021-04-17T09:21:07Z</time>
      </trkpt>
      <trkpt lat="45.19663" lon="5.99376">
        <ele>2597.2</ele>
        <time>2021-04-17T09:21:09Z</time>
      </trkpt>
      <trkpt lat="45.19665" lon="5.99376">
        <ele>2597.6</ele>
        <time>2021-04-17T09:21:11Z</time>
      </trkpt>
      <trkpt lat="45.19669" lon="5.99376">
        <ele>2598.8</ele>
        <time>2021-04-17T09:21:16Z</time>
      </trkpt>
      <trkpt lat="45.19672" lon="5.99376">
        <ele>2600</ele>
        <time>2021-04-17T09:21:21Z</time>
      </trkpt>
      <trkpt lat="45.19676" lon="5.99374">
        <ele>2600.8</ele>
        <time>2021-04-17T09:21:25Z</time>
      </trkpt>
      <trkpt lat="45.19676" lon="5.99373">
        <ele>2601</ele>
        <time>2021-04-17T09:21:26Z</time>
      </trkpt>
      <trkpt lat="45.19679" lon="5.99373">
        <ele>2601.8</ele>
        <time>2021-04-17T09:21:29Z</time>
      </trkpt>
      <trkpt lat="45.19681" lon="5.99374">
        <ele>2602.4</ele>
        <time>2021-04-17T09:21:31Z</time>
      </trkpt>
      <trkpt lat="45.19681" lon="5.99374">
        <ele>2602.6</ele>
        <time>2021-04-17T09:21:32Z</time>
      </trkpt>
      <trkpt lat="45.19682" lon="5.99374">
        <ele>2602.8</ele>
        <time>2021-04-17T09:21:33Z</time>
      </trkpt>
      <trkpt lat="45.19682" lon="5.99375">
        <ele>2603.4</ele>
        <time>2021-04-17T09:21:35Z</time>
      </trkpt>
      <trkpt lat="45.19683" lon="5.99378">
        <ele>2604</ele>
        <time>2021-04-17T09:21:39Z</time>
      </trkpt>
      <trkpt lat="45.19679" lon="5.99381">
        <ele>2604.4</ele>
        <time>2021-04-17T09:21:45Z</time>
      </trkpt>
      <trkpt lat="45.19679" lon="5.99382">
        <ele>2604.6</ele>
        <time>2021-04-17T09:21:46Z</time>
      </trkpt>
      <trkpt lat="45.19678" lon="5.99387">
        <ele>2605.6</ele>
        <time>2021-04-17T09:21:51Z</time>
      </trkpt>
      <trkpt lat="45.19676" lon="5.99389">
        <ele>2605.6</ele>
        <time>2021-04-17T09:21:53Z</time>
      </trkpt>
      <trkpt lat="45.19676" lon="5.99391">
        <ele>2606.8</ele>
        <time>2021-04-17T09:21:57Z</time>
      </trkpt>
      <trkpt lat="45.19675" lon="5.99391">
        <ele>2607</ele>
        <time>2021-04-17T09:21:58Z</time>
      </trkpt>
      <trkpt lat="45.19673" lon="5.99393">
        <ele>2608</ele>
        <time>2021-04-17T09:22:01Z</time>
      </trkpt>
      <trkpt lat="45.19671" lon="5.99395">
        <ele>2608.6</ele>
        <time>2021-04-17T09:22:05Z</time>
      </trkpt>
      <trkpt lat="45.19669" lon="5.99396">
        <ele>2609</ele>
        <time>2021-04-17T09:22:07Z</time>
      </trkpt>
      <trkpt lat="45.19666" lon="5.99398">
        <ele>2609.8</ele>
        <time>2021-04-17T09:22:11Z</time>
      </trkpt>
      <trkpt lat="45.19664" lon="5.99398">
        <ele>2610.2</ele>
        <time>2021-04-17T09:22:12Z</time>
      </trkpt>
      <trkpt lat="45.19661" lon="5.994">
        <ele>2610.8</ele>
        <time>2021-04-17T09:22:18Z</time>
      </trkpt>
      <trkpt lat="45.19659" lon="5.99401">
        <ele>2611</ele>
        <time>2021-04-17T09:22:20Z</time>
      </trkpt>
      <trkpt lat="45.19659" lon="5.99402">
        <ele>2611.2</ele>
        <time>2021-04-17T09:22:21Z</time>
      </trkpt>
      <trkpt lat="45.19658" lon="5.99403">
        <ele>2611.8</ele>
        <time>2021-04-17T09:22:23Z</time>
      </trkpt>
      <trkpt lat="45.19657" lon="5.99405">
        <ele>2612.4</ele>
        <time>2021-04-17T09:22:25Z</time>
      </trkpt>
      <trkpt lat="45.19655" lon="5.99405">
        <ele>2612.8</ele>
        <time>2021-04-17T09:22:28Z</time>
      </trkpt>
      <trkpt lat="45.19652" lon="5.99406">
        <ele>2613.4</ele>
        <time>2021-04-17T09:22:33Z</time>
      </trkpt>
      <trkpt lat="45.19651" lon="5.99408">
        <ele>2614.4</ele>
        <time>2021-04-17T09:22:37Z</time>
      </trkpt>
      <trkpt lat="45.1965" lon="5.99408">
        <ele>2614.6</ele>
        <time>2021-04-17T09:22:38Z</time>
      </trkpt>
      <trkpt lat="45.19644" lon="5.99409">
        <ele>2615.6</ele>
        <time>2021-04-17T09:22:43Z</time>
      </trkpt>
      <trkpt lat="45.19643" lon="5.99409">
        <ele>2615.8</ele>
        <time>2021-04-17T09:22:44Z</time>
      </trkpt>
      <trkpt lat="45.19641" lon="5.99408">
        <ele>2617</ele>
        <time>2021-04-17T09:22:48Z</time>
      </trkpt>
      <trkpt lat="45.19641" lon="5.99409">
        <ele>2617.2</ele>
        <time>2021-04-17T09:22:49Z</time>
      </trkpt>
      <trkpt lat="45.19641" lon="5.9941">
        <ele>2617.4</ele>
        <time>2021-04-17T09:22:55Z</time>
      </trkpt>
      <trkpt lat="45.19643" lon="5.99414">
        <ele>2618</ele>
        <time>2021-04-17T09:22:59Z</time>
      </trkpt>
      <trkpt lat="45.19645" lon="5.99415">
        <ele>2618.4</ele>
        <time>2021-04-17T09:23:01Z</time>
      </trkpt>
      <trkpt lat="45.19646" lon="5.99416">
        <ele>2619.2</ele>
        <time>2021-04-17T09:23:05Z</time>
      </trkpt>
      <trkpt lat="45.19644" lon="5.99417">
        <ele>2619.4</ele>
        <time>2021-04-17T09:23:07Z</time>
      </trkpt>
      <trkpt lat="45.1964" lon="5.99419">
        <ele>2620.2</ele>
        <time>2021-04-17T09:23:12Z</time>
      </trkpt>
      <trkpt lat="45.1964" lon="5.99419">
        <ele>2620.2</ele>
        <time>2021-04-17T09:23:13Z</time>
      </trkpt>
      <trkpt lat="45.1964" lon="5.9942">
        <ele>2620.6</ele>
        <time>2021-04-17T09:23:15Z</time>
      </trkpt>
      <trkpt lat="45.19641" lon="5.99419">
        <ele>2621.2</ele>
        <time>2021-04-17T09:23:18Z</time>
      </trkpt>
      <trkpt lat="45.19641" lon="5.99419">
        <ele>2621.4</ele>
        <time>2021-04-17T09:23:20Z</time>
      </trkpt>
      <trkpt lat="45.19643" lon="5.9942">
        <ele>2622.2</ele>
        <time>2021-04-17T09:23:25Z</time>
      </trkpt>
      <trkpt lat="45.19643" lon="5.9942">
        <ele>2622.4</ele>
        <time>2021-04-17T09:23:28Z</time>
      </trkpt>
      <trkpt lat="45.19643" lon="5.9942">
        <ele>2622.6</ele>
        <time>2021-04-17T09:23:31Z</time>
      </trkpt>
      <trkpt lat="45.19643" lon="5.9942">
        <ele>2622.8</ele>
        <time>2021-04-17T09:23:37Z</time>
      </trkpt>
      <trkpt lat="45.19643" lon="5.9942">
        <ele>2622.8</ele>
        <time>2021-04-17T09:23:39Z</time>
      </trkpt>
      <trkpt lat="45.19644" lon="5.99419">
        <ele>2623.4</ele>
        <time>2021-04-17T09:23:44Z</time>
      </trkpt>
      <trkpt lat="45.19644" lon="5.99419">
        <ele>2623.6</ele>
        <time>2021-04-17T09:23:45Z</time>
      </trkpt>
      <trkpt lat="45.19644" lon="5.99419">
        <ele>2624.6</ele>
        <time>2021-04-17T09:23:51Z</time>
      </trkpt>
      <trkpt lat="45.19645" lon="5.9942">
        <ele>2625.4</ele>
        <time>2021-04-17T09:23:57Z</time>
      </trkpt>
      <trkpt lat="45.19646" lon="5.9942">
        <ele>2625.6</ele>
        <time>2021-04-17T09:23:58Z</time>
      </trkpt>
      <trkpt lat="45.19647" lon="5.99421">
        <ele>2626</ele>
        <time>2021-04-17T09:24:04Z</time>
      </trkpt>
      <trkpt lat="45.19648" lon="5.99422">
        <ele>2626.6</ele>
        <time>2021-04-17T09:24:07Z</time>
      </trkpt>
      <trkpt lat="45.19648" lon="5.99423">
        <ele>2626.6</ele>
        <time>2021-04-17T09:24:08Z</time>
      </trkpt>
      <trkpt lat="45.19648" lon="5.99424">
        <ele>2627</ele>
        <time>2021-04-17T09:24:13Z</time>
      </trkpt>
      <trkpt lat="45.19649" lon="5.99425">
        <ele>2628</ele>
        <time>2021-04-17T09:24:17Z</time>
      </trkpt>
      <trkpt lat="45.19645" lon="5.9943">
        <ele>2628.8</ele>
        <time>2021-04-17T09:24:22Z</time>
      </trkpt>
      <trkpt lat="45.19641" lon="5.99432">
        <ele>2629.2</ele>
        <time>2021-04-17T09:24:25Z</time>
      </trkpt>
      <trkpt lat="45.1964" lon="5.99434">
        <ele>2630</ele>
        <time>2021-04-17T09:24:28Z</time>
      </trkpt>
      <trkpt lat="45.19639" lon="5.99434">
        <ele>2630.2</ele>
        <time>2021-04-17T09:24:29Z</time>
      </trkpt>
      <trkpt lat="45.19636" lon="5.99436">
        <ele>2631.4</ele>
        <time>2021-04-17T09:24:35Z</time>
      </trkpt>
      <trkpt lat="45.19636" lon="5.99436">
        <ele>2632.4</ele>
        <time>2021-04-17T09:24:39Z</time>
      </trkpt>
      <trkpt lat="45.19636" lon="5.99435">
        <ele>2633</ele>
        <time>2021-04-17T09:24:41Z</time>
      </trkpt>
      <trkpt lat="45.19635" lon="5.99436">
        <ele>2633.4</ele>
        <time>2021-04-17T09:24:47Z</time>
      </trkpt>
      <trkpt lat="45.19635" lon="5.99436">
        <ele>2633.4</ele>
        <time>2021-04-17T09:24:48Z</time>
      </trkpt>
      <trkpt lat="45.19635" lon="5.99437">
        <ele>2634.6</ele>
        <time>2021-04-17T09:24:53Z</time>
      </trkpt>
      <trkpt lat="45.19635" lon="5.9944">
        <ele>2635.2</ele>
        <time>2021-04-17T09:24:58Z</time>
      </trkpt>
      <trkpt lat="45.19636" lon="5.99442">
        <ele>2635.8</ele>
        <time>2021-04-17T09:25:00Z</time>
      </trkpt>
      <trkpt lat="45.19638" lon="5.99446">
        <ele>2636.8</ele>
        <time>2021-04-17T09:25:05Z</time>
      </trkpt>
      <trkpt lat="45.19639" lon="5.99446">
        <ele>2637</ele>
        <time>2021-04-17T09:25:06Z</time>
      </trkpt>
      <trkpt lat="45.1964" lon="5.99448">
        <ele>2638</ele>
        <time>2021-04-17T09:25:09Z</time>
      </trkpt>
      <trkpt lat="45.19642" lon="5.9945">
        <ele>2639</ele>
        <time>2021-04-17T09:25:13Z</time>
      </trkpt>
      <trkpt lat="45.1964" lon="5.99453">
        <ele>2640</ele>
        <time>2021-04-17T09:25:18Z</time>
      </trkpt>
      <trkpt lat="45.19638" lon="5.99454">
        <ele>2641</ele>
        <time>2021-04-17T09:25:21Z</time>
      </trkpt>
      <trkpt lat="45.19637" lon="5.99454">
        <ele>2641.2</ele>
        <time>2021-04-17T09:25:22Z</time>
      </trkpt>
      <trkpt lat="45.19637" lon="5.99455">
        <ele>2641.8</ele>
        <time>2021-04-17T09:25:24Z</time>
      </trkpt>
      <trkpt lat="45.19635" lon="5.99456">
        <ele>2642.4</ele>
        <time>2021-04-17T09:25:26Z</time>
      </trkpt>
      <trkpt lat="45.19633" lon="5.99457">
        <ele>2642.8</ele>
        <time>2021-04-17T09:25:30Z</time>
      </trkpt>
      <trkpt lat="45.19631" lon="5.99459">
        <ele>2643</ele>
        <time>2021-04-17T09:25:36Z</time>
      </trkpt>
      <trkpt lat="45.19631" lon="5.99459">
        <ele>2643.2</ele>
        <time>2021-04-17T09:25:39Z</time>
      </trkpt>
      <trkpt lat="45.1963" lon="5.99459">
        <ele>2643.4</ele>
        <time>2021-04-17T09:25:40Z</time>
      </trkpt>
      <trkpt lat="45.19631" lon="5.99459">
        <ele>2643.8</ele>
        <time>2021-04-17T09:25:46Z</time>
      </trkpt>
      <trkpt lat="45.19631" lon="5.99459">
        <ele>2643.8</ele>
        <time>2021-04-17T09:25:48Z</time>
      </trkpt>
      <trkpt lat="45.19631" lon="5.99459">
        <ele>2644.2</ele>
        <time>2021-04-17T09:25:51Z</time>
      </trkpt>
      <trkpt lat="45.19631" lon="5.99459">
        <ele>2644.2</ele>
        <time>2021-04-17T09:25:53Z</time>
      </trkpt>
      <trkpt lat="45.19631" lon="5.99459">
        <ele>2644.2</ele>
        <time>2021-04-17T09:25:54Z</time>
      </trkpt>
      <trkpt lat="45.19631" lon="5.99459">
        <ele>2644.2</ele>
        <time>2021-04-17T09:25:55Z</time>
      </trkpt>
      <trkpt lat="45.19631" lon="5.99459">
        <ele>2644.2</ele>
        <time>2021-04-17T09:25:56Z</time>
      </trkpt>
      <trkpt lat="45.19631" lon="5.99459">
        <ele>2644.4</ele>
        <time>2021-04-17T09:26:01Z</time>
      </trkpt>
      <trkpt lat="45.19631" lon="5.99457">
        <ele>2643.8</ele>
        <time>2021-04-17T09:26:07Z</time>
      </trkpt>
      <trkpt lat="45.19631" lon="5.99456">
        <ele>2643.6</ele>
        <time>2021-04-17T09:26:13Z</time>
      </trkpt>
      <trkpt lat="45.19631" lon="5.99456">
        <ele>2643.6</ele>
        <time>2021-04-17T09:26:14Z</time>
      </trkpt>
      <trkpt lat="45.19631" lon="5.99456">
        <ele>2643.4</ele>
        <time>2021-04-17T09:26:15Z</time>
      </trkpt>
      <trkpt lat="45.19631" lon="5.99456">
        <ele>2643</ele>
        <time>2021-04-17T09:26:16Z</time>
      </trkpt>
      <trkpt lat="45.19631" lon="5.99456">
        <ele>2642.4</ele>
        <time>2021-04-17T09:26:17Z</time>
      </trkpt>
      <trkpt lat="45.19631" lon="5.99456">
        <ele>2642.2</ele>
        <time>2021-04-17T09:26:18Z</time>
      </trkpt>
      <trkpt lat="45.19631" lon="5.99456">
        <ele>2642</ele>
        <time>2021-04-17T09:26:19Z</time>
      </trkpt>
      <trkpt lat="45.19631" lon="5.99456">
        <ele>2641.8</ele>
        <time>2021-04-17T09:26:21Z</time>
      </trkpt>
      <trkpt lat="45.19631" lon="5.99456">
        <ele>2641.8</ele>
        <time>2021-04-17T09:26:23Z</time>
      </trkpt>
      <trkpt lat="45.19631" lon="5.99456">
        <ele>2641.8</ele>
        <time>2021-04-17T09:26:24Z</time>
      </trkpt>
      <trkpt lat="45.19631" lon="5.99456">
        <ele>2641.8</ele>
        <time>2021-04-17T09:26:26Z</time>
      </trkpt>
      <trkpt lat="45.19631" lon="5.99456">
        <ele>2641.8</ele>
        <time>2021-04-17T09:26:28Z</time>
      </trkpt>
      <trkpt lat="45.19631" lon="5.99456">
        <ele>2641.8</ele>
        <time>2021-04-17T09:26:30Z</time>
      </trkpt>
      <trkpt lat="45.19631" lon="5.99456">
        <ele>2641.8</ele>
        <time>2021-04-17T09:26:32Z</time>
      </trkpt>
      <trkpt lat="45.19631" lon="5.99456">
        <ele>2641.8</ele>
        <time>2021-04-17T09:26:33Z</time>
      </trkpt>
      <trkpt lat="45.19631" lon="5.99456">
        <ele>2642.2</ele>
        <time>2021-04-17T09:26:38Z</time>
      </trkpt>
      <trkpt lat="45.19632" lon="5.99456">
        <ele>2643.4</ele>
        <time>2021-04-17T09:26:42Z</time>
      </trkpt>
      <trkpt lat="45.19632" lon="5.99456">
        <ele>2643.6</ele>
        <time>2021-04-17T09:26:43Z</time>
      </trkpt>
      <trkpt lat="45.19632" lon="5.99456">
        <ele>2643.6</ele>
        <time>2021-04-17T09:26:44Z</time>
      </trkpt>
      <trkpt lat="45.19632" lon="5.99456">
        <ele>2643.8</ele>
        <time>2021-04-17T09:26:45Z</time>
      </trkpt>
      <trkpt lat="45.19632" lon="5.99456">
        <ele>2644</ele>
        <time>2021-04-17T09:26:46Z</time>
      </trkpt>
      <trkpt lat="45.19632" lon="5.99456">
        <ele>2644.2</ele>
        <time>2021-04-17T09:26:47Z</time>
      </trkpt>
      <trkpt lat="45.19632" lon="5.99456">
        <ele>2644.4</ele>
        <time>2021-04-17T09:26:49Z</time>
      </trkpt>
      <trkpt lat="45.19632" lon="5.99456">
        <ele>2644.6</ele>
        <time>2021-04-17T09:26:51Z</time>
      </trkpt>
      <trkpt lat="45.19632" lon="5.99456">
        <ele>2644.4</ele>
        <time>2021-04-17T09:26:52Z</time>
      </trkpt>
      <trkpt lat="45.19632" lon="5.99456">
        <ele>2644.4</ele>
        <time>2021-04-17T09:26:54Z</time>
      </trkpt>
      <trkpt lat="45.19632" lon="5.99456">
        <ele>2644.4</ele>
        <time>2021-04-17T09:26:57Z</time>
      </trkpt>
      <trkpt lat="45.19632" lon="5.99455">
        <ele>2644.6</ele>
        <time>2021-04-17T09:26:58Z</time>
      </trkpt>
      <trkpt lat="45.19632" lon="5.99455">
        <ele>2644.6</ele>
        <time>2021-04-17T09:27:00Z</time>
      </trkpt>
      <trkpt lat="45.19632" lon="5.99454">
        <ele>2644.6</ele>
        <time>2021-04-17T09:27:06Z</time>
      </trkpt>
      <trkpt lat="45.19632" lon="5.99454">
        <ele>2644.6</ele>
        <time>2021-04-17T09:27:08Z</time>
      </trkpt>
      <trkpt lat="45.19632" lon="5.99454">
        <ele>2644.6</ele>
        <time>2021-04-17T09:27:09Z</time>
      </trkpt>
      <trkpt lat="45.19632" lon="5.99454">
        <ele>2644.6</ele>
        <time>2021-04-17T09:27:10Z</time>
      </trkpt>
      <trkpt lat="45.19632" lon="5.99454">
        <ele>2644.6</ele>
        <time>2021-04-17T09:27:12Z</time>
      </trkpt>
      <trkpt lat="45.19632" lon="5.99454">
        <ele>2644.6</ele>
        <time>2021-04-17T09:27:14Z</time>
      </trkpt>
      <trkpt lat="45.19632" lon="5.99454">
        <ele>2644.4</ele>
        <time>2021-04-17T09:27:16Z</time>
      </trkpt>
      <trkpt lat="45.19632" lon="5.99454">
        <ele>2644.4</ele>
        <time>2021-04-17T09:27:17Z</time>
      </trkpt>
      <trkpt lat="45.19632" lon="5.99454">
        <ele>2644.4</ele>
        <time>2021-04-17T09:27:18Z</time>
      </trkpt>
      <trkpt lat="45.19632" lon="5.99454">
        <ele>2644.4</ele>
        <time>2021-04-17T09:27:19Z</time>
      </trkpt>
      <trkpt lat="45.19632" lon="5.99454">
        <ele>2644.4</ele>
        <time>2021-04-17T09:27:20Z</time>
      </trkpt>
      <trkpt lat="45.19632" lon="5.99454">
        <ele>2644.6</ele>
        <time>2021-04-17T09:27:21Z</time>
      </trkpt>
      <trkpt lat="45.19632" lon="5.99454">
        <ele>2644.8</ele>
        <time>2021-04-17T09:27:27Z</time>
      </trkpt>
      <trkpt lat="45.19631" lon="5.99454">
        <ele>2644.8</ele>
        <time>2021-04-17T09:27:29Z</time>
      </trkpt>
      <trkpt lat="45.19631" lon="5.99454">
        <ele>2644.6</ele>
        <time>2021-04-17T09:27:34Z</time>
      </trkpt>
      <trkpt lat="45.19631" lon="5.99454">
        <ele>2644.8</ele>
        <time>2021-04-17T09:27:36Z</time>
      </trkpt>
      <trkpt lat="45.19632" lon="5.99453">
        <ele>2645</ele>
        <time>2021-04-17T09:27:39Z</time>
      </trkpt>
      <trkpt lat="45.19632" lon="5.99453">
        <ele>2645.2</ele>
        <time>2021-04-17T09:27:42Z</time>
      </trkpt>
      <trkpt lat="45.19632" lon="5.99453">
        <ele>2645.2</ele>
        <time>2021-04-17T09:27:47Z</time>
      </trkpt>
      <trkpt lat="45.19632" lon="5.99453">
        <ele>2645.2</ele>
        <time>2021-04-17T09:27:48Z</time>
      </trkpt>
      <trkpt lat="45.19632" lon="5.99453">
        <ele>2645</ele>
        <time>2021-04-17T09:27:49Z</time>
      </trkpt>
      <trkpt lat="45.19632" lon="5.99453">
        <ele>2644.8</ele>
        <time>2021-04-17T09:27:50Z</time>
      </trkpt>
      <trkpt lat="45.19632" lon="5.99453">
        <ele>2644</ele>
        <time>2021-04-17T09:27:56Z</time>
      </trkpt>
      <trkpt lat="45.19632" lon="5.99453">
        <ele>2644</ele>
        <time>2021-04-17T09:27:58Z</time>
      </trkpt>
      <trkpt lat="45.19632" lon="5.99453">
        <ele>2644.2</ele>
        <time>2021-04-17T09:28:03Z</time>
      </trkpt>
      <trkpt lat="45.19632" lon="5.99453">
        <ele>2644.4</ele>
        <time>2021-04-17T09:28:04Z</time>
      </trkpt>
      <trkpt lat="45.19632" lon="5.99453">
        <ele>2644.4</ele>
        <time>2021-04-17T09:28:06Z</time>
      </trkpt>
      <trkpt lat="45.19632" lon="5.99453">
        <ele>2644.4</ele>
        <time>2021-04-17T09:28:10Z</time>
      </trkpt>
      <trkpt lat="45.19632" lon="5.99453">
        <ele>2644.4</ele>
        <time>2021-04-17T09:28:11Z</time>
      </trkpt>
      <trkpt lat="45.19632" lon="5.99453">
        <ele>2644.4</ele>
        <time>2021-04-17T09:28:12Z</time>
      </trkpt>
      <trkpt lat="45.19632" lon="5.99453">
        <ele>2644.4</ele>
        <time>2021-04-17T09:28:13Z</time>
      </trkpt>
      <trkpt lat="45.19632" lon="5.99453">
        <ele>2644.4</ele>
        <time>2021-04-17T09:28:15Z</time>
      </trkpt>
      <trkpt lat="45.19632" lon="5.99453">
        <ele>2644.4</ele>
        <time>2021-04-17T09:28:16Z</time>
      </trkpt>
      <trkpt lat="45.19632" lon="5.99453">
        <ele>2644.4</ele>
        <time>2021-04-17T09:28:17Z</time>
      </trkpt>
      <trkpt lat="45.19632" lon="5.99453">
        <ele>2644.6</ele>
        <time>2021-04-17T09:28:18Z</time>
      </trkpt>
      <trkpt lat="45.19632" lon="5.99453">
        <ele>2644.6</ele>
        <time>2021-04-17T09:28:21Z</time>
      </trkpt>
      <trkpt lat="45.19632" lon="5.99453">
        <ele>2644.6</ele>
        <time>2021-04-17T09:28:22Z</time>
      </trkpt>
      <trkpt lat="45.19632" lon="5.99453">
        <ele>2644.6</ele>
        <time>2021-04-17T09:28:23Z</time>
      </trkpt>
      <trkpt lat="45.19632" lon="5.99453">
        <ele>2644.6</ele>
        <time>2021-04-17T09:28:25Z</time>
      </trkpt>
      <trkpt lat="45.19632" lon="5.99453">
        <ele>2645</ele>
        <time>2021-04-17T09:28:28Z</time>
      </trkpt>
      <trkpt lat="45.19632" lon="5.99453">
        <ele>2645.2</ele>
        <time>2021-04-17T09:28:34Z</time>
      </trkpt>
      <trkpt lat="45.19632" lon="5.99453">
        <ele>2645</ele>
        <time>2021-04-17T09:28:36Z</time>
      </trkpt>
      <trkpt lat="45.19632" lon="5.99453">
        <ele>2644.8</ele>
        <time>2021-04-17T09:28:42Z</time>
      </trkpt>
      <trkpt lat="45.19632" lon="5.99453">
        <ele>2644.8</ele>
        <time>2021-04-17T09:28:48Z</time>
      </trkpt>
      <trkpt lat="45.19632" lon="5.99453">
        <ele>2645.4</ele>
        <time>2021-04-17T09:28:53Z</time>
      </trkpt>
      <trkpt lat="45.19632" lon="5.99453">
        <ele>2645.4</ele>
        <time>2021-04-17T09:28:55Z</time>
      </trkpt>
      <trkpt lat="45.19632" lon="5.99453">
        <ele>2645.4</ele>
        <time>2021-04-17T09:28:56Z</time>
      </trkpt>
      <trkpt lat="45.19632" lon="5.99453">
        <ele>2645.4</ele>
        <time>2021-04-17T09:28:57Z</time>
      </trkpt>
      <trkpt lat="45.19632" lon="5.99453">
        <ele>2645.4</ele>
        <time>2021-04-17T09:28:58Z</time>
      </trkpt>
      <trkpt lat="45.19632" lon="5.99453">
        <ele>2645.4</ele>
        <time>2021-04-17T09:28:59Z</time>
      </trkpt>
      <trkpt lat="45.19632" lon="5.99453">
        <ele>2645.4</ele>
        <time>2021-04-17T09:29:01Z</time>
      </trkpt>
      <trkpt lat="45.19632" lon="5.99453">
        <ele>2645.2</ele>
        <time>2021-04-17T09:29:05Z</time>
      </trkpt>
      <trkpt lat="45.19632" lon="5.99453">
        <ele>2645.4</ele>
        <time>2021-04-17T09:29:07Z</time>
      </trkpt>
      <trkpt lat="45.19632" lon="5.99453">
        <ele>2645.4</ele>
        <time>2021-04-17T09:29:08Z</time>
      </trkpt>
      <trkpt lat="45.19632" lon="5.99453">
        <ele>2645.2</ele>
        <time>2021-04-17T09:29:09Z</time>
      </trkpt>
      <trkpt lat="45.19632" lon="5.99453">
        <ele>2645</ele>
        <time>2021-04-17T09:29:15Z</time>
      </trkpt>
      <trkpt lat="45.19632" lon="5.99453">
        <ele>2645</ele>
        <time>2021-04-17T09:29:18Z</time>
      </trkpt>
      <trkpt lat="45.19632" lon="5.99453">
        <ele>2645</ele>
        <time>2021-04-17T09:29:19Z</time>
      </trkpt>
      <trkpt lat="45.19632" lon="5.99453">
        <ele>2645</ele>
        <time>2021-04-17T09:29:21Z</time>
      </trkpt>
      <trkpt lat="45.19632" lon="5.99453">
        <ele>2645</ele>
        <time>2021-04-17T09:29:22Z</time>
      </trkpt>
      <trkpt lat="45.19632" lon="5.99453">
        <ele>2645</ele>
        <time>2021-04-17T09:29:23Z</time>
      </trkpt>
      <trkpt lat="45.19632" lon="5.99453">
        <ele>2645</ele>
        <time>2021-04-17T09:29:24Z</time>
      </trkpt>
      <trkpt lat="45.19632" lon="5.99453">
        <ele>2645.4</ele>
        <time>2021-04-17T09:29:29Z</time>
      </trkpt>
      <trkpt lat="45.19632" lon="5.99453">
        <ele>2645.4</ele>
        <time>2021-04-17T09:29:31Z</time>
      </trkpt>
      <trkpt lat="45.19632" lon="5.99453">
        <ele>2645.2</ele>
        <time>2021-04-17T09:29:33Z</time>
      </trkpt>
      <trkpt lat="45.19632" lon="5.99453">
        <ele>2645.2</ele>
        <time>2021-04-17T09:29:36Z</time>
      </trkpt>
      <trkpt lat="45.19632" lon="5.99453">
        <ele>2645</ele>
        <time>2021-04-17T09:29:39Z</time>
      </trkpt>
      <trkpt lat="45.19632" lon="5.99453">
        <ele>2645</ele>
        <time>2021-04-17T09:29:41Z</time>
      </trkpt>
      <trkpt lat="45.19632" lon="5.99453">
        <ele>2644.6</ele>
        <time>2021-04-17T09:29:47Z</time>
      </trkpt>
      <trkpt lat="45.19632" lon="5.99453">
        <ele>2644.8</ele>
        <time>2021-04-17T09:29:49Z</time>
      </trkpt>
      <trkpt lat="45.19632" lon="5.99453">
        <ele>2644.6</ele>
        <time>2021-04-17T09:29:52Z</time>
      </trkpt>
      <trkpt lat="45.19632" lon="5.99453">
        <ele>2644.4</ele>
        <time>2021-04-17T09:29:54Z</time>
      </trkpt>
      <trkpt lat="45.19632" lon="5.99453">
        <ele>2644.2</ele>
        <time>2021-04-17T09:29:57Z</time>
      </trkpt>
      <trkpt lat="45.19632" lon="5.99453">
        <ele>2644.2</ele>
        <time>2021-04-17T09:30:01Z</time>
      </trkpt>
      <trkpt lat="45.19632" lon="5.99453">
        <ele>2644.8</ele>
        <time>2021-04-17T09:30:07Z</time>
      </trkpt>
      <trkpt lat="45.19632" lon="5.99453">
        <ele>2645</ele>
        <time>2021-04-17T09:30:10Z</time>
      </trkpt>
      <trkpt lat="45.19632" lon="5.99453">
        <ele>2645.2</ele>
        <time>2021-04-17T09:30:14Z</time>
      </trkpt>
      <trkpt lat="45.19632" lon="5.99453">
        <ele>2645.6</ele>
        <time>2021-04-17T09:30:15Z</time>
      </trkpt>
      <trkpt lat="45.19632" lon="5.99453">
        <ele>2645.8</ele>
        <time>2021-04-17T09:30:16Z</time>
      </trkpt>
      <trkpt lat="45.19632" lon="5.99453">
        <ele>2646</ele>
        <time>2021-04-17T09:30:19Z</time>
      </trkpt>
      <trkpt lat="45.19632" lon="5.99453">
        <ele>2645.8</ele>
        <time>2021-04-17T09:30:21Z</time>
      </trkpt>
      <trkpt lat="45.19632" lon="5.99454">
        <ele>2645.8</ele>
        <time>2021-04-17T09:30:22Z</time>
      </trkpt>
      <trkpt lat="45.19632" lon="5.99454">
        <ele>2646.2</ele>
        <time>2021-04-17T09:30:28Z</time>
      </trkpt>
      <trkpt lat="45.19632" lon="5.99454">
        <ele>2646.4</ele>
        <time>2021-04-17T09:30:33Z</time>
      </trkpt>
      <trkpt lat="45.19632" lon="5.99454">
        <ele>2646.4</ele>
        <time>2021-04-17T09:30:35Z</time>
      </trkpt>
      <trkpt lat="45.19632" lon="5.99454">
        <ele>2646.4</ele>
        <time>2021-04-17T09:30:37Z</time>
      </trkpt>
      <trkpt lat="45.19632" lon="5.99454">
        <ele>2646.6</ele>
        <time>2021-04-17T09:30:38Z</time>
      </trkpt>
      <trkpt lat="45.19632" lon="5.99454">
        <ele>2646.6</ele>
        <time>2021-04-17T09:30:44Z</time>
      </trkpt>
      <trkpt lat="45.19632" lon="5.99454">
        <ele>2646.6</ele>
        <time>2021-04-17T09:30:46Z</time>
      </trkpt>
      <trkpt lat="45.19632" lon="5.99454">
        <ele>2646.4</ele>
        <time>2021-04-17T09:30:52Z</time>
      </trkpt>
      <trkpt lat="45.19632" lon="5.99454">
        <ele>2646.2</ele>
        <time>2021-04-17T09:30:57Z</time>
      </trkpt>
      <trkpt lat="45.19632" lon="5.99454">
        <ele>2646.2</ele>
        <time>2021-04-17T09:30:59Z</time>
      </trkpt>
      <trkpt lat="45.19632" lon="5.99454">
        <ele>2646.6</ele>
        <time>2021-04-17T09:31:01Z</time>
      </trkpt>
      <trkpt lat="45.19632" lon="5.99454">
        <ele>2647</ele>
        <time>2021-04-17T09:31:02Z</time>
      </trkpt>
      <trkpt lat="45.19632" lon="5.99454">
        <ele>2647.2</ele>
        <time>2021-04-17T09:31:04Z</time>
      </trkpt>
      <trkpt lat="45.19632" lon="5.99454">
        <ele>2647.4</ele>
        <time>2021-04-17T09:31:06Z</time>
      </trkpt>
      <trkpt lat="45.19632" lon="5.99454">
        <ele>2647.6</ele>
        <time>2021-04-17T09:31:08Z</time>
      </trkpt>
      <trkpt lat="45.19632" lon="5.99454">
        <ele>2647.6</ele>
        <time>2021-04-17T09:31:10Z</time>
      </trkpt>
      <trkpt lat="45.19632" lon="5.99454">
        <ele>2647.6</ele>
        <time>2021-04-17T09:31:16Z</time>
      </trkpt>
      <trkpt lat="45.19632" lon="5.99454">
        <ele>2647</ele>
        <time>2021-04-17T09:31:22Z</time>
      </trkpt>
      <trkpt lat="45.19632" lon="5.99454">
        <ele>2646.8</ele>
        <time>2021-04-17T09:31:26Z</time>
      </trkpt>
      <trkpt lat="45.19632" lon="5.99454">
        <ele>2647</ele>
        <time>2021-04-17T09:31:27Z</time>
      </trkpt>
      <trkpt lat="45.19632" lon="5.99454">
        <ele>2647.6</ele>
        <time>2021-04-17T09:31:32Z</time>
      </trkpt>
      <trkpt lat="45.19632" lon="5.99454">
        <ele>2647.8</ele>
        <time>2021-04-17T09:31:33Z</time>
      </trkpt>
      <trkpt lat="45.19632" lon="5.99454">
        <ele>2648</ele>
        <time>2021-04-17T09:31:34Z</time>
      </trkpt>
      <trkpt lat="45.19632" lon="5.99454">
        <ele>2648.2</ele>
        <time>2021-04-17T09:31:35Z</time>
      </trkpt>
      <trkpt lat="45.19632" lon="5.99454">
        <ele>2648</ele>
        <time>2021-04-17T09:31:36Z</time>
      </trkpt>
      <trkpt lat="45.19632" lon="5.99454">
        <ele>2648</ele>
        <time>2021-04-17T09:31:37Z</time>
      </trkpt>
      <trkpt lat="45.19632" lon="5.99454">
        <ele>2647.8</ele>
        <time>2021-04-17T09:31:39Z</time>
      </trkpt>
      <trkpt lat="45.19632" lon="5.99454">
        <ele>2647.8</ele>
        <time>2021-04-17T09:31:40Z</time>
      </trkpt>
      <trkpt lat="45.19632" lon="5.99454">
        <ele>2647.4</ele>
        <time>2021-04-17T09:31:43Z</time>
      </trkpt>
      <trkpt lat="45.19632" lon="5.99454">
        <ele>2647.6</ele>
        <time>2021-04-17T09:31:44Z</time>
      </trkpt>
      <trkpt lat="45.19632" lon="5.99454">
        <ele>2647.6</ele>
        <time>2021-04-17T09:31:45Z</time>
      </trkpt>
      <trkpt lat="45.19632" lon="5.99454">
        <ele>2647.6</ele>
        <time>2021-04-17T09:31:51Z</time>
      </trkpt>
      <trkpt lat="45.19632" lon="5.99454">
        <ele>2646.8</ele>
        <time>2021-04-17T09:31:54Z</time>
      </trkpt>
      <trkpt lat="45.19632" lon="5.99454">
        <ele>2646.8</ele>
        <time>2021-04-17T09:31:55Z</time>
      </trkpt>
      <trkpt lat="45.19632" lon="5.99454">
        <ele>2647</ele>
        <time>2021-04-17T09:31:57Z</time>
      </trkpt>
      <trkpt lat="45.19632" lon="5.99454">
        <ele>2647.2</ele>
        <time>2021-04-17T09:31:58Z</time>
      </trkpt>
      <trkpt lat="45.19632" lon="5.99454">
        <ele>2648</ele>
        <time>2021-04-17T09:32:01Z</time>
      </trkpt>
      <trkpt lat="45.19632" lon="5.99454">
        <ele>2648.4</ele>
        <time>2021-04-17T09:32:02Z</time>
      </trkpt>
      <trkpt lat="45.19632" lon="5.99454">
        <ele>2648.6</ele>
        <time>2021-04-17T09:32:03Z</time>
      </trkpt>
      <trkpt lat="45.19632" lon="5.99454">
        <ele>2649</ele>
        <time>2021-04-17T09:32:06Z</time>
      </trkpt>
      <trkpt lat="45.19632" lon="5.99454">
        <ele>2649.4</ele>
        <time>2021-04-17T09:32:08Z</time>
      </trkpt>
      <trkpt lat="45.19632" lon="5.99454">
        <ele>2649.6</ele>
        <time>2021-04-17T09:32:10Z</time>
      </trkpt>
      <trkpt lat="45.19632" lon="5.99454">
        <ele>2650.2</ele>
        <time>2021-04-17T09:32:13Z</time>
      </trkpt>
      <trkpt lat="45.19632" lon="5.99454">
        <ele>2650.4</ele>
        <time>2021-04-17T09:32:15Z</time>
      </trkpt>
      <trkpt lat="45.19632" lon="5.99454">
        <ele>2650.6</ele>
        <time>2021-04-17T09:32:16Z</time>
      </trkpt>
      <trkpt lat="45.19632" lon="5.99454">
        <ele>2651.2</ele>
        <time>2021-04-17T09:32:18Z</time>
      </trkpt>
      <trkpt lat="45.19632" lon="5.99454">
        <ele>2651.8</ele>
        <time>2021-04-17T09:32:20Z</time>
      </trkpt>
      <trkpt lat="45.19632" lon="5.99454">
        <ele>2652</ele>
        <time>2021-04-17T09:32:24Z</time>
      </trkpt>
      <trkpt lat="45.19632" lon="5.99454">
        <ele>2652.4</ele>
        <time>2021-04-17T09:32:30Z</time>
      </trkpt>
      <trkpt lat="45.19632" lon="5.99454">
        <ele>2652.6</ele>
        <time>2021-04-17T09:32:36Z</time>
      </trkpt>
      <trkpt lat="45.19633" lon="5.99454">
        <ele>2652.8</ele>
        <time>2021-04-17T09:32:38Z</time>
      </trkpt>
      <trkpt lat="45.19633" lon="5.99454">
        <ele>2653.2</ele>
        <time>2021-04-17T09:32:44Z</time>
      </trkpt>
      <trkpt lat="45.19633" lon="5.99454">
        <ele>2654</ele>
        <time>2021-04-17T09:32:47Z</time>
      </trkpt>
      <trkpt lat="45.19633" lon="5.99454">
        <ele>2654.6</ele>
        <time>2021-04-17T09:32:53Z</time>
      </trkpt>
      <trkpt lat="45.19633" lon="5.99454">
        <ele>2654.6</ele>
        <time>2021-04-17T09:32:54Z</time>
      </trkpt>
      <trkpt lat="45.19633" lon="5.99454">
        <ele>2655</ele>
        <time>2021-04-17T09:32:58Z</time>
      </trkpt>
      <trkpt lat="45.19633" lon="5.99454">
        <ele>2655.6</ele>
        <time>2021-04-17T09:33:04Z</time>
      </trkpt>
      <trkpt lat="45.19633" lon="5.99454">
        <ele>2656.2</ele>
        <time>2021-04-17T09:33:10Z</time>
      </trkpt>
      <trkpt lat="45.19634" lon="5.99455">
        <ele>2657.4</ele>
        <time>2021-04-17T09:33:16Z</time>
      </trkpt>
      <trkpt lat="45.19634" lon="5.99455">
        <ele>2657.8</ele>
        <time>2021-04-17T09:33:21Z</time>
      </trkpt>
      <trkpt lat="45.19634" lon="5.99455">
        <ele>2658.4</ele>
        <time>2021-04-17T09:33:25Z</time>
      </trkpt>
      <trkpt lat="45.19634" lon="5.99455">
        <ele>2659</ele>
        <time>2021-04-17T09:33:29Z</time>
      </trkpt>
      <trkpt lat="45.19634" lon="5.99455">
        <ele>2659</ele>
        <time>2021-04-17T09:33:30Z</time>
      </trkpt>
      <trkpt lat="45.19634" lon="5.99455">
        <ele>2659.4</ele>
        <time>2021-04-17T09:33:32Z</time>
      </trkpt>
      <trkpt lat="45.19634" lon="5.99455">
        <ele>2659.4</ele>
        <time>2021-04-17T09:33:33Z</time>
      </trkpt>
      <trkpt lat="45.19634" lon="5.99455">
        <ele>2659.4</ele>
        <time>2021-04-17T09:33:38Z</time>
      </trkpt>
      <trkpt lat="45.19635" lon="5.99455">
        <ele>2659.6</ele>
        <time>2021-04-17T09:33:44Z</time>
      </trkpt>
      <trkpt lat="45.19635" lon="5.99455">
        <ele>2660</ele>
        <time>2021-04-17T09:33:49Z</time>
      </trkpt>
      <trkpt lat="45.19635" lon="5.99455">
        <ele>2660</ele>
        <time>2021-04-17T09:33:50Z</time>
      </trkpt>
      <trkpt lat="45.19635" lon="5.99455">
        <ele>2660</ele>
        <time>2021-04-17T09:33:52Z</time>
      </trkpt>
      <trkpt lat="45.19635" lon="5.99455">
        <ele>2659.6</ele>
        <time>2021-04-17T09:33:57Z</time>
      </trkpt>
      <trkpt lat="45.19635" lon="5.99455">
        <ele>2659.6</ele>
        <time>2021-04-17T09:33:58Z</time>
      </trkpt>
      <trkpt lat="45.19635" lon="5.99455">
        <ele>2659.8</ele>
        <time>2021-04-17T09:34:00Z</time>
      </trkpt>
      <trkpt lat="45.19635" lon="5.99455">
        <ele>2660</ele>
        <time>2021-04-17T09:34:01Z</time>
      </trkpt>
      <trkpt lat="45.19636" lon="5.99455">
        <ele>2660</ele>
        <time>2021-04-17T09:34:02Z</time>
      </trkpt>
      <trkpt lat="45.19636" lon="5.99455">
        <ele>2660.2</ele>
        <time>2021-04-17T09:34:05Z</time>
      </trkpt>
      <trkpt lat="45.19636" lon="5.99455">
        <ele>2660.2</ele>
        <time>2021-04-17T09:34:06Z</time>
      </trkpt>
      <trkpt lat="45.19636" lon="5.99456">
        <ele>2660</ele>
        <time>2021-04-17T09:34:10Z</time>
      </trkpt>
      <trkpt lat="45.19636" lon="5.99456">
        <ele>2660</ele>
        <time>2021-04-17T09:34:12Z</time>
      </trkpt>
      <trkpt lat="45.19636" lon="5.99456">
        <ele>2660.2</ele>
        <time>2021-04-17T09:34:15Z</time>
      </trkpt>
      <trkpt lat="45.19636" lon="5.99456">
        <ele>2660.4</ele>
        <time>2021-04-17T09:34:17Z</time>
      </trkpt>
      <trkpt lat="45.19636" lon="5.99456">
        <ele>2660.4</ele>
        <time>2021-04-17T09:34:19Z</time>
      </trkpt>
      <trkpt lat="45.19636" lon="5.99456">
        <ele>2660.4</ele>
        <time>2021-04-17T09:34:21Z</time>
      </trkpt>
      <trkpt lat="45.19636" lon="5.99456">
        <ele>2660.4</ele>
        <time>2021-04-17T09:34:23Z</time>
      </trkpt>
      <trkpt lat="45.19637" lon="5.99456">
        <ele>2660.2</ele>
        <time>2021-04-17T09:34:25Z</time>
      </trkpt>
      <trkpt lat="45.19637" lon="5.99456">
        <ele>2660.4</ele>
        <time>2021-04-17T09:34:26Z</time>
      </trkpt>
      <trkpt lat="45.19637" lon="5.99456">
        <ele>2660.4</ele>
        <time>2021-04-17T09:34:27Z</time>
      </trkpt>
      <trkpt lat="45.19637" lon="5.99456">
        <ele>2660.6</ele>
        <time>2021-04-17T09:34:33Z</time>
      </trkpt>
      <trkpt lat="45.19637" lon="5.99456">
        <ele>2660.4</ele>
        <time>2021-04-17T09:34:35Z</time>
      </trkpt>
      <trkpt lat="45.19637" lon="5.99456">
        <ele>2660.4</ele>
        <time>2021-04-17T09:34:37Z</time>
      </trkpt>
      <trkpt lat="45.19637" lon="5.99456">
        <ele>2659.8</ele>
        <time>2021-04-17T09:34:43Z</time>
      </trkpt>
      <trkpt lat="45.19638" lon="5.99456">
        <ele>2660</ele>
        <time>2021-04-17T09:34:44Z</time>
      </trkpt>
      <trkpt lat="45.19638" lon="5.99456">
        <ele>2660.2</ele>
        <time>2021-04-17T09:34:47Z</time>
      </trkpt>
      <trkpt lat="45.19638" lon="5.99456">
        <ele>2660.6</ele>
        <time>2021-04-17T09:34:49Z</time>
      </trkpt>
      <trkpt lat="45.19638" lon="5.99456">
        <ele>2660.8</ele>
        <time>2021-04-17T09:34:51Z</time>
      </trkpt>
      <trkpt lat="45.19638" lon="5.99456">
        <ele>2661.2</ele>
        <time>2021-04-17T09:34:54Z</time>
      </trkpt>
      <trkpt lat="45.19638" lon="5.99456">
        <ele>2661.6</ele>
        <time>2021-04-17T09:34:56Z</time>
      </trkpt>
      <trkpt lat="45.19638" lon="5.99456">
        <ele>2662.4</ele>
        <time>2021-04-17T09:34:59Z</time>
      </trkpt>
      <trkpt lat="45.19638" lon="5.99456">
        <ele>2662.6</ele>
        <time>2021-04-17T09:35:00Z</time>
      </trkpt>
      <trkpt lat="45.19638" lon="5.99456">
        <ele>2663.2</ele>
        <time>2021-04-17T09:35:02Z</time>
      </trkpt>
      <trkpt lat="45.19639" lon="5.99457">
        <ele>2663.6</ele>
        <time>2021-04-17T09:35:04Z</time>
      </trkpt>
      <trkpt lat="45.19639" lon="5.99457">
        <ele>2663.6</ele>
        <time>2021-04-17T09:35:05Z</time>
      </trkpt>
      <trkpt lat="45.19639" lon="5.99457">
        <ele>2664.2</ele>
        <time>2021-04-17T09:35:08Z</time>
      </trkpt>
      <trkpt lat="45.19639" lon="5.99457">
        <ele>2664.6</ele>
        <time>2021-04-17T09:35:10Z</time>
      </trkpt>
      <trkpt lat="45.19639" lon="5.99457">
        <ele>2665</ele>
        <time>2021-04-17T09:35:11Z</time>
      </trkpt>
      <trkpt lat="45.19639" lon="5.99457">
        <ele>2666</ele>
        <time>2021-04-17T09:35:15Z</time>
      </trkpt>
      <trkpt lat="45.19639" lon="5.99457">
        <ele>2666.6</ele>
        <time>2021-04-17T09:35:18Z</time>
      </trkpt>
      <trkpt lat="45.19654" lon="5.99465">
        <ele>2667</ele>
        <time>2021-04-17T09:35:21Z</time>
      </trkpt>
      <trkpt lat="45.1967" lon="5.99473">
        <ele>2667</ele>
        <time>2021-04-17T09:35:24Z</time>
      </trkpt>
      <trkpt lat="45.19692" lon="5.99483">
        <ele>2666.8</ele>
        <time>2021-04-17T09:35:30Z</time>
      </trkpt>
      <trkpt lat="45.19695" lon="5.99484">
        <ele>2667.2</ele>
        <time>2021-04-17T09:35:34Z</time>
      </trkpt>
      <trkpt lat="45.19698" lon="5.99485">
        <ele>2668</ele>
        <time>2021-04-17T09:35:40Z</time>
      </trkpt>
      <trkpt lat="45.19699" lon="5.99485">
        <ele>2668.2</ele>
        <time>2021-04-17T09:35:41Z</time>
      </trkpt>
      <trkpt lat="45.197" lon="5.99484">
        <ele>2668.8</ele>
        <time>2021-04-17T09:35:44Z</time>
      </trkpt>
      <trkpt lat="45.19704" lon="5.99487">
        <ele>2669.2</ele>
        <time>2021-04-17T09:35:50Z</time>
      </trkpt>
      <trkpt lat="45.19705" lon="5.99489">
        <ele>2669.4</ele>
        <time>2021-04-17T09:35:53Z</time>
      </trkpt>
      <trkpt lat="45.19705" lon="5.99491">
        <ele>2670.2</ele>
        <time>2021-04-17T09:35:57Z</time>
      </trkpt>
      <trkpt lat="45.19707" lon="5.99494">
        <ele>2670.8</ele>
        <time>2021-04-17T09:36:01Z</time>
      </trkpt>
      <trkpt lat="45.19708" lon="5.99497">
        <ele>2671.2</ele>
        <time>2021-04-17T09:36:05Z</time>
      </trkpt>
      <trkpt lat="45.19709" lon="5.99499">
        <ele>2671.2</ele>
        <time>2021-04-17T09:36:07Z</time>
      </trkpt>
      <trkpt lat="45.19709" lon="5.99499">
        <ele>2671.4</ele>
        <time>2021-04-17T09:36:12Z</time>
      </trkpt>
      <trkpt lat="45.19709" lon="5.99499">
        <ele>2671.4</ele>
        <time>2021-04-17T09:36:14Z</time>
      </trkpt>
      <trkpt lat="45.19709" lon="5.99501">
        <ele>2671.8</ele>
        <time>2021-04-17T09:36:17Z</time>
      </trkpt>
      <trkpt lat="45.19709" lon="5.99504">
        <ele>2671.8</ele>
        <time>2021-04-17T09:36:23Z</time>
      </trkpt>
      <trkpt lat="45.19709" lon="5.99505">
        <ele>2671.8</ele>
        <time>2021-04-17T09:36:25Z</time>
      </trkpt>
      <trkpt lat="45.19709" lon="5.99505">
        <ele>2671.8</ele>
        <time>2021-04-17T09:36:26Z</time>
      </trkpt>
      <trkpt lat="45.19708" lon="5.99504">
        <ele>2671.6</ele>
        <time>2021-04-17T09:36:29Z</time>
      </trkpt>
      <trkpt lat="45.19708" lon="5.99504">
        <ele>2671.6</ele>
        <time>2021-04-17T09:36:30Z</time>
      </trkpt>
      <trkpt lat="45.19708" lon="5.99504">
        <ele>2671.6</ele>
        <time>2021-04-17T09:36:33Z</time>
      </trkpt>
      <trkpt lat="45.19708" lon="5.99504">
        <ele>2671.8</ele>
        <time>2021-04-17T09:36:39Z</time>
      </trkpt>
      <trkpt lat="45.19708" lon="5.99504">
        <ele>2671.8</ele>
        <time>2021-04-17T09:36:41Z</time>
      </trkpt>
      <trkpt lat="45.19708" lon="5.99504">
        <ele>2672</ele>
        <time>2021-04-17T09:36:42Z</time>
      </trkpt>
      <trkpt lat="45.19708" lon="5.99504">
        <ele>2672.2</ele>
        <time>2021-04-17T09:36:46Z</time>
      </trkpt>
      <trkpt lat="45.19708" lon="5.99504">
        <ele>2672.2</ele>
        <time>2021-04-17T09:36:47Z</time>
      </trkpt>
      <trkpt lat="45.19708" lon="5.99504">
        <ele>2672</ele>
        <time>2021-04-17T09:36:50Z</time>
      </trkpt>
      <trkpt lat="45.19708" lon="5.99504">
        <ele>2671.6</ele>
        <time>2021-04-17T09:36:53Z</time>
      </trkpt>
      <trkpt lat="45.19708" lon="5.99504">
        <ele>2671.6</ele>
        <time>2021-04-17T09:36:56Z</time>
      </trkpt>
      <trkpt lat="45.19708" lon="5.99505">
        <ele>2671.6</ele>
        <time>2021-04-17T09:36:58Z</time>
      </trkpt>
      <trkpt lat="45.19708" lon="5.99505">
        <ele>2671.6</ele>
        <time>2021-04-17T09:37:00Z</time>
      </trkpt>
      <trkpt lat="45.19707" lon="5.99505">
        <ele>2671.8</ele>
        <time>2021-04-17T09:37:03Z</time>
      </trkpt>
      <trkpt lat="45.19707" lon="5.99505">
        <ele>2671.8</ele>
        <time>2021-04-17T09:37:04Z</time>
      </trkpt>
      <trkpt lat="45.19707" lon="5.99505">
        <ele>2671.8</ele>
        <time>2021-04-17T09:37:05Z</time>
      </trkpt>
      <trkpt lat="45.19707" lon="5.99505">
        <ele>2672</ele>
        <time>2021-04-17T09:37:07Z</time>
      </trkpt>
      <trkpt lat="45.19707" lon="5.99505">
        <ele>2672.4</ele>
        <time>2021-04-17T09:37:09Z</time>
      </trkpt>
      <trkpt lat="45.19707" lon="5.99505">
        <ele>2673</ele>
        <time>2021-04-17T09:37:13Z</time>
      </trkpt>
      <trkpt lat="45.19707" lon="5.99506">
        <ele>2673.4</ele>
        <time>2021-04-17T09:37:15Z</time>
      </trkpt>
      <trkpt lat="45.19707" lon="5.99508">
        <ele>2674.4</ele>
        <time>2021-04-17T09:37:21Z</time>
      </trkpt>
      <trkpt lat="45.19707" lon="5.99509">
        <ele>2674.6</ele>
        <time>2021-04-17T09:37:23Z</time>
      </trkpt>
      <trkpt lat="45.19707" lon="5.9951">
        <ele>2674.8</ele>
        <time>2021-04-17T09:37:25Z</time>
      </trkpt>
      <trkpt lat="45.19706" lon="5.99511">
        <ele>2674.8</ele>
        <time>2021-04-17T09:37:27Z</time>
      </trkpt>
      <trkpt lat="45.19706" lon="5.99512">
        <ele>2675</ele>
        <time>2021-04-17T09:37:29Z</time>
      </trkpt>
      <trkpt lat="45.19706" lon="5.99512">
        <ele>2675.4</ele>
        <time>2021-04-17T09:37:32Z</time>
      </trkpt>
      <trkpt lat="45.19706" lon="5.99512">
        <ele>2675.6</ele>
        <time>2021-04-17T09:37:35Z</time>
      </trkpt>
      <trkpt lat="45.19706" lon="5.99513">
        <ele>2676.4</ele>
        <time>2021-04-17T09:37:38Z</time>
      </trkpt>
      <trkpt lat="45.19706" lon="5.99514">
        <ele>2676.6</ele>
        <time>2021-04-17T09:37:39Z</time>
      </trkpt>
      <trkpt lat="45.19705" lon="5.99516">
        <ele>2677</ele>
        <time>2021-04-17T09:37:43Z</time>
      </trkpt>
      <trkpt lat="45.19705" lon="5.99518">
        <ele>2677.2</ele>
        <time>2021-04-17T09:37:47Z</time>
      </trkpt>
      <trkpt lat="45.19705" lon="5.99521">
        <ele>2676.8</ele>
        <time>2021-04-17T09:37:53Z</time>
      </trkpt>
      <trkpt lat="45.19706" lon="5.99524">
        <ele>2676.8</ele>
        <time>2021-04-17T09:37:59Z</time>
      </trkpt>
      <trkpt lat="45.19706" lon="5.99525">
        <ele>2676.8</ele>
        <time>2021-04-17T09:38:01Z</time>
      </trkpt>
      <trkpt lat="45.19706" lon="5.99526">
        <ele>2676.8</ele>
        <time>2021-04-17T09:38:05Z</time>
      </trkpt>
      <trkpt lat="45.19706" lon="5.99526">
        <ele>2676.8</ele>
        <time>2021-04-17T09:38:08Z</time>
      </trkpt>
      <trkpt lat="45.19707" lon="5.99526">
        <ele>2676.8</ele>
        <time>2021-04-17T09:38:12Z</time>
      </trkpt>
      <trkpt lat="45.19707" lon="5.99526">
        <ele>2676.8</ele>
        <time>2021-04-17T09:38:13Z</time>
      </trkpt>
      <trkpt lat="45.19707" lon="5.99526">
        <ele>2676.8</ele>
        <time>2021-04-17T09:38:14Z</time>
      </trkpt>
      <trkpt lat="45.19707" lon="5.99526">
        <ele>2676.8</ele>
        <time>2021-04-17T09:38:15Z</time>
      </trkpt>
      <trkpt lat="45.19707" lon="5.99527">
        <ele>2676.8</ele>
        <time>2021-04-17T09:38:17Z</time>
      </trkpt>
      <trkpt lat="45.19708" lon="5.99527">
        <ele>2677</ele>
        <time>2021-04-17T09:38:23Z</time>
      </trkpt>
      <trkpt lat="45.1971" lon="5.99527">
        <ele>2677.2</ele>
        <time>2021-04-17T09:38:29Z</time>
      </trkpt>
      <trkpt lat="45.1971" lon="5.99527">
        <ele>2677.4</ele>
        <time>2021-04-17T09:38:35Z</time>
      </trkpt>
      <trkpt lat="45.1971" lon="5.99527">
        <ele>2677.4</ele>
        <time>2021-04-17T09:38:36Z</time>
      </trkpt>
      <trkpt lat="45.1971" lon="5.99527">
        <ele>2677.4</ele>
        <time>2021-04-17T09:38:37Z</time>
      </trkpt>
      <trkpt lat="45.19711" lon="5.99527">
        <ele>2677.2</ele>
        <time>2021-04-17T09:38:43Z</time>
      </trkpt>
      <trkpt lat="45.19711" lon="5.99527">
        <ele>2677.2</ele>
        <time>2021-04-17T09:38:44Z</time>
      </trkpt>
      <trkpt lat="45.19711" lon="5.99527">
        <ele>2677.2</ele>
        <time>2021-04-17T09:38:48Z</time>
      </trkpt>
      <trkpt lat="45.19711" lon="5.99527">
        <ele>2677.4</ele>
        <time>2021-04-17T09:38:49Z</time>
      </trkpt>
      <trkpt lat="45.19711" lon="5.99527">
        <ele>2677.2</ele>
        <time>2021-04-17T09:38:51Z</time>
      </trkpt>
      <trkpt lat="45.19711" lon="5.99527">
        <ele>2677</ele>
        <time>2021-04-17T09:38:53Z</time>
      </trkpt>
      <trkpt lat="45.19711" lon="5.99527">
        <ele>2677</ele>
        <time>2021-04-17T09:38:55Z</time>
      </trkpt>
      <trkpt lat="45.19711" lon="5.99527">
        <ele>2677</ele>
        <time>2021-04-17T09:38:56Z</time>
      </trkpt>
      <trkpt lat="45.19711" lon="5.99527">
        <ele>2676.8</ele>
        <time>2021-04-17T09:39:02Z</time>
      </trkpt>
      <trkpt lat="45.19711" lon="5.99527">
        <ele>2676.8</ele>
        <time>2021-04-17T09:39:06Z</time>
      </trkpt>
      <trkpt lat="45.19711" lon="5.99527">
        <ele>2676.8</ele>
        <time>2021-04-17T09:39:07Z</time>
      </trkpt>
      <trkpt lat="45.19711" lon="5.99526">
        <ele>2677</ele>
        <time>2021-04-17T09:39:12Z</time>
      </trkpt>
      <trkpt lat="45.19711" lon="5.99526">
        <ele>2677</ele>
        <time>2021-04-17T09:39:14Z</time>
      </trkpt>
      <trkpt lat="45.19711" lon="5.99526">
        <ele>2677</ele>
        <time>2021-04-17T09:39:15Z</time>
      </trkpt>
      <trkpt lat="45.19711" lon="5.99525">
        <ele>2677</ele>
        <time>2021-04-17T09:39:17Z</time>
      </trkpt>
      <trkpt lat="45.19711" lon="5.99524">
        <ele>2677</ele>
        <time>2021-04-17T09:39:21Z</time>
      </trkpt>
      <trkpt lat="45.19711" lon="5.99524">
        <ele>2677</ele>
        <time>2021-04-17T09:39:23Z</time>
      </trkpt>
      <trkpt lat="45.19711" lon="5.99523">
        <ele>2677</ele>
        <time>2021-04-17T09:39:25Z</time>
      </trkpt>
      <trkpt lat="45.19711" lon="5.99523">
        <ele>2677</ele>
        <time>2021-04-17T09:39:28Z</time>
      </trkpt>
      <trkpt lat="45.19711" lon="5.99522">
        <ele>2677</ele>
        <time>2021-04-17T09:39:29Z</time>
      </trkpt>
      <trkpt lat="45.19711" lon="5.99521">
        <ele>2677</ele>
        <time>2021-04-17T09:39:35Z</time>
      </trkpt>
      <trkpt lat="45.19711" lon="5.9952">
        <ele>2677</ele>
        <time>2021-04-17T09:39:38Z</time>
      </trkpt>
      <trkpt lat="45.19711" lon="5.99519">
        <ele>2677</ele>
        <time>2021-04-17T09:39:42Z</time>
      </trkpt>
      <trkpt lat="45.19711" lon="5.99518">
        <ele>2677</ele>
        <time>2021-04-17T09:39:48Z</time>
      </trkpt>
      <trkpt lat="45.19711" lon="5.99518">
        <ele>2677</ele>
        <time>2021-04-17T09:39:54Z</time>
      </trkpt>
      <trkpt lat="45.19711" lon="5.99518">
        <ele>2677</ele>
        <time>2021-04-17T09:39:57Z</time>
      </trkpt>
      <trkpt lat="45.19711" lon="5.99518">
        <ele>2677</ele>
        <time>2021-04-17T09:40:00Z</time>
      </trkpt>
      <trkpt lat="45.1971" lon="5.99515">
        <ele>2677</ele>
        <time>2021-04-17T09:40:06Z</time>
      </trkpt>
      <trkpt lat="45.1971" lon="5.99507">
        <ele>2677</ele>
        <time>2021-04-17T09:40:09Z</time>
      </trkpt>
      <trkpt lat="45.1971" lon="5.99505">
        <ele>2669.4</ele>
        <time>2021-04-17T09:40:10Z</time>
      </trkpt>
      <trkpt lat="45.1971" lon="5.99503">
        <ele>2669.8</ele>
        <time>2021-04-17T09:40:11Z</time>
      </trkpt>
      <trkpt lat="45.1971" lon="5.99494">
        <ele>2669.8</ele>
        <time>2021-04-17T09:40:14Z</time>
      </trkpt>
      <trkpt lat="45.1971" lon="5.99494">
        <ele>2669.8</ele>
        <time>2021-04-17T09:40:16Z</time>
      </trkpt>
      <trkpt lat="45.1971" lon="5.99494">
        <ele>2670</ele>
        <time>2021-04-17T09:40:18Z</time>
      </trkpt>
      <trkpt lat="45.1971" lon="5.99494">
        <ele>2669.8</ele>
        <time>2021-04-17T09:40:20Z</time>
      </trkpt>
      <trkpt lat="45.1971" lon="5.99493">
        <ele>2669.2</ele>
        <time>2021-04-17T09:40:26Z</time>
      </trkpt>
      <trkpt lat="45.19709" lon="5.99492">
        <ele>2669</ele>
        <time>2021-04-17T09:40:28Z</time>
      </trkpt>
      <trkpt lat="45.19709" lon="5.99492">
        <ele>2668.8</ele>
        <time>2021-04-17T09:40:29Z</time>
      </trkpt>
      <trkpt lat="45.19709" lon="5.99492">
        <ele>2668.6</ele>
        <time>2021-04-17T09:40:31Z</time>
      </trkpt>
      <trkpt lat="45.19709" lon="5.99491">
        <ele>2668.6</ele>
        <time>2021-04-17T09:40:33Z</time>
      </trkpt>
      <trkpt lat="45.19707" lon="5.99491">
        <ele>2668.4</ele>
        <time>2021-04-17T09:40:34Z</time>
      </trkpt>
      <trkpt lat="45.19704" lon="5.99489">
        <ele>2668.4</ele>
        <time>2021-04-17T09:40:36Z</time>
      </trkpt>
      <trkpt lat="45.19703" lon="5.99488">
        <ele>2668.4</ele>
        <time>2021-04-17T09:40:37Z</time>
      </trkpt>
      <trkpt lat="45.19702" lon="5.99487">
        <ele>2668.2</ele>
        <time>2021-04-17T09:40:38Z</time>
      </trkpt>
      <trkpt lat="45.19698" lon="5.99483">
        <ele>2667.4</ele>
        <time>2021-04-17T09:40:41Z</time>
      </trkpt>
      <trkpt lat="45.19696" lon="5.9948">
        <ele>2667.2</ele>
        <time>2021-04-17T09:40:43Z</time>
      </trkpt>
      <trkpt lat="45.19694" lon="5.99478">
        <ele>2667</ele>
        <time>2021-04-17T09:40:45Z</time>
      </trkpt>
      <trkpt lat="45.19692" lon="5.99474">
        <ele>2666.2</ele>
        <time>2021-04-17T09:40:48Z</time>
      </trkpt>
      <trkpt lat="45.19692" lon="5.99473">
        <ele>2666</ele>
        <time>2021-04-17T09:40:49Z</time>
      </trkpt>
      <trkpt lat="45.19693" lon="5.99474">
        <ele>2666</ele>
        <time>2021-04-17T09:40:50Z</time>
      </trkpt>
      <trkpt lat="45.19693" lon="5.99474">
        <ele>2666</ele>
        <time>2021-04-17T09:40:51Z</time>
      </trkpt>
      <trkpt lat="45.19693" lon="5.99472">
        <ele>2665.8</ele>
        <time>2021-04-17T09:40:53Z</time>
      </trkpt>
      <trkpt lat="45.19692" lon="5.99471">
        <ele>2665.8</ele>
        <time>2021-04-17T09:40:54Z</time>
      </trkpt>
      <trkpt lat="45.19692" lon="5.9947">
        <ele>2665.8</ele>
        <time>2021-04-17T09:40:55Z</time>
      </trkpt>
      <trkpt lat="45.19691" lon="5.99469">
        <ele>2665.6</ele>
        <time>2021-04-17T09:40:57Z</time>
      </trkpt>
      <trkpt lat="45.19691" lon="5.99469">
        <ele>2665.6</ele>
        <time>2021-04-17T09:40:58Z</time>
      </trkpt>
      <trkpt lat="45.1969" lon="5.99472">
        <ele>2666</ele>
        <time>2021-04-17T09:41:04Z</time>
      </trkpt>
      <trkpt lat="45.19689" lon="5.99473">
        <ele>2666.6</ele>
        <time>2021-04-17T09:41:09Z</time>
      </trkpt>
      <trkpt lat="45.19689" lon="5.99473">
        <ele>2666.6</ele>
        <time>2021-04-17T09:41:10Z</time>
      </trkpt>
      <trkpt lat="45.1969" lon="5.99475">
        <ele>2666.6</ele>
        <time>2021-04-17T09:41:16Z</time>
      </trkpt>
      <trkpt lat="45.1969" lon="5.99475">
        <ele>2666.6</ele>
        <time>2021-04-17T09:41:17Z</time>
      </trkpt>
      <trkpt lat="45.19691" lon="5.99477">
        <ele>2667</ele>
        <time>2021-04-17T09:41:21Z</time>
      </trkpt>
      <trkpt lat="45.19691" lon="5.99476">
        <ele>2666.8</ele>
        <time>2021-04-17T09:41:24Z</time>
      </trkpt>
      <trkpt lat="45.19691" lon="5.99476">
        <ele>2666.4</ele>
        <time>2021-04-17T09:41:28Z</time>
      </trkpt>
      <trkpt lat="45.19691" lon="5.99476">
        <ele>2666.6</ele>
        <time>2021-04-17T09:41:33Z</time>
      </trkpt>
      <trkpt lat="45.19691" lon="5.99476">
        <ele>2666.2</ele>
        <time>2021-04-17T09:41:38Z</time>
      </trkpt>
      <trkpt lat="45.19691" lon="5.99476">
        <ele>2666</ele>
        <time>2021-04-17T09:41:40Z</time>
      </trkpt>
      <trkpt lat="45.19691" lon="5.99477">
        <ele>2665.8</ele>
        <time>2021-04-17T09:41:43Z</time>
      </trkpt>
      <trkpt lat="45.19691" lon="5.99477">
        <ele>2666</ele>
        <time>2021-04-17T09:41:45Z</time>
      </trkpt>
      <trkpt lat="45.19691" lon="5.99477">
        <ele>2666</ele>
        <time>2021-04-17T09:41:46Z</time>
      </trkpt>
      <trkpt lat="45.1969" lon="5.99477">
        <ele>2666</ele>
        <time>2021-04-17T09:41:47Z</time>
      </trkpt>
      <trkpt lat="45.1969" lon="5.99477">
        <ele>2666</ele>
        <time>2021-04-17T09:41:48Z</time>
      </trkpt>
      <trkpt lat="45.19689" lon="5.99476">
        <ele>2667.2</ele>
        <time>2021-04-17T09:41:54Z</time>
      </trkpt>
      <trkpt lat="45.19688" lon="5.99476">
        <ele>2667.6</ele>
        <time>2021-04-17T09:41:58Z</time>
      </trkpt>
      <trkpt lat="45.19687" lon="5.99476">
        <ele>2667.6</ele>
        <time>2021-04-17T09:42:00Z</time>
      </trkpt>
      <trkpt lat="45.19686" lon="5.99473">
        <ele>2666.8</ele>
        <time>2021-04-17T09:42:05Z</time>
      </trkpt>
      <trkpt lat="45.19686" lon="5.99472">
        <ele>2666.6</ele>
        <time>2021-04-17T09:42:07Z</time>
      </trkpt>
      <trkpt lat="45.19686" lon="5.99471">
        <ele>2666.8</ele>
        <time>2021-04-17T09:42:09Z</time>
      </trkpt>
      <trkpt lat="45.19686" lon="5.99471">
        <ele>2666.2</ele>
        <time>2021-04-17T09:42:12Z</time>
      </trkpt>
      <trkpt lat="45.19686" lon="5.99471">
        <ele>2666.2</ele>
        <time>2021-04-17T09:42:13Z</time>
      </trkpt>
      <trkpt lat="45.19686" lon="5.9947">
        <ele>2666.2</ele>
        <time>2021-04-17T09:42:18Z</time>
      </trkpt>
      <trkpt lat="45.19687" lon="5.9947">
        <ele>2666.2</ele>
        <time>2021-04-17T09:42:24Z</time>
      </trkpt>
      <trkpt lat="45.19687" lon="5.9947">
        <ele>2666.2</ele>
        <time>2021-04-17T09:42:25Z</time>
      </trkpt>
      <trkpt lat="45.19687" lon="5.9947">
        <ele>2666.2</ele>
        <time>2021-04-17T09:42:26Z</time>
      </trkpt>
      <trkpt lat="45.19687" lon="5.9947">
        <ele>2666.2</ele>
        <time>2021-04-17T09:42:27Z</time>
      </trkpt>
      <trkpt lat="45.19687" lon="5.9947">
        <ele>2666.2</ele>
        <time>2021-04-17T09:42:29Z</time>
      </trkpt>
      <trkpt lat="45.19688" lon="5.9947">
        <ele>2666.2</ele>
        <time>2021-04-17T09:42:30Z</time>
      </trkpt>
      <trkpt lat="45.19688" lon="5.99471">
        <ele>2666.2</ele>
        <time>2021-04-17T09:42:31Z</time>
      </trkpt>
      <trkpt lat="45.19688" lon="5.99471">
        <ele>2666.2</ele>
        <time>2021-04-17T09:42:32Z</time>
      </trkpt>
      <trkpt lat="45.19688" lon="5.99471">
        <ele>2666.2</ele>
        <time>2021-04-17T09:42:33Z</time>
      </trkpt>
      <trkpt lat="45.19688" lon="5.99471">
        <ele>2666.2</ele>
        <time>2021-04-17T09:42:34Z</time>
      </trkpt>
      <trkpt lat="45.19689" lon="5.99472">
        <ele>2666.2</ele>
        <time>2021-04-17T09:42:36Z</time>
      </trkpt>
      <trkpt lat="45.19689" lon="5.99473">
        <ele>2666.2</ele>
        <time>2021-04-17T09:42:39Z</time>
      </trkpt>
      <trkpt lat="45.1969" lon="5.99474">
        <ele>2666.2</ele>
        <time>2021-04-17T09:42:45Z</time>
      </trkpt>
      <trkpt lat="45.19691" lon="5.99475">
        <ele>2666.2</ele>
        <time>2021-04-17T09:42:51Z</time>
      </trkpt>
      <trkpt lat="45.19691" lon="5.99475">
        <ele>2666.2</ele>
        <time>2021-04-17T09:42:57Z</time>
      </trkpt>
      <trkpt lat="45.19691" lon="5.99475">
        <ele>2666.2</ele>
        <time>2021-04-17T09:43:02Z</time>
      </trkpt>
      <trkpt lat="45.19691" lon="5.99475">
        <ele>2666.2</ele>
        <time>2021-04-17T09:43:03Z</time>
      </trkpt>
      <trkpt lat="45.19691" lon="5.99475">
        <ele>2666.2</ele>
        <time>2021-04-17T09:43:04Z</time>
      </trkpt>
      <trkpt lat="45.19691" lon="5.99475">
        <ele>2666.2</ele>
        <time>2021-04-17T09:43:07Z</time>
      </trkpt>
      <trkpt lat="45.19691" lon="5.99475">
        <ele>2666.2</ele>
        <time>2021-04-17T09:43:09Z</time>
      </trkpt>
      <trkpt lat="45.19691" lon="5.99475">
        <ele>2666.2</ele>
        <time>2021-04-17T09:43:11Z</time>
      </trkpt>
      <trkpt lat="45.19691" lon="5.99475">
        <ele>2666.2</ele>
        <time>2021-04-17T09:43:14Z</time>
      </trkpt>
      <trkpt lat="45.19691" lon="5.99475">
        <ele>2666.2</ele>
        <time>2021-04-17T09:43:20Z</time>
      </trkpt>
      <trkpt lat="45.19691" lon="5.99475">
        <ele>2666.2</ele>
        <time>2021-04-17T09:43:23Z</time>
      </trkpt>
      <trkpt lat="45.19691" lon="5.99475">
        <ele>2666.2</ele>
        <time>2021-04-17T09:43:24Z</time>
      </trkpt>
      <trkpt lat="45.19691" lon="5.99475">
        <ele>2666.2</ele>
        <time>2021-04-17T09:43:25Z</time>
      </trkpt>
      <trkpt lat="45.19691" lon="5.99475">
        <ele>2666.2</ele>
        <time>2021-04-17T09:43:29Z</time>
      </trkpt>
      <trkpt lat="45.19691" lon="5.99475">
        <ele>2666.2</ele>
        <time>2021-04-17T09:43:32Z</time>
      </trkpt>
      <trkpt lat="45.19691" lon="5.99475">
        <ele>2666.2</ele>
        <time>2021-04-17T09:43:33Z</time>
      </trkpt>
      <trkpt lat="45.19691" lon="5.99475">
        <ele>2666.2</ele>
        <time>2021-04-17T09:43:34Z</time>
      </trkpt>
      <trkpt lat="45.19691" lon="5.99475">
        <ele>2666.2</ele>
        <time>2021-04-17T09:43:39Z</time>
      </trkpt>
      <trkpt lat="45.19691" lon="5.99474">
        <ele>2666.2</ele>
        <time>2021-04-17T09:43:41Z</time>
      </trkpt>
      <trkpt lat="45.19691" lon="5.99474">
        <ele>2666.2</ele>
        <time>2021-04-17T09:43:47Z</time>
      </trkpt>
      <trkpt lat="45.19691" lon="5.99474">
        <ele>2666.2</ele>
        <time>2021-04-17T09:43:49Z</time>
      </trkpt>
      <trkpt lat="45.19691" lon="5.99474">
        <ele>2666.2</ele>
        <time>2021-04-17T09:43:54Z</time>
      </trkpt>
      <trkpt lat="45.19691" lon="5.99474">
        <ele>2666.2</ele>
        <time>2021-04-17T09:43:55Z</time>
      </trkpt>
      <trkpt lat="45.19691" lon="5.99474">
        <ele>2666.2</ele>
        <time>2021-04-17T09:43:56Z</time>
      </trkpt>
      <trkpt lat="45.19691" lon="5.99474">
        <ele>2666.2</ele>
        <time>2021-04-17T09:43:58Z</time>
      </trkpt>
      <trkpt lat="45.1969" lon="5.99475">
        <ele>2666.2</ele>
        <time>2021-04-17T09:44:02Z</time>
      </trkpt>
      <trkpt lat="45.1969" lon="5.99475">
        <ele>2666.2</ele>
        <time>2021-04-17T09:44:04Z</time>
      </trkpt>
      <trkpt lat="45.1969" lon="5.99475">
        <ele>2666.2</ele>
        <time>2021-04-17T09:44:05Z</time>
      </trkpt>
      <trkpt lat="45.1969" lon="5.99475">
        <ele>2666.2</ele>
        <time>2021-04-17T09:44:06Z</time>
      </trkpt>
      <trkpt lat="45.1969" lon="5.99475">
        <ele>2666.2</ele>
        <time>2021-04-17T09:44:07Z</time>
      </trkpt>
      <trkpt lat="45.1969" lon="5.99475">
        <ele>2666.2</ele>
        <time>2021-04-17T09:44:08Z</time>
      </trkpt>
      <trkpt lat="45.1969" lon="5.99475">
        <ele>2666.2</ele>
        <time>2021-04-17T09:44:10Z</time>
      </trkpt>
      <trkpt lat="45.1969" lon="5.99475">
        <ele>2666.2</ele>
        <time>2021-04-17T09:44:11Z</time>
      </trkpt>
      <trkpt lat="45.1969" lon="5.99475">
        <ele>2666.2</ele>
        <time>2021-04-17T09:44:13Z</time>
      </trkpt>
      <trkpt lat="45.1969" lon="5.99475">
        <ele>2666.2</ele>
        <time>2021-04-17T09:44:16Z</time>
      </trkpt>
      <trkpt lat="45.1969" lon="5.99476">
        <ele>2666.2</ele>
        <time>2021-04-17T09:44:18Z</time>
      </trkpt>
      <trkpt lat="45.1969" lon="5.99476">
        <ele>2666.2</ele>
        <time>2021-04-17T09:44:23Z</time>
      </trkpt>
      <trkpt lat="45.1969" lon="5.99476">
        <ele>2666.2</ele>
        <time>2021-04-17T09:44:29Z</time>
      </trkpt>
      <trkpt lat="45.1969" lon="5.99476">
        <ele>2666.2</ele>
        <time>2021-04-17T09:44:34Z</time>
      </trkpt>
      <trkpt lat="45.1969" lon="5.99476">
        <ele>2666.2</ele>
        <time>2021-04-17T09:44:35Z</time>
      </trkpt>
      <trkpt lat="45.1969" lon="5.99476">
        <ele>2666.2</ele>
        <time>2021-04-17T09:44:36Z</time>
      </trkpt>
      <trkpt lat="45.1969" lon="5.99476">
        <ele>2666.2</ele>
        <time>2021-04-17T09:44:37Z</time>
      </trkpt>
      <trkpt lat="45.1969" lon="5.99476">
        <ele>2666.2</ele>
        <time>2021-04-17T09:44:39Z</time>
      </trkpt>
      <trkpt lat="45.1969" lon="5.99476">
        <ele>2666.2</ele>
        <time>2021-04-17T09:44:40Z</time>
      </trkpt>
      <trkpt lat="45.1969" lon="5.99476">
        <ele>2666.2</ele>
        <time>2021-04-17T09:44:42Z</time>
      </trkpt>
      <trkpt lat="45.1969" lon="5.99476">
        <ele>2666.2</ele>
        <time>2021-04-17T09:44:43Z</time>
      </trkpt>
      <trkpt lat="45.1969" lon="5.99476">
        <ele>2666.2</ele>
        <time>2021-04-17T09:44:44Z</time>
      </trkpt>
      <trkpt lat="45.1969" lon="5.99476">
        <ele>2666.2</ele>
        <time>2021-04-17T09:44:45Z</time>
      </trkpt>
      <trkpt lat="45.1969" lon="5.99476">
        <ele>2666.2</ele>
        <time>2021-04-17T09:44:49Z</time>
      </trkpt>
      <trkpt lat="45.1969" lon="5.99476">
        <ele>2666.2</ele>
        <time>2021-04-17T09:44:52Z</time>
      </trkpt>
      <trkpt lat="45.1969" lon="5.99476">
        <ele>2666.2</ele>
        <time>2021-04-17T09:44:54Z</time>
      </trkpt>
      <trkpt lat="45.1969" lon="5.99476">
        <ele>2666.2</ele>
        <time>2021-04-17T09:44:55Z</time>
      </trkpt>
      <trkpt lat="45.1969" lon="5.99476">
        <ele>2666.2</ele>
        <time>2021-04-17T09:44:58Z</time>
      </trkpt>
      <trkpt lat="45.1969" lon="5.99476">
        <ele>2666.2</ele>
        <time>2021-04-17T09:45:00Z</time>
      </trkpt>
      <trkpt lat="45.1969" lon="5.99476">
        <ele>2666.2</ele>
        <time>2021-04-17T09:45:01Z</time>
      </trkpt>
      <trkpt lat="45.1969" lon="5.99476">
        <ele>2666.2</ele>
        <time>2021-04-17T09:45:02Z</time>
      </trkpt>
      <trkpt lat="45.1969" lon="5.99476">
        <ele>2666.2</ele>
        <time>2021-04-17T09:45:08Z</time>
      </trkpt>
      <trkpt lat="45.1969" lon="5.99476">
        <ele>2666.2</ele>
        <time>2021-04-17T09:45:14Z</time>
      </trkpt>
      <trkpt lat="45.1969" lon="5.99476">
        <ele>2666.2</ele>
        <time>2021-04-17T09:45:20Z</time>
      </trkpt>
      <trkpt lat="45.1969" lon="5.99476">
        <ele>2666.2</ele>
        <time>2021-04-17T09:45:21Z</time>
      </trkpt>
      <trkpt lat="45.1969" lon="5.99476">
        <ele>2666.2</ele>
        <time>2021-04-17T09:45:27Z</time>
      </trkpt>
      <trkpt lat="45.1969" lon="5.99476">
        <ele>2666.2</ele>
        <time>2021-04-17T09:45:29Z</time>
      </trkpt>
      <trkpt lat="45.1969" lon="5.99476">
        <ele>2666.2</ele>
        <time>2021-04-17T09:45:32Z</time>
      </trkpt>
      <trkpt lat="45.1969" lon="5.99476">
        <ele>2666.2</ele>
        <time>2021-04-17T09:45:34Z</time>
      </trkpt>
      <trkpt lat="45.1969" lon="5.99476">
        <ele>2666.2</ele>
        <time>2021-04-17T09:45:37Z</time>
      </trkpt>
      <trkpt lat="45.1969" lon="5.99476">
        <ele>2666.2</ele>
        <time>2021-04-17T09:45:38Z</time>
      </trkpt>
      <trkpt lat="45.1969" lon="5.99476">
        <ele>2666.2</ele>
        <time>2021-04-17T09:45:39Z</time>
      </trkpt>
      <trkpt lat="45.1969" lon="5.99476">
        <ele>2666.2</ele>
        <time>2021-04-17T09:45:41Z</time>
      </trkpt>
      <trkpt lat="45.1969" lon="5.99476">
        <ele>2666.2</ele>
        <time>2021-04-17T09:45:42Z</time>
      </trkpt>
      <trkpt lat="45.1969" lon="5.99476">
        <ele>2666.2</ele>
        <time>2021-04-17T09:45:43Z</time>
      </trkpt>
      <trkpt lat="45.1969" lon="5.99476">
        <ele>2666.2</ele>
        <time>2021-04-17T09:45:47Z</time>
      </trkpt>
      <trkpt lat="45.1969" lon="5.99476">
        <ele>2666.2</ele>
        <time>2021-04-17T09:45:48Z</time>
      </trkpt>
      <trkpt lat="45.1969" lon="5.99476">
        <ele>2666.2</ele>
        <time>2021-04-17T09:45:49Z</time>
      </trkpt>
      <trkpt lat="45.1969" lon="5.99476">
        <ele>2666.2</ele>
        <time>2021-04-17T09:45:50Z</time>
      </trkpt>
      <trkpt lat="45.1969" lon="5.99476">
        <ele>2666.2</ele>
        <time>2021-04-17T09:45:51Z</time>
      </trkpt>
      <trkpt lat="45.1969" lon="5.99476">
        <ele>2666.2</ele>
        <time>2021-04-17T09:45:52Z</time>
      </trkpt>
      <trkpt lat="45.1969" lon="5.99476">
        <ele>2666.2</ele>
        <time>2021-04-17T09:45:54Z</time>
      </trkpt>
      <trkpt lat="45.1969" lon="5.99476">
        <ele>2666.2</ele>
        <time>2021-04-17T09:45:55Z</time>
      </trkpt>
      <trkpt lat="45.1969" lon="5.99476">
        <ele>2666.2</ele>
        <time>2021-04-17T09:45:58Z</time>
      </trkpt>
      <trkpt lat="45.1969" lon="5.99476">
        <ele>2666.2</ele>
        <time>2021-04-17T09:45:59Z</time>
      </trkpt>
      <trkpt lat="45.1969" lon="5.99476">
        <ele>2666.2</ele>
        <time>2021-04-17T09:46:00Z</time>
      </trkpt>
      <trkpt lat="45.1969" lon="5.99476">
        <ele>2666.2</ele>
        <time>2021-04-17T09:46:02Z</time>
      </trkpt>
      <trkpt lat="45.1969" lon="5.99476">
        <ele>2666.2</ele>
        <time>2021-04-17T09:46:08Z</time>
      </trkpt>
      <trkpt lat="45.1969" lon="5.99476">
        <ele>2666.2</ele>
        <time>2021-04-17T09:46:10Z</time>
      </trkpt>
      <trkpt lat="45.1969" lon="5.99476">
        <ele>2666.2</ele>
        <time>2021-04-17T09:46:11Z</time>
      </trkpt>
      <trkpt lat="45.1969" lon="5.99476">
        <ele>2666.2</ele>
        <time>2021-04-17T09:46:12Z</time>
      </trkpt>
      <trkpt lat="45.1969" lon="5.99476">
        <ele>2666.2</ele>
        <time>2021-04-17T09:46:14Z</time>
      </trkpt>
      <trkpt lat="45.1969" lon="5.99476">
        <ele>2666.2</ele>
        <time>2021-04-17T09:46:17Z</time>
      </trkpt>
      <trkpt lat="45.1969" lon="5.99476">
        <ele>2666.2</ele>
        <time>2021-04-17T09:46:20Z</time>
      </trkpt>
      <trkpt lat="45.1969" lon="5.99476">
        <ele>2666.2</ele>
        <time>2021-04-17T09:46:21Z</time>
      </trkpt>
      <trkpt lat="45.1969" lon="5.99476">
        <ele>2666.2</ele>
        <time>2021-04-17T09:46:23Z</time>
      </trkpt>
      <trkpt lat="45.1969" lon="5.99476">
        <ele>2666.2</ele>
        <time>2021-04-17T09:46:24Z</time>
      </trkpt>
      <trkpt lat="45.1969" lon="5.99476">
        <ele>2666.2</ele>
        <time>2021-04-17T09:46:26Z</time>
      </trkpt>
      <trkpt lat="45.19691" lon="5.99475">
        <ele>2666.2</ele>
        <time>2021-04-17T09:46:31Z</time>
      </trkpt>
      <trkpt lat="45.19695" lon="5.99472">
        <ele>2666.2</ele>
        <time>2021-04-17T09:46:34Z</time>
      </trkpt>
      <trkpt lat="45.19696" lon="5.9947">
        <ele>2666.2</ele>
        <time>2021-04-17T09:46:37Z</time>
      </trkpt>
      <trkpt lat="45.19697" lon="5.99469">
        <ele>2666.2</ele>
        <time>2021-04-17T09:46:39Z</time>
      </trkpt>
      <trkpt lat="45.19698" lon="5.99467">
        <ele>2666.2</ele>
        <time>2021-04-17T09:46:41Z</time>
      </trkpt>
      <trkpt lat="45.19698" lon="5.99466">
        <ele>2666.2</ele>
        <time>2021-04-17T09:46:42Z</time>
      </trkpt>
      <trkpt lat="45.19697" lon="5.99465">
        <ele>2666.2</ele>
        <time>2021-04-17T09:46:43Z</time>
      </trkpt>
      <trkpt lat="45.19696" lon="5.99464">
        <ele>2666.2</ele>
        <time>2021-04-17T09:46:44Z</time>
      </trkpt>
      <trkpt lat="45.19696" lon="5.99464">
        <ele>2666.2</ele>
        <time>2021-04-17T09:46:45Z</time>
      </trkpt>
      <trkpt lat="45.19696" lon="5.99463">
        <ele>2666.2</ele>
        <time>2021-04-17T09:46:46Z</time>
      </trkpt>
      <trkpt lat="45.19696" lon="5.99464">
        <ele>2666.2</ele>
        <time>2021-04-17T09:46:47Z</time>
      </trkpt>
      <trkpt lat="45.19696" lon="5.99464">
        <ele>2666.2</ele>
        <time>2021-04-17T09:46:49Z</time>
      </trkpt>
      <trkpt lat="45.19696" lon="5.99464">
        <ele>2666.2</ele>
        <time>2021-04-17T09:46:50Z</time>
      </trkpt>
      <trkpt lat="45.19696" lon="5.99464">
        <ele>2666.2</ele>
        <time>2021-04-17T09:46:51Z</time>
      </trkpt>
      <trkpt lat="45.19696" lon="5.99464">
        <ele>2665.8</ele>
        <time>2021-04-17T09:46:53Z</time>
      </trkpt>
      <trkpt lat="45.19696" lon="5.99464">
        <ele>2666</ele>
        <time>2021-04-17T09:46:55Z</time>
      </trkpt>
      <trkpt lat="45.19696" lon="5.99464">
        <ele>2666</ele>
        <time>2021-04-17T09:46:56Z</time>
      </trkpt>
      <trkpt lat="45.19696" lon="5.99464">
        <ele>2666</ele>
        <time>2021-04-17T09:46:57Z</time>
      </trkpt>
      <trkpt lat="45.19697" lon="5.99466">
        <ele>2666.2</ele>
        <time>2021-04-17T09:47:01Z</time>
      </trkpt>
      <trkpt lat="45.19697" lon="5.99466">
        <ele>2666.2</ele>
        <time>2021-04-17T09:47:04Z</time>
      </trkpt>
      <trkpt lat="45.19697" lon="5.99466">
        <ele>2666.2</ele>
        <time>2021-04-17T09:47:05Z</time>
      </trkpt>
      <trkpt lat="45.19697" lon="5.99466">
        <ele>2666</ele>
        <time>2021-04-17T09:47:06Z</time>
      </trkpt>
      <trkpt lat="45.19698" lon="5.99467">
        <ele>2666</ele>
        <time>2021-04-17T09:47:08Z</time>
      </trkpt>
      <trkpt lat="45.19698" lon="5.99467">
        <ele>2666</ele>
        <time>2021-04-17T09:47:09Z</time>
      </trkpt>
      <trkpt lat="45.19698" lon="5.99467">
        <ele>2666</ele>
        <time>2021-04-17T09:47:10Z</time>
      </trkpt>
      <trkpt lat="45.19698" lon="5.99466">
        <ele>2666</ele>
        <time>2021-04-17T09:47:12Z</time>
      </trkpt>
      <trkpt lat="45.19699" lon="5.99463">
        <ele>2665</ele>
        <time>2021-04-17T09:47:14Z</time>
      </trkpt>
      <trkpt lat="45.19698" lon="5.99461">
        <ele>2664.2</ele>
        <time>2021-04-17T09:47:15Z</time>
      </trkpt>
      <trkpt lat="45.19697" lon="5.99459">
        <ele>2663.4</ele>
        <time>2021-04-17T09:47:16Z</time>
      </trkpt>
      <trkpt lat="45.19696" lon="5.99454">
        <ele>2661.6</ele>
        <time>2021-04-17T09:47:18Z</time>
      </trkpt>
      <trkpt lat="45.19697" lon="5.99452">
        <ele>2660.6</ele>
        <time>2021-04-17T09:47:19Z</time>
      </trkpt>
      <trkpt lat="45.19697" lon="5.9945">
        <ele>2659.6</ele>
        <time>2021-04-17T09:47:20Z</time>
      </trkpt>
      <trkpt lat="45.19697" lon="5.99449">
        <ele>2658.4</ele>
        <time>2021-04-17T09:47:21Z</time>
      </trkpt>
      <trkpt lat="45.19696" lon="5.99449">
        <ele>2657.6</ele>
        <time>2021-04-17T09:47:22Z</time>
      </trkpt>
      <trkpt lat="45.19696" lon="5.99448">
        <ele>2657</ele>
        <time>2021-04-17T09:47:23Z</time>
      </trkpt>
      <trkpt lat="45.19696" lon="5.99445">
        <ele>2656.6</ele>
        <time>2021-04-17T09:47:26Z</time>
      </trkpt>
      <trkpt lat="45.19695" lon="5.99443">
        <ele>2656</ele>
        <time>2021-04-17T09:47:28Z</time>
      </trkpt>
      <trkpt lat="45.19694" lon="5.99443">
        <ele>2655.2</ele>
        <time>2021-04-17T09:47:29Z</time>
      </trkpt>
      <trkpt lat="45.19694" lon="5.9944">
        <ele>2654.2</ele>
        <time>2021-04-17T09:47:30Z</time>
      </trkpt>
      <trkpt lat="45.19696" lon="5.99437">
        <ele>2652.4</ele>
        <time>2021-04-17T09:47:32Z</time>
      </trkpt>
      <trkpt lat="45.19697" lon="5.99435">
        <ele>2651.4</ele>
        <time>2021-04-17T09:47:33Z</time>
      </trkpt>
      <trkpt lat="45.19694" lon="5.99434">
        <ele>2650</ele>
        <time>2021-04-17T09:47:35Z</time>
      </trkpt>
      <trkpt lat="45.19694" lon="5.99433">
        <ele>2649.6</ele>
        <time>2021-04-17T09:47:36Z</time>
      </trkpt>
      <trkpt lat="45.19693" lon="5.99431">
        <ele>2649.4</ele>
        <time>2021-04-17T09:47:38Z</time>
      </trkpt>
      <trkpt lat="45.19691" lon="5.99432">
        <ele>2648.6</ele>
        <time>2021-04-17T09:47:40Z</time>
      </trkpt>
      <trkpt lat="45.1969" lon="5.99431">
        <ele>2647.8</ele>
        <time>2021-04-17T09:47:41Z</time>
      </trkpt>
      <trkpt lat="45.19691" lon="5.99429">
        <ele>2646.8</ele>
        <time>2021-04-17T09:47:42Z</time>
      </trkpt>
      <trkpt lat="45.19693" lon="5.99426">
        <ele>2645</ele>
        <time>2021-04-17T09:47:44Z</time>
      </trkpt>
      <trkpt lat="45.19695" lon="5.99425">
        <ele>2643.6</ele>
        <time>2021-04-17T09:47:46Z</time>
      </trkpt>
      <trkpt lat="45.19695" lon="5.99425">
        <ele>2643.4</ele>
        <time>2021-04-17T09:47:47Z</time>
      </trkpt>
      <trkpt lat="45.19692" lon="5.99422">
        <ele>2642.4</ele>
        <time>2021-04-17T09:47:50Z</time>
      </trkpt>
      <trkpt lat="45.19691" lon="5.99422">
        <ele>2641.4</ele>
        <time>2021-04-17T09:47:51Z</time>
      </trkpt>
      <trkpt lat="45.1969" lon="5.99422">
        <ele>2640</ele>
        <time>2021-04-17T09:47:52Z</time>
      </trkpt>
      <trkpt lat="45.1969" lon="5.99421">
        <ele>2639.8</ele>
        <time>2021-04-17T09:47:54Z</time>
      </trkpt>
      <trkpt lat="45.19691" lon="5.9942">
        <ele>2639.6</ele>
        <time>2021-04-17T09:47:55Z</time>
      </trkpt>
      <trkpt lat="45.19694" lon="5.99416">
        <ele>2638.6</ele>
        <time>2021-04-17T09:47:58Z</time>
      </trkpt>
      <trkpt lat="45.19693" lon="5.99415">
        <ele>2637.8</ele>
        <time>2021-04-17T09:47:59Z</time>
      </trkpt>
      <trkpt lat="45.19692" lon="5.99414">
        <ele>2636.6</ele>
        <time>2021-04-17T09:48:00Z</time>
      </trkpt>
      <trkpt lat="45.1969" lon="5.99413">
        <ele>2635.4</ele>
        <time>2021-04-17T09:48:01Z</time>
      </trkpt>
      <trkpt lat="45.19694" lon="5.99409">
        <ele>2633.8</ele>
        <time>2021-04-17T09:48:03Z</time>
      </trkpt>
      <trkpt lat="45.19696" lon="5.99407">
        <ele>2632.8</ele>
        <time>2021-04-17T09:48:04Z</time>
      </trkpt>
      <trkpt lat="45.19697" lon="5.99407">
        <ele>2631.6</ele>
        <time>2021-04-17T09:48:05Z</time>
      </trkpt>
      <trkpt lat="45.19698" lon="5.99407">
        <ele>2630.8</ele>
        <time>2021-04-17T09:48:06Z</time>
      </trkpt>
      <trkpt lat="45.19698" lon="5.99407">
        <ele>2630.2</ele>
        <time>2021-04-17T09:48:07Z</time>
      </trkpt>
      <trkpt lat="45.19698" lon="5.99407">
        <ele>2630</ele>
        <time>2021-04-17T09:48:08Z</time>
      </trkpt>
      <trkpt lat="45.19699" lon="5.99404">
        <ele>2629.6</ele>
        <time>2021-04-17T09:48:11Z</time>
      </trkpt>
      <trkpt lat="45.19697" lon="5.99402">
        <ele>2629.2</ele>
        <time>2021-04-17T09:48:12Z</time>
      </trkpt>
      <trkpt lat="45.19696" lon="5.99399">
        <ele>2628</ele>
        <time>2021-04-17T09:48:13Z</time>
      </trkpt>
      <trkpt lat="45.19697" lon="5.99396">
        <ele>2626.8</ele>
        <time>2021-04-17T09:48:14Z</time>
      </trkpt>
      <trkpt lat="45.19699" lon="5.99393">
        <ele>2625.2</ele>
        <time>2021-04-17T09:48:15Z</time>
      </trkpt>
      <trkpt lat="45.19699" lon="5.99392">
        <ele>2623.8</ele>
        <time>2021-04-17T09:48:16Z</time>
      </trkpt>
      <trkpt lat="45.19699" lon="5.9939">
        <ele>2622.6</ele>
        <time>2021-04-17T09:48:17Z</time>
      </trkpt>
      <trkpt lat="45.19699" lon="5.99389">
        <ele>2621.8</ele>
        <time>2021-04-17T09:48:18Z</time>
      </trkpt>
      <trkpt lat="45.19697" lon="5.99387">
        <ele>2621.2</ele>
        <time>2021-04-17T09:48:19Z</time>
      </trkpt>
      <trkpt lat="45.19696" lon="5.99384">
        <ele>2620.2</ele>
        <time>2021-04-17T09:48:20Z</time>
      </trkpt>
      <trkpt lat="45.19696" lon="5.99381">
        <ele>2619</ele>
        <time>2021-04-17T09:48:21Z</time>
      </trkpt>
      <trkpt lat="45.19698" lon="5.99377">
        <ele>2617.2</ele>
        <time>2021-04-17T09:48:22Z</time>
      </trkpt>
      <trkpt lat="45.19697" lon="5.99373">
        <ele>2615.6</ele>
        <time>2021-04-17T09:48:23Z</time>
      </trkpt>
      <trkpt lat="45.19695" lon="5.9937">
        <ele>2613.6</ele>
        <time>2021-04-17T09:48:24Z</time>
      </trkpt>
      <trkpt lat="45.19691" lon="5.99368">
        <ele>2611.4</ele>
        <time>2021-04-17T09:48:25Z</time>
      </trkpt>
      <trkpt lat="45.19686" lon="5.99366">
        <ele>2609</ele>
        <time>2021-04-17T09:48:26Z</time>
      </trkpt>
      <trkpt lat="45.1968" lon="5.99364">
        <ele>2607</ele>
        <time>2021-04-17T09:48:27Z</time>
      </trkpt>
      <trkpt lat="45.19675" lon="5.9936">
        <ele>2605.2</ele>
        <time>2021-04-17T09:48:28Z</time>
      </trkpt>
      <trkpt lat="45.19669" lon="5.99354">
        <ele>2603.4</ele>
        <time>2021-04-17T09:48:29Z</time>
      </trkpt>
      <trkpt lat="45.19664" lon="5.99347">
        <ele>2601.6</ele>
        <time>2021-04-17T09:48:30Z</time>
      </trkpt>
      <trkpt lat="45.1966" lon="5.99338">
        <ele>2599.4</ele>
        <time>2021-04-17T09:48:31Z</time>
      </trkpt>
      <trkpt lat="45.19658" lon="5.99328">
        <ele>2597.6</ele>
        <time>2021-04-17T09:48:32Z</time>
      </trkpt>
      <trkpt lat="45.19657" lon="5.99318">
        <ele>2595.8</ele>
        <time>2021-04-17T09:48:33Z</time>
      </trkpt>
      <trkpt lat="45.19657" lon="5.99308">
        <ele>2594</ele>
        <time>2021-04-17T09:48:34Z</time>
      </trkpt>
      <trkpt lat="45.19658" lon="5.99299">
        <ele>2592.4</ele>
        <time>2021-04-17T09:48:35Z</time>
      </trkpt>
      <trkpt lat="45.19658" lon="5.99292">
        <ele>2591.2</ele>
        <time>2021-04-17T09:48:36Z</time>
      </trkpt>
      <trkpt lat="45.19659" lon="5.99286">
        <ele>2589.8</ele>
        <time>2021-04-17T09:48:37Z</time>
      </trkpt>
      <trkpt lat="45.19662" lon="5.99284">
        <ele>2588.2</ele>
        <time>2021-04-17T09:48:38Z</time>
      </trkpt>
      <trkpt lat="45.19664" lon="5.99281">
        <ele>2587</ele>
        <time>2021-04-17T09:48:39Z</time>
      </trkpt>
      <trkpt lat="45.19665" lon="5.99277">
        <ele>2585.2</ele>
        <time>2021-04-17T09:48:40Z</time>
      </trkpt>
      <trkpt lat="45.19666" lon="5.99272">
        <ele>2582.8</ele>
        <time>2021-04-17T09:48:41Z</time>
      </trkpt>
      <trkpt lat="45.19668" lon="5.9927">
        <ele>2580.4</ele>
        <time>2021-04-17T09:48:42Z</time>
      </trkpt>
      <trkpt lat="45.19671" lon="5.9927">
        <ele>2578.4</ele>
        <time>2021-04-17T09:48:43Z</time>
      </trkpt>
      <trkpt lat="45.19675" lon="5.99273">
        <ele>2576.2</ele>
        <time>2021-04-17T09:48:44Z</time>
      </trkpt>
      <trkpt lat="45.19678" lon="5.99277">
        <ele>2574</ele>
        <time>2021-04-17T09:48:45Z</time>
      </trkpt>
      <trkpt lat="45.1968" lon="5.99278">
        <ele>2572</ele>
        <time>2021-04-17T09:48:46Z</time>
      </trkpt>
      <trkpt lat="45.19682" lon="5.99276">
        <ele>2569.8</ele>
        <time>2021-04-17T09:48:47Z</time>
      </trkpt>
      <trkpt lat="45.19683" lon="5.99271">
        <ele>2567.8</ele>
        <time>2021-04-17T09:48:48Z</time>
      </trkpt>
      <trkpt lat="45.19684" lon="5.99266">
        <ele>2566.2</ele>
        <time>2021-04-17T09:48:49Z</time>
      </trkpt>
      <trkpt lat="45.19686" lon="5.99263">
        <ele>2564.8</ele>
        <time>2021-04-17T09:48:50Z</time>
      </trkpt>
      <trkpt lat="45.19687" lon="5.99262">
        <ele>2563.4</ele>
        <time>2021-04-17T09:48:51Z</time>
      </trkpt>
      <trkpt lat="45.19687" lon="5.99262">
        <ele>2561.6</ele>
        <time>2021-04-17T09:48:52Z</time>
      </trkpt>
      <trkpt lat="45.19688" lon="5.99262">
        <ele>2560</ele>
        <time>2021-04-17T09:48:53Z</time>
      </trkpt>
      <trkpt lat="45.19689" lon="5.99262">
        <ele>2559.2</ele>
        <time>2021-04-17T09:48:54Z</time>
      </trkpt>
      <trkpt lat="45.19688" lon="5.99263">
        <ele>2558.4</ele>
        <time>2021-04-17T09:48:55Z</time>
      </trkpt>
      <trkpt lat="45.19689" lon="5.99263">
        <ele>2558.2</ele>
        <time>2021-04-17T09:49:01Z</time>
      </trkpt>
      <trkpt lat="45.1969" lon="5.99265">
        <ele>2558.2</ele>
        <time>2021-04-17T09:49:05Z</time>
      </trkpt>
      <trkpt lat="45.19689" lon="5.99265">
        <ele>2558.4</ele>
        <time>2021-04-17T09:49:06Z</time>
      </trkpt>
      <trkpt lat="45.19689" lon="5.99265">
        <ele>2558.2</ele>
        <time>2021-04-17T09:49:12Z</time>
      </trkpt>
      <trkpt lat="45.19689" lon="5.99265">
        <ele>2558.4</ele>
        <time>2021-04-17T09:49:16Z</time>
      </trkpt>
      <trkpt lat="45.19689" lon="5.99265">
        <ele>2558.4</ele>
        <time>2021-04-17T09:49:20Z</time>
      </trkpt>
      <trkpt lat="45.19689" lon="5.99265">
        <ele>2558.4</ele>
        <time>2021-04-17T09:49:22Z</time>
      </trkpt>
      <trkpt lat="45.19689" lon="5.99265">
        <ele>2558.2</ele>
        <time>2021-04-17T09:49:25Z</time>
      </trkpt>
      <trkpt lat="45.1969" lon="5.99265">
        <ele>2557.8</ele>
        <time>2021-04-17T09:49:26Z</time>
      </trkpt>
      <trkpt lat="45.19692" lon="5.99261">
        <ele>2557</ele>
        <time>2021-04-17T09:49:27Z</time>
      </trkpt>
      <trkpt lat="45.19693" lon="5.99255">
        <ele>2555.6</ele>
        <time>2021-04-17T09:49:28Z</time>
      </trkpt>
      <trkpt lat="45.19693" lon="5.99249">
        <ele>2554.2</ele>
        <time>2021-04-17T09:49:29Z</time>
      </trkpt>
      <trkpt lat="45.19693" lon="5.99243">
        <ele>2553</ele>
        <time>2021-04-17T09:49:30Z</time>
      </trkpt>
      <trkpt lat="45.19692" lon="5.99237">
        <ele>2551.6</ele>
        <time>2021-04-17T09:49:31Z</time>
      </trkpt>
      <trkpt lat="45.19692" lon="5.99231">
        <ele>2550.4</ele>
        <time>2021-04-17T09:49:32Z</time>
      </trkpt>
      <trkpt lat="45.19693" lon="5.99225">
        <ele>2549.2</ele>
        <time>2021-04-17T09:49:33Z</time>
      </trkpt>
      <trkpt lat="45.19693" lon="5.9922">
        <ele>2548.2</ele>
        <time>2021-04-17T09:49:34Z</time>
      </trkpt>
      <trkpt lat="45.19693" lon="5.99215">
        <ele>2547.2</ele>
        <time>2021-04-17T09:49:35Z</time>
      </trkpt>
      <trkpt lat="45.19691" lon="5.9921">
        <ele>2546.2</ele>
        <time>2021-04-17T09:49:36Z</time>
      </trkpt>
      <trkpt lat="45.1969" lon="5.99207">
        <ele>2545.2</ele>
        <time>2021-04-17T09:49:37Z</time>
      </trkpt>
      <trkpt lat="45.1969" lon="5.99202">
        <ele>2544.4</ele>
        <time>2021-04-17T09:49:38Z</time>
      </trkpt>
      <trkpt lat="45.19689" lon="5.99198">
        <ele>2543.4</ele>
        <time>2021-04-17T09:49:39Z</time>
      </trkpt>
      <trkpt lat="45.19689" lon="5.99194">
        <ele>2542.4</ele>
        <time>2021-04-17T09:49:40Z</time>
      </trkpt>
      <trkpt lat="45.19691" lon="5.9919">
        <ele>2541.4</ele>
        <time>2021-04-17T09:49:41Z</time>
      </trkpt>
      <trkpt lat="45.19693" lon="5.99188">
        <ele>2540.4</ele>
        <time>2021-04-17T09:49:42Z</time>
      </trkpt>
      <trkpt lat="45.19695" lon="5.99187">
        <ele>2539.4</ele>
        <time>2021-04-17T09:49:43Z</time>
      </trkpt>
      <trkpt lat="45.19697" lon="5.99186">
        <ele>2538</ele>
        <time>2021-04-17T09:49:44Z</time>
      </trkpt>
      <trkpt lat="45.19698" lon="5.99183">
        <ele>2536.4</ele>
        <time>2021-04-17T09:49:45Z</time>
      </trkpt>
      <trkpt lat="45.19698" lon="5.9918">
        <ele>2534.6</ele>
        <time>2021-04-17T09:49:46Z</time>
      </trkpt>
      <trkpt lat="45.19697" lon="5.99175">
        <ele>2532.6</ele>
        <time>2021-04-17T09:49:47Z</time>
      </trkpt>
      <trkpt lat="45.19697" lon="5.99169">
        <ele>2531</ele>
        <time>2021-04-17T09:49:48Z</time>
      </trkpt>
      <trkpt lat="45.19696" lon="5.99162">
        <ele>2529.4</ele>
        <time>2021-04-17T09:49:49Z</time>
      </trkpt>
      <trkpt lat="45.19696" lon="5.99154">
        <ele>2527.8</ele>
        <time>2021-04-17T09:49:50Z</time>
      </trkpt>
      <trkpt lat="45.19696" lon="5.99146">
        <ele>2526.2</ele>
        <time>2021-04-17T09:49:51Z</time>
      </trkpt>
      <trkpt lat="45.19697" lon="5.99137">
        <ele>2524.6</ele>
        <time>2021-04-17T09:49:52Z</time>
      </trkpt>
      <trkpt lat="45.19699" lon="5.99128">
        <ele>2523</ele>
        <time>2021-04-17T09:49:53Z</time>
      </trkpt>
      <trkpt lat="45.19702" lon="5.99119">
        <ele>2521.4</ele>
        <time>2021-04-17T09:49:54Z</time>
      </trkpt>
      <trkpt lat="45.19705" lon="5.99114">
        <ele>2519.8</ele>
        <time>2021-04-17T09:49:55Z</time>
      </trkpt>
      <trkpt lat="45.1971" lon="5.99108">
        <ele>2518.4</ele>
        <time>2021-04-17T09:49:56Z</time>
      </trkpt>
      <trkpt lat="45.19715" lon="5.99101">
        <ele>2516.6</ele>
        <time>2021-04-17T09:49:57Z</time>
      </trkpt>
      <trkpt lat="45.19718" lon="5.99094">
        <ele>2514</ele>
        <time>2021-04-17T09:49:58Z</time>
      </trkpt>
      <trkpt lat="45.19721" lon="5.99087">
        <ele>2511.4</ele>
        <time>2021-04-17T09:49:59Z</time>
      </trkpt>
      <trkpt lat="45.19725" lon="5.99085">
        <ele>2509</ele>
        <time>2021-04-17T09:50:00Z</time>
      </trkpt>
      <trkpt lat="45.1973" lon="5.99087">
        <ele>2503.6</ele>
        <time>2021-04-17T09:50:01Z</time>
      </trkpt>
      <trkpt lat="45.19731" lon="5.99085">
        <ele>2501.8</ele>
        <time>2021-04-17T09:50:03Z</time>
      </trkpt>
      <trkpt lat="45.19733" lon="5.99081">
        <ele>2499.4</ele>
        <time>2021-04-17T09:50:04Z</time>
      </trkpt>
      <trkpt lat="45.19735" lon="5.99076">
        <ele>2497.6</ele>
        <time>2021-04-17T09:50:05Z</time>
      </trkpt>
      <trkpt lat="45.19735" lon="5.99069">
        <ele>2496</ele>
        <time>2021-04-17T09:50:06Z</time>
      </trkpt>
      <trkpt lat="45.19735" lon="5.9906">
        <ele>2494.4</ele>
        <time>2021-04-17T09:50:07Z</time>
      </trkpt>
      <trkpt lat="45.19735" lon="5.99052">
        <ele>2493</ele>
        <time>2021-04-17T09:50:08Z</time>
      </trkpt>
      <trkpt lat="45.19734" lon="5.99044">
        <ele>2491.6</ele>
        <time>2021-04-17T09:50:09Z</time>
      </trkpt>
      <trkpt lat="45.19732" lon="5.99032">
        <ele>2490.6</ele>
        <time>2021-04-17T09:50:11Z</time>
      </trkpt>
      <trkpt lat="45.1973" lon="5.99021">
        <ele>2490.2</ele>
        <time>2021-04-17T09:50:13Z</time>
      </trkpt>
      <trkpt lat="45.1973" lon="5.9901">
        <ele>2489.8</ele>
        <time>2021-04-17T09:50:15Z</time>
      </trkpt>
      <trkpt lat="45.19731" lon="5.99005">
        <ele>2489.2</ele>
        <time>2021-04-17T09:50:16Z</time>
      </trkpt>
      <trkpt lat="45.19731" lon="5.98995">
        <ele>2488.6</ele>
        <time>2021-04-17T09:50:19Z</time>
      </trkpt>
      <trkpt lat="45.19729" lon="5.98988">
        <ele>2488.4</ele>
        <time>2021-04-17T09:50:22Z</time>
      </trkpt>
      <trkpt lat="45.19729" lon="5.98985">
        <ele>2488.2</ele>
        <time>2021-04-17T09:50:23Z</time>
      </trkpt>
      <trkpt lat="45.19729" lon="5.98983">
        <ele>2488.2</ele>
        <time>2021-04-17T09:50:24Z</time>
      </trkpt>
      <trkpt lat="45.19729" lon="5.98971">
        <ele>2487.2</ele>
        <time>2021-04-17T09:50:28Z</time>
      </trkpt>
      <trkpt lat="45.1973" lon="5.98968">
        <ele>2487</ele>
        <time>2021-04-17T09:50:29Z</time>
      </trkpt>
      <trkpt lat="45.19731" lon="5.98962">
        <ele>2486.8</ele>
        <time>2021-04-17T09:50:31Z</time>
      </trkpt>
      <trkpt lat="45.19731" lon="5.98952">
        <ele>2486.4</ele>
        <time>2021-04-17T09:50:34Z</time>
      </trkpt>
      <trkpt lat="45.19733" lon="5.98944">
        <ele>2486</ele>
        <time>2021-04-17T09:50:36Z</time>
      </trkpt>
      <trkpt lat="45.19733" lon="5.9894">
        <ele>2485.8</ele>
        <time>2021-04-17T09:50:37Z</time>
      </trkpt>
      <trkpt lat="45.19734" lon="5.98927">
        <ele>2485.2</ele>
        <time>2021-04-17T09:50:40Z</time>
      </trkpt>
      <trkpt lat="45.19735" lon="5.98924">
        <ele>2485</ele>
        <time>2021-04-17T09:50:41Z</time>
      </trkpt>
      <trkpt lat="45.19736" lon="5.98915">
        <ele>2484.4</ele>
        <time>2021-04-17T09:50:45Z</time>
      </trkpt>
      <trkpt lat="45.19736" lon="5.98913">
        <ele>2484.4</ele>
        <time>2021-04-17T09:50:46Z</time>
      </trkpt>
      <trkpt lat="45.19737" lon="5.98906">
        <ele>2484.4</ele>
        <time>2021-04-17T09:50:51Z</time>
      </trkpt>
      <trkpt lat="45.19737" lon="5.98902">
        <ele>2484.4</ele>
        <time>2021-04-17T09:50:53Z</time>
      </trkpt>
      <trkpt lat="45.19738" lon="5.98896">
        <ele>2484.4</ele>
        <time>2021-04-17T09:50:56Z</time>
      </trkpt>
      <trkpt lat="45.19739" lon="5.98895">
        <ele>2484.4</ele>
        <time>2021-04-17T09:50:57Z</time>
      </trkpt>
      <trkpt lat="45.19738" lon="5.98889">
        <ele>2484.4</ele>
        <time>2021-04-17T09:51:00Z</time>
      </trkpt>
      <trkpt lat="45.19744" lon="5.98875">
        <ele>2484.4</ele>
        <time>2021-04-17T09:51:06Z</time>
      </trkpt>
      <trkpt lat="45.19745" lon="5.98867">
        <ele>2484</ele>
        <time>2021-04-17T09:51:08Z</time>
      </trkpt>
      <trkpt lat="45.19745" lon="5.98862">
        <ele>2483.8</ele>
        <time>2021-04-17T09:51:09Z</time>
      </trkpt>
      <trkpt lat="45.19743" lon="5.98858">
        <ele>2483.4</ele>
        <time>2021-04-17T09:51:13Z</time>
      </trkpt>
      <trkpt lat="45.19743" lon="5.98857">
        <ele>2483.4</ele>
        <time>2021-04-17T09:51:14Z</time>
      </trkpt>
      <trkpt lat="45.19741" lon="5.98853">
        <ele>2484.4</ele>
        <time>2021-04-17T09:51:19Z</time>
      </trkpt>
      <trkpt lat="45.19741" lon="5.98851">
        <ele>2484.6</ele>
        <time>2021-04-17T09:51:21Z</time>
      </trkpt>
      <trkpt lat="45.19741" lon="5.98847">
        <ele>2485</ele>
        <time>2021-04-17T09:51:26Z</time>
      </trkpt>
      <trkpt lat="45.19739" lon="5.98844">
        <ele>2485.2</ele>
        <time>2021-04-17T09:51:29Z</time>
      </trkpt>
      <trkpt lat="45.19739" lon="5.98842">
        <ele>2485.4</ele>
        <time>2021-04-17T09:51:31Z</time>
      </trkpt>
      <trkpt lat="45.19739" lon="5.98839">
        <ele>2485.8</ele>
        <time>2021-04-17T09:51:35Z</time>
      </trkpt>
      <trkpt lat="45.19738" lon="5.98837">
        <ele>2486</ele>
        <time>2021-04-17T09:51:37Z</time>
      </trkpt>
      <trkpt lat="45.19736" lon="5.98831">
        <ele>2486.4</ele>
        <time>2021-04-17T09:51:43Z</time>
      </trkpt>
      <trkpt lat="45.19736" lon="5.9883">
        <ele>2486.6</ele>
        <time>2021-04-17T09:51:44Z</time>
      </trkpt>
      <trkpt lat="45.19735" lon="5.98828">
        <ele>2486.8</ele>
        <time>2021-04-17T09:51:46Z</time>
      </trkpt>
      <trkpt lat="45.19733" lon="5.98824">
        <ele>2487</ele>
        <time>2021-04-17T09:51:49Z</time>
      </trkpt>
      <trkpt lat="45.19732" lon="5.98821">
        <ele>2487.2</ele>
        <time>2021-04-17T09:51:51Z</time>
      </trkpt>
      <trkpt lat="45.19729" lon="5.98814">
        <ele>2487.8</ele>
        <time>2021-04-17T09:51:56Z</time>
      </trkpt>
      <trkpt lat="45.19726" lon="5.98807">
        <ele>2488.6</ele>
        <time>2021-04-17T09:52:02Z</time>
      </trkpt>
      <trkpt lat="45.19726" lon="5.98807">
        <ele>2488.6</ele>
        <time>2021-04-17T09:52:03Z</time>
      </trkpt>
      <trkpt lat="45.19723" lon="5.98802">
        <ele>2489.2</ele>
        <time>2021-04-17T09:52:09Z</time>
      </trkpt>
      <trkpt lat="45.19722" lon="5.988">
        <ele>2489.6</ele>
        <time>2021-04-17T09:52:11Z</time>
      </trkpt>
      <trkpt lat="45.19717" lon="5.98796">
        <ele>2489</ele>
        <time>2021-04-17T09:52:16Z</time>
      </trkpt>
      <trkpt lat="45.19717" lon="5.98796">
        <ele>2489</ele>
        <time>2021-04-17T09:52:17Z</time>
      </trkpt>
      <trkpt lat="45.19717" lon="5.98797">
        <ele>2488.6</ele>
        <time>2021-04-17T09:52:19Z</time>
      </trkpt>
      <trkpt lat="45.19718" lon="5.98797">
        <ele>2488.6</ele>
        <time>2021-04-17T09:52:21Z</time>
      </trkpt>
      <trkpt lat="45.19718" lon="5.98797">
        <ele>2488.6</ele>
        <time>2021-04-17T09:52:22Z</time>
      </trkpt>
      <trkpt lat="45.19717" lon="5.98797">
        <ele>2488.6</ele>
        <time>2021-04-17T09:52:24Z</time>
      </trkpt>
      <trkpt lat="45.19717" lon="5.98796">
        <ele>2488.6</ele>
        <time>2021-04-17T09:52:25Z</time>
      </trkpt>
      <trkpt lat="45.19719" lon="5.98796">
        <ele>2487.8</ele>
        <time>2021-04-17T09:52:29Z</time>
      </trkpt>
      <trkpt lat="45.19719" lon="5.98796">
        <ele>2487.6</ele>
        <time>2021-04-17T09:52:31Z</time>
      </trkpt>
      <trkpt lat="45.19719" lon="5.98796">
        <ele>2487.6</ele>
        <time>2021-04-17T09:52:32Z</time>
      </trkpt>
      <trkpt lat="45.19719" lon="5.98796">
        <ele>2487.4</ele>
        <time>2021-04-17T09:52:34Z</time>
      </trkpt>
      <trkpt lat="45.19719" lon="5.98796">
        <ele>2488</ele>
        <time>2021-04-17T09:52:38Z</time>
      </trkpt>
      <trkpt lat="45.19719" lon="5.98796">
        <ele>2488.2</ele>
        <time>2021-04-17T09:52:41Z</time>
      </trkpt>
      <trkpt lat="45.19719" lon="5.98796">
        <ele>2488.4</ele>
        <time>2021-04-17T09:52:42Z</time>
      </trkpt>
      <trkpt lat="45.19719" lon="5.98796">
        <ele>2488.8</ele>
        <time>2021-04-17T09:52:46Z</time>
      </trkpt>
      <trkpt lat="45.1972" lon="5.98796">
        <ele>2489.2</ele>
        <time>2021-04-17T09:52:50Z</time>
      </trkpt>
      <trkpt lat="45.1972" lon="5.98796">
        <ele>2489.2</ele>
        <time>2021-04-17T09:52:51Z</time>
      </trkpt>
      <trkpt lat="45.1972" lon="5.98796">
        <ele>2489.4</ele>
        <time>2021-04-17T09:52:53Z</time>
      </trkpt>
      <trkpt lat="45.1972" lon="5.98796">
        <ele>2489.4</ele>
        <time>2021-04-17T09:52:54Z</time>
      </trkpt>
      <trkpt lat="45.1972" lon="5.98796">
        <ele>2489.6</ele>
        <time>2021-04-17T09:52:55Z</time>
      </trkpt>
      <trkpt lat="45.1972" lon="5.98796">
        <ele>2489.6</ele>
        <time>2021-04-17T09:52:57Z</time>
      </trkpt>
      <trkpt lat="45.1972" lon="5.98795">
        <ele>2489.4</ele>
        <time>2021-04-17T09:53:01Z</time>
      </trkpt>
      <trkpt lat="45.1972" lon="5.98795">
        <ele>2489.2</ele>
        <time>2021-04-17T09:53:02Z</time>
      </trkpt>
      <trkpt lat="45.1972" lon="5.98796">
        <ele>2489.2</ele>
        <time>2021-04-17T09:53:04Z</time>
      </trkpt>
      <trkpt lat="45.1972" lon="5.98796">
        <ele>2489.2</ele>
        <time>2021-04-17T09:53:05Z</time>
      </trkpt>
      <trkpt lat="45.1972" lon="5.98796">
        <ele>2489.4</ele>
        <time>2021-04-17T09:53:07Z</time>
      </trkpt>
      <trkpt lat="45.1972" lon="5.98796">
        <ele>2489.6</ele>
        <time>2021-04-17T09:53:10Z</time>
      </trkpt>
      <trkpt lat="45.1972" lon="5.98796">
        <ele>2489.6</ele>
        <time>2021-04-17T09:53:11Z</time>
      </trkpt>
      <trkpt lat="45.1972" lon="5.98796">
        <ele>2489.4</ele>
        <time>2021-04-17T09:53:13Z</time>
      </trkpt>
      <trkpt lat="45.19719" lon="5.98796">
        <ele>2489.2</ele>
        <time>2021-04-17T09:53:15Z</time>
      </trkpt>
      <trkpt lat="45.19719" lon="5.98795">
        <ele>2489</ele>
        <time>2021-04-17T09:53:18Z</time>
      </trkpt>
      <trkpt lat="45.19719" lon="5.98795">
        <ele>2489</ele>
        <time>2021-04-17T09:53:19Z</time>
      </trkpt>
      <trkpt lat="45.19719" lon="5.98795">
        <ele>2489</ele>
        <time>2021-04-17T09:53:20Z</time>
      </trkpt>
      <trkpt lat="45.19719" lon="5.98795">
        <ele>2489.2</ele>
        <time>2021-04-17T09:53:22Z</time>
      </trkpt>
      <trkpt lat="45.19719" lon="5.98795">
        <ele>2489.2</ele>
        <time>2021-04-17T09:53:23Z</time>
      </trkpt>
      <trkpt lat="45.1972" lon="5.98796">
        <ele>2489.2</ele>
        <time>2021-04-17T09:53:25Z</time>
      </trkpt>
      <trkpt lat="45.1972" lon="5.98796">
        <ele>2489.2</ele>
        <time>2021-04-17T09:53:26Z</time>
      </trkpt>
      <trkpt lat="45.1972" lon="5.98796">
        <ele>2489.2</ele>
        <time>2021-04-17T09:53:29Z</time>
      </trkpt>
      <trkpt lat="45.1972" lon="5.98796">
        <ele>2489</ele>
        <time>2021-04-17T09:53:31Z</time>
      </trkpt>
      <trkpt lat="45.19719" lon="5.98795">
        <ele>2489</ele>
        <time>2021-04-17T09:53:32Z</time>
      </trkpt>
      <trkpt lat="45.19718" lon="5.9879">
        <ele>2488.8</ele>
        <time>2021-04-17T09:53:33Z</time>
      </trkpt>
      <trkpt lat="45.19717" lon="5.98785">
        <ele>2488.6</ele>
        <time>2021-04-17T09:53:34Z</time>
      </trkpt>
      <trkpt lat="45.19715" lon="5.9878">
        <ele>2488</ele>
        <time>2021-04-17T09:53:35Z</time>
      </trkpt>
      <trkpt lat="45.19714" lon="5.98776">
        <ele>2487.4</ele>
        <time>2021-04-17T09:53:36Z</time>
      </trkpt>
      <trkpt lat="45.19713" lon="5.98773">
        <ele>2486.8</ele>
        <time>2021-04-17T09:53:37Z</time>
      </trkpt>
      <trkpt lat="45.19712" lon="5.98769">
        <ele>2485.8</ele>
        <time>2021-04-17T09:53:39Z</time>
      </trkpt>
      <trkpt lat="45.19711" lon="5.98768">
        <ele>2485.4</ele>
        <time>2021-04-17T09:53:40Z</time>
      </trkpt>
      <trkpt lat="45.19711" lon="5.98767">
        <ele>2485.2</ele>
        <time>2021-04-17T09:53:41Z</time>
      </trkpt>
      <trkpt lat="45.19711" lon="5.98767">
        <ele>2485</ele>
        <time>2021-04-17T09:53:43Z</time>
      </trkpt>
      <trkpt lat="45.19711" lon="5.98767">
        <ele>2485.2</ele>
        <time>2021-04-17T09:53:44Z</time>
      </trkpt>
      <trkpt lat="45.19711" lon="5.98767">
        <ele>2485.4</ele>
        <time>2021-04-17T09:53:50Z</time>
      </trkpt>
      <trkpt lat="45.19711" lon="5.98767">
        <ele>2485.4</ele>
        <time>2021-04-17T09:53:51Z</time>
      </trkpt>
      <trkpt lat="45.19709" lon="5.98764">
        <ele>2485.2</ele>
        <time>2021-04-17T09:53:53Z</time>
      </trkpt>
      <trkpt lat="45.19708" lon="5.98762">
        <ele>2484.8</ele>
        <time>2021-04-17T09:53:54Z</time>
      </trkpt>
      <trkpt lat="45.19707" lon="5.9876">
        <ele>2484.2</ele>
        <time>2021-04-17T09:53:55Z</time>
      </trkpt>
      <trkpt lat="45.19705" lon="5.98754">
        <ele>2482.6</ele>
        <time>2021-04-17T09:53:57Z</time>
      </trkpt>
      <trkpt lat="45.19703" lon="5.98748">
        <ele>2481.6</ele>
        <time>2021-04-17T09:53:59Z</time>
      </trkpt>
      <trkpt lat="45.19701" lon="5.98745">
        <ele>2481.2</ele>
        <time>2021-04-17T09:54:00Z</time>
      </trkpt>
      <trkpt lat="45.19701" lon="5.98744">
        <ele>2480.6</ele>
        <time>2021-04-17T09:54:01Z</time>
      </trkpt>
      <trkpt lat="45.19701" lon="5.98743">
        <ele>2480</ele>
        <time>2021-04-17T09:54:02Z</time>
      </trkpt>
      <trkpt lat="45.19701" lon="5.98743">
        <ele>2479.4</ele>
        <time>2021-04-17T09:54:04Z</time>
      </trkpt>
      <trkpt lat="45.19701" lon="5.98743">
        <ele>2479.2</ele>
        <time>2021-04-17T09:54:06Z</time>
      </trkpt>
      <trkpt lat="45.19701" lon="5.98744">
        <ele>2479.2</ele>
        <time>2021-04-17T09:54:07Z</time>
      </trkpt>
      <trkpt lat="45.19701" lon="5.98744">
        <ele>2479</ele>
        <time>2021-04-17T09:54:08Z</time>
      </trkpt>
      <trkpt lat="45.19699" lon="5.98746">
        <ele>2478.8</ele>
        <time>2021-04-17T09:54:10Z</time>
      </trkpt>
      <trkpt lat="45.19698" lon="5.9875">
        <ele>2478</ele>
        <time>2021-04-17T09:54:11Z</time>
      </trkpt>
      <trkpt lat="45.19696" lon="5.98754">
        <ele>2476.4</ele>
        <time>2021-04-17T09:54:12Z</time>
      </trkpt>
      <trkpt lat="45.19696" lon="5.98758">
        <ele>2475.2</ele>
        <time>2021-04-17T09:54:13Z</time>
      </trkpt>
      <trkpt lat="45.19693" lon="5.98769">
        <ele>2474</ele>
        <time>2021-04-17T09:54:15Z</time>
      </trkpt>
      <trkpt lat="45.1969" lon="5.98777">
        <ele>2472.8</ele>
        <time>2021-04-17T09:54:17Z</time>
      </trkpt>
      <trkpt lat="45.1968" lon="5.98787">
        <ele>2471.2</ele>
        <time>2021-04-17T09:54:20Z</time>
      </trkpt>
      <trkpt lat="45.19676" lon="5.9879">
        <ele>2470.2</ele>
        <time>2021-04-17T09:54:21Z</time>
      </trkpt>
      <trkpt lat="45.19673" lon="5.98792">
        <ele>2469</ele>
        <time>2021-04-17T09:54:22Z</time>
      </trkpt>
      <trkpt lat="45.1967" lon="5.98794">
        <ele>2467.8</ele>
        <time>2021-04-17T09:54:23Z</time>
      </trkpt>
      <trkpt lat="45.19662" lon="5.98798">
        <ele>2466</ele>
        <time>2021-04-17T09:54:25Z</time>
      </trkpt>
      <trkpt lat="45.19658" lon="5.988">
        <ele>2465.4</ele>
        <time>2021-04-17T09:54:26Z</time>
      </trkpt>
      <trkpt lat="45.19655" lon="5.98803">
        <ele>2464.6</ele>
        <time>2021-04-17T09:54:27Z</time>
      </trkpt>
      <trkpt lat="45.19651" lon="5.98806">
        <ele>2463.4</ele>
        <time>2021-04-17T09:54:28Z</time>
      </trkpt>
      <trkpt lat="45.19646" lon="5.98808">
        <ele>2462.4</ele>
        <time>2021-04-17T09:54:29Z</time>
      </trkpt>
      <trkpt lat="45.19638" lon="5.98812">
        <ele>2460.6</ele>
        <time>2021-04-17T09:54:31Z</time>
      </trkpt>
      <trkpt lat="45.19632" lon="5.98814">
        <ele>2459.4</ele>
        <time>2021-04-17T09:54:32Z</time>
      </trkpt>
      <trkpt lat="45.19628" lon="5.98815">
        <ele>2458.2</ele>
        <time>2021-04-17T09:54:33Z</time>
      </trkpt>
      <trkpt lat="45.19621" lon="5.98817">
        <ele>2456.8</ele>
        <time>2021-04-17T09:54:34Z</time>
      </trkpt>
      <trkpt lat="45.19617" lon="5.98819">
        <ele>2455.4</ele>
        <time>2021-04-17T09:54:35Z</time>
      </trkpt>
      <trkpt lat="45.19611" lon="5.9882">
        <ele>2454</ele>
        <time>2021-04-17T09:54:36Z</time>
      </trkpt>
      <trkpt lat="45.19606" lon="5.98821">
        <ele>2452.8</ele>
        <time>2021-04-17T09:54:37Z</time>
      </trkpt>
      <trkpt lat="45.19602" lon="5.98821">
        <ele>2451.6</ele>
        <time>2021-04-17T09:54:38Z</time>
      </trkpt>
      <trkpt lat="45.19598" lon="5.9882">
        <ele>2450.4</ele>
        <time>2021-04-17T09:54:39Z</time>
      </trkpt>
      <trkpt lat="45.19594" lon="5.9882">
        <ele>2449.2</ele>
        <time>2021-04-17T09:54:40Z</time>
      </trkpt>
      <trkpt lat="45.19592" lon="5.98819">
        <ele>2448.4</ele>
        <time>2021-04-17T09:54:41Z</time>
      </trkpt>
      <trkpt lat="45.19592" lon="5.98819">
        <ele>2447.8</ele>
        <time>2021-04-17T09:54:42Z</time>
      </trkpt>
      <trkpt lat="45.19591" lon="5.9882">
        <ele>2447</ele>
        <time>2021-04-17T09:54:44Z</time>
      </trkpt>
      <trkpt lat="45.1959" lon="5.9882">
        <ele>2446.6</ele>
        <time>2021-04-17T09:54:45Z</time>
      </trkpt>
      <trkpt lat="45.19589" lon="5.98819">
        <ele>2446.4</ele>
        <time>2021-04-17T09:54:46Z</time>
      </trkpt>
      <trkpt lat="45.19589" lon="5.98819">
        <ele>2446.2</ele>
        <time>2021-04-17T09:54:47Z</time>
      </trkpt>
      <trkpt lat="45.19588" lon="5.98819">
        <ele>2446.2</ele>
        <time>2021-04-17T09:54:48Z</time>
      </trkpt>
      <trkpt lat="45.19585" lon="5.98819">
        <ele>2446</ele>
        <time>2021-04-17T09:54:52Z</time>
      </trkpt>
      <trkpt lat="45.19583" lon="5.98818">
        <ele>2445.6</ele>
        <time>2021-04-17T09:54:54Z</time>
      </trkpt>
      <trkpt lat="45.1958" lon="5.98817">
        <ele>2445</ele>
        <time>2021-04-17T09:54:56Z</time>
      </trkpt>
      <trkpt lat="45.19576" lon="5.98816">
        <ele>2444.2</ele>
        <time>2021-04-17T09:54:58Z</time>
      </trkpt>
      <trkpt lat="45.19568" lon="5.98814">
        <ele>2442.8</ele>
        <time>2021-04-17T09:55:01Z</time>
      </trkpt>
      <trkpt lat="45.19564" lon="5.98813">
        <ele>2442.2</ele>
        <time>2021-04-17T09:55:02Z</time>
      </trkpt>
      <trkpt lat="45.19559" lon="5.98812">
        <ele>2441.2</ele>
        <time>2021-04-17T09:55:03Z</time>
      </trkpt>
      <trkpt lat="45.19553" lon="5.98811">
        <ele>2440.2</ele>
        <time>2021-04-17T09:55:04Z</time>
      </trkpt>
      <trkpt lat="45.19543" lon="5.98807">
        <ele>2438.2</ele>
        <time>2021-04-17T09:55:06Z</time>
      </trkpt>
      <trkpt lat="45.19537" lon="5.98805">
        <ele>2437</ele>
        <time>2021-04-17T09:55:07Z</time>
      </trkpt>
      <trkpt lat="45.19531" lon="5.98802">
        <ele>2435.8</ele>
        <time>2021-04-17T09:55:08Z</time>
      </trkpt>
      <trkpt lat="45.19525" lon="5.98799">
        <ele>2434.2</ele>
        <time>2021-04-17T09:55:09Z</time>
      </trkpt>
      <trkpt lat="45.19518" lon="5.98796">
        <ele>2432.4</ele>
        <time>2021-04-17T09:55:10Z</time>
      </trkpt>
      <trkpt lat="45.19512" lon="5.98792">
        <ele>2430.8</ele>
        <time>2021-04-17T09:55:11Z</time>
      </trkpt>
      <trkpt lat="45.19504" lon="5.98787">
        <ele>2429.4</ele>
        <time>2021-04-17T09:55:12Z</time>
      </trkpt>
      <trkpt lat="45.19499" lon="5.98782">
        <ele>2427.6</ele>
        <time>2021-04-17T09:55:13Z</time>
      </trkpt>
      <trkpt lat="45.19493" lon="5.98778">
        <ele>2425.6</ele>
        <time>2021-04-17T09:55:14Z</time>
      </trkpt>
      <trkpt lat="45.19487" lon="5.98772">
        <ele>2423.8</ele>
        <time>2021-04-17T09:55:15Z</time>
      </trkpt>
      <trkpt lat="45.19482" lon="5.98767">
        <ele>2422.6</ele>
        <time>2021-04-17T09:55:16Z</time>
      </trkpt>
      <trkpt lat="45.19479" lon="5.98762">
        <ele>2421.4</ele>
        <time>2021-04-17T09:55:17Z</time>
      </trkpt>
      <trkpt lat="45.19476" lon="5.98759">
        <ele>2420.4</ele>
        <time>2021-04-17T09:55:18Z</time>
      </trkpt>
      <trkpt lat="45.19472" lon="5.98755">
        <ele>2419</ele>
        <time>2021-04-17T09:55:19Z</time>
      </trkpt>
      <trkpt lat="45.19469" lon="5.98751">
        <ele>2418</ele>
        <time>2021-04-17T09:55:20Z</time>
      </trkpt>
      <trkpt lat="45.19465" lon="5.98746">
        <ele>2417.2</ele>
        <time>2021-04-17T09:55:21Z</time>
      </trkpt>
      <trkpt lat="45.19463" lon="5.98742">
        <ele>2416.4</ele>
        <time>2021-04-17T09:55:22Z</time>
      </trkpt>
      <trkpt lat="45.19461" lon="5.98739">
        <ele>2414.8</ele>
        <time>2021-04-17T09:55:23Z</time>
      </trkpt>
      <trkpt lat="45.19454" lon="5.98726">
        <ele>2413.2</ele>
        <time>2021-04-17T09:55:26Z</time>
      </trkpt>
      <trkpt lat="45.19449" lon="5.98719">
        <ele>2411.2</ele>
        <time>2021-04-17T09:55:28Z</time>
      </trkpt>
      <trkpt lat="45.19447" lon="5.98716">
        <ele>2410.2</ele>
        <time>2021-04-17T09:55:29Z</time>
      </trkpt>
      <trkpt lat="45.19442" lon="5.98711">
        <ele>2409.4</ele>
        <time>2021-04-17T09:55:30Z</time>
      </trkpt>
      <trkpt lat="45.19437" lon="5.98707">
        <ele>2408.4</ele>
        <time>2021-04-17T09:55:31Z</time>
      </trkpt>
      <trkpt lat="45.19432" lon="5.98702">
        <ele>2407</ele>
        <time>2021-04-17T09:55:32Z</time>
      </trkpt>
      <trkpt lat="45.19427" lon="5.98696">
        <ele>2405.2</ele>
        <time>2021-04-17T09:55:33Z</time>
      </trkpt>
      <trkpt lat="45.19423" lon="5.9869">
        <ele>2403.4</ele>
        <time>2021-04-17T09:55:34Z</time>
      </trkpt>
      <trkpt lat="45.19419" lon="5.98684">
        <ele>2401.6</ele>
        <time>2021-04-17T09:55:35Z</time>
      </trkpt>
      <trkpt lat="45.19415" lon="5.98677">
        <ele>2400.2</ele>
        <time>2021-04-17T09:55:36Z</time>
      </trkpt>
      <trkpt lat="45.19414" lon="5.98671">
        <ele>2398.6</ele>
        <time>2021-04-17T09:55:37Z</time>
      </trkpt>
      <trkpt lat="45.19415" lon="5.98665">
        <ele>2396.4</ele>
        <time>2021-04-17T09:55:38Z</time>
      </trkpt>
      <trkpt lat="45.19415" lon="5.9866">
        <ele>2394.4</ele>
        <time>2021-04-17T09:55:39Z</time>
      </trkpt>
      <trkpt lat="45.19417" lon="5.98653">
        <ele>2392.2</ele>
        <time>2021-04-17T09:55:40Z</time>
      </trkpt>
      <trkpt lat="45.19418" lon="5.98647">
        <ele>2389.8</ele>
        <time>2021-04-17T09:55:41Z</time>
      </trkpt>
      <trkpt lat="45.19418" lon="5.9864">
        <ele>2387.2</ele>
        <time>2021-04-17T09:55:42Z</time>
      </trkpt>
      <trkpt lat="45.19417" lon="5.98635">
        <ele>2384.6</ele>
        <time>2021-04-17T09:55:43Z</time>
      </trkpt>
      <trkpt lat="45.19414" lon="5.98629">
        <ele>2382.6</ele>
        <time>2021-04-17T09:55:44Z</time>
      </trkpt>
      <trkpt lat="45.1941" lon="5.98624">
        <ele>2381</ele>
        <time>2021-04-17T09:55:45Z</time>
      </trkpt>
      <trkpt lat="45.19406" lon="5.98617">
        <ele>2379.6</ele>
        <time>2021-04-17T09:55:46Z</time>
      </trkpt>
      <trkpt lat="45.19401" lon="5.9861">
        <ele>2377.8</ele>
        <time>2021-04-17T09:55:47Z</time>
      </trkpt>
      <trkpt lat="45.19398" lon="5.98604">
        <ele>2375.8</ele>
        <time>2021-04-17T09:55:48Z</time>
      </trkpt>
      <trkpt lat="45.19396" lon="5.98599">
        <ele>2374.4</ele>
        <time>2021-04-17T09:55:49Z</time>
      </trkpt>
      <trkpt lat="45.19395" lon="5.98595">
        <ele>2373.4</ele>
        <time>2021-04-17T09:55:50Z</time>
      </trkpt>
      <trkpt lat="45.19394" lon="5.98592">
        <ele>2372.8</ele>
        <time>2021-04-17T09:55:51Z</time>
      </trkpt>
      <trkpt lat="45.19394" lon="5.9859">
        <ele>2372.6</ele>
        <time>2021-04-17T09:55:52Z</time>
      </trkpt>
      <trkpt lat="45.19395" lon="5.98591">
        <ele>2372.2</ele>
        <time>2021-04-17T09:55:54Z</time>
      </trkpt>
      <trkpt lat="45.19396" lon="5.98591">
        <ele>2372</ele>
        <time>2021-04-17T09:55:55Z</time>
      </trkpt>
      <trkpt lat="45.19396" lon="5.98591">
        <ele>2372</ele>
        <time>2021-04-17T09:55:57Z</time>
      </trkpt>
      <trkpt lat="45.19397" lon="5.98591">
        <ele>2371.8</ele>
        <time>2021-04-17T09:55:58Z</time>
      </trkpt>
      <trkpt lat="45.19398" lon="5.98592">
        <ele>2371.8</ele>
        <time>2021-04-17T09:55:59Z</time>
      </trkpt>
      <trkpt lat="45.19398" lon="5.98595">
        <ele>2371.8</ele>
        <time>2021-04-17T09:56:03Z</time>
      </trkpt>
      <trkpt lat="45.19397" lon="5.98596">
        <ele>2371.8</ele>
        <time>2021-04-17T09:56:05Z</time>
      </trkpt>
      <trkpt lat="45.19397" lon="5.98596">
        <ele>2372</ele>
        <time>2021-04-17T09:56:06Z</time>
      </trkpt>
      <trkpt lat="45.19397" lon="5.98596">
        <ele>2372</ele>
        <time>2021-04-17T09:56:07Z</time>
      </trkpt>
      <trkpt lat="45.19397" lon="5.98596">
        <ele>2372</ele>
        <time>2021-04-17T09:56:08Z</time>
      </trkpt>
      <trkpt lat="45.19397" lon="5.98596">
        <ele>2372</ele>
        <time>2021-04-17T09:56:09Z</time>
      </trkpt>
      <trkpt lat="45.19397" lon="5.98596">
        <ele>2372</ele>
        <time>2021-04-17T09:56:10Z</time>
      </trkpt>
      <trkpt lat="45.19397" lon="5.98596">
        <ele>2372</ele>
        <time>2021-04-17T09:56:11Z</time>
      </trkpt>
      <trkpt lat="45.19397" lon="5.98596">
        <ele>2372</ele>
        <time>2021-04-17T09:56:12Z</time>
      </trkpt>
      <trkpt lat="45.19397" lon="5.98596">
        <ele>2372</ele>
        <time>2021-04-17T09:56:14Z</time>
      </trkpt>
      <trkpt lat="45.19397" lon="5.98596">
        <ele>2372</ele>
        <time>2021-04-17T09:56:17Z</time>
      </trkpt>
      <trkpt lat="45.19397" lon="5.98596">
        <ele>2372.2</ele>
        <time>2021-04-17T09:56:21Z</time>
      </trkpt>
      <trkpt lat="45.19397" lon="5.98598">
        <ele>2372.2</ele>
        <time>2021-04-17T09:56:25Z</time>
      </trkpt>
      <trkpt lat="45.19397" lon="5.98598">
        <ele>2372.2</ele>
        <time>2021-04-17T09:56:27Z</time>
      </trkpt>
      <trkpt lat="45.19397" lon="5.98598">
        <ele>2372.2</ele>
        <time>2021-04-17T09:56:28Z</time>
      </trkpt>
      <trkpt lat="45.19397" lon="5.98598">
        <ele>2372.2</ele>
        <time>2021-04-17T09:56:29Z</time>
      </trkpt>
      <trkpt lat="45.19397" lon="5.98598">
        <ele>2372.2</ele>
        <time>2021-04-17T09:56:30Z</time>
      </trkpt>
      <trkpt lat="45.19397" lon="5.98598">
        <ele>2372.2</ele>
        <time>2021-04-17T09:56:32Z</time>
      </trkpt>
      <trkpt lat="45.19397" lon="5.98598">
        <ele>2372</ele>
        <time>2021-04-17T09:56:33Z</time>
      </trkpt>
      <trkpt lat="45.19397" lon="5.98598">
        <ele>2372</ele>
        <time>2021-04-17T09:56:35Z</time>
      </trkpt>
      <trkpt lat="45.19397" lon="5.98598">
        <ele>2372</ele>
        <time>2021-04-17T09:56:36Z</time>
      </trkpt>
      <trkpt lat="45.19397" lon="5.98598">
        <ele>2372</ele>
        <time>2021-04-17T09:56:39Z</time>
      </trkpt>
      <trkpt lat="45.19397" lon="5.98598">
        <ele>2372.2</ele>
        <time>2021-04-17T09:56:40Z</time>
      </trkpt>
      <trkpt lat="45.19397" lon="5.98598">
        <ele>2372.2</ele>
        <time>2021-04-17T09:56:42Z</time>
      </trkpt>
      <trkpt lat="45.19397" lon="5.98598">
        <ele>2372.2</ele>
        <time>2021-04-17T09:56:43Z</time>
      </trkpt>
      <trkpt lat="45.19397" lon="5.98598">
        <ele>2372.2</ele>
        <time>2021-04-17T09:56:44Z</time>
      </trkpt>
      <trkpt lat="45.19397" lon="5.98598">
        <ele>2372.2</ele>
        <time>2021-04-17T09:56:45Z</time>
      </trkpt>
      <trkpt lat="45.19397" lon="5.98598">
        <ele>2372.4</ele>
        <time>2021-04-17T09:56:46Z</time>
      </trkpt>
      <trkpt lat="45.19397" lon="5.98598">
        <ele>2372.4</ele>
        <time>2021-04-17T09:56:47Z</time>
      </trkpt>
      <trkpt lat="45.19397" lon="5.98598">
        <ele>2372.4</ele>
        <time>2021-04-17T09:56:48Z</time>
      </trkpt>
      <trkpt lat="45.19397" lon="5.98598">
        <ele>2372.4</ele>
        <time>2021-04-17T09:56:50Z</time>
      </trkpt>
      <trkpt lat="45.19397" lon="5.98597">
        <ele>2372.4</ele>
        <time>2021-04-17T09:56:51Z</time>
      </trkpt>
      <trkpt lat="45.19397" lon="5.98597">
        <ele>2372.4</ele>
        <time>2021-04-17T09:56:52Z</time>
      </trkpt>
      <trkpt lat="45.19397" lon="5.98597">
        <ele>2372.2</ele>
        <time>2021-04-17T09:56:54Z</time>
      </trkpt>
      <trkpt lat="45.19396" lon="5.98597">
        <ele>2372.2</ele>
        <time>2021-04-17T09:56:55Z</time>
      </trkpt>
      <trkpt lat="45.19396" lon="5.98597">
        <ele>2372.2</ele>
        <time>2021-04-17T09:57:01Z</time>
      </trkpt>
      <trkpt lat="45.19397" lon="5.98596">
        <ele>2372.2</ele>
        <time>2021-04-17T09:57:03Z</time>
      </trkpt>
      <trkpt lat="45.19397" lon="5.98596">
        <ele>2372.2</ele>
        <time>2021-04-17T09:57:05Z</time>
      </trkpt>
      <trkpt lat="45.19397" lon="5.98596">
        <ele>2372.2</ele>
        <time>2021-04-17T09:57:08Z</time>
      </trkpt>
      <trkpt lat="45.19397" lon="5.98595">
        <ele>2372.4</ele>
        <time>2021-04-17T09:57:09Z</time>
      </trkpt>
      <trkpt lat="45.19397" lon="5.98594">
        <ele>2372.4</ele>
        <time>2021-04-17T09:57:11Z</time>
      </trkpt>
      <trkpt lat="45.19397" lon="5.98594">
        <ele>2372.4</ele>
        <time>2021-04-17T09:57:13Z</time>
      </trkpt>
      <trkpt lat="45.19397" lon="5.98594">
        <ele>2372.4</ele>
        <time>2021-04-17T09:57:16Z</time>
      </trkpt>
      <trkpt lat="45.19397" lon="5.98594">
        <ele>2372.4</ele>
        <time>2021-04-17T09:57:18Z</time>
      </trkpt>
      <trkpt lat="45.19397" lon="5.98594">
        <ele>2372.4</ele>
        <time>2021-04-17T09:57:19Z</time>
      </trkpt>
      <trkpt lat="45.19397" lon="5.98594">
        <ele>2372.4</ele>
        <time>2021-04-17T09:57:20Z</time>
      </trkpt>
      <trkpt lat="45.19397" lon="5.98594">
        <ele>2372.4</ele>
        <time>2021-04-17T09:57:21Z</time>
      </trkpt>
      <trkpt lat="45.19397" lon="5.98594">
        <ele>2372.4</ele>
        <time>2021-04-17T09:57:24Z</time>
      </trkpt>
      <trkpt lat="45.19397" lon="5.98593">
        <ele>2372.4</ele>
        <time>2021-04-17T09:57:27Z</time>
      </trkpt>
      <trkpt lat="45.19397" lon="5.98593">
        <ele>2372.4</ele>
        <time>2021-04-17T09:57:28Z</time>
      </trkpt>
      <trkpt lat="45.19397" lon="5.98593">
        <ele>2372.4</ele>
        <time>2021-04-17T09:57:29Z</time>
      </trkpt>
      <trkpt lat="45.19397" lon="5.98593">
        <ele>2372.4</ele>
        <time>2021-04-17T09:57:31Z</time>
      </trkpt>
      <trkpt lat="45.19397" lon="5.98593">
        <ele>2372.4</ele>
        <time>2021-04-17T09:57:33Z</time>
      </trkpt>
      <trkpt lat="45.19396" lon="5.98593">
        <ele>2372.4</ele>
        <time>2021-04-17T09:57:38Z</time>
      </trkpt>
      <trkpt lat="45.19396" lon="5.98593">
        <ele>2372.4</ele>
        <time>2021-04-17T09:57:41Z</time>
      </trkpt>
      <trkpt lat="45.19396" lon="5.98593">
        <ele>2372.4</ele>
        <time>2021-04-17T09:57:44Z</time>
      </trkpt>
      <trkpt lat="45.19396" lon="5.98593">
        <ele>2372.4</ele>
        <time>2021-04-17T09:57:45Z</time>
      </trkpt>
      <trkpt lat="45.19396" lon="5.98594">
        <ele>2372.4</ele>
        <time>2021-04-17T09:57:46Z</time>
      </trkpt>
      <trkpt lat="45.19397" lon="5.98594">
        <ele>2372.4</ele>
        <time>2021-04-17T09:57:48Z</time>
      </trkpt>
      <trkpt lat="45.19396" lon="5.98594">
        <ele>2372.4</ele>
        <time>2021-04-17T09:57:49Z</time>
      </trkpt>
      <trkpt lat="45.19396" lon="5.98594">
        <ele>2372.4</ele>
        <time>2021-04-17T09:57:51Z</time>
      </trkpt>
      <trkpt lat="45.19396" lon="5.98595">
        <ele>2372.4</ele>
        <time>2021-04-17T09:57:54Z</time>
      </trkpt>
      <trkpt lat="45.19396" lon="5.98596">
        <ele>2372.4</ele>
        <time>2021-04-17T09:58:00Z</time>
      </trkpt>
      <trkpt lat="45.19396" lon="5.98596">
        <ele>2372.4</ele>
        <time>2021-04-17T09:58:02Z</time>
      </trkpt>
      <trkpt lat="45.19396" lon="5.98596">
        <ele>2372.4</ele>
        <time>2021-04-17T09:58:04Z</time>
      </trkpt>
      <trkpt lat="45.19396" lon="5.98596">
        <ele>2372.4</ele>
        <time>2021-04-17T09:58:06Z</time>
      </trkpt>
      <trkpt lat="45.19396" lon="5.98596">
        <ele>2372.4</ele>
        <time>2021-04-17T09:58:07Z</time>
      </trkpt>
      <trkpt lat="45.19396" lon="5.98596">
        <ele>2372.4</ele>
        <time>2021-04-17T09:58:09Z</time>
      </trkpt>
      <trkpt lat="45.19396" lon="5.98596">
        <ele>2372.4</ele>
        <time>2021-04-17T09:58:10Z</time>
      </trkpt>
      <trkpt lat="45.19396" lon="5.98596">
        <ele>2372.4</ele>
        <time>2021-04-17T09:58:12Z</time>
      </trkpt>
      <trkpt lat="45.19396" lon="5.98596">
        <ele>2372.4</ele>
        <time>2021-04-17T09:58:16Z</time>
      </trkpt>
      <trkpt lat="45.19396" lon="5.98596">
        <ele>2372.4</ele>
        <time>2021-04-17T09:58:17Z</time>
      </trkpt>
      <trkpt lat="45.19396" lon="5.98596">
        <ele>2372.4</ele>
        <time>2021-04-17T09:58:21Z</time>
      </trkpt>
      <trkpt lat="45.19396" lon="5.98596">
        <ele>2372.4</ele>
        <time>2021-04-17T09:58:22Z</time>
      </trkpt>
      <trkpt lat="45.19396" lon="5.98596">
        <ele>2372.4</ele>
        <time>2021-04-17T09:58:24Z</time>
      </trkpt>
      <trkpt lat="45.19396" lon="5.98596">
        <ele>2372.4</ele>
        <time>2021-04-17T09:58:26Z</time>
      </trkpt>
      <trkpt lat="45.19395" lon="5.98596">
        <ele>2372.4</ele>
        <time>2021-04-17T09:58:27Z</time>
      </trkpt>
      <trkpt lat="45.19395" lon="5.98596">
        <ele>2372.4</ele>
        <time>2021-04-17T09:58:28Z</time>
      </trkpt>
      <trkpt lat="45.19395" lon="5.98596">
        <ele>2372.4</ele>
        <time>2021-04-17T09:58:34Z</time>
      </trkpt>
      <trkpt lat="45.19395" lon="5.98596">
        <ele>2372.4</ele>
        <time>2021-04-17T09:58:38Z</time>
      </trkpt>
      <trkpt lat="45.19395" lon="5.98596">
        <ele>2372.4</ele>
        <time>2021-04-17T09:58:44Z</time>
      </trkpt>
      <trkpt lat="45.19395" lon="5.98596">
        <ele>2372.4</ele>
        <time>2021-04-17T09:58:50Z</time>
      </trkpt>
      <trkpt lat="45.19395" lon="5.98596">
        <ele>2372.4</ele>
        <time>2021-04-17T09:58:51Z</time>
      </trkpt>
      <trkpt lat="45.19395" lon="5.98596">
        <ele>2372.4</ele>
        <time>2021-04-17T09:58:54Z</time>
      </trkpt>
      <trkpt lat="45.19395" lon="5.98596">
        <ele>2372.4</ele>
        <time>2021-04-17T09:59:00Z</time>
      </trkpt>
      <trkpt lat="45.19395" lon="5.98596">
        <ele>2372.4</ele>
        <time>2021-04-17T09:59:06Z</time>
      </trkpt>
      <trkpt lat="45.19395" lon="5.98596">
        <ele>2372.4</ele>
        <time>2021-04-17T09:59:07Z</time>
      </trkpt>
      <trkpt lat="45.19395" lon="5.98596">
        <ele>2372.4</ele>
        <time>2021-04-17T09:59:08Z</time>
      </trkpt>
      <trkpt lat="45.19395" lon="5.98596">
        <ele>2372.4</ele>
        <time>2021-04-17T09:59:10Z</time>
      </trkpt>
      <trkpt lat="45.19395" lon="5.98596">
        <ele>2372.4</ele>
        <time>2021-04-17T09:59:11Z</time>
      </trkpt>
      <trkpt lat="45.19395" lon="5.98596">
        <ele>2372.4</ele>
        <time>2021-04-17T09:59:15Z</time>
      </trkpt>
      <trkpt lat="45.19395" lon="5.98596">
        <ele>2372.4</ele>
        <time>2021-04-17T09:59:20Z</time>
      </trkpt>
      <trkpt lat="45.19395" lon="5.98596">
        <ele>2372.4</ele>
        <time>2021-04-17T09:59:22Z</time>
      </trkpt>
      <trkpt lat="45.19395" lon="5.98596">
        <ele>2372.4</ele>
        <time>2021-04-17T09:59:23Z</time>
      </trkpt>
      <trkpt lat="45.19395" lon="5.98596">
        <ele>2372.4</ele>
        <time>2021-04-17T09:59:25Z</time>
      </trkpt>
      <trkpt lat="45.19395" lon="5.98596">
        <ele>2372.4</ele>
        <time>2021-04-17T09:59:27Z</time>
      </trkpt>
      <trkpt lat="45.19395" lon="5.98596">
        <ele>2372.4</ele>
        <time>2021-04-17T09:59:28Z</time>
      </trkpt>
      <trkpt lat="45.19395" lon="5.98596">
        <ele>2372.4</ele>
        <time>2021-04-17T09:59:30Z</time>
      </trkpt>
      <trkpt lat="45.19395" lon="5.98596">
        <ele>2372.4</ele>
        <time>2021-04-17T09:59:33Z</time>
      </trkpt>
      <trkpt lat="45.19395" lon="5.98596">
        <ele>2372.4</ele>
        <time>2021-04-17T09:59:34Z</time>
      </trkpt>
      <trkpt lat="45.19395" lon="5.98596">
        <ele>2372.4</ele>
        <time>2021-04-17T09:59:40Z</time>
      </trkpt>
      <trkpt lat="45.19395" lon="5.98596">
        <ele>2372.4</ele>
        <time>2021-04-17T09:59:41Z</time>
      </trkpt>
      <trkpt lat="45.19395" lon="5.98596">
        <ele>2372.4</ele>
        <time>2021-04-17T09:59:43Z</time>
      </trkpt>
      <trkpt lat="45.19395" lon="5.98596">
        <ele>2372.4</ele>
        <time>2021-04-17T09:59:44Z</time>
      </trkpt>
      <trkpt lat="45.19395" lon="5.98596">
        <ele>2372.4</ele>
        <time>2021-04-17T09:59:45Z</time>
      </trkpt>
      <trkpt lat="45.19395" lon="5.98596">
        <ele>2372.4</ele>
        <time>2021-04-17T09:59:47Z</time>
      </trkpt>
      <trkpt lat="45.19395" lon="5.98596">
        <ele>2372.4</ele>
        <time>2021-04-17T09:59:48Z</time>
      </trkpt>
      <trkpt lat="45.19395" lon="5.98596">
        <ele>2372.4</ele>
        <time>2021-04-17T09:59:51Z</time>
      </trkpt>
      <trkpt lat="45.19395" lon="5.98596">
        <ele>2372.4</ele>
        <time>2021-04-17T09:59:53Z</time>
      </trkpt>
      <trkpt lat="45.19395" lon="5.98596">
        <ele>2372.4</ele>
        <time>2021-04-17T09:59:54Z</time>
      </trkpt>
      <trkpt lat="45.19395" lon="5.98596">
        <ele>2372.4</ele>
        <time>2021-04-17T09:59:56Z</time>
      </trkpt>
      <trkpt lat="45.19395" lon="5.98596">
        <ele>2372.4</ele>
        <time>2021-04-17T09:59:57Z</time>
      </trkpt>
      <trkpt lat="45.19395" lon="5.98596">
        <ele>2372.4</ele>
        <time>2021-04-17T09:59:58Z</time>
      </trkpt>
      <trkpt lat="45.19395" lon="5.98596">
        <ele>2372.4</ele>
        <time>2021-04-17T10:00:00Z</time>
      </trkpt>
      <trkpt lat="45.19395" lon="5.98596">
        <ele>2372.4</ele>
        <time>2021-04-17T10:00:04Z</time>
      </trkpt>
      <trkpt lat="45.19395" lon="5.98596">
        <ele>2372.4</ele>
        <time>2021-04-17T10:00:05Z</time>
      </trkpt>
      <trkpt lat="45.19395" lon="5.98596">
        <ele>2372.4</ele>
        <time>2021-04-17T10:00:11Z</time>
      </trkpt>
      <trkpt lat="45.19395" lon="5.98596">
        <ele>2372.4</ele>
        <time>2021-04-17T10:00:13Z</time>
      </trkpt>
      <trkpt lat="45.19395" lon="5.98596">
        <ele>2372.4</ele>
        <time>2021-04-17T10:00:14Z</time>
      </trkpt>
      <trkpt lat="45.19395" lon="5.98596">
        <ele>2372.4</ele>
        <time>2021-04-17T10:00:16Z</time>
      </trkpt>
      <trkpt lat="45.19395" lon="5.98596">
        <ele>2372.4</ele>
        <time>2021-04-17T10:00:20Z</time>
      </trkpt>
      <trkpt lat="45.19395" lon="5.98596">
        <ele>2372.4</ele>
        <time>2021-04-17T10:00:22Z</time>
      </trkpt>
      <trkpt lat="45.19395" lon="5.98596">
        <ele>2372.4</ele>
        <time>2021-04-17T10:00:25Z</time>
      </trkpt>
      <trkpt lat="45.19395" lon="5.98596">
        <ele>2372.4</ele>
        <time>2021-04-17T10:00:26Z</time>
      </trkpt>
      <trkpt lat="45.19394" lon="5.98596">
        <ele>2372.4</ele>
        <time>2021-04-17T10:00:27Z</time>
      </trkpt>
      <trkpt lat="45.19394" lon="5.98596">
        <ele>2372.4</ele>
        <time>2021-04-17T10:00:28Z</time>
      </trkpt>
      <trkpt lat="45.19394" lon="5.98596">
        <ele>2372.4</ele>
        <time>2021-04-17T10:00:33Z</time>
      </trkpt>
      <trkpt lat="45.19394" lon="5.98596">
        <ele>2372.4</ele>
        <time>2021-04-17T10:00:35Z</time>
      </trkpt>
      <trkpt lat="45.19394" lon="5.98596">
        <ele>2372.4</ele>
        <time>2021-04-17T10:00:37Z</time>
      </trkpt>
      <trkpt lat="45.19394" lon="5.98596">
        <ele>2372.4</ele>
        <time>2021-04-17T10:00:39Z</time>
      </trkpt>
      <trkpt lat="45.19394" lon="5.98596">
        <ele>2372.4</ele>
        <time>2021-04-17T10:00:42Z</time>
      </trkpt>
      <trkpt lat="45.19394" lon="5.98596">
        <ele>2372.4</ele>
        <time>2021-04-17T10:00:43Z</time>
      </trkpt>
      <trkpt lat="45.19394" lon="5.98596">
        <ele>2372.4</ele>
        <time>2021-04-17T10:00:44Z</time>
      </trkpt>
      <trkpt lat="45.19394" lon="5.98596">
        <ele>2372.4</ele>
        <time>2021-04-17T10:00:45Z</time>
      </trkpt>
      <trkpt lat="45.19394" lon="5.98596">
        <ele>2372.4</ele>
        <time>2021-04-17T10:00:46Z</time>
      </trkpt>
      <trkpt lat="45.19394" lon="5.98596">
        <ele>2372.4</ele>
        <time>2021-04-17T10:00:47Z</time>
      </trkpt>
      <trkpt lat="45.19394" lon="5.98596">
        <ele>2372.4</ele>
        <time>2021-04-17T10:00:51Z</time>
      </trkpt>
      <trkpt lat="45.19394" lon="5.98596">
        <ele>2372.4</ele>
        <time>2021-04-17T10:00:53Z</time>
      </trkpt>
      <trkpt lat="45.19394" lon="5.98596">
        <ele>2372.4</ele>
        <time>2021-04-17T10:00:55Z</time>
      </trkpt>
      <trkpt lat="45.19394" lon="5.98596">
        <ele>2372.4</ele>
        <time>2021-04-17T10:00:57Z</time>
      </trkpt>
      <trkpt lat="45.19394" lon="5.98596">
        <ele>2372.4</ele>
        <time>2021-04-17T10:01:01Z</time>
      </trkpt>
      <trkpt lat="45.19394" lon="5.98596">
        <ele>2372.4</ele>
        <time>2021-04-17T10:01:03Z</time>
      </trkpt>
      <trkpt lat="45.19393" lon="5.98596">
        <ele>2372.4</ele>
        <time>2021-04-17T10:01:09Z</time>
      </trkpt>
      <trkpt lat="45.19388" lon="5.98594">
        <ele>2372.4</ele>
        <time>2021-04-17T10:01:12Z</time>
      </trkpt>
      <trkpt lat="45.19384" lon="5.98593">
        <ele>2372.4</ele>
        <time>2021-04-17T10:01:14Z</time>
      </trkpt>
      <trkpt lat="45.19381" lon="5.98591">
        <ele>2372.4</ele>
        <time>2021-04-17T10:01:16Z</time>
      </trkpt>
      <trkpt lat="45.19377" lon="5.98588">
        <ele>2373</ele>
        <time>2021-04-17T10:01:19Z</time>
      </trkpt>
      <trkpt lat="45.19376" lon="5.98585">
        <ele>2373.2</ele>
        <time>2021-04-17T10:01:21Z</time>
      </trkpt>
      <trkpt lat="45.19375" lon="5.98585">
        <ele>2373.4</ele>
        <time>2021-04-17T10:01:22Z</time>
      </trkpt>
      <trkpt lat="45.19373" lon="5.98583">
        <ele>2373.2</ele>
        <time>2021-04-17T10:01:25Z</time>
      </trkpt>
      <trkpt lat="45.19372" lon="5.98581">
        <ele>2373.6</ele>
        <time>2021-04-17T10:01:29Z</time>
      </trkpt>
      <trkpt lat="45.19372" lon="5.9858">
        <ele>2373.6</ele>
        <time>2021-04-17T10:01:30Z</time>
      </trkpt>
      <trkpt lat="45.19369" lon="5.98572">
        <ele>2373.8</ele>
        <time>2021-04-17T10:01:36Z</time>
      </trkpt>
      <trkpt lat="45.19367" lon="5.9857">
        <ele>2374</ele>
        <time>2021-04-17T10:01:39Z</time>
      </trkpt>
      <trkpt lat="45.19363" lon="5.98566">
        <ele>2374.6</ele>
        <time>2021-04-17T10:01:45Z</time>
      </trkpt>
      <trkpt lat="45.19362" lon="5.98565">
        <ele>2374.8</ele>
        <time>2021-04-17T10:01:47Z</time>
      </trkpt>
      <trkpt lat="45.1936" lon="5.98562">
        <ele>2375.2</ele>
        <time>2021-04-17T10:01:51Z</time>
      </trkpt>
      <trkpt lat="45.19357" lon="5.98558">
        <ele>2375.6</ele>
        <time>2021-04-17T10:01:56Z</time>
      </trkpt>
      <trkpt lat="45.19355" lon="5.98554">
        <ele>2376.2</ele>
        <time>2021-04-17T10:02:02Z</time>
      </trkpt>
      <trkpt lat="45.19356" lon="5.98554">
        <ele>2376.2</ele>
        <time>2021-04-17T10:02:03Z</time>
      </trkpt>
      <trkpt lat="45.19355" lon="5.98553">
        <ele>2376.2</ele>
        <time>2021-04-17T10:02:07Z</time>
      </trkpt>
      <trkpt lat="45.19354" lon="5.98548">
        <ele>2377</ele>
        <time>2021-04-17T10:02:13Z</time>
      </trkpt>
      <trkpt lat="45.19352" lon="5.98544">
        <ele>2377.4</ele>
        <time>2021-04-17T10:02:17Z</time>
      </trkpt>
      <trkpt lat="45.19352" lon="5.98542">
        <ele>2377.6</ele>
        <time>2021-04-17T10:02:20Z</time>
      </trkpt>
      <trkpt lat="45.1935" lon="5.98539">
        <ele>2378</ele>
        <time>2021-04-17T10:02:24Z</time>
      </trkpt>
      <trkpt lat="45.19348" lon="5.98536">
        <ele>2378.4</ele>
        <time>2021-04-17T10:02:27Z</time>
      </trkpt>
      <trkpt lat="45.19348" lon="5.98535">
        <ele>2378.6</ele>
        <time>2021-04-17T10:02:30Z</time>
      </trkpt>
      <trkpt lat="45.19348" lon="5.98535">
        <ele>2378.8</ele>
        <time>2021-04-17T10:02:32Z</time>
      </trkpt>
      <trkpt lat="45.19345" lon="5.9853">
        <ele>2379.2</ele>
        <time>2021-04-17T10:02:37Z</time>
      </trkpt>
      <trkpt lat="45.19345" lon="5.98529">
        <ele>2379.4</ele>
        <time>2021-04-17T10:02:38Z</time>
      </trkpt>
      <trkpt lat="45.19344" lon="5.98527">
        <ele>2380</ele>
        <time>2021-04-17T10:02:43Z</time>
      </trkpt>
      <trkpt lat="45.19344" lon="5.98527">
        <ele>2380.2</ele>
        <time>2021-04-17T10:02:45Z</time>
      </trkpt>
      <trkpt lat="45.19342" lon="5.98524">
        <ele>2380.6</ele>
        <time>2021-04-17T10:02:49Z</time>
      </trkpt>
      <trkpt lat="45.19341" lon="5.98522">
        <ele>2381</ele>
        <time>2021-04-17T10:02:52Z</time>
      </trkpt>
      <trkpt lat="45.19337" lon="5.98516">
        <ele>2381.6</ele>
        <time>2021-04-17T10:02:58Z</time>
      </trkpt>
      <trkpt lat="45.19337" lon="5.98516">
        <ele>2381.8</ele>
        <time>2021-04-17T10:02:59Z</time>
      </trkpt>
      <trkpt lat="45.19336" lon="5.9851">
        <ele>2382.2</ele>
        <time>2021-04-17T10:03:05Z</time>
      </trkpt>
      <trkpt lat="45.19334" lon="5.98506">
        <ele>2382.6</ele>
        <time>2021-04-17T10:03:09Z</time>
      </trkpt>
      <trkpt lat="45.19333" lon="5.98505">
        <ele>2382.8</ele>
        <time>2021-04-17T10:03:10Z</time>
      </trkpt>
      <trkpt lat="45.19335" lon="5.985">
        <ele>2383.4</ele>
        <time>2021-04-17T10:03:16Z</time>
      </trkpt>
      <trkpt lat="45.19333" lon="5.98498">
        <ele>2383.8</ele>
        <time>2021-04-17T10:03:20Z</time>
      </trkpt>
      <trkpt lat="45.19333" lon="5.98497">
        <ele>2384</ele>
        <time>2021-04-17T10:03:21Z</time>
      </trkpt>
      <trkpt lat="45.19332" lon="5.98493">
        <ele>2384.4</ele>
        <time>2021-04-17T10:03:27Z</time>
      </trkpt>
      <trkpt lat="45.19332" lon="5.98494">
        <ele>2384.4</ele>
        <time>2021-04-17T10:03:29Z</time>
      </trkpt>
      <trkpt lat="45.19331" lon="5.98494">
        <ele>2384.6</ele>
        <time>2021-04-17T10:03:33Z</time>
      </trkpt>
      <trkpt lat="45.19329" lon="5.98491">
        <ele>2384.8</ele>
        <time>2021-04-17T10:03:36Z</time>
      </trkpt>
      <trkpt lat="45.19328" lon="5.98488">
        <ele>2385.2</ele>
        <time>2021-04-17T10:03:41Z</time>
      </trkpt>
      <trkpt lat="45.19327" lon="5.98489">
        <ele>2385</ele>
        <time>2021-04-17T10:03:44Z</time>
      </trkpt>
      <trkpt lat="45.19327" lon="5.98489">
        <ele>2385</ele>
        <time>2021-04-17T10:03:45Z</time>
      </trkpt>
      <trkpt lat="45.19327" lon="5.98489">
        <ele>2385</ele>
        <time>2021-04-17T10:03:47Z</time>
      </trkpt>
      <trkpt lat="45.19326" lon="5.98488">
        <ele>2385.2</ele>
        <time>2021-04-17T10:03:53Z</time>
      </trkpt>
      <trkpt lat="45.19325" lon="5.98486">
        <ele>2385.2</ele>
        <time>2021-04-17T10:03:55Z</time>
      </trkpt>
      <trkpt lat="45.19325" lon="5.98484">
        <ele>2385.4</ele>
        <time>2021-04-17T10:03:57Z</time>
      </trkpt>
      <trkpt lat="45.19325" lon="5.98484">
        <ele>2385.4</ele>
        <time>2021-04-17T10:03:58Z</time>
      </trkpt>
      <trkpt lat="45.19325" lon="5.98483">
        <ele>2385.6</ele>
        <time>2021-04-17T10:04:00Z</time>
      </trkpt>
      <trkpt lat="45.19324" lon="5.98482">
        <ele>2385.6</ele>
        <time>2021-04-17T10:04:02Z</time>
      </trkpt>
      <trkpt lat="45.19324" lon="5.98482">
        <ele>2385.6</ele>
        <time>2021-04-17T10:04:03Z</time>
      </trkpt>
      <trkpt lat="45.19324" lon="5.98482">
        <ele>2385.6</ele>
        <time>2021-04-17T10:04:07Z</time>
      </trkpt>
      <trkpt lat="45.19323" lon="5.98481">
        <ele>2385.8</ele>
        <time>2021-04-17T10:04:11Z</time>
      </trkpt>
      <trkpt lat="45.19323" lon="5.98481">
        <ele>2385.8</ele>
        <time>2021-04-17T10:04:17Z</time>
      </trkpt>
      <trkpt lat="45.19323" lon="5.98481">
        <ele>2385.8</ele>
        <time>2021-04-17T10:04:20Z</time>
      </trkpt>
      <trkpt lat="45.19323" lon="5.98481">
        <ele>2385.8</ele>
        <time>2021-04-17T10:04:21Z</time>
      </trkpt>
      <trkpt lat="45.19323" lon="5.98481">
        <ele>2385.8</ele>
        <time>2021-04-17T10:04:22Z</time>
      </trkpt>
      <trkpt lat="45.19323" lon="5.98481">
        <ele>2385.8</ele>
        <time>2021-04-17T10:04:24Z</time>
      </trkpt>
      <trkpt lat="45.19323" lon="5.98481">
        <ele>2386</ele>
        <time>2021-04-17T10:04:30Z</time>
      </trkpt>
      <trkpt lat="45.19323" lon="5.98481">
        <ele>2386.2</ele>
        <time>2021-04-17T10:04:32Z</time>
      </trkpt>
      <trkpt lat="45.19323" lon="5.98481">
        <ele>2386.6</ele>
        <time>2021-04-17T10:04:35Z</time>
      </trkpt>
      <trkpt lat="45.19322" lon="5.98481">
        <ele>2386.6</ele>
        <time>2021-04-17T10:04:36Z</time>
      </trkpt>
      <trkpt lat="45.19322" lon="5.98483">
        <ele>2386.8</ele>
        <time>2021-04-17T10:04:37Z</time>
      </trkpt>
      <trkpt lat="45.19321" lon="5.98485">
        <ele>2387.2</ele>
        <time>2021-04-17T10:04:38Z</time>
      </trkpt>
      <trkpt lat="45.19319" lon="5.98489">
        <ele>2387.6</ele>
        <time>2021-04-17T10:04:41Z</time>
      </trkpt>
      <trkpt lat="45.19318" lon="5.98494">
        <ele>2388.4</ele>
        <time>2021-04-17T10:04:44Z</time>
      </trkpt>
      <trkpt lat="45.1932" lon="5.98497">
        <ele>2389</ele>
        <time>2021-04-17T10:04:47Z</time>
      </trkpt>
      <trkpt lat="45.1932" lon="5.98498">
        <ele>2389</ele>
        <time>2021-04-17T10:04:48Z</time>
      </trkpt>
      <trkpt lat="45.1932" lon="5.985">
        <ele>2389.6</ele>
        <time>2021-04-17T10:04:50Z</time>
      </trkpt>
      <trkpt lat="45.1932" lon="5.98502">
        <ele>2390</ele>
        <time>2021-04-17T10:04:52Z</time>
      </trkpt>
      <trkpt lat="45.19321" lon="5.98504">
        <ele>2390.2</ele>
        <time>2021-04-17T10:04:54Z</time>
      </trkpt>
      <trkpt lat="45.19321" lon="5.98507">
        <ele>2390.6</ele>
        <time>2021-04-17T10:04:56Z</time>
      </trkpt>
      <trkpt lat="45.19321" lon="5.98508">
        <ele>2390.8</ele>
        <time>2021-04-17T10:04:57Z</time>
      </trkpt>
      <trkpt lat="45.1932" lon="5.9851">
        <ele>2391.2</ele>
        <time>2021-04-17T10:04:59Z</time>
      </trkpt>
      <trkpt lat="45.1932" lon="5.98513">
        <ele>2391.6</ele>
        <time>2021-04-17T10:05:02Z</time>
      </trkpt>
      <trkpt lat="45.19321" lon="5.98515">
        <ele>2392</ele>
        <time>2021-04-17T10:05:04Z</time>
      </trkpt>
      <trkpt lat="45.19321" lon="5.98518">
        <ele>2392.6</ele>
        <time>2021-04-17T10:05:08Z</time>
      </trkpt>
      <trkpt lat="45.19321" lon="5.9852">
        <ele>2392.8</ele>
        <time>2021-04-17T10:05:10Z</time>
      </trkpt>
      <trkpt lat="45.19321" lon="5.98522">
        <ele>2393.2</ele>
        <time>2021-04-17T10:05:12Z</time>
      </trkpt>
      <trkpt lat="45.19321" lon="5.98524">
        <ele>2393.8</ele>
        <time>2021-04-17T10:05:16Z</time>
      </trkpt>
      <trkpt lat="45.19321" lon="5.98525">
        <ele>2394.2</ele>
        <time>2021-04-17T10:05:19Z</time>
      </trkpt>
      <trkpt lat="45.19321" lon="5.98531">
        <ele>2395</ele>
        <time>2021-04-17T10:05:24Z</time>
      </trkpt>
      <trkpt lat="45.19321" lon="5.98532">
        <ele>2395</ele>
        <time>2021-04-17T10:05:25Z</time>
      </trkpt>
      <trkpt lat="45.19322" lon="5.98536">
        <ele>2396.2</ele>
        <time>2021-04-17T10:05:31Z</time>
      </trkpt>
      <trkpt lat="45.19321" lon="5.98537">
        <ele>2396.2</ele>
        <time>2021-04-17T10:05:32Z</time>
      </trkpt>
      <trkpt lat="45.19321" lon="5.9854">
        <ele>2397.2</ele>
        <time>2021-04-17T10:05:36Z</time>
      </trkpt>
      <trkpt lat="45.19321" lon="5.98542">
        <ele>2397.8</ele>
        <time>2021-04-17T10:05:39Z</time>
      </trkpt>
      <trkpt lat="45.19321" lon="5.98542">
        <ele>2398.2</ele>
        <time>2021-04-17T10:05:40Z</time>
      </trkpt>
      <trkpt lat="45.1932" lon="5.98541">
        <ele>2399</ele>
        <time>2021-04-17T10:05:43Z</time>
      </trkpt>
      <trkpt lat="45.1932" lon="5.98543">
        <ele>2398.8</ele>
        <time>2021-04-17T10:05:49Z</time>
      </trkpt>
      <trkpt lat="45.1932" lon="5.98543">
        <ele>2398.6</ele>
        <time>2021-04-17T10:05:53Z</time>
      </trkpt>
      <trkpt lat="45.1932" lon="5.98543">
        <ele>2398.6</ele>
        <time>2021-04-17T10:05:54Z</time>
      </trkpt>
      <trkpt lat="45.1932" lon="5.98543">
        <ele>2398.6</ele>
        <time>2021-04-17T10:05:56Z</time>
      </trkpt>
      <trkpt lat="45.1932" lon="5.98543">
        <ele>2398.6</ele>
        <time>2021-04-17T10:05:57Z</time>
      </trkpt>
      <trkpt lat="45.1932" lon="5.98543">
        <ele>2398.6</ele>
        <time>2021-04-17T10:05:58Z</time>
      </trkpt>
      <trkpt lat="45.1932" lon="5.98543">
        <ele>2398.6</ele>
        <time>2021-04-17T10:06:00Z</time>
      </trkpt>
      <trkpt lat="45.19319" lon="5.98543">
        <ele>2398.6</ele>
        <time>2021-04-17T10:06:02Z</time>
      </trkpt>
      <trkpt lat="45.19319" lon="5.98543">
        <ele>2398.6</ele>
        <time>2021-04-17T10:06:03Z</time>
      </trkpt>
      <trkpt lat="45.19319" lon="5.98543">
        <ele>2398.6</ele>
        <time>2021-04-17T10:06:04Z</time>
      </trkpt>
      <trkpt lat="45.19319" lon="5.98543">
        <ele>2398.6</ele>
        <time>2021-04-17T10:06:05Z</time>
      </trkpt>
      <trkpt lat="45.19319" lon="5.98543">
        <ele>2398.6</ele>
        <time>2021-04-17T10:06:06Z</time>
      </trkpt>
      <trkpt lat="45.19319" lon="5.98543">
        <ele>2398.6</ele>
        <time>2021-04-17T10:06:08Z</time>
      </trkpt>
      <trkpt lat="45.19318" lon="5.98543">
        <ele>2398.4</ele>
        <time>2021-04-17T10:06:14Z</time>
      </trkpt>
      <trkpt lat="45.19318" lon="5.98543">
        <ele>2398.4</ele>
        <time>2021-04-17T10:06:17Z</time>
      </trkpt>
      <trkpt lat="45.19318" lon="5.98543">
        <ele>2398.6</ele>
        <time>2021-04-17T10:06:19Z</time>
      </trkpt>
      <trkpt lat="45.19318" lon="5.98543">
        <ele>2399</ele>
        <time>2021-04-17T10:06:25Z</time>
      </trkpt>
      <trkpt lat="45.19318" lon="5.98543">
        <ele>2399.2</ele>
        <time>2021-04-17T10:06:26Z</time>
      </trkpt>
      <trkpt lat="45.19317" lon="5.98543">
        <ele>2399.6</ele>
        <time>2021-04-17T10:06:28Z</time>
      </trkpt>
      <trkpt lat="45.19317" lon="5.98543">
        <ele>2399.8</ele>
        <time>2021-04-17T10:06:29Z</time>
      </trkpt>
      <trkpt lat="45.19317" lon="5.98543">
        <ele>2400.4</ele>
        <time>2021-04-17T10:06:31Z</time>
      </trkpt>
      <trkpt lat="45.19316" lon="5.98544">
        <ele>2400.8</ele>
        <time>2021-04-17T10:06:35Z</time>
      </trkpt>
      <trkpt lat="45.19316" lon="5.98545">
        <ele>2401</ele>
        <time>2021-04-17T10:06:36Z</time>
      </trkpt>
      <trkpt lat="45.19316" lon="5.98549">
        <ele>2401.4</ele>
        <time>2021-04-17T10:06:38Z</time>
      </trkpt>
      <trkpt lat="45.19316" lon="5.98551">
        <ele>2401.8</ele>
        <time>2021-04-17T10:06:39Z</time>
      </trkpt>
      <trkpt lat="45.19316" lon="5.98553">
        <ele>2402</ele>
        <time>2021-04-17T10:06:40Z</time>
      </trkpt>
      <trkpt lat="45.19316" lon="5.98557">
        <ele>2402.4</ele>
        <time>2021-04-17T10:06:42Z</time>
      </trkpt>
      <trkpt lat="45.19315" lon="5.98562">
        <ele>2403</ele>
        <time>2021-04-17T10:06:44Z</time>
      </trkpt>
      <trkpt lat="45.19314" lon="5.98566">
        <ele>2403.6</ele>
        <time>2021-04-17T10:06:47Z</time>
      </trkpt>
      <trkpt lat="45.19314" lon="5.98567">
        <ele>2404</ele>
        <time>2021-04-17T10:06:48Z</time>
      </trkpt>
      <trkpt lat="45.19313" lon="5.9857">
        <ele>2404.4</ele>
        <time>2021-04-17T10:06:51Z</time>
      </trkpt>
      <trkpt lat="45.19312" lon="5.98571">
        <ele>2404.6</ele>
        <time>2021-04-17T10:06:53Z</time>
      </trkpt>
      <trkpt lat="45.19311" lon="5.98573">
        <ele>2405</ele>
        <time>2021-04-17T10:06:55Z</time>
      </trkpt>
      <trkpt lat="45.1931" lon="5.98574">
        <ele>2405.2</ele>
        <time>2021-04-17T10:06:56Z</time>
      </trkpt>
      <trkpt lat="45.1931" lon="5.98578">
        <ele>2406</ele>
        <time>2021-04-17T10:07:01Z</time>
      </trkpt>
      <trkpt lat="45.19307" lon="5.98581">
        <ele>2407</ele>
        <time>2021-04-17T10:07:05Z</time>
      </trkpt>
      <trkpt lat="45.19305" lon="5.9858">
        <ele>2407.2</ele>
        <time>2021-04-17T10:07:07Z</time>
      </trkpt>
      <trkpt lat="45.19303" lon="5.9858">
        <ele>2408.2</ele>
        <time>2021-04-17T10:07:11Z</time>
      </trkpt>
      <trkpt lat="45.19302" lon="5.98579">
        <ele>2408.4</ele>
        <time>2021-04-17T10:07:12Z</time>
      </trkpt>
      <trkpt lat="45.193" lon="5.98578">
        <ele>2408.8</ele>
        <time>2021-04-17T10:07:16Z</time>
      </trkpt>
      <trkpt lat="45.19298" lon="5.98577">
        <ele>2409.2</ele>
        <time>2021-04-17T10:07:19Z</time>
      </trkpt>
      <trkpt lat="45.19297" lon="5.98576">
        <ele>2409.4</ele>
        <time>2021-04-17T10:07:20Z</time>
      </trkpt>
      <trkpt lat="45.19297" lon="5.98575">
        <ele>2409.6</ele>
        <time>2021-04-17T10:07:21Z</time>
      </trkpt>
      <trkpt lat="45.19294" lon="5.98572">
        <ele>2410.4</ele>
        <time>2021-04-17T10:07:27Z</time>
      </trkpt>
      <trkpt lat="45.19292" lon="5.98573">
        <ele>2410.8</ele>
        <time>2021-04-17T10:07:28Z</time>
      </trkpt>
      <trkpt lat="45.19291" lon="5.98571">
        <ele>2411.4</ele>
        <time>2021-04-17T10:07:30Z</time>
      </trkpt>
      <trkpt lat="45.19291" lon="5.98568">
        <ele>2411.8</ele>
        <time>2021-04-17T10:07:33Z</time>
      </trkpt>
      <trkpt lat="45.1929" lon="5.98565">
        <ele>2412</ele>
        <time>2021-04-17T10:07:35Z</time>
      </trkpt>
      <trkpt lat="45.19287" lon="5.98563">
        <ele>2412.6</ele>
        <time>2021-04-17T10:07:38Z</time>
      </trkpt>
      <trkpt lat="45.19286" lon="5.98562">
        <ele>2412.8</ele>
        <time>2021-04-17T10:07:39Z</time>
      </trkpt>
      <trkpt lat="45.19283" lon="5.98557">
        <ele>2413.6</ele>
        <time>2021-04-17T10:07:45Z</time>
      </trkpt>
      <trkpt lat="45.19282" lon="5.98556">
        <ele>2414</ele>
        <time>2021-04-17T10:07:47Z</time>
      </trkpt>
      <trkpt lat="45.19279" lon="5.98552">
        <ele>2415</ele>
        <time>2021-04-17T10:07:52Z</time>
      </trkpt>
      <trkpt lat="45.19277" lon="5.98548">
        <ele>2415.8</ele>
        <time>2021-04-17T10:07:57Z</time>
      </trkpt>
      <trkpt lat="45.19276" lon="5.98547">
        <ele>2416</ele>
        <time>2021-04-17T10:07:59Z</time>
      </trkpt>
      <trkpt lat="45.19273" lon="5.98543">
        <ele>2417.2</ele>
        <time>2021-04-17T10:08:05Z</time>
      </trkpt>
      <trkpt lat="45.19272" lon="5.98542">
        <ele>2417.2</ele>
        <time>2021-04-17T10:08:06Z</time>
      </trkpt>
      <trkpt lat="45.19271" lon="5.98537">
        <ele>2418.2</ele>
        <time>2021-04-17T10:08:11Z</time>
      </trkpt>
      <trkpt lat="45.19269" lon="5.98533">
        <ele>2418.8</ele>
        <time>2021-04-17T10:08:15Z</time>
      </trkpt>
      <trkpt lat="45.19269" lon="5.98532">
        <ele>2419.2</ele>
        <time>2021-04-17T10:08:17Z</time>
      </trkpt>
      <trkpt lat="45.19267" lon="5.98528">
        <ele>2420.2</ele>
        <time>2021-04-17T10:08:22Z</time>
      </trkpt>
      <trkpt lat="45.19266" lon="5.98526">
        <ele>2420.8</ele>
        <time>2021-04-17T10:08:24Z</time>
      </trkpt>
      <trkpt lat="45.19265" lon="5.98525">
        <ele>2421.4</ele>
        <time>2021-04-17T10:08:26Z</time>
      </trkpt>
      <trkpt lat="45.19261" lon="5.98521">
        <ele>2422.2</ele>
        <time>2021-04-17T10:08:32Z</time>
      </trkpt>
      <trkpt lat="45.19261" lon="5.9852">
        <ele>2422.4</ele>
        <time>2021-04-17T10:08:33Z</time>
      </trkpt>
      <trkpt lat="45.1926" lon="5.9852">
        <ele>2422.6</ele>
        <time>2021-04-17T10:08:34Z</time>
      </trkpt>
      <trkpt lat="45.19259" lon="5.98518">
        <ele>2423</ele>
        <time>2021-04-17T10:08:36Z</time>
      </trkpt>
      <trkpt lat="45.19258" lon="5.98516">
        <ele>2423.6</ele>
        <time>2021-04-17T10:08:39Z</time>
      </trkpt>
      <trkpt lat="45.19255" lon="5.98514">
        <ele>2424.6</ele>
        <time>2021-04-17T10:08:43Z</time>
      </trkpt>
      <trkpt lat="45.19255" lon="5.98514">
        <ele>2424.8</ele>
        <time>2021-04-17T10:08:44Z</time>
      </trkpt>
      <trkpt lat="45.19254" lon="5.9851">
        <ele>2426</ele>
        <time>2021-04-17T10:08:50Z</time>
      </trkpt>
      <trkpt lat="45.19253" lon="5.98508">
        <ele>2426.4</ele>
        <time>2021-04-17T10:08:52Z</time>
      </trkpt>
      <trkpt lat="45.19251" lon="5.98504">
        <ele>2427.2</ele>
        <time>2021-04-17T10:08:57Z</time>
      </trkpt>
      <trkpt lat="45.19249" lon="5.98502">
        <ele>2427.8</ele>
        <time>2021-04-17T10:09:01Z</time>
      </trkpt>
      <trkpt lat="45.19248" lon="5.98502">
        <ele>2428.2</ele>
        <time>2021-04-17T10:09:03Z</time>
      </trkpt>
      <trkpt lat="45.19244" lon="5.98501">
        <ele>2429.2</ele>
        <time>2021-04-17T10:09:08Z</time>
      </trkpt>
      <trkpt lat="45.19241" lon="5.985">
        <ele>2430</ele>
        <time>2021-04-17T10:09:12Z</time>
      </trkpt>
      <trkpt lat="45.1924" lon="5.98499">
        <ele>2430.2</ele>
        <time>2021-04-17T10:09:14Z</time>
      </trkpt>
      <trkpt lat="45.19236" lon="5.98498">
        <ele>2431.4</ele>
        <time>2021-04-17T10:09:19Z</time>
      </trkpt>
      <trkpt lat="45.19234" lon="5.98496">
        <ele>2432</ele>
        <time>2021-04-17T10:09:23Z</time>
      </trkpt>
      <trkpt lat="45.19233" lon="5.98496">
        <ele>2432.4</ele>
        <time>2021-04-17T10:09:25Z</time>
      </trkpt>
      <trkpt lat="45.19229" lon="5.98494">
        <ele>2433.4</ele>
        <time>2021-04-17T10:09:31Z</time>
      </trkpt>
      <trkpt lat="45.19229" lon="5.98493">
        <ele>2433.6</ele>
        <time>2021-04-17T10:09:32Z</time>
      </trkpt>
      <trkpt lat="45.19226" lon="5.98492">
        <ele>2434.6</ele>
        <time>2021-04-17T10:09:37Z</time>
      </trkpt>
      <trkpt lat="45.19223" lon="5.9849">
        <ele>2435.4</ele>
        <time>2021-04-17T10:09:42Z</time>
      </trkpt>
      <trkpt lat="45.1922" lon="5.98489">
        <ele>2435.8</ele>
        <time>2021-04-17T10:09:46Z</time>
      </trkpt>
      <trkpt lat="45.19217" lon="5.98488">
        <ele>2436.8</ele>
        <time>2021-04-17T10:09:51Z</time>
      </trkpt>
      <trkpt lat="45.19217" lon="5.98487">
        <ele>2437</ele>
        <time>2021-04-17T10:09:52Z</time>
      </trkpt>
      <trkpt lat="45.19214" lon="5.98486">
        <ele>2437.8</ele>
        <time>2021-04-17T10:09:57Z</time>
      </trkpt>
      <trkpt lat="45.19212" lon="5.98485">
        <ele>2438.6</ele>
        <time>2021-04-17T10:10:01Z</time>
      </trkpt>
      <trkpt lat="45.1921" lon="5.98484">
        <ele>2439</ele>
        <time>2021-04-17T10:10:02Z</time>
      </trkpt>
      <trkpt lat="45.19208" lon="5.98483">
        <ele>2439.6</ele>
        <time>2021-04-17T10:10:08Z</time>
      </trkpt>
      <trkpt lat="45.19207" lon="5.98483">
        <ele>2440</ele>
        <time>2021-04-17T10:10:10Z</time>
      </trkpt>
      <trkpt lat="45.19204" lon="5.98482">
        <ele>2441.2</ele>
        <time>2021-04-17T10:10:14Z</time>
      </trkpt>
      <trkpt lat="45.19201" lon="5.98481">
        <ele>2442.2</ele>
        <time>2021-04-17T10:10:20Z</time>
      </trkpt>
      <trkpt lat="45.19199" lon="5.9848">
        <ele>2442.8</ele>
        <time>2021-04-17T10:10:24Z</time>
      </trkpt>
      <trkpt lat="45.19197" lon="5.98479">
        <ele>2443.2</ele>
        <time>2021-04-17T10:10:27Z</time>
      </trkpt>
      <trkpt lat="45.19193" lon="5.98477">
        <ele>2444.4</ele>
        <time>2021-04-17T10:10:33Z</time>
      </trkpt>
      <trkpt lat="45.1919" lon="5.98477">
        <ele>2445</ele>
        <time>2021-04-17T10:10:39Z</time>
      </trkpt>
      <trkpt lat="45.19189" lon="5.98477">
        <ele>2445.4</ele>
        <time>2021-04-17T10:10:41Z</time>
      </trkpt>
      <trkpt lat="45.19188" lon="5.98476">
        <ele>2445.8</ele>
        <time>2021-04-17T10:10:43Z</time>
      </trkpt>
      <trkpt lat="45.19185" lon="5.98475">
        <ele>2446.6</ele>
        <time>2021-04-17T10:10:48Z</time>
      </trkpt>
      <trkpt lat="45.19183" lon="5.98474">
        <ele>2447</ele>
        <time>2021-04-17T10:10:52Z</time>
      </trkpt>
      <trkpt lat="45.19182" lon="5.98472">
        <ele>2447.2</ele>
        <time>2021-04-17T10:10:54Z</time>
      </trkpt>
      <trkpt lat="45.1918" lon="5.98471">
        <ele>2447.6</ele>
        <time>2021-04-17T10:10:56Z</time>
      </trkpt>
      <trkpt lat="45.19178" lon="5.9847">
        <ele>2448.6</ele>
        <time>2021-04-17T10:11:00Z</time>
      </trkpt>
      <trkpt lat="45.19177" lon="5.9847">
        <ele>2449</ele>
        <time>2021-04-17T10:11:02Z</time>
      </trkpt>
      <trkpt lat="45.19174" lon="5.98469">
        <ele>2449.4</ele>
        <time>2021-04-17T10:11:08Z</time>
      </trkpt>
      <trkpt lat="45.19173" lon="5.98469">
        <ele>2449.8</ele>
        <time>2021-04-17T10:11:10Z</time>
      </trkpt>
      <trkpt lat="45.19169" lon="5.98468">
        <ele>2451</ele>
        <time>2021-04-17T10:11:16Z</time>
      </trkpt>
      <trkpt lat="45.19167" lon="5.98467">
        <ele>2451.4</ele>
        <time>2021-04-17T10:11:19Z</time>
      </trkpt>
      <trkpt lat="45.19164" lon="5.98467">
        <ele>2452</ele>
        <time>2021-04-17T10:11:23Z</time>
      </trkpt>
      <trkpt lat="45.19162" lon="5.98465">
        <ele>2452.6</ele>
        <time>2021-04-17T10:11:26Z</time>
      </trkpt>
      <trkpt lat="45.1916" lon="5.98464">
        <ele>2453.2</ele>
        <time>2021-04-17T10:11:29Z</time>
      </trkpt>
      <trkpt lat="45.19157" lon="5.98462">
        <ele>2453.8</ele>
        <time>2021-04-17T10:11:34Z</time>
      </trkpt>
      <trkpt lat="45.19155" lon="5.98461">
        <ele>2454.2</ele>
        <time>2021-04-17T10:11:36Z</time>
      </trkpt>
      <trkpt lat="45.19153" lon="5.9846">
        <ele>2455.2</ele>
        <time>2021-04-17T10:11:41Z</time>
      </trkpt>
      <trkpt lat="45.19152" lon="5.9846">
        <ele>2455.4</ele>
        <time>2021-04-17T10:11:42Z</time>
      </trkpt>
      <trkpt lat="45.19149" lon="5.98456">
        <ele>2456.2</ele>
        <time>2021-04-17T10:11:48Z</time>
      </trkpt>
      <trkpt lat="45.19148" lon="5.98455">
        <ele>2456.6</ele>
        <time>2021-04-17T10:11:50Z</time>
      </trkpt>
      <trkpt lat="45.19146" lon="5.98453">
        <ele>2457.4</ele>
        <time>2021-04-17T10:11:54Z</time>
      </trkpt>
      <trkpt lat="45.19144" lon="5.9845">
        <ele>2458.2</ele>
        <time>2021-04-17T10:11:58Z</time>
      </trkpt>
      <trkpt lat="45.19143" lon="5.98449">
        <ele>2458.4</ele>
        <time>2021-04-17T10:12:00Z</time>
      </trkpt>
      <trkpt lat="45.19142" lon="5.98445">
        <ele>2459</ele>
        <time>2021-04-17T10:12:04Z</time>
      </trkpt>
      <trkpt lat="45.19142" lon="5.98444">
        <ele>2459</ele>
        <time>2021-04-17T10:12:05Z</time>
      </trkpt>
      <trkpt lat="45.19141" lon="5.9844">
        <ele>2459.6</ele>
        <time>2021-04-17T10:12:08Z</time>
      </trkpt>
      <trkpt lat="45.1914" lon="5.98436">
        <ele>2460.2</ele>
        <time>2021-04-17T10:12:11Z</time>
      </trkpt>
      <trkpt lat="45.19139" lon="5.98433">
        <ele>2460.6</ele>
        <time>2021-04-17T10:12:14Z</time>
      </trkpt>
      <trkpt lat="45.19137" lon="5.98429">
        <ele>2461.2</ele>
        <time>2021-04-17T10:12:19Z</time>
      </trkpt>
      <trkpt lat="45.19136" lon="5.98425">
        <ele>2461.8</ele>
        <time>2021-04-17T10:12:22Z</time>
      </trkpt>
      <trkpt lat="45.19135" lon="5.98421">
        <ele>2462.4</ele>
        <time>2021-04-17T10:12:26Z</time>
      </trkpt>
      <trkpt lat="45.19135" lon="5.98419">
        <ele>2462.8</ele>
        <time>2021-04-17T10:12:28Z</time>
      </trkpt>
      <trkpt lat="45.19134" lon="5.98413">
        <ele>2464</ele>
        <time>2021-04-17T10:12:34Z</time>
      </trkpt>
      <trkpt lat="45.19134" lon="5.98412">
        <ele>2464.2</ele>
        <time>2021-04-17T10:12:35Z</time>
      </trkpt>
      <trkpt lat="45.19133" lon="5.98409">
        <ele>2465</ele>
        <time>2021-04-17T10:12:40Z</time>
      </trkpt>
      <trkpt lat="45.19133" lon="5.98407">
        <ele>2465.2</ele>
        <time>2021-04-17T10:12:42Z</time>
      </trkpt>
      <trkpt lat="45.19132" lon="5.98403">
        <ele>2466</ele>
        <time>2021-04-17T10:12:48Z</time>
      </trkpt>
      <trkpt lat="45.19131" lon="5.98401">
        <ele>2466.6</ele>
        <time>2021-04-17T10:12:50Z</time>
      </trkpt>
      <trkpt lat="45.19129" lon="5.98398">
        <ele>2467.2</ele>
        <time>2021-04-17T10:12:53Z</time>
      </trkpt>
      <trkpt lat="45.19128" lon="5.98396">
        <ele>2467.4</ele>
        <time>2021-04-17T10:12:55Z</time>
      </trkpt>
      <trkpt lat="45.19128" lon="5.98396">
        <ele>2467.6</ele>
        <time>2021-04-17T10:12:56Z</time>
      </trkpt>
      <trkpt lat="45.19126" lon="5.98393">
        <ele>2468.2</ele>
        <time>2021-04-17T10:13:00Z</time>
      </trkpt>
      <trkpt lat="45.19125" lon="5.98388">
        <ele>2469.4</ele>
        <time>2021-04-17T10:13:06Z</time>
      </trkpt>
      <trkpt lat="45.19125" lon="5.98388">
        <ele>2469.4</ele>
        <time>2021-04-17T10:13:07Z</time>
      </trkpt>
      <trkpt lat="45.19123" lon="5.98384">
        <ele>2470.4</ele>
        <time>2021-04-17T10:13:12Z</time>
      </trkpt>
      <trkpt lat="45.19122" lon="5.9838">
        <ele>2471</ele>
        <time>2021-04-17T10:13:18Z</time>
      </trkpt>
      <trkpt lat="45.19121" lon="5.98379">
        <ele>2471.2</ele>
        <time>2021-04-17T10:13:19Z</time>
      </trkpt>
      <trkpt lat="45.19121" lon="5.98378">
        <ele>2471.6</ele>
        <time>2021-04-17T10:13:21Z</time>
      </trkpt>
      <trkpt lat="45.19119" lon="5.98375">
        <ele>2472.8</ele>
        <time>2021-04-17T10:13:26Z</time>
      </trkpt>
      <trkpt lat="45.19118" lon="5.98372">
        <ele>2474</ele>
        <time>2021-04-17T10:13:31Z</time>
      </trkpt>
      <trkpt lat="45.19118" lon="5.98371">
        <ele>2474.2</ele>
        <time>2021-04-17T10:13:32Z</time>
      </trkpt>
      <trkpt lat="45.19115" lon="5.98368">
        <ele>2475.2</ele>
        <time>2021-04-17T10:13:37Z</time>
      </trkpt>
      <trkpt lat="45.19114" lon="5.98364">
        <ele>2476</ele>
        <time>2021-04-17T10:13:42Z</time>
      </trkpt>
      <trkpt lat="45.19113" lon="5.98363">
        <ele>2476.2</ele>
        <time>2021-04-17T10:13:44Z</time>
      </trkpt>
      <trkpt lat="45.1911" lon="5.9836">
        <ele>2477.2</ele>
        <time>2021-04-17T10:13:50Z</time>
      </trkpt>
      <trkpt lat="45.1911" lon="5.9836">
        <ele>2477.2</ele>
        <time>2021-04-17T10:13:51Z</time>
      </trkpt>
      <trkpt lat="45.19109" lon="5.98359">
        <ele>2477.4</ele>
        <time>2021-04-17T10:13:52Z</time>
      </trkpt>
      <trkpt lat="45.19107" lon="5.98357">
        <ele>2478.4</ele>
        <time>2021-04-17T10:13:57Z</time>
      </trkpt>
      <trkpt lat="45.19106" lon="5.98356">
        <ele>2478.8</ele>
        <time>2021-04-17T10:13:59Z</time>
      </trkpt>
      <trkpt lat="45.19106" lon="5.98356">
        <ele>2479</ele>
        <time>2021-04-17T10:14:01Z</time>
      </trkpt>
      <trkpt lat="45.19107" lon="5.98356">
        <ele>2479.2</ele>
        <time>2021-04-17T10:14:06Z</time>
      </trkpt>
      <trkpt lat="45.19107" lon="5.98355">
        <ele>2479</ele>
        <time>2021-04-17T10:14:11Z</time>
      </trkpt>
      <trkpt lat="45.19107" lon="5.98355">
        <ele>2479</ele>
        <time>2021-04-17T10:14:14Z</time>
      </trkpt>
      <trkpt lat="45.19107" lon="5.98355">
        <ele>2479</ele>
        <time>2021-04-17T10:14:16Z</time>
      </trkpt>
      <trkpt lat="45.19107" lon="5.98355">
        <ele>2479.2</ele>
        <time>2021-04-17T10:14:18Z</time>
      </trkpt>
      <trkpt lat="45.19107" lon="5.98356">
        <ele>2479.2</ele>
        <time>2021-04-17T10:14:19Z</time>
      </trkpt>
      <trkpt lat="45.19107" lon="5.98356">
        <ele>2479.2</ele>
        <time>2021-04-17T10:14:20Z</time>
      </trkpt>
      <trkpt lat="45.19107" lon="5.98356">
        <ele>2479</ele>
        <time>2021-04-17T10:14:21Z</time>
      </trkpt>
      <trkpt lat="45.19107" lon="5.98356">
        <ele>2479</ele>
        <time>2021-04-17T10:14:23Z</time>
      </trkpt>
      <trkpt lat="45.19107" lon="5.98356">
        <ele>2479</ele>
        <time>2021-04-17T10:14:24Z</time>
      </trkpt>
      <trkpt lat="45.19107" lon="5.98356">
        <ele>2479</ele>
        <time>2021-04-17T10:14:25Z</time>
      </trkpt>
      <trkpt lat="45.19107" lon="5.98356">
        <ele>2478.8</ele>
        <time>2021-04-17T10:14:27Z</time>
      </trkpt>
      <trkpt lat="45.19106" lon="5.98356">
        <ele>2478.8</ele>
        <time>2021-04-17T10:14:30Z</time>
      </trkpt>
      <trkpt lat="45.19106" lon="5.98356">
        <ele>2478.8</ele>
        <time>2021-04-17T10:14:31Z</time>
      </trkpt>
      <trkpt lat="45.19106" lon="5.98356">
        <ele>2479</ele>
        <time>2021-04-17T10:14:32Z</time>
      </trkpt>
      <trkpt lat="45.19106" lon="5.98356">
        <ele>2478.8</ele>
        <time>2021-04-17T10:14:37Z</time>
      </trkpt>
      <trkpt lat="45.19106" lon="5.98356">
        <ele>2478.8</ele>
        <time>2021-04-17T10:14:40Z</time>
      </trkpt>
      <trkpt lat="45.19106" lon="5.98356">
        <ele>2478.8</ele>
        <time>2021-04-17T10:14:41Z</time>
      </trkpt>
      <trkpt lat="45.19106" lon="5.98356">
        <ele>2478.8</ele>
        <time>2021-04-17T10:14:43Z</time>
      </trkpt>
      <trkpt lat="45.19106" lon="5.98356">
        <ele>2478.8</ele>
        <time>2021-04-17T10:14:44Z</time>
      </trkpt>
      <trkpt lat="45.19106" lon="5.98356">
        <ele>2478.8</ele>
        <time>2021-04-17T10:14:50Z</time>
      </trkpt>
      <trkpt lat="45.19106" lon="5.98356">
        <ele>2478.8</ele>
        <time>2021-04-17T10:14:51Z</time>
      </trkpt>
      <trkpt lat="45.19106" lon="5.98356">
        <ele>2478.8</ele>
        <time>2021-04-17T10:14:53Z</time>
      </trkpt>
      <trkpt lat="45.19106" lon="5.98356">
        <ele>2478.8</ele>
        <time>2021-04-17T10:14:54Z</time>
      </trkpt>
      <trkpt lat="45.19106" lon="5.98356">
        <ele>2478.8</ele>
        <time>2021-04-17T10:14:55Z</time>
      </trkpt>
      <trkpt lat="45.19106" lon="5.98356">
        <ele>2479</ele>
        <time>2021-04-17T10:14:56Z</time>
      </trkpt>
      <trkpt lat="45.19106" lon="5.98356">
        <ele>2479</ele>
        <time>2021-04-17T10:14:57Z</time>
      </trkpt>
      <trkpt lat="45.19106" lon="5.98355">
        <ele>2479</ele>
        <time>2021-04-17T10:14:58Z</time>
      </trkpt>
      <trkpt lat="45.19106" lon="5.98355">
        <ele>2479.2</ele>
        <time>2021-04-17T10:15:04Z</time>
      </trkpt>
      <trkpt lat="45.19106" lon="5.98355">
        <ele>2479.4</ele>
        <time>2021-04-17T10:15:05Z</time>
      </trkpt>
      <trkpt lat="45.19106" lon="5.98355">
        <ele>2479.4</ele>
        <time>2021-04-17T10:15:11Z</time>
      </trkpt>
      <trkpt lat="45.19105" lon="5.98355">
        <ele>2479.4</ele>
        <time>2021-04-17T10:15:17Z</time>
      </trkpt>
      <trkpt lat="45.19105" lon="5.98354">
        <ele>2479.4</ele>
        <time>2021-04-17T10:15:21Z</time>
      </trkpt>
      <trkpt lat="45.19105" lon="5.98353">
        <ele>2479.4</ele>
        <time>2021-04-17T10:15:23Z</time>
      </trkpt>
      <trkpt lat="45.19105" lon="5.98353">
        <ele>2479.4</ele>
        <time>2021-04-17T10:15:24Z</time>
      </trkpt>
      <trkpt lat="45.19106" lon="5.98352">
        <ele>2479.4</ele>
        <time>2021-04-17T10:15:26Z</time>
      </trkpt>
      <trkpt lat="45.19106" lon="5.98352">
        <ele>2479.4</ele>
        <time>2021-04-17T10:15:27Z</time>
      </trkpt>
      <trkpt lat="45.19106" lon="5.98352">
        <ele>2479.4</ele>
        <time>2021-04-17T10:15:28Z</time>
      </trkpt>
      <trkpt lat="45.19107" lon="5.9835">
        <ele>2479.4</ele>
        <time>2021-04-17T10:15:34Z</time>
      </trkpt>
      <trkpt lat="45.19107" lon="5.9835">
        <ele>2479.4</ele>
        <time>2021-04-17T10:15:35Z</time>
      </trkpt>
      <trkpt lat="45.19107" lon="5.9835">
        <ele>2479.4</ele>
        <time>2021-04-17T10:15:36Z</time>
      </trkpt>
      <trkpt lat="45.19106" lon="5.98348">
        <ele>2479.4</ele>
        <time>2021-04-17T10:15:41Z</time>
      </trkpt>
      <trkpt lat="45.19104" lon="5.98347">
        <ele>2479.4</ele>
        <time>2021-04-17T10:15:45Z</time>
      </trkpt>
      <trkpt lat="45.191" lon="5.98345">
        <ele>2479.4</ele>
        <time>2021-04-17T10:15:49Z</time>
      </trkpt>
      <trkpt lat="45.19099" lon="5.98344">
        <ele>2479.4</ele>
        <time>2021-04-17T10:15:50Z</time>
      </trkpt>
      <trkpt lat="45.19097" lon="5.98343">
        <ele>2479.4</ele>
        <time>2021-04-17T10:15:54Z</time>
      </trkpt>
      <trkpt lat="45.19095" lon="5.9834">
        <ele>2479.4</ele>
        <time>2021-04-17T10:16:00Z</time>
      </trkpt>
      <trkpt lat="45.19094" lon="5.9834">
        <ele>2479.4</ele>
        <time>2021-04-17T10:16:02Z</time>
      </trkpt>
      <trkpt lat="45.19094" lon="5.9834">
        <ele>2479.4</ele>
        <time>2021-04-17T10:16:03Z</time>
      </trkpt>
      <trkpt lat="45.19092" lon="5.98338">
        <ele>2482.6</ele>
        <time>2021-04-17T10:16:06Z</time>
      </trkpt>
      <trkpt lat="45.19091" lon="5.98337">
        <ele>2482.8</ele>
        <time>2021-04-17T10:16:08Z</time>
      </trkpt>
      <trkpt lat="45.1909" lon="5.98333">
        <ele>2483</ele>
        <time>2021-04-17T10:16:14Z</time>
      </trkpt>
      <trkpt lat="45.19089" lon="5.98331">
        <ele>2483.4</ele>
        <time>2021-04-17T10:16:18Z</time>
      </trkpt>
      <trkpt lat="45.19088" lon="5.98331">
        <ele>2483.6</ele>
        <time>2021-04-17T10:16:19Z</time>
      </trkpt>
      <trkpt lat="45.19088" lon="5.98328">
        <ele>2484.2</ele>
        <time>2021-04-17T10:16:23Z</time>
      </trkpt>
      <trkpt lat="45.19088" lon="5.98326">
        <ele>2484.4</ele>
        <time>2021-04-17T10:16:26Z</time>
      </trkpt>
      <trkpt lat="45.19087" lon="5.98325">
        <ele>2484.6</ele>
        <time>2021-04-17T10:16:27Z</time>
      </trkpt>
      <trkpt lat="45.19086" lon="5.98324">
        <ele>2484.6</ele>
        <time>2021-04-17T10:16:29Z</time>
      </trkpt>
      <trkpt lat="45.19086" lon="5.98322">
        <ele>2484.8</ele>
        <time>2021-04-17T10:16:30Z</time>
      </trkpt>
      <trkpt lat="45.19084" lon="5.98319">
        <ele>2485.6</ele>
        <time>2021-04-17T10:16:36Z</time>
      </trkpt>
      <trkpt lat="45.19084" lon="5.98318">
        <ele>2485.8</ele>
        <time>2021-04-17T10:16:37Z</time>
      </trkpt>
      <trkpt lat="45.19083" lon="5.98315">
        <ele>2486.4</ele>
        <time>2021-04-17T10:16:43Z</time>
      </trkpt>
      <trkpt lat="45.19082" lon="5.98314">
        <ele>2486.4</ele>
        <time>2021-04-17T10:16:45Z</time>
      </trkpt>
      <trkpt lat="45.19082" lon="5.98313">
        <ele>2486.8</ele>
        <time>2021-04-17T10:16:48Z</time>
      </trkpt>
      <trkpt lat="45.1908" lon="5.98311">
        <ele>2487.4</ele>
        <time>2021-04-17T10:16:53Z</time>
      </trkpt>
      <trkpt lat="45.19079" lon="5.98309">
        <ele>2487.8</ele>
        <time>2021-04-17T10:16:58Z</time>
      </trkpt>
      <trkpt lat="45.19076" lon="5.98305">
        <ele>2488.4</ele>
        <time>2021-04-17T10:17:03Z</time>
      </trkpt>
      <trkpt lat="45.19075" lon="5.98304">
        <ele>2488.6</ele>
        <time>2021-04-17T10:17:05Z</time>
      </trkpt>
      <trkpt lat="45.19074" lon="5.98302">
        <ele>2489</ele>
        <time>2021-04-17T10:17:08Z</time>
      </trkpt>
      <trkpt lat="45.19074" lon="5.983">
        <ele>2489.2</ele>
        <time>2021-04-17T10:17:12Z</time>
      </trkpt>
      <trkpt lat="45.19074" lon="5.98299">
        <ele>2489.4</ele>
        <time>2021-04-17T10:17:14Z</time>
      </trkpt>
      <trkpt lat="45.19072" lon="5.98295">
        <ele>2489.8</ele>
        <time>2021-04-17T10:17:20Z</time>
      </trkpt>
      <trkpt lat="45.19072" lon="5.98295">
        <ele>2489.8</ele>
        <time>2021-04-17T10:17:22Z</time>
      </trkpt>
      <trkpt lat="45.19071" lon="5.98293">
        <ele>2490</ele>
        <time>2021-04-17T10:17:24Z</time>
      </trkpt>
      <trkpt lat="45.19071" lon="5.98292">
        <ele>2490.4</ele>
        <time>2021-04-17T10:17:26Z</time>
      </trkpt>
      <trkpt lat="45.19069" lon="5.9829">
        <ele>2490.8</ele>
        <time>2021-04-17T10:17:31Z</time>
      </trkpt>
      <trkpt lat="45.19069" lon="5.98289">
        <ele>2491</ele>
        <time>2021-04-17T10:17:32Z</time>
      </trkpt>
      <trkpt lat="45.19068" lon="5.98288">
        <ele>2491</ele>
        <time>2021-04-17T10:17:34Z</time>
      </trkpt>
      <trkpt lat="45.19067" lon="5.98284">
        <ele>2492</ele>
        <time>2021-04-17T10:17:40Z</time>
      </trkpt>
      <trkpt lat="45.19066" lon="5.98283">
        <ele>2492</ele>
        <time>2021-04-17T10:17:41Z</time>
      </trkpt>
      <trkpt lat="45.19065" lon="5.98279">
        <ele>2492.8</ele>
        <time>2021-04-17T10:17:47Z</time>
      </trkpt>
      <trkpt lat="45.19065" lon="5.98278">
        <ele>2493</ele>
        <time>2021-04-17T10:17:48Z</time>
      </trkpt>
      <trkpt lat="45.19065" lon="5.98277">
        <ele>2493.2</ele>
        <time>2021-04-17T10:17:50Z</time>
      </trkpt>
      <trkpt lat="45.19063" lon="5.98273">
        <ele>2494</ele>
        <time>2021-04-17T10:17:56Z</time>
      </trkpt>
      <trkpt lat="45.19062" lon="5.98273">
        <ele>2494.2</ele>
        <time>2021-04-17T10:17:57Z</time>
      </trkpt>
      <trkpt lat="45.19061" lon="5.98269">
        <ele>2495</ele>
        <time>2021-04-17T10:18:03Z</time>
      </trkpt>
      <trkpt lat="45.19061" lon="5.98268">
        <ele>2495.2</ele>
        <time>2021-04-17T10:18:05Z</time>
      </trkpt>
      <trkpt lat="45.1906" lon="5.98265">
        <ele>2495.4</ele>
        <time>2021-04-17T10:18:08Z</time>
      </trkpt>
      <trkpt lat="45.19059" lon="5.98261">
        <ele>2496.2</ele>
        <time>2021-04-17T10:18:14Z</time>
      </trkpt>
      <trkpt lat="45.19059" lon="5.98259">
        <ele>2496.6</ele>
        <time>2021-04-17T10:18:15Z</time>
      </trkpt>
      <trkpt lat="45.19058" lon="5.98257">
        <ele>2497</ele>
        <time>2021-04-17T10:18:19Z</time>
      </trkpt>
      <trkpt lat="45.19058" lon="5.98254">
        <ele>2497.4</ele>
        <time>2021-04-17T10:18:25Z</time>
      </trkpt>
      <trkpt lat="45.19057" lon="5.98253">
        <ele>2497.6</ele>
        <time>2021-04-17T10:18:26Z</time>
      </trkpt>
      <trkpt lat="45.19057" lon="5.98252">
        <ele>2497.8</ele>
        <time>2021-04-17T10:18:28Z</time>
      </trkpt>
      <trkpt lat="45.19056" lon="5.98247">
        <ele>2498.4</ele>
        <time>2021-04-17T10:18:34Z</time>
      </trkpt>
      <trkpt lat="45.19055" lon="5.98246">
        <ele>2498.8</ele>
        <time>2021-04-17T10:18:36Z</time>
      </trkpt>
      <trkpt lat="45.19055" lon="5.98241">
        <ele>2499.4</ele>
        <time>2021-04-17T10:18:42Z</time>
      </trkpt>
      <trkpt lat="45.19054" lon="5.9824">
        <ele>2499.6</ele>
        <time>2021-04-17T10:18:43Z</time>
      </trkpt>
      <trkpt lat="45.19054" lon="5.98238">
        <ele>2499.8</ele>
        <time>2021-04-17T10:18:46Z</time>
      </trkpt>
      <trkpt lat="45.19054" lon="5.98236">
        <ele>2500.4</ele>
        <time>2021-04-17T10:18:49Z</time>
      </trkpt>
      <trkpt lat="45.19053" lon="5.98233">
        <ele>2501</ele>
        <time>2021-04-17T10:18:53Z</time>
      </trkpt>
      <trkpt lat="45.19052" lon="5.9823">
        <ele>2501.8</ele>
        <time>2021-04-17T10:18:57Z</time>
      </trkpt>
      <trkpt lat="45.19052" lon="5.98228">
        <ele>2502.2</ele>
        <time>2021-04-17T10:18:59Z</time>
      </trkpt>
      <trkpt lat="45.19051" lon="5.98228">
        <ele>2502.4</ele>
        <time>2021-04-17T10:19:00Z</time>
      </trkpt>
      <trkpt lat="45.19052" lon="5.98227">
        <ele>2502.8</ele>
        <time>2021-04-17T10:19:05Z</time>
      </trkpt>
      <trkpt lat="45.19052" lon="5.98226">
        <ele>2503.2</ele>
        <time>2021-04-17T10:19:09Z</time>
      </trkpt>
      <trkpt lat="45.19052" lon="5.98226">
        <ele>2502.8</ele>
        <time>2021-04-17T10:19:13Z</time>
      </trkpt>
      <trkpt lat="45.19052" lon="5.98226">
        <ele>2502.4</ele>
        <time>2021-04-17T10:19:15Z</time>
      </trkpt>
      <trkpt lat="45.19052" lon="5.98226">
        <ele>2502.4</ele>
        <time>2021-04-17T10:19:18Z</time>
      </trkpt>
      <trkpt lat="45.19052" lon="5.98226">
        <ele>2502.4</ele>
        <time>2021-04-17T10:19:20Z</time>
      </trkpt>
      <trkpt lat="45.19052" lon="5.98226">
        <ele>2502.6</ele>
        <time>2021-04-17T10:19:22Z</time>
      </trkpt>
      <trkpt lat="45.19052" lon="5.98226">
        <ele>2502.8</ele>
        <time>2021-04-17T10:19:23Z</time>
      </trkpt>
      <trkpt lat="45.19052" lon="5.98226">
        <ele>2502.8</ele>
        <time>2021-04-17T10:19:24Z</time>
      </trkpt>
      <trkpt lat="45.19052" lon="5.98226">
        <ele>2503</ele>
        <time>2021-04-17T10:19:26Z</time>
      </trkpt>
      <trkpt lat="45.19052" lon="5.98226">
        <ele>2503.2</ele>
        <time>2021-04-17T10:19:29Z</time>
      </trkpt>
      <trkpt lat="45.19054" lon="5.98225">
        <ele>2503.8</ele>
        <time>2021-04-17T10:19:32Z</time>
      </trkpt>
      <trkpt lat="45.19054" lon="5.98225">
        <ele>2504</ele>
        <time>2021-04-17T10:19:33Z</time>
      </trkpt>
      <trkpt lat="45.19054" lon="5.98225">
        <ele>2504.2</ele>
        <time>2021-04-17T10:19:34Z</time>
      </trkpt>
      <trkpt lat="45.19054" lon="5.98225">
        <ele>2504.4</ele>
        <time>2021-04-17T10:19:35Z</time>
      </trkpt>
      <trkpt lat="45.19054" lon="5.98224">
        <ele>2504.6</ele>
        <time>2021-04-17T10:19:37Z</time>
      </trkpt>
      <trkpt lat="45.19054" lon="5.98223">
        <ele>2504.8</ele>
        <time>2021-04-17T10:19:41Z</time>
      </trkpt>
      <trkpt lat="45.19054" lon="5.98223">
        <ele>2504.8</ele>
        <time>2021-04-17T10:19:44Z</time>
      </trkpt>
      <trkpt lat="45.19054" lon="5.98223">
        <ele>2504.8</ele>
        <time>2021-04-17T10:19:45Z</time>
      </trkpt>
      <trkpt lat="45.19053" lon="5.98225">
        <ele>2504.8</ele>
        <time>2021-04-17T10:19:50Z</time>
      </trkpt>
      <trkpt lat="45.1905" lon="5.98231">
        <ele>2505.4</ele>
        <time>2021-04-17T10:19:54Z</time>
      </trkpt>
      <trkpt lat="45.19049" lon="5.98235">
        <ele>2506</ele>
        <time>2021-04-17T10:19:57Z</time>
      </trkpt>
      <trkpt lat="45.19048" lon="5.98238">
        <ele>2506.2</ele>
        <time>2021-04-17T10:19:59Z</time>
      </trkpt>
      <trkpt lat="45.19047" lon="5.98239">
        <ele>2506.4</ele>
        <time>2021-04-17T10:20:00Z</time>
      </trkpt>
      <trkpt lat="45.19047" lon="5.9824">
        <ele>2506.8</ele>
        <time>2021-04-17T10:20:01Z</time>
      </trkpt>
      <trkpt lat="45.19047" lon="5.98242">
        <ele>2507.2</ele>
        <time>2021-04-17T10:20:04Z</time>
      </trkpt>
      <trkpt lat="45.19047" lon="5.98245">
        <ele>2507.6</ele>
        <time>2021-04-17T10:20:07Z</time>
      </trkpt>
      <trkpt lat="45.19047" lon="5.98246">
        <ele>2508.2</ele>
        <time>2021-04-17T10:20:09Z</time>
      </trkpt>
      <trkpt lat="45.19046" lon="5.98248">
        <ele>2508.8</ele>
        <time>2021-04-17T10:20:12Z</time>
      </trkpt>
      <trkpt lat="45.19046" lon="5.98249">
        <ele>2509</ele>
        <time>2021-04-17T10:20:14Z</time>
      </trkpt>
      <trkpt lat="45.19046" lon="5.98249">
        <ele>2509.6</ele>
        <time>2021-04-17T10:20:17Z</time>
      </trkpt>
      <trkpt lat="45.19045" lon="5.9825">
        <ele>2509.8</ele>
        <time>2021-04-17T10:20:20Z</time>
      </trkpt>
      <trkpt lat="45.19045" lon="5.9825">
        <ele>2509.8</ele>
        <time>2021-04-17T10:20:22Z</time>
      </trkpt>
      <trkpt lat="45.19045" lon="5.9825">
        <ele>2509.4</ele>
        <time>2021-04-17T10:20:28Z</time>
      </trkpt>
      <trkpt lat="45.19045" lon="5.9825">
        <ele>2509.4</ele>
        <time>2021-04-17T10:20:34Z</time>
      </trkpt>
      <trkpt lat="45.19045" lon="5.9825">
        <ele>2509.4</ele>
        <time>2021-04-17T10:20:36Z</time>
      </trkpt>
      <trkpt lat="45.19045" lon="5.9825">
        <ele>2509.4</ele>
        <time>2021-04-17T10:20:37Z</time>
      </trkpt>
      <trkpt lat="45.19046" lon="5.9825">
        <ele>2509.4</ele>
        <time>2021-04-17T10:20:39Z</time>
      </trkpt>
      <trkpt lat="45.19046" lon="5.9825">
        <ele>2509.6</ele>
        <time>2021-04-17T10:20:44Z</time>
      </trkpt>
      <trkpt lat="45.19046" lon="5.9825">
        <ele>2509.8</ele>
        <time>2021-04-17T10:20:47Z</time>
      </trkpt>
      <trkpt lat="45.19045" lon="5.98252">
        <ele>2510.4</ele>
        <time>2021-04-17T10:20:53Z</time>
      </trkpt>
      <trkpt lat="45.19045" lon="5.98255">
        <ele>2510.8</ele>
        <time>2021-04-17T10:20:55Z</time>
      </trkpt>
      <trkpt lat="45.19044" lon="5.98257">
        <ele>2510.8</ele>
        <time>2021-04-17T10:20:56Z</time>
      </trkpt>
      <trkpt lat="45.19041" lon="5.98264">
        <ele>2511.4</ele>
        <time>2021-04-17T10:21:00Z</time>
      </trkpt>
      <trkpt lat="45.1904" lon="5.98267">
        <ele>2511.8</ele>
        <time>2021-04-17T10:21:02Z</time>
      </trkpt>
      <trkpt lat="45.1904" lon="5.98268">
        <ele>2512</ele>
        <time>2021-04-17T10:21:03Z</time>
      </trkpt>
      <trkpt lat="45.19038" lon="5.98272">
        <ele>2512.6</ele>
        <time>2021-04-17T10:21:06Z</time>
      </trkpt>
      <trkpt lat="45.19038" lon="5.98274">
        <ele>2512.8</ele>
        <time>2021-04-17T10:21:08Z</time>
      </trkpt>
      <trkpt lat="45.19038" lon="5.98275">
        <ele>2513</ele>
        <time>2021-04-17T10:21:09Z</time>
      </trkpt>
      <trkpt lat="45.19037" lon="5.98278">
        <ele>2513.4</ele>
        <time>2021-04-17T10:21:11Z</time>
      </trkpt>
      <trkpt lat="45.19037" lon="5.98279">
        <ele>2514</ele>
        <time>2021-04-17T10:21:14Z</time>
      </trkpt>
      <trkpt lat="45.19037" lon="5.9828">
        <ele>2514.2</ele>
        <time>2021-04-17T10:21:15Z</time>
      </trkpt>
      <trkpt lat="45.19037" lon="5.98279">
        <ele>2514.4</ele>
        <time>2021-04-17T10:21:17Z</time>
      </trkpt>
      <trkpt lat="45.19035" lon="5.9828">
        <ele>2514.4</ele>
        <time>2021-04-17T10:21:21Z</time>
      </trkpt>
      <trkpt lat="45.19035" lon="5.98281">
        <ele>2514.6</ele>
        <time>2021-04-17T10:21:25Z</time>
      </trkpt>
      <trkpt lat="45.19035" lon="5.98281">
        <ele>2514.6</ele>
        <time>2021-04-17T10:21:31Z</time>
      </trkpt>
      <trkpt lat="45.19035" lon="5.98281">
        <ele>2514.8</ele>
        <time>2021-04-17T10:21:35Z</time>
      </trkpt>
      <trkpt lat="45.19035" lon="5.98281">
        <ele>2514.8</ele>
        <time>2021-04-17T10:21:37Z</time>
      </trkpt>
      <trkpt lat="45.19035" lon="5.98281">
        <ele>2514.8</ele>
        <time>2021-04-17T10:21:38Z</time>
      </trkpt>
      <trkpt lat="45.19035" lon="5.98281">
        <ele>2514.8</ele>
        <time>2021-04-17T10:21:39Z</time>
      </trkpt>
      <trkpt lat="45.19035" lon="5.98282">
        <ele>2514.8</ele>
        <time>2021-04-17T10:21:40Z</time>
      </trkpt>
      <trkpt lat="45.19036" lon="5.98282">
        <ele>2514.8</ele>
        <time>2021-04-17T10:21:41Z</time>
      </trkpt>
      <trkpt lat="45.19036" lon="5.98285">
        <ele>2514.8</ele>
        <time>2021-04-17T10:21:47Z</time>
      </trkpt>
      <trkpt lat="45.19036" lon="5.98285">
        <ele>2514.8</ele>
        <time>2021-04-17T10:21:48Z</time>
      </trkpt>
      <trkpt lat="45.19036" lon="5.98285">
        <ele>2514.8</ele>
        <time>2021-04-17T10:21:49Z</time>
      </trkpt>
      <trkpt lat="45.19038" lon="5.98288">
        <ele>2514.8</ele>
        <time>2021-04-17T10:21:55Z</time>
      </trkpt>
      <trkpt lat="45.19038" lon="5.98288">
        <ele>2514.8</ele>
        <time>2021-04-17T10:21:59Z</time>
      </trkpt>
      <trkpt lat="45.19038" lon="5.98288">
        <ele>2514.8</ele>
        <time>2021-04-17T10:22:00Z</time>
      </trkpt>
      <trkpt lat="45.19038" lon="5.98288">
        <ele>2514.8</ele>
        <time>2021-04-17T10:22:03Z</time>
      </trkpt>
      <trkpt lat="45.19038" lon="5.98287">
        <ele>2515</ele>
        <time>2021-04-17T10:22:09Z</time>
      </trkpt>
      <trkpt lat="45.19038" lon="5.98287">
        <ele>2515.2</ele>
        <time>2021-04-17T10:22:10Z</time>
      </trkpt>
      <trkpt lat="45.19038" lon="5.98287">
        <ele>2515.4</ele>
        <time>2021-04-17T10:22:11Z</time>
      </trkpt>
      <trkpt lat="45.19036" lon="5.98291">
        <ele>2516.6</ele>
        <time>2021-04-17T10:22:16Z</time>
      </trkpt>
      <trkpt lat="45.19035" lon="5.98292">
        <ele>2517</ele>
        <time>2021-04-17T10:22:18Z</time>
      </trkpt>
      <trkpt lat="45.19034" lon="5.98294">
        <ele>2517.2</ele>
        <time>2021-04-17T10:22:19Z</time>
      </trkpt>
      <trkpt lat="45.19034" lon="5.98295">
        <ele>2517.4</ele>
        <time>2021-04-17T10:22:20Z</time>
      </trkpt>
      <trkpt lat="45.19034" lon="5.98298">
        <ele>2517.8</ele>
        <time>2021-04-17T10:22:22Z</time>
      </trkpt>
      <trkpt lat="45.19033" lon="5.983">
        <ele>2518.8</ele>
        <time>2021-04-17T10:22:25Z</time>
      </trkpt>
      <trkpt lat="45.19033" lon="5.98301">
        <ele>2519.2</ele>
        <time>2021-04-17T10:22:26Z</time>
      </trkpt>
      <trkpt lat="45.19033" lon="5.98302">
        <ele>2519.4</ele>
        <time>2021-04-17T10:22:27Z</time>
      </trkpt>
      <trkpt lat="45.19033" lon="5.98304">
        <ele>2520</ele>
        <time>2021-04-17T10:22:29Z</time>
      </trkpt>
      <trkpt lat="45.19033" lon="5.98305">
        <ele>2520.2</ele>
        <time>2021-04-17T10:22:30Z</time>
      </trkpt>
      <trkpt lat="45.19032" lon="5.98309">
        <ele>2521.2</ele>
        <time>2021-04-17T10:22:34Z</time>
      </trkpt>
      <trkpt lat="45.19032" lon="5.9831">
        <ele>2521.4</ele>
        <time>2021-04-17T10:22:35Z</time>
      </trkpt>
      <trkpt lat="45.19032" lon="5.98312">
        <ele>2522</ele>
        <time>2021-04-17T10:22:38Z</time>
      </trkpt>
      <trkpt lat="45.19032" lon="5.98315">
        <ele>2522.6</ele>
        <time>2021-04-17T10:22:41Z</time>
      </trkpt>
      <trkpt lat="45.19032" lon="5.98319">
        <ele>2523.2</ele>
        <time>2021-04-17T10:22:46Z</time>
      </trkpt>
      <trkpt lat="45.19032" lon="5.9832">
        <ele>2523.6</ele>
        <time>2021-04-17T10:22:48Z</time>
      </trkpt>
      <trkpt lat="45.19033" lon="5.98323">
        <ele>2524.2</ele>
        <time>2021-04-17T10:22:51Z</time>
      </trkpt>
      <trkpt lat="45.19034" lon="5.98327">
        <ele>2524.6</ele>
        <time>2021-04-17T10:22:55Z</time>
      </trkpt>
      <trkpt lat="45.19034" lon="5.98331">
        <ele>2525.8</ele>
        <time>2021-04-17T10:22:59Z</time>
      </trkpt>
      <trkpt lat="45.19034" lon="5.98334">
        <ele>2526.6</ele>
        <time>2021-04-17T10:23:03Z</time>
      </trkpt>
      <trkpt lat="45.19035" lon="5.98335">
        <ele>2526.8</ele>
        <time>2021-04-17T10:23:04Z</time>
      </trkpt>
      <trkpt lat="45.19036" lon="5.98339">
        <ele>2527.8</ele>
        <time>2021-04-17T10:23:09Z</time>
      </trkpt>
      <trkpt lat="45.19036" lon="5.9834">
        <ele>2528</ele>
        <time>2021-04-17T10:23:10Z</time>
      </trkpt>
      <trkpt lat="45.19036" lon="5.98343">
        <ele>2528.4</ele>
        <time>2021-04-17T10:23:13Z</time>
      </trkpt>
      <trkpt lat="45.19038" lon="5.98345">
        <ele>2529</ele>
        <time>2021-04-17T10:23:16Z</time>
      </trkpt>
      <trkpt lat="45.19038" lon="5.9835">
        <ele>2529.8</ele>
        <time>2021-04-17T10:23:20Z</time>
      </trkpt>
      <trkpt lat="45.19037" lon="5.98352">
        <ele>2530</ele>
        <time>2021-04-17T10:23:22Z</time>
      </trkpt>
      <trkpt lat="45.19037" lon="5.98353">
        <ele>2530.2</ele>
        <time>2021-04-17T10:23:23Z</time>
      </trkpt>
      <trkpt lat="45.19036" lon="5.98358">
        <ele>2531.2</ele>
        <time>2021-04-17T10:23:27Z</time>
      </trkpt>
      <trkpt lat="45.19035" lon="5.98361">
        <ele>2532</ele>
        <time>2021-04-17T10:23:31Z</time>
      </trkpt>
      <trkpt lat="45.19035" lon="5.98362">
        <ele>2532.2</ele>
        <time>2021-04-17T10:23:32Z</time>
      </trkpt>
      <trkpt lat="45.19035" lon="5.98363">
        <ele>2532.4</ele>
        <time>2021-04-17T10:23:33Z</time>
      </trkpt>
      <trkpt lat="45.19034" lon="5.98367">
        <ele>2533.4</ele>
        <time>2021-04-17T10:23:38Z</time>
      </trkpt>
      <trkpt lat="45.19034" lon="5.9837">
        <ele>2533.8</ele>
        <time>2021-04-17T10:23:41Z</time>
      </trkpt>
      <trkpt lat="45.19033" lon="5.98371">
        <ele>2534.4</ele>
        <time>2021-04-17T10:23:45Z</time>
      </trkpt>
      <trkpt lat="45.19033" lon="5.98371">
        <ele>2534.8</ele>
        <time>2021-04-17T10:23:49Z</time>
      </trkpt>
      <trkpt lat="45.19032" lon="5.98371">
        <ele>2534.8</ele>
        <time>2021-04-17T10:23:52Z</time>
      </trkpt>
      <trkpt lat="45.19032" lon="5.98371">
        <ele>2534.8</ele>
        <time>2021-04-17T10:23:54Z</time>
      </trkpt>
      <trkpt lat="45.19033" lon="5.98371">
        <ele>2535.4</ele>
        <time>2021-04-17T10:24:00Z</time>
      </trkpt>
      <trkpt lat="45.19033" lon="5.98371">
        <ele>2535.6</ele>
        <time>2021-04-17T10:24:01Z</time>
      </trkpt>
      <trkpt lat="45.19033" lon="5.98371">
        <ele>2536.2</ele>
        <time>2021-04-17T10:24:07Z</time>
      </trkpt>
      <trkpt lat="45.19033" lon="5.98371">
        <ele>2536.2</ele>
        <time>2021-04-17T10:24:08Z</time>
      </trkpt>
      <trkpt lat="45.19033" lon="5.98372">
        <ele>2536.6</ele>
        <time>2021-04-17T10:24:13Z</time>
      </trkpt>
      <trkpt lat="45.19032" lon="5.98374">
        <ele>2536.8</ele>
        <time>2021-04-17T10:24:15Z</time>
      </trkpt>
      <trkpt lat="45.19031" lon="5.98374">
        <ele>2537.4</ele>
        <time>2021-04-17T10:24:21Z</time>
      </trkpt>
      <trkpt lat="45.19031" lon="5.98373">
        <ele>2537.8</ele>
        <time>2021-04-17T10:24:26Z</time>
      </trkpt>
      <trkpt lat="45.19028" lon="5.98366">
        <ele>2538.6</ele>
        <time>2021-04-17T10:24:30Z</time>
      </trkpt>
      <trkpt lat="45.19027" lon="5.98365">
        <ele>2539</ele>
        <time>2021-04-17T10:24:31Z</time>
      </trkpt>
      <trkpt lat="45.19025" lon="5.98356">
        <ele>2539.8</ele>
        <time>2021-04-17T10:24:37Z</time>
      </trkpt>
      <trkpt lat="45.19024" lon="5.98355">
        <ele>2539.8</ele>
        <time>2021-04-17T10:24:38Z</time>
      </trkpt>
      <trkpt lat="45.19024" lon="5.98355">
        <ele>2540</ele>
        <time>2021-04-17T10:24:39Z</time>
      </trkpt>
      <trkpt lat="45.19022" lon="5.98351">
        <ele>2541</ele>
        <time>2021-04-17T10:24:45Z</time>
      </trkpt>
      <trkpt lat="45.19023" lon="5.98351">
        <ele>2541</ele>
        <time>2021-04-17T10:24:46Z</time>
      </trkpt>
      <trkpt lat="45.19022" lon="5.98349">
        <ele>2541.4</ele>
        <time>2021-04-17T10:24:48Z</time>
      </trkpt>
      <trkpt lat="45.19022" lon="5.98348">
        <ele>2541.6</ele>
        <time>2021-04-17T10:24:54Z</time>
      </trkpt>
      <trkpt lat="45.19021" lon="5.98349">
        <ele>2542</ele>
        <time>2021-04-17T10:25:00Z</time>
      </trkpt>
      <trkpt lat="45.19021" lon="5.98349">
        <ele>2542.2</ele>
        <time>2021-04-17T10:25:02Z</time>
      </trkpt>
      <trkpt lat="45.19021" lon="5.98349">
        <ele>2542.2</ele>
        <time>2021-04-17T10:25:08Z</time>
      </trkpt>
      <trkpt lat="45.19021" lon="5.98349">
        <ele>2543.2</ele>
        <time>2021-04-17T10:25:14Z</time>
      </trkpt>
      <trkpt lat="45.19021" lon="5.98349">
        <ele>2544</ele>
        <time>2021-04-17T10:25:20Z</time>
      </trkpt>
      <trkpt lat="45.19021" lon="5.98349">
        <ele>2544.2</ele>
        <time>2021-04-17T10:25:22Z</time>
      </trkpt>
      <trkpt lat="45.19021" lon="5.98353">
        <ele>2545</ele>
        <time>2021-04-17T10:25:27Z</time>
      </trkpt>
      <trkpt lat="45.1902" lon="5.98355">
        <ele>2545.2</ele>
        <time>2021-04-17T10:25:30Z</time>
      </trkpt>
      <trkpt lat="45.1902" lon="5.98359">
        <ele>2546</ele>
        <time>2021-04-17T10:25:36Z</time>
      </trkpt>
      <trkpt lat="45.19019" lon="5.9836">
        <ele>2546.4</ele>
        <time>2021-04-17T10:25:39Z</time>
      </trkpt>
      <trkpt lat="45.19019" lon="5.98364">
        <ele>2546.8</ele>
        <time>2021-04-17T10:25:45Z</time>
      </trkpt>
      <trkpt lat="45.19018" lon="5.98365">
        <ele>2547.6</ele>
        <time>2021-04-17T10:25:48Z</time>
      </trkpt>
      <trkpt lat="45.19017" lon="5.98368">
        <ele>2548.2</ele>
        <time>2021-04-17T10:25:53Z</time>
      </trkpt>
      <trkpt lat="45.19017" lon="5.9837">
        <ele>2548.8</ele>
        <time>2021-04-17T10:25:57Z</time>
      </trkpt>
      <trkpt lat="45.19016" lon="5.98373">
        <ele>2549.4</ele>
        <time>2021-04-17T10:26:03Z</time>
      </trkpt>
      <trkpt lat="45.19016" lon="5.98375">
        <ele>2549.8</ele>
        <time>2021-04-17T10:26:05Z</time>
      </trkpt>
      <trkpt lat="45.19016" lon="5.98376">
        <ele>2550.2</ele>
        <time>2021-04-17T10:26:08Z</time>
      </trkpt>
      <trkpt lat="45.19016" lon="5.98379">
        <ele>2550.8</ele>
        <time>2021-04-17T10:26:13Z</time>
      </trkpt>
      <trkpt lat="45.19015" lon="5.98381">
        <ele>2551.6</ele>
        <time>2021-04-17T10:26:19Z</time>
      </trkpt>
      <trkpt lat="45.19015" lon="5.98382">
        <ele>2551.8</ele>
        <time>2021-04-17T10:26:21Z</time>
      </trkpt>
      <trkpt lat="45.19015" lon="5.98385">
        <ele>2552.6</ele>
        <time>2021-04-17T10:26:27Z</time>
      </trkpt>
      <trkpt lat="45.19015" lon="5.98387">
        <ele>2553</ele>
        <time>2021-04-17T10:26:29Z</time>
      </trkpt>
      <trkpt lat="45.19015" lon="5.9839">
        <ele>2553.6</ele>
        <time>2021-04-17T10:26:35Z</time>
      </trkpt>
      <trkpt lat="45.19014" lon="5.98392">
        <ele>2554</ele>
        <time>2021-04-17T10:26:38Z</time>
      </trkpt>
      <trkpt lat="45.19014" lon="5.98395">
        <ele>2555</ele>
        <time>2021-04-17T10:26:44Z</time>
      </trkpt>
      <trkpt lat="45.19014" lon="5.98396">
        <ele>2555.4</ele>
        <time>2021-04-17T10:26:45Z</time>
      </trkpt>
      <trkpt lat="45.19014" lon="5.98399">
        <ele>2556.4</ele>
        <time>2021-04-17T10:26:51Z</time>
      </trkpt>
      <trkpt lat="45.19014" lon="5.98402">
        <ele>2557.4</ele>
        <time>2021-04-17T10:26:57Z</time>
      </trkpt>
      <trkpt lat="45.19014" lon="5.98403">
        <ele>2557.4</ele>
        <time>2021-04-17T10:26:58Z</time>
      </trkpt>
      <trkpt lat="45.19015" lon="5.98407">
        <ele>2558</ele>
        <time>2021-04-17T10:27:04Z</time>
      </trkpt>
      <trkpt lat="45.19015" lon="5.9841">
        <ele>2558.6</ele>
        <time>2021-04-17T10:27:08Z</time>
      </trkpt>
      <trkpt lat="45.19015" lon="5.98412">
        <ele>2559.6</ele>
        <time>2021-04-17T10:27:14Z</time>
      </trkpt>
      <trkpt lat="45.19015" lon="5.98413">
        <ele>2559.6</ele>
        <time>2021-04-17T10:27:16Z</time>
      </trkpt>
      <trkpt lat="45.19016" lon="5.98416">
        <ele>2560.6</ele>
        <time>2021-04-17T10:27:22Z</time>
      </trkpt>
      <trkpt lat="45.19016" lon="5.98416">
        <ele>2560.8</ele>
        <time>2021-04-17T10:27:23Z</time>
      </trkpt>
      <trkpt lat="45.19016" lon="5.98417">
        <ele>2560.8</ele>
        <time>2021-04-17T10:27:24Z</time>
      </trkpt>
      <trkpt lat="45.19016" lon="5.98419">
        <ele>2561.2</ele>
        <time>2021-04-17T10:27:30Z</time>
      </trkpt>
      <trkpt lat="45.19016" lon="5.9842">
        <ele>2561.4</ele>
        <time>2021-04-17T10:27:33Z</time>
      </trkpt>
      <trkpt lat="45.19016" lon="5.98422">
        <ele>2561.2</ele>
        <time>2021-04-17T10:27:36Z</time>
      </trkpt>
      <trkpt lat="45.19015" lon="5.98425">
        <ele>2561.4</ele>
        <time>2021-04-17T10:27:42Z</time>
      </trkpt>
      <trkpt lat="45.19015" lon="5.98425">
        <ele>2561.8</ele>
        <time>2021-04-17T10:27:44Z</time>
      </trkpt>
      <trkpt lat="45.19014" lon="5.98426">
        <ele>2562.8</ele>
        <time>2021-04-17T10:27:49Z</time>
      </trkpt>
      <trkpt lat="45.19014" lon="5.98426">
        <ele>2563.4</ele>
        <time>2021-04-17T10:27:55Z</time>
      </trkpt>
      <trkpt lat="45.19013" lon="5.98426">
        <ele>2564</ele>
        <time>2021-04-17T10:27:59Z</time>
      </trkpt>
      <trkpt lat="45.19012" lon="5.98426">
        <ele>2564.8</ele>
        <time>2021-04-17T10:28:05Z</time>
      </trkpt>
      <trkpt lat="45.19012" lon="5.98426">
        <ele>2565.2</ele>
        <time>2021-04-17T10:28:09Z</time>
      </trkpt>
      <trkpt lat="45.19011" lon="5.98425">
        <ele>2565.8</ele>
        <time>2021-04-17T10:28:15Z</time>
      </trkpt>
      <trkpt lat="45.19011" lon="5.98425">
        <ele>2566.2</ele>
        <time>2021-04-17T10:28:20Z</time>
      </trkpt>
      <trkpt lat="45.19011" lon="5.98425">
        <ele>2567.2</ele>
        <time>2021-04-17T10:28:26Z</time>
      </trkpt>
      <trkpt lat="45.19011" lon="5.98425">
        <ele>2567.8</ele>
        <time>2021-04-17T10:28:32Z</time>
      </trkpt>
      <trkpt lat="45.19011" lon="5.98425">
        <ele>2568.4</ele>
        <time>2021-04-17T10:28:34Z</time>
      </trkpt>
      <trkpt lat="45.19011" lon="5.98425">
        <ele>2569</ele>
        <time>2021-04-17T10:28:40Z</time>
      </trkpt>
      <trkpt lat="45.19011" lon="5.98425">
        <ele>2569.4</ele>
        <time>2021-04-17T10:28:43Z</time>
      </trkpt>
      <trkpt lat="45.19011" lon="5.98425">
        <ele>2569.8</ele>
        <time>2021-04-17T10:28:46Z</time>
      </trkpt>
      <trkpt lat="45.19011" lon="5.98425">
        <ele>2570.4</ele>
        <time>2021-04-17T10:28:52Z</time>
      </trkpt>
      <trkpt lat="45.19011" lon="5.98424">
        <ele>2571</ele>
        <time>2021-04-17T10:28:58Z</time>
      </trkpt>
      <trkpt lat="45.19011" lon="5.98424">
        <ele>2571</ele>
        <time>2021-04-17T10:29:02Z</time>
      </trkpt>
      <trkpt lat="45.19011" lon="5.98424">
        <ele>2571</ele>
        <time>2021-04-17T10:29:04Z</time>
      </trkpt>
      <trkpt lat="45.1901" lon="5.98424">
        <ele>2571.4</ele>
        <time>2021-04-17T10:29:10Z</time>
      </trkpt>
      <trkpt lat="45.1901" lon="5.98424">
        <ele>2572</ele>
        <time>2021-04-17T10:29:16Z</time>
      </trkpt>
      <trkpt lat="45.1901" lon="5.98423">
        <ele>2572</ele>
        <time>2021-04-17T10:29:19Z</time>
      </trkpt>
      <trkpt lat="45.1901" lon="5.98423">
        <ele>2572.2</ele>
        <time>2021-04-17T10:29:21Z</time>
      </trkpt>
      <trkpt lat="45.1901" lon="5.98423">
        <ele>2572.6</ele>
        <time>2021-04-17T10:29:26Z</time>
      </trkpt>
      <trkpt lat="45.1901" lon="5.98423">
        <ele>2573.2</ele>
        <time>2021-04-17T10:29:29Z</time>
      </trkpt>
      <trkpt lat="45.1901" lon="5.98423">
        <ele>2573.6</ele>
        <time>2021-04-17T10:29:34Z</time>
      </trkpt>
      <trkpt lat="45.1901" lon="5.98422">
        <ele>2574.2</ele>
        <time>2021-04-17T10:29:40Z</time>
      </trkpt>
      <trkpt lat="45.1901" lon="5.98422">
        <ele>2574</ele>
        <time>2021-04-17T10:29:46Z</time>
      </trkpt>
      <trkpt lat="45.1901" lon="5.98422">
        <ele>2574</ele>
        <time>2021-04-17T10:29:48Z</time>
      </trkpt>
      <trkpt lat="45.19009" lon="5.98421">
        <ele>2574.4</ele>
        <time>2021-04-17T10:29:54Z</time>
      </trkpt>
      <trkpt lat="45.19009" lon="5.98421">
        <ele>2574.8</ele>
        <time>2021-04-17T10:29:56Z</time>
      </trkpt>
      <trkpt lat="45.19009" lon="5.98421">
        <ele>2575.6</ele>
        <time>2021-04-17T10:30:02Z</time>
      </trkpt>
      <trkpt lat="45.19009" lon="5.98421">
        <ele>2575.8</ele>
        <time>2021-04-17T10:30:04Z</time>
      </trkpt>
      <trkpt lat="45.19009" lon="5.9842">
        <ele>2576.2</ele>
        <time>2021-04-17T10:30:09Z</time>
      </trkpt>
      <trkpt lat="45.19009" lon="5.9842">
        <ele>2576.8</ele>
        <time>2021-04-17T10:30:12Z</time>
      </trkpt>
      <trkpt lat="45.19009" lon="5.9842">
        <ele>2577</ele>
        <time>2021-04-17T10:30:13Z</time>
      </trkpt>
      <trkpt lat="45.19009" lon="5.9842">
        <ele>2577.4</ele>
        <time>2021-04-17T10:30:17Z</time>
      </trkpt>
      <trkpt lat="45.19009" lon="5.9842">
        <ele>2578</ele>
        <time>2021-04-17T10:30:22Z</time>
      </trkpt>
      <trkpt lat="45.19009" lon="5.98419">
        <ele>2578</ele>
        <time>2021-04-17T10:30:23Z</time>
      </trkpt>
      <trkpt lat="45.19008" lon="5.98419">
        <ele>2577.8</ele>
        <time>2021-04-17T10:30:29Z</time>
      </trkpt>
      <trkpt lat="45.19008" lon="5.98419">
        <ele>2578</ele>
        <time>2021-04-17T10:30:35Z</time>
      </trkpt>
      <trkpt lat="45.19008" lon="5.98418">
        <ele>2578.6</ele>
        <time>2021-04-17T10:30:41Z</time>
      </trkpt>
      <trkpt lat="45.19008" lon="5.98418">
        <ele>2578.8</ele>
        <time>2021-04-17T10:30:47Z</time>
      </trkpt>
      <trkpt lat="45.19008" lon="5.98417">
        <ele>2579</ele>
        <time>2021-04-17T10:30:49Z</time>
      </trkpt>
      <trkpt lat="45.19007" lon="5.98417">
        <ele>2579.6</ele>
        <time>2021-04-17T10:30:55Z</time>
      </trkpt>
      <trkpt lat="45.19007" lon="5.98416">
        <ele>2580</ele>
        <time>2021-04-17T10:31:01Z</time>
      </trkpt>
      <trkpt lat="45.19007" lon="5.98416">
        <ele>2580.2</ele>
        <time>2021-04-17T10:31:02Z</time>
      </trkpt>
      <trkpt lat="45.19007" lon="5.98416">
        <ele>2580.8</ele>
        <time>2021-04-17T10:31:08Z</time>
      </trkpt>
      <trkpt lat="45.19007" lon="5.98416">
        <ele>2581.4</ele>
        <time>2021-04-17T10:31:12Z</time>
      </trkpt>
      <trkpt lat="45.19007" lon="5.98415">
        <ele>2582</ele>
        <time>2021-04-17T10:31:18Z</time>
      </trkpt>
      <trkpt lat="45.19006" lon="5.98415">
        <ele>2582.4</ele>
        <time>2021-04-17T10:31:22Z</time>
      </trkpt>
      <trkpt lat="45.19006" lon="5.98415">
        <ele>2583</ele>
        <time>2021-04-17T10:31:28Z</time>
      </trkpt>
      <trkpt lat="45.19006" lon="5.98415">
        <ele>2583.4</ele>
        <time>2021-04-17T10:31:30Z</time>
      </trkpt>
      <trkpt lat="45.19006" lon="5.98415">
        <ele>2584</ele>
        <time>2021-04-17T10:31:36Z</time>
      </trkpt>
      <trkpt lat="45.19006" lon="5.98415">
        <ele>2584.6</ele>
        <time>2021-04-17T10:31:41Z</time>
      </trkpt>
      <trkpt lat="45.19005" lon="5.98415">
        <ele>2584.8</ele>
        <time>2021-04-17T10:31:47Z</time>
      </trkpt>
      <trkpt lat="45.19005" lon="5.98414">
        <ele>2584.6</ele>
        <time>2021-04-17T10:31:50Z</time>
      </trkpt>
      <trkpt lat="45.19005" lon="5.98414">
        <ele>2584.6</ele>
        <time>2021-04-17T10:31:53Z</time>
      </trkpt>
      <trkpt lat="45.19005" lon="5.98414">
        <ele>2584.6</ele>
        <time>2021-04-17T10:31:55Z</time>
      </trkpt>
      <trkpt lat="45.19005" lon="5.98414">
        <ele>2584.6</ele>
        <time>2021-04-17T10:31:57Z</time>
      </trkpt>
      <trkpt lat="45.19005" lon="5.98414">
        <ele>2584.8</ele>
        <time>2021-04-17T10:31:59Z</time>
      </trkpt>
      <trkpt lat="45.19005" lon="5.98414">
        <ele>2584.8</ele>
        <time>2021-04-17T10:32:00Z</time>
      </trkpt>
      <trkpt lat="45.19005" lon="5.98414">
        <ele>2584.8</ele>
        <time>2021-04-17T10:32:01Z</time>
      </trkpt>
      <trkpt lat="45.19005" lon="5.98414">
        <ele>2585</ele>
        <time>2021-04-17T10:32:02Z</time>
      </trkpt>
      <trkpt lat="45.19004" lon="5.98414">
        <ele>2585.4</ele>
        <time>2021-04-17T10:32:07Z</time>
      </trkpt>
      <trkpt lat="45.19004" lon="5.98414">
        <ele>2585.6</ele>
        <time>2021-04-17T10:32:09Z</time>
      </trkpt>
      <trkpt lat="45.19004" lon="5.98414">
        <ele>2586.4</ele>
        <time>2021-04-17T10:32:15Z</time>
      </trkpt>
      <trkpt lat="45.19004" lon="5.98414">
        <ele>2586.6</ele>
        <time>2021-04-17T10:32:20Z</time>
      </trkpt>
      <trkpt lat="45.19004" lon="5.98414">
        <ele>2586.6</ele>
        <time>2021-04-17T10:32:24Z</time>
      </trkpt>
      <trkpt lat="45.19004" lon="5.98414">
        <ele>2587.4</ele>
        <time>2021-04-17T10:32:30Z</time>
      </trkpt>
      <trkpt lat="45.19003" lon="5.98414">
        <ele>2587.6</ele>
        <time>2021-04-17T10:32:33Z</time>
      </trkpt>
      <trkpt lat="45.19003" lon="5.98414">
        <ele>2588</ele>
        <time>2021-04-17T10:32:35Z</time>
      </trkpt>
      <trkpt lat="45.19003" lon="5.98414">
        <ele>2588.2</ele>
        <time>2021-04-17T10:32:36Z</time>
      </trkpt>
      <trkpt lat="45.19003" lon="5.98414">
        <ele>2588.6</ele>
        <time>2021-04-17T10:32:39Z</time>
      </trkpt>
      <trkpt lat="45.19003" lon="5.98414">
        <ele>2588.8</ele>
        <time>2021-04-17T10:32:40Z</time>
      </trkpt>
      <trkpt lat="45.19003" lon="5.98414">
        <ele>2588.8</ele>
        <time>2021-04-17T10:32:46Z</time>
      </trkpt>
      <trkpt lat="45.19003" lon="5.98414">
        <ele>2589.4</ele>
        <time>2021-04-17T10:32:52Z</time>
      </trkpt>
      <trkpt lat="45.19002" lon="5.98414">
        <ele>2589.8</ele>
        <time>2021-04-17T10:32:55Z</time>
      </trkpt>
      <trkpt lat="45.19002" lon="5.98414">
        <ele>2590.4</ele>
        <time>2021-04-17T10:33:01Z</time>
      </trkpt>
      <trkpt lat="45.19002" lon="5.98414">
        <ele>2590.8</ele>
        <time>2021-04-17T10:33:06Z</time>
      </trkpt>
      <trkpt lat="45.19002" lon="5.98415">
        <ele>2591.2</ele>
        <time>2021-04-17T10:33:12Z</time>
      </trkpt>
      <trkpt lat="45.19002" lon="5.98415">
        <ele>2591.4</ele>
        <time>2021-04-17T10:33:15Z</time>
      </trkpt>
      <trkpt lat="45.19001" lon="5.98415">
        <ele>2591.2</ele>
        <time>2021-04-17T10:33:21Z</time>
      </trkpt>
      <trkpt lat="45.19001" lon="5.98415">
        <ele>2591.4</ele>
        <time>2021-04-17T10:33:27Z</time>
      </trkpt>
      <trkpt lat="45.19001" lon="5.98415">
        <ele>2591.2</ele>
        <time>2021-04-17T10:33:31Z</time>
      </trkpt>
      <trkpt lat="45.19001" lon="5.98415">
        <ele>2591.2</ele>
        <time>2021-04-17T10:33:32Z</time>
      </trkpt>
      <trkpt lat="45.19001" lon="5.98415">
        <ele>2591.2</ele>
        <time>2021-04-17T10:33:33Z</time>
      </trkpt>
      <trkpt lat="45.19001" lon="5.98415">
        <ele>2591.4</ele>
        <time>2021-04-17T10:33:37Z</time>
      </trkpt>
      <trkpt lat="45.19001" lon="5.98415">
        <ele>2591.4</ele>
        <time>2021-04-17T10:33:38Z</time>
      </trkpt>
      <trkpt lat="45.19001" lon="5.98415">
        <ele>2591.6</ele>
        <time>2021-04-17T10:33:41Z</time>
      </trkpt>
      <trkpt lat="45.19001" lon="5.98416">
        <ele>2591.8</ele>
        <time>2021-04-17T10:33:45Z</time>
      </trkpt>
      <trkpt lat="45.19" lon="5.98416">
        <ele>2591.8</ele>
        <time>2021-04-17T10:33:50Z</time>
      </trkpt>
      <trkpt lat="45.18993" lon="5.98418">
        <ele>2592.2</ele>
        <time>2021-04-17T10:33:56Z</time>
      </trkpt>
      <trkpt lat="45.18985" lon="5.98419">
        <ele>2592.6</ele>
        <time>2021-04-17T10:33:58Z</time>
      </trkpt>
      <trkpt lat="45.1897" lon="5.98422">
        <ele>2593</ele>
        <time>2021-04-17T10:34:02Z</time>
      </trkpt>
      <trkpt lat="45.18963" lon="5.98423">
        <ele>2593.4</ele>
        <time>2021-04-17T10:34:06Z</time>
      </trkpt>
      <trkpt lat="45.18963" lon="5.98421">
        <ele>2593.6</ele>
        <time>2021-04-17T10:34:12Z</time>
      </trkpt>
      <trkpt lat="45.18963" lon="5.98421">
        <ele>2593.8</ele>
        <time>2021-04-17T10:34:15Z</time>
      </trkpt>
      <trkpt lat="45.18963" lon="5.98421">
        <ele>2593.8</ele>
        <time>2021-04-17T10:34:16Z</time>
      </trkpt>
      <trkpt lat="45.18963" lon="5.98422">
        <ele>2593.8</ele>
        <time>2021-04-17T10:34:22Z</time>
      </trkpt>
      <trkpt lat="45.18963" lon="5.98422">
        <ele>2594</ele>
        <time>2021-04-17T10:34:28Z</time>
      </trkpt>
      <trkpt lat="45.18964" lon="5.98423">
        <ele>2594.4</ele>
        <time>2021-04-17T10:34:33Z</time>
      </trkpt>
      <trkpt lat="45.18964" lon="5.98423">
        <ele>2594.4</ele>
        <time>2021-04-17T10:34:34Z</time>
      </trkpt>
      <trkpt lat="45.18964" lon="5.98423">
        <ele>2594.8</ele>
        <time>2021-04-17T10:34:40Z</time>
      </trkpt>
      <trkpt lat="45.18964" lon="5.98426">
        <ele>2595</ele>
        <time>2021-04-17T10:34:46Z</time>
      </trkpt>
      <trkpt lat="45.18964" lon="5.98427">
        <ele>2595.2</ele>
        <time>2021-04-17T10:34:47Z</time>
      </trkpt>
      <trkpt lat="45.18964" lon="5.98428">
        <ele>2595.8</ele>
        <time>2021-04-17T10:34:52Z</time>
      </trkpt>
      <trkpt lat="45.18964" lon="5.98429">
        <ele>2596.2</ele>
        <time>2021-04-17T10:34:54Z</time>
      </trkpt>
      <trkpt lat="45.18964" lon="5.9843">
        <ele>2597</ele>
        <time>2021-04-17T10:34:58Z</time>
      </trkpt>
      <trkpt lat="45.18964" lon="5.98432">
        <ele>2597.2</ele>
        <time>2021-04-17T10:35:01Z</time>
      </trkpt>
      <trkpt lat="45.18965" lon="5.98435">
        <ele>2597.4</ele>
        <time>2021-04-17T10:35:07Z</time>
      </trkpt>
      <trkpt lat="45.18966" lon="5.98439">
        <ele>2597.6</ele>
        <time>2021-04-17T10:35:13Z</time>
      </trkpt>
      <trkpt lat="45.18966" lon="5.98441">
        <ele>2597.8</ele>
        <time>2021-04-17T10:35:19Z</time>
      </trkpt>
      <trkpt lat="45.18966" lon="5.98441">
        <ele>2597.6</ele>
        <time>2021-04-17T10:35:21Z</time>
      </trkpt>
      <trkpt lat="45.18966" lon="5.98441">
        <ele>2597.6</ele>
        <time>2021-04-17T10:35:27Z</time>
      </trkpt>
      <trkpt lat="45.18965" lon="5.98441">
        <ele>2597.6</ele>
        <time>2021-04-17T10:35:33Z</time>
      </trkpt>
      <trkpt lat="45.18965" lon="5.98441">
        <ele>2597.8</ele>
        <time>2021-04-17T10:35:36Z</time>
      </trkpt>
      <trkpt lat="45.18965" lon="5.98441">
        <ele>2597.8</ele>
        <time>2021-04-17T10:35:37Z</time>
      </trkpt>
      <trkpt lat="45.18965" lon="5.98441">
        <ele>2597.6</ele>
        <time>2021-04-17T10:35:40Z</time>
      </trkpt>
      <trkpt lat="45.18965" lon="5.9844">
        <ele>2597.4</ele>
        <time>2021-04-17T10:35:46Z</time>
      </trkpt>
      <trkpt lat="45.18965" lon="5.9844">
        <ele>2597.6</ele>
        <time>2021-04-17T10:35:48Z</time>
      </trkpt>
      <trkpt lat="45.18964" lon="5.9844">
        <ele>2597.8</ele>
        <time>2021-04-17T10:35:52Z</time>
      </trkpt>
      <trkpt lat="45.18964" lon="5.9844">
        <ele>2598</ele>
        <time>2021-04-17T10:35:54Z</time>
      </trkpt>
      <trkpt lat="45.18964" lon="5.9844">
        <ele>2598</ele>
        <time>2021-04-17T10:35:56Z</time>
      </trkpt>
      <trkpt lat="45.18964" lon="5.98441">
        <ele>2598</ele>
        <time>2021-04-17T10:36:02Z</time>
      </trkpt>
      <trkpt lat="45.18963" lon="5.98441">
        <ele>2598.2</ele>
        <time>2021-04-17T10:36:04Z</time>
      </trkpt>
      <trkpt lat="45.18963" lon="5.98441">
        <ele>2598.6</ele>
        <time>2021-04-17T10:36:10Z</time>
      </trkpt>
      <trkpt lat="45.18963" lon="5.98441">
        <ele>2598.4</ele>
        <time>2021-04-17T10:36:13Z</time>
      </trkpt>
      <trkpt lat="45.18962" lon="5.98441">
        <ele>2598.6</ele>
        <time>2021-04-17T10:36:18Z</time>
      </trkpt>
      <trkpt lat="45.18962" lon="5.98441">
        <ele>2598.8</ele>
        <time>2021-04-17T10:36:19Z</time>
      </trkpt>
      <trkpt lat="45.18962" lon="5.98441">
        <ele>2598.8</ele>
        <time>2021-04-17T10:36:20Z</time>
      </trkpt>
      <trkpt lat="45.18962" lon="5.98442">
        <ele>2598.6</ele>
        <time>2021-04-17T10:36:23Z</time>
      </trkpt>
      <trkpt lat="45.18962" lon="5.98442">
        <ele>2598.6</ele>
        <time>2021-04-17T10:36:24Z</time>
      </trkpt>
      <trkpt lat="45.18961" lon="5.98442">
        <ele>2598.8</ele>
        <time>2021-04-17T10:36:28Z</time>
      </trkpt>
      <trkpt lat="45.18961" lon="5.98442">
        <ele>2599</ele>
        <time>2021-04-17T10:36:30Z</time>
      </trkpt>
      <trkpt lat="45.18961" lon="5.98442">
        <ele>2599.2</ele>
        <time>2021-04-17T10:36:31Z</time>
      </trkpt>
      <trkpt lat="45.18961" lon="5.98442">
        <ele>2599.2</ele>
        <time>2021-04-17T10:36:32Z</time>
      </trkpt>
      <trkpt lat="45.1896" lon="5.98442">
        <ele>2599.6</ele>
        <time>2021-04-17T10:36:35Z</time>
      </trkpt>
      <trkpt lat="45.18959" lon="5.98442">
        <ele>2600.2</ele>
        <time>2021-04-17T10:36:39Z</time>
      </trkpt>
      <trkpt lat="45.18959" lon="5.98442">
        <ele>2600.4</ele>
        <time>2021-04-17T10:36:40Z</time>
      </trkpt>
      <trkpt lat="45.18959" lon="5.98442">
        <ele>2600.8</ele>
        <time>2021-04-17T10:36:44Z</time>
      </trkpt>
      <trkpt lat="45.18959" lon="5.98442">
        <ele>2601.2</ele>
        <time>2021-04-17T10:36:48Z</time>
      </trkpt>
      <trkpt lat="45.18959" lon="5.98442">
        <ele>2601.4</ele>
        <time>2021-04-17T10:36:50Z</time>
      </trkpt>
      <trkpt lat="45.18959" lon="5.98443">
        <ele>2602</ele>
        <time>2021-04-17T10:36:53Z</time>
      </trkpt>
      <trkpt lat="45.18959" lon="5.98443">
        <ele>2602.6</ele>
        <time>2021-04-17T10:36:55Z</time>
      </trkpt>
      <trkpt lat="45.18959" lon="5.98443">
        <ele>2603.6</ele>
        <time>2021-04-17T10:36:58Z</time>
      </trkpt>
      <trkpt lat="45.18959" lon="5.98443">
        <ele>2603.8</ele>
        <time>2021-04-17T10:36:59Z</time>
      </trkpt>
      <trkpt lat="45.18959" lon="5.98443">
        <ele>2604.2</ele>
        <time>2021-04-17T10:37:00Z</time>
      </trkpt>
      <trkpt lat="45.18959" lon="5.98444">
        <ele>2604.4</ele>
        <time>2021-04-17T10:37:01Z</time>
      </trkpt>
      <trkpt lat="45.18958" lon="5.98444">
        <ele>2605</ele>
        <time>2021-04-17T10:37:03Z</time>
      </trkpt>
      <trkpt lat="45.18958" lon="5.98445">
        <ele>2605.6</ele>
        <time>2021-04-17T10:37:06Z</time>
      </trkpt>
      <trkpt lat="45.18958" lon="5.98445">
        <ele>2606.2</ele>
        <time>2021-04-17T10:37:08Z</time>
      </trkpt>
      <trkpt lat="45.18957" lon="5.98446">
        <ele>2607.4</ele>
        <time>2021-04-17T10:37:13Z</time>
      </trkpt>
      <trkpt lat="45.18957" lon="5.98447">
        <ele>2608.4</ele>
        <time>2021-04-17T10:37:19Z</time>
      </trkpt>
      <trkpt lat="45.18956" lon="5.98447">
        <ele>2608.8</ele>
        <time>2021-04-17T10:37:25Z</time>
      </trkpt>
      <trkpt lat="45.18956" lon="5.98447">
        <ele>2609.4</ele>
        <time>2021-04-17T10:37:29Z</time>
      </trkpt>
      <trkpt lat="45.18956" lon="5.98447">
        <ele>2610.6</ele>
        <time>2021-04-17T10:37:33Z</time>
      </trkpt>
      <trkpt lat="45.18956" lon="5.98447">
        <ele>2611.8</ele>
        <time>2021-04-17T10:37:39Z</time>
      </trkpt>
      <trkpt lat="45.18956" lon="5.98447">
        <ele>2612.4</ele>
        <time>2021-04-17T10:37:45Z</time>
      </trkpt>
      <trkpt lat="45.18956" lon="5.98447">
        <ele>2612.8</ele>
        <time>2021-04-17T10:37:47Z</time>
      </trkpt>
      <trkpt lat="45.18956" lon="5.98447">
        <ele>2613</ele>
        <time>2021-04-17T10:37:49Z</time>
      </trkpt>
      <trkpt lat="45.18956" lon="5.98447">
        <ele>2613</ele>
        <time>2021-04-17T10:37:55Z</time>
      </trkpt>
      <trkpt lat="45.18956" lon="5.98448">
        <ele>2614</ele>
        <time>2021-04-17T10:38:01Z</time>
      </trkpt>
      <trkpt lat="45.18956" lon="5.98448">
        <ele>2614.4</ele>
        <time>2021-04-17T10:38:07Z</time>
      </trkpt>
      <trkpt lat="45.18956" lon="5.98448">
        <ele>2615.2</ele>
        <time>2021-04-17T10:38:11Z</time>
      </trkpt>
      <trkpt lat="45.18956" lon="5.98448">
        <ele>2616.4</ele>
        <time>2021-04-17T10:38:14Z</time>
      </trkpt>
      <trkpt lat="45.18956" lon="5.98448">
        <ele>2617</ele>
        <time>2021-04-17T10:38:20Z</time>
      </trkpt>
      <trkpt lat="45.18956" lon="5.98448">
        <ele>2617.2</ele>
        <time>2021-04-17T10:38:26Z</time>
      </trkpt>
      <trkpt lat="45.18955" lon="5.98448">
        <ele>2617.4</ele>
        <time>2021-04-17T10:38:29Z</time>
      </trkpt>
      <trkpt lat="45.18955" lon="5.98448">
        <ele>2618.4</ele>
        <time>2021-04-17T10:38:34Z</time>
      </trkpt>
      <trkpt lat="45.18955" lon="5.98448">
        <ele>2618.6</ele>
        <time>2021-04-17T10:38:36Z</time>
      </trkpt>
      <trkpt lat="45.18955" lon="5.98448">
        <ele>2618.6</ele>
        <time>2021-04-17T10:38:38Z</time>
      </trkpt>
      <trkpt lat="45.18955" lon="5.98448">
        <ele>2618.8</ele>
        <time>2021-04-17T10:38:41Z</time>
      </trkpt>
      <trkpt lat="45.18955" lon="5.98448">
        <ele>2618.8</ele>
        <time>2021-04-17T10:38:43Z</time>
      </trkpt>
      <trkpt lat="45.18955" lon="5.98448">
        <ele>2618.8</ele>
        <time>2021-04-17T10:38:45Z</time>
      </trkpt>
      <trkpt lat="45.18955" lon="5.98448">
        <ele>2618.8</ele>
        <time>2021-04-17T10:38:46Z</time>
      </trkpt>
      <trkpt lat="45.18955" lon="5.98448">
        <ele>2619.4</ele>
        <time>2021-04-17T10:38:48Z</time>
      </trkpt>
      <trkpt lat="45.18955" lon="5.98448">
        <ele>2619.8</ele>
        <time>2021-04-17T10:38:49Z</time>
      </trkpt>
      <trkpt lat="45.18955" lon="5.98448">
        <ele>2620.8</ele>
        <time>2021-04-17T10:38:55Z</time>
      </trkpt>
      <trkpt lat="45.18955" lon="5.98448">
        <ele>2621</ele>
        <time>2021-04-17T10:38:57Z</time>
      </trkpt>
      <trkpt lat="45.18955" lon="5.98448">
        <ele>2621.4</ele>
        <time>2021-04-17T10:39:03Z</time>
      </trkpt>
      <trkpt lat="45.18955" lon="5.98448">
        <ele>2622</ele>
        <time>2021-04-17T10:39:05Z</time>
      </trkpt>
      <trkpt lat="45.18955" lon="5.98448">
        <ele>2623.2</ele>
        <time>2021-04-17T10:39:10Z</time>
      </trkpt>
      <trkpt lat="45.18955" lon="5.98448">
        <ele>2624.6</ele>
        <time>2021-04-17T10:39:13Z</time>
      </trkpt>
      <trkpt lat="45.18954" lon="5.98448">
        <ele>2625.4</ele>
        <time>2021-04-17T10:39:16Z</time>
      </trkpt>
      <trkpt lat="45.18954" lon="5.98448">
        <ele>2625.6</ele>
        <time>2021-04-17T10:39:18Z</time>
      </trkpt>
      <trkpt lat="45.18954" lon="5.98448">
        <ele>2626.2</ele>
        <time>2021-04-17T10:39:24Z</time>
      </trkpt>
      <trkpt lat="45.18954" lon="5.98448">
        <ele>2626.8</ele>
        <time>2021-04-17T10:39:27Z</time>
      </trkpt>
      <trkpt lat="45.18954" lon="5.98448">
        <ele>2626.8</ele>
        <time>2021-04-17T10:39:33Z</time>
      </trkpt>
      <trkpt lat="45.18954" lon="5.98448">
        <ele>2626.8</ele>
        <time>2021-04-17T10:39:36Z</time>
      </trkpt>
      <trkpt lat="45.18954" lon="5.98448">
        <ele>2626.8</ele>
        <time>2021-04-17T10:39:40Z</time>
      </trkpt>
      <trkpt lat="45.18954" lon="5.98448">
        <ele>2628</ele>
        <time>2021-04-17T10:39:45Z</time>
      </trkpt>
      <trkpt lat="45.18953" lon="5.98448">
        <ele>2629</ele>
        <time>2021-04-17T10:39:51Z</time>
      </trkpt>
      <trkpt lat="45.18953" lon="5.98448">
        <ele>2629</ele>
        <time>2021-04-17T10:39:52Z</time>
      </trkpt>
      <trkpt lat="45.18953" lon="5.98448">
        <ele>2629.2</ele>
        <time>2021-04-17T10:39:55Z</time>
      </trkpt>
      <trkpt lat="45.18953" lon="5.98448">
        <ele>2629.8</ele>
        <time>2021-04-17T10:39:58Z</time>
      </trkpt>
      <trkpt lat="45.18953" lon="5.98448">
        <ele>2630.2</ele>
        <time>2021-04-17T10:39:59Z</time>
      </trkpt>
      <trkpt lat="45.18953" lon="5.98448">
        <ele>2631.2</ele>
        <time>2021-04-17T10:40:05Z</time>
      </trkpt>
      <trkpt lat="45.18953" lon="5.98448">
        <ele>2631.4</ele>
        <time>2021-04-17T10:40:07Z</time>
      </trkpt>
      <trkpt lat="45.18953" lon="5.98448">
        <ele>2632.4</ele>
        <time>2021-04-17T10:40:11Z</time>
      </trkpt>
      <trkpt lat="45.18952" lon="5.98449">
        <ele>2633.4</ele>
        <time>2021-04-17T10:40:16Z</time>
      </trkpt>
      <trkpt lat="45.18952" lon="5.98449">
        <ele>2633.6</ele>
        <time>2021-04-17T10:40:17Z</time>
      </trkpt>
      <trkpt lat="45.18952" lon="5.98449">
        <ele>2634.8</ele>
        <time>2021-04-17T10:40:22Z</time>
      </trkpt>
      <trkpt lat="45.18952" lon="5.98449">
        <ele>2635.4</ele>
        <time>2021-04-17T10:40:26Z</time>
      </trkpt>
      <trkpt lat="45.18952" lon="5.98449">
        <ele>2635.8</ele>
        <time>2021-04-17T10:40:28Z</time>
      </trkpt>
      <trkpt lat="45.18952" lon="5.98449">
        <ele>2636.2</ele>
        <time>2021-04-17T10:40:34Z</time>
      </trkpt>
      <trkpt lat="45.18951" lon="5.98449">
        <ele>2636.8</ele>
        <time>2021-04-17T10:40:38Z</time>
      </trkpt>
      <trkpt lat="45.18951" lon="5.98449">
        <ele>2638</ele>
        <time>2021-04-17T10:40:44Z</time>
      </trkpt>
      <trkpt lat="45.18951" lon="5.98449">
        <ele>2638.8</ele>
        <time>2021-04-17T10:40:50Z</time>
      </trkpt>
      <trkpt lat="45.18951" lon="5.98449">
        <ele>2639</ele>
        <time>2021-04-17T10:40:53Z</time>
      </trkpt>
      <trkpt lat="45.18951" lon="5.98449">
        <ele>2639.8</ele>
        <time>2021-04-17T10:40:59Z</time>
      </trkpt>
      <trkpt lat="45.1895" lon="5.98449">
        <ele>2640.2</ele>
        <time>2021-04-17T10:41:03Z</time>
      </trkpt>
      <trkpt lat="45.1895" lon="5.98449">
        <ele>2641.4</ele>
        <time>2021-04-17T10:41:08Z</time>
      </trkpt>
      <trkpt lat="45.1895" lon="5.98449">
        <ele>2641.8</ele>
        <time>2021-04-17T10:41:11Z</time>
      </trkpt>
      <trkpt lat="45.1895" lon="5.98449">
        <ele>2642.4</ele>
        <time>2021-04-17T10:41:16Z</time>
      </trkpt>
      <trkpt lat="45.1895" lon="5.98449">
        <ele>2643.4</ele>
        <time>2021-04-17T10:41:21Z</time>
      </trkpt>
      <trkpt lat="45.1895" lon="5.98449">
        <ele>2644</ele>
        <time>2021-04-17T10:41:27Z</time>
      </trkpt>
      <trkpt lat="45.18949" lon="5.98449">
        <ele>2644.6</ele>
        <time>2021-04-17T10:41:30Z</time>
      </trkpt>
      <trkpt lat="45.18949" lon="5.98449">
        <ele>2645.8</ele>
        <time>2021-04-17T10:41:35Z</time>
      </trkpt>
      <trkpt lat="45.18949" lon="5.98449">
        <ele>2646.2</ele>
        <time>2021-04-17T10:41:41Z</time>
      </trkpt>
      <trkpt lat="45.18949" lon="5.98449">
        <ele>2646.6</ele>
        <time>2021-04-17T10:41:47Z</time>
      </trkpt>
      <trkpt lat="45.18949" lon="5.98449">
        <ele>2647</ele>
        <time>2021-04-17T10:41:49Z</time>
      </trkpt>
      <trkpt lat="45.18949" lon="5.98449">
        <ele>2648.4</ele>
        <time>2021-04-17T10:41:52Z</time>
      </trkpt>
      <trkpt lat="45.18948" lon="5.98449">
        <ele>2649.4</ele>
        <time>2021-04-17T10:41:58Z</time>
      </trkpt>
      <trkpt lat="45.18948" lon="5.98449">
        <ele>2650.4</ele>
        <time>2021-04-17T10:42:04Z</time>
      </trkpt>
      <trkpt lat="45.18948" lon="5.98449">
        <ele>2650.6</ele>
        <time>2021-04-17T10:42:10Z</time>
      </trkpt>
      <trkpt lat="45.18947" lon="5.98449">
        <ele>2651.4</ele>
        <time>2021-04-17T10:42:15Z</time>
      </trkpt>
      <trkpt lat="45.18947" lon="5.98449">
        <ele>2651.6</ele>
        <time>2021-04-17T10:42:16Z</time>
      </trkpt>
      <trkpt lat="45.18947" lon="5.98449">
        <ele>2652</ele>
        <time>2021-04-17T10:42:22Z</time>
      </trkpt>
      <trkpt lat="45.18947" lon="5.98449">
        <ele>2652.8</ele>
        <time>2021-04-17T10:42:28Z</time>
      </trkpt>
      <trkpt lat="45.18946" lon="5.9845">
        <ele>2654</ele>
        <time>2021-04-17T10:42:31Z</time>
      </trkpt>
      <trkpt lat="45.18946" lon="5.9845">
        <ele>2654.6</ele>
        <time>2021-04-17T10:42:37Z</time>
      </trkpt>
      <trkpt lat="45.18946" lon="5.9845">
        <ele>2655</ele>
        <time>2021-04-17T10:42:38Z</time>
      </trkpt>
      <trkpt lat="45.18946" lon="5.9845">
        <ele>2655.4</ele>
        <time>2021-04-17T10:42:41Z</time>
      </trkpt>
      <trkpt lat="45.18946" lon="5.9845">
        <ele>2655.6</ele>
        <time>2021-04-17T10:42:46Z</time>
      </trkpt>
      <trkpt lat="45.18945" lon="5.9845">
        <ele>2656.2</ele>
        <time>2021-04-17T10:42:49Z</time>
      </trkpt>
      <trkpt lat="45.18945" lon="5.9845">
        <ele>2657.2</ele>
        <time>2021-04-17T10:42:53Z</time>
      </trkpt>
      <trkpt lat="45.18945" lon="5.9845">
        <ele>2658.2</ele>
        <time>2021-04-17T10:42:59Z</time>
      </trkpt>
      <trkpt lat="45.18945" lon="5.9845">
        <ele>2658.4</ele>
        <time>2021-04-17T10:43:00Z</time>
      </trkpt>
      <trkpt lat="45.18944" lon="5.9845">
        <ele>2659</ele>
        <time>2021-04-17T10:43:03Z</time>
      </trkpt>
      <trkpt lat="45.18944" lon="5.9845">
        <ele>2659.8</ele>
        <time>2021-04-17T10:43:05Z</time>
      </trkpt>
      <trkpt lat="45.18944" lon="5.9845">
        <ele>2660.6</ele>
        <time>2021-04-17T10:43:08Z</time>
      </trkpt>
      <trkpt lat="45.18944" lon="5.9845">
        <ele>2660.8</ele>
        <time>2021-04-17T10:43:09Z</time>
      </trkpt>
      <trkpt lat="45.18944" lon="5.9845">
        <ele>2662</ele>
        <time>2021-04-17T10:43:14Z</time>
      </trkpt>
      <trkpt lat="45.18943" lon="5.9845">
        <ele>2663.2</ele>
        <time>2021-04-17T10:43:19Z</time>
      </trkpt>
      <trkpt lat="45.18943" lon="5.9845">
        <ele>2663.6</ele>
        <time>2021-04-17T10:43:24Z</time>
      </trkpt>
      <trkpt lat="45.18943" lon="5.9845">
        <ele>2664.4</ele>
        <time>2021-04-17T10:43:29Z</time>
      </trkpt>
      <trkpt lat="45.18942" lon="5.9845">
        <ele>2665.2</ele>
        <time>2021-04-17T10:43:35Z</time>
      </trkpt>
      <trkpt lat="45.18942" lon="5.9845">
        <ele>2665.4</ele>
        <time>2021-04-17T10:43:36Z</time>
      </trkpt>
      <trkpt lat="45.18942" lon="5.9845">
        <ele>2665.8</ele>
        <time>2021-04-17T10:43:40Z</time>
      </trkpt>
      <trkpt lat="45.18941" lon="5.9845">
        <ele>2666.6</ele>
        <time>2021-04-17T10:43:46Z</time>
      </trkpt>
      <trkpt lat="45.18941" lon="5.9845">
        <ele>2667.6</ele>
        <time>2021-04-17T10:43:52Z</time>
      </trkpt>
      <trkpt lat="45.18941" lon="5.9845">
        <ele>2667.8</ele>
        <time>2021-04-17T10:43:54Z</time>
      </trkpt>
      <trkpt lat="45.1894" lon="5.9845">
        <ele>2668.8</ele>
        <time>2021-04-17T10:43:58Z</time>
      </trkpt>
      <trkpt lat="45.1894" lon="5.9845">
        <ele>2669.8</ele>
        <time>2021-04-17T10:44:04Z</time>
      </trkpt>
      <trkpt lat="45.1894" lon="5.9845">
        <ele>2670.2</ele>
        <time>2021-04-17T10:44:05Z</time>
      </trkpt>
      <trkpt lat="45.18939" lon="5.9845">
        <ele>2670.6</ele>
        <time>2021-04-17T10:44:11Z</time>
      </trkpt>
      <trkpt lat="45.18939" lon="5.98451">
        <ele>2670.8</ele>
        <time>2021-04-17T10:44:17Z</time>
      </trkpt>
      <trkpt lat="45.18938" lon="5.98451">
        <ele>2671.2</ele>
        <time>2021-04-17T10:44:22Z</time>
      </trkpt>
      <trkpt lat="45.18938" lon="5.98451">
        <ele>2672.4</ele>
        <time>2021-04-17T10:44:27Z</time>
      </trkpt>
      <trkpt lat="45.18937" lon="5.98451">
        <ele>2672.8</ele>
        <time>2021-04-17T10:44:31Z</time>
      </trkpt>
      <trkpt lat="45.18937" lon="5.98451">
        <ele>2672.8</ele>
        <time>2021-04-17T10:44:34Z</time>
      </trkpt>
      <trkpt lat="45.18937" lon="5.98451">
        <ele>2673.8</ele>
        <time>2021-04-17T10:44:40Z</time>
      </trkpt>
      <trkpt lat="45.18936" lon="5.98451">
        <ele>2674.6</ele>
        <time>2021-04-17T10:44:46Z</time>
      </trkpt>
      <trkpt lat="45.18936" lon="5.98451">
        <ele>2675</ele>
        <time>2021-04-17T10:44:47Z</time>
      </trkpt>
      <trkpt lat="45.18936" lon="5.98451">
        <ele>2676.2</ele>
        <time>2021-04-17T10:44:51Z</time>
      </trkpt>
      <trkpt lat="45.18935" lon="5.98451">
        <ele>2676.4</ele>
        <time>2021-04-17T10:44:57Z</time>
      </trkpt>
      <trkpt lat="45.18935" lon="5.98451">
        <ele>2677.2</ele>
        <time>2021-04-17T10:45:03Z</time>
      </trkpt>
      <trkpt lat="45.18934" lon="5.98451">
        <ele>2677.4</ele>
        <time>2021-04-17T10:45:04Z</time>
      </trkpt>
      <trkpt lat="45.18934" lon="5.98451">
        <ele>2678.4</ele>
        <time>2021-04-17T10:45:10Z</time>
      </trkpt>
      <trkpt lat="45.18934" lon="5.98451">
        <ele>2678.4</ele>
        <time>2021-04-17T10:45:11Z</time>
      </trkpt>
      <trkpt lat="45.18933" lon="5.98451">
        <ele>2679</ele>
        <time>2021-04-17T10:45:17Z</time>
      </trkpt>
      <trkpt lat="45.18933" lon="5.98451">
        <ele>2679.6</ele>
        <time>2021-04-17T10:45:21Z</time>
      </trkpt>
      <trkpt lat="45.18932" lon="5.98451">
        <ele>2680.6</ele>
        <time>2021-04-17T10:45:27Z</time>
      </trkpt>
      <trkpt lat="45.18932" lon="5.98451">
        <ele>2680.6</ele>
        <time>2021-04-17T10:45:31Z</time>
      </trkpt>
      <trkpt lat="45.18932" lon="5.98451">
        <ele>2681.8</ele>
        <time>2021-04-17T10:45:35Z</time>
      </trkpt>
      <trkpt lat="45.18931" lon="5.98451">
        <ele>2682.8</ele>
        <time>2021-04-17T10:45:38Z</time>
      </trkpt>
      <trkpt lat="45.18931" lon="5.98451">
        <ele>2683.4</ele>
        <time>2021-04-17T10:45:41Z</time>
      </trkpt>
      <trkpt lat="45.18931" lon="5.98451">
        <ele>2683.8</ele>
        <time>2021-04-17T10:45:43Z</time>
      </trkpt>
      <trkpt lat="45.1893" lon="5.98451">
        <ele>2684.2</ele>
        <time>2021-04-17T10:45:48Z</time>
      </trkpt>
      <trkpt lat="45.1893" lon="5.98451">
        <ele>2684.4</ele>
        <time>2021-04-17T10:45:50Z</time>
      </trkpt>
      <trkpt lat="45.1893" lon="5.98452">
        <ele>2684.8</ele>
        <time>2021-04-17T10:45:54Z</time>
      </trkpt>
      <trkpt lat="45.18929" lon="5.98452">
        <ele>2685.8</ele>
        <time>2021-04-17T10:45:59Z</time>
      </trkpt>
      <trkpt lat="45.18929" lon="5.98452">
        <ele>2686</ele>
        <time>2021-04-17T10:46:00Z</time>
      </trkpt>
      <trkpt lat="45.18929" lon="5.98452">
        <ele>2687.2</ele>
        <time>2021-04-17T10:46:05Z</time>
      </trkpt>
      <trkpt lat="45.18928" lon="5.98452">
        <ele>2687.8</ele>
        <time>2021-04-17T10:46:11Z</time>
      </trkpt>
      <trkpt lat="45.18928" lon="5.98452">
        <ele>2688.6</ele>
        <time>2021-04-17T10:46:13Z</time>
      </trkpt>
      <trkpt lat="45.18927" lon="5.98452">
        <ele>2689.2</ele>
        <time>2021-04-17T10:46:19Z</time>
      </trkpt>
      <trkpt lat="45.18927" lon="5.98452">
        <ele>2689.6</ele>
        <time>2021-04-17T10:46:23Z</time>
      </trkpt>
      <trkpt lat="45.18926" lon="5.98452">
        <ele>2690.6</ele>
        <time>2021-04-17T10:46:29Z</time>
      </trkpt>
      <trkpt lat="45.18926" lon="5.98452">
        <ele>2691.2</ele>
        <time>2021-04-17T10:46:35Z</time>
      </trkpt>
      <trkpt lat="45.18926" lon="5.98452">
        <ele>2692</ele>
        <time>2021-04-17T10:46:37Z</time>
      </trkpt>
      <trkpt lat="45.18925" lon="5.98452">
        <ele>2693</ele>
        <time>2021-04-17T10:46:42Z</time>
      </trkpt>
      <trkpt lat="45.18924" lon="5.98452">
        <ele>2693.2</ele>
        <time>2021-04-17T10:46:48Z</time>
      </trkpt>
      <trkpt lat="45.18924" lon="5.98452">
        <ele>2693.8</ele>
        <time>2021-04-17T10:46:54Z</time>
      </trkpt>
      <trkpt lat="45.18924" lon="5.98452">
        <ele>2694</ele>
        <time>2021-04-17T10:46:57Z</time>
      </trkpt>
      <trkpt lat="45.18923" lon="5.98452">
        <ele>2694.2</ele>
        <time>2021-04-17T10:47:00Z</time>
      </trkpt>
      <trkpt lat="45.18923" lon="5.98452">
        <ele>2694.2</ele>
        <time>2021-04-17T10:47:01Z</time>
      </trkpt>
      <trkpt lat="45.18922" lon="5.98452">
        <ele>2695.4</ele>
        <time>2021-04-17T10:47:07Z</time>
      </trkpt>
      <trkpt lat="45.18922" lon="5.98452">
        <ele>2696</ele>
        <time>2021-04-17T10:47:13Z</time>
      </trkpt>
      <trkpt lat="45.18922" lon="5.98452">
        <ele>2696.6</ele>
        <time>2021-04-17T10:47:16Z</time>
      </trkpt>
      <trkpt lat="45.18921" lon="5.98452">
        <ele>2697.2</ele>
        <time>2021-04-17T10:47:21Z</time>
      </trkpt>
      <trkpt lat="45.18921" lon="5.98453">
        <ele>2697.6</ele>
        <time>2021-04-17T10:47:24Z</time>
      </trkpt>
      <trkpt lat="45.1892" lon="5.98453">
        <ele>2698</ele>
        <time>2021-04-17T10:47:27Z</time>
      </trkpt>
      <trkpt lat="45.1892" lon="5.98453">
        <ele>2698.4</ele>
        <time>2021-04-17T10:47:31Z</time>
      </trkpt>
      <trkpt lat="45.1892" lon="5.98453">
        <ele>2698.8</ele>
        <time>2021-04-17T10:47:32Z</time>
      </trkpt>
      <trkpt lat="45.18919" lon="5.98453">
        <ele>2699.6</ele>
        <time>2021-04-17T10:47:38Z</time>
      </trkpt>
      <trkpt lat="45.18919" lon="5.98453">
        <ele>2699.8</ele>
        <time>2021-04-17T10:47:40Z</time>
      </trkpt>
      <trkpt lat="45.18918" lon="5.98453">
        <ele>2699.6</ele>
        <time>2021-04-17T10:47:46Z</time>
      </trkpt>
      <trkpt lat="45.18918" lon="5.98453">
        <ele>2699.4</ele>
        <time>2021-04-17T10:47:50Z</time>
      </trkpt>
      <trkpt lat="45.18918" lon="5.98453">
        <ele>2699.4</ele>
        <time>2021-04-17T10:47:51Z</time>
      </trkpt>
      <trkpt lat="45.18918" lon="5.98453">
        <ele>2699.4</ele>
        <time>2021-04-17T10:47:53Z</time>
      </trkpt>
      <trkpt lat="45.18917" lon="5.98453">
        <ele>2699.8</ele>
        <time>2021-04-17T10:47:57Z</time>
      </trkpt>
      <trkpt lat="45.18917" lon="5.98453">
        <ele>2700.4</ele>
        <time>2021-04-17T10:48:03Z</time>
      </trkpt>
      <trkpt lat="45.18916" lon="5.98453">
        <ele>2700.8</ele>
        <time>2021-04-17T10:48:07Z</time>
      </trkpt>
      <trkpt lat="45.18916" lon="5.98453">
        <ele>2701.8</ele>
        <time>2021-04-17T10:48:13Z</time>
      </trkpt>
      <trkpt lat="45.18915" lon="5.98453">
        <ele>2702.4</ele>
        <time>2021-04-17T10:48:16Z</time>
      </trkpt>
      <trkpt lat="45.18915" lon="5.98453">
        <ele>2703</ele>
        <time>2021-04-17T10:48:18Z</time>
      </trkpt>
      <trkpt lat="45.18915" lon="5.98453">
        <ele>2703.4</ele>
        <time>2021-04-17T10:48:19Z</time>
      </trkpt>
      <trkpt lat="45.18915" lon="5.98453">
        <ele>2704.2</ele>
        <time>2021-04-17T10:48:21Z</time>
      </trkpt>
      <trkpt lat="45.18915" lon="5.98453">
        <ele>2705.4</ele>
        <time>2021-04-17T10:48:24Z</time>
      </trkpt>
      <trkpt lat="45.18914" lon="5.98453">
        <ele>2706</ele>
        <time>2021-04-17T10:48:27Z</time>
      </trkpt>
      <trkpt lat="45.18914" lon="5.98454">
        <ele>2706.6</ele>
        <time>2021-04-17T10:48:30Z</time>
      </trkpt>
      <trkpt lat="45.18914" lon="5.98454">
        <ele>2707.6</ele>
        <time>2021-04-17T10:48:33Z</time>
      </trkpt>
      <trkpt lat="45.18914" lon="5.98454">
        <ele>2707.8</ele>
        <time>2021-04-17T10:48:34Z</time>
      </trkpt>
      <trkpt lat="45.18913" lon="5.98454">
        <ele>2708</ele>
        <time>2021-04-17T10:48:37Z</time>
      </trkpt>
      <trkpt lat="45.18913" lon="5.98454">
        <ele>2708.8</ele>
        <time>2021-04-17T10:48:43Z</time>
      </trkpt>
      <trkpt lat="45.18912" lon="5.98454">
        <ele>2709</ele>
        <time>2021-04-17T10:48:44Z</time>
      </trkpt>
      <trkpt lat="45.18912" lon="5.98454">
        <ele>2709.4</ele>
        <time>2021-04-17T10:48:45Z</time>
      </trkpt>
      <trkpt lat="45.18912" lon="5.98454">
        <ele>2709.8</ele>
        <time>2021-04-17T10:48:51Z</time>
      </trkpt>
      <trkpt lat="45.18911" lon="5.98454">
        <ele>2710.2</ele>
        <time>2021-04-17T10:48:55Z</time>
      </trkpt>
      <trkpt lat="45.18911" lon="5.98454">
        <ele>2711.2</ele>
        <time>2021-04-17T10:49:01Z</time>
      </trkpt>
      <trkpt lat="45.1891" lon="5.98454">
        <ele>2712.2</ele>
        <time>2021-04-17T10:49:06Z</time>
      </trkpt>
      <trkpt lat="45.1891" lon="5.98454">
        <ele>2712.2</ele>
        <time>2021-04-17T10:49:07Z</time>
      </trkpt>
      <trkpt lat="45.1891" lon="5.98455">
        <ele>2712.6</ele>
        <time>2021-04-17T10:49:13Z</time>
      </trkpt>
      <trkpt lat="45.18909" lon="5.98455">
        <ele>2713.4</ele>
        <time>2021-04-17T10:49:19Z</time>
      </trkpt>
      <trkpt lat="45.18909" lon="5.98455">
        <ele>2713.8</ele>
        <time>2021-04-17T10:49:20Z</time>
      </trkpt>
      <trkpt lat="45.18908" lon="5.98455">
        <ele>2714.4</ele>
        <time>2021-04-17T10:49:23Z</time>
      </trkpt>
      <trkpt lat="45.18908" lon="5.98455">
        <ele>2714.8</ele>
        <time>2021-04-17T10:49:29Z</time>
      </trkpt>
      <trkpt lat="45.18907" lon="5.98455">
        <ele>2715.2</ele>
        <time>2021-04-17T10:49:32Z</time>
      </trkpt>
      <trkpt lat="45.18907" lon="5.98455">
        <ele>2715.4</ele>
        <time>2021-04-17T10:49:33Z</time>
      </trkpt>
      <trkpt lat="45.18907" lon="5.98455">
        <ele>2716.6</ele>
        <time>2021-04-17T10:49:39Z</time>
      </trkpt>
      <trkpt lat="45.18906" lon="5.98456">
        <ele>2717</ele>
        <time>2021-04-17T10:49:45Z</time>
      </trkpt>
      <trkpt lat="45.18906" lon="5.98456">
        <ele>2717.2</ele>
        <time>2021-04-17T10:49:46Z</time>
      </trkpt>
      <trkpt lat="45.18905" lon="5.98456">
        <ele>2717.6</ele>
        <time>2021-04-17T10:49:52Z</time>
      </trkpt>
      <trkpt lat="45.18905" lon="5.98456">
        <ele>2717.6</ele>
        <time>2021-04-17T10:49:53Z</time>
      </trkpt>
      <trkpt lat="45.18904" lon="5.98456">
        <ele>2718.6</ele>
        <time>2021-04-17T10:49:59Z</time>
      </trkpt>
      <trkpt lat="45.18904" lon="5.98456">
        <ele>2718.6</ele>
        <time>2021-04-17T10:50:01Z</time>
      </trkpt>
      <trkpt lat="45.18904" lon="5.98456">
        <ele>2718.6</ele>
        <time>2021-04-17T10:50:06Z</time>
      </trkpt>
      <trkpt lat="45.18903" lon="5.98456">
        <ele>2718.8</ele>
        <time>2021-04-17T10:50:08Z</time>
      </trkpt>
      <trkpt lat="45.18903" lon="5.98457">
        <ele>2719.8</ele>
        <time>2021-04-17T10:50:14Z</time>
      </trkpt>
      <trkpt lat="45.18902" lon="5.98457">
        <ele>2720.8</ele>
        <time>2021-04-17T10:50:20Z</time>
      </trkpt>
      <trkpt lat="45.18902" lon="5.98457">
        <ele>2721.4</ele>
        <time>2021-04-17T10:50:25Z</time>
      </trkpt>
      <trkpt lat="45.18901" lon="5.98457">
        <ele>2721.4</ele>
        <time>2021-04-17T10:50:28Z</time>
      </trkpt>
      <trkpt lat="45.18901" lon="5.98457">
        <ele>2721.4</ele>
        <time>2021-04-17T10:50:34Z</time>
      </trkpt>
      <trkpt lat="45.189" lon="5.98458">
        <ele>2721.4</ele>
        <time>2021-04-17T10:50:40Z</time>
      </trkpt>
      <trkpt lat="45.189" lon="5.98458">
        <ele>2721.4</ele>
        <time>2021-04-17T10:50:42Z</time>
      </trkpt>
      <trkpt lat="45.18899" lon="5.98458">
        <ele>2721.8</ele>
        <time>2021-04-17T10:50:45Z</time>
      </trkpt>
      <trkpt lat="45.18899" lon="5.98458">
        <ele>2722.4</ele>
        <time>2021-04-17T10:50:48Z</time>
      </trkpt>
      <trkpt lat="45.18899" lon="5.98458">
        <ele>2722.6</ele>
        <time>2021-04-17T10:50:51Z</time>
      </trkpt>
      <trkpt lat="45.18898" lon="5.98458">
        <ele>2722.8</ele>
        <time>2021-04-17T10:50:54Z</time>
      </trkpt>
      <trkpt lat="45.18898" lon="5.98458">
        <ele>2723.6</ele>
        <time>2021-04-17T10:50:59Z</time>
      </trkpt>
      <trkpt lat="45.18897" lon="5.98459">
        <ele>2723.8</ele>
        <time>2021-04-17T10:51:01Z</time>
      </trkpt>
      <trkpt lat="45.18897" lon="5.98459">
        <ele>2724</ele>
        <time>2021-04-17T10:51:02Z</time>
      </trkpt>
      <trkpt lat="45.18897" lon="5.98459">
        <ele>2724</ele>
        <time>2021-04-17T10:51:06Z</time>
      </trkpt>
      <trkpt lat="45.18896" lon="5.98459">
        <ele>2724.8</ele>
        <time>2021-04-17T10:51:12Z</time>
      </trkpt>
      <trkpt lat="45.18896" lon="5.98459">
        <ele>2725.2</ele>
        <time>2021-04-17T10:51:15Z</time>
      </trkpt>
      <trkpt lat="45.18896" lon="5.98459">
        <ele>2725.4</ele>
        <time>2021-04-17T10:51:17Z</time>
      </trkpt>
      <trkpt lat="45.18895" lon="5.98459">
        <ele>2725.4</ele>
        <time>2021-04-17T10:51:20Z</time>
      </trkpt>
      <trkpt lat="45.18895" lon="5.98459">
        <ele>2725.2</ele>
        <time>2021-04-17T10:51:24Z</time>
      </trkpt>
      <trkpt lat="45.18894" lon="5.98459">
        <ele>2725.4</ele>
        <time>2021-04-17T10:51:28Z</time>
      </trkpt>
      <trkpt lat="45.18894" lon="5.9846">
        <ele>2726</ele>
        <time>2021-04-17T10:51:31Z</time>
      </trkpt>
      <trkpt lat="45.18894" lon="5.9846">
        <ele>2726.2</ele>
        <time>2021-04-17T10:51:32Z</time>
      </trkpt>
      <trkpt lat="45.18894" lon="5.9846">
        <ele>2726.6</ele>
        <time>2021-04-17T10:51:34Z</time>
      </trkpt>
      <trkpt lat="45.18893" lon="5.9846">
        <ele>2727.4</ele>
        <time>2021-04-17T10:51:38Z</time>
      </trkpt>
      <trkpt lat="45.18893" lon="5.9846">
        <ele>2728</ele>
        <time>2021-04-17T10:51:43Z</time>
      </trkpt>
      <trkpt lat="45.18892" lon="5.9846">
        <ele>2728.6</ele>
        <time>2021-04-17T10:51:48Z</time>
      </trkpt>
      <trkpt lat="45.18891" lon="5.9846">
        <ele>2729.4</ele>
        <time>2021-04-17T10:51:54Z</time>
      </trkpt>
      <trkpt lat="45.18891" lon="5.9846">
        <ele>2729.4</ele>
        <time>2021-04-17T10:52:00Z</time>
      </trkpt>
      <trkpt lat="45.18891" lon="5.9846">
        <ele>2729.6</ele>
        <time>2021-04-17T10:52:01Z</time>
      </trkpt>
      <trkpt lat="45.1889" lon="5.9846">
        <ele>2730.2</ele>
        <time>2021-04-17T10:52:04Z</time>
      </trkpt>
      <trkpt lat="45.1889" lon="5.9846">
        <ele>2730.6</ele>
        <time>2021-04-17T10:52:07Z</time>
      </trkpt>
      <trkpt lat="45.18889" lon="5.9846">
        <ele>2731</ele>
        <time>2021-04-17T10:52:13Z</time>
      </trkpt>
      <trkpt lat="45.18889" lon="5.9846">
        <ele>2731.6</ele>
        <time>2021-04-17T10:52:18Z</time>
      </trkpt>
      <trkpt lat="45.18888" lon="5.9846">
        <ele>2732.4</ele>
        <time>2021-04-17T10:52:24Z</time>
      </trkpt>
      <trkpt lat="45.18874" lon="5.9846">
        <ele>2732.8</ele>
        <time>2021-04-17T10:52:26Z</time>
      </trkpt>
      <trkpt lat="45.18857" lon="5.98461">
        <ele>2733.8</ele>
        <time>2021-04-17T10:52:30Z</time>
      </trkpt>
      <trkpt lat="45.18851" lon="5.98461">
        <ele>2734</ele>
        <time>2021-04-17T10:52:31Z</time>
      </trkpt>
      <trkpt lat="45.18828" lon="5.9846">
        <ele>2734.8</ele>
        <time>2021-04-17T10:52:35Z</time>
      </trkpt>
      <trkpt lat="45.18816" lon="5.98459">
        <ele>2735.8</ele>
        <time>2021-04-17T10:52:40Z</time>
      </trkpt>
      <trkpt lat="45.18815" lon="5.98459">
        <ele>2735.8</ele>
        <time>2021-04-17T10:52:41Z</time>
      </trkpt>
      <trkpt lat="45.18815" lon="5.98459">
        <ele>2736</ele>
        <time>2021-04-17T10:52:42Z</time>
      </trkpt>
      <trkpt lat="45.18814" lon="5.98459">
        <ele>2737</ele>
        <time>2021-04-17T10:52:47Z</time>
      </trkpt>
      <trkpt lat="45.18812" lon="5.98458">
        <ele>2738.4</ele>
        <time>2021-04-17T10:52:53Z</time>
      </trkpt>
      <trkpt lat="45.18811" lon="5.9846">
        <ele>2739.2</ele>
        <time>2021-04-17T10:52:57Z</time>
      </trkpt>
      <trkpt lat="45.1881" lon="5.9846">
        <ele>2739.4</ele>
        <time>2021-04-17T10:52:58Z</time>
      </trkpt>
      <trkpt lat="45.18809" lon="5.9846">
        <ele>2739.4</ele>
        <time>2021-04-17T10:53:04Z</time>
      </trkpt>
      <trkpt lat="45.18809" lon="5.9846">
        <ele>2739.4</ele>
        <time>2021-04-17T10:53:06Z</time>
      </trkpt>
      <trkpt lat="45.18809" lon="5.9846">
        <ele>2739</ele>
        <time>2021-04-17T10:53:12Z</time>
      </trkpt>
      <trkpt lat="45.1881" lon="5.98459">
        <ele>2739</ele>
        <time>2021-04-17T10:53:18Z</time>
      </trkpt>
      <trkpt lat="45.1881" lon="5.98459">
        <ele>2739.2</ele>
        <time>2021-04-17T10:53:21Z</time>
      </trkpt>
      <trkpt lat="45.1881" lon="5.98459">
        <ele>2739.2</ele>
        <time>2021-04-17T10:53:23Z</time>
      </trkpt>
      <trkpt lat="45.1881" lon="5.98459">
        <ele>2739</ele>
        <time>2021-04-17T10:53:25Z</time>
      </trkpt>
      <trkpt lat="45.1881" lon="5.98459">
        <ele>2739</ele>
        <time>2021-04-17T10:53:26Z</time>
      </trkpt>
      <trkpt lat="45.18809" lon="5.98458">
        <ele>2739</ele>
        <time>2021-04-17T10:53:29Z</time>
      </trkpt>
      <trkpt lat="45.18809" lon="5.98458">
        <ele>2739</ele>
        <time>2021-04-17T10:53:32Z</time>
      </trkpt>
      <trkpt lat="45.18809" lon="5.98458">
        <ele>2739.2</ele>
        <time>2021-04-17T10:53:33Z</time>
      </trkpt>
      <trkpt lat="45.18808" lon="5.98458">
        <ele>2739</ele>
        <time>2021-04-17T10:53:36Z</time>
      </trkpt>
      <trkpt lat="45.18807" lon="5.98458">
        <ele>2739.2</ele>
        <time>2021-04-17T10:53:37Z</time>
      </trkpt>
      <trkpt lat="45.18806" lon="5.98458">
        <ele>2739.2</ele>
        <time>2021-04-17T10:53:39Z</time>
      </trkpt>
      <trkpt lat="45.18805" lon="5.98458">
        <ele>2739.4</ele>
        <time>2021-04-17T10:53:45Z</time>
      </trkpt>
      <trkpt lat="45.18804" lon="5.98458">
        <ele>2739.4</ele>
        <time>2021-04-17T10:53:51Z</time>
      </trkpt>
      <trkpt lat="45.18804" lon="5.98457">
        <ele>2739.4</ele>
        <time>2021-04-17T10:53:52Z</time>
      </trkpt>
      <trkpt lat="45.18804" lon="5.98457">
        <ele>2739.4</ele>
        <time>2021-04-17T10:53:53Z</time>
      </trkpt>
      <trkpt lat="45.18804" lon="5.98457">
        <ele>2739.6</ele>
        <time>2021-04-17T10:53:55Z</time>
      </trkpt>
      <trkpt lat="45.18803" lon="5.98457">
        <ele>2739.6</ele>
        <time>2021-04-17T10:53:59Z</time>
      </trkpt>
      <trkpt lat="45.18803" lon="5.98457">
        <ele>2739.6</ele>
        <time>2021-04-17T10:54:00Z</time>
      </trkpt>
      <trkpt lat="45.18803" lon="5.98457">
        <ele>2739.6</ele>
        <time>2021-04-17T10:54:01Z</time>
      </trkpt>
      <trkpt lat="45.18803" lon="5.98457">
        <ele>2739.8</ele>
        <time>2021-04-17T10:54:07Z</time>
      </trkpt>
      <trkpt lat="45.18802" lon="5.98457">
        <ele>2739.6</ele>
        <time>2021-04-17T10:54:12Z</time>
      </trkpt>
      <trkpt lat="45.18802" lon="5.98457">
        <ele>2739.6</ele>
        <time>2021-04-17T10:54:14Z</time>
      </trkpt>
      <trkpt lat="45.18802" lon="5.98457">
        <ele>2739.6</ele>
        <time>2021-04-17T10:54:15Z</time>
      </trkpt>
      <trkpt lat="45.18802" lon="5.98457">
        <ele>2739.6</ele>
        <time>2021-04-17T10:54:16Z</time>
      </trkpt>
      <trkpt lat="45.18802" lon="5.98457">
        <ele>2739.6</ele>
        <time>2021-04-17T10:54:17Z</time>
      </trkpt>
      <trkpt lat="45.18801" lon="5.98457">
        <ele>2739.4</ele>
        <time>2021-04-17T10:54:23Z</time>
      </trkpt>
      <trkpt lat="45.18801" lon="5.98457">
        <ele>2739.4</ele>
        <time>2021-04-17T10:54:29Z</time>
      </trkpt>
      <trkpt lat="45.18801" lon="5.98457">
        <ele>2739.4</ele>
        <time>2021-04-17T10:54:33Z</time>
      </trkpt>
      <trkpt lat="45.18801" lon="5.98457">
        <ele>2739.4</ele>
        <time>2021-04-17T10:54:39Z</time>
      </trkpt>
      <trkpt lat="45.18801" lon="5.98457">
        <ele>2739.4</ele>
        <time>2021-04-17T10:54:40Z</time>
      </trkpt>
      <trkpt lat="45.18801" lon="5.98457">
        <ele>2739.4</ele>
        <time>2021-04-17T10:54:42Z</time>
      </trkpt>
      <trkpt lat="45.18801" lon="5.98457">
        <ele>2739.4</ele>
        <time>2021-04-17T10:54:44Z</time>
      </trkpt>
      <trkpt lat="45.18801" lon="5.98457">
        <ele>2739.4</ele>
        <time>2021-04-17T10:54:46Z</time>
      </trkpt>
      <trkpt lat="45.18801" lon="5.98457">
        <ele>2739.4</ele>
        <time>2021-04-17T10:54:48Z</time>
      </trkpt>
      <trkpt lat="45.18801" lon="5.98456">
        <ele>2739.4</ele>
        <time>2021-04-17T10:54:49Z</time>
      </trkpt>
      <trkpt lat="45.18801" lon="5.98456">
        <ele>2739.4</ele>
        <time>2021-04-17T10:54:51Z</time>
      </trkpt>
      <trkpt lat="45.18801" lon="5.98456">
        <ele>2739.4</ele>
        <time>2021-04-17T10:54:52Z</time>
      </trkpt>
      <trkpt lat="45.18801" lon="5.98456">
        <ele>2739.4</ele>
        <time>2021-04-17T10:54:53Z</time>
      </trkpt>
      <trkpt lat="45.18801" lon="5.98456">
        <ele>2739.4</ele>
        <time>2021-04-17T10:54:54Z</time>
      </trkpt>
      <trkpt lat="45.18801" lon="5.98456">
        <ele>2739.4</ele>
        <time>2021-04-17T10:54:56Z</time>
      </trkpt>
      <trkpt lat="45.18801" lon="5.98456">
        <ele>2739.4</ele>
        <time>2021-04-17T10:55:02Z</time>
      </trkpt>
      <trkpt lat="45.188" lon="5.98456">
        <ele>2739.4</ele>
        <time>2021-04-17T10:55:08Z</time>
      </trkpt>
      <trkpt lat="45.188" lon="5.98456">
        <ele>2739.4</ele>
        <time>2021-04-17T10:55:09Z</time>
      </trkpt>
      <trkpt lat="45.188" lon="5.98456">
        <ele>2739.4</ele>
        <time>2021-04-17T10:55:10Z</time>
      </trkpt>
      <trkpt lat="45.18799" lon="5.98456">
        <ele>2739.4</ele>
        <time>2021-04-17T10:55:11Z</time>
      </trkpt>
      <trkpt lat="45.18799" lon="5.98456">
        <ele>2739.4</ele>
        <time>2021-04-17T10:55:12Z</time>
      </trkpt>
      <trkpt lat="45.18799" lon="5.98456">
        <ele>2739.4</ele>
        <time>2021-04-17T10:55:13Z</time>
      </trkpt>
      <trkpt lat="45.18799" lon="5.98456">
        <ele>2739.4</ele>
        <time>2021-04-17T10:55:15Z</time>
      </trkpt>
      <trkpt lat="45.18798" lon="5.98456">
        <ele>2739.4</ele>
        <time>2021-04-17T10:55:16Z</time>
      </trkpt>
      <trkpt lat="45.18798" lon="5.98456">
        <ele>2739.4</ele>
        <time>2021-04-17T10:55:17Z</time>
      </trkpt>
      <trkpt lat="45.18798" lon="5.98456">
        <ele>2739.4</ele>
        <time>2021-04-17T10:55:23Z</time>
      </trkpt>
      <trkpt lat="45.18798" lon="5.98456">
        <ele>2739.4</ele>
        <time>2021-04-17T10:55:27Z</time>
      </trkpt>
      <trkpt lat="45.18798" lon="5.98456">
        <ele>2739.4</ele>
        <time>2021-04-17T10:55:30Z</time>
      </trkpt>
      <trkpt lat="45.18798" lon="5.98456">
        <ele>2739.4</ele>
        <time>2021-04-17T10:55:33Z</time>
      </trkpt>
      <trkpt lat="45.18798" lon="5.98456">
        <ele>2739.4</ele>
        <time>2021-04-17T10:55:34Z</time>
      </trkpt>
      <trkpt lat="45.18798" lon="5.98456">
        <ele>2739.4</ele>
        <time>2021-04-17T10:55:35Z</time>
      </trkpt>
      <trkpt lat="45.18798" lon="5.98456">
        <ele>2739.4</ele>
        <time>2021-04-17T10:55:36Z</time>
      </trkpt>
      <trkpt lat="45.18798" lon="5.98456">
        <ele>2739.4</ele>
        <time>2021-04-17T10:55:38Z</time>
      </trkpt>
      <trkpt lat="45.18799" lon="5.98456">
        <ele>2739.4</ele>
        <time>2021-04-17T10:55:44Z</time>
      </trkpt>
      <trkpt lat="45.18799" lon="5.98456">
        <ele>2739.4</ele>
        <time>2021-04-17T10:55:50Z</time>
      </trkpt>
      <trkpt lat="45.18799" lon="5.98456">
        <ele>2739.4</ele>
        <time>2021-04-17T10:55:51Z</time>
      </trkpt>
      <trkpt lat="45.18799" lon="5.98456">
        <ele>2739.4</ele>
        <time>2021-04-17T10:55:55Z</time>
      </trkpt>
      <trkpt lat="45.18799" lon="5.98456">
        <ele>2739.4</ele>
        <time>2021-04-17T10:56:00Z</time>
      </trkpt>
      <trkpt lat="45.18799" lon="5.98456">
        <ele>2739.4</ele>
        <time>2021-04-17T10:56:01Z</time>
      </trkpt>
      <trkpt lat="45.18799" lon="5.98456">
        <ele>2739.4</ele>
        <time>2021-04-17T10:56:02Z</time>
      </trkpt>
      <trkpt lat="45.18799" lon="5.98457">
        <ele>2739.4</ele>
        <time>2021-04-17T10:56:04Z</time>
      </trkpt>
      <trkpt lat="45.18799" lon="5.98457">
        <ele>2739.4</ele>
        <time>2021-04-17T10:56:05Z</time>
      </trkpt>
      <trkpt lat="45.18798" lon="5.98457">
        <ele>2739.4</ele>
        <time>2021-04-17T10:56:08Z</time>
      </trkpt>
      <trkpt lat="45.18798" lon="5.98457">
        <ele>2739.4</ele>
        <time>2021-04-17T10:56:09Z</time>
      </trkpt>
      <trkpt lat="45.18798" lon="5.98457">
        <ele>2739.4</ele>
        <time>2021-04-17T10:56:11Z</time>
      </trkpt>
      <trkpt lat="45.18798" lon="5.98457">
        <ele>2739.4</ele>
        <time>2021-04-17T10:56:12Z</time>
      </trkpt>
      <trkpt lat="45.18798" lon="5.98457">
        <ele>2739.4</ele>
        <time>2021-04-17T10:56:15Z</time>
      </trkpt>
      <trkpt lat="45.18798" lon="5.98457">
        <ele>2739.4</ele>
        <time>2021-04-17T10:56:16Z</time>
      </trkpt>
      <trkpt lat="45.18798" lon="5.98457">
        <ele>2739.4</ele>
        <time>2021-04-17T10:56:22Z</time>
      </trkpt>
      <trkpt lat="45.18798" lon="5.98457">
        <ele>2739.4</ele>
        <time>2021-04-17T10:56:25Z</time>
      </trkpt>
      <trkpt lat="45.18798" lon="5.98457">
        <ele>2739.4</ele>
        <time>2021-04-17T10:56:28Z</time>
      </trkpt>
      <trkpt lat="45.18798" lon="5.98457">
        <ele>2739.4</ele>
        <time>2021-04-17T10:56:34Z</time>
      </trkpt>
      <trkpt lat="45.18798" lon="5.98457">
        <ele>2739.4</ele>
        <time>2021-04-17T10:56:35Z</time>
      </trkpt>
      <trkpt lat="45.18798" lon="5.98457">
        <ele>2739.4</ele>
        <time>2021-04-17T10:56:37Z</time>
      </trkpt>
      <trkpt lat="45.18798" lon="5.98457">
        <ele>2739.4</ele>
        <time>2021-04-17T10:56:41Z</time>
      </trkpt>
      <trkpt lat="45.18798" lon="5.98457">
        <ele>2739.4</ele>
        <time>2021-04-17T10:56:42Z</time>
      </trkpt>
      <trkpt lat="45.18798" lon="5.98457">
        <ele>2739.4</ele>
        <time>2021-04-17T10:56:45Z</time>
      </trkpt>
      <trkpt lat="45.18798" lon="5.98457">
        <ele>2739.4</ele>
        <time>2021-04-17T10:56:47Z</time>
      </trkpt>
      <trkpt lat="45.18798" lon="5.98457">
        <ele>2739.4</ele>
        <time>2021-04-17T10:56:48Z</time>
      </trkpt>
      <trkpt lat="45.18798" lon="5.98457">
        <ele>2739.4</ele>
        <time>2021-04-17T10:56:50Z</time>
      </trkpt>
      <trkpt lat="45.18798" lon="5.98457">
        <ele>2739.4</ele>
        <time>2021-04-17T10:56:51Z</time>
      </trkpt>
      <trkpt lat="45.18798" lon="5.98457">
        <ele>2739.4</ele>
        <time>2021-04-17T10:56:54Z</time>
      </trkpt>
      <trkpt lat="45.18798" lon="5.98457">
        <ele>2739.4</ele>
        <time>2021-04-17T10:56:59Z</time>
      </trkpt>
      <trkpt lat="45.18798" lon="5.98457">
        <ele>2739.4</ele>
        <time>2021-04-17T10:57:02Z</time>
      </trkpt>
      <trkpt lat="45.18798" lon="5.98457">
        <ele>2739.4</ele>
        <time>2021-04-17T10:57:03Z</time>
      </trkpt>
      <trkpt lat="45.18798" lon="5.98457">
        <ele>2739.4</ele>
        <time>2021-04-17T10:57:04Z</time>
      </trkpt>
      <trkpt lat="45.18798" lon="5.98457">
        <ele>2739.4</ele>
        <time>2021-04-17T10:57:05Z</time>
      </trkpt>
      <trkpt lat="45.18798" lon="5.98457">
        <ele>2739.4</ele>
        <time>2021-04-17T10:57:08Z</time>
      </trkpt>
      <trkpt lat="45.18798" lon="5.98457">
        <ele>2739.4</ele>
        <time>2021-04-17T10:57:10Z</time>
      </trkpt>
      <trkpt lat="45.18798" lon="5.98457">
        <ele>2739.4</ele>
        <time>2021-04-17T10:57:12Z</time>
      </trkpt>
      <trkpt lat="45.18798" lon="5.98457">
        <ele>2739.4</ele>
        <time>2021-04-17T10:57:15Z</time>
      </trkpt>
      <trkpt lat="45.18798" lon="5.98457">
        <ele>2739.4</ele>
        <time>2021-04-17T10:57:16Z</time>
      </trkpt>
      <trkpt lat="45.18798" lon="5.98457">
        <ele>2739.4</ele>
        <time>2021-04-17T10:57:18Z</time>
      </trkpt>
      <trkpt lat="45.18798" lon="5.98457">
        <ele>2739.4</ele>
        <time>2021-04-17T10:57:19Z</time>
      </trkpt>
      <trkpt lat="45.18798" lon="5.98457">
        <ele>2739.4</ele>
        <time>2021-04-17T10:57:23Z</time>
      </trkpt>
      <trkpt lat="45.18798" lon="5.98457">
        <ele>2739.4</ele>
        <time>2021-04-17T10:57:24Z</time>
      </trkpt>
      <trkpt lat="45.18798" lon="5.98457">
        <ele>2739.4</ele>
        <time>2021-04-17T10:57:29Z</time>
      </trkpt>
      <trkpt lat="45.18798" lon="5.98457">
        <ele>2739.4</ele>
        <time>2021-04-17T10:57:35Z</time>
      </trkpt>
      <trkpt lat="45.18798" lon="5.98457">
        <ele>2739.4</ele>
        <time>2021-04-17T10:57:37Z</time>
      </trkpt>
      <trkpt lat="45.18798" lon="5.98457">
        <ele>2739.4</ele>
        <time>2021-04-17T10:57:38Z</time>
      </trkpt>
      <trkpt lat="45.18798" lon="5.98457">
        <ele>2739.4</ele>
        <time>2021-04-17T10:57:39Z</time>
      </trkpt>
      <trkpt lat="45.18798" lon="5.98457">
        <ele>2739.4</ele>
        <time>2021-04-17T10:57:40Z</time>
      </trkpt>
      <trkpt lat="45.18798" lon="5.98457">
        <ele>2739.4</ele>
        <time>2021-04-17T10:57:41Z</time>
      </trkpt>
      <trkpt lat="45.18798" lon="5.98457">
        <ele>2739.4</ele>
        <time>2021-04-17T10:57:44Z</time>
      </trkpt>
      <trkpt lat="45.18798" lon="5.98457">
        <ele>2739.4</ele>
        <time>2021-04-17T10:57:46Z</time>
      </trkpt>
      <trkpt lat="45.18798" lon="5.98457">
        <ele>2739.4</ele>
        <time>2021-04-17T10:57:52Z</time>
      </trkpt>
      <trkpt lat="45.18798" lon="5.98457">
        <ele>2739.4</ele>
        <time>2021-04-17T10:57:58Z</time>
      </trkpt>
      <trkpt lat="45.18798" lon="5.98457">
        <ele>2739.4</ele>
        <time>2021-04-17T10:58:01Z</time>
      </trkpt>
      <trkpt lat="45.18798" lon="5.98457">
        <ele>2739.4</ele>
        <time>2021-04-17T10:58:02Z</time>
      </trkpt>
      <trkpt lat="45.18798" lon="5.98457">
        <ele>2739.4</ele>
        <time>2021-04-17T10:58:03Z</time>
      </trkpt>
      <trkpt lat="45.18798" lon="5.98457">
        <ele>2739.4</ele>
        <time>2021-04-17T10:58:04Z</time>
      </trkpt>
      <trkpt lat="45.18798" lon="5.98457">
        <ele>2739.4</ele>
        <time>2021-04-17T10:58:09Z</time>
      </trkpt>
      <trkpt lat="45.18798" lon="5.98457">
        <ele>2739.4</ele>
        <time>2021-04-17T10:58:11Z</time>
      </trkpt>
      <trkpt lat="45.18798" lon="5.98457">
        <ele>2739.4</ele>
        <time>2021-04-17T10:58:12Z</time>
      </trkpt>
      <trkpt lat="45.18798" lon="5.98457">
        <ele>2739.4</ele>
        <time>2021-04-17T10:58:18Z</time>
      </trkpt>
      <trkpt lat="45.18798" lon="5.98457">
        <ele>2739.4</ele>
        <time>2021-04-17T10:58:21Z</time>
      </trkpt>
      <trkpt lat="45.18798" lon="5.98457">
        <ele>2739.4</ele>
        <time>2021-04-17T10:58:22Z</time>
      </trkpt>
      <trkpt lat="45.18798" lon="5.98457">
        <ele>2739.4</ele>
        <time>2021-04-17T10:58:23Z</time>
      </trkpt>
      <trkpt lat="45.18798" lon="5.98457">
        <ele>2739.4</ele>
        <time>2021-04-17T10:58:24Z</time>
      </trkpt>
      <trkpt lat="45.18798" lon="5.98457">
        <ele>2739.4</ele>
        <time>2021-04-17T10:58:26Z</time>
      </trkpt>
      <trkpt lat="45.18798" lon="5.98457">
        <ele>2739.4</ele>
        <time>2021-04-17T10:58:29Z</time>
      </trkpt>
      <trkpt lat="45.18798" lon="5.98457">
        <ele>2739.4</ele>
        <time>2021-04-17T10:58:35Z</time>
      </trkpt>
      <trkpt lat="45.18798" lon="5.98457">
        <ele>2739.4</ele>
        <time>2021-04-17T10:58:38Z</time>
      </trkpt>
      <trkpt lat="45.18798" lon="5.98457">
        <ele>2739.4</ele>
        <time>2021-04-17T10:58:40Z</time>
      </trkpt>
      <trkpt lat="45.18798" lon="5.98458">
        <ele>2739.4</ele>
        <time>2021-04-17T10:58:46Z</time>
      </trkpt>
      <trkpt lat="45.18798" lon="5.98458">
        <ele>2739.4</ele>
        <time>2021-04-17T10:58:52Z</time>
      </trkpt>
      <trkpt lat="45.18798" lon="5.98458">
        <ele>2739.4</ele>
        <time>2021-04-17T10:58:54Z</time>
      </trkpt>
      <trkpt lat="45.18798" lon="5.98458">
        <ele>2739.4</ele>
        <time>2021-04-17T10:58:59Z</time>
      </trkpt>
      <trkpt lat="45.18798" lon="5.98458">
        <ele>2739.4</ele>
        <time>2021-04-17T10:59:02Z</time>
      </trkpt>
      <trkpt lat="45.18798" lon="5.98458">
        <ele>2739.4</ele>
        <time>2021-04-17T10:59:03Z</time>
      </trkpt>
      <trkpt lat="45.18798" lon="5.98458">
        <ele>2739.4</ele>
        <time>2021-04-17T10:59:05Z</time>
      </trkpt>
      <trkpt lat="45.18798" lon="5.98458">
        <ele>2739.4</ele>
        <time>2021-04-17T10:59:06Z</time>
      </trkpt>
      <trkpt lat="45.18798" lon="5.98458">
        <ele>2739.4</ele>
        <time>2021-04-17T10:59:07Z</time>
      </trkpt>
      <trkpt lat="45.18798" lon="5.98458">
        <ele>2739.4</ele>
        <time>2021-04-17T10:59:10Z</time>
      </trkpt>
      <trkpt lat="45.18798" lon="5.98458">
        <ele>2739.4</ele>
        <time>2021-04-17T10:59:11Z</time>
      </trkpt>
      <trkpt lat="45.18798" lon="5.98458">
        <ele>2739.4</ele>
        <time>2021-04-17T10:59:12Z</time>
      </trkpt>
      <trkpt lat="45.18798" lon="5.98458">
        <ele>2739.4</ele>
        <time>2021-04-17T10:59:18Z</time>
      </trkpt>
      <trkpt lat="45.18798" lon="5.98458">
        <ele>2739.4</ele>
        <time>2021-04-17T10:59:24Z</time>
      </trkpt>
      <trkpt lat="45.18798" lon="5.98458">
        <ele>2739.4</ele>
        <time>2021-04-17T10:59:26Z</time>
      </trkpt>
      <trkpt lat="45.18798" lon="5.98458">
        <ele>2739.4</ele>
        <time>2021-04-17T10:59:32Z</time>
      </trkpt>
      <trkpt lat="45.18798" lon="5.98458">
        <ele>2739.4</ele>
        <time>2021-04-17T10:59:37Z</time>
      </trkpt>
      <trkpt lat="45.18798" lon="5.98458">
        <ele>2739.4</ele>
        <time>2021-04-17T10:59:41Z</time>
      </trkpt>
      <trkpt lat="45.18798" lon="5.98458">
        <ele>2739.4</ele>
        <time>2021-04-17T10:59:45Z</time>
      </trkpt>
      <trkpt lat="45.18798" lon="5.98458">
        <ele>2739.4</ele>
        <time>2021-04-17T10:59:46Z</time>
      </trkpt>
      <trkpt lat="45.18798" lon="5.98458">
        <ele>2739.4</ele>
        <time>2021-04-17T10:59:47Z</time>
      </trkpt>
      <trkpt lat="45.18798" lon="5.98458">
        <ele>2739.4</ele>
        <time>2021-04-17T10:59:53Z</time>
      </trkpt>
      <trkpt lat="45.18798" lon="5.98458">
        <ele>2739.4</ele>
        <time>2021-04-17T10:59:58Z</time>
      </trkpt>
      <trkpt lat="45.18798" lon="5.98458">
        <ele>2739.4</ele>
        <time>2021-04-17T11:00:02Z</time>
      </trkpt>
      <trkpt lat="45.18798" lon="5.98458">
        <ele>2739.4</ele>
        <time>2021-04-17T11:00:06Z</time>
      </trkpt>
      <trkpt lat="45.18798" lon="5.98458">
        <ele>2739.4</ele>
        <time>2021-04-17T11:00:12Z</time>
      </trkpt>
      <trkpt lat="45.18799" lon="5.98458">
        <ele>2739.4</ele>
        <time>2021-04-17T11:00:18Z</time>
      </trkpt>
      <trkpt lat="45.18799" lon="5.98458">
        <ele>2739.4</ele>
        <time>2021-04-17T11:00:21Z</time>
      </trkpt>
      <trkpt lat="45.18799" lon="5.98458">
        <ele>2739.4</ele>
        <time>2021-04-17T11:00:27Z</time>
      </trkpt>
      <trkpt lat="45.18799" lon="5.98458">
        <ele>2739.4</ele>
        <time>2021-04-17T11:00:30Z</time>
      </trkpt>
      <trkpt lat="45.18799" lon="5.98458">
        <ele>2739.4</ele>
        <time>2021-04-17T11:00:34Z</time>
      </trkpt>
      <trkpt lat="45.18799" lon="5.98458">
        <ele>2739.4</ele>
        <time>2021-04-17T11:00:36Z</time>
      </trkpt>
      <trkpt lat="45.18799" lon="5.98458">
        <ele>2739.4</ele>
        <time>2021-04-17T11:00:39Z</time>
      </trkpt>
      <trkpt lat="45.18799" lon="5.98458">
        <ele>2739.4</ele>
        <time>2021-04-17T11:00:40Z</time>
      </trkpt>
      <trkpt lat="45.18799" lon="5.98458">
        <ele>2739.4</ele>
        <time>2021-04-17T11:00:42Z</time>
      </trkpt>
      <trkpt lat="45.18799" lon="5.98458">
        <ele>2739.4</ele>
        <time>2021-04-17T11:00:48Z</time>
      </trkpt>
      <trkpt lat="45.18799" lon="5.98458">
        <ele>2739.4</ele>
        <time>2021-04-17T11:00:53Z</time>
      </trkpt>
      <trkpt lat="45.18799" lon="5.98458">
        <ele>2739.4</ele>
        <time>2021-04-17T11:00:59Z</time>
      </trkpt>
      <trkpt lat="45.18799" lon="5.98458">
        <ele>2739.4</ele>
        <time>2021-04-17T11:01:03Z</time>
      </trkpt>
      <trkpt lat="45.18799" lon="5.98458">
        <ele>2739.4</ele>
        <time>2021-04-17T11:01:09Z</time>
      </trkpt>
      <trkpt lat="45.18799" lon="5.98458">
        <ele>2739.4</ele>
        <time>2021-04-17T11:01:15Z</time>
      </trkpt>
      <trkpt lat="45.18799" lon="5.98458">
        <ele>2739.4</ele>
        <time>2021-04-17T11:01:17Z</time>
      </trkpt>
      <trkpt lat="45.18799" lon="5.98458">
        <ele>2739.4</ele>
        <time>2021-04-17T11:01:20Z</time>
      </trkpt>
      <trkpt lat="45.18799" lon="5.98458">
        <ele>2739.4</ele>
        <time>2021-04-17T11:01:23Z</time>
      </trkpt>
      <trkpt lat="45.18799" lon="5.98458">
        <ele>2739.4</ele>
        <time>2021-04-17T11:01:25Z</time>
      </trkpt>
      <trkpt lat="45.18799" lon="5.98458">
        <ele>2739.4</ele>
        <time>2021-04-17T11:01:27Z</time>
      </trkpt>
      <trkpt lat="45.18799" lon="5.98458">
        <ele>2739.4</ele>
        <time>2021-04-17T11:01:30Z</time>
      </trkpt>
      <trkpt lat="45.18799" lon="5.98458">
        <ele>2739.4</ele>
        <time>2021-04-17T11:01:34Z</time>
      </trkpt>
      <trkpt lat="45.18799" lon="5.98458">
        <ele>2739.4</ele>
        <time>2021-04-17T11:01:35Z</time>
      </trkpt>
      <trkpt lat="45.18799" lon="5.98458">
        <ele>2739.4</ele>
        <time>2021-04-17T11:01:36Z</time>
      </trkpt>
      <trkpt lat="45.18799" lon="5.98458">
        <ele>2739.4</ele>
        <time>2021-04-17T11:01:38Z</time>
      </trkpt>
      <trkpt lat="45.18799" lon="5.98458">
        <ele>2739.4</ele>
        <time>2021-04-17T11:01:43Z</time>
      </trkpt>
      <trkpt lat="45.18799" lon="5.98458">
        <ele>2739.4</ele>
        <time>2021-04-17T11:01:49Z</time>
      </trkpt>
      <trkpt lat="45.18799" lon="5.98458">
        <ele>2739.4</ele>
        <time>2021-04-17T11:01:51Z</time>
      </trkpt>
      <trkpt lat="45.18799" lon="5.98458">
        <ele>2739.4</ele>
        <time>2021-04-17T11:01:52Z</time>
      </trkpt>
      <trkpt lat="45.18799" lon="5.98458">
        <ele>2739.4</ele>
        <time>2021-04-17T11:01:58Z</time>
      </trkpt>
      <trkpt lat="45.18799" lon="5.98458">
        <ele>2739.4</ele>
        <time>2021-04-17T11:02:04Z</time>
      </trkpt>
      <trkpt lat="45.18799" lon="5.98458">
        <ele>2739.4</ele>
        <time>2021-04-17T11:02:10Z</time>
      </trkpt>
      <trkpt lat="45.18799" lon="5.98458">
        <ele>2739.4</ele>
        <time>2021-04-17T11:02:14Z</time>
      </trkpt>
      <trkpt lat="45.18799" lon="5.98458">
        <ele>2739.4</ele>
        <time>2021-04-17T11:02:16Z</time>
      </trkpt>
      <trkpt lat="45.18799" lon="5.98458">
        <ele>2739.4</ele>
        <time>2021-04-17T11:02:19Z</time>
      </trkpt>
      <trkpt lat="45.18799" lon="5.98458">
        <ele>2739.4</ele>
        <time>2021-04-17T11:02:22Z</time>
      </trkpt>
      <trkpt lat="45.18799" lon="5.98458">
        <ele>2739.4</ele>
        <time>2021-04-17T11:02:24Z</time>
      </trkpt>
      <trkpt lat="45.18799" lon="5.98458">
        <ele>2739.4</ele>
        <time>2021-04-17T11:02:27Z</time>
      </trkpt>
      <trkpt lat="45.18799" lon="5.98457">
        <ele>2739.4</ele>
        <time>2021-04-17T11:02:29Z</time>
      </trkpt>
      <trkpt lat="45.18799" lon="5.98457">
        <ele>2739.4</ele>
        <time>2021-04-17T11:02:30Z</time>
      </trkpt>
      <trkpt lat="45.18799" lon="5.98457">
        <ele>2739.4</ele>
        <time>2021-04-17T11:02:32Z</time>
      </trkpt>
      <trkpt lat="45.18799" lon="5.98457">
        <ele>2739.4</ele>
        <time>2021-04-17T11:02:36Z</time>
      </trkpt>
      <trkpt lat="45.18799" lon="5.98457">
        <ele>2739.4</ele>
        <time>2021-04-17T11:02:39Z</time>
      </trkpt>
      <trkpt lat="45.18799" lon="5.98457">
        <ele>2739.4</ele>
        <time>2021-04-17T11:02:41Z</time>
      </trkpt>
      <trkpt lat="45.18799" lon="5.98457">
        <ele>2739.4</ele>
        <time>2021-04-17T11:02:42Z</time>
      </trkpt>
      <trkpt lat="45.18799" lon="5.98457">
        <ele>2739.4</ele>
        <time>2021-04-17T11:02:43Z</time>
      </trkpt>
      <trkpt lat="45.18799" lon="5.98457">
        <ele>2739.4</ele>
        <time>2021-04-17T11:02:47Z</time>
      </trkpt>
      <trkpt lat="45.18799" lon="5.98457">
        <ele>2739.4</ele>
        <time>2021-04-17T11:02:51Z</time>
      </trkpt>
      <trkpt lat="45.18799" lon="5.98457">
        <ele>2739.4</ele>
        <time>2021-04-17T11:02:52Z</time>
      </trkpt>
      <trkpt lat="45.18799" lon="5.98457">
        <ele>2739.4</ele>
        <time>2021-04-17T11:02:53Z</time>
      </trkpt>
      <trkpt lat="45.18799" lon="5.98457">
        <ele>2739.4</ele>
        <time>2021-04-17T11:02:57Z</time>
      </trkpt>
      <trkpt lat="45.18799" lon="5.98457">
        <ele>2739.4</ele>
        <time>2021-04-17T11:02:58Z</time>
      </trkpt>
      <trkpt lat="45.18799" lon="5.98457">
        <ele>2739.4</ele>
        <time>2021-04-17T11:03:00Z</time>
      </trkpt>
      <trkpt lat="45.18799" lon="5.98457">
        <ele>2739.4</ele>
        <time>2021-04-17T11:03:05Z</time>
      </trkpt>
      <trkpt lat="45.18799" lon="5.98457">
        <ele>2739.4</ele>
        <time>2021-04-17T11:03:07Z</time>
      </trkpt>
      <trkpt lat="45.18799" lon="5.98457">
        <ele>2739.4</ele>
        <time>2021-04-17T11:03:08Z</time>
      </trkpt>
      <trkpt lat="45.18799" lon="5.98457">
        <ele>2739.4</ele>
        <time>2021-04-17T11:03:10Z</time>
      </trkpt>
      <trkpt lat="45.18799" lon="5.98457">
        <ele>2739.4</ele>
        <time>2021-04-17T11:03:13Z</time>
      </trkpt>
      <trkpt lat="45.18799" lon="5.98457">
        <ele>2739.4</ele>
        <time>2021-04-17T11:03:14Z</time>
      </trkpt>
      <trkpt lat="45.18799" lon="5.98457">
        <ele>2739.4</ele>
        <time>2021-04-17T11:03:15Z</time>
      </trkpt>
      <trkpt lat="45.18799" lon="5.98457">
        <ele>2739.4</ele>
        <time>2021-04-17T11:03:16Z</time>
      </trkpt>
      <trkpt lat="45.18799" lon="5.98457">
        <ele>2739.4</ele>
        <time>2021-04-17T11:03:17Z</time>
      </trkpt>
      <trkpt lat="45.18799" lon="5.98457">
        <ele>2739.4</ele>
        <time>2021-04-17T11:03:18Z</time>
      </trkpt>
      <trkpt lat="45.18799" lon="5.98457">
        <ele>2739.4</ele>
        <time>2021-04-17T11:03:20Z</time>
      </trkpt>
      <trkpt lat="45.18799" lon="5.98457">
        <ele>2739.4</ele>
        <time>2021-04-17T11:03:22Z</time>
      </trkpt>
      <trkpt lat="45.18799" lon="5.98457">
        <ele>2739.4</ele>
        <time>2021-04-17T11:03:23Z</time>
      </trkpt>
      <trkpt lat="45.18799" lon="5.98457">
        <ele>2739.4</ele>
        <time>2021-04-17T11:03:25Z</time>
      </trkpt>
      <trkpt lat="45.188" lon="5.98456">
        <ele>2739.4</ele>
        <time>2021-04-17T11:03:27Z</time>
      </trkpt>
      <trkpt lat="45.18801" lon="5.98452">
        <ele>2739.4</ele>
        <time>2021-04-17T11:03:29Z</time>
      </trkpt>
      <trkpt lat="45.18803" lon="5.98447">
        <ele>2739.4</ele>
        <time>2021-04-17T11:03:32Z</time>
      </trkpt>
      <trkpt lat="45.18803" lon="5.98446">
        <ele>2739.4</ele>
        <time>2021-04-17T11:03:33Z</time>
      </trkpt>
      <trkpt lat="45.18804" lon="5.98441">
        <ele>2739.4</ele>
        <time>2021-04-17T11:03:39Z</time>
      </trkpt>
      <trkpt lat="45.18804" lon="5.98442">
        <ele>2739.4</ele>
        <time>2021-04-17T11:03:42Z</time>
      </trkpt>
      <trkpt lat="45.18804" lon="5.98442">
        <ele>2739.4</ele>
        <time>2021-04-17T11:03:43Z</time>
      </trkpt>
      <trkpt lat="45.18804" lon="5.98442">
        <ele>2739.4</ele>
        <time>2021-04-17T11:03:44Z</time>
      </trkpt>
      <trkpt lat="45.18804" lon="5.98442">
        <ele>2739.4</ele>
        <time>2021-04-17T11:03:50Z</time>
      </trkpt>
      <trkpt lat="45.18804" lon="5.98442">
        <ele>2739.4</ele>
        <time>2021-04-17T11:03:51Z</time>
      </trkpt>
      <trkpt lat="45.18804" lon="5.98442">
        <ele>2739.4</ele>
        <time>2021-04-17T11:03:52Z</time>
      </trkpt>
      <trkpt lat="45.18804" lon="5.98442">
        <ele>2739.4</ele>
        <time>2021-04-17T11:03:53Z</time>
      </trkpt>
      <trkpt lat="45.18804" lon="5.98442">
        <ele>2739.4</ele>
        <time>2021-04-17T11:03:54Z</time>
      </trkpt>
      <trkpt lat="45.18804" lon="5.98442">
        <ele>2739.4</ele>
        <time>2021-04-17T11:03:55Z</time>
      </trkpt>
      <trkpt lat="45.18804" lon="5.98441">
        <ele>2739.4</ele>
        <time>2021-04-17T11:03:58Z</time>
      </trkpt>
      <trkpt lat="45.18804" lon="5.98441">
        <ele>2739.4</ele>
        <time>2021-04-17T11:03:59Z</time>
      </trkpt>
      <trkpt lat="45.18804" lon="5.9844">
        <ele>2739.4</ele>
        <time>2021-04-17T11:04:03Z</time>
      </trkpt>
      <trkpt lat="45.18804" lon="5.9844">
        <ele>2739.4</ele>
        <time>2021-04-17T11:04:09Z</time>
      </trkpt>
      <trkpt lat="45.18804" lon="5.98439">
        <ele>2739.4</ele>
        <time>2021-04-17T11:04:13Z</time>
      </trkpt>
      <trkpt lat="45.18805" lon="5.98437">
        <ele>2739.4</ele>
        <time>2021-04-17T11:04:19Z</time>
      </trkpt>
      <trkpt lat="45.18805" lon="5.98437">
        <ele>2739.4</ele>
        <time>2021-04-17T11:04:22Z</time>
      </trkpt>
      <trkpt lat="45.18805" lon="5.98437">
        <ele>2739.4</ele>
        <time>2021-04-17T11:04:24Z</time>
      </trkpt>
      <trkpt lat="45.18805" lon="5.98437">
        <ele>2739.4</ele>
        <time>2021-04-17T11:04:26Z</time>
      </trkpt>
      <trkpt lat="45.18805" lon="5.98437">
        <ele>2739.4</ele>
        <time>2021-04-17T11:04:28Z</time>
      </trkpt>
      <trkpt lat="45.18805" lon="5.98437">
        <ele>2739.4</ele>
        <time>2021-04-17T11:04:29Z</time>
      </trkpt>
      <trkpt lat="45.18805" lon="5.98437">
        <ele>2739.4</ele>
        <time>2021-04-17T11:04:30Z</time>
      </trkpt>
      <trkpt lat="45.18805" lon="5.98438">
        <ele>2739.4</ele>
        <time>2021-04-17T11:04:33Z</time>
      </trkpt>
      <trkpt lat="45.18805" lon="5.98438">
        <ele>2739.4</ele>
        <time>2021-04-17T11:04:35Z</time>
      </trkpt>
      <trkpt lat="45.18805" lon="5.98439">
        <ele>2739.4</ele>
        <time>2021-04-17T11:04:39Z</time>
      </trkpt>
      <trkpt lat="45.18805" lon="5.98439">
        <ele>2739.4</ele>
        <time>2021-04-17T11:04:43Z</time>
      </trkpt>
      <trkpt lat="45.18805" lon="5.98439">
        <ele>2739.4</ele>
        <time>2021-04-17T11:04:44Z</time>
      </trkpt>
      <trkpt lat="45.18805" lon="5.98439">
        <ele>2739.4</ele>
        <time>2021-04-17T11:04:45Z</time>
      </trkpt>
      <trkpt lat="45.18805" lon="5.98439">
        <ele>2739.4</ele>
        <time>2021-04-17T11:04:46Z</time>
      </trkpt>
      <trkpt lat="45.18805" lon="5.98439">
        <ele>2739.4</ele>
        <time>2021-04-17T11:04:47Z</time>
      </trkpt>
      <trkpt lat="45.18805" lon="5.9844">
        <ele>2739.4</ele>
        <time>2021-04-17T11:04:49Z</time>
      </trkpt>
      <trkpt lat="45.18805" lon="5.9844">
        <ele>2739.4</ele>
        <time>2021-04-17T11:04:53Z</time>
      </trkpt>
      <trkpt lat="45.18805" lon="5.9844">
        <ele>2739.4</ele>
        <time>2021-04-17T11:04:54Z</time>
      </trkpt>
      <trkpt lat="45.18804" lon="5.9844">
        <ele>2739.4</ele>
        <time>2021-04-17T11:04:58Z</time>
      </trkpt>
      <trkpt lat="45.18804" lon="5.9844">
        <ele>2739.4</ele>
        <time>2021-04-17T11:04:59Z</time>
      </trkpt>
      <trkpt lat="45.18803" lon="5.9844">
        <ele>2739.4</ele>
        <time>2021-04-17T11:05:02Z</time>
      </trkpt>
      <trkpt lat="45.18803" lon="5.9844">
        <ele>2739.4</ele>
        <time>2021-04-17T11:05:03Z</time>
      </trkpt>
      <trkpt lat="45.18803" lon="5.9844">
        <ele>2739.4</ele>
        <time>2021-04-17T11:05:04Z</time>
      </trkpt>
      <trkpt lat="45.18803" lon="5.9844">
        <ele>2739.4</ele>
        <time>2021-04-17T11:05:05Z</time>
      </trkpt>
      <trkpt lat="45.18803" lon="5.9844">
        <ele>2739.4</ele>
        <time>2021-04-17T11:05:07Z</time>
      </trkpt>
      <trkpt lat="45.18803" lon="5.9844">
        <ele>2739.4</ele>
        <time>2021-04-17T11:05:08Z</time>
      </trkpt>
      <trkpt lat="45.18803" lon="5.9844">
        <ele>2739.4</ele>
        <time>2021-04-17T11:05:09Z</time>
      </trkpt>
      <trkpt lat="45.18803" lon="5.9844">
        <ele>2739.4</ele>
        <time>2021-04-17T11:05:11Z</time>
      </trkpt>
      <trkpt lat="45.18803" lon="5.9844">
        <ele>2739.4</ele>
        <time>2021-04-17T11:05:12Z</time>
      </trkpt>
      <trkpt lat="45.18803" lon="5.98439">
        <ele>2739.4</ele>
        <time>2021-04-17T11:05:13Z</time>
      </trkpt>
      <trkpt lat="45.18803" lon="5.98439">
        <ele>2739.4</ele>
        <time>2021-04-17T11:05:14Z</time>
      </trkpt>
      <trkpt lat="45.18803" lon="5.98439">
        <ele>2739.4</ele>
        <time>2021-04-17T11:05:15Z</time>
      </trkpt>
      <trkpt lat="45.18803" lon="5.98439">
        <ele>2739.4</ele>
        <time>2021-04-17T11:05:17Z</time>
      </trkpt>
      <trkpt lat="45.18803" lon="5.98438">
        <ele>2739.4</ele>
        <time>2021-04-17T11:05:21Z</time>
      </trkpt>
      <trkpt lat="45.18804" lon="5.98438">
        <ele>2739.4</ele>
        <time>2021-04-17T11:05:23Z</time>
      </trkpt>
      <trkpt lat="45.18804" lon="5.98438">
        <ele>2739.4</ele>
        <time>2021-04-17T11:05:24Z</time>
      </trkpt>
      <trkpt lat="45.18804" lon="5.98438">
        <ele>2739.4</ele>
        <time>2021-04-17T11:05:25Z</time>
      </trkpt>
      <trkpt lat="45.18804" lon="5.98438">
        <ele>2739.4</ele>
        <time>2021-04-17T11:05:27Z</time>
      </trkpt>
      <trkpt lat="45.18804" lon="5.98437">
        <ele>2739.4</ele>
        <time>2021-04-17T11:05:33Z</time>
      </trkpt>
      <trkpt lat="45.18804" lon="5.98437">
        <ele>2739.4</ele>
        <time>2021-04-17T11:05:35Z</time>
      </trkpt>
      <trkpt lat="45.18804" lon="5.98437">
        <ele>2739.4</ele>
        <time>2021-04-17T11:05:37Z</time>
      </trkpt>
      <trkpt lat="45.18804" lon="5.98436">
        <ele>2739.4</ele>
        <time>2021-04-17T11:05:41Z</time>
      </trkpt>
      <trkpt lat="45.18804" lon="5.98436">
        <ele>2739.4</ele>
        <time>2021-04-17T11:05:47Z</time>
      </trkpt>
      <trkpt lat="45.18804" lon="5.98436">
        <ele>2739.4</ele>
        <time>2021-04-17T11:05:49Z</time>
      </trkpt>
      <trkpt lat="45.18804" lon="5.98436">
        <ele>2739.4</ele>
        <time>2021-04-17T11:05:53Z</time>
      </trkpt>
      <trkpt lat="45.18807" lon="5.98438">
        <ele>2739.4</ele>
        <time>2021-04-17T11:05:56Z</time>
      </trkpt>
      <trkpt lat="45.18808" lon="5.9844">
        <ele>2739.4</ele>
        <time>2021-04-17T11:05:57Z</time>
      </trkpt>
      <trkpt lat="45.18812" lon="5.98445">
        <ele>2739.2</ele>
        <time>2021-04-17T11:05:59Z</time>
      </trkpt>
      <trkpt lat="45.18814" lon="5.98447">
        <ele>2738.4</ele>
        <time>2021-04-17T11:06:00Z</time>
      </trkpt>
      <trkpt lat="45.18817" lon="5.98449">
        <ele>2737.8</ele>
        <time>2021-04-17T11:06:01Z</time>
      </trkpt>
      <trkpt lat="45.18819" lon="5.98451">
        <ele>2735.8</ele>
        <time>2021-04-17T11:06:02Z</time>
      </trkpt>
      <trkpt lat="45.18821" lon="5.98452">
        <ele>2734.8</ele>
        <time>2021-04-17T11:06:03Z</time>
      </trkpt>
      <trkpt lat="45.18823" lon="5.98453">
        <ele>2734.4</ele>
        <time>2021-04-17T11:06:04Z</time>
      </trkpt>
      <trkpt lat="45.18823" lon="5.98453">
        <ele>2734.4</ele>
        <time>2021-04-17T11:06:05Z</time>
      </trkpt>
      <trkpt lat="45.18823" lon="5.98454">
        <ele>2734.2</ele>
        <time>2021-04-17T11:06:06Z</time>
      </trkpt>
      <trkpt lat="45.18823" lon="5.98454">
        <ele>2734</ele>
        <time>2021-04-17T11:06:07Z</time>
      </trkpt>
      <trkpt lat="45.18823" lon="5.98455">
        <ele>2734</ele>
        <time>2021-04-17T11:06:08Z</time>
      </trkpt>
      <trkpt lat="45.18823" lon="5.98455">
        <ele>2734.2</ele>
        <time>2021-04-17T11:06:14Z</time>
      </trkpt>
      <trkpt lat="45.18823" lon="5.98454">
        <ele>2734.2</ele>
        <time>2021-04-17T11:06:20Z</time>
      </trkpt>
      <trkpt lat="45.18827" lon="5.98461">
        <ele>2733.6</ele>
        <time>2021-04-17T11:06:25Z</time>
      </trkpt>
      <trkpt lat="45.18827" lon="5.98465">
        <ele>2732.8</ele>
        <time>2021-04-17T11:06:27Z</time>
      </trkpt>
      <trkpt lat="45.18827" lon="5.98465">
        <ele>2732.6</ele>
        <time>2021-04-17T11:06:29Z</time>
      </trkpt>
      <trkpt lat="45.18827" lon="5.98465">
        <ele>2732.2</ele>
        <time>2021-04-17T11:06:35Z</time>
      </trkpt>
      <trkpt lat="45.18827" lon="5.98465">
        <ele>2732.2</ele>
        <time>2021-04-17T11:06:38Z</time>
      </trkpt>
      <trkpt lat="45.18829" lon="5.98468">
        <ele>2732</ele>
        <time>2021-04-17T11:06:40Z</time>
      </trkpt>
      <trkpt lat="45.1883" lon="5.98465">
        <ele>2731.2</ele>
        <time>2021-04-17T11:06:42Z</time>
      </trkpt>
      <trkpt lat="45.18831" lon="5.98462">
        <ele>2730.4</ele>
        <time>2021-04-17T11:06:43Z</time>
      </trkpt>
      <trkpt lat="45.18831" lon="5.98458">
        <ele>2728.2</ele>
        <time>2021-04-17T11:06:44Z</time>
      </trkpt>
      <trkpt lat="45.18831" lon="5.98458">
        <ele>2727.8</ele>
        <time>2021-04-17T11:06:47Z</time>
      </trkpt>
      <trkpt lat="45.1883" lon="5.98458">
        <ele>2727.6</ele>
        <time>2021-04-17T11:06:51Z</time>
      </trkpt>
      <trkpt lat="45.1883" lon="5.98458">
        <ele>2727.6</ele>
        <time>2021-04-17T11:06:53Z</time>
      </trkpt>
      <trkpt lat="45.18831" lon="5.98458">
        <ele>2727.6</ele>
        <time>2021-04-17T11:06:55Z</time>
      </trkpt>
      <trkpt lat="45.18831" lon="5.98458">
        <ele>2727.6</ele>
        <time>2021-04-17T11:06:56Z</time>
      </trkpt>
      <trkpt lat="45.1883" lon="5.98458">
        <ele>2727.6</ele>
        <time>2021-04-17T11:06:57Z</time>
      </trkpt>
      <trkpt lat="45.1883" lon="5.98458">
        <ele>2727.6</ele>
        <time>2021-04-17T11:07:01Z</time>
      </trkpt>
      <trkpt lat="45.1883" lon="5.98458">
        <ele>2727.6</ele>
        <time>2021-04-17T11:07:02Z</time>
      </trkpt>
      <trkpt lat="45.1883" lon="5.98458">
        <ele>2727.6</ele>
        <time>2021-04-17T11:07:05Z</time>
      </trkpt>
      <trkpt lat="45.1883" lon="5.98458">
        <ele>2727.6</ele>
        <time>2021-04-17T11:07:06Z</time>
      </trkpt>
      <trkpt lat="45.1883" lon="5.98458">
        <ele>2727.6</ele>
        <time>2021-04-17T11:07:07Z</time>
      </trkpt>
      <trkpt lat="45.1883" lon="5.98456">
        <ele>2727</ele>
        <time>2021-04-17T11:07:13Z</time>
      </trkpt>
      <trkpt lat="45.18829" lon="5.98454">
        <ele>2726.6</ele>
        <time>2021-04-17T11:07:15Z</time>
      </trkpt>
      <trkpt lat="45.18829" lon="5.98451">
        <ele>2726</ele>
        <time>2021-04-17T11:07:17Z</time>
      </trkpt>
      <trkpt lat="45.18828" lon="5.9845">
        <ele>2726</ele>
        <time>2021-04-17T11:07:18Z</time>
      </trkpt>
      <trkpt lat="45.18827" lon="5.98439">
        <ele>2725</ele>
        <time>2021-04-17T11:07:21Z</time>
      </trkpt>
      <trkpt lat="45.18827" lon="5.98435">
        <ele>2724.4</ele>
        <time>2021-04-17T11:07:22Z</time>
      </trkpt>
      <trkpt lat="45.18827" lon="5.9843">
        <ele>2723.8</ele>
        <time>2021-04-17T11:07:23Z</time>
      </trkpt>
      <trkpt lat="45.18827" lon="5.98426">
        <ele>2723</ele>
        <time>2021-04-17T11:07:24Z</time>
      </trkpt>
      <trkpt lat="45.18828" lon="5.98422">
        <ele>2722</ele>
        <time>2021-04-17T11:07:25Z</time>
      </trkpt>
      <trkpt lat="45.18829" lon="5.98418">
        <ele>2721</ele>
        <time>2021-04-17T11:07:26Z</time>
      </trkpt>
      <trkpt lat="45.18831" lon="5.98416">
        <ele>2720</ele>
        <time>2021-04-17T11:07:27Z</time>
      </trkpt>
      <trkpt lat="45.18833" lon="5.98416">
        <ele>2719</ele>
        <time>2021-04-17T11:07:28Z</time>
      </trkpt>
      <trkpt lat="45.18835" lon="5.98415">
        <ele>2717.8</ele>
        <time>2021-04-17T11:07:29Z</time>
      </trkpt>
      <trkpt lat="45.18838" lon="5.98414">
        <ele>2716</ele>
        <time>2021-04-17T11:07:30Z</time>
      </trkpt>
      <trkpt lat="45.18841" lon="5.98415">
        <ele>2714</ele>
        <time>2021-04-17T11:07:31Z</time>
      </trkpt>
      <trkpt lat="45.18843" lon="5.98415">
        <ele>2711.6</ele>
        <time>2021-04-17T11:07:32Z</time>
      </trkpt>
      <trkpt lat="45.18845" lon="5.98414">
        <ele>2709.4</ele>
        <time>2021-04-17T11:07:33Z</time>
      </trkpt>
      <trkpt lat="45.18848" lon="5.98413">
        <ele>2707.2</ele>
        <time>2021-04-17T11:07:34Z</time>
      </trkpt>
      <trkpt lat="45.1885" lon="5.98413">
        <ele>2704.8</ele>
        <time>2021-04-17T11:07:35Z</time>
      </trkpt>
      <trkpt lat="45.18852" lon="5.98413">
        <ele>2702.8</ele>
        <time>2021-04-17T11:07:36Z</time>
      </trkpt>
      <trkpt lat="45.18855" lon="5.98411">
        <ele>2700.8</ele>
        <time>2021-04-17T11:07:37Z</time>
      </trkpt>
      <trkpt lat="45.18858" lon="5.9841">
        <ele>2698.2</ele>
        <time>2021-04-17T11:07:38Z</time>
      </trkpt>
      <trkpt lat="45.18861" lon="5.98411">
        <ele>2695.6</ele>
        <time>2021-04-17T11:07:39Z</time>
      </trkpt>
      <trkpt lat="45.18863" lon="5.98411">
        <ele>2693.2</ele>
        <time>2021-04-17T11:07:40Z</time>
      </trkpt>
      <trkpt lat="45.18866" lon="5.98408">
        <ele>2691</ele>
        <time>2021-04-17T11:07:41Z</time>
      </trkpt>
      <trkpt lat="45.1887" lon="5.98406">
        <ele>2688.4</ele>
        <time>2021-04-17T11:07:42Z</time>
      </trkpt>
      <trkpt lat="45.18873" lon="5.98405">
        <ele>2685.2</ele>
        <time>2021-04-17T11:07:43Z</time>
      </trkpt>
      <trkpt lat="45.18877" lon="5.98402">
        <ele>2682.2</ele>
        <time>2021-04-17T11:07:44Z</time>
      </trkpt>
      <trkpt lat="45.1888" lon="5.98398">
        <ele>2679.2</ele>
        <time>2021-04-17T11:07:45Z</time>
      </trkpt>
      <trkpt lat="45.18882" lon="5.98397">
        <ele>2676.6</ele>
        <time>2021-04-17T11:07:46Z</time>
      </trkpt>
      <trkpt lat="45.18885" lon="5.98397">
        <ele>2674.4</ele>
        <time>2021-04-17T11:07:47Z</time>
      </trkpt>
      <trkpt lat="45.18887" lon="5.98396">
        <ele>2672.4</ele>
        <time>2021-04-17T11:07:48Z</time>
      </trkpt>
      <trkpt lat="45.1889" lon="5.98394">
        <ele>2670.2</ele>
        <time>2021-04-17T11:07:49Z</time>
      </trkpt>
      <trkpt lat="45.18893" lon="5.98393">
        <ele>2667.4</ele>
        <time>2021-04-17T11:07:50Z</time>
      </trkpt>
      <trkpt lat="45.18896" lon="5.98393">
        <ele>2664.4</ele>
        <time>2021-04-17T11:07:51Z</time>
      </trkpt>
      <trkpt lat="45.189" lon="5.98392">
        <ele>2661.2</ele>
        <time>2021-04-17T11:07:52Z</time>
      </trkpt>
      <trkpt lat="45.18904" lon="5.98391">
        <ele>2658.4</ele>
        <time>2021-04-17T11:07:53Z</time>
      </trkpt>
      <trkpt lat="45.18907" lon="5.98392">
        <ele>2655.2</ele>
        <time>2021-04-17T11:07:54Z</time>
      </trkpt>
      <trkpt lat="45.18909" lon="5.98395">
        <ele>2651.8</ele>
        <time>2021-04-17T11:07:55Z</time>
      </trkpt>
      <trkpt lat="45.18911" lon="5.98399">
        <ele>2648.2</ele>
        <time>2021-04-17T11:07:56Z</time>
      </trkpt>
      <trkpt lat="45.18914" lon="5.98398">
        <ele>2645.2</ele>
        <time>2021-04-17T11:07:57Z</time>
      </trkpt>
      <trkpt lat="45.18916" lon="5.98394">
        <ele>2643</ele>
        <time>2021-04-17T11:07:58Z</time>
      </trkpt>
      <trkpt lat="45.18918" lon="5.98389">
        <ele>2641</ele>
        <time>2021-04-17T11:07:59Z</time>
      </trkpt>
      <trkpt lat="45.1892" lon="5.98384">
        <ele>2639.4</ele>
        <time>2021-04-17T11:08:00Z</time>
      </trkpt>
      <trkpt lat="45.18923" lon="5.98381">
        <ele>2637.8</ele>
        <time>2021-04-17T11:08:01Z</time>
      </trkpt>
      <trkpt lat="45.18925" lon="5.98382">
        <ele>2635.8</ele>
        <time>2021-04-17T11:08:02Z</time>
      </trkpt>
      <trkpt lat="45.18928" lon="5.98382">
        <ele>2633.8</ele>
        <time>2021-04-17T11:08:03Z</time>
      </trkpt>
      <trkpt lat="45.1893" lon="5.9838">
        <ele>2632</ele>
        <time>2021-04-17T11:08:04Z</time>
      </trkpt>
      <trkpt lat="45.18934" lon="5.9838">
        <ele>2629.4</ele>
        <time>2021-04-17T11:08:05Z</time>
      </trkpt>
      <trkpt lat="45.18936" lon="5.98381">
        <ele>2626.4</ele>
        <time>2021-04-17T11:08:06Z</time>
      </trkpt>
      <trkpt lat="45.18937" lon="5.98384">
        <ele>2623.8</ele>
        <time>2021-04-17T11:08:07Z</time>
      </trkpt>
      <trkpt lat="45.18938" lon="5.98386">
        <ele>2621.8</ele>
        <time>2021-04-17T11:08:08Z</time>
      </trkpt>
      <trkpt lat="45.18939" lon="5.98387">
        <ele>2620.4</ele>
        <time>2021-04-17T11:08:09Z</time>
      </trkpt>
      <trkpt lat="45.1894" lon="5.98388">
        <ele>2619.2</ele>
        <time>2021-04-17T11:08:10Z</time>
      </trkpt>
      <trkpt lat="45.1894" lon="5.98388">
        <ele>2618.6</ele>
        <time>2021-04-17T11:08:11Z</time>
      </trkpt>
      <trkpt lat="45.1894" lon="5.98388">
        <ele>2618.2</ele>
        <time>2021-04-17T11:08:12Z</time>
      </trkpt>
      <trkpt lat="45.18939" lon="5.98388">
        <ele>2618</ele>
        <time>2021-04-17T11:08:13Z</time>
      </trkpt>
      <trkpt lat="45.1894" lon="5.98388">
        <ele>2618</ele>
        <time>2021-04-17T11:08:14Z</time>
      </trkpt>
      <trkpt lat="45.1894" lon="5.98387">
        <ele>2618</ele>
        <time>2021-04-17T11:08:17Z</time>
      </trkpt>
      <trkpt lat="45.1894" lon="5.98387">
        <ele>2618</ele>
        <time>2021-04-17T11:08:20Z</time>
      </trkpt>
      <trkpt lat="45.18945" lon="5.98381">
        <ele>2617</ele>
        <time>2021-04-17T11:08:24Z</time>
      </trkpt>
      <trkpt lat="45.18947" lon="5.98378">
        <ele>2615.8</ele>
        <time>2021-04-17T11:08:25Z</time>
      </trkpt>
      <trkpt lat="45.1895" lon="5.98376">
        <ele>2614.2</ele>
        <time>2021-04-17T11:08:26Z</time>
      </trkpt>
      <trkpt lat="45.18952" lon="5.98377">
        <ele>2612.4</ele>
        <time>2021-04-17T11:08:27Z</time>
      </trkpt>
      <trkpt lat="45.18954" lon="5.98377">
        <ele>2610.8</ele>
        <time>2021-04-17T11:08:28Z</time>
      </trkpt>
      <trkpt lat="45.18958" lon="5.98375">
        <ele>2608.8</ele>
        <time>2021-04-17T11:08:29Z</time>
      </trkpt>
      <trkpt lat="45.18962" lon="5.98374">
        <ele>2604.2</ele>
        <time>2021-04-17T11:08:30Z</time>
      </trkpt>
      <trkpt lat="45.18967" lon="5.98375">
        <ele>2601.6</ele>
        <time>2021-04-17T11:08:32Z</time>
      </trkpt>
      <trkpt lat="45.18971" lon="5.98375">
        <ele>2599.4</ele>
        <time>2021-04-17T11:08:33Z</time>
      </trkpt>
      <trkpt lat="45.18975" lon="5.98377">
        <ele>2597</ele>
        <time>2021-04-17T11:08:34Z</time>
      </trkpt>
      <trkpt lat="45.18978" lon="5.98377">
        <ele>2594</ele>
        <time>2021-04-17T11:08:35Z</time>
      </trkpt>
      <trkpt lat="45.18981" lon="5.98376">
        <ele>2590.4</ele>
        <time>2021-04-17T11:08:36Z</time>
      </trkpt>
      <trkpt lat="45.18985" lon="5.98375">
        <ele>2587.2</ele>
        <time>2021-04-17T11:08:37Z</time>
      </trkpt>
      <trkpt lat="45.18988" lon="5.98374">
        <ele>2584.2</ele>
        <time>2021-04-17T11:08:38Z</time>
      </trkpt>
      <trkpt lat="45.18992" lon="5.98372">
        <ele>2581.2</ele>
        <time>2021-04-17T11:08:39Z</time>
      </trkpt>
      <trkpt lat="45.18996" lon="5.9837">
        <ele>2578.2</ele>
        <time>2021-04-17T11:08:40Z</time>
      </trkpt>
      <trkpt lat="45.19" lon="5.98368">
        <ele>2575</ele>
        <time>2021-04-17T11:08:41Z</time>
      </trkpt>
      <trkpt lat="45.19003" lon="5.98366">
        <ele>2572.2</ele>
        <time>2021-04-17T11:08:42Z</time>
      </trkpt>
      <trkpt lat="45.19007" lon="5.98365">
        <ele>2569</ele>
        <time>2021-04-17T11:08:43Z</time>
      </trkpt>
      <trkpt lat="45.1901" lon="5.98363">
        <ele>2566</ele>
        <time>2021-04-17T11:08:44Z</time>
      </trkpt>
      <trkpt lat="45.19014" lon="5.98361">
        <ele>2563</ele>
        <time>2021-04-17T11:08:45Z</time>
      </trkpt>
      <trkpt lat="45.19017" lon="5.98361">
        <ele>2559.8</ele>
        <time>2021-04-17T11:08:46Z</time>
      </trkpt>
      <trkpt lat="45.19021" lon="5.98359">
        <ele>2557</ele>
        <time>2021-04-17T11:08:47Z</time>
      </trkpt>
      <trkpt lat="45.19024" lon="5.98356">
        <ele>2554.6</ele>
        <time>2021-04-17T11:08:48Z</time>
      </trkpt>
      <trkpt lat="45.19028" lon="5.98354">
        <ele>2551.6</ele>
        <time>2021-04-17T11:08:49Z</time>
      </trkpt>
      <trkpt lat="45.19032" lon="5.98353">
        <ele>2547.8</ele>
        <time>2021-04-17T11:08:50Z</time>
      </trkpt>
      <trkpt lat="45.19035" lon="5.98352">
        <ele>2543.8</ele>
        <time>2021-04-17T11:08:51Z</time>
      </trkpt>
      <trkpt lat="45.19039" lon="5.98351">
        <ele>2540.6</ele>
        <time>2021-04-17T11:08:52Z</time>
      </trkpt>
      <trkpt lat="45.19043" lon="5.98349">
        <ele>2537.8</ele>
        <time>2021-04-17T11:08:53Z</time>
      </trkpt>
      <trkpt lat="45.19046" lon="5.98347">
        <ele>2534.8</ele>
        <time>2021-04-17T11:08:54Z</time>
      </trkpt>
      <trkpt lat="45.1905" lon="5.98346">
        <ele>2532</ele>
        <time>2021-04-17T11:08:55Z</time>
      </trkpt>
      <trkpt lat="45.19053" lon="5.98344">
        <ele>2529.6</ele>
        <time>2021-04-17T11:08:56Z</time>
      </trkpt>
      <trkpt lat="45.19057" lon="5.98342">
        <ele>2527.4</ele>
        <time>2021-04-17T11:08:57Z</time>
      </trkpt>
      <trkpt lat="45.1906" lon="5.98339">
        <ele>2525.2</ele>
        <time>2021-04-17T11:08:58Z</time>
      </trkpt>
      <trkpt lat="45.19063" lon="5.98338">
        <ele>2522</ele>
        <time>2021-04-17T11:08:59Z</time>
      </trkpt>
      <trkpt lat="45.19067" lon="5.98335">
        <ele>2519</ele>
        <time>2021-04-17T11:09:00Z</time>
      </trkpt>
      <trkpt lat="45.19071" lon="5.98335">
        <ele>2516.2</ele>
        <time>2021-04-17T11:09:01Z</time>
      </trkpt>
      <trkpt lat="45.19079" lon="5.98331">
        <ele>2508.8</ele>
        <time>2021-04-17T11:09:02Z</time>
      </trkpt>
      <trkpt lat="45.19082" lon="5.98326">
        <ele>2507.8</ele>
        <time>2021-04-17T11:09:04Z</time>
      </trkpt>
      <trkpt lat="45.19086" lon="5.98323">
        <ele>2504.6</ele>
        <time>2021-04-17T11:09:05Z</time>
      </trkpt>
      <trkpt lat="45.19091" lon="5.9832">
        <ele>2501.2</ele>
        <time>2021-04-17T11:09:06Z</time>
      </trkpt>
      <trkpt lat="45.19096" lon="5.98318">
        <ele>2498.6</ele>
        <time>2021-04-17T11:09:07Z</time>
      </trkpt>
      <trkpt lat="45.19102" lon="5.98318">
        <ele>2496.6</ele>
        <time>2021-04-17T11:09:08Z</time>
      </trkpt>
      <trkpt lat="45.19107" lon="5.98318">
        <ele>2494</ele>
        <time>2021-04-17T11:09:09Z</time>
      </trkpt>
      <trkpt lat="45.19113" lon="5.98317">
        <ele>2491</ele>
        <time>2021-04-17T11:09:10Z</time>
      </trkpt>
      <trkpt lat="45.19119" lon="5.98317">
        <ele>2488.4</ele>
        <time>2021-04-17T11:09:11Z</time>
      </trkpt>
      <trkpt lat="45.19126" lon="5.98316">
        <ele>2485.8</ele>
        <time>2021-04-17T11:09:12Z</time>
      </trkpt>
      <trkpt lat="45.19133" lon="5.98315">
        <ele>2482.4</ele>
        <time>2021-04-17T11:09:13Z</time>
      </trkpt>
      <trkpt lat="45.1914" lon="5.98316">
        <ele>2478.6</ele>
        <time>2021-04-17T11:09:14Z</time>
      </trkpt>
      <trkpt lat="45.19148" lon="5.98318">
        <ele>2475.4</ele>
        <time>2021-04-17T11:09:15Z</time>
      </trkpt>
      <trkpt lat="45.19156" lon="5.9832">
        <ele>2472.8</ele>
        <time>2021-04-17T11:09:16Z</time>
      </trkpt>
      <trkpt lat="45.19162" lon="5.98323">
        <ele>2470.2</ele>
        <time>2021-04-17T11:09:17Z</time>
      </trkpt>
      <trkpt lat="45.19169" lon="5.98326">
        <ele>2467.8</ele>
        <time>2021-04-17T11:09:18Z</time>
      </trkpt>
      <trkpt lat="45.19173" lon="5.98329">
        <ele>2466</ele>
        <time>2021-04-17T11:09:19Z</time>
      </trkpt>
      <trkpt lat="45.19174" lon="5.98332">
        <ele>2464.4</ele>
        <time>2021-04-17T11:09:20Z</time>
      </trkpt>
      <trkpt lat="45.19175" lon="5.98333">
        <ele>2463.2</ele>
        <time>2021-04-17T11:09:21Z</time>
      </trkpt>
      <trkpt lat="45.19175" lon="5.98333">
        <ele>2462.4</ele>
        <time>2021-04-17T11:09:22Z</time>
      </trkpt>
      <trkpt lat="45.19175" lon="5.98334">
        <ele>2462</ele>
        <time>2021-04-17T11:09:23Z</time>
      </trkpt>
      <trkpt lat="45.19172" lon="5.98336">
        <ele>2461.6</ele>
        <time>2021-04-17T11:09:27Z</time>
      </trkpt>
      <trkpt lat="45.19171" lon="5.98337">
        <ele>2461.6</ele>
        <time>2021-04-17T11:09:29Z</time>
      </trkpt>
      <trkpt lat="45.19171" lon="5.98336">
        <ele>2461.6</ele>
        <time>2021-04-17T11:09:31Z</time>
      </trkpt>
      <trkpt lat="45.1917" lon="5.98337">
        <ele>2461.6</ele>
        <time>2021-04-17T11:09:33Z</time>
      </trkpt>
      <trkpt lat="45.1917" lon="5.98336">
        <ele>2461.4</ele>
        <time>2021-04-17T11:09:39Z</time>
      </trkpt>
      <trkpt lat="45.1917" lon="5.98336">
        <ele>2461.6</ele>
        <time>2021-04-17T11:09:45Z</time>
      </trkpt>
      <trkpt lat="45.1917" lon="5.98336">
        <ele>2461.2</ele>
        <time>2021-04-17T11:09:49Z</time>
      </trkpt>
      <trkpt lat="45.19171" lon="5.98336">
        <ele>2461.2</ele>
        <time>2021-04-17T11:09:52Z</time>
      </trkpt>
      <trkpt lat="45.19171" lon="5.98336">
        <ele>2461.2</ele>
        <time>2021-04-17T11:09:53Z</time>
      </trkpt>
      <trkpt lat="45.19171" lon="5.98335">
        <ele>2461.2</ele>
        <time>2021-04-17T11:09:59Z</time>
      </trkpt>
      <trkpt lat="45.19172" lon="5.98335">
        <ele>2461.2</ele>
        <time>2021-04-17T11:10:01Z</time>
      </trkpt>
      <trkpt lat="45.19172" lon="5.98334">
        <ele>2461.2</ele>
        <time>2021-04-17T11:10:03Z</time>
      </trkpt>
      <trkpt lat="45.19172" lon="5.98334">
        <ele>2461.4</ele>
        <time>2021-04-17T11:10:07Z</time>
      </trkpt>
      <trkpt lat="45.19172" lon="5.98334">
        <ele>2461.6</ele>
        <time>2021-04-17T11:10:09Z</time>
      </trkpt>
      <trkpt lat="45.19172" lon="5.98334">
        <ele>2461.4</ele>
        <time>2021-04-17T11:10:15Z</time>
      </trkpt>
      <trkpt lat="45.19172" lon="5.98334">
        <ele>2461.2</ele>
        <time>2021-04-17T11:10:18Z</time>
      </trkpt>
      <trkpt lat="45.19172" lon="5.98334">
        <ele>2461</ele>
        <time>2021-04-17T11:10:20Z</time>
      </trkpt>
      <trkpt lat="45.19172" lon="5.98334">
        <ele>2460.8</ele>
        <time>2021-04-17T11:10:22Z</time>
      </trkpt>
      <trkpt lat="45.19172" lon="5.98334">
        <ele>2460.8</ele>
        <time>2021-04-17T11:10:23Z</time>
      </trkpt>
      <trkpt lat="45.19172" lon="5.98334">
        <ele>2460.6</ele>
        <time>2021-04-17T11:10:24Z</time>
      </trkpt>
      <trkpt lat="45.19172" lon="5.98334">
        <ele>2460.6</ele>
        <time>2021-04-17T11:10:25Z</time>
      </trkpt>
      <trkpt lat="45.19172" lon="5.98334">
        <ele>2460.8</ele>
        <time>2021-04-17T11:10:26Z</time>
      </trkpt>
      <trkpt lat="45.19172" lon="5.98334">
        <ele>2460.8</ele>
        <time>2021-04-17T11:10:27Z</time>
      </trkpt>
      <trkpt lat="45.19172" lon="5.98334">
        <ele>2460.4</ele>
        <time>2021-04-17T11:10:29Z</time>
      </trkpt>
      <trkpt lat="45.19172" lon="5.98334">
        <ele>2460</ele>
        <time>2021-04-17T11:10:30Z</time>
      </trkpt>
      <trkpt lat="45.19173" lon="5.98334">
        <ele>2460</ele>
        <time>2021-04-17T11:10:31Z</time>
      </trkpt>
      <trkpt lat="45.19173" lon="5.98334">
        <ele>2459.8</ele>
        <time>2021-04-17T11:10:32Z</time>
      </trkpt>
      <trkpt lat="45.19173" lon="5.98334">
        <ele>2459.8</ele>
        <time>2021-04-17T11:10:33Z</time>
      </trkpt>
      <trkpt lat="45.19173" lon="5.98334">
        <ele>2459.6</ele>
        <time>2021-04-17T11:10:34Z</time>
      </trkpt>
      <trkpt lat="45.19173" lon="5.98334">
        <ele>2460</ele>
        <time>2021-04-17T11:10:36Z</time>
      </trkpt>
      <trkpt lat="45.19173" lon="5.98334">
        <ele>2460.6</ele>
        <time>2021-04-17T11:10:42Z</time>
      </trkpt>
      <trkpt lat="45.19173" lon="5.98334">
        <ele>2461</ele>
        <time>2021-04-17T11:10:43Z</time>
      </trkpt>
      <trkpt lat="45.19173" lon="5.98334">
        <ele>2461.2</ele>
        <time>2021-04-17T11:10:44Z</time>
      </trkpt>
      <trkpt lat="45.19173" lon="5.98334">
        <ele>2461.2</ele>
        <time>2021-04-17T11:10:45Z</time>
      </trkpt>
      <trkpt lat="45.19173" lon="5.98334">
        <ele>2461.4</ele>
        <time>2021-04-17T11:10:47Z</time>
      </trkpt>
      <trkpt lat="45.19173" lon="5.98334">
        <ele>2461.6</ele>
        <time>2021-04-17T11:10:48Z</time>
      </trkpt>
      <trkpt lat="45.19173" lon="5.98334">
        <ele>2461.6</ele>
        <time>2021-04-17T11:10:49Z</time>
      </trkpt>
      <trkpt lat="45.19173" lon="5.98334">
        <ele>2462</ele>
        <time>2021-04-17T11:10:54Z</time>
      </trkpt>
      <trkpt lat="45.19173" lon="5.98334">
        <ele>2462</ele>
        <time>2021-04-17T11:10:55Z</time>
      </trkpt>
      <trkpt lat="45.19173" lon="5.98334">
        <ele>2462</ele>
        <time>2021-04-17T11:10:56Z</time>
      </trkpt>
      <trkpt lat="45.19173" lon="5.98334">
        <ele>2462</ele>
        <time>2021-04-17T11:10:57Z</time>
      </trkpt>
      <trkpt lat="45.19173" lon="5.98334">
        <ele>2461.4</ele>
        <time>2021-04-17T11:11:00Z</time>
      </trkpt>
      <trkpt lat="45.19173" lon="5.98334">
        <ele>2461.4</ele>
        <time>2021-04-17T11:11:01Z</time>
      </trkpt>
      <trkpt lat="45.19173" lon="5.98334">
        <ele>2461.4</ele>
        <time>2021-04-17T11:11:02Z</time>
      </trkpt>
      <trkpt lat="45.19173" lon="5.98334">
        <ele>2461.4</ele>
        <time>2021-04-17T11:11:03Z</time>
      </trkpt>
      <trkpt lat="45.19173" lon="5.98334">
        <ele>2461.2</ele>
        <time>2021-04-17T11:11:04Z</time>
      </trkpt>
      <trkpt lat="45.19173" lon="5.98334">
        <ele>2461.2</ele>
        <time>2021-04-17T11:11:05Z</time>
      </trkpt>
      <trkpt lat="45.19173" lon="5.98334">
        <ele>2461.4</ele>
        <time>2021-04-17T11:11:07Z</time>
      </trkpt>
      <trkpt lat="45.19173" lon="5.98334">
        <ele>2461.4</ele>
        <time>2021-04-17T11:11:08Z</time>
      </trkpt>
      <trkpt lat="45.19173" lon="5.98334">
        <ele>2461.2</ele>
        <time>2021-04-17T11:11:09Z</time>
      </trkpt>
      <trkpt lat="45.1918" lon="5.98337">
        <ele>2460.8</ele>
        <time>2021-04-17T11:11:12Z</time>
      </trkpt>
      <trkpt lat="45.19182" lon="5.98338">
        <ele>2460.4</ele>
        <time>2021-04-17T11:11:13Z</time>
      </trkpt>
      <trkpt lat="45.19183" lon="5.9834">
        <ele>2460.2</ele>
        <time>2021-04-17T11:11:14Z</time>
      </trkpt>
      <trkpt lat="45.19184" lon="5.98342">
        <ele>2459.4</ele>
        <time>2021-04-17T11:11:16Z</time>
      </trkpt>
      <trkpt lat="45.19185" lon="5.98342">
        <ele>2459.2</ele>
        <time>2021-04-17T11:11:17Z</time>
      </trkpt>
      <trkpt lat="45.19186" lon="5.98343">
        <ele>2459</ele>
        <time>2021-04-17T11:11:19Z</time>
      </trkpt>
      <trkpt lat="45.19186" lon="5.98344">
        <ele>2459</ele>
        <time>2021-04-17T11:11:20Z</time>
      </trkpt>
      <trkpt lat="45.19187" lon="5.98346">
        <ele>2458.8</ele>
        <time>2021-04-17T11:11:21Z</time>
      </trkpt>
      <trkpt lat="45.19189" lon="5.98348">
        <ele>2458.6</ele>
        <time>2021-04-17T11:11:22Z</time>
      </trkpt>
      <trkpt lat="45.19192" lon="5.98357">
        <ele>2457.8</ele>
        <time>2021-04-17T11:11:25Z</time>
      </trkpt>
      <trkpt lat="45.19196" lon="5.98366">
        <ele>2456.2</ele>
        <time>2021-04-17T11:11:28Z</time>
      </trkpt>
      <trkpt lat="45.19197" lon="5.98366">
        <ele>2455.6</ele>
        <time>2021-04-17T11:11:29Z</time>
      </trkpt>
      <trkpt lat="45.192" lon="5.98365">
        <ele>2454.8</ele>
        <time>2021-04-17T11:11:30Z</time>
      </trkpt>
      <trkpt lat="45.19202" lon="5.98365">
        <ele>2453.6</ele>
        <time>2021-04-17T11:11:31Z</time>
      </trkpt>
      <trkpt lat="45.19205" lon="5.98365">
        <ele>2452.2</ele>
        <time>2021-04-17T11:11:32Z</time>
      </trkpt>
      <trkpt lat="45.19208" lon="5.98364">
        <ele>2450.4</ele>
        <time>2021-04-17T11:11:33Z</time>
      </trkpt>
      <trkpt lat="45.19212" lon="5.98364">
        <ele>2448.2</ele>
        <time>2021-04-17T11:11:34Z</time>
      </trkpt>
      <trkpt lat="45.19216" lon="5.98362">
        <ele>2445.6</ele>
        <time>2021-04-17T11:11:35Z</time>
      </trkpt>
      <trkpt lat="45.1922" lon="5.98358">
        <ele>2442.6</ele>
        <time>2021-04-17T11:11:36Z</time>
      </trkpt>
      <trkpt lat="45.19223" lon="5.98353">
        <ele>2439.4</ele>
        <time>2021-04-17T11:11:37Z</time>
      </trkpt>
      <trkpt lat="45.19226" lon="5.98347">
        <ele>2436.2</ele>
        <time>2021-04-17T11:11:38Z</time>
      </trkpt>
      <trkpt lat="45.1923" lon="5.98339">
        <ele>2433.2</ele>
        <time>2021-04-17T11:11:39Z</time>
      </trkpt>
      <trkpt lat="45.19233" lon="5.98331">
        <ele>2430.6</ele>
        <time>2021-04-17T11:11:40Z</time>
      </trkpt>
      <trkpt lat="45.19236" lon="5.98322">
        <ele>2428.4</ele>
        <time>2021-04-17T11:11:41Z</time>
      </trkpt>
      <trkpt lat="45.1924" lon="5.98314">
        <ele>2426</ele>
        <time>2021-04-17T11:11:42Z</time>
      </trkpt>
      <trkpt lat="45.19242" lon="5.98307">
        <ele>2423.6</ele>
        <time>2021-04-17T11:11:43Z</time>
      </trkpt>
      <trkpt lat="45.19246" lon="5.98302">
        <ele>2421.6</ele>
        <time>2021-04-17T11:11:44Z</time>
      </trkpt>
      <trkpt lat="45.1925" lon="5.98301">
        <ele>2420.2</ele>
        <time>2021-04-17T11:11:45Z</time>
      </trkpt>
      <trkpt lat="45.19255" lon="5.98301">
        <ele>2418.8</ele>
        <time>2021-04-17T11:11:46Z</time>
      </trkpt>
      <trkpt lat="45.1926" lon="5.98303">
        <ele>2417.2</ele>
        <time>2021-04-17T11:11:47Z</time>
      </trkpt>
      <trkpt lat="45.19265" lon="5.98308">
        <ele>2414.8</ele>
        <time>2021-04-17T11:11:48Z</time>
      </trkpt>
      <trkpt lat="45.19269" lon="5.98315">
        <ele>2412</ele>
        <time>2021-04-17T11:11:49Z</time>
      </trkpt>
      <trkpt lat="45.19271" lon="5.98324">
        <ele>2409.2</ele>
        <time>2021-04-17T11:11:50Z</time>
      </trkpt>
      <trkpt lat="45.19271" lon="5.98328">
        <ele>2407</ele>
        <time>2021-04-17T11:11:51Z</time>
      </trkpt>
      <trkpt lat="45.19274" lon="5.98333">
        <ele>2405.6</ele>
        <time>2021-04-17T11:11:52Z</time>
      </trkpt>
      <trkpt lat="45.19279" lon="5.98332">
        <ele>2404.6</ele>
        <time>2021-04-17T11:11:53Z</time>
      </trkpt>
      <trkpt lat="45.19283" lon="5.98328">
        <ele>2403</ele>
        <time>2021-04-17T11:11:54Z</time>
      </trkpt>
      <trkpt lat="45.19288" lon="5.98325">
        <ele>2401.4</ele>
        <time>2021-04-17T11:11:55Z</time>
      </trkpt>
      <trkpt lat="45.19294" lon="5.98323">
        <ele>2399.6</ele>
        <time>2021-04-17T11:11:56Z</time>
      </trkpt>
      <trkpt lat="45.19299" lon="5.98321">
        <ele>2397.8</ele>
        <time>2021-04-17T11:11:57Z</time>
      </trkpt>
      <trkpt lat="45.19303" lon="5.9832">
        <ele>2396.2</ele>
        <time>2021-04-17T11:11:58Z</time>
      </trkpt>
      <trkpt lat="45.19307" lon="5.98321">
        <ele>2394.6</ele>
        <time>2021-04-17T11:11:59Z</time>
      </trkpt>
      <trkpt lat="45.1931" lon="5.98325">
        <ele>2393.2</ele>
        <time>2021-04-17T11:12:00Z</time>
      </trkpt>
      <trkpt lat="45.19312" lon="5.98329">
        <ele>2392.2</ele>
        <time>2021-04-17T11:12:01Z</time>
      </trkpt>
      <trkpt lat="45.19314" lon="5.98335">
        <ele>2391.4</ele>
        <time>2021-04-17T11:12:02Z</time>
      </trkpt>
      <trkpt lat="45.1932" lon="5.98348">
        <ele>2389.8</ele>
        <time>2021-04-17T11:12:04Z</time>
      </trkpt>
      <trkpt lat="45.19325" lon="5.98359">
        <ele>2388.6</ele>
        <time>2021-04-17T11:12:06Z</time>
      </trkpt>
      <trkpt lat="45.19328" lon="5.98365">
        <ele>2387.4</ele>
        <time>2021-04-17T11:12:08Z</time>
      </trkpt>
      <trkpt lat="45.19329" lon="5.98368">
        <ele>2386.8</ele>
        <time>2021-04-17T11:12:09Z</time>
      </trkpt>
      <trkpt lat="45.1933" lon="5.9837">
        <ele>2386.4</ele>
        <time>2021-04-17T11:12:10Z</time>
      </trkpt>
      <trkpt lat="45.19333" lon="5.98376">
        <ele>2385.4</ele>
        <time>2021-04-17T11:12:13Z</time>
      </trkpt>
      <trkpt lat="45.19335" lon="5.98375">
        <ele>2384.8</ele>
        <time>2021-04-17T11:12:14Z</time>
      </trkpt>
      <trkpt lat="45.1934" lon="5.98375">
        <ele>2382.6</ele>
        <time>2021-04-17T11:12:16Z</time>
      </trkpt>
      <trkpt lat="45.19342" lon="5.98374">
        <ele>2381.2</ele>
        <time>2021-04-17T11:12:17Z</time>
      </trkpt>
      <trkpt lat="45.19345" lon="5.98373">
        <ele>2379.2</ele>
        <time>2021-04-17T11:12:18Z</time>
      </trkpt>
      <trkpt lat="45.19349" lon="5.98373">
        <ele>2376.8</ele>
        <time>2021-04-17T11:12:19Z</time>
      </trkpt>
      <trkpt lat="45.19351" lon="5.98376">
        <ele>2374.4</ele>
        <time>2021-04-17T11:12:20Z</time>
      </trkpt>
      <trkpt lat="45.19353" lon="5.98379">
        <ele>2372</ele>
        <time>2021-04-17T11:12:21Z</time>
      </trkpt>
      <trkpt lat="45.19356" lon="5.98378">
        <ele>2369.6</ele>
        <time>2021-04-17T11:12:22Z</time>
      </trkpt>
      <trkpt lat="45.19358" lon="5.98374">
        <ele>2367.2</ele>
        <time>2021-04-17T11:12:23Z</time>
      </trkpt>
      <trkpt lat="45.1936" lon="5.98368">
        <ele>2365.4</ele>
        <time>2021-04-17T11:12:24Z</time>
      </trkpt>
      <trkpt lat="45.19363" lon="5.98363">
        <ele>2363.2</ele>
        <time>2021-04-17T11:12:25Z</time>
      </trkpt>
      <trkpt lat="45.19366" lon="5.98362">
        <ele>2361</ele>
        <time>2021-04-17T11:12:26Z</time>
      </trkpt>
      <trkpt lat="45.1937" lon="5.98362">
        <ele>2358.8</ele>
        <time>2021-04-17T11:12:27Z</time>
      </trkpt>
      <trkpt lat="45.19373" lon="5.98361">
        <ele>2356.4</ele>
        <time>2021-04-17T11:12:28Z</time>
      </trkpt>
      <trkpt lat="45.19377" lon="5.98361">
        <ele>2354</ele>
        <time>2021-04-17T11:12:29Z</time>
      </trkpt>
      <trkpt lat="45.19381" lon="5.9836">
        <ele>2351.4</ele>
        <time>2021-04-17T11:12:30Z</time>
      </trkpt>
      <trkpt lat="45.19384" lon="5.98358">
        <ele>2349</ele>
        <time>2021-04-17T11:12:31Z</time>
      </trkpt>
      <trkpt lat="45.19388" lon="5.98356">
        <ele>2346.4</ele>
        <time>2021-04-17T11:12:32Z</time>
      </trkpt>
      <trkpt lat="45.19391" lon="5.98356">
        <ele>2343.8</ele>
        <time>2021-04-17T11:12:33Z</time>
      </trkpt>
      <trkpt lat="45.19394" lon="5.98356">
        <ele>2341.4</ele>
        <time>2021-04-17T11:12:34Z</time>
      </trkpt>
      <trkpt lat="45.19398" lon="5.98355">
        <ele>2339</ele>
        <time>2021-04-17T11:12:35Z</time>
      </trkpt>
      <trkpt lat="45.19402" lon="5.98355">
        <ele>2336.2</ele>
        <time>2021-04-17T11:12:36Z</time>
      </trkpt>
      <trkpt lat="45.19407" lon="5.98355">
        <ele>2333.8</ele>
        <time>2021-04-17T11:12:37Z</time>
      </trkpt>
      <trkpt lat="45.19412" lon="5.98355">
        <ele>2331.6</ele>
        <time>2021-04-17T11:12:38Z</time>
      </trkpt>
      <trkpt lat="45.19417" lon="5.98357">
        <ele>2329</ele>
        <time>2021-04-17T11:12:39Z</time>
      </trkpt>
      <trkpt lat="45.19423" lon="5.98359">
        <ele>2326.4</ele>
        <time>2021-04-17T11:12:40Z</time>
      </trkpt>
      <trkpt lat="45.19428" lon="5.98359">
        <ele>2324</ele>
        <time>2021-04-17T11:12:41Z</time>
      </trkpt>
      <trkpt lat="45.19432" lon="5.98356">
        <ele>2322</ele>
        <time>2021-04-17T11:12:42Z</time>
      </trkpt>
      <trkpt lat="45.19438" lon="5.98354">
        <ele>2320</ele>
        <time>2021-04-17T11:12:43Z</time>
      </trkpt>
      <trkpt lat="45.19444" lon="5.98352">
        <ele>2317.8</ele>
        <time>2021-04-17T11:12:44Z</time>
      </trkpt>
      <trkpt lat="45.1945" lon="5.98351">
        <ele>2316</ele>
        <time>2021-04-17T11:12:45Z</time>
      </trkpt>
      <trkpt lat="45.19456" lon="5.98351">
        <ele>2314.4</ele>
        <time>2021-04-17T11:12:46Z</time>
      </trkpt>
      <trkpt lat="45.19462" lon="5.98351">
        <ele>2313</ele>
        <time>2021-04-17T11:12:47Z</time>
      </trkpt>
      <trkpt lat="45.19467" lon="5.98352">
        <ele>2311.8</ele>
        <time>2021-04-17T11:12:48Z</time>
      </trkpt>
      <trkpt lat="45.19474" lon="5.98354">
        <ele>2310.4</ele>
        <time>2021-04-17T11:12:50Z</time>
      </trkpt>
      <trkpt lat="45.19475" lon="5.98354">
        <ele>2310.2</ele>
        <time>2021-04-17T11:12:51Z</time>
      </trkpt>
      <trkpt lat="45.19477" lon="5.98355">
        <ele>2309.8</ele>
        <time>2021-04-17T11:12:54Z</time>
      </trkpt>
      <trkpt lat="45.19477" lon="5.98355">
        <ele>2309.8</ele>
        <time>2021-04-17T11:12:55Z</time>
      </trkpt>
      <trkpt lat="45.19477" lon="5.98355">
        <ele>2309.8</ele>
        <time>2021-04-17T11:12:57Z</time>
      </trkpt>
      <trkpt lat="45.19478" lon="5.98353">
        <ele>2309.6</ele>
        <time>2021-04-17T11:13:01Z</time>
      </trkpt>
      <trkpt lat="45.19478" lon="5.98353">
        <ele>2309.6</ele>
        <time>2021-04-17T11:13:02Z</time>
      </trkpt>
      <trkpt lat="45.19478" lon="5.98352">
        <ele>2309.6</ele>
        <time>2021-04-17T11:13:05Z</time>
      </trkpt>
      <trkpt lat="45.19478" lon="5.98352">
        <ele>2309.6</ele>
        <time>2021-04-17T11:13:07Z</time>
      </trkpt>
      <trkpt lat="45.19478" lon="5.98352">
        <ele>2309.4</ele>
        <time>2021-04-17T11:13:08Z</time>
      </trkpt>
      <trkpt lat="45.19478" lon="5.98352">
        <ele>2309.4</ele>
        <time>2021-04-17T11:13:10Z</time>
      </trkpt>
      <trkpt lat="45.19478" lon="5.98352">
        <ele>2309.4</ele>
        <time>2021-04-17T11:13:14Z</time>
      </trkpt>
      <trkpt lat="45.19477" lon="5.98352">
        <ele>2308.8</ele>
        <time>2021-04-17T11:13:20Z</time>
      </trkpt>
      <trkpt lat="45.19477" lon="5.98353">
        <ele>2309</ele>
        <time>2021-04-17T11:13:22Z</time>
      </trkpt>
      <trkpt lat="45.19477" lon="5.98352">
        <ele>2309.2</ele>
        <time>2021-04-17T11:13:28Z</time>
      </trkpt>
      <trkpt lat="45.19477" lon="5.98352">
        <ele>2309</ele>
        <time>2021-04-17T11:13:30Z</time>
      </trkpt>
      <trkpt lat="45.19477" lon="5.98352">
        <ele>2309</ele>
        <time>2021-04-17T11:13:31Z</time>
      </trkpt>
      <trkpt lat="45.19477" lon="5.98352">
        <ele>2308.8</ele>
        <time>2021-04-17T11:13:32Z</time>
      </trkpt>
      <trkpt lat="45.19477" lon="5.98352">
        <ele>2308.6</ele>
        <time>2021-04-17T11:13:34Z</time>
      </trkpt>
      <trkpt lat="45.19477" lon="5.98352">
        <ele>2308.6</ele>
        <time>2021-04-17T11:13:36Z</time>
      </trkpt>
      <trkpt lat="45.19477" lon="5.98352">
        <ele>2308.6</ele>
        <time>2021-04-17T11:13:38Z</time>
      </trkpt>
      <trkpt lat="45.19477" lon="5.98351">
        <ele>2308.6</ele>
        <time>2021-04-17T11:13:40Z</time>
      </trkpt>
      <trkpt lat="45.19477" lon="5.98351">
        <ele>2308.6</ele>
        <time>2021-04-17T11:13:41Z</time>
      </trkpt>
      <trkpt lat="45.19477" lon="5.98351">
        <ele>2308.6</ele>
        <time>2021-04-17T11:13:43Z</time>
      </trkpt>
      <trkpt lat="45.19477" lon="5.98351">
        <ele>2308.6</ele>
        <time>2021-04-17T11:13:46Z</time>
      </trkpt>
      <trkpt lat="45.19477" lon="5.98351">
        <ele>2308.8</ele>
        <time>2021-04-17T11:13:48Z</time>
      </trkpt>
      <trkpt lat="45.19477" lon="5.98351">
        <ele>2308.8</ele>
        <time>2021-04-17T11:13:49Z</time>
      </trkpt>
      <trkpt lat="45.19477" lon="5.98351">
        <ele>2308.8</ele>
        <time>2021-04-17T11:13:50Z</time>
      </trkpt>
      <trkpt lat="45.19477" lon="5.98351">
        <ele>2308.8</ele>
        <time>2021-04-17T11:13:52Z</time>
      </trkpt>
      <trkpt lat="45.19476" lon="5.98351">
        <ele>2308.8</ele>
        <time>2021-04-17T11:13:58Z</time>
      </trkpt>
      <trkpt lat="45.19476" lon="5.98352">
        <ele>2308.8</ele>
        <time>2021-04-17T11:14:04Z</time>
      </trkpt>
      <trkpt lat="45.19476" lon="5.98352">
        <ele>2308.8</ele>
        <time>2021-04-17T11:14:06Z</time>
      </trkpt>
      <trkpt lat="45.19476" lon="5.98353">
        <ele>2308.8</ele>
        <time>2021-04-17T11:14:08Z</time>
      </trkpt>
      <trkpt lat="45.19475" lon="5.98353">
        <ele>2308.4</ele>
        <time>2021-04-17T11:14:14Z</time>
      </trkpt>
      <trkpt lat="45.19475" lon="5.98353">
        <ele>2308.4</ele>
        <time>2021-04-17T11:14:15Z</time>
      </trkpt>
      <trkpt lat="45.19475" lon="5.98353">
        <ele>2308.4</ele>
        <time>2021-04-17T11:14:16Z</time>
      </trkpt>
      <trkpt lat="45.19475" lon="5.98353">
        <ele>2308.4</ele>
        <time>2021-04-17T11:14:18Z</time>
      </trkpt>
      <trkpt lat="45.19475" lon="5.98353">
        <ele>2308.2</ele>
        <time>2021-04-17T11:14:19Z</time>
      </trkpt>
      <trkpt lat="45.19475" lon="5.98353">
        <ele>2308.2</ele>
        <time>2021-04-17T11:14:23Z</time>
      </trkpt>
      <trkpt lat="45.19475" lon="5.98353">
        <ele>2308.2</ele>
        <time>2021-04-17T11:14:25Z</time>
      </trkpt>
      <trkpt lat="45.19475" lon="5.98353">
        <ele>2308.2</ele>
        <time>2021-04-17T11:14:26Z</time>
      </trkpt>
      <trkpt lat="45.19475" lon="5.98353">
        <ele>2308.2</ele>
        <time>2021-04-17T11:14:27Z</time>
      </trkpt>
      <trkpt lat="45.19475" lon="5.98353">
        <ele>2308.2</ele>
        <time>2021-04-17T11:14:28Z</time>
      </trkpt>
      <trkpt lat="45.19475" lon="5.98354">
        <ele>2308.4</ele>
        <time>2021-04-17T11:14:32Z</time>
      </trkpt>
      <trkpt lat="45.19475" lon="5.98354">
        <ele>2308.4</ele>
        <time>2021-04-17T11:14:34Z</time>
      </trkpt>
      <trkpt lat="45.19475" lon="5.98354">
        <ele>2308.2</ele>
        <time>2021-04-17T11:14:36Z</time>
      </trkpt>
      <trkpt lat="45.19475" lon="5.98354">
        <ele>2308.2</ele>
        <time>2021-04-17T11:14:37Z</time>
      </trkpt>
      <trkpt lat="45.19475" lon="5.98354">
        <ele>2308.2</ele>
        <time>2021-04-17T11:14:38Z</time>
      </trkpt>
      <trkpt lat="45.19475" lon="5.98354">
        <ele>2308.2</ele>
        <time>2021-04-17T11:14:42Z</time>
      </trkpt>
      <trkpt lat="45.19475" lon="5.98353">
        <ele>2308.4</ele>
        <time>2021-04-17T11:14:47Z</time>
      </trkpt>
      <trkpt lat="45.19475" lon="5.98353">
        <ele>2308.4</ele>
        <time>2021-04-17T11:14:48Z</time>
      </trkpt>
      <trkpt lat="45.19476" lon="5.98353">
        <ele>2308.4</ele>
        <time>2021-04-17T11:14:54Z</time>
      </trkpt>
      <trkpt lat="45.19477" lon="5.98353">
        <ele>2308.4</ele>
        <time>2021-04-17T11:14:57Z</time>
      </trkpt>
      <trkpt lat="45.1948" lon="5.9835">
        <ele>2308.4</ele>
        <time>2021-04-17T11:14:59Z</time>
      </trkpt>
      <trkpt lat="45.1948" lon="5.9835">
        <ele>2308.4</ele>
        <time>2021-04-17T11:15:00Z</time>
      </trkpt>
      <trkpt lat="45.1948" lon="5.9835">
        <ele>2308.4</ele>
        <time>2021-04-17T11:15:01Z</time>
      </trkpt>
      <trkpt lat="45.19481" lon="5.9835">
        <ele>2308.4</ele>
        <time>2021-04-17T11:15:03Z</time>
      </trkpt>
      <trkpt lat="45.19481" lon="5.98349">
        <ele>2308.4</ele>
        <time>2021-04-17T11:15:07Z</time>
      </trkpt>
      <trkpt lat="45.19481" lon="5.98349">
        <ele>2308.2</ele>
        <time>2021-04-17T11:15:11Z</time>
      </trkpt>
      <trkpt lat="45.19481" lon="5.98349">
        <ele>2308.2</ele>
        <time>2021-04-17T11:15:14Z</time>
      </trkpt>
      <trkpt lat="45.19481" lon="5.98349">
        <ele>2308.2</ele>
        <time>2021-04-17T11:15:15Z</time>
      </trkpt>
      <trkpt lat="45.1948" lon="5.9835">
        <ele>2308.2</ele>
        <time>2021-04-17T11:15:18Z</time>
      </trkpt>
      <trkpt lat="45.1948" lon="5.9835">
        <ele>2308.2</ele>
        <time>2021-04-17T11:15:24Z</time>
      </trkpt>
      <trkpt lat="45.1948" lon="5.9835">
        <ele>2308.2</ele>
        <time>2021-04-17T11:15:30Z</time>
      </trkpt>
      <trkpt lat="45.19479" lon="5.98351">
        <ele>2308.2</ele>
        <time>2021-04-17T11:15:36Z</time>
      </trkpt>
      <trkpt lat="45.19478" lon="5.98351">
        <ele>2308.2</ele>
        <time>2021-04-17T11:15:38Z</time>
      </trkpt>
      <trkpt lat="45.19477" lon="5.98352">
        <ele>2308.2</ele>
        <time>2021-04-17T11:15:39Z</time>
      </trkpt>
      <trkpt lat="45.19477" lon="5.98352">
        <ele>2308.2</ele>
        <time>2021-04-17T11:15:40Z</time>
      </trkpt>
      <trkpt lat="45.19477" lon="5.98352">
        <ele>2308.2</ele>
        <time>2021-04-17T11:15:41Z</time>
      </trkpt>
      <trkpt lat="45.19477" lon="5.98352">
        <ele>2308.2</ele>
        <time>2021-04-17T11:15:42Z</time>
      </trkpt>
      <trkpt lat="45.19476" lon="5.98353">
        <ele>2308.2</ele>
        <time>2021-04-17T11:15:46Z</time>
      </trkpt>
      <trkpt lat="45.19475" lon="5.98353">
        <ele>2308.2</ele>
        <time>2021-04-17T11:15:51Z</time>
      </trkpt>
      <trkpt lat="45.19474" lon="5.98353">
        <ele>2308.2</ele>
        <time>2021-04-17T11:15:57Z</time>
      </trkpt>
      <trkpt lat="45.19474" lon="5.98353">
        <ele>2308.2</ele>
        <time>2021-04-17T11:16:02Z</time>
      </trkpt>
      <trkpt lat="45.19474" lon="5.98353">
        <ele>2308.2</ele>
        <time>2021-04-17T11:16:06Z</time>
      </trkpt>
      <trkpt lat="45.19474" lon="5.98353">
        <ele>2308.2</ele>
        <time>2021-04-17T11:16:08Z</time>
      </trkpt>
      <trkpt lat="45.19474" lon="5.98352">
        <ele>2308.2</ele>
        <time>2021-04-17T11:16:10Z</time>
      </trkpt>
      <trkpt lat="45.19474" lon="5.98352">
        <ele>2308.2</ele>
        <time>2021-04-17T11:16:16Z</time>
      </trkpt>
      <trkpt lat="45.19475" lon="5.98352">
        <ele>2308.2</ele>
        <time>2021-04-17T11:16:18Z</time>
      </trkpt>
      <trkpt lat="45.19475" lon="5.98352">
        <ele>2308.2</ele>
        <time>2021-04-17T11:16:24Z</time>
      </trkpt>
      <trkpt lat="45.19475" lon="5.98352">
        <ele>2308.2</ele>
        <time>2021-04-17T11:16:27Z</time>
      </trkpt>
      <trkpt lat="45.19475" lon="5.98352">
        <ele>2308.2</ele>
        <time>2021-04-17T11:16:28Z</time>
      </trkpt>
      <trkpt lat="45.19475" lon="5.98352">
        <ele>2308.2</ele>
        <time>2021-04-17T11:16:29Z</time>
      </trkpt>
      <trkpt lat="45.19475" lon="5.98352">
        <ele>2308.2</ele>
        <time>2021-04-17T11:16:30Z</time>
      </trkpt>
      <trkpt lat="45.19475" lon="5.98352">
        <ele>2308.2</ele>
        <time>2021-04-17T11:16:31Z</time>
      </trkpt>
      <trkpt lat="45.19475" lon="5.98352">
        <ele>2308.2</ele>
        <time>2021-04-17T11:16:32Z</time>
      </trkpt>
      <trkpt lat="45.19475" lon="5.98352">
        <ele>2308.2</ele>
        <time>2021-04-17T11:16:35Z</time>
      </trkpt>
      <trkpt lat="45.19475" lon="5.98352">
        <ele>2308.2</ele>
        <time>2021-04-17T11:16:36Z</time>
      </trkpt>
      <trkpt lat="45.19475" lon="5.98352">
        <ele>2308.2</ele>
        <time>2021-04-17T11:16:37Z</time>
      </trkpt>
      <trkpt lat="45.19475" lon="5.98352">
        <ele>2308.2</ele>
        <time>2021-04-17T11:16:38Z</time>
      </trkpt>
      <trkpt lat="45.19475" lon="5.98352">
        <ele>2308.2</ele>
        <time>2021-04-17T11:16:40Z</time>
      </trkpt>
      <trkpt lat="45.19475" lon="5.98352">
        <ele>2308.2</ele>
        <time>2021-04-17T11:16:46Z</time>
      </trkpt>
      <trkpt lat="45.19475" lon="5.98352">
        <ele>2308.2</ele>
        <time>2021-04-17T11:16:52Z</time>
      </trkpt>
      <trkpt lat="45.19475" lon="5.98352">
        <ele>2308.2</ele>
        <time>2021-04-17T11:16:54Z</time>
      </trkpt>
      <trkpt lat="45.19475" lon="5.98352">
        <ele>2308.2</ele>
        <time>2021-04-17T11:16:55Z</time>
      </trkpt>
      <trkpt lat="45.19475" lon="5.98352">
        <ele>2308.2</ele>
        <time>2021-04-17T11:16:58Z</time>
      </trkpt>
      <trkpt lat="45.19475" lon="5.98352">
        <ele>2308.2</ele>
        <time>2021-04-17T11:17:01Z</time>
      </trkpt>
      <trkpt lat="45.19475" lon="5.98352">
        <ele>2308.2</ele>
        <time>2021-04-17T11:17:03Z</time>
      </trkpt>
      <trkpt lat="45.19475" lon="5.98352">
        <ele>2308.2</ele>
        <time>2021-04-17T11:17:05Z</time>
      </trkpt>
      <trkpt lat="45.19475" lon="5.98352">
        <ele>2308.2</ele>
        <time>2021-04-17T11:17:10Z</time>
      </trkpt>
      <trkpt lat="45.19475" lon="5.98352">
        <ele>2308.2</ele>
        <time>2021-04-17T11:17:13Z</time>
      </trkpt>
      <trkpt lat="45.19475" lon="5.98352">
        <ele>2308.2</ele>
        <time>2021-04-17T11:17:14Z</time>
      </trkpt>
      <trkpt lat="45.19475" lon="5.98352">
        <ele>2308.2</ele>
        <time>2021-04-17T11:17:15Z</time>
      </trkpt>
      <trkpt lat="45.19476" lon="5.98353">
        <ele>2308.2</ele>
        <time>2021-04-17T11:17:19Z</time>
      </trkpt>
      <trkpt lat="45.19476" lon="5.98355">
        <ele>2308.2</ele>
        <time>2021-04-17T11:17:21Z</time>
      </trkpt>
      <trkpt lat="45.19477" lon="5.98357">
        <ele>2308.2</ele>
        <time>2021-04-17T11:17:24Z</time>
      </trkpt>
      <trkpt lat="45.19477" lon="5.98357">
        <ele>2308.2</ele>
        <time>2021-04-17T11:17:27Z</time>
      </trkpt>
      <trkpt lat="45.19477" lon="5.98357">
        <ele>2308.2</ele>
        <time>2021-04-17T11:17:29Z</time>
      </trkpt>
      <trkpt lat="45.19479" lon="5.98357">
        <ele>2308.2</ele>
        <time>2021-04-17T11:17:30Z</time>
      </trkpt>
      <trkpt lat="45.19484" lon="5.98359">
        <ele>2308.6</ele>
        <time>2021-04-17T11:17:34Z</time>
      </trkpt>
      <trkpt lat="45.19485" lon="5.98362">
        <ele>2308.4</ele>
        <time>2021-04-17T11:17:36Z</time>
      </trkpt>
      <trkpt lat="45.19485" lon="5.98363">
        <ele>2308.6</ele>
        <time>2021-04-17T11:17:37Z</time>
      </trkpt>
      <trkpt lat="45.19484" lon="5.98366">
        <ele>2309</ele>
        <time>2021-04-17T11:17:41Z</time>
      </trkpt>
      <trkpt lat="45.19483" lon="5.98368">
        <ele>2309.4</ele>
        <time>2021-04-17T11:17:44Z</time>
      </trkpt>
      <trkpt lat="45.19481" lon="5.9837">
        <ele>2310.2</ele>
        <time>2021-04-17T11:17:47Z</time>
      </trkpt>
      <trkpt lat="45.1948" lon="5.98371">
        <ele>2310.6</ele>
        <time>2021-04-17T11:17:49Z</time>
      </trkpt>
      <trkpt lat="45.19479" lon="5.98372">
        <ele>2311</ele>
        <time>2021-04-17T11:17:51Z</time>
      </trkpt>
      <trkpt lat="45.19478" lon="5.98373">
        <ele>2311.6</ele>
        <time>2021-04-17T11:17:53Z</time>
      </trkpt>
      <trkpt lat="45.19478" lon="5.98374">
        <ele>2311.8</ele>
        <time>2021-04-17T11:17:54Z</time>
      </trkpt>
      <trkpt lat="45.19478" lon="5.98375">
        <ele>2312.2</ele>
        <time>2021-04-17T11:17:56Z</time>
      </trkpt>
      <trkpt lat="45.19479" lon="5.98377">
        <ele>2312.8</ele>
        <time>2021-04-17T11:17:59Z</time>
      </trkpt>
      <trkpt lat="45.19482" lon="5.98379">
        <ele>2313.6</ele>
        <time>2021-04-17T11:18:02Z</time>
      </trkpt>
      <trkpt lat="45.19484" lon="5.9838">
        <ele>2314</ele>
        <time>2021-04-17T11:18:04Z</time>
      </trkpt>
      <trkpt lat="45.19488" lon="5.98384">
        <ele>2315.2</ele>
        <time>2021-04-17T11:18:10Z</time>
      </trkpt>
      <trkpt lat="45.19488" lon="5.98385">
        <ele>2315.4</ele>
        <time>2021-04-17T11:18:11Z</time>
      </trkpt>
      <trkpt lat="45.19491" lon="5.98389">
        <ele>2316.2</ele>
        <time>2021-04-17T11:18:15Z</time>
      </trkpt>
      <trkpt lat="45.19494" lon="5.98395">
        <ele>2317.2</ele>
        <time>2021-04-17T11:18:21Z</time>
      </trkpt>
      <trkpt lat="45.19495" lon="5.98396">
        <ele>2317.4</ele>
        <time>2021-04-17T11:18:22Z</time>
      </trkpt>
      <trkpt lat="45.19498" lon="5.98402">
        <ele>2318</ele>
        <time>2021-04-17T11:18:28Z</time>
      </trkpt>
      <trkpt lat="45.19498" lon="5.98403">
        <ele>2318.2</ele>
        <time>2021-04-17T11:18:29Z</time>
      </trkpt>
      <trkpt lat="45.195" lon="5.98407">
        <ele>2319</ele>
        <time>2021-04-17T11:18:33Z</time>
      </trkpt>
      <trkpt lat="45.195" lon="5.98408">
        <ele>2319.2</ele>
        <time>2021-04-17T11:18:34Z</time>
      </trkpt>
      <trkpt lat="45.195" lon="5.98409">
        <ele>2319.4</ele>
        <time>2021-04-17T11:18:35Z</time>
      </trkpt>
      <trkpt lat="45.195" lon="5.98412">
        <ele>2320.4</ele>
        <time>2021-04-17T11:18:38Z</time>
      </trkpt>
      <trkpt lat="45.19501" lon="5.98417">
        <ele>2321.2</ele>
        <time>2021-04-17T11:18:42Z</time>
      </trkpt>
      <trkpt lat="45.19501" lon="5.9842">
        <ele>2321.4</ele>
        <time>2021-04-17T11:18:44Z</time>
      </trkpt>
      <trkpt lat="45.19501" lon="5.98427">
        <ele>2322</ele>
        <time>2021-04-17T11:18:50Z</time>
      </trkpt>
      <trkpt lat="45.19502" lon="5.9843">
        <ele>2322.2</ele>
        <time>2021-04-17T11:18:52Z</time>
      </trkpt>
      <trkpt lat="45.19502" lon="5.98431">
        <ele>2322.4</ele>
        <time>2021-04-17T11:18:53Z</time>
      </trkpt>
      <trkpt lat="45.19503" lon="5.9844">
        <ele>2323.4</ele>
        <time>2021-04-17T11:18:59Z</time>
      </trkpt>
      <trkpt lat="45.19503" lon="5.98442">
        <ele>2323.6</ele>
        <time>2021-04-17T11:19:01Z</time>
      </trkpt>
      <trkpt lat="45.19504" lon="5.98444">
        <ele>2324</ele>
        <time>2021-04-17T11:19:03Z</time>
      </trkpt>
      <trkpt lat="45.19504" lon="5.98451">
        <ele>2325</ele>
        <time>2021-04-17T11:19:09Z</time>
      </trkpt>
      <trkpt lat="45.19502" lon="5.98456">
        <ele>2326.2</ele>
        <time>2021-04-17T11:19:14Z</time>
      </trkpt>
      <trkpt lat="45.19501" lon="5.98463">
        <ele>2327.2</ele>
        <time>2021-04-17T11:19:20Z</time>
      </trkpt>
      <trkpt lat="45.19499" lon="5.98465">
        <ele>2327.6</ele>
        <time>2021-04-17T11:19:22Z</time>
      </trkpt>
      <trkpt lat="45.19497" lon="5.98469">
        <ele>2328.4</ele>
        <time>2021-04-17T11:19:26Z</time>
      </trkpt>
      <trkpt lat="45.19494" lon="5.98476">
        <ele>2329.4</ele>
        <time>2021-04-17T11:19:32Z</time>
      </trkpt>
      <trkpt lat="45.19492" lon="5.98479">
        <ele>2330.6</ele>
        <time>2021-04-17T11:19:37Z</time>
      </trkpt>
      <trkpt lat="45.19491" lon="5.98481">
        <ele>2331.2</ele>
        <time>2021-04-17T11:19:39Z</time>
      </trkpt>
      <trkpt lat="45.19489" lon="5.98484">
        <ele>2331.8</ele>
        <time>2021-04-17T11:19:42Z</time>
      </trkpt>
      <trkpt lat="45.19489" lon="5.98484">
        <ele>2332</ele>
        <time>2021-04-17T11:19:48Z</time>
      </trkpt>
      <trkpt lat="45.19488" lon="5.98483">
        <ele>2332.2</ele>
        <time>2021-04-17T11:19:51Z</time>
      </trkpt>
      <trkpt lat="45.19489" lon="5.98482">
        <ele>2332.2</ele>
        <time>2021-04-17T11:19:55Z</time>
      </trkpt>
      <trkpt lat="45.19489" lon="5.98482">
        <ele>2332.2</ele>
        <time>2021-04-17T11:19:57Z</time>
      </trkpt>
      <trkpt lat="45.19489" lon="5.98482">
        <ele>2332.4</ele>
        <time>2021-04-17T11:20:00Z</time>
      </trkpt>
      <trkpt lat="45.19489" lon="5.98482">
        <ele>2332.6</ele>
        <time>2021-04-17T11:20:02Z</time>
      </trkpt>
      <trkpt lat="45.19489" lon="5.98483">
        <ele>2332.6</ele>
        <time>2021-04-17T11:20:04Z</time>
      </trkpt>
      <trkpt lat="45.19489" lon="5.98483">
        <ele>2332.8</ele>
        <time>2021-04-17T11:20:05Z</time>
      </trkpt>
      <trkpt lat="45.19488" lon="5.98484">
        <ele>2333</ele>
        <time>2021-04-17T11:20:09Z</time>
      </trkpt>
      <trkpt lat="45.19487" lon="5.98485">
        <ele>2333.2</ele>
        <time>2021-04-17T11:20:12Z</time>
      </trkpt>
      <trkpt lat="45.19487" lon="5.98485">
        <ele>2333.2</ele>
        <time>2021-04-17T11:20:13Z</time>
      </trkpt>
      <trkpt lat="45.19487" lon="5.98485">
        <ele>2333.2</ele>
        <time>2021-04-17T11:20:14Z</time>
      </trkpt>
      <trkpt lat="45.19487" lon="5.98485">
        <ele>2333.4</ele>
        <time>2021-04-17T11:20:16Z</time>
      </trkpt>
      <trkpt lat="45.19485" lon="5.98487">
        <ele>2333.8</ele>
        <time>2021-04-17T11:20:18Z</time>
      </trkpt>
      <trkpt lat="45.19484" lon="5.98489">
        <ele>2334.2</ele>
        <time>2021-04-17T11:20:19Z</time>
      </trkpt>
      <trkpt lat="45.19482" lon="5.98491">
        <ele>2334.4</ele>
        <time>2021-04-17T11:20:21Z</time>
      </trkpt>
      <trkpt lat="45.1948" lon="5.98494">
        <ele>2335</ele>
        <time>2021-04-17T11:20:23Z</time>
      </trkpt>
      <trkpt lat="45.19478" lon="5.98495">
        <ele>2335.2</ele>
        <time>2021-04-17T11:20:25Z</time>
      </trkpt>
      <trkpt lat="45.19478" lon="5.98495">
        <ele>2335.4</ele>
        <time>2021-04-17T11:20:27Z</time>
      </trkpt>
      <trkpt lat="45.19478" lon="5.98496">
        <ele>2335.4</ele>
        <time>2021-04-17T11:20:28Z</time>
      </trkpt>
      <trkpt lat="45.19475" lon="5.98499">
        <ele>2335.4</ele>
        <time>2021-04-17T11:20:32Z</time>
      </trkpt>
      <trkpt lat="45.19472" lon="5.985">
        <ele>2336</ele>
        <time>2021-04-17T11:20:35Z</time>
      </trkpt>
      <trkpt lat="45.19469" lon="5.98503">
        <ele>2336.6</ele>
        <time>2021-04-17T11:20:39Z</time>
      </trkpt>
      <trkpt lat="45.19468" lon="5.98505">
        <ele>2337.2</ele>
        <time>2021-04-17T11:20:42Z</time>
      </trkpt>
      <trkpt lat="45.19465" lon="5.98508">
        <ele>2337.8</ele>
        <time>2021-04-17T11:20:46Z</time>
      </trkpt>
      <trkpt lat="45.19464" lon="5.98509">
        <ele>2338.4</ele>
        <time>2021-04-17T11:20:48Z</time>
      </trkpt>
      <trkpt lat="45.19463" lon="5.9851">
        <ele>2338.6</ele>
        <time>2021-04-17T11:20:50Z</time>
      </trkpt>
      <trkpt lat="45.1946" lon="5.98512">
        <ele>2339.2</ele>
        <time>2021-04-17T11:20:54Z</time>
      </trkpt>
      <trkpt lat="45.19459" lon="5.98513">
        <ele>2339.6</ele>
        <time>2021-04-17T11:20:56Z</time>
      </trkpt>
      <trkpt lat="45.19458" lon="5.98514">
        <ele>2340</ele>
        <time>2021-04-17T11:20:59Z</time>
      </trkpt>
      <trkpt lat="45.19458" lon="5.98514">
        <ele>2340.2</ele>
        <time>2021-04-17T11:21:02Z</time>
      </trkpt>
      <trkpt lat="45.19458" lon="5.98514">
        <ele>2340.2</ele>
        <time>2021-04-17T11:21:03Z</time>
      </trkpt>
      <trkpt lat="45.19458" lon="5.98514">
        <ele>2340.4</ele>
        <time>2021-04-17T11:21:09Z</time>
      </trkpt>
      <trkpt lat="45.19458" lon="5.98514">
        <ele>2340.4</ele>
        <time>2021-04-17T11:21:12Z</time>
      </trkpt>
      <trkpt lat="45.19458" lon="5.98514">
        <ele>2340.6</ele>
        <time>2021-04-17T11:21:15Z</time>
      </trkpt>
      <trkpt lat="45.19458" lon="5.98514">
        <ele>2340.8</ele>
        <time>2021-04-17T11:21:18Z</time>
      </trkpt>
      <trkpt lat="45.19458" lon="5.98514">
        <ele>2340.8</ele>
        <time>2021-04-17T11:21:19Z</time>
      </trkpt>
      <trkpt lat="45.19458" lon="5.98514">
        <ele>2340.8</ele>
        <time>2021-04-17T11:21:21Z</time>
      </trkpt>
      <trkpt lat="45.19458" lon="5.98514">
        <ele>2340.8</ele>
        <time>2021-04-17T11:21:22Z</time>
      </trkpt>
      <trkpt lat="45.19458" lon="5.98514">
        <ele>2340.8</ele>
        <time>2021-04-17T11:21:24Z</time>
      </trkpt>
      <trkpt lat="45.19458" lon="5.98514">
        <ele>2340.8</ele>
        <time>2021-04-17T11:21:25Z</time>
      </trkpt>
      <trkpt lat="45.19458" lon="5.98514">
        <ele>2341</ele>
        <time>2021-04-17T11:21:30Z</time>
      </trkpt>
      <trkpt lat="45.19458" lon="5.98514">
        <ele>2341.4</ele>
        <time>2021-04-17T11:21:34Z</time>
      </trkpt>
      <trkpt lat="45.19458" lon="5.98514">
        <ele>2341.6</ele>
        <time>2021-04-17T11:21:40Z</time>
      </trkpt>
      <trkpt lat="45.19458" lon="5.98514">
        <ele>2341.6</ele>
        <time>2021-04-17T11:21:41Z</time>
      </trkpt>
      <trkpt lat="45.19458" lon="5.98514">
        <ele>2341.6</ele>
        <time>2021-04-17T11:21:43Z</time>
      </trkpt>
      <trkpt lat="45.19457" lon="5.98514">
        <ele>2341.6</ele>
        <time>2021-04-17T11:21:45Z</time>
      </trkpt>
      <trkpt lat="45.19457" lon="5.98515">
        <ele>2341.6</ele>
        <time>2021-04-17T11:21:47Z</time>
      </trkpt>
      <trkpt lat="45.19457" lon="5.98515">
        <ele>2341.6</ele>
        <time>2021-04-17T11:21:49Z</time>
      </trkpt>
      <trkpt lat="45.19456" lon="5.98515">
        <ele>2341.8</ele>
        <time>2021-04-17T11:21:51Z</time>
      </trkpt>
      <trkpt lat="45.19456" lon="5.98515">
        <ele>2341.8</ele>
        <time>2021-04-17T11:21:52Z</time>
      </trkpt>
      <trkpt lat="45.19456" lon="5.98515">
        <ele>2341.8</ele>
        <time>2021-04-17T11:21:55Z</time>
      </trkpt>
      <trkpt lat="45.19456" lon="5.98515">
        <ele>2341.8</ele>
        <time>2021-04-17T11:21:57Z</time>
      </trkpt>
      <trkpt lat="45.19456" lon="5.98515">
        <ele>2341.8</ele>
        <time>2021-04-17T11:21:59Z</time>
      </trkpt>
      <trkpt lat="45.19456" lon="5.98515">
        <ele>2341.8</ele>
        <time>2021-04-17T11:22:00Z</time>
      </trkpt>
      <trkpt lat="45.19456" lon="5.98515">
        <ele>2341.8</ele>
        <time>2021-04-17T11:22:01Z</time>
      </trkpt>
      <trkpt lat="45.19456" lon="5.98515">
        <ele>2341.8</ele>
        <time>2021-04-17T11:22:02Z</time>
      </trkpt>
      <trkpt lat="45.19456" lon="5.98515">
        <ele>2341.8</ele>
        <time>2021-04-17T11:22:03Z</time>
      </trkpt>
      <trkpt lat="45.19456" lon="5.98515">
        <ele>2342</ele>
        <time>2021-04-17T11:22:04Z</time>
      </trkpt>
      <trkpt lat="45.19452" lon="5.98517">
        <ele>2342.4</ele>
        <time>2021-04-17T11:22:07Z</time>
      </trkpt>
      <trkpt lat="45.19451" lon="5.98518">
        <ele>2342.6</ele>
        <time>2021-04-17T11:22:08Z</time>
      </trkpt>
      <trkpt lat="45.19446" lon="5.98522">
        <ele>2343.6</ele>
        <time>2021-04-17T11:22:14Z</time>
      </trkpt>
      <trkpt lat="45.19445" lon="5.98522">
        <ele>2343.8</ele>
        <time>2021-04-17T11:22:15Z</time>
      </trkpt>
      <trkpt lat="45.19444" lon="5.98523">
        <ele>2344.2</ele>
        <time>2021-04-17T11:22:17Z</time>
      </trkpt>
      <trkpt lat="45.19443" lon="5.98523">
        <ele>2344.4</ele>
        <time>2021-04-17T11:22:19Z</time>
      </trkpt>
      <trkpt lat="45.19443" lon="5.98523">
        <ele>2344.6</ele>
        <time>2021-04-17T11:22:21Z</time>
      </trkpt>
      <trkpt lat="45.19442" lon="5.98523">
        <ele>2344.6</ele>
        <time>2021-04-17T11:22:24Z</time>
      </trkpt>
      <trkpt lat="45.19441" lon="5.98523">
        <ele>2344.8</ele>
        <time>2021-04-17T11:22:25Z</time>
      </trkpt>
      <trkpt lat="45.19439" lon="5.98523">
        <ele>2345.4</ele>
        <time>2021-04-17T11:22:28Z</time>
      </trkpt>
      <trkpt lat="45.19437" lon="5.98523">
        <ele>2345.8</ele>
        <time>2021-04-17T11:22:30Z</time>
      </trkpt>
      <trkpt lat="45.19437" lon="5.98524">
        <ele>2346</ele>
        <time>2021-04-17T11:22:31Z</time>
      </trkpt>
      <trkpt lat="45.19435" lon="5.98524">
        <ele>2346.4</ele>
        <time>2021-04-17T11:22:34Z</time>
      </trkpt>
      <trkpt lat="45.19433" lon="5.98524">
        <ele>2346.8</ele>
        <time>2021-04-17T11:22:36Z</time>
      </trkpt>
      <trkpt lat="45.19432" lon="5.98526">
        <ele>2347.6</ele>
        <time>2021-04-17T11:22:41Z</time>
      </trkpt>
      <trkpt lat="45.19432" lon="5.98527">
        <ele>2348</ele>
        <time>2021-04-17T11:22:43Z</time>
      </trkpt>
      <trkpt lat="45.19434" lon="5.98531">
        <ele>2348.4</ele>
        <time>2021-04-17T11:22:47Z</time>
      </trkpt>
      <trkpt lat="45.19435" lon="5.98533">
        <ele>2348.8</ele>
        <time>2021-04-17T11:22:49Z</time>
      </trkpt>
      <trkpt lat="45.19436" lon="5.98535">
        <ele>2349</ele>
        <time>2021-04-17T11:22:51Z</time>
      </trkpt>
      <trkpt lat="45.1944" lon="5.98539">
        <ele>2349.8</ele>
        <time>2021-04-17T11:22:56Z</time>
      </trkpt>
      <trkpt lat="45.19442" lon="5.9854">
        <ele>2350.2</ele>
        <time>2021-04-17T11:22:58Z</time>
      </trkpt>
      <trkpt lat="45.19443" lon="5.98541">
        <ele>2350.2</ele>
        <time>2021-04-17T11:23:00Z</time>
      </trkpt>
      <trkpt lat="45.19448" lon="5.98542">
        <ele>2351.4</ele>
        <time>2021-04-17T11:23:06Z</time>
      </trkpt>
      <trkpt lat="45.1945" lon="5.98544">
        <ele>2351.8</ele>
        <time>2021-04-17T11:23:10Z</time>
      </trkpt>
      <trkpt lat="45.19452" lon="5.98545">
        <ele>2352.4</ele>
        <time>2021-04-17T11:23:13Z</time>
      </trkpt>
      <trkpt lat="45.19456" lon="5.98547">
        <ele>2353.6</ele>
        <time>2021-04-17T11:23:19Z</time>
      </trkpt>
      <trkpt lat="45.1946" lon="5.9855">
        <ele>2354.6</ele>
        <time>2021-04-17T11:23:24Z</time>
      </trkpt>
      <trkpt lat="45.19464" lon="5.9855">
        <ele>2355.6</ele>
        <time>2021-04-17T11:23:30Z</time>
      </trkpt>
      <trkpt lat="45.19465" lon="5.98551">
        <ele>2355.8</ele>
        <time>2021-04-17T11:23:31Z</time>
      </trkpt>
      <trkpt lat="45.19469" lon="5.98554">
        <ele>2357</ele>
        <time>2021-04-17T11:23:37Z</time>
      </trkpt>
      <trkpt lat="45.19471" lon="5.98556">
        <ele>2357.4</ele>
        <time>2021-04-17T11:23:40Z</time>
      </trkpt>
      <trkpt lat="45.19473" lon="5.98557">
        <ele>2358</ele>
        <time>2021-04-17T11:23:43Z</time>
      </trkpt>
      <trkpt lat="45.19476" lon="5.98559">
        <ele>2359.2</ele>
        <time>2021-04-17T11:23:46Z</time>
      </trkpt>
      <trkpt lat="45.19477" lon="5.98563">
        <ele>2360.2</ele>
        <time>2021-04-17T11:23:50Z</time>
      </trkpt>
      <trkpt lat="45.19477" lon="5.98564">
        <ele>2360.4</ele>
        <time>2021-04-17T11:23:51Z</time>
      </trkpt>
      <trkpt lat="45.19476" lon="5.98565">
        <ele>2360.6</ele>
        <time>2021-04-17T11:23:53Z</time>
      </trkpt>
      <trkpt lat="45.19475" lon="5.98566">
        <ele>2360.8</ele>
        <time>2021-04-17T11:23:55Z</time>
      </trkpt>
      <trkpt lat="45.19474" lon="5.98568">
        <ele>2361.4</ele>
        <time>2021-04-17T11:23:58Z</time>
      </trkpt>
      <trkpt lat="45.1947" lon="5.98572">
        <ele>2362</ele>
        <time>2021-04-17T11:24:04Z</time>
      </trkpt>
      <trkpt lat="45.1947" lon="5.98573">
        <ele>2362.2</ele>
        <time>2021-04-17T11:24:05Z</time>
      </trkpt>
      <trkpt lat="45.19468" lon="5.98575">
        <ele>2362.6</ele>
        <time>2021-04-17T11:24:07Z</time>
      </trkpt>
      <trkpt lat="45.19465" lon="5.98581">
        <ele>2363.2</ele>
        <time>2021-04-17T11:24:13Z</time>
      </trkpt>
      <trkpt lat="45.19464" lon="5.98583">
        <ele>2363.6</ele>
        <time>2021-04-17T11:24:15Z</time>
      </trkpt>
      <trkpt lat="45.19463" lon="5.98587">
        <ele>2364.2</ele>
        <time>2021-04-17T11:24:19Z</time>
      </trkpt>
      <trkpt lat="45.19462" lon="5.98589">
        <ele>2364.6</ele>
        <time>2021-04-17T11:24:21Z</time>
      </trkpt>
      <trkpt lat="45.19462" lon="5.9859">
        <ele>2365</ele>
        <time>2021-04-17T11:24:22Z</time>
      </trkpt>
      <trkpt lat="45.1946" lon="5.98595">
        <ele>2365.8</ele>
        <time>2021-04-17T11:24:27Z</time>
      </trkpt>
      <trkpt lat="45.19459" lon="5.98602">
        <ele>2366.8</ele>
        <time>2021-04-17T11:24:33Z</time>
      </trkpt>
      <trkpt lat="45.19459" lon="5.98603">
        <ele>2367</ele>
        <time>2021-04-17T11:24:34Z</time>
      </trkpt>
      <trkpt lat="45.19459" lon="5.98609">
        <ele>2368</ele>
        <time>2021-04-17T11:24:39Z</time>
      </trkpt>
      <trkpt lat="45.1946" lon="5.98613">
        <ele>2368.4</ele>
        <time>2021-04-17T11:24:42Z</time>
      </trkpt>
      <trkpt lat="45.1946" lon="5.98615">
        <ele>2368.6</ele>
        <time>2021-04-17T11:24:44Z</time>
      </trkpt>
      <trkpt lat="45.19461" lon="5.98616">
        <ele>2369</ele>
        <time>2021-04-17T11:24:46Z</time>
      </trkpt>
      <trkpt lat="45.19463" lon="5.98618">
        <ele>2370</ele>
        <time>2021-04-17T11:24:50Z</time>
      </trkpt>
      <trkpt lat="45.19464" lon="5.98618">
        <ele>2370.4</ele>
        <time>2021-04-17T11:24:51Z</time>
      </trkpt>
      <trkpt lat="45.19468" lon="5.9862">
        <ele>2371.4</ele>
        <time>2021-04-17T11:24:57Z</time>
      </trkpt>
      <trkpt lat="45.19469" lon="5.9862">
        <ele>2371.4</ele>
        <time>2021-04-17T11:24:58Z</time>
      </trkpt>
      <trkpt lat="45.19472" lon="5.9862">
        <ele>2372.2</ele>
        <time>2021-04-17T11:25:01Z</time>
      </trkpt>
      <trkpt lat="45.19473" lon="5.98621">
        <ele>2372.4</ele>
        <time>2021-04-17T11:25:02Z</time>
      </trkpt>
      <trkpt lat="45.19475" lon="5.98621">
        <ele>2372.8</ele>
        <time>2021-04-17T11:25:05Z</time>
      </trkpt>
      <trkpt lat="45.19477" lon="5.98624">
        <ele>2373.6</ele>
        <time>2021-04-17T11:25:08Z</time>
      </trkpt>
      <trkpt lat="45.19479" lon="5.98624">
        <ele>2374.2</ele>
        <time>2021-04-17T11:25:11Z</time>
      </trkpt>
      <trkpt lat="45.19483" lon="5.98625">
        <ele>2374.8</ele>
        <time>2021-04-17T11:25:15Z</time>
      </trkpt>
      <trkpt lat="45.19486" lon="5.98626">
        <ele>2375.4</ele>
        <time>2021-04-17T11:25:18Z</time>
      </trkpt>
      <trkpt lat="45.19488" lon="5.98627">
        <ele>2375.8</ele>
        <time>2021-04-17T11:25:21Z</time>
      </trkpt>
      <trkpt lat="45.19492" lon="5.98628">
        <ele>2376.4</ele>
        <time>2021-04-17T11:25:25Z</time>
      </trkpt>
      <trkpt lat="45.19493" lon="5.98629">
        <ele>2377</ele>
        <time>2021-04-17T11:25:27Z</time>
      </trkpt>
      <trkpt lat="45.19496" lon="5.98628">
        <ele>2378</ele>
        <time>2021-04-17T11:25:31Z</time>
      </trkpt>
      <trkpt lat="45.19497" lon="5.98628">
        <ele>2378.2</ele>
        <time>2021-04-17T11:25:32Z</time>
      </trkpt>
      <trkpt lat="45.195" lon="5.9863">
        <ele>2379</ele>
        <time>2021-04-17T11:25:36Z</time>
      </trkpt>
      <trkpt lat="45.19503" lon="5.9863">
        <ele>2380.2</ele>
        <time>2021-04-17T11:25:41Z</time>
      </trkpt>
      <trkpt lat="45.19502" lon="5.98632">
        <ele>2381.4</ele>
        <time>2021-04-17T11:25:47Z</time>
      </trkpt>
      <trkpt lat="45.19502" lon="5.98631">
        <ele>2381.4</ele>
        <time>2021-04-17T11:25:53Z</time>
      </trkpt>
      <trkpt lat="45.19502" lon="5.98631">
        <ele>2381.4</ele>
        <time>2021-04-17T11:25:57Z</time>
      </trkpt>
      <trkpt lat="45.19502" lon="5.98631">
        <ele>2381.6</ele>
        <time>2021-04-17T11:26:00Z</time>
      </trkpt>
      <trkpt lat="45.19502" lon="5.98631">
        <ele>2382</ele>
        <time>2021-04-17T11:26:02Z</time>
      </trkpt>
      <trkpt lat="45.19506" lon="5.98631">
        <ele>2382.4</ele>
        <time>2021-04-17T11:26:05Z</time>
      </trkpt>
      <trkpt lat="45.19507" lon="5.98631">
        <ele>2382.6</ele>
        <time>2021-04-17T11:26:06Z</time>
      </trkpt>
      <trkpt lat="45.19508" lon="5.9863">
        <ele>2382.8</ele>
        <time>2021-04-17T11:26:10Z</time>
      </trkpt>
      <trkpt lat="45.19509" lon="5.9863">
        <ele>2382.8</ele>
        <time>2021-04-17T11:26:11Z</time>
      </trkpt>
      <trkpt lat="45.19509" lon="5.9863">
        <ele>2382.8</ele>
        <time>2021-04-17T11:26:12Z</time>
      </trkpt>
      <trkpt lat="45.19509" lon="5.9863">
        <ele>2382.8</ele>
        <time>2021-04-17T11:26:13Z</time>
      </trkpt>
      <trkpt lat="45.1951" lon="5.98629">
        <ele>2382.8</ele>
        <time>2021-04-17T11:26:15Z</time>
      </trkpt>
      <trkpt lat="45.1951" lon="5.98629">
        <ele>2382.8</ele>
        <time>2021-04-17T11:26:18Z</time>
      </trkpt>
      <trkpt lat="45.1951" lon="5.98629">
        <ele>2382.8</ele>
        <time>2021-04-17T11:26:20Z</time>
      </trkpt>
      <trkpt lat="45.1951" lon="5.98629">
        <ele>2382.8</ele>
        <time>2021-04-17T11:26:21Z</time>
      </trkpt>
      <trkpt lat="45.19509" lon="5.98629">
        <ele>2382.6</ele>
        <time>2021-04-17T11:26:24Z</time>
      </trkpt>
      <trkpt lat="45.19509" lon="5.9863">
        <ele>2382.4</ele>
        <time>2021-04-17T11:26:30Z</time>
      </trkpt>
      <trkpt lat="45.19509" lon="5.9863">
        <ele>2382.4</ele>
        <time>2021-04-17T11:26:36Z</time>
      </trkpt>
      <trkpt lat="45.19509" lon="5.9863">
        <ele>2382.4</ele>
        <time>2021-04-17T11:26:38Z</time>
      </trkpt>
      <trkpt lat="45.19509" lon="5.9863">
        <ele>2382.4</ele>
        <time>2021-04-17T11:26:39Z</time>
      </trkpt>
      <trkpt lat="45.19509" lon="5.9863">
        <ele>2382.6</ele>
        <time>2021-04-17T11:26:42Z</time>
      </trkpt>
      <trkpt lat="45.19509" lon="5.9863">
        <ele>2382.6</ele>
        <time>2021-04-17T11:26:43Z</time>
      </trkpt>
      <trkpt lat="45.19509" lon="5.98629">
        <ele>2383</ele>
        <time>2021-04-17T11:26:49Z</time>
      </trkpt>
      <trkpt lat="45.19509" lon="5.98629">
        <ele>2383</ele>
        <time>2021-04-17T11:26:50Z</time>
      </trkpt>
      <trkpt lat="45.19509" lon="5.98629">
        <ele>2383.2</ele>
        <time>2021-04-17T11:26:51Z</time>
      </trkpt>
      <trkpt lat="45.1951" lon="5.98629">
        <ele>2383.2</ele>
        <time>2021-04-17T11:26:52Z</time>
      </trkpt>
      <trkpt lat="45.1951" lon="5.98629">
        <ele>2383.2</ele>
        <time>2021-04-17T11:26:53Z</time>
      </trkpt>
      <trkpt lat="45.1951" lon="5.98629">
        <ele>2383.2</ele>
        <time>2021-04-17T11:26:54Z</time>
      </trkpt>
      <trkpt lat="45.1951" lon="5.98629">
        <ele>2383.4</ele>
        <time>2021-04-17T11:26:56Z</time>
      </trkpt>
      <trkpt lat="45.19511" lon="5.98629">
        <ele>2383.6</ele>
        <time>2021-04-17T11:26:57Z</time>
      </trkpt>
      <trkpt lat="45.19512" lon="5.9863">
        <ele>2383.8</ele>
        <time>2021-04-17T11:26:58Z</time>
      </trkpt>
      <trkpt lat="45.19513" lon="5.98632">
        <ele>2384</ele>
        <time>2021-04-17T11:26:59Z</time>
      </trkpt>
      <trkpt lat="45.19513" lon="5.98633">
        <ele>2384.2</ele>
        <time>2021-04-17T11:27:00Z</time>
      </trkpt>
      <trkpt lat="45.19516" lon="5.98635">
        <ele>2384.6</ele>
        <time>2021-04-17T11:27:01Z</time>
      </trkpt>
      <trkpt lat="45.19517" lon="5.98636">
        <ele>2384.8</ele>
        <time>2021-04-17T11:27:03Z</time>
      </trkpt>
      <trkpt lat="45.1952" lon="5.98638">
        <ele>2385.2</ele>
        <time>2021-04-17T11:27:05Z</time>
      </trkpt>
      <trkpt lat="45.19522" lon="5.98639">
        <ele>2385.8</ele>
        <time>2021-04-17T11:27:07Z</time>
      </trkpt>
      <trkpt lat="45.19522" lon="5.9864">
        <ele>2386.4</ele>
        <time>2021-04-17T11:27:10Z</time>
      </trkpt>
      <trkpt lat="45.19522" lon="5.98641">
        <ele>2386.4</ele>
        <time>2021-04-17T11:27:11Z</time>
      </trkpt>
      <trkpt lat="45.19522" lon="5.98641">
        <ele>2386.6</ele>
        <time>2021-04-17T11:27:13Z</time>
      </trkpt>
      <trkpt lat="45.19522" lon="5.98641">
        <ele>2386.6</ele>
        <time>2021-04-17T11:27:18Z</time>
      </trkpt>
      <trkpt lat="45.19521" lon="5.98641">
        <ele>2386.2</ele>
        <time>2021-04-17T11:27:24Z</time>
      </trkpt>
      <trkpt lat="45.19521" lon="5.98641">
        <ele>2386.2</ele>
        <time>2021-04-17T11:27:27Z</time>
      </trkpt>
      <trkpt lat="45.19521" lon="5.98641">
        <ele>2386.2</ele>
        <time>2021-04-17T11:27:29Z</time>
      </trkpt>
      <trkpt lat="45.19521" lon="5.98641">
        <ele>2386.2</ele>
        <time>2021-04-17T11:27:31Z</time>
      </trkpt>
      <trkpt lat="45.19521" lon="5.98641">
        <ele>2386.8</ele>
        <time>2021-04-17T11:27:36Z</time>
      </trkpt>
      <trkpt lat="45.19524" lon="5.98644">
        <ele>2387.6</ele>
        <time>2021-04-17T11:27:40Z</time>
      </trkpt>
      <trkpt lat="45.19527" lon="5.98645">
        <ele>2387.8</ele>
        <time>2021-04-17T11:27:42Z</time>
      </trkpt>
      <trkpt lat="45.19528" lon="5.98647">
        <ele>2388</ele>
        <time>2021-04-17T11:27:43Z</time>
      </trkpt>
      <trkpt lat="45.19535" lon="5.98653">
        <ele>2388.6</ele>
        <time>2021-04-17T11:27:49Z</time>
      </trkpt>
      <trkpt lat="45.19536" lon="5.98653">
        <ele>2388.8</ele>
        <time>2021-04-17T11:27:50Z</time>
      </trkpt>
      <trkpt lat="45.19539" lon="5.98657">
        <ele>2389</ele>
        <time>2021-04-17T11:27:53Z</time>
      </trkpt>
      <trkpt lat="45.1954" lon="5.98657">
        <ele>2389</ele>
        <time>2021-04-17T11:27:54Z</time>
      </trkpt>
      <trkpt lat="45.19542" lon="5.98659">
        <ele>2389.2</ele>
        <time>2021-04-17T11:27:57Z</time>
      </trkpt>
      <trkpt lat="45.19546" lon="5.98661">
        <ele>2389.8</ele>
        <time>2021-04-17T11:28:01Z</time>
      </trkpt>
      <trkpt lat="45.19547" lon="5.98662">
        <ele>2390</ele>
        <time>2021-04-17T11:28:02Z</time>
      </trkpt>
      <trkpt lat="45.19548" lon="5.98663">
        <ele>2390.6</ele>
        <time>2021-04-17T11:28:05Z</time>
      </trkpt>
      <trkpt lat="45.19549" lon="5.98664">
        <ele>2390.8</ele>
        <time>2021-04-17T11:28:06Z</time>
      </trkpt>
      <trkpt lat="45.1955" lon="5.98665">
        <ele>2391.2</ele>
        <time>2021-04-17T11:28:08Z</time>
      </trkpt>
      <trkpt lat="45.19551" lon="5.98667">
        <ele>2391.8</ele>
        <time>2021-04-17T11:28:10Z</time>
      </trkpt>
      <trkpt lat="45.19551" lon="5.98669">
        <ele>2392.4</ele>
        <time>2021-04-17T11:28:12Z</time>
      </trkpt>
      <trkpt lat="45.19552" lon="5.98672">
        <ele>2393</ele>
        <time>2021-04-17T11:28:15Z</time>
      </trkpt>
      <trkpt lat="45.19554" lon="5.98677">
        <ele>2393.4</ele>
        <time>2021-04-17T11:28:19Z</time>
      </trkpt>
      <trkpt lat="45.19556" lon="5.98681">
        <ele>2394.2</ele>
        <time>2021-04-17T11:28:25Z</time>
      </trkpt>
      <trkpt lat="45.19557" lon="5.98683">
        <ele>2394.6</ele>
        <time>2021-04-17T11:28:27Z</time>
      </trkpt>
      <trkpt lat="45.19559" lon="5.98687">
        <ele>2395</ele>
        <time>2021-04-17T11:28:31Z</time>
      </trkpt>
      <trkpt lat="45.19561" lon="5.9869">
        <ele>2395.6</ele>
        <time>2021-04-17T11:28:34Z</time>
      </trkpt>
      <trkpt lat="45.19565" lon="5.98695">
        <ele>2396.8</ele>
        <time>2021-04-17T11:28:40Z</time>
      </trkpt>
      <trkpt lat="45.19568" lon="5.987">
        <ele>2398</ele>
        <time>2021-04-17T11:28:45Z</time>
      </trkpt>
      <trkpt lat="45.1957" lon="5.98703">
        <ele>2398.6</ele>
        <time>2021-04-17T11:28:48Z</time>
      </trkpt>
      <trkpt lat="45.1957" lon="5.98703">
        <ele>2398.8</ele>
        <time>2021-04-17T11:28:49Z</time>
      </trkpt>
      <trkpt lat="45.19571" lon="5.98704">
        <ele>2399</ele>
        <time>2021-04-17T11:28:50Z</time>
      </trkpt>
      <trkpt lat="45.19574" lon="5.98708">
        <ele>2400.2</ele>
        <time>2021-04-17T11:28:56Z</time>
      </trkpt>
      <trkpt lat="45.19574" lon="5.98708">
        <ele>2400.4</ele>
        <time>2021-04-17T11:28:57Z</time>
      </trkpt>
      <trkpt lat="45.19576" lon="5.98704">
        <ele>2401.2</ele>
        <time>2021-04-17T11:29:02Z</time>
      </trkpt>
      <trkpt lat="45.19578" lon="5.98703">
        <ele>2401.8</ele>
        <time>2021-04-17T11:29:05Z</time>
      </trkpt>
      <trkpt lat="45.19579" lon="5.98701">
        <ele>2402.2</ele>
        <time>2021-04-17T11:29:08Z</time>
      </trkpt>
      <trkpt lat="45.19581" lon="5.98697">
        <ele>2403</ele>
        <time>2021-04-17T11:29:12Z</time>
      </trkpt>
      <trkpt lat="45.19583" lon="5.98695">
        <ele>2403.4</ele>
        <time>2021-04-17T11:29:14Z</time>
      </trkpt>
      <trkpt lat="45.19584" lon="5.98693">
        <ele>2404</ele>
        <time>2021-04-17T11:29:17Z</time>
      </trkpt>
      <trkpt lat="45.19584" lon="5.98692">
        <ele>2404.4</ele>
        <time>2021-04-17T11:29:18Z</time>
      </trkpt>
      <trkpt lat="45.19585" lon="5.98691">
        <ele>2404.8</ele>
        <time>2021-04-17T11:29:21Z</time>
      </trkpt>
      <trkpt lat="45.19587" lon="5.98696">
        <ele>2405.6</ele>
        <time>2021-04-17T11:29:26Z</time>
      </trkpt>
      <trkpt lat="45.19587" lon="5.98698">
        <ele>2406</ele>
        <time>2021-04-17T11:29:28Z</time>
      </trkpt>
      <trkpt lat="45.19588" lon="5.98702">
        <ele>2406.6</ele>
        <time>2021-04-17T11:29:31Z</time>
      </trkpt>
      <trkpt lat="45.19589" lon="5.98709">
        <ele>2407.6</ele>
        <time>2021-04-17T11:29:37Z</time>
      </trkpt>
      <trkpt lat="45.1959" lon="5.98713">
        <ele>2408.8</ele>
        <time>2021-04-17T11:29:41Z</time>
      </trkpt>
      <trkpt lat="45.19589" lon="5.98713">
        <ele>2409.4</ele>
        <time>2021-04-17T11:29:43Z</time>
      </trkpt>
      <trkpt lat="45.19589" lon="5.98713">
        <ele>2409.8</ele>
        <time>2021-04-17T11:29:47Z</time>
      </trkpt>
      <trkpt lat="45.1959" lon="5.98714">
        <ele>2409.8</ele>
        <time>2021-04-17T11:29:48Z</time>
      </trkpt>
      <trkpt lat="45.19591" lon="5.98715">
        <ele>2410.6</ele>
        <time>2021-04-17T11:29:54Z</time>
      </trkpt>
      <trkpt lat="45.1959" lon="5.98715">
        <ele>2410.8</ele>
        <time>2021-04-17T11:29:55Z</time>
      </trkpt>
      <trkpt lat="45.1959" lon="5.98716">
        <ele>2411.4</ele>
        <time>2021-04-17T11:30:01Z</time>
      </trkpt>
      <trkpt lat="45.19591" lon="5.98715">
        <ele>2411.6</ele>
        <time>2021-04-17T11:30:03Z</time>
      </trkpt>
      <trkpt lat="45.19593" lon="5.98714">
        <ele>2412</ele>
        <time>2021-04-17T11:30:05Z</time>
      </trkpt>
      <trkpt lat="45.19598" lon="5.9871">
        <ele>2413.2</ele>
        <time>2021-04-17T11:30:10Z</time>
      </trkpt>
      <trkpt lat="45.19599" lon="5.9871">
        <ele>2413.6</ele>
        <time>2021-04-17T11:30:11Z</time>
      </trkpt>
      <trkpt lat="45.19602" lon="5.98707">
        <ele>2414.4</ele>
        <time>2021-04-17T11:30:15Z</time>
      </trkpt>
      <trkpt lat="45.19605" lon="5.98705">
        <ele>2415</ele>
        <time>2021-04-17T11:30:19Z</time>
      </trkpt>
      <trkpt lat="45.19607" lon="5.98703">
        <ele>2415.6</ele>
        <time>2021-04-17T11:30:22Z</time>
      </trkpt>
      <trkpt lat="45.19609" lon="5.98699">
        <ele>2416.8</ele>
        <time>2021-04-17T11:30:27Z</time>
      </trkpt>
      <trkpt lat="45.1961" lon="5.98699">
        <ele>2417.2</ele>
        <time>2021-04-17T11:30:28Z</time>
      </trkpt>
      <trkpt lat="45.19611" lon="5.987">
        <ele>2417.4</ele>
        <time>2021-04-17T11:30:29Z</time>
      </trkpt>
      <trkpt lat="45.19612" lon="5.98702">
        <ele>2418</ele>
        <time>2021-04-17T11:30:32Z</time>
      </trkpt>
      <trkpt lat="45.19613" lon="5.98703">
        <ele>2418</ele>
        <time>2021-04-17T11:30:33Z</time>
      </trkpt>
      <trkpt lat="45.19613" lon="5.98706">
        <ele>2418.4</ele>
        <time>2021-04-17T11:30:35Z</time>
      </trkpt>
      <trkpt lat="45.19614" lon="5.9871">
        <ele>2419</ele>
        <time>2021-04-17T11:30:38Z</time>
      </trkpt>
      <trkpt lat="45.19616" lon="5.98717">
        <ele>2420</ele>
        <time>2021-04-17T11:30:44Z</time>
      </trkpt>
      <trkpt lat="45.19616" lon="5.98718">
        <ele>2420.4</ele>
        <time>2021-04-17T11:30:46Z</time>
      </trkpt>
      <trkpt lat="45.19617" lon="5.98721">
        <ele>2421.2</ele>
        <time>2021-04-17T11:30:49Z</time>
      </trkpt>
      <trkpt lat="45.19617" lon="5.98724">
        <ele>2421.8</ele>
        <time>2021-04-17T11:30:52Z</time>
      </trkpt>
      <trkpt lat="45.19616" lon="5.98727">
        <ele>2422.2</ele>
        <time>2021-04-17T11:30:55Z</time>
      </trkpt>
      <trkpt lat="45.19616" lon="5.98732">
        <ele>2423.4</ele>
        <time>2021-04-17T11:31:00Z</time>
      </trkpt>
      <trkpt lat="45.19616" lon="5.98733">
        <ele>2423.6</ele>
        <time>2021-04-17T11:31:01Z</time>
      </trkpt>
      <trkpt lat="45.19616" lon="5.98734">
        <ele>2424.2</ele>
        <time>2021-04-17T11:31:07Z</time>
      </trkpt>
      <trkpt lat="45.19615" lon="5.98735">
        <ele>2424.2</ele>
        <time>2021-04-17T11:31:09Z</time>
      </trkpt>
      <trkpt lat="45.19614" lon="5.98736">
        <ele>2424.4</ele>
        <time>2021-04-17T11:31:10Z</time>
      </trkpt>
      <trkpt lat="45.19617" lon="5.98735">
        <ele>2425</ele>
        <time>2021-04-17T11:31:16Z</time>
      </trkpt>
      <trkpt lat="45.1962" lon="5.98734">
        <ele>2425.4</ele>
        <time>2021-04-17T11:31:19Z</time>
      </trkpt>
      <trkpt lat="45.19622" lon="5.98733">
        <ele>2426.2</ele>
        <time>2021-04-17T11:31:22Z</time>
      </trkpt>
      <trkpt lat="45.19622" lon="5.98733">
        <ele>2426.4</ele>
        <time>2021-04-17T11:31:23Z</time>
      </trkpt>
      <trkpt lat="45.19623" lon="5.98733">
        <ele>2426.6</ele>
        <time>2021-04-17T11:31:24Z</time>
      </trkpt>
      <trkpt lat="45.19627" lon="5.98731">
        <ele>2427.8</ele>
        <time>2021-04-17T11:31:29Z</time>
      </trkpt>
      <trkpt lat="45.19629" lon="5.98728">
        <ele>2429</ele>
        <time>2021-04-17T11:31:34Z</time>
      </trkpt>
      <trkpt lat="45.1963" lon="5.98725">
        <ele>2429.4</ele>
        <time>2021-04-17T11:31:37Z</time>
      </trkpt>
      <trkpt lat="45.1963" lon="5.98724">
        <ele>2429.4</ele>
        <time>2021-04-17T11:31:38Z</time>
      </trkpt>
      <trkpt lat="45.19631" lon="5.98729">
        <ele>2430</ele>
        <time>2021-04-17T11:31:43Z</time>
      </trkpt>
      <trkpt lat="45.1963" lon="5.98731">
        <ele>2430.2</ele>
        <time>2021-04-17T11:31:44Z</time>
      </trkpt>
      <trkpt lat="45.19628" lon="5.98737">
        <ele>2431.2</ele>
        <time>2021-04-17T11:31:50Z</time>
      </trkpt>
      <trkpt lat="45.19628" lon="5.98738">
        <ele>2431.4</ele>
        <time>2021-04-17T11:31:51Z</time>
      </trkpt>
      <trkpt lat="45.19627" lon="5.98743">
        <ele>2432.2</ele>
        <time>2021-04-17T11:31:55Z</time>
      </trkpt>
      <trkpt lat="45.19627" lon="5.98746">
        <ele>2432.8</ele>
        <time>2021-04-17T11:31:57Z</time>
      </trkpt>
      <trkpt lat="45.19627" lon="5.98749">
        <ele>2433.2</ele>
        <time>2021-04-17T11:32:00Z</time>
      </trkpt>
      <trkpt lat="45.19626" lon="5.98754">
        <ele>2434.2</ele>
        <time>2021-04-17T11:32:05Z</time>
      </trkpt>
      <trkpt lat="45.19626" lon="5.98757">
        <ele>2434.6</ele>
        <time>2021-04-17T11:32:07Z</time>
      </trkpt>
      <trkpt lat="45.19625" lon="5.98762">
        <ele>2435.6</ele>
        <time>2021-04-17T11:32:12Z</time>
      </trkpt>
      <trkpt lat="45.19625" lon="5.98764">
        <ele>2436.2</ele>
        <time>2021-04-17T11:32:15Z</time>
      </trkpt>
      <trkpt lat="45.19624" lon="5.98765">
        <ele>2436.6</ele>
        <time>2021-04-17T11:32:21Z</time>
      </trkpt>
      <trkpt lat="45.19627" lon="5.98764">
        <ele>2437.2</ele>
        <time>2021-04-17T11:32:26Z</time>
      </trkpt>
      <trkpt lat="45.1963" lon="5.98763">
        <ele>2437.8</ele>
        <time>2021-04-17T11:32:30Z</time>
      </trkpt>
      <trkpt lat="45.19633" lon="5.98761">
        <ele>2438.6</ele>
        <time>2021-04-17T11:32:34Z</time>
      </trkpt>
      <trkpt lat="45.19634" lon="5.9876">
        <ele>2438.8</ele>
        <time>2021-04-17T11:32:35Z</time>
      </trkpt>
      <trkpt lat="45.19637" lon="5.98757">
        <ele>2439.8</ele>
        <time>2021-04-17T11:32:41Z</time>
      </trkpt>
      <trkpt lat="45.19638" lon="5.98756">
        <ele>2440.2</ele>
        <time>2021-04-17T11:32:42Z</time>
      </trkpt>
      <trkpt lat="45.19638" lon="5.98756">
        <ele>2440.6</ele>
        <time>2021-04-17T11:32:43Z</time>
      </trkpt>
      <trkpt lat="45.19639" lon="5.98755">
        <ele>2441.2</ele>
        <time>2021-04-17T11:32:45Z</time>
      </trkpt>
      <trkpt lat="45.19642" lon="5.98751">
        <ele>2441.8</ele>
        <time>2021-04-17T11:32:51Z</time>
      </trkpt>
      <trkpt lat="45.19643" lon="5.9875">
        <ele>2442</ele>
        <time>2021-04-17T11:32:52Z</time>
      </trkpt>
      <trkpt lat="45.19644" lon="5.9875">
        <ele>2442.4</ele>
        <time>2021-04-17T11:32:54Z</time>
      </trkpt>
      <trkpt lat="45.19644" lon="5.98753">
        <ele>2443.2</ele>
        <time>2021-04-17T11:32:58Z</time>
      </trkpt>
      <trkpt lat="45.19645" lon="5.98757">
        <ele>2443.4</ele>
        <time>2021-04-17T11:33:01Z</time>
      </trkpt>
      <trkpt lat="45.19644" lon="5.98763">
        <ele>2444.4</ele>
        <time>2021-04-17T11:33:07Z</time>
      </trkpt>
      <trkpt lat="45.19644" lon="5.98764">
        <ele>2444.6</ele>
        <time>2021-04-17T11:33:08Z</time>
      </trkpt>
      <trkpt lat="45.19644" lon="5.98765">
        <ele>2444.6</ele>
        <time>2021-04-17T11:33:09Z</time>
      </trkpt>
      <trkpt lat="45.19644" lon="5.98766">
        <ele>2445.2</ele>
        <time>2021-04-17T11:33:12Z</time>
      </trkpt>
      <trkpt lat="45.19644" lon="5.98767">
        <ele>2445.2</ele>
        <time>2021-04-17T11:33:14Z</time>
      </trkpt>
      <trkpt lat="45.19644" lon="5.98767">
        <ele>2445.6</ele>
        <time>2021-04-17T11:33:19Z</time>
      </trkpt>
      <trkpt lat="45.19646" lon="5.98764">
        <ele>2445.8</ele>
        <time>2021-04-17T11:33:22Z</time>
      </trkpt>
      <trkpt lat="45.19649" lon="5.98761">
        <ele>2446.4</ele>
        <time>2021-04-17T11:33:27Z</time>
      </trkpt>
      <trkpt lat="45.1965" lon="5.98758">
        <ele>2446.8</ele>
        <time>2021-04-17T11:33:30Z</time>
      </trkpt>
      <trkpt lat="45.19655" lon="5.98754">
        <ele>2447.6</ele>
        <time>2021-04-17T11:33:36Z</time>
      </trkpt>
      <trkpt lat="45.19655" lon="5.98754">
        <ele>2448.2</ele>
        <time>2021-04-17T11:33:37Z</time>
      </trkpt>
      <trkpt lat="45.19658" lon="5.9875">
        <ele>2449.2</ele>
        <time>2021-04-17T11:33:43Z</time>
      </trkpt>
      <trkpt lat="45.19659" lon="5.98749">
        <ele>2449.4</ele>
        <time>2021-04-17T11:33:44Z</time>
      </trkpt>
      <trkpt lat="45.19661" lon="5.98748">
        <ele>2450.6</ele>
        <time>2021-04-17T11:33:47Z</time>
      </trkpt>
      <trkpt lat="45.19661" lon="5.98751">
        <ele>2451.2</ele>
        <time>2021-04-17T11:33:50Z</time>
      </trkpt>
      <trkpt lat="45.19661" lon="5.98754">
        <ele>2451.2</ele>
        <time>2021-04-17T11:33:53Z</time>
      </trkpt>
      <trkpt lat="45.19662" lon="5.98759">
        <ele>2451.6</ele>
        <time>2021-04-17T11:33:58Z</time>
      </trkpt>
      <trkpt lat="45.19662" lon="5.98761">
        <ele>2451.8</ele>
        <time>2021-04-17T11:33:59Z</time>
      </trkpt>
      <trkpt lat="45.19663" lon="5.98762">
        <ele>2452.2</ele>
        <time>2021-04-17T11:34:01Z</time>
      </trkpt>
      <trkpt lat="45.19663" lon="5.98767">
        <ele>2453</ele>
        <time>2021-04-17T11:34:03Z</time>
      </trkpt>
      <trkpt lat="45.19663" lon="5.98769">
        <ele>2453.2</ele>
        <time>2021-04-17T11:34:06Z</time>
      </trkpt>
      <trkpt lat="45.19663" lon="5.98771">
        <ele>2453.8</ele>
        <time>2021-04-17T11:34:08Z</time>
      </trkpt>
      <trkpt lat="45.19663" lon="5.98773">
        <ele>2454.4</ele>
        <time>2021-04-17T11:34:10Z</time>
      </trkpt>
      <trkpt lat="45.19663" lon="5.98773">
        <ele>2454.8</ele>
        <time>2021-04-17T11:34:14Z</time>
      </trkpt>
      <trkpt lat="45.19663" lon="5.98773">
        <ele>2455.6</ele>
        <time>2021-04-17T11:34:18Z</time>
      </trkpt>
      <trkpt lat="45.19663" lon="5.98773">
        <ele>2455.8</ele>
        <time>2021-04-17T11:34:21Z</time>
      </trkpt>
      <trkpt lat="45.19663" lon="5.98773">
        <ele>2456.6</ele>
        <time>2021-04-17T11:34:27Z</time>
      </trkpt>
      <trkpt lat="45.19665" lon="5.9877">
        <ele>2457</ele>
        <time>2021-04-17T11:34:31Z</time>
      </trkpt>
      <trkpt lat="45.19667" lon="5.98767">
        <ele>2457.6</ele>
        <time>2021-04-17T11:34:33Z</time>
      </trkpt>
      <trkpt lat="45.19672" lon="5.98763">
        <ele>2458.6</ele>
        <time>2021-04-17T11:34:39Z</time>
      </trkpt>
      <trkpt lat="45.19672" lon="5.98762">
        <ele>2459.2</ele>
        <time>2021-04-17T11:34:41Z</time>
      </trkpt>
      <trkpt lat="45.19673" lon="5.9876">
        <ele>2459.8</ele>
        <time>2021-04-17T11:34:43Z</time>
      </trkpt>
      <trkpt lat="45.19675" lon="5.98761">
        <ele>2460.6</ele>
        <time>2021-04-17T11:34:48Z</time>
      </trkpt>
      <trkpt lat="45.19676" lon="5.98763">
        <ele>2461</ele>
        <time>2021-04-17T11:34:52Z</time>
      </trkpt>
      <trkpt lat="45.19676" lon="5.98766">
        <ele>2461.6</ele>
        <time>2021-04-17T11:34:54Z</time>
      </trkpt>
      <trkpt lat="45.19675" lon="5.9877">
        <ele>2462</ele>
        <time>2021-04-17T11:34:57Z</time>
      </trkpt>
      <trkpt lat="45.19676" lon="5.98775">
        <ele>2462.6</ele>
        <time>2021-04-17T11:35:01Z</time>
      </trkpt>
      <trkpt lat="45.19675" lon="5.9878">
        <ele>2463.2</ele>
        <time>2021-04-17T11:35:05Z</time>
      </trkpt>
      <trkpt lat="45.19676" lon="5.98784">
        <ele>2463.8</ele>
        <time>2021-04-17T11:35:08Z</time>
      </trkpt>
      <trkpt lat="45.19675" lon="5.98784">
        <ele>2464</ele>
        <time>2021-04-17T11:35:09Z</time>
      </trkpt>
      <trkpt lat="45.19674" lon="5.98785">
        <ele>2464.2</ele>
        <time>2021-04-17T11:35:12Z</time>
      </trkpt>
      <trkpt lat="45.19675" lon="5.98784">
        <ele>2464.6</ele>
        <time>2021-04-17T11:35:16Z</time>
      </trkpt>
      <trkpt lat="45.19678" lon="5.98782">
        <ele>2465.2</ele>
        <time>2021-04-17T11:35:21Z</time>
      </trkpt>
      <trkpt lat="45.19678" lon="5.98781">
        <ele>2465.4</ele>
        <time>2021-04-17T11:35:22Z</time>
      </trkpt>
      <trkpt lat="45.19678" lon="5.98781">
        <ele>2465.8</ele>
        <time>2021-04-17T11:35:23Z</time>
      </trkpt>
      <trkpt lat="45.19679" lon="5.98781">
        <ele>2466.2</ele>
        <time>2021-04-17T11:35:24Z</time>
      </trkpt>
      <trkpt lat="45.19679" lon="5.9878">
        <ele>2466.8</ele>
        <time>2021-04-17T11:35:26Z</time>
      </trkpt>
      <trkpt lat="45.19679" lon="5.9878">
        <ele>2467.2</ele>
        <time>2021-04-17T11:35:29Z</time>
      </trkpt>
      <trkpt lat="45.19679" lon="5.9878">
        <ele>2467.4</ele>
        <time>2021-04-17T11:35:30Z</time>
      </trkpt>
      <trkpt lat="45.19679" lon="5.9878">
        <ele>2467.4</ele>
        <time>2021-04-17T11:35:36Z</time>
      </trkpt>
      <trkpt lat="45.19679" lon="5.9878">
        <ele>2467.2</ele>
        <time>2021-04-17T11:35:38Z</time>
      </trkpt>
      <trkpt lat="45.19679" lon="5.9878">
        <ele>2467.2</ele>
        <time>2021-04-17T11:35:39Z</time>
      </trkpt>
      <trkpt lat="45.19679" lon="5.9878">
        <ele>2467</ele>
        <time>2021-04-17T11:35:41Z</time>
      </trkpt>
      <trkpt lat="45.19679" lon="5.9878">
        <ele>2467</ele>
        <time>2021-04-17T11:35:46Z</time>
      </trkpt>
      <trkpt lat="45.19682" lon="5.98778">
        <ele>2467.8</ele>
        <time>2021-04-17T11:35:51Z</time>
      </trkpt>
      <trkpt lat="45.19684" lon="5.98776">
        <ele>2468</ele>
        <time>2021-04-17T11:35:53Z</time>
      </trkpt>
      <trkpt lat="45.19687" lon="5.98773">
        <ele>2468.6</ele>
        <time>2021-04-17T11:35:56Z</time>
      </trkpt>
      <trkpt lat="45.19688" lon="5.98771">
        <ele>2469.6</ele>
        <time>2021-04-17T11:35:59Z</time>
      </trkpt>
      <trkpt lat="45.19689" lon="5.98771">
        <ele>2469.8</ele>
        <time>2021-04-17T11:36:00Z</time>
      </trkpt>
      <trkpt lat="45.1969" lon="5.98768">
        <ele>2470.4</ele>
        <time>2021-04-17T11:36:04Z</time>
      </trkpt>
      <trkpt lat="45.19692" lon="5.98768">
        <ele>2470.6</ele>
        <time>2021-04-17T11:36:06Z</time>
      </trkpt>
      <trkpt lat="45.19693" lon="5.98768">
        <ele>2471</ele>
        <time>2021-04-17T11:36:08Z</time>
      </trkpt>
      <trkpt lat="45.19694" lon="5.98771">
        <ele>2471.6</ele>
        <time>2021-04-17T11:36:11Z</time>
      </trkpt>
      <trkpt lat="45.19695" lon="5.98773">
        <ele>2472</ele>
        <time>2021-04-17T11:36:14Z</time>
      </trkpt>
      <trkpt lat="45.19695" lon="5.98775">
        <ele>2472.2</ele>
        <time>2021-04-17T11:36:15Z</time>
      </trkpt>
      <trkpt lat="45.19695" lon="5.98778">
        <ele>2472.6</ele>
        <time>2021-04-17T11:36:18Z</time>
      </trkpt>
      <trkpt lat="45.19695" lon="5.98779">
        <ele>2472.8</ele>
        <time>2021-04-17T11:36:19Z</time>
      </trkpt>
      <trkpt lat="45.19695" lon="5.9878">
        <ele>2473.4</ele>
        <time>2021-04-17T11:36:21Z</time>
      </trkpt>
      <trkpt lat="45.19696" lon="5.98785">
        <ele>2474.8</ele>
        <time>2021-04-17T11:36:25Z</time>
      </trkpt>
      <trkpt lat="45.19695" lon="5.98788">
        <ele>2475.6</ele>
        <time>2021-04-17T11:36:29Z</time>
      </trkpt>
      <trkpt lat="45.19695" lon="5.98788">
        <ele>2475.8</ele>
        <time>2021-04-17T11:36:34Z</time>
      </trkpt>
      <trkpt lat="45.19699" lon="5.98785">
        <ele>2476.6</ele>
        <time>2021-04-17T11:36:40Z</time>
      </trkpt>
      <trkpt lat="45.197" lon="5.98786">
        <ele>2477</ele>
        <time>2021-04-17T11:36:41Z</time>
      </trkpt>
      <trkpt lat="45.19702" lon="5.98783">
        <ele>2478.2</ele>
        <time>2021-04-17T11:36:47Z</time>
      </trkpt>
      <trkpt lat="45.19702" lon="5.98783">
        <ele>2478.6</ele>
        <time>2021-04-17T11:36:49Z</time>
      </trkpt>
      <trkpt lat="45.19704" lon="5.98779">
        <ele>2479.2</ele>
        <time>2021-04-17T11:36:55Z</time>
      </trkpt>
      <trkpt lat="45.19705" lon="5.98779">
        <ele>2479.2</ele>
        <time>2021-04-17T11:36:56Z</time>
      </trkpt>
      <trkpt lat="45.19705" lon="5.98779">
        <ele>2479.4</ele>
        <time>2021-04-17T11:36:57Z</time>
      </trkpt>
      <trkpt lat="45.19705" lon="5.98782">
        <ele>2480.2</ele>
        <time>2021-04-17T11:37:03Z</time>
      </trkpt>
      <trkpt lat="45.19705" lon="5.98784">
        <ele>2480.4</ele>
        <time>2021-04-17T11:37:06Z</time>
      </trkpt>
      <trkpt lat="45.19705" lon="5.98788">
        <ele>2481.2</ele>
        <time>2021-04-17T11:37:10Z</time>
      </trkpt>
      <trkpt lat="45.19705" lon="5.98788">
        <ele>2481.4</ele>
        <time>2021-04-17T11:37:11Z</time>
      </trkpt>
      <trkpt lat="45.19706" lon="5.98793">
        <ele>2482.6</ele>
        <time>2021-04-17T11:37:15Z</time>
      </trkpt>
      <trkpt lat="45.19705" lon="5.98793">
        <ele>2483.6</ele>
        <time>2021-04-17T11:37:18Z</time>
      </trkpt>
      <trkpt lat="45.19704" lon="5.98793">
        <ele>2483.6</ele>
        <time>2021-04-17T11:37:19Z</time>
      </trkpt>
      <trkpt lat="45.19706" lon="5.98794">
        <ele>2483.8</ele>
        <time>2021-04-17T11:37:25Z</time>
      </trkpt>
      <trkpt lat="45.19706" lon="5.98795">
        <ele>2484</ele>
        <time>2021-04-17T11:37:27Z</time>
      </trkpt>
      <trkpt lat="45.19709" lon="5.98793">
        <ele>2484.8</ele>
        <time>2021-04-17T11:37:32Z</time>
      </trkpt>
      <trkpt lat="45.19711" lon="5.9879">
        <ele>2485.4</ele>
        <time>2021-04-17T11:37:34Z</time>
      </trkpt>
      <trkpt lat="45.19711" lon="5.98788">
        <ele>2485.8</ele>
        <time>2021-04-17T11:37:36Z</time>
      </trkpt>
      <trkpt lat="45.19714" lon="5.98785">
        <ele>2486.8</ele>
        <time>2021-04-17T11:37:42Z</time>
      </trkpt>
      <trkpt lat="45.19715" lon="5.98786">
        <ele>2487</ele>
        <time>2021-04-17T11:37:43Z</time>
      </trkpt>
      <trkpt lat="45.19718" lon="5.98792">
        <ele>2487.6</ele>
        <time>2021-04-17T11:37:49Z</time>
      </trkpt>
      <trkpt lat="45.19721" lon="5.98797">
        <ele>2487.4</ele>
        <time>2021-04-17T11:37:55Z</time>
      </trkpt>
      <trkpt lat="45.19722" lon="5.98799">
        <ele>2487.6</ele>
        <time>2021-04-17T11:37:59Z</time>
      </trkpt>
      <trkpt lat="45.19723" lon="5.98799">
        <ele>2488</ele>
        <time>2021-04-17T11:38:02Z</time>
      </trkpt>
      <trkpt lat="45.19723" lon="5.988">
        <ele>2488.6</ele>
        <time>2021-04-17T11:38:07Z</time>
      </trkpt>
      <trkpt lat="45.19723" lon="5.988">
        <ele>2488.4</ele>
        <time>2021-04-17T11:38:11Z</time>
      </trkpt>
      <trkpt lat="45.19723" lon="5.988">
        <ele>2488.6</ele>
        <time>2021-04-17T11:38:13Z</time>
      </trkpt>
      <trkpt lat="45.19723" lon="5.988">
        <ele>2488.8</ele>
        <time>2021-04-17T11:38:15Z</time>
      </trkpt>
      <trkpt lat="45.19723" lon="5.98801">
        <ele>2489</ele>
        <time>2021-04-17T11:38:16Z</time>
      </trkpt>
      <trkpt lat="45.19726" lon="5.98803">
        <ele>2489.2</ele>
        <time>2021-04-17T11:38:18Z</time>
      </trkpt>
      <trkpt lat="45.19735" lon="5.98809">
        <ele>2489.4</ele>
        <time>2021-04-17T11:38:24Z</time>
      </trkpt>
      <trkpt lat="45.19735" lon="5.9881">
        <ele>2489.4</ele>
        <time>2021-04-17T11:38:25Z</time>
      </trkpt>
      <trkpt lat="45.1974" lon="5.98815">
        <ele>2490</ele>
        <time>2021-04-17T11:38:31Z</time>
      </trkpt>
      <trkpt lat="45.19741" lon="5.98816">
        <ele>2490.2</ele>
        <time>2021-04-17T11:38:32Z</time>
      </trkpt>
      <trkpt lat="45.19743" lon="5.98818">
        <ele>2490.4</ele>
        <time>2021-04-17T11:38:34Z</time>
      </trkpt>
      <trkpt lat="45.19748" lon="5.98821">
        <ele>2491.2</ele>
        <time>2021-04-17T11:38:40Z</time>
      </trkpt>
      <trkpt lat="45.1975" lon="5.98822">
        <ele>2491.8</ele>
        <time>2021-04-17T11:38:43Z</time>
      </trkpt>
      <trkpt lat="45.19753" lon="5.98823">
        <ele>2492.4</ele>
        <time>2021-04-17T11:38:46Z</time>
      </trkpt>
      <trkpt lat="45.19755" lon="5.98821">
        <ele>2492.8</ele>
        <time>2021-04-17T11:38:49Z</time>
      </trkpt>
      <trkpt lat="45.19757" lon="5.98819">
        <ele>2493.6</ele>
        <time>2021-04-17T11:38:52Z</time>
      </trkpt>
      <trkpt lat="45.19759" lon="5.98818">
        <ele>2494</ele>
        <time>2021-04-17T11:38:54Z</time>
      </trkpt>
      <trkpt lat="45.19759" lon="5.98816">
        <ele>2494.4</ele>
        <time>2021-04-17T11:38:56Z</time>
      </trkpt>
      <trkpt lat="45.1976" lon="5.98815">
        <ele>2494.6</ele>
        <time>2021-04-17T11:38:57Z</time>
      </trkpt>
      <trkpt lat="45.1976" lon="5.98812">
        <ele>2495.2</ele>
        <time>2021-04-17T11:39:00Z</time>
      </trkpt>
      <trkpt lat="45.19761" lon="5.98808">
        <ele>2495.6</ele>
        <time>2021-04-17T11:39:03Z</time>
      </trkpt>
      <trkpt lat="45.19761" lon="5.98802">
        <ele>2496.6</ele>
        <time>2021-04-17T11:39:08Z</time>
      </trkpt>
      <trkpt lat="45.19761" lon="5.98802">
        <ele>2496.8</ele>
        <time>2021-04-17T11:39:09Z</time>
      </trkpt>
      <trkpt lat="45.19761" lon="5.988">
        <ele>2497.4</ele>
        <time>2021-04-17T11:39:11Z</time>
      </trkpt>
      <trkpt lat="45.1976" lon="5.98795">
        <ele>2497.8</ele>
        <time>2021-04-17T11:39:17Z</time>
      </trkpt>
      <trkpt lat="45.19759" lon="5.98794">
        <ele>2497.8</ele>
        <time>2021-04-17T11:39:20Z</time>
      </trkpt>
      <trkpt lat="45.19758" lon="5.98791">
        <ele>2498.2</ele>
        <time>2021-04-17T11:39:23Z</time>
      </trkpt>
      <trkpt lat="45.19757" lon="5.98789">
        <ele>2499</ele>
        <time>2021-04-17T11:39:26Z</time>
      </trkpt>
      <trkpt lat="45.19756" lon="5.98786">
        <ele>2500.2</ele>
        <time>2021-04-17T11:39:30Z</time>
      </trkpt>
      <trkpt lat="45.19754" lon="5.98779">
        <ele>2501.6</ele>
        <time>2021-04-17T11:39:35Z</time>
      </trkpt>
      <trkpt lat="45.19753" lon="5.98778">
        <ele>2501.8</ele>
        <time>2021-04-17T11:39:36Z</time>
      </trkpt>
      <trkpt lat="45.19752" lon="5.98775">
        <ele>2502.6</ele>
        <time>2021-04-17T11:39:39Z</time>
      </trkpt>
      <trkpt lat="45.19751" lon="5.9877">
        <ele>2503.8</ele>
        <time>2021-04-17T11:39:43Z</time>
      </trkpt>
      <trkpt lat="45.19751" lon="5.98768">
        <ele>2505</ele>
        <time>2021-04-17T11:39:46Z</time>
      </trkpt>
      <trkpt lat="45.1975" lon="5.98763">
        <ele>2505.8</ele>
        <time>2021-04-17T11:39:50Z</time>
      </trkpt>
      <trkpt lat="45.1975" lon="5.98761">
        <ele>2506</ele>
        <time>2021-04-17T11:39:51Z</time>
      </trkpt>
      <trkpt lat="45.19749" lon="5.98756">
        <ele>2507</ele>
        <time>2021-04-17T11:39:55Z</time>
      </trkpt>
      <trkpt lat="45.19749" lon="5.98751">
        <ele>2508.4</ele>
        <time>2021-04-17T11:39:58Z</time>
      </trkpt>
      <trkpt lat="45.19749" lon="5.98751">
        <ele>2508.8</ele>
        <time>2021-04-17T11:39:59Z</time>
      </trkpt>
      <trkpt lat="45.1975" lon="5.98747">
        <ele>2509.8</ele>
        <time>2021-04-17T11:40:02Z</time>
      </trkpt>
      <trkpt lat="45.19751" lon="5.98742">
        <ele>2510.4</ele>
        <time>2021-04-17T11:40:08Z</time>
      </trkpt>
      <trkpt lat="45.19751" lon="5.98739">
        <ele>2510.8</ele>
        <time>2021-04-17T11:40:10Z</time>
      </trkpt>
      <trkpt lat="45.19751" lon="5.98735">
        <ele>2512</ele>
        <time>2021-04-17T11:40:15Z</time>
      </trkpt>
      <trkpt lat="45.19751" lon="5.98732">
        <ele>2512.4</ele>
        <time>2021-04-17T11:40:18Z</time>
      </trkpt>
      <trkpt lat="45.1975" lon="5.9873">
        <ele>2513</ele>
        <time>2021-04-17T11:40:20Z</time>
      </trkpt>
      <trkpt lat="45.1975" lon="5.98726">
        <ele>2514</ele>
        <time>2021-04-17T11:40:24Z</time>
      </trkpt>
      <trkpt lat="45.1975" lon="5.98724">
        <ele>2514.6</ele>
        <time>2021-04-17T11:40:26Z</time>
      </trkpt>
      <trkpt lat="45.1975" lon="5.98721">
        <ele>2515.2</ele>
        <time>2021-04-17T11:40:28Z</time>
      </trkpt>
      <trkpt lat="45.1975" lon="5.9872">
        <ele>2515.6</ele>
        <time>2021-04-17T11:40:29Z</time>
      </trkpt>
      <trkpt lat="45.19751" lon="5.98718">
        <ele>2516</ele>
        <time>2021-04-17T11:40:31Z</time>
      </trkpt>
      <trkpt lat="45.19751" lon="5.98717">
        <ele>2516.4</ele>
        <time>2021-04-17T11:40:32Z</time>
      </trkpt>
      <trkpt lat="45.19751" lon="5.98712">
        <ele>2517.6</ele>
        <time>2021-04-17T11:40:37Z</time>
      </trkpt>
      <trkpt lat="45.19751" lon="5.98711">
        <ele>2517.8</ele>
        <time>2021-04-17T11:40:38Z</time>
      </trkpt>
      <trkpt lat="45.1975" lon="5.98702">
        <ele>2518</ele>
        <time>2021-04-17T11:40:44Z</time>
      </trkpt>
      <trkpt lat="45.1975" lon="5.98699">
        <ele>2518</ele>
        <time>2021-04-17T11:40:46Z</time>
      </trkpt>
      <trkpt lat="45.19748" lon="5.9869">
        <ele>2518.2</ele>
        <time>2021-04-17T11:40:52Z</time>
      </trkpt>
      <trkpt lat="45.19747" lon="5.98685">
        <ele>2518.4</ele>
        <time>2021-04-17T11:40:55Z</time>
      </trkpt>
      <trkpt lat="45.19747" lon="5.98683">
        <ele>2518.6</ele>
        <time>2021-04-17T11:40:56Z</time>
      </trkpt>
      <trkpt lat="45.19746" lon="5.98672">
        <ele>2518.8</ele>
        <time>2021-04-17T11:41:02Z</time>
      </trkpt>
      <trkpt lat="45.19746" lon="5.9867">
        <ele>2519</ele>
        <time>2021-04-17T11:41:04Z</time>
      </trkpt>
      <trkpt lat="45.19747" lon="5.98669">
        <ele>2519</ele>
        <time>2021-04-17T11:41:05Z</time>
      </trkpt>
      <trkpt lat="45.19748" lon="5.98666">
        <ele>2519.8</ele>
        <time>2021-04-17T11:41:08Z</time>
      </trkpt>
      <trkpt lat="45.19749" lon="5.98663">
        <ele>2520.2</ele>
        <time>2021-04-17T11:41:10Z</time>
      </trkpt>
      <trkpt lat="45.19751" lon="5.9866">
        <ele>2521</ele>
        <time>2021-04-17T11:41:13Z</time>
      </trkpt>
      <trkpt lat="45.19752" lon="5.98656">
        <ele>2521.8</ele>
        <time>2021-04-17T11:41:16Z</time>
      </trkpt>
      <trkpt lat="45.19753" lon="5.98654">
        <ele>2522</ele>
        <time>2021-04-17T11:41:18Z</time>
      </trkpt>
      <trkpt lat="45.19754" lon="5.98653">
        <ele>2522.2</ele>
        <time>2021-04-17T11:41:19Z</time>
      </trkpt>
      <trkpt lat="45.19755" lon="5.98645">
        <ele>2523.4</ele>
        <time>2021-04-17T11:41:25Z</time>
      </trkpt>
      <trkpt lat="45.19754" lon="5.98644">
        <ele>2523.6</ele>
        <time>2021-04-17T11:41:26Z</time>
      </trkpt>
      <trkpt lat="45.19754" lon="5.98642">
        <ele>2524.4</ele>
        <time>2021-04-17T11:41:29Z</time>
      </trkpt>
      <trkpt lat="45.19753" lon="5.98637">
        <ele>2525.6</ele>
        <time>2021-04-17T11:41:33Z</time>
      </trkpt>
      <trkpt lat="45.19754" lon="5.98633">
        <ele>2526.8</ele>
        <time>2021-04-17T11:41:37Z</time>
      </trkpt>
      <trkpt lat="45.19754" lon="5.98631">
        <ele>2528.2</ele>
        <time>2021-04-17T11:41:40Z</time>
      </trkpt>
      <trkpt lat="45.19754" lon="5.9863">
        <ele>2528.4</ele>
        <time>2021-04-17T11:41:41Z</time>
      </trkpt>
      <trkpt lat="45.19754" lon="5.98627">
        <ele>2529.2</ele>
        <time>2021-04-17T11:41:43Z</time>
      </trkpt>
      <trkpt lat="45.19756" lon="5.98626">
        <ele>2530.2</ele>
        <time>2021-04-17T11:41:47Z</time>
      </trkpt>
      <trkpt lat="45.19757" lon="5.98626">
        <ele>2530.2</ele>
        <time>2021-04-17T11:41:48Z</time>
      </trkpt>
      <trkpt lat="45.19759" lon="5.98628">
        <ele>2531.2</ele>
        <time>2021-04-17T11:41:54Z</time>
      </trkpt>
      <trkpt lat="45.1976" lon="5.98627">
        <ele>2531.4</ele>
        <time>2021-04-17T11:41:57Z</time>
      </trkpt>
      <trkpt lat="45.19759" lon="5.98624">
        <ele>2531.8</ele>
        <time>2021-04-17T11:42:02Z</time>
      </trkpt>
      <trkpt lat="45.19759" lon="5.98624">
        <ele>2532.4</ele>
        <time>2021-04-17T11:42:08Z</time>
      </trkpt>
      <trkpt lat="45.19759" lon="5.98624">
        <ele>2532.4</ele>
        <time>2021-04-17T11:42:09Z</time>
      </trkpt>
      <trkpt lat="45.19759" lon="5.98624">
        <ele>2533.6</ele>
        <time>2021-04-17T11:42:15Z</time>
      </trkpt>
      <trkpt lat="45.19759" lon="5.98624">
        <ele>2534</ele>
        <time>2021-04-17T11:42:18Z</time>
      </trkpt>
      <trkpt lat="45.19759" lon="5.98622">
        <ele>2534</ele>
        <time>2021-04-17T11:42:22Z</time>
      </trkpt>
      <trkpt lat="45.1976" lon="5.98622">
        <ele>2533.4</ele>
        <time>2021-04-17T11:42:24Z</time>
      </trkpt>
      <trkpt lat="45.1976" lon="5.98621">
        <ele>2533</ele>
        <time>2021-04-17T11:42:30Z</time>
      </trkpt>
      <trkpt lat="45.1976" lon="5.98621">
        <ele>2533</ele>
        <time>2021-04-17T11:42:32Z</time>
      </trkpt>
      <trkpt lat="45.1976" lon="5.98621">
        <ele>2533</ele>
        <time>2021-04-17T11:42:35Z</time>
      </trkpt>
      <trkpt lat="45.1976" lon="5.98621">
        <ele>2532.8</ele>
        <time>2021-04-17T11:42:41Z</time>
      </trkpt>
      <trkpt lat="45.1976" lon="5.98621">
        <ele>2532.6</ele>
        <time>2021-04-17T11:42:45Z</time>
      </trkpt>
      <trkpt lat="45.19759" lon="5.98624">
        <ele>2532.6</ele>
        <time>2021-04-17T11:42:51Z</time>
      </trkpt>
      <trkpt lat="45.19759" lon="5.98626">
        <ele>2533</ele>
        <time>2021-04-17T11:42:57Z</time>
      </trkpt>
      <trkpt lat="45.19759" lon="5.98628">
        <ele>2532.4</ele>
        <time>2021-04-17T11:43:03Z</time>
      </trkpt>
      <trkpt lat="45.1976" lon="5.98628">
        <ele>2532.8</ele>
        <time>2021-04-17T11:43:09Z</time>
      </trkpt>
      <trkpt lat="45.1976" lon="5.98628">
        <ele>2532.8</ele>
        <time>2021-04-17T11:43:14Z</time>
      </trkpt>
      <trkpt lat="45.1976" lon="5.98628">
        <ele>2532.8</ele>
        <time>2021-04-17T11:43:16Z</time>
      </trkpt>
      <trkpt lat="45.1976" lon="5.98628">
        <ele>2532.8</ele>
        <time>2021-04-17T11:43:18Z</time>
      </trkpt>
      <trkpt lat="45.19761" lon="5.98628">
        <ele>2532.8</ele>
        <time>2021-04-17T11:43:23Z</time>
      </trkpt>
      <trkpt lat="45.19761" lon="5.98628">
        <ele>2532.8</ele>
        <time>2021-04-17T11:43:25Z</time>
      </trkpt>
      <trkpt lat="45.19761" lon="5.98628">
        <ele>2532.8</ele>
        <time>2021-04-17T11:43:31Z</time>
      </trkpt>
      <trkpt lat="45.19761" lon="5.98628">
        <ele>2532.8</ele>
        <time>2021-04-17T11:43:34Z</time>
      </trkpt>
      <trkpt lat="45.19761" lon="5.98628">
        <ele>2532.8</ele>
        <time>2021-04-17T11:43:35Z</time>
      </trkpt>
      <trkpt lat="45.19761" lon="5.98628">
        <ele>2532.8</ele>
        <time>2021-04-17T11:43:36Z</time>
      </trkpt>
      <trkpt lat="45.19761" lon="5.98628">
        <ele>2532.8</ele>
        <time>2021-04-17T11:43:38Z</time>
      </trkpt>
      <trkpt lat="45.19761" lon="5.98628">
        <ele>2532.8</ele>
        <time>2021-04-17T11:43:39Z</time>
      </trkpt>
      <trkpt lat="45.19761" lon="5.98628">
        <ele>2532.8</ele>
        <time>2021-04-17T11:43:41Z</time>
      </trkpt>
      <trkpt lat="45.19761" lon="5.98628">
        <ele>2532.8</ele>
        <time>2021-04-17T11:43:44Z</time>
      </trkpt>
      <trkpt lat="45.19761" lon="5.98628">
        <ele>2532.8</ele>
        <time>2021-04-17T11:43:46Z</time>
      </trkpt>
      <trkpt lat="45.1976" lon="5.98628">
        <ele>2532.8</ele>
        <time>2021-04-17T11:43:50Z</time>
      </trkpt>
      <trkpt lat="45.1976" lon="5.98628">
        <ele>2532.8</ele>
        <time>2021-04-17T11:43:56Z</time>
      </trkpt>
      <trkpt lat="45.1976" lon="5.98628">
        <ele>2532.8</ele>
        <time>2021-04-17T11:43:59Z</time>
      </trkpt>
      <trkpt lat="45.1976" lon="5.98628">
        <ele>2532.8</ele>
        <time>2021-04-17T11:44:05Z</time>
      </trkpt>
      <trkpt lat="45.1976" lon="5.98628">
        <ele>2532.8</ele>
        <time>2021-04-17T11:44:07Z</time>
      </trkpt>
      <trkpt lat="45.19761" lon="5.98628">
        <ele>2532.8</ele>
        <time>2021-04-17T11:44:11Z</time>
      </trkpt>
      <trkpt lat="45.19761" lon="5.98628">
        <ele>2532.8</ele>
        <time>2021-04-17T11:44:13Z</time>
      </trkpt>
      <trkpt lat="45.19761" lon="5.98628">
        <ele>2532.8</ele>
        <time>2021-04-17T11:44:15Z</time>
      </trkpt>
      <trkpt lat="45.19761" lon="5.98628">
        <ele>2532.8</ele>
        <time>2021-04-17T11:44:18Z</time>
      </trkpt>
      <trkpt lat="45.19761" lon="5.98628">
        <ele>2532.8</ele>
        <time>2021-04-17T11:44:20Z</time>
      </trkpt>
      <trkpt lat="45.19762" lon="5.98628">
        <ele>2532.8</ele>
        <time>2021-04-17T11:44:26Z</time>
      </trkpt>
      <trkpt lat="45.19762" lon="5.98628">
        <ele>2532.8</ele>
        <time>2021-04-17T11:44:27Z</time>
      </trkpt>
      <trkpt lat="45.19762" lon="5.98628">
        <ele>2532.8</ele>
        <time>2021-04-17T11:44:28Z</time>
      </trkpt>
      <trkpt lat="45.19762" lon="5.98628">
        <ele>2532.8</ele>
        <time>2021-04-17T11:44:30Z</time>
      </trkpt>
      <trkpt lat="45.19762" lon="5.98628">
        <ele>2532.8</ele>
        <time>2021-04-17T11:44:32Z</time>
      </trkpt>
      <trkpt lat="45.19763" lon="5.98628">
        <ele>2532.8</ele>
        <time>2021-04-17T11:44:33Z</time>
      </trkpt>
      <trkpt lat="45.19763" lon="5.98628">
        <ele>2532.8</ele>
        <time>2021-04-17T11:44:35Z</time>
      </trkpt>
      <trkpt lat="45.19763" lon="5.98628">
        <ele>2532.8</ele>
        <time>2021-04-17T11:44:37Z</time>
      </trkpt>
      <trkpt lat="45.19763" lon="5.98628">
        <ele>2532.8</ele>
        <time>2021-04-17T11:44:38Z</time>
      </trkpt>
      <trkpt lat="45.19763" lon="5.98628">
        <ele>2532.8</ele>
        <time>2021-04-17T11:44:41Z</time>
      </trkpt>
      <trkpt lat="45.19763" lon="5.98628">
        <ele>2532.8</ele>
        <time>2021-04-17T11:44:42Z</time>
      </trkpt>
      <trkpt lat="45.19763" lon="5.98628">
        <ele>2532.8</ele>
        <time>2021-04-17T11:44:43Z</time>
      </trkpt>
      <trkpt lat="45.19763" lon="5.98628">
        <ele>2532.8</ele>
        <time>2021-04-17T11:44:44Z</time>
      </trkpt>
      <trkpt lat="45.19763" lon="5.98628">
        <ele>2532.8</ele>
        <time>2021-04-17T11:44:45Z</time>
      </trkpt>
      <trkpt lat="45.19763" lon="5.98628">
        <ele>2532.8</ele>
        <time>2021-04-17T11:44:46Z</time>
      </trkpt>
      <trkpt lat="45.19763" lon="5.98628">
        <ele>2532.8</ele>
        <time>2021-04-17T11:44:49Z</time>
      </trkpt>
      <trkpt lat="45.19762" lon="5.98628">
        <ele>2532.8</ele>
        <time>2021-04-17T11:44:51Z</time>
      </trkpt>
      <trkpt lat="45.19762" lon="5.98628">
        <ele>2532.8</ele>
        <time>2021-04-17T11:44:52Z</time>
      </trkpt>
      <trkpt lat="45.19762" lon="5.98627">
        <ele>2532.8</ele>
        <time>2021-04-17T11:44:53Z</time>
      </trkpt>
      <trkpt lat="45.19762" lon="5.98627">
        <ele>2532.8</ele>
        <time>2021-04-17T11:44:54Z</time>
      </trkpt>
      <trkpt lat="45.19762" lon="5.98627">
        <ele>2532.8</ele>
        <time>2021-04-17T11:44:56Z</time>
      </trkpt>
      <trkpt lat="45.19762" lon="5.98627">
        <ele>2532.8</ele>
        <time>2021-04-17T11:45:02Z</time>
      </trkpt>
      <trkpt lat="45.19762" lon="5.98627">
        <ele>2532.8</ele>
        <time>2021-04-17T11:45:05Z</time>
      </trkpt>
      <trkpt lat="45.19762" lon="5.98627">
        <ele>2532.8</ele>
        <time>2021-04-17T11:45:06Z</time>
      </trkpt>
      <trkpt lat="45.19762" lon="5.98627">
        <ele>2532.8</ele>
        <time>2021-04-17T11:45:07Z</time>
      </trkpt>
      <trkpt lat="45.19762" lon="5.98627">
        <ele>2532.8</ele>
        <time>2021-04-17T11:45:09Z</time>
      </trkpt>
      <trkpt lat="45.19762" lon="5.98627">
        <ele>2532.8</ele>
        <time>2021-04-17T11:45:12Z</time>
      </trkpt>
      <trkpt lat="45.19762" lon="5.98627">
        <ele>2532.8</ele>
        <time>2021-04-17T11:45:14Z</time>
      </trkpt>
      <trkpt lat="45.19763" lon="5.98627">
        <ele>2532.8</ele>
        <time>2021-04-17T11:45:17Z</time>
      </trkpt>
      <trkpt lat="45.19763" lon="5.98627">
        <ele>2532.8</ele>
        <time>2021-04-17T11:45:18Z</time>
      </trkpt>
      <trkpt lat="45.19763" lon="5.98627">
        <ele>2532.8</ele>
        <time>2021-04-17T11:45:24Z</time>
      </trkpt>
      <trkpt lat="45.19763" lon="5.98627">
        <ele>2532.8</ele>
        <time>2021-04-17T11:45:29Z</time>
      </trkpt>
      <trkpt lat="45.19763" lon="5.98627">
        <ele>2532.8</ele>
        <time>2021-04-17T11:45:31Z</time>
      </trkpt>
      <trkpt lat="45.19763" lon="5.98627">
        <ele>2532.8</ele>
        <time>2021-04-17T11:45:34Z</time>
      </trkpt>
      <trkpt lat="45.19763" lon="5.98627">
        <ele>2532.8</ele>
        <time>2021-04-17T11:45:40Z</time>
      </trkpt>
      <trkpt lat="45.19763" lon="5.98627">
        <ele>2532.8</ele>
        <time>2021-04-17T11:45:41Z</time>
      </trkpt>
      <trkpt lat="45.19763" lon="5.98627">
        <ele>2532.8</ele>
        <time>2021-04-17T11:45:44Z</time>
      </trkpt>
      <trkpt lat="45.19763" lon="5.98627">
        <ele>2532.8</ele>
        <time>2021-04-17T11:45:45Z</time>
      </trkpt>
      <trkpt lat="45.19763" lon="5.98627">
        <ele>2532.8</ele>
        <time>2021-04-17T11:45:49Z</time>
      </trkpt>
      <trkpt lat="45.19763" lon="5.98627">
        <ele>2532.8</ele>
        <time>2021-04-17T11:45:50Z</time>
      </trkpt>
      <trkpt lat="45.19763" lon="5.98627">
        <ele>2532.8</ele>
        <time>2021-04-17T11:45:51Z</time>
      </trkpt>
      <trkpt lat="45.19763" lon="5.98627">
        <ele>2532.8</ele>
        <time>2021-04-17T11:45:52Z</time>
      </trkpt>
      <trkpt lat="45.19763" lon="5.98627">
        <ele>2532.8</ele>
        <time>2021-04-17T11:45:54Z</time>
      </trkpt>
      <trkpt lat="45.19763" lon="5.98627">
        <ele>2532.8</ele>
        <time>2021-04-17T11:45:59Z</time>
      </trkpt>
      <trkpt lat="45.19763" lon="5.98627">
        <ele>2532.8</ele>
        <time>2021-04-17T11:46:01Z</time>
      </trkpt>
      <trkpt lat="45.19763" lon="5.98627">
        <ele>2532.8</ele>
        <time>2021-04-17T11:46:04Z</time>
      </trkpt>
      <trkpt lat="45.19763" lon="5.98627">
        <ele>2532.8</ele>
        <time>2021-04-17T11:46:06Z</time>
      </trkpt>
      <trkpt lat="45.19763" lon="5.98627">
        <ele>2532.8</ele>
        <time>2021-04-17T11:46:10Z</time>
      </trkpt>
      <trkpt lat="45.19763" lon="5.98627">
        <ele>2532.8</ele>
        <time>2021-04-17T11:46:14Z</time>
      </trkpt>
      <trkpt lat="45.19763" lon="5.98627">
        <ele>2532.8</ele>
        <time>2021-04-17T11:46:15Z</time>
      </trkpt>
      <trkpt lat="45.19763" lon="5.98627">
        <ele>2532.8</ele>
        <time>2021-04-17T11:46:16Z</time>
      </trkpt>
      <trkpt lat="45.19763" lon="5.98627">
        <ele>2532.8</ele>
        <time>2021-04-17T11:46:19Z</time>
      </trkpt>
      <trkpt lat="45.19763" lon="5.98627">
        <ele>2532.8</ele>
        <time>2021-04-17T11:46:20Z</time>
      </trkpt>
      <trkpt lat="45.19763" lon="5.98627">
        <ele>2532.8</ele>
        <time>2021-04-17T11:46:21Z</time>
      </trkpt>
      <trkpt lat="45.19763" lon="5.98627">
        <ele>2532.8</ele>
        <time>2021-04-17T11:46:24Z</time>
      </trkpt>
      <trkpt lat="45.19763" lon="5.98627">
        <ele>2532.8</ele>
        <time>2021-04-17T11:46:30Z</time>
      </trkpt>
      <trkpt lat="45.19763" lon="5.98627">
        <ele>2532.8</ele>
        <time>2021-04-17T11:46:36Z</time>
      </trkpt>
      <trkpt lat="45.19763" lon="5.98627">
        <ele>2532.8</ele>
        <time>2021-04-17T11:46:38Z</time>
      </trkpt>
      <trkpt lat="45.19763" lon="5.98627">
        <ele>2532.8</ele>
        <time>2021-04-17T11:46:39Z</time>
      </trkpt>
      <trkpt lat="45.19763" lon="5.98627">
        <ele>2532.8</ele>
        <time>2021-04-17T11:46:40Z</time>
      </trkpt>
      <trkpt lat="45.19763" lon="5.98627">
        <ele>2532.8</ele>
        <time>2021-04-17T11:46:41Z</time>
      </trkpt>
      <trkpt lat="45.19763" lon="5.98627">
        <ele>2532.8</ele>
        <time>2021-04-17T11:46:43Z</time>
      </trkpt>
      <trkpt lat="45.19763" lon="5.98627">
        <ele>2532.8</ele>
        <time>2021-04-17T11:46:45Z</time>
      </trkpt>
      <trkpt lat="45.19763" lon="5.98627">
        <ele>2532.8</ele>
        <time>2021-04-17T11:46:46Z</time>
      </trkpt>
      <trkpt lat="45.19763" lon="5.98627">
        <ele>2532.8</ele>
        <time>2021-04-17T11:46:47Z</time>
      </trkpt>
      <trkpt lat="45.19763" lon="5.98627">
        <ele>2532.8</ele>
        <time>2021-04-17T11:46:48Z</time>
      </trkpt>
      <trkpt lat="45.19763" lon="5.98627">
        <ele>2532.8</ele>
        <time>2021-04-17T11:46:51Z</time>
      </trkpt>
      <trkpt lat="45.19763" lon="5.98627">
        <ele>2532.8</ele>
        <time>2021-04-17T11:46:54Z</time>
      </trkpt>
      <trkpt lat="45.19763" lon="5.98627">
        <ele>2532.8</ele>
        <time>2021-04-17T11:46:55Z</time>
      </trkpt>
      <trkpt lat="45.19763" lon="5.98627">
        <ele>2532.8</ele>
        <time>2021-04-17T11:46:57Z</time>
      </trkpt>
      <trkpt lat="45.19763" lon="5.98627">
        <ele>2532.8</ele>
        <time>2021-04-17T11:47:02Z</time>
      </trkpt>
      <trkpt lat="45.19763" lon="5.98627">
        <ele>2532.8</ele>
        <time>2021-04-17T11:47:05Z</time>
      </trkpt>
      <trkpt lat="45.19763" lon="5.98627">
        <ele>2532.8</ele>
        <time>2021-04-17T11:47:11Z</time>
      </trkpt>
      <trkpt lat="45.19763" lon="5.98627">
        <ele>2532.8</ele>
        <time>2021-04-17T11:47:12Z</time>
      </trkpt>
      <trkpt lat="45.19763" lon="5.98627">
        <ele>2536.8</ele>
        <time>2021-04-17T11:47:13Z</time>
      </trkpt>
      <trkpt lat="45.19763" lon="5.98627">
        <ele>2536.6</ele>
        <time>2021-04-17T11:47:14Z</time>
      </trkpt>
      <trkpt lat="45.19763" lon="5.98627">
        <ele>2536.8</ele>
        <time>2021-04-17T11:47:16Z</time>
      </trkpt>
      <trkpt lat="45.19763" lon="5.98627">
        <ele>2536.6</ele>
        <time>2021-04-17T11:47:18Z</time>
      </trkpt>
      <trkpt lat="45.19763" lon="5.98627">
        <ele>2536.4</ele>
        <time>2021-04-17T11:47:24Z</time>
      </trkpt>
      <trkpt lat="45.19763" lon="5.98627">
        <ele>2535.4</ele>
        <time>2021-04-17T11:47:28Z</time>
      </trkpt>
      <trkpt lat="45.19763" lon="5.98627">
        <ele>2534.4</ele>
        <time>2021-04-17T11:47:30Z</time>
      </trkpt>
      <trkpt lat="45.19763" lon="5.98627">
        <ele>2534.2</ele>
        <time>2021-04-17T11:47:31Z</time>
      </trkpt>
      <trkpt lat="45.19763" lon="5.98627">
        <ele>2534</ele>
        <time>2021-04-17T11:47:32Z</time>
      </trkpt>
      <trkpt lat="45.19763" lon="5.98627">
        <ele>2533.8</ele>
        <time>2021-04-17T11:47:33Z</time>
      </trkpt>
      <trkpt lat="45.19763" lon="5.98627">
        <ele>2533.8</ele>
        <time>2021-04-17T11:47:36Z</time>
      </trkpt>
      <trkpt lat="45.19763" lon="5.98627">
        <ele>2534.4</ele>
        <time>2021-04-17T11:47:39Z</time>
      </trkpt>
      <trkpt lat="45.19763" lon="5.98627">
        <ele>2534.4</ele>
        <time>2021-04-17T11:47:40Z</time>
      </trkpt>
      <trkpt lat="45.19763" lon="5.98627">
        <ele>2534.6</ele>
        <time>2021-04-17T11:47:42Z</time>
      </trkpt>
      <trkpt lat="45.19763" lon="5.98627">
        <ele>2534</ele>
        <time>2021-04-17T11:47:46Z</time>
      </trkpt>
      <trkpt lat="45.19763" lon="5.98627">
        <ele>2533.8</ele>
        <time>2021-04-17T11:47:47Z</time>
      </trkpt>
      <trkpt lat="45.19763" lon="5.98627">
        <ele>2533.6</ele>
        <time>2021-04-17T11:47:49Z</time>
      </trkpt>
      <trkpt lat="45.19763" lon="5.98627">
        <ele>2533.6</ele>
        <time>2021-04-17T11:47:50Z</time>
      </trkpt>
      <trkpt lat="45.19763" lon="5.98627">
        <ele>2533.8</ele>
        <time>2021-04-17T11:47:52Z</time>
      </trkpt>
      <trkpt lat="45.19763" lon="5.98627">
        <ele>2534.8</ele>
        <time>2021-04-17T11:47:55Z</time>
      </trkpt>
      <trkpt lat="45.19763" lon="5.98627">
        <ele>2535.2</ele>
        <time>2021-04-17T11:47:57Z</time>
      </trkpt>
      <trkpt lat="45.19763" lon="5.98627">
        <ele>2535.2</ele>
        <time>2021-04-17T11:47:58Z</time>
      </trkpt>
      <trkpt lat="45.19763" lon="5.98627">
        <ele>2535</ele>
        <time>2021-04-17T11:48:00Z</time>
      </trkpt>
      <trkpt lat="45.19763" lon="5.98627">
        <ele>2535</ele>
        <time>2021-04-17T11:48:01Z</time>
      </trkpt>
      <trkpt lat="45.19763" lon="5.98627">
        <ele>2535</ele>
        <time>2021-04-17T11:48:02Z</time>
      </trkpt>
      <trkpt lat="45.19763" lon="5.98627">
        <ele>2535</ele>
        <time>2021-04-17T11:48:03Z</time>
      </trkpt>
      <trkpt lat="45.19763" lon="5.98627">
        <ele>2535</ele>
        <time>2021-04-17T11:48:04Z</time>
      </trkpt>
      <trkpt lat="45.19763" lon="5.98627">
        <ele>2535.6</ele>
        <time>2021-04-17T11:48:10Z</time>
      </trkpt>
      <trkpt lat="45.19763" lon="5.98627">
        <ele>2535.4</ele>
        <time>2021-04-17T11:48:16Z</time>
      </trkpt>
      <trkpt lat="45.19765" lon="5.9863">
        <ele>2535.4</ele>
        <time>2021-04-17T11:48:18Z</time>
      </trkpt>
      <trkpt lat="45.19767" lon="5.98633">
        <ele>2535.2</ele>
        <time>2021-04-17T11:48:19Z</time>
      </trkpt>
      <trkpt lat="45.19772" lon="5.98641">
        <ele>2533.6</ele>
        <time>2021-04-17T11:48:22Z</time>
      </trkpt>
      <trkpt lat="45.19773" lon="5.98645">
        <ele>2532.6</ele>
        <time>2021-04-17T11:48:24Z</time>
      </trkpt>
      <trkpt lat="45.19774" lon="5.98649">
        <ele>2531.2</ele>
        <time>2021-04-17T11:48:26Z</time>
      </trkpt>
      <trkpt lat="45.19775" lon="5.9865">
        <ele>2530.8</ele>
        <time>2021-04-17T11:48:27Z</time>
      </trkpt>
      <trkpt lat="45.19776" lon="5.98651">
        <ele>2530.2</ele>
        <time>2021-04-17T11:48:30Z</time>
      </trkpt>
      <trkpt lat="45.19776" lon="5.98652">
        <ele>2530.2</ele>
        <time>2021-04-17T11:48:31Z</time>
      </trkpt>
      <trkpt lat="45.19775" lon="5.98652">
        <ele>2530</ele>
        <time>2021-04-17T11:48:33Z</time>
      </trkpt>
      <trkpt lat="45.19777" lon="5.98651">
        <ele>2530.4</ele>
        <time>2021-04-17T11:48:36Z</time>
      </trkpt>
      <trkpt lat="45.19779" lon="5.98653">
        <ele>2529.8</ele>
        <time>2021-04-17T11:48:41Z</time>
      </trkpt>
      <trkpt lat="45.1978" lon="5.98652">
        <ele>2529.4</ele>
        <time>2021-04-17T11:48:45Z</time>
      </trkpt>
      <trkpt lat="45.1978" lon="5.98652">
        <ele>2530.6</ele>
        <time>2021-04-17T11:48:49Z</time>
      </trkpt>
      <trkpt lat="45.19779" lon="5.98652">
        <ele>2529</ele>
        <time>2021-04-17T11:48:55Z</time>
      </trkpt>
      <trkpt lat="45.19778" lon="5.98653">
        <ele>2528.6</ele>
        <time>2021-04-17T11:48:56Z</time>
      </trkpt>
      <trkpt lat="45.19776" lon="5.98654">
        <ele>2527.6</ele>
        <time>2021-04-17T11:48:57Z</time>
      </trkpt>
      <trkpt lat="45.19774" lon="5.98654">
        <ele>2526.8</ele>
        <time>2021-04-17T11:48:58Z</time>
      </trkpt>
      <trkpt lat="45.19772" lon="5.98657">
        <ele>2526</ele>
        <time>2021-04-17T11:48:59Z</time>
      </trkpt>
      <trkpt lat="45.19773" lon="5.98662">
        <ele>2524.8</ele>
        <time>2021-04-17T11:49:00Z</time>
      </trkpt>
      <trkpt lat="45.19775" lon="5.98667">
        <ele>2523</ele>
        <time>2021-04-17T11:49:01Z</time>
      </trkpt>
      <trkpt lat="45.19777" lon="5.98669">
        <ele>2521.6</ele>
        <time>2021-04-17T11:49:02Z</time>
      </trkpt>
      <trkpt lat="45.19779" lon="5.98671">
        <ele>2520.8</ele>
        <time>2021-04-17T11:49:03Z</time>
      </trkpt>
      <trkpt lat="45.1978" lon="5.98672">
        <ele>2520.4</ele>
        <time>2021-04-17T11:49:04Z</time>
      </trkpt>
      <trkpt lat="45.19781" lon="5.98672">
        <ele>2520.2</ele>
        <time>2021-04-17T11:49:06Z</time>
      </trkpt>
      <trkpt lat="45.19781" lon="5.98673">
        <ele>2520.2</ele>
        <time>2021-04-17T11:49:07Z</time>
      </trkpt>
      <trkpt lat="45.19782" lon="5.98673">
        <ele>2520.2</ele>
        <time>2021-04-17T11:49:09Z</time>
      </trkpt>
      <trkpt lat="45.19785" lon="5.98678">
        <ele>2518.4</ele>
        <time>2021-04-17T11:49:12Z</time>
      </trkpt>
      <trkpt lat="45.19786" lon="5.98677">
        <ele>2517</ele>
        <time>2021-04-17T11:49:13Z</time>
      </trkpt>
      <trkpt lat="45.19787" lon="5.98676">
        <ele>2515.4</ele>
        <time>2021-04-17T11:49:14Z</time>
      </trkpt>
      <trkpt lat="45.19788" lon="5.98675">
        <ele>2514</ele>
        <time>2021-04-17T11:49:15Z</time>
      </trkpt>
      <trkpt lat="45.19787" lon="5.98674">
        <ele>2512.6</ele>
        <time>2021-04-17T11:49:17Z</time>
      </trkpt>
      <trkpt lat="45.19786" lon="5.98673">
        <ele>2512.2</ele>
        <time>2021-04-17T11:49:18Z</time>
      </trkpt>
      <trkpt lat="45.19786" lon="5.98673">
        <ele>2512</ele>
        <time>2021-04-17T11:49:19Z</time>
      </trkpt>
      <trkpt lat="45.19784" lon="5.98672">
        <ele>2511.4</ele>
        <time>2021-04-17T11:49:21Z</time>
      </trkpt>
      <trkpt lat="45.19782" lon="5.98671">
        <ele>2511.2</ele>
        <time>2021-04-17T11:49:23Z</time>
      </trkpt>
      <trkpt lat="45.1978" lon="5.98669">
        <ele>2511</ele>
        <time>2021-04-17T11:49:25Z</time>
      </trkpt>
      <trkpt lat="45.19781" lon="5.98669">
        <ele>2511</ele>
        <time>2021-04-17T11:49:26Z</time>
      </trkpt>
      <trkpt lat="45.19781" lon="5.98667">
        <ele>2510.8</ele>
        <time>2021-04-17T11:49:28Z</time>
      </trkpt>
      <trkpt lat="45.19784" lon="5.98663">
        <ele>2510.2</ele>
        <time>2021-04-17T11:49:30Z</time>
      </trkpt>
      <trkpt lat="45.19787" lon="5.98663">
        <ele>2508.6</ele>
        <time>2021-04-17T11:49:32Z</time>
      </trkpt>
      <trkpt lat="45.19789" lon="5.98663">
        <ele>2507.6</ele>
        <time>2021-04-17T11:49:33Z</time>
      </trkpt>
      <trkpt lat="45.1979" lon="5.98661">
        <ele>2506.6</ele>
        <time>2021-04-17T11:49:34Z</time>
      </trkpt>
      <trkpt lat="45.1979" lon="5.98658">
        <ele>2505.4</ele>
        <time>2021-04-17T11:49:35Z</time>
      </trkpt>
      <trkpt lat="45.19789" lon="5.98654">
        <ele>2504</ele>
        <time>2021-04-17T11:49:36Z</time>
      </trkpt>
      <trkpt lat="45.19789" lon="5.9865">
        <ele>2502.6</ele>
        <time>2021-04-17T11:49:37Z</time>
      </trkpt>
      <trkpt lat="45.19791" lon="5.98648">
        <ele>2501.2</ele>
        <time>2021-04-17T11:49:38Z</time>
      </trkpt>
      <trkpt lat="45.19793" lon="5.98649">
        <ele>2499.6</ele>
        <time>2021-04-17T11:49:39Z</time>
      </trkpt>
      <trkpt lat="45.19795" lon="5.98651">
        <ele>2497.6</ele>
        <time>2021-04-17T11:49:40Z</time>
      </trkpt>
      <trkpt lat="45.19795" lon="5.98651">
        <ele>2495.6</ele>
        <time>2021-04-17T11:49:41Z</time>
      </trkpt>
      <trkpt lat="45.19795" lon="5.98651">
        <ele>2494.4</ele>
        <time>2021-04-17T11:49:42Z</time>
      </trkpt>
      <trkpt lat="45.19796" lon="5.98651">
        <ele>2493.6</ele>
        <time>2021-04-17T11:49:44Z</time>
      </trkpt>
      <trkpt lat="45.19796" lon="5.98651">
        <ele>2493.4</ele>
        <time>2021-04-17T11:49:45Z</time>
      </trkpt>
      <trkpt lat="45.19798" lon="5.98647">
        <ele>2493</ele>
        <time>2021-04-17T11:49:47Z</time>
      </trkpt>
      <trkpt lat="45.19799" lon="5.98643">
        <ele>2492.4</ele>
        <time>2021-04-17T11:49:48Z</time>
      </trkpt>
      <trkpt lat="45.19801" lon="5.98638">
        <ele>2491</ele>
        <time>2021-04-17T11:49:49Z</time>
      </trkpt>
      <trkpt lat="45.19803" lon="5.98638">
        <ele>2489.4</ele>
        <time>2021-04-17T11:49:50Z</time>
      </trkpt>
      <trkpt lat="45.19806" lon="5.9864">
        <ele>2487.8</ele>
        <time>2021-04-17T11:49:51Z</time>
      </trkpt>
      <trkpt lat="45.19807" lon="5.98642">
        <ele>2486.4</ele>
        <time>2021-04-17T11:49:52Z</time>
      </trkpt>
      <trkpt lat="45.19808" lon="5.98645">
        <ele>2484.8</ele>
        <time>2021-04-17T11:49:53Z</time>
      </trkpt>
      <trkpt lat="45.1981" lon="5.98645">
        <ele>2483.2</ele>
        <time>2021-04-17T11:49:54Z</time>
      </trkpt>
      <trkpt lat="45.19812" lon="5.98642">
        <ele>2481.8</ele>
        <time>2021-04-17T11:49:55Z</time>
      </trkpt>
      <trkpt lat="45.19814" lon="5.98639">
        <ele>2479.8</ele>
        <time>2021-04-17T11:49:56Z</time>
      </trkpt>
      <trkpt lat="45.19817" lon="5.98637">
        <ele>2478.2</ele>
        <time>2021-04-17T11:49:57Z</time>
      </trkpt>
      <trkpt lat="45.1982" lon="5.9864">
        <ele>2476.6</ele>
        <time>2021-04-17T11:49:58Z</time>
      </trkpt>
      <trkpt lat="45.19822" lon="5.98643">
        <ele>2474.8</ele>
        <time>2021-04-17T11:49:59Z</time>
      </trkpt>
      <trkpt lat="45.19823" lon="5.98647">
        <ele>2473</ele>
        <time>2021-04-17T11:50:00Z</time>
      </trkpt>
      <trkpt lat="45.19823" lon="5.98649">
        <ele>2471.6</ele>
        <time>2021-04-17T11:50:01Z</time>
      </trkpt>
      <trkpt lat="45.19823" lon="5.98649">
        <ele>2470.4</ele>
        <time>2021-04-17T11:50:02Z</time>
      </trkpt>
      <trkpt lat="45.19823" lon="5.9865">
        <ele>2469.6</ele>
        <time>2021-04-17T11:50:04Z</time>
      </trkpt>
      <trkpt lat="45.19824" lon="5.9865">
        <ele>2469.4</ele>
        <time>2021-04-17T11:50:05Z</time>
      </trkpt>
      <trkpt lat="45.19824" lon="5.9865">
        <ele>2469.4</ele>
        <time>2021-04-17T11:50:06Z</time>
      </trkpt>
      <trkpt lat="45.19827" lon="5.98649">
        <ele>2469.4</ele>
        <time>2021-04-17T11:50:08Z</time>
      </trkpt>
      <trkpt lat="45.19827" lon="5.98649">
        <ele>2469.4</ele>
        <time>2021-04-17T11:50:13Z</time>
      </trkpt>
      <trkpt lat="45.19828" lon="5.98649">
        <ele>2469.4</ele>
        <time>2021-04-17T11:50:19Z</time>
      </trkpt>
      <trkpt lat="45.19829" lon="5.98648">
        <ele>2469.2</ele>
        <time>2021-04-17T11:50:20Z</time>
      </trkpt>
      <trkpt lat="45.19832" lon="5.98649">
        <ele>2466.6</ele>
        <time>2021-04-17T11:50:22Z</time>
      </trkpt>
      <trkpt lat="45.1984" lon="5.98651">
        <ele>2464.2</ele>
        <time>2021-04-17T11:50:23Z</time>
      </trkpt>
      <trkpt lat="45.19845" lon="5.98651">
        <ele>2461.6</ele>
        <time>2021-04-17T11:50:25Z</time>
      </trkpt>
      <trkpt lat="45.19848" lon="5.98651">
        <ele>2458.8</ele>
        <time>2021-04-17T11:50:26Z</time>
      </trkpt>
      <trkpt lat="45.19851" lon="5.9865">
        <ele>2455.8</ele>
        <time>2021-04-17T11:50:27Z</time>
      </trkpt>
      <trkpt lat="45.19854" lon="5.98646">
        <ele>2452.8</ele>
        <time>2021-04-17T11:50:28Z</time>
      </trkpt>
      <trkpt lat="45.19857" lon="5.98641">
        <ele>2449.6</ele>
        <time>2021-04-17T11:50:29Z</time>
      </trkpt>
      <trkpt lat="45.19859" lon="5.98637">
        <ele>2446.8</ele>
        <time>2021-04-17T11:50:30Z</time>
      </trkpt>
      <trkpt lat="45.19864" lon="5.98637">
        <ele>2444.6</ele>
        <time>2021-04-17T11:50:31Z</time>
      </trkpt>
      <trkpt lat="45.19869" lon="5.98639">
        <ele>2442.4</ele>
        <time>2021-04-17T11:50:32Z</time>
      </trkpt>
      <trkpt lat="45.19874" lon="5.98639">
        <ele>2439.6</ele>
        <time>2021-04-17T11:50:33Z</time>
      </trkpt>
      <trkpt lat="45.1988" lon="5.98638">
        <ele>2436</ele>
        <time>2021-04-17T11:50:34Z</time>
      </trkpt>
      <trkpt lat="45.19885" lon="5.9864">
        <ele>2432.2</ele>
        <time>2021-04-17T11:50:35Z</time>
      </trkpt>
      <trkpt lat="45.19892" lon="5.9864">
        <ele>2428.6</ele>
        <time>2021-04-17T11:50:36Z</time>
      </trkpt>
      <trkpt lat="45.19898" lon="5.98639">
        <ele>2425</ele>
        <time>2021-04-17T11:50:37Z</time>
      </trkpt>
      <trkpt lat="45.19902" lon="5.9864">
        <ele>2420.6</ele>
        <time>2021-04-17T11:50:38Z</time>
      </trkpt>
      <trkpt lat="45.19908" lon="5.98642">
        <ele>2415.8</ele>
        <time>2021-04-17T11:50:39Z</time>
      </trkpt>
      <trkpt lat="45.19916" lon="5.98643">
        <ele>2411.6</ele>
        <time>2021-04-17T11:50:40Z</time>
      </trkpt>
      <trkpt lat="45.19921" lon="5.98645">
        <ele>2407.4</ele>
        <time>2021-04-17T11:50:41Z</time>
      </trkpt>
      <trkpt lat="45.19926" lon="5.98647">
        <ele>2403.2</ele>
        <time>2021-04-17T11:50:42Z</time>
      </trkpt>
      <trkpt lat="45.19933" lon="5.9865">
        <ele>2399.2</ele>
        <time>2021-04-17T11:50:43Z</time>
      </trkpt>
      <trkpt lat="45.19938" lon="5.98648">
        <ele>2395.8</ele>
        <time>2021-04-17T11:50:44Z</time>
      </trkpt>
      <trkpt lat="45.19943" lon="5.98644">
        <ele>2392.2</ele>
        <time>2021-04-17T11:50:45Z</time>
      </trkpt>
      <trkpt lat="45.19947" lon="5.98638">
        <ele>2388.4</ele>
        <time>2021-04-17T11:50:46Z</time>
      </trkpt>
      <trkpt lat="45.19948" lon="5.98634">
        <ele>2386</ele>
        <time>2021-04-17T11:50:47Z</time>
      </trkpt>
      <trkpt lat="45.19947" lon="5.98632">
        <ele>2384.4</ele>
        <time>2021-04-17T11:50:48Z</time>
      </trkpt>
      <trkpt lat="45.19946" lon="5.98631">
        <ele>2383.4</ele>
        <time>2021-04-17T11:50:49Z</time>
      </trkpt>
      <trkpt lat="45.19946" lon="5.98629">
        <ele>2382.2</ele>
        <time>2021-04-17T11:50:51Z</time>
      </trkpt>
      <trkpt lat="45.19945" lon="5.98629">
        <ele>2381.8</ele>
        <time>2021-04-17T11:50:52Z</time>
      </trkpt>
      <trkpt lat="45.19945" lon="5.98628">
        <ele>2381.6</ele>
        <time>2021-04-17T11:50:53Z</time>
      </trkpt>
      <trkpt lat="45.19943" lon="5.98627">
        <ele>2381.2</ele>
        <time>2021-04-17T11:50:55Z</time>
      </trkpt>
      <trkpt lat="45.19941" lon="5.98627">
        <ele>2381.2</ele>
        <time>2021-04-17T11:50:58Z</time>
      </trkpt>
      <trkpt lat="45.19938" lon="5.98627">
        <ele>2381</ele>
        <time>2021-04-17T11:51:03Z</time>
      </trkpt>
      <trkpt lat="45.19937" lon="5.98627">
        <ele>2381</ele>
        <time>2021-04-17T11:51:05Z</time>
      </trkpt>
      <trkpt lat="45.19937" lon="5.98627">
        <ele>2381</ele>
        <time>2021-04-17T11:51:07Z</time>
      </trkpt>
      <trkpt lat="45.19937" lon="5.98627">
        <ele>2381</ele>
        <time>2021-04-17T11:51:09Z</time>
      </trkpt>
      <trkpt lat="45.19937" lon="5.98627">
        <ele>2381</ele>
        <time>2021-04-17T11:51:11Z</time>
      </trkpt>
      <trkpt lat="45.19937" lon="5.98627">
        <ele>2381</ele>
        <time>2021-04-17T11:51:12Z</time>
      </trkpt>
      <trkpt lat="45.19937" lon="5.98627">
        <ele>2380.8</ele>
        <time>2021-04-17T11:51:13Z</time>
      </trkpt>
      <trkpt lat="45.19937" lon="5.98627">
        <ele>2380.8</ele>
        <time>2021-04-17T11:51:14Z</time>
      </trkpt>
      <trkpt lat="45.19937" lon="5.98627">
        <ele>2380.8</ele>
        <time>2021-04-17T11:51:16Z</time>
      </trkpt>
      <trkpt lat="45.19937" lon="5.98626">
        <ele>2381</ele>
        <time>2021-04-17T11:51:20Z</time>
      </trkpt>
      <trkpt lat="45.19937" lon="5.98626">
        <ele>2381</ele>
        <time>2021-04-17T11:51:22Z</time>
      </trkpt>
      <trkpt lat="45.19937" lon="5.98626">
        <ele>2381</ele>
        <time>2021-04-17T11:51:24Z</time>
      </trkpt>
      <trkpt lat="45.19937" lon="5.98626">
        <ele>2381</ele>
        <time>2021-04-17T11:51:25Z</time>
      </trkpt>
      <trkpt lat="45.19937" lon="5.98626">
        <ele>2380.8</ele>
        <time>2021-04-17T11:51:26Z</time>
      </trkpt>
      <trkpt lat="45.19937" lon="5.98626">
        <ele>2380.8</ele>
        <time>2021-04-17T11:51:30Z</time>
      </trkpt>
      <trkpt lat="45.19937" lon="5.98626">
        <ele>2380.8</ele>
        <time>2021-04-17T11:51:31Z</time>
      </trkpt>
      <trkpt lat="45.19936" lon="5.98626">
        <ele>2380.8</ele>
        <time>2021-04-17T11:51:36Z</time>
      </trkpt>
      <trkpt lat="45.19936" lon="5.98626">
        <ele>2380.8</ele>
        <time>2021-04-17T11:51:37Z</time>
      </trkpt>
      <trkpt lat="45.19936" lon="5.98626">
        <ele>2380.8</ele>
        <time>2021-04-17T11:51:39Z</time>
      </trkpt>
      <trkpt lat="45.19936" lon="5.98626">
        <ele>2380.8</ele>
        <time>2021-04-17T11:51:41Z</time>
      </trkpt>
      <trkpt lat="45.19936" lon="5.98626">
        <ele>2380.8</ele>
        <time>2021-04-17T11:51:42Z</time>
      </trkpt>
      <trkpt lat="45.19936" lon="5.98626">
        <ele>2380.8</ele>
        <time>2021-04-17T11:51:44Z</time>
      </trkpt>
      <trkpt lat="45.19936" lon="5.98627">
        <ele>2380.6</ele>
        <time>2021-04-17T11:51:50Z</time>
      </trkpt>
      <trkpt lat="45.19936" lon="5.98627">
        <ele>2380.6</ele>
        <time>2021-04-17T11:51:51Z</time>
      </trkpt>
      <trkpt lat="45.19936" lon="5.98627">
        <ele>2380.6</ele>
        <time>2021-04-17T11:51:53Z</time>
      </trkpt>
      <trkpt lat="45.19936" lon="5.98627">
        <ele>2380.6</ele>
        <time>2021-04-17T11:51:55Z</time>
      </trkpt>
      <trkpt lat="45.19935" lon="5.98627">
        <ele>2380.6</ele>
        <time>2021-04-17T11:51:56Z</time>
      </trkpt>
      <trkpt lat="45.19935" lon="5.98627">
        <ele>2380.6</ele>
        <time>2021-04-17T11:51:57Z</time>
      </trkpt>
      <trkpt lat="45.19935" lon="5.98627">
        <ele>2380.6</ele>
        <time>2021-04-17T11:51:59Z</time>
      </trkpt>
      <trkpt lat="45.19935" lon="5.98627">
        <ele>2380.6</ele>
        <time>2021-04-17T11:52:00Z</time>
      </trkpt>
      <trkpt lat="45.19935" lon="5.98627">
        <ele>2380.6</ele>
        <time>2021-04-17T11:52:02Z</time>
      </trkpt>
      <trkpt lat="45.19935" lon="5.98627">
        <ele>2380.6</ele>
        <time>2021-04-17T11:52:03Z</time>
      </trkpt>
      <trkpt lat="45.19935" lon="5.98627">
        <ele>2380.6</ele>
        <time>2021-04-17T11:52:07Z</time>
      </trkpt>
      <trkpt lat="45.19935" lon="5.98626">
        <ele>2380.4</ele>
        <time>2021-04-17T11:52:13Z</time>
      </trkpt>
      <trkpt lat="45.19935" lon="5.98626">
        <ele>2380.4</ele>
        <time>2021-04-17T11:52:15Z</time>
      </trkpt>
      <trkpt lat="45.19935" lon="5.98625">
        <ele>2380.4</ele>
        <time>2021-04-17T11:52:17Z</time>
      </trkpt>
      <trkpt lat="45.19935" lon="5.98625">
        <ele>2380.4</ele>
        <time>2021-04-17T11:52:18Z</time>
      </trkpt>
      <trkpt lat="45.19935" lon="5.98624">
        <ele>2380</ele>
        <time>2021-04-17T11:52:22Z</time>
      </trkpt>
      <trkpt lat="45.19935" lon="5.98624">
        <ele>2380</ele>
        <time>2021-04-17T11:52:23Z</time>
      </trkpt>
      <trkpt lat="45.19935" lon="5.98624">
        <ele>2380</ele>
        <time>2021-04-17T11:52:24Z</time>
      </trkpt>
      <trkpt lat="45.19935" lon="5.98624">
        <ele>2380</ele>
        <time>2021-04-17T11:52:26Z</time>
      </trkpt>
      <trkpt lat="45.19936" lon="5.98623">
        <ele>2379.8</ele>
        <time>2021-04-17T11:52:30Z</time>
      </trkpt>
      <trkpt lat="45.19936" lon="5.98623">
        <ele>2379.8</ele>
        <time>2021-04-17T11:52:33Z</time>
      </trkpt>
      <trkpt lat="45.19936" lon="5.98623">
        <ele>2380</ele>
        <time>2021-04-17T11:52:34Z</time>
      </trkpt>
      <trkpt lat="45.19936" lon="5.98622">
        <ele>2380</ele>
        <time>2021-04-17T11:52:40Z</time>
      </trkpt>
      <trkpt lat="45.19936" lon="5.98622">
        <ele>2380</ele>
        <time>2021-04-17T11:52:41Z</time>
      </trkpt>
      <trkpt lat="45.19936" lon="5.98622">
        <ele>2380</ele>
        <time>2021-04-17T11:52:42Z</time>
      </trkpt>
      <trkpt lat="45.19936" lon="5.98621">
        <ele>2379.8</ele>
        <time>2021-04-17T11:52:46Z</time>
      </trkpt>
      <trkpt lat="45.19936" lon="5.98622">
        <ele>2379.8</ele>
        <time>2021-04-17T11:52:52Z</time>
      </trkpt>
      <trkpt lat="45.19936" lon="5.98622">
        <ele>2379.8</ele>
        <time>2021-04-17T11:52:54Z</time>
      </trkpt>
      <trkpt lat="45.19936" lon="5.98622">
        <ele>2379.8</ele>
        <time>2021-04-17T11:52:55Z</time>
      </trkpt>
      <trkpt lat="45.19937" lon="5.98622">
        <ele>2379.6</ele>
        <time>2021-04-17T11:52:58Z</time>
      </trkpt>
      <trkpt lat="45.1994" lon="5.98624">
        <ele>2379.4</ele>
        <time>2021-04-17T11:52:59Z</time>
      </trkpt>
      <trkpt lat="45.19942" lon="5.98628">
        <ele>2378.6</ele>
        <time>2021-04-17T11:53:00Z</time>
      </trkpt>
      <trkpt lat="45.19945" lon="5.9863">
        <ele>2377.6</ele>
        <time>2021-04-17T11:53:01Z</time>
      </trkpt>
      <trkpt lat="45.19949" lon="5.98633">
        <ele>2376.2</ele>
        <time>2021-04-17T11:53:02Z</time>
      </trkpt>
      <trkpt lat="45.1995" lon="5.98636">
        <ele>2374.2</ele>
        <time>2021-04-17T11:53:03Z</time>
      </trkpt>
      <trkpt lat="45.19953" lon="5.9864">
        <ele>2372</ele>
        <time>2021-04-17T11:53:04Z</time>
      </trkpt>
      <trkpt lat="45.19958" lon="5.98643">
        <ele>2369.8</ele>
        <time>2021-04-17T11:53:05Z</time>
      </trkpt>
      <trkpt lat="45.19961" lon="5.98646">
        <ele>2367.6</ele>
        <time>2021-04-17T11:53:06Z</time>
      </trkpt>
      <trkpt lat="45.19963" lon="5.9865">
        <ele>2365</ele>
        <time>2021-04-17T11:53:07Z</time>
      </trkpt>
      <trkpt lat="45.19963" lon="5.98654">
        <ele>2362.6</ele>
        <time>2021-04-17T11:53:08Z</time>
      </trkpt>
      <trkpt lat="45.19964" lon="5.98657">
        <ele>2360.6</ele>
        <time>2021-04-17T11:53:09Z</time>
      </trkpt>
      <trkpt lat="45.19968" lon="5.98659">
        <ele>2359.2</ele>
        <time>2021-04-17T11:53:10Z</time>
      </trkpt>
      <trkpt lat="45.1997" lon="5.9866">
        <ele>2357.8</ele>
        <time>2021-04-17T11:53:11Z</time>
      </trkpt>
      <trkpt lat="45.1997" lon="5.98661">
        <ele>2356</ele>
        <time>2021-04-17T11:53:12Z</time>
      </trkpt>
      <trkpt lat="45.19969" lon="5.9866">
        <ele>2354.4</ele>
        <time>2021-04-17T11:53:13Z</time>
      </trkpt>
      <trkpt lat="45.19969" lon="5.9866">
        <ele>2353.4</ele>
        <time>2021-04-17T11:53:14Z</time>
      </trkpt>
      <trkpt lat="45.19969" lon="5.9866">
        <ele>2353</ele>
        <time>2021-04-17T11:53:15Z</time>
      </trkpt>
      <trkpt lat="45.19967" lon="5.98659">
        <ele>2352.4</ele>
        <time>2021-04-17T11:53:18Z</time>
      </trkpt>
      <trkpt lat="45.19966" lon="5.98659">
        <ele>2352.4</ele>
        <time>2021-04-17T11:53:19Z</time>
      </trkpt>
      <trkpt lat="45.19966" lon="5.98659">
        <ele>2352.4</ele>
        <time>2021-04-17T11:53:21Z</time>
      </trkpt>
      <trkpt lat="45.19966" lon="5.98659">
        <ele>2352.2</ele>
        <time>2021-04-17T11:53:24Z</time>
      </trkpt>
      <trkpt lat="45.19966" lon="5.98659">
        <ele>2352.4</ele>
        <time>2021-04-17T11:53:27Z</time>
      </trkpt>
      <trkpt lat="45.19966" lon="5.98659">
        <ele>2352.2</ele>
        <time>2021-04-17T11:53:29Z</time>
      </trkpt>
      <trkpt lat="45.19966" lon="5.98659">
        <ele>2352.2</ele>
        <time>2021-04-17T11:53:35Z</time>
      </trkpt>
      <trkpt lat="45.19966" lon="5.98659">
        <ele>2352</ele>
        <time>2021-04-17T11:53:36Z</time>
      </trkpt>
      <trkpt lat="45.19966" lon="5.98659">
        <ele>2352</ele>
        <time>2021-04-17T11:53:37Z</time>
      </trkpt>
      <trkpt lat="45.19966" lon="5.98659">
        <ele>2352.2</ele>
        <time>2021-04-17T11:53:42Z</time>
      </trkpt>
      <trkpt lat="45.19969" lon="5.98658">
        <ele>2351</ele>
        <time>2021-04-17T11:53:46Z</time>
      </trkpt>
      <trkpt lat="45.19972" lon="5.98658">
        <ele>2350.2</ele>
        <time>2021-04-17T11:53:47Z</time>
      </trkpt>
      <trkpt lat="45.19975" lon="5.98661">
        <ele>2349.2</ele>
        <time>2021-04-17T11:53:48Z</time>
      </trkpt>
      <trkpt lat="45.19975" lon="5.98664">
        <ele>2348</ele>
        <time>2021-04-17T11:53:49Z</time>
      </trkpt>
      <trkpt lat="45.19976" lon="5.98666">
        <ele>2346.6</ele>
        <time>2021-04-17T11:53:50Z</time>
      </trkpt>
      <trkpt lat="45.19979" lon="5.98667">
        <ele>2345.2</ele>
        <time>2021-04-17T11:53:51Z</time>
      </trkpt>
      <trkpt lat="45.19982" lon="5.98666">
        <ele>2344</ele>
        <time>2021-04-17T11:53:52Z</time>
      </trkpt>
      <trkpt lat="45.19985" lon="5.98668">
        <ele>2342.4</ele>
        <time>2021-04-17T11:53:53Z</time>
      </trkpt>
      <trkpt lat="45.19987" lon="5.98671">
        <ele>2340.4</ele>
        <time>2021-04-17T11:53:54Z</time>
      </trkpt>
      <trkpt lat="45.19988" lon="5.98673">
        <ele>2339.2</ele>
        <time>2021-04-17T11:53:55Z</time>
      </trkpt>
      <trkpt lat="45.1999" lon="5.98675">
        <ele>2337.8</ele>
        <time>2021-04-17T11:53:56Z</time>
      </trkpt>
      <trkpt lat="45.19993" lon="5.98674">
        <ele>2336.8</ele>
        <time>2021-04-17T11:53:57Z</time>
      </trkpt>
      <trkpt lat="45.19995" lon="5.98671">
        <ele>2335.6</ele>
        <time>2021-04-17T11:53:58Z</time>
      </trkpt>
      <trkpt lat="45.19997" lon="5.98669">
        <ele>2334.2</ele>
        <time>2021-04-17T11:53:59Z</time>
      </trkpt>
      <trkpt lat="45.19998" lon="5.98665">
        <ele>2332.8</ele>
        <time>2021-04-17T11:54:00Z</time>
      </trkpt>
      <trkpt lat="45.20001" lon="5.98662">
        <ele>2331.6</ele>
        <time>2021-04-17T11:54:01Z</time>
      </trkpt>
      <trkpt lat="45.20004" lon="5.98657">
        <ele>2330.2</ele>
        <time>2021-04-17T11:54:03Z</time>
      </trkpt>
      <trkpt lat="45.20007" lon="5.98654">
        <ele>2329</ele>
        <time>2021-04-17T11:54:05Z</time>
      </trkpt>
      <trkpt lat="45.20012" lon="5.98648">
        <ele>2327.6</ele>
        <time>2021-04-17T11:54:08Z</time>
      </trkpt>
      <trkpt lat="45.2002" lon="5.98642">
        <ele>2326.4</ele>
        <time>2021-04-17T11:54:10Z</time>
      </trkpt>
      <trkpt lat="45.20024" lon="5.98637">
        <ele>2324.6</ele>
        <time>2021-04-17T11:54:12Z</time>
      </trkpt>
      <trkpt lat="45.20025" lon="5.98636">
        <ele>2323.8</ele>
        <time>2021-04-17T11:54:13Z</time>
      </trkpt>
      <trkpt lat="45.20026" lon="5.98634">
        <ele>2323.2</ele>
        <time>2021-04-17T11:54:14Z</time>
      </trkpt>
      <trkpt lat="45.20026" lon="5.98634">
        <ele>2322.8</ele>
        <time>2021-04-17T11:54:15Z</time>
      </trkpt>
      <trkpt lat="45.20028" lon="5.98633">
        <ele>2322.4</ele>
        <time>2021-04-17T11:54:17Z</time>
      </trkpt>
      <trkpt lat="45.2003" lon="5.98632">
        <ele>2322.2</ele>
        <time>2021-04-17T11:54:18Z</time>
      </trkpt>
      <trkpt lat="45.20038" lon="5.98633">
        <ele>2320.8</ele>
        <time>2021-04-17T11:54:21Z</time>
      </trkpt>
      <trkpt lat="45.20041" lon="5.98638">
        <ele>2318.8</ele>
        <time>2021-04-17T11:54:23Z</time>
      </trkpt>
      <trkpt lat="45.20044" lon="5.9864">
        <ele>2317.6</ele>
        <time>2021-04-17T11:54:24Z</time>
      </trkpt>
      <trkpt lat="45.20047" lon="5.98643">
        <ele>2316.2</ele>
        <time>2021-04-17T11:54:25Z</time>
      </trkpt>
      <trkpt lat="45.2005" lon="5.98646">
        <ele>2314.6</ele>
        <time>2021-04-17T11:54:26Z</time>
      </trkpt>
      <trkpt lat="45.20053" lon="5.98648">
        <ele>2313</ele>
        <time>2021-04-17T11:54:27Z</time>
      </trkpt>
      <trkpt lat="45.20054" lon="5.98651">
        <ele>2311.2</ele>
        <time>2021-04-17T11:54:28Z</time>
      </trkpt>
      <trkpt lat="45.20055" lon="5.98655">
        <ele>2309.4</ele>
        <time>2021-04-17T11:54:29Z</time>
      </trkpt>
      <trkpt lat="45.20054" lon="5.98659">
        <ele>2307.6</ele>
        <time>2021-04-17T11:54:30Z</time>
      </trkpt>
      <trkpt lat="45.20053" lon="5.98663">
        <ele>2305.8</ele>
        <time>2021-04-17T11:54:31Z</time>
      </trkpt>
      <trkpt lat="45.20052" lon="5.98666">
        <ele>2304.4</ele>
        <time>2021-04-17T11:54:32Z</time>
      </trkpt>
      <trkpt lat="45.2005" lon="5.98671">
        <ele>2303</ele>
        <time>2021-04-17T11:54:34Z</time>
      </trkpt>
      <trkpt lat="45.2005" lon="5.98674">
        <ele>2302.2</ele>
        <time>2021-04-17T11:54:36Z</time>
      </trkpt>
      <trkpt lat="45.20053" lon="5.98675">
        <ele>2301.6</ele>
        <time>2021-04-17T11:54:38Z</time>
      </trkpt>
      <trkpt lat="45.20057" lon="5.98671">
        <ele>2299.8</ele>
        <time>2021-04-17T11:54:40Z</time>
      </trkpt>
      <trkpt lat="45.20061" lon="5.98668">
        <ele>2298.2</ele>
        <time>2021-04-17T11:54:42Z</time>
      </trkpt>
      <trkpt lat="45.20065" lon="5.98666">
        <ele>2297</ele>
        <time>2021-04-17T11:54:44Z</time>
      </trkpt>
      <trkpt lat="45.20066" lon="5.98666">
        <ele>2296.4</ele>
        <time>2021-04-17T11:54:45Z</time>
      </trkpt>
      <trkpt lat="45.20068" lon="5.98668">
        <ele>2295.8</ele>
        <time>2021-04-17T11:54:46Z</time>
      </trkpt>
      <trkpt lat="45.20066" lon="5.98675">
        <ele>2294</ele>
        <time>2021-04-17T11:54:48Z</time>
      </trkpt>
      <trkpt lat="45.20065" lon="5.98678">
        <ele>2292.4</ele>
        <time>2021-04-17T11:54:49Z</time>
      </trkpt>
      <trkpt lat="45.20064" lon="5.98681">
        <ele>2291.4</ele>
        <time>2021-04-17T11:54:50Z</time>
      </trkpt>
      <trkpt lat="45.20063" lon="5.98688">
        <ele>2290.2</ele>
        <time>2021-04-17T11:54:52Z</time>
      </trkpt>
      <trkpt lat="45.20061" lon="5.98696">
        <ele>2288.6</ele>
        <time>2021-04-17T11:54:54Z</time>
      </trkpt>
      <trkpt lat="45.20061" lon="5.987">
        <ele>2287.8</ele>
        <time>2021-04-17T11:54:55Z</time>
      </trkpt>
      <trkpt lat="45.2006" lon="5.98701">
        <ele>2287.2</ele>
        <time>2021-04-17T11:54:56Z</time>
      </trkpt>
      <trkpt lat="45.2006" lon="5.98702">
        <ele>2286.2</ele>
        <time>2021-04-17T11:54:58Z</time>
      </trkpt>
      <trkpt lat="45.2006" lon="5.98702">
        <ele>2286</ele>
        <time>2021-04-17T11:54:59Z</time>
      </trkpt>
      <trkpt lat="45.20059" lon="5.98702">
        <ele>2285.4</ele>
        <time>2021-04-17T11:55:05Z</time>
      </trkpt>
      <trkpt lat="45.20061" lon="5.98702">
        <ele>2285.4</ele>
        <time>2021-04-17T11:55:09Z</time>
      </trkpt>
      <trkpt lat="45.20067" lon="5.98699">
        <ele>2284.8</ele>
        <time>2021-04-17T11:55:11Z</time>
      </trkpt>
      <trkpt lat="45.2007" lon="5.98698">
        <ele>2283.8</ele>
        <time>2021-04-17T11:55:12Z</time>
      </trkpt>
      <trkpt lat="45.20074" lon="5.98698">
        <ele>2282.2</ele>
        <time>2021-04-17T11:55:13Z</time>
      </trkpt>
      <trkpt lat="45.20078" lon="5.98701">
        <ele>2280.6</ele>
        <time>2021-04-17T11:55:14Z</time>
      </trkpt>
      <trkpt lat="45.20082" lon="5.98703">
        <ele>2278.8</ele>
        <time>2021-04-17T11:55:15Z</time>
      </trkpt>
      <trkpt lat="45.20085" lon="5.98702">
        <ele>2276.6</ele>
        <time>2021-04-17T11:55:16Z</time>
      </trkpt>
      <trkpt lat="45.20088" lon="5.98701">
        <ele>2274.4</ele>
        <time>2021-04-17T11:55:17Z</time>
      </trkpt>
      <trkpt lat="45.2009" lon="5.98705">
        <ele>2272.2</ele>
        <time>2021-04-17T11:55:18Z</time>
      </trkpt>
      <trkpt lat="45.2009" lon="5.98707">
        <ele>2270.2</ele>
        <time>2021-04-17T11:55:19Z</time>
      </trkpt>
      <trkpt lat="45.20089" lon="5.9871">
        <ele>2267.8</ele>
        <time>2021-04-17T11:55:20Z</time>
      </trkpt>
      <trkpt lat="45.20088" lon="5.98713">
        <ele>2265.8</ele>
        <time>2021-04-17T11:55:21Z</time>
      </trkpt>
      <trkpt lat="45.20087" lon="5.98716">
        <ele>2264.4</ele>
        <time>2021-04-17T11:55:22Z</time>
      </trkpt>
      <trkpt lat="45.20086" lon="5.98721">
        <ele>2262.8</ele>
        <time>2021-04-17T11:55:24Z</time>
      </trkpt>
      <trkpt lat="45.20084" lon="5.98724">
        <ele>2261.6</ele>
        <time>2021-04-17T11:55:26Z</time>
      </trkpt>
      <trkpt lat="45.20083" lon="5.98726">
        <ele>2260.6</ele>
        <time>2021-04-17T11:55:29Z</time>
      </trkpt>
      <trkpt lat="45.20083" lon="5.98726">
        <ele>2260.6</ele>
        <time>2021-04-17T11:55:30Z</time>
      </trkpt>
      <trkpt lat="45.20083" lon="5.98725">
        <ele>2260.4</ele>
        <time>2021-04-17T11:55:31Z</time>
      </trkpt>
      <trkpt lat="45.20083" lon="5.98725">
        <ele>2260.4</ele>
        <time>2021-04-17T11:55:32Z</time>
      </trkpt>
      <trkpt lat="45.20082" lon="5.98725">
        <ele>2260.4</ele>
        <time>2021-04-17T11:55:37Z</time>
      </trkpt>
      <trkpt lat="45.20082" lon="5.98724">
        <ele>2260.4</ele>
        <time>2021-04-17T11:55:43Z</time>
      </trkpt>
      <trkpt lat="45.20082" lon="5.98724">
        <ele>2260.4</ele>
        <time>2021-04-17T11:55:45Z</time>
      </trkpt>
      <trkpt lat="45.20082" lon="5.98725">
        <ele>2260.4</ele>
        <time>2021-04-17T11:55:51Z</time>
      </trkpt>
      <trkpt lat="45.20082" lon="5.98726">
        <ele>2260.4</ele>
        <time>2021-04-17T11:55:57Z</time>
      </trkpt>
      <trkpt lat="45.20082" lon="5.98727">
        <ele>2260.4</ele>
        <time>2021-04-17T11:56:01Z</time>
      </trkpt>
      <trkpt lat="45.20082" lon="5.98727">
        <ele>2260.2</ele>
        <time>2021-04-17T11:56:02Z</time>
      </trkpt>
      <trkpt lat="45.20082" lon="5.98727">
        <ele>2260.2</ele>
        <time>2021-04-17T11:56:03Z</time>
      </trkpt>
      <trkpt lat="45.20082" lon="5.98727">
        <ele>2260.2</ele>
        <time>2021-04-17T11:56:04Z</time>
      </trkpt>
      <trkpt lat="45.20082" lon="5.98727">
        <ele>2260.2</ele>
        <time>2021-04-17T11:56:06Z</time>
      </trkpt>
      <trkpt lat="45.20082" lon="5.98727">
        <ele>2260.2</ele>
        <time>2021-04-17T11:56:07Z</time>
      </trkpt>
      <trkpt lat="45.20082" lon="5.98727">
        <ele>2260.2</ele>
        <time>2021-04-17T11:56:09Z</time>
      </trkpt>
      <trkpt lat="45.20082" lon="5.98727">
        <ele>2260.2</ele>
        <time>2021-04-17T11:56:12Z</time>
      </trkpt>
      <trkpt lat="45.20082" lon="5.98727">
        <ele>2260.2</ele>
        <time>2021-04-17T11:56:13Z</time>
      </trkpt>
      <trkpt lat="45.20082" lon="5.98727">
        <ele>2260.2</ele>
        <time>2021-04-17T11:56:14Z</time>
      </trkpt>
      <trkpt lat="45.20081" lon="5.98726">
        <ele>2260.2</ele>
        <time>2021-04-17T11:56:16Z</time>
      </trkpt>
      <trkpt lat="45.2008" lon="5.98726">
        <ele>2260.2</ele>
        <time>2021-04-17T11:56:18Z</time>
      </trkpt>
      <trkpt lat="45.2008" lon="5.98725">
        <ele>2260</ele>
        <time>2021-04-17T11:56:22Z</time>
      </trkpt>
      <trkpt lat="45.2008" lon="5.98725">
        <ele>2260</ele>
        <time>2021-04-17T11:56:23Z</time>
      </trkpt>
      <trkpt lat="45.2008" lon="5.98725">
        <ele>2260.2</ele>
        <time>2021-04-17T11:56:28Z</time>
      </trkpt>
      <trkpt lat="45.2008" lon="5.98724">
        <ele>2260.2</ele>
        <time>2021-04-17T11:56:33Z</time>
      </trkpt>
      <trkpt lat="45.2008" lon="5.98724">
        <ele>2260</ele>
        <time>2021-04-17T11:56:34Z</time>
      </trkpt>
      <trkpt lat="45.2008" lon="5.98724">
        <ele>2260</ele>
        <time>2021-04-17T11:56:35Z</time>
      </trkpt>
      <trkpt lat="45.2008" lon="5.98724">
        <ele>2260</ele>
        <time>2021-04-17T11:56:37Z</time>
      </trkpt>
      <trkpt lat="45.2008" lon="5.98724">
        <ele>2260</ele>
        <time>2021-04-17T11:56:39Z</time>
      </trkpt>
      <trkpt lat="45.20079" lon="5.98724">
        <ele>2260</ele>
        <time>2021-04-17T11:56:41Z</time>
      </trkpt>
      <trkpt lat="45.20079" lon="5.98724">
        <ele>2260</ele>
        <time>2021-04-17T11:56:43Z</time>
      </trkpt>
      <trkpt lat="45.20079" lon="5.98724">
        <ele>2259.8</ele>
        <time>2021-04-17T11:56:44Z</time>
      </trkpt>
      <trkpt lat="45.20079" lon="5.98724">
        <ele>2259.8</ele>
        <time>2021-04-17T11:56:45Z</time>
      </trkpt>
      <trkpt lat="45.20079" lon="5.98723">
        <ele>2259.8</ele>
        <time>2021-04-17T11:56:46Z</time>
      </trkpt>
      <trkpt lat="45.20079" lon="5.98723">
        <ele>2259.8</ele>
        <time>2021-04-17T11:56:48Z</time>
      </trkpt>
      <trkpt lat="45.20079" lon="5.98723">
        <ele>2260</ele>
        <time>2021-04-17T11:56:54Z</time>
      </trkpt>
      <trkpt lat="45.20079" lon="5.98723">
        <ele>2260</ele>
        <time>2021-04-17T11:57:00Z</time>
      </trkpt>
      <trkpt lat="45.20079" lon="5.98724">
        <ele>2260</ele>
        <time>2021-04-17T11:57:02Z</time>
      </trkpt>
      <trkpt lat="45.20079" lon="5.98724">
        <ele>2260</ele>
        <time>2021-04-17T11:57:06Z</time>
      </trkpt>
      <trkpt lat="45.20079" lon="5.98724">
        <ele>2260</ele>
        <time>2021-04-17T11:57:07Z</time>
      </trkpt>
      <trkpt lat="45.20079" lon="5.98724">
        <ele>2260</ele>
        <time>2021-04-17T11:57:08Z</time>
      </trkpt>
      <trkpt lat="45.2008" lon="5.98724">
        <ele>2259.8</ele>
        <time>2021-04-17T11:57:14Z</time>
      </trkpt>
      <trkpt lat="45.2008" lon="5.98724">
        <ele>2259.8</ele>
        <time>2021-04-17T11:57:16Z</time>
      </trkpt>
      <trkpt lat="45.2008" lon="5.98724">
        <ele>2259.8</ele>
        <time>2021-04-17T11:57:18Z</time>
      </trkpt>
      <trkpt lat="45.2008" lon="5.98725">
        <ele>2259.8</ele>
        <time>2021-04-17T11:57:19Z</time>
      </trkpt>
      <trkpt lat="45.2008" lon="5.98725">
        <ele>2259.8</ele>
        <time>2021-04-17T11:57:21Z</time>
      </trkpt>
      <trkpt lat="45.2008" lon="5.98725">
        <ele>2259.8</ele>
        <time>2021-04-17T11:57:22Z</time>
      </trkpt>
      <trkpt lat="45.2008" lon="5.98725">
        <ele>2259.8</ele>
        <time>2021-04-17T11:57:23Z</time>
      </trkpt>
      <trkpt lat="45.2008" lon="5.98725">
        <ele>2259.8</ele>
        <time>2021-04-17T11:57:24Z</time>
      </trkpt>
      <trkpt lat="45.2008" lon="5.98725">
        <ele>2259.6</ele>
        <time>2021-04-17T11:57:28Z</time>
      </trkpt>
      <trkpt lat="45.20079" lon="5.98725">
        <ele>2259.8</ele>
        <time>2021-04-17T11:57:31Z</time>
      </trkpt>
      <trkpt lat="45.20079" lon="5.98725">
        <ele>2259.8</ele>
        <time>2021-04-17T11:57:34Z</time>
      </trkpt>
      <trkpt lat="45.20079" lon="5.98725">
        <ele>2259.8</ele>
        <time>2021-04-17T11:57:36Z</time>
      </trkpt>
      <trkpt lat="45.20079" lon="5.98725">
        <ele>2259.8</ele>
        <time>2021-04-17T11:57:39Z</time>
      </trkpt>
      <trkpt lat="45.20079" lon="5.98725">
        <ele>2259.6</ele>
        <time>2021-04-17T11:57:43Z</time>
      </trkpt>
      <trkpt lat="45.20079" lon="5.98725">
        <ele>2259.6</ele>
        <time>2021-04-17T11:57:49Z</time>
      </trkpt>
      <trkpt lat="45.20079" lon="5.98725">
        <ele>2259.6</ele>
        <time>2021-04-17T11:57:50Z</time>
      </trkpt>
      <trkpt lat="45.20079" lon="5.98725">
        <ele>2259.6</ele>
        <time>2021-04-17T11:57:52Z</time>
      </trkpt>
      <trkpt lat="45.20079" lon="5.98725">
        <ele>2259.6</ele>
        <time>2021-04-17T11:57:53Z</time>
      </trkpt>
      <trkpt lat="45.20079" lon="5.98725">
        <ele>2259.6</ele>
        <time>2021-04-17T11:57:54Z</time>
      </trkpt>
      <trkpt lat="45.20079" lon="5.98725">
        <ele>2259.6</ele>
        <time>2021-04-17T11:57:55Z</time>
      </trkpt>
      <trkpt lat="45.20079" lon="5.98725">
        <ele>2259.6</ele>
        <time>2021-04-17T11:57:59Z</time>
      </trkpt>
      <trkpt lat="45.20079" lon="5.98725">
        <ele>2259.6</ele>
        <time>2021-04-17T11:58:00Z</time>
      </trkpt>
      <trkpt lat="45.20082" lon="5.98723">
        <ele>2258</ele>
        <time>2021-04-17T11:58:05Z</time>
      </trkpt>
      <trkpt lat="45.20084" lon="5.98722">
        <ele>2257</ele>
        <time>2021-04-17T11:58:06Z</time>
      </trkpt>
      <trkpt lat="45.20089" lon="5.98718">
        <ele>2255.8</ele>
        <time>2021-04-17T11:58:08Z</time>
      </trkpt>
      <trkpt lat="45.20096" lon="5.98715">
        <ele>2254.2</ele>
        <time>2021-04-17T11:58:11Z</time>
      </trkpt>
      <trkpt lat="45.201" lon="5.98714">
        <ele>2253.6</ele>
        <time>2021-04-17T11:58:12Z</time>
      </trkpt>
      <trkpt lat="45.20103" lon="5.98713">
        <ele>2252.8</ele>
        <time>2021-04-17T11:58:13Z</time>
      </trkpt>
      <trkpt lat="45.20106" lon="5.98714">
        <ele>2248</ele>
        <time>2021-04-17T11:58:14Z</time>
      </trkpt>
      <trkpt lat="45.20106" lon="5.98717">
        <ele>2246.6</ele>
        <time>2021-04-17T11:58:15Z</time>
      </trkpt>
      <trkpt lat="45.20105" lon="5.98721">
        <ele>2245.2</ele>
        <time>2021-04-17T11:58:16Z</time>
      </trkpt>
      <trkpt lat="45.20101" lon="5.9873">
        <ele>2243.2</ele>
        <time>2021-04-17T11:58:18Z</time>
      </trkpt>
      <trkpt lat="45.20096" lon="5.98742">
        <ele>2242.6</ele>
        <time>2021-04-17T11:58:21Z</time>
      </trkpt>
      <trkpt lat="45.20093" lon="5.98748">
        <ele>2241.6</ele>
        <time>2021-04-17T11:58:23Z</time>
      </trkpt>
      <trkpt lat="45.20091" lon="5.98756">
        <ele>2240.4</ele>
        <time>2021-04-17T11:58:25Z</time>
      </trkpt>
      <trkpt lat="45.20087" lon="5.98763">
        <ele>2238.4</ele>
        <time>2021-04-17T11:58:27Z</time>
      </trkpt>
      <trkpt lat="45.20086" lon="5.98767">
        <ele>2237.2</ele>
        <time>2021-04-17T11:58:28Z</time>
      </trkpt>
      <trkpt lat="45.20089" lon="5.98768">
        <ele>2235.2</ele>
        <time>2021-04-17T11:58:30Z</time>
      </trkpt>
      <trkpt lat="45.20092" lon="5.98766">
        <ele>2234</ele>
        <time>2021-04-17T11:58:31Z</time>
      </trkpt>
      <trkpt lat="45.20095" lon="5.98765">
        <ele>2232.8</ele>
        <time>2021-04-17T11:58:32Z</time>
      </trkpt>
      <trkpt lat="45.20099" lon="5.98763">
        <ele>2231.6</ele>
        <time>2021-04-17T11:58:33Z</time>
      </trkpt>
      <trkpt lat="45.20103" lon="5.9876">
        <ele>2230.4</ele>
        <time>2021-04-17T11:58:34Z</time>
      </trkpt>
      <trkpt lat="45.20109" lon="5.98758">
        <ele>2229.2</ele>
        <time>2021-04-17T11:58:35Z</time>
      </trkpt>
      <trkpt lat="45.20113" lon="5.98757">
        <ele>2227.8</ele>
        <time>2021-04-17T11:58:36Z</time>
      </trkpt>
      <trkpt lat="45.20117" lon="5.98755">
        <ele>2226.6</ele>
        <time>2021-04-17T11:58:37Z</time>
      </trkpt>
      <trkpt lat="45.20124" lon="5.98751">
        <ele>2224.8</ele>
        <time>2021-04-17T11:58:39Z</time>
      </trkpt>
      <trkpt lat="45.20127" lon="5.98753">
        <ele>2224</ele>
        <time>2021-04-17T11:58:40Z</time>
      </trkpt>
      <trkpt lat="45.20128" lon="5.98756">
        <ele>2223</ele>
        <time>2021-04-17T11:58:41Z</time>
      </trkpt>
      <trkpt lat="45.20127" lon="5.9876">
        <ele>2221.6</ele>
        <time>2021-04-17T11:58:42Z</time>
      </trkpt>
      <trkpt lat="45.20127" lon="5.98764">
        <ele>2220</ele>
        <time>2021-04-17T11:58:43Z</time>
      </trkpt>
      <trkpt lat="45.20126" lon="5.98766">
        <ele>2218.6</ele>
        <time>2021-04-17T11:58:44Z</time>
      </trkpt>
      <trkpt lat="45.20126" lon="5.98768">
        <ele>2217.6</ele>
        <time>2021-04-17T11:58:45Z</time>
      </trkpt>
      <trkpt lat="45.20125" lon="5.98769">
        <ele>2216.8</ele>
        <time>2021-04-17T11:58:46Z</time>
      </trkpt>
      <trkpt lat="45.20124" lon="5.9877">
        <ele>2216.4</ele>
        <time>2021-04-17T11:58:47Z</time>
      </trkpt>
      <trkpt lat="45.20122" lon="5.98772">
        <ele>2215.8</ele>
        <time>2021-04-17T11:58:50Z</time>
      </trkpt>
      <trkpt lat="45.20121" lon="5.98773">
        <ele>2215.6</ele>
        <time>2021-04-17T11:58:51Z</time>
      </trkpt>
      <trkpt lat="45.2012" lon="5.98773">
        <ele>2215.4</ele>
        <time>2021-04-17T11:58:53Z</time>
      </trkpt>
      <trkpt lat="45.20115" lon="5.98783">
        <ele>2214.8</ele>
        <time>2021-04-17T11:58:56Z</time>
      </trkpt>
      <trkpt lat="45.20113" lon="5.98789">
        <ele>2214</ele>
        <time>2021-04-17T11:58:57Z</time>
      </trkpt>
      <trkpt lat="45.20111" lon="5.98794">
        <ele>2212.8</ele>
        <time>2021-04-17T11:58:58Z</time>
      </trkpt>
      <trkpt lat="45.2011" lon="5.98801">
        <ele>2211.6</ele>
        <time>2021-04-17T11:58:59Z</time>
      </trkpt>
      <trkpt lat="45.20109" lon="5.98806">
        <ele>2210.4</ele>
        <time>2021-04-17T11:59:00Z</time>
      </trkpt>
      <trkpt lat="45.20108" lon="5.98811">
        <ele>2209.4</ele>
        <time>2021-04-17T11:59:01Z</time>
      </trkpt>
      <trkpt lat="45.20105" lon="5.98821">
        <ele>2207.2</ele>
        <time>2021-04-17T11:59:02Z</time>
      </trkpt>
      <trkpt lat="45.20104" lon="5.98824">
        <ele>2206</ele>
        <time>2021-04-17T11:59:04Z</time>
      </trkpt>
      <trkpt lat="45.20105" lon="5.98824">
        <ele>2204.8</ele>
        <time>2021-04-17T11:59:05Z</time>
      </trkpt>
      <trkpt lat="45.20106" lon="5.98823">
        <ele>2203.6</ele>
        <time>2021-04-17T11:59:06Z</time>
      </trkpt>
      <trkpt lat="45.20107" lon="5.98822">
        <ele>2202.4</ele>
        <time>2021-04-17T11:59:07Z</time>
      </trkpt>
      <trkpt lat="45.20106" lon="5.98821">
        <ele>2201.2</ele>
        <time>2021-04-17T11:59:09Z</time>
      </trkpt>
      <trkpt lat="45.20105" lon="5.98821">
        <ele>2200.8</ele>
        <time>2021-04-17T11:59:10Z</time>
      </trkpt>
      <trkpt lat="45.20105" lon="5.98817">
        <ele>2200.6</ele>
        <time>2021-04-17T11:59:12Z</time>
      </trkpt>
      <trkpt lat="45.20107" lon="5.98816">
        <ele>2200.4</ele>
        <time>2021-04-17T11:59:15Z</time>
      </trkpt>
      <trkpt lat="45.2011" lon="5.98814">
        <ele>2200.4</ele>
        <time>2021-04-17T11:59:17Z</time>
      </trkpt>
      <trkpt lat="45.20113" lon="5.98812">
        <ele>2200</ele>
        <time>2021-04-17T11:59:18Z</time>
      </trkpt>
      <trkpt lat="45.20115" lon="5.9881">
        <ele>2199.6</ele>
        <time>2021-04-17T11:59:19Z</time>
      </trkpt>
      <trkpt lat="45.20118" lon="5.98807">
        <ele>2199</ele>
        <time>2021-04-17T11:59:20Z</time>
      </trkpt>
      <trkpt lat="45.20121" lon="5.98803">
        <ele>2197.6</ele>
        <time>2021-04-17T11:59:22Z</time>
      </trkpt>
      <trkpt lat="45.20124" lon="5.98801">
        <ele>2196.4</ele>
        <time>2021-04-17T11:59:24Z</time>
      </trkpt>
      <trkpt lat="45.20131" lon="5.98798">
        <ele>2195.4</ele>
        <time>2021-04-17T11:59:27Z</time>
      </trkpt>
      <trkpt lat="45.20134" lon="5.98796">
        <ele>2195</ele>
        <time>2021-04-17T11:59:28Z</time>
      </trkpt>
      <trkpt lat="45.20141" lon="5.98792">
        <ele>2194.2</ele>
        <time>2021-04-17T11:59:30Z</time>
      </trkpt>
      <trkpt lat="45.20144" lon="5.98789">
        <ele>2193.2</ele>
        <time>2021-04-17T11:59:31Z</time>
      </trkpt>
      <trkpt lat="45.20148" lon="5.98788">
        <ele>2192</ele>
        <time>2021-04-17T11:59:32Z</time>
      </trkpt>
      <trkpt lat="45.20156" lon="5.98784">
        <ele>2190.2</ele>
        <time>2021-04-17T11:59:34Z</time>
      </trkpt>
      <trkpt lat="45.20161" lon="5.98784">
        <ele>2188.4</ele>
        <time>2021-04-17T11:59:36Z</time>
      </trkpt>
      <trkpt lat="45.20162" lon="5.98786">
        <ele>2187.4</ele>
        <time>2021-04-17T11:59:37Z</time>
      </trkpt>
      <trkpt lat="45.20162" lon="5.9879">
        <ele>2186</ele>
        <time>2021-04-17T11:59:38Z</time>
      </trkpt>
      <trkpt lat="45.20161" lon="5.98793">
        <ele>2184.6</ele>
        <time>2021-04-17T11:59:39Z</time>
      </trkpt>
      <trkpt lat="45.2016" lon="5.98796">
        <ele>2183.4</ele>
        <time>2021-04-17T11:59:40Z</time>
      </trkpt>
      <trkpt lat="45.20158" lon="5.988">
        <ele>2182.6</ele>
        <time>2021-04-17T11:59:41Z</time>
      </trkpt>
      <trkpt lat="45.20157" lon="5.98803">
        <ele>2182</ele>
        <time>2021-04-17T11:59:42Z</time>
      </trkpt>
      <trkpt lat="45.20154" lon="5.98817">
        <ele>2180.2</ele>
        <time>2021-04-17T11:59:45Z</time>
      </trkpt>
      <trkpt lat="45.20155" lon="5.98818">
        <ele>2179.4</ele>
        <time>2021-04-17T11:59:46Z</time>
      </trkpt>
      <trkpt lat="45.20157" lon="5.98818">
        <ele>2178.6</ele>
        <time>2021-04-17T11:59:47Z</time>
      </trkpt>
      <trkpt lat="45.20161" lon="5.98817">
        <ele>2177.4</ele>
        <time>2021-04-17T11:59:48Z</time>
      </trkpt>
      <trkpt lat="45.20165" lon="5.98814">
        <ele>2176.2</ele>
        <time>2021-04-17T11:59:49Z</time>
      </trkpt>
      <trkpt lat="45.2017" lon="5.9881">
        <ele>2174.2</ele>
        <time>2021-04-17T11:59:51Z</time>
      </trkpt>
      <trkpt lat="45.20173" lon="5.98807">
        <ele>2173.2</ele>
        <time>2021-04-17T11:59:52Z</time>
      </trkpt>
      <trkpt lat="45.20177" lon="5.98803">
        <ele>2171.8</ele>
        <time>2021-04-17T11:59:54Z</time>
      </trkpt>
      <trkpt lat="45.20183" lon="5.988">
        <ele>2170.6</ele>
        <time>2021-04-17T11:59:56Z</time>
      </trkpt>
      <trkpt lat="45.2019" lon="5.98795">
        <ele>2169</ele>
        <time>2021-04-17T11:59:58Z</time>
      </trkpt>
      <trkpt lat="45.20197" lon="5.9879">
        <ele>2167.2</ele>
        <time>2021-04-17T12:00:00Z</time>
      </trkpt>
      <trkpt lat="45.20206" lon="5.98784">
        <ele>2164.4</ele>
        <time>2021-04-17T12:00:02Z</time>
      </trkpt>
      <trkpt lat="45.20206" lon="5.98784">
        <ele>2164.4</ele>
        <time>2021-04-17T12:00:03Z</time>
      </trkpt>
      <trkpt lat="45.20214" lon="5.98783">
        <ele>2163</ele>
        <time>2021-04-17T12:00:05Z</time>
      </trkpt>
      <trkpt lat="45.20222" lon="5.98785">
        <ele>2161.2</ele>
        <time>2021-04-17T12:00:07Z</time>
      </trkpt>
      <trkpt lat="45.20227" lon="5.98785">
        <ele>2160</ele>
        <time>2021-04-17T12:00:08Z</time>
      </trkpt>
      <trkpt lat="45.20232" lon="5.98786">
        <ele>2159</ele>
        <time>2021-04-17T12:00:09Z</time>
      </trkpt>
      <trkpt lat="45.20239" lon="5.98786">
        <ele>2157</ele>
        <time>2021-04-17T12:00:11Z</time>
      </trkpt>
      <trkpt lat="45.20245" lon="5.98785">
        <ele>2155.2</ele>
        <time>2021-04-17T12:00:13Z</time>
      </trkpt>
      <trkpt lat="45.20246" lon="5.98784">
        <ele>2154.2</ele>
        <time>2021-04-17T12:00:14Z</time>
      </trkpt>
      <trkpt lat="45.20248" lon="5.98783">
        <ele>2153</ele>
        <time>2021-04-17T12:00:16Z</time>
      </trkpt>
      <trkpt lat="45.20253" lon="5.98783">
        <ele>2152.6</ele>
        <time>2021-04-17T12:00:18Z</time>
      </trkpt>
      <trkpt lat="45.2026" lon="5.98782">
        <ele>2152</ele>
        <time>2021-04-17T12:00:20Z</time>
      </trkpt>
      <trkpt lat="45.20267" lon="5.9878">
        <ele>2150.6</ele>
        <time>2021-04-17T12:00:22Z</time>
      </trkpt>
      <trkpt lat="45.20275" lon="5.98779">
        <ele>2149.2</ele>
        <time>2021-04-17T12:00:24Z</time>
      </trkpt>
      <trkpt lat="45.20285" lon="5.98778">
        <ele>2147.4</ele>
        <time>2021-04-17T12:00:26Z</time>
      </trkpt>
      <trkpt lat="45.2029" lon="5.98777">
        <ele>2146</ele>
        <time>2021-04-17T12:00:27Z</time>
      </trkpt>
      <trkpt lat="45.20294" lon="5.98776">
        <ele>2144.6</ele>
        <time>2021-04-17T12:00:28Z</time>
      </trkpt>
      <trkpt lat="45.20297" lon="5.98776">
        <ele>2143.4</ele>
        <time>2021-04-17T12:00:29Z</time>
      </trkpt>
      <trkpt lat="45.20301" lon="5.98776">
        <ele>2142.2</ele>
        <time>2021-04-17T12:00:30Z</time>
      </trkpt>
      <trkpt lat="45.20304" lon="5.98776">
        <ele>2141</ele>
        <time>2021-04-17T12:00:31Z</time>
      </trkpt>
      <trkpt lat="45.20306" lon="5.98775">
        <ele>2140.2</ele>
        <time>2021-04-17T12:00:32Z</time>
      </trkpt>
      <trkpt lat="45.20309" lon="5.98775">
        <ele>2139.6</ele>
        <time>2021-04-17T12:00:33Z</time>
      </trkpt>
      <trkpt lat="45.20318" lon="5.98774">
        <ele>2138.4</ele>
        <time>2021-04-17T12:00:37Z</time>
      </trkpt>
      <trkpt lat="45.2032" lon="5.98773">
        <ele>2138</ele>
        <time>2021-04-17T12:00:38Z</time>
      </trkpt>
      <trkpt lat="45.20323" lon="5.98771">
        <ele>2137</ele>
        <time>2021-04-17T12:00:40Z</time>
      </trkpt>
      <trkpt lat="45.20324" lon="5.98771">
        <ele>2136</ele>
        <time>2021-04-17T12:00:42Z</time>
      </trkpt>
      <trkpt lat="45.20325" lon="5.98772">
        <ele>2135.8</ele>
        <time>2021-04-17T12:00:43Z</time>
      </trkpt>
      <trkpt lat="45.20327" lon="5.98774">
        <ele>2135.4</ele>
        <time>2021-04-17T12:00:45Z</time>
      </trkpt>
      <trkpt lat="45.20326" lon="5.9878">
        <ele>2134.6</ele>
        <time>2021-04-17T12:00:47Z</time>
      </trkpt>
      <trkpt lat="45.20323" lon="5.98784">
        <ele>2133.2</ele>
        <time>2021-04-17T12:00:49Z</time>
      </trkpt>
      <trkpt lat="45.20322" lon="5.98783">
        <ele>2132</ele>
        <time>2021-04-17T12:00:52Z</time>
      </trkpt>
      <trkpt lat="45.20322" lon="5.98783">
        <ele>2131.8</ele>
        <time>2021-04-17T12:00:53Z</time>
      </trkpt>
      <trkpt lat="45.20321" lon="5.98783">
        <ele>2131.8</ele>
        <time>2021-04-17T12:00:57Z</time>
      </trkpt>
      <trkpt lat="45.2032" lon="5.98783">
        <ele>2131.8</ele>
        <time>2021-04-17T12:00:59Z</time>
      </trkpt>
      <trkpt lat="45.20321" lon="5.98783">
        <ele>2131.8</ele>
        <time>2021-04-17T12:01:00Z</time>
      </trkpt>
      <trkpt lat="45.2032" lon="5.98783">
        <ele>2131.6</ele>
        <time>2021-04-17T12:01:04Z</time>
      </trkpt>
      <trkpt lat="45.2032" lon="5.98783">
        <ele>2131.8</ele>
        <time>2021-04-17T12:01:08Z</time>
      </trkpt>
      <trkpt lat="45.2032" lon="5.98783">
        <ele>2131.8</ele>
        <time>2021-04-17T12:01:10Z</time>
      </trkpt>
      <trkpt lat="45.2032" lon="5.98783">
        <ele>2131.8</ele>
        <time>2021-04-17T12:01:11Z</time>
      </trkpt>
      <trkpt lat="45.2032" lon="5.98783">
        <ele>2131.6</ele>
        <time>2021-04-17T12:01:15Z</time>
      </trkpt>
      <trkpt lat="45.2032" lon="5.98783">
        <ele>2131.6</ele>
        <time>2021-04-17T12:01:17Z</time>
      </trkpt>
      <trkpt lat="45.2032" lon="5.98783">
        <ele>2131.6</ele>
        <time>2021-04-17T12:01:19Z</time>
      </trkpt>
      <trkpt lat="45.2032" lon="5.98783">
        <ele>2131.6</ele>
        <time>2021-04-17T12:01:20Z</time>
      </trkpt>
      <trkpt lat="45.2032" lon="5.98783">
        <ele>2131.4</ele>
        <time>2021-04-17T12:01:22Z</time>
      </trkpt>
      <trkpt lat="45.2032" lon="5.98783">
        <ele>2131.4</ele>
        <time>2021-04-17T12:01:26Z</time>
      </trkpt>
      <trkpt lat="45.20319" lon="5.98783">
        <ele>2131.4</ele>
        <time>2021-04-17T12:01:29Z</time>
      </trkpt>
      <trkpt lat="45.20318" lon="5.98783">
        <ele>2131.4</ele>
        <time>2021-04-17T12:01:32Z</time>
      </trkpt>
      <trkpt lat="45.20318" lon="5.98783">
        <ele>2131.2</ele>
        <time>2021-04-17T12:01:33Z</time>
      </trkpt>
      <trkpt lat="45.20317" lon="5.98783">
        <ele>2131.2</ele>
        <time>2021-04-17T12:01:39Z</time>
      </trkpt>
      <trkpt lat="45.20317" lon="5.98783">
        <ele>2131.2</ele>
        <time>2021-04-17T12:01:43Z</time>
      </trkpt>
      <trkpt lat="45.20317" lon="5.98783">
        <ele>2131</ele>
        <time>2021-04-17T12:01:46Z</time>
      </trkpt>
      <trkpt lat="45.20317" lon="5.98783">
        <ele>2131</ele>
        <time>2021-04-17T12:01:47Z</time>
      </trkpt>
      <trkpt lat="45.20317" lon="5.98783">
        <ele>2131</ele>
        <time>2021-04-17T12:01:48Z</time>
      </trkpt>
      <trkpt lat="45.20317" lon="5.98782">
        <ele>2131.2</ele>
        <time>2021-04-17T12:01:54Z</time>
      </trkpt>
      <trkpt lat="45.20317" lon="5.98782">
        <ele>2131.2</ele>
        <time>2021-04-17T12:01:56Z</time>
      </trkpt>
      <trkpt lat="45.20317" lon="5.98782">
        <ele>2131.2</ele>
        <time>2021-04-17T12:01:58Z</time>
      </trkpt>
      <trkpt lat="45.20317" lon="5.98782">
        <ele>2131</ele>
        <time>2021-04-17T12:02:02Z</time>
      </trkpt>
      <trkpt lat="45.20317" lon="5.98782">
        <ele>2131</ele>
        <time>2021-04-17T12:02:03Z</time>
      </trkpt>
      <trkpt lat="45.20317" lon="5.98782">
        <ele>2131</ele>
        <time>2021-04-17T12:02:04Z</time>
      </trkpt>
      <trkpt lat="45.20317" lon="5.98782">
        <ele>2130.8</ele>
        <time>2021-04-17T12:02:07Z</time>
      </trkpt>
      <trkpt lat="45.20317" lon="5.98781">
        <ele>2130.8</ele>
        <time>2021-04-17T12:02:09Z</time>
      </trkpt>
      <trkpt lat="45.20315" lon="5.9878">
        <ele>2130.8</ele>
        <time>2021-04-17T12:02:15Z</time>
      </trkpt>
      <trkpt lat="45.20315" lon="5.9878">
        <ele>2130.8</ele>
        <time>2021-04-17T12:02:16Z</time>
      </trkpt>
      <trkpt lat="45.20315" lon="5.9878">
        <ele>2130.8</ele>
        <time>2021-04-17T12:02:17Z</time>
      </trkpt>
      <trkpt lat="45.20315" lon="5.9878">
        <ele>2130.8</ele>
        <time>2021-04-17T12:02:19Z</time>
      </trkpt>
      <trkpt lat="45.20315" lon="5.9878">
        <ele>2130.6</ele>
        <time>2021-04-17T12:02:22Z</time>
      </trkpt>
      <trkpt lat="45.20319" lon="5.9878">
        <ele>2130.4</ele>
        <time>2021-04-17T12:02:23Z</time>
      </trkpt>
      <trkpt lat="45.20323" lon="5.98781">
        <ele>2130</ele>
        <time>2021-04-17T12:02:24Z</time>
      </trkpt>
      <trkpt lat="45.20328" lon="5.98781">
        <ele>2129.4</ele>
        <time>2021-04-17T12:02:25Z</time>
      </trkpt>
      <trkpt lat="45.20333" lon="5.98782">
        <ele>2128.6</ele>
        <time>2021-04-17T12:02:26Z</time>
      </trkpt>
      <trkpt lat="45.20338" lon="5.98782">
        <ele>2127.2</ele>
        <time>2021-04-17T12:02:27Z</time>
      </trkpt>
      <trkpt lat="45.20342" lon="5.98782">
        <ele>2126</ele>
        <time>2021-04-17T12:02:28Z</time>
      </trkpt>
      <trkpt lat="45.20347" lon="5.98782">
        <ele>2125</ele>
        <time>2021-04-17T12:02:29Z</time>
      </trkpt>
      <trkpt lat="45.20353" lon="5.98783">
        <ele>2124.2</ele>
        <time>2021-04-17T12:02:30Z</time>
      </trkpt>
      <trkpt lat="45.20357" lon="5.98783">
        <ele>2123.2</ele>
        <time>2021-04-17T12:02:31Z</time>
      </trkpt>
      <trkpt lat="45.20362" lon="5.98783">
        <ele>2122</ele>
        <time>2021-04-17T12:02:32Z</time>
      </trkpt>
      <trkpt lat="45.20366" lon="5.98781">
        <ele>2121.2</ele>
        <time>2021-04-17T12:02:33Z</time>
      </trkpt>
      <trkpt lat="45.2037" lon="5.98779">
        <ele>2120.6</ele>
        <time>2021-04-17T12:02:34Z</time>
      </trkpt>
      <trkpt lat="45.20373" lon="5.98777">
        <ele>2119.8</ele>
        <time>2021-04-17T12:02:35Z</time>
      </trkpt>
      <trkpt lat="45.20377" lon="5.98775">
        <ele>2119.2</ele>
        <time>2021-04-17T12:02:36Z</time>
      </trkpt>
      <trkpt lat="45.20381" lon="5.98772">
        <ele>2118.8</ele>
        <time>2021-04-17T12:02:37Z</time>
      </trkpt>
      <trkpt lat="45.20388" lon="5.98766">
        <ele>2117.6</ele>
        <time>2021-04-17T12:02:39Z</time>
      </trkpt>
      <trkpt lat="45.20391" lon="5.98762">
        <ele>2116.4</ele>
        <time>2021-04-17T12:02:40Z</time>
      </trkpt>
      <trkpt lat="45.20394" lon="5.98759">
        <ele>2115.2</ele>
        <time>2021-04-17T12:02:41Z</time>
      </trkpt>
      <trkpt lat="45.20403" lon="5.98752">
        <ele>2113.6</ele>
        <time>2021-04-17T12:02:43Z</time>
      </trkpt>
      <trkpt lat="45.20411" lon="5.98746">
        <ele>2111.4</ele>
        <time>2021-04-17T12:02:45Z</time>
      </trkpt>
      <trkpt lat="45.20413" lon="5.98743">
        <ele>2110.2</ele>
        <time>2021-04-17T12:02:46Z</time>
      </trkpt>
      <trkpt lat="45.20416" lon="5.98741">
        <ele>2109</ele>
        <time>2021-04-17T12:02:47Z</time>
      </trkpt>
      <trkpt lat="45.2042" lon="5.98737">
        <ele>2107.6</ele>
        <time>2021-04-17T12:02:49Z</time>
      </trkpt>
      <trkpt lat="45.20425" lon="5.98733">
        <ele>2106</ele>
        <time>2021-04-17T12:02:51Z</time>
      </trkpt>
      <trkpt lat="45.2043" lon="5.98729">
        <ele>2104.2</ele>
        <time>2021-04-17T12:02:53Z</time>
      </trkpt>
      <trkpt lat="45.20436" lon="5.98725">
        <ele>2103</ele>
        <time>2021-04-17T12:02:55Z</time>
      </trkpt>
      <trkpt lat="45.20441" lon="5.98719">
        <ele>2101.4</ele>
        <time>2021-04-17T12:02:57Z</time>
      </trkpt>
      <trkpt lat="45.20444" lon="5.98715">
        <ele>2100</ele>
        <time>2021-04-17T12:02:59Z</time>
      </trkpt>
      <trkpt lat="45.20452" lon="5.98708">
        <ele>2098.8</ele>
        <time>2021-04-17T12:03:02Z</time>
      </trkpt>
      <trkpt lat="45.20461" lon="5.98706">
        <ele>2097.8</ele>
        <time>2021-04-17T12:03:04Z</time>
      </trkpt>
      <trkpt lat="45.20465" lon="5.98704">
        <ele>2097.2</ele>
        <time>2021-04-17T12:03:05Z</time>
      </trkpt>
      <trkpt lat="45.20467" lon="5.98701">
        <ele>2096.4</ele>
        <time>2021-04-17T12:03:06Z</time>
      </trkpt>
      <trkpt lat="45.20471" lon="5.98699">
        <ele>2095</ele>
        <time>2021-04-17T12:03:08Z</time>
      </trkpt>
      <trkpt lat="45.20472" lon="5.98701">
        <ele>2094.2</ele>
        <time>2021-04-17T12:03:09Z</time>
      </trkpt>
      <trkpt lat="45.20473" lon="5.98703">
        <ele>2093.2</ele>
        <time>2021-04-17T12:03:10Z</time>
      </trkpt>
      <trkpt lat="45.20473" lon="5.98704">
        <ele>2092</ele>
        <time>2021-04-17T12:03:11Z</time>
      </trkpt>
      <trkpt lat="45.20475" lon="5.98706">
        <ele>2090.4</ele>
        <time>2021-04-17T12:03:13Z</time>
      </trkpt>
      <trkpt lat="45.20478" lon="5.98704">
        <ele>2088.6</ele>
        <time>2021-04-17T12:03:15Z</time>
      </trkpt>
      <trkpt lat="45.2048" lon="5.98701">
        <ele>2087.4</ele>
        <time>2021-04-17T12:03:17Z</time>
      </trkpt>
      <trkpt lat="45.20482" lon="5.98699">
        <ele>2087</ele>
        <time>2021-04-17T12:03:18Z</time>
      </trkpt>
      <trkpt lat="45.20485" lon="5.98694">
        <ele>2086.2</ele>
        <time>2021-04-17T12:03:20Z</time>
      </trkpt>
      <trkpt lat="45.20487" lon="5.98689">
        <ele>2085.2</ele>
        <time>2021-04-17T12:03:22Z</time>
      </trkpt>
      <trkpt lat="45.20493" lon="5.98685">
        <ele>2084</ele>
        <time>2021-04-17T12:03:24Z</time>
      </trkpt>
      <trkpt lat="45.20496" lon="5.98691">
        <ele>2082</ele>
        <time>2021-04-17T12:03:26Z</time>
      </trkpt>
      <trkpt lat="45.20495" lon="5.98694">
        <ele>2080.4</ele>
        <time>2021-04-17T12:03:27Z</time>
      </trkpt>
      <trkpt lat="45.20495" lon="5.98697">
        <ele>2079.4</ele>
        <time>2021-04-17T12:03:28Z</time>
      </trkpt>
      <trkpt lat="45.20494" lon="5.987">
        <ele>2078.6</ele>
        <time>2021-04-17T12:03:29Z</time>
      </trkpt>
      <trkpt lat="45.20493" lon="5.98704">
        <ele>2078</ele>
        <time>2021-04-17T12:03:30Z</time>
      </trkpt>
      <trkpt lat="45.20492" lon="5.98708">
        <ele>2077.4</ele>
        <time>2021-04-17T12:03:31Z</time>
      </trkpt>
      <trkpt lat="45.20492" lon="5.98711">
        <ele>2076.8</ele>
        <time>2021-04-17T12:03:32Z</time>
      </trkpt>
      <trkpt lat="45.20496" lon="5.98711">
        <ele>2075.6</ele>
        <time>2021-04-17T12:03:34Z</time>
      </trkpt>
      <trkpt lat="45.20499" lon="5.98708">
        <ele>2074.4</ele>
        <time>2021-04-17T12:03:35Z</time>
      </trkpt>
      <trkpt lat="45.20501" lon="5.98704">
        <ele>2073.4</ele>
        <time>2021-04-17T12:03:36Z</time>
      </trkpt>
      <trkpt lat="45.20505" lon="5.98697">
        <ele>2071.6</ele>
        <time>2021-04-17T12:03:38Z</time>
      </trkpt>
      <trkpt lat="45.20506" lon="5.98694">
        <ele>2070.4</ele>
        <time>2021-04-17T12:03:40Z</time>
      </trkpt>
      <trkpt lat="45.20509" lon="5.98691">
        <ele>2069.8</ele>
        <time>2021-04-17T12:03:42Z</time>
      </trkpt>
      <trkpt lat="45.2051" lon="5.98689">
        <ele>2069.4</ele>
        <time>2021-04-17T12:03:43Z</time>
      </trkpt>
      <trkpt lat="45.20516" lon="5.98684">
        <ele>2068.2</ele>
        <time>2021-04-17T12:03:46Z</time>
      </trkpt>
      <trkpt lat="45.20518" lon="5.98684">
        <ele>2067.8</ele>
        <time>2021-04-17T12:03:47Z</time>
      </trkpt>
      <trkpt lat="45.2052" lon="5.98685">
        <ele>2067</ele>
        <time>2021-04-17T12:03:49Z</time>
      </trkpt>
      <trkpt lat="45.20523" lon="5.98687">
        <ele>2066.2</ele>
        <time>2021-04-17T12:03:52Z</time>
      </trkpt>
      <trkpt lat="45.20525" lon="5.98687">
        <ele>2065.8</ele>
        <time>2021-04-17T12:03:53Z</time>
      </trkpt>
      <trkpt lat="45.20527" lon="5.98686">
        <ele>2064.8</ele>
        <time>2021-04-17T12:03:55Z</time>
      </trkpt>
      <trkpt lat="45.20531" lon="5.98688">
        <ele>2063.6</ele>
        <time>2021-04-17T12:03:58Z</time>
      </trkpt>
      <trkpt lat="45.20531" lon="5.98693">
        <ele>2062.4</ele>
        <time>2021-04-17T12:04:00Z</time>
      </trkpt>
      <trkpt lat="45.20528" lon="5.98697">
        <ele>2060.4</ele>
        <time>2021-04-17T12:04:02Z</time>
      </trkpt>
      <trkpt lat="45.20525" lon="5.987">
        <ele>2060</ele>
        <time>2021-04-17T12:04:05Z</time>
      </trkpt>
      <trkpt lat="45.20521" lon="5.98709">
        <ele>2058.8</ele>
        <time>2021-04-17T12:04:08Z</time>
      </trkpt>
      <trkpt lat="45.20519" lon="5.98714">
        <ele>2057.6</ele>
        <time>2021-04-17T12:04:10Z</time>
      </trkpt>
      <trkpt lat="45.20518" lon="5.9872">
        <ele>2056.8</ele>
        <time>2021-04-17T12:04:12Z</time>
      </trkpt>
      <trkpt lat="45.20518" lon="5.98723">
        <ele>2056.2</ele>
        <time>2021-04-17T12:04:13Z</time>
      </trkpt>
      <trkpt lat="45.2052" lon="5.98729">
        <ele>2054.8</ele>
        <time>2021-04-17T12:04:15Z</time>
      </trkpt>
      <trkpt lat="45.20522" lon="5.98729">
        <ele>2053.6</ele>
        <time>2021-04-17T12:04:16Z</time>
      </trkpt>
      <trkpt lat="45.20525" lon="5.98728">
        <ele>2052.6</ele>
        <time>2021-04-17T12:04:17Z</time>
      </trkpt>
      <trkpt lat="45.20531" lon="5.98725">
        <ele>2051.2</ele>
        <time>2021-04-17T12:04:19Z</time>
      </trkpt>
      <trkpt lat="45.20534" lon="5.98723">
        <ele>2050.6</ele>
        <time>2021-04-17T12:04:20Z</time>
      </trkpt>
      <trkpt lat="45.20537" lon="5.98722">
        <ele>2049.6</ele>
        <time>2021-04-17T12:04:21Z</time>
      </trkpt>
      <trkpt lat="45.20543" lon="5.9872">
        <ele>2048.2</ele>
        <time>2021-04-17T12:04:23Z</time>
      </trkpt>
      <trkpt lat="45.20546" lon="5.98717">
        <ele>2047.6</ele>
        <time>2021-04-17T12:04:24Z</time>
      </trkpt>
      <trkpt lat="45.20548" lon="5.98715">
        <ele>2047</ele>
        <time>2021-04-17T12:04:25Z</time>
      </trkpt>
      <trkpt lat="45.2055" lon="5.98712">
        <ele>2046</ele>
        <time>2021-04-17T12:04:27Z</time>
      </trkpt>
      <trkpt lat="45.2055" lon="5.98711">
        <ele>2045.2</ele>
        <time>2021-04-17T12:04:29Z</time>
      </trkpt>
      <trkpt lat="45.2055" lon="5.9871">
        <ele>2045.2</ele>
        <time>2021-04-17T12:04:30Z</time>
      </trkpt>
      <trkpt lat="45.2055" lon="5.9871">
        <ele>2045</ele>
        <time>2021-04-17T12:04:35Z</time>
      </trkpt>
      <trkpt lat="45.2055" lon="5.9871">
        <ele>2045</ele>
        <time>2021-04-17T12:04:36Z</time>
      </trkpt>
      <trkpt lat="45.2055" lon="5.98709">
        <ele>2045</ele>
        <time>2021-04-17T12:04:37Z</time>
      </trkpt>
      <trkpt lat="45.2055" lon="5.98709">
        <ele>2045</ele>
        <time>2021-04-17T12:04:38Z</time>
      </trkpt>
      <trkpt lat="45.20549" lon="5.98707">
        <ele>2045</ele>
        <time>2021-04-17T12:04:41Z</time>
      </trkpt>
      <trkpt lat="45.20549" lon="5.98707">
        <ele>2044.8</ele>
        <time>2021-04-17T12:04:44Z</time>
      </trkpt>
      <trkpt lat="45.20549" lon="5.98707">
        <ele>2045</ele>
        <time>2021-04-17T12:04:50Z</time>
      </trkpt>
      <trkpt lat="45.20549" lon="5.98707">
        <ele>2044.8</ele>
        <time>2021-04-17T12:04:54Z</time>
      </trkpt>
      <trkpt lat="45.20549" lon="5.98707">
        <ele>2044.8</ele>
        <time>2021-04-17T12:04:56Z</time>
      </trkpt>
      <trkpt lat="45.20549" lon="5.98705">
        <ele>2044.6</ele>
        <time>2021-04-17T12:05:02Z</time>
      </trkpt>
      <trkpt lat="45.20549" lon="5.98705">
        <ele>2044.6</ele>
        <time>2021-04-17T12:05:03Z</time>
      </trkpt>
      <trkpt lat="45.20549" lon="5.98704">
        <ele>2044.6</ele>
        <time>2021-04-17T12:05:07Z</time>
      </trkpt>
      <trkpt lat="45.20548" lon="5.98704">
        <ele>2044.8</ele>
        <time>2021-04-17T12:05:09Z</time>
      </trkpt>
      <trkpt lat="45.20548" lon="5.98704">
        <ele>2044.8</ele>
        <time>2021-04-17T12:05:10Z</time>
      </trkpt>
      <trkpt lat="45.20548" lon="5.98704">
        <ele>2044.8</ele>
        <time>2021-04-17T12:05:11Z</time>
      </trkpt>
      <trkpt lat="45.20548" lon="5.98703">
        <ele>2044.8</ele>
        <time>2021-04-17T12:05:17Z</time>
      </trkpt>
      <trkpt lat="45.20547" lon="5.98703">
        <ele>2044.6</ele>
        <time>2021-04-17T12:05:20Z</time>
      </trkpt>
      <trkpt lat="45.20547" lon="5.98703">
        <ele>2044.6</ele>
        <time>2021-04-17T12:05:21Z</time>
      </trkpt>
      <trkpt lat="45.20547" lon="5.98703">
        <ele>2044.6</ele>
        <time>2021-04-17T12:05:24Z</time>
      </trkpt>
      <trkpt lat="45.20547" lon="5.98703">
        <ele>2044.6</ele>
        <time>2021-04-17T12:05:25Z</time>
      </trkpt>
      <trkpt lat="45.20547" lon="5.98703">
        <ele>2044.6</ele>
        <time>2021-04-17T12:05:27Z</time>
      </trkpt>
      <trkpt lat="45.20547" lon="5.98703">
        <ele>2044.4</ele>
        <time>2021-04-17T12:05:29Z</time>
      </trkpt>
      <trkpt lat="45.20547" lon="5.98703">
        <ele>2044.4</ele>
        <time>2021-04-17T12:05:30Z</time>
      </trkpt>
      <trkpt lat="45.20554" lon="5.98699">
        <ele>2043.8</ele>
        <time>2021-04-17T12:05:33Z</time>
      </trkpt>
      <trkpt lat="45.20562" lon="5.98691">
        <ele>2042</ele>
        <time>2021-04-17T12:05:36Z</time>
      </trkpt>
      <trkpt lat="45.20567" lon="5.98683">
        <ele>2040.6</ele>
        <time>2021-04-17T12:05:38Z</time>
      </trkpt>
      <trkpt lat="45.20569" lon="5.9868">
        <ele>2040</ele>
        <time>2021-04-17T12:05:39Z</time>
      </trkpt>
      <trkpt lat="45.20572" lon="5.98677">
        <ele>2039.2</ele>
        <time>2021-04-17T12:05:40Z</time>
      </trkpt>
      <trkpt lat="45.20574" lon="5.98674">
        <ele>2038.4</ele>
        <time>2021-04-17T12:05:41Z</time>
      </trkpt>
      <trkpt lat="45.20575" lon="5.98672">
        <ele>2037.6</ele>
        <time>2021-04-17T12:05:42Z</time>
      </trkpt>
      <trkpt lat="45.20579" lon="5.98668">
        <ele>2036.4</ele>
        <time>2021-04-17T12:05:44Z</time>
      </trkpt>
      <trkpt lat="45.20582" lon="5.98668">
        <ele>2035.8</ele>
        <time>2021-04-17T12:05:45Z</time>
      </trkpt>
      <trkpt lat="45.20583" lon="5.9867">
        <ele>2035</ele>
        <time>2021-04-17T12:05:46Z</time>
      </trkpt>
      <trkpt lat="45.20584" lon="5.98672">
        <ele>2034</ele>
        <time>2021-04-17T12:05:47Z</time>
      </trkpt>
      <trkpt lat="45.20585" lon="5.98675">
        <ele>2032.8</ele>
        <time>2021-04-17T12:05:48Z</time>
      </trkpt>
      <trkpt lat="45.20585" lon="5.98681">
        <ele>2031.2</ele>
        <time>2021-04-17T12:05:50Z</time>
      </trkpt>
      <trkpt lat="45.20585" lon="5.98684">
        <ele>2030.4</ele>
        <time>2021-04-17T12:05:51Z</time>
      </trkpt>
      <trkpt lat="45.20585" lon="5.98689">
        <ele>2029.8</ele>
        <time>2021-04-17T12:05:52Z</time>
      </trkpt>
      <trkpt lat="45.20588" lon="5.98694">
        <ele>2028.8</ele>
        <time>2021-04-17T12:05:54Z</time>
      </trkpt>
      <trkpt lat="45.2059" lon="5.98694">
        <ele>2028.2</ele>
        <time>2021-04-17T12:05:55Z</time>
      </trkpt>
      <trkpt lat="45.20593" lon="5.98693">
        <ele>2027.2</ele>
        <time>2021-04-17T12:05:56Z</time>
      </trkpt>
      <trkpt lat="45.20595" lon="5.9869">
        <ele>2026.2</ele>
        <time>2021-04-17T12:05:57Z</time>
      </trkpt>
      <trkpt lat="45.20598" lon="5.98688">
        <ele>2025.2</ele>
        <time>2021-04-17T12:05:58Z</time>
      </trkpt>
      <trkpt lat="45.206" lon="5.98684">
        <ele>2024</ele>
        <time>2021-04-17T12:05:59Z</time>
      </trkpt>
      <trkpt lat="45.20602" lon="5.98679">
        <ele>2023</ele>
        <time>2021-04-17T12:06:00Z</time>
      </trkpt>
      <trkpt lat="45.20604" lon="5.98675">
        <ele>2022</ele>
        <time>2021-04-17T12:06:01Z</time>
      </trkpt>
      <trkpt lat="45.20605" lon="5.9867">
        <ele>2020.8</ele>
        <time>2021-04-17T12:06:02Z</time>
      </trkpt>
      <trkpt lat="45.20607" lon="5.98664">
        <ele>2020.2</ele>
        <time>2021-04-17T12:06:03Z</time>
      </trkpt>
      <trkpt lat="45.20608" lon="5.98659">
        <ele>2019.6</ele>
        <time>2021-04-17T12:06:04Z</time>
      </trkpt>
      <trkpt lat="45.20613" lon="5.9865">
        <ele>2017.8</ele>
        <time>2021-04-17T12:06:06Z</time>
      </trkpt>
      <trkpt lat="45.20614" lon="5.98646">
        <ele>2016.2</ele>
        <time>2021-04-17T12:06:08Z</time>
      </trkpt>
      <trkpt lat="45.20615" lon="5.98641">
        <ele>2015.4</ele>
        <time>2021-04-17T12:06:11Z</time>
      </trkpt>
      <trkpt lat="45.20618" lon="5.98636">
        <ele>2015.4</ele>
        <time>2021-04-17T12:06:13Z</time>
      </trkpt>
      <trkpt lat="45.20622" lon="5.98632">
        <ele>2015.2</ele>
        <time>2021-04-17T12:06:15Z</time>
      </trkpt>
      <trkpt lat="45.2063" lon="5.98619">
        <ele>2014</ele>
        <time>2021-04-17T12:06:19Z</time>
      </trkpt>
      <trkpt lat="45.20633" lon="5.98614">
        <ele>2013.6</ele>
        <time>2021-04-17T12:06:20Z</time>
      </trkpt>
      <trkpt lat="45.20642" lon="5.986">
        <ele>2012.8</ele>
        <time>2021-04-17T12:06:24Z</time>
      </trkpt>
      <trkpt lat="45.20649" lon="5.9859">
        <ele>2011.8</ele>
        <time>2021-04-17T12:06:29Z</time>
      </trkpt>
      <trkpt lat="45.20653" lon="5.98589">
        <ele>2011.6</ele>
        <time>2021-04-17T12:06:30Z</time>
      </trkpt>
      <trkpt lat="45.20661" lon="5.98587">
        <ele>2011.4</ele>
        <time>2021-04-17T12:06:34Z</time>
      </trkpt>
      <trkpt lat="45.20666" lon="5.98582">
        <ele>2011.4</ele>
        <time>2021-04-17T12:06:39Z</time>
      </trkpt>
      <trkpt lat="45.20672" lon="5.9858">
        <ele>2011.4</ele>
        <time>2021-04-17T12:06:43Z</time>
      </trkpt>
      <trkpt lat="45.20676" lon="5.98578">
        <ele>2011.4</ele>
        <time>2021-04-17T12:06:45Z</time>
      </trkpt>
      <trkpt lat="45.20679" lon="5.98576">
        <ele>2011.4</ele>
        <time>2021-04-17T12:06:49Z</time>
      </trkpt>
      <trkpt lat="45.2068" lon="5.98573">
        <ele>2011.4</ele>
        <time>2021-04-17T12:06:51Z</time>
      </trkpt>
      <trkpt lat="45.20682" lon="5.98571">
        <ele>2011.6</ele>
        <time>2021-04-17T12:06:54Z</time>
      </trkpt>
      <trkpt lat="45.20685" lon="5.9857">
        <ele>2011.6</ele>
        <time>2021-04-17T12:06:57Z</time>
      </trkpt>
      <trkpt lat="45.20698" lon="5.98565">
        <ele>2011.2</ele>
        <time>2021-04-17T12:07:02Z</time>
      </trkpt>
      <trkpt lat="45.20705" lon="5.98563">
        <ele>2010.6</ele>
        <time>2021-04-17T12:07:04Z</time>
      </trkpt>
      <trkpt lat="45.20713" lon="5.9856">
        <ele>2009.8</ele>
        <time>2021-04-17T12:07:07Z</time>
      </trkpt>
      <trkpt lat="45.20719" lon="5.98558">
        <ele>2009.6</ele>
        <time>2021-04-17T12:07:09Z</time>
      </trkpt>
      <trkpt lat="45.20735" lon="5.98554">
        <ele>2008.6</ele>
        <time>2021-04-17T12:07:14Z</time>
      </trkpt>
      <trkpt lat="45.20737" lon="5.98553">
        <ele>2008.2</ele>
        <time>2021-04-17T12:07:15Z</time>
      </trkpt>
      <trkpt lat="45.20742" lon="5.98554">
        <ele>2007.4</ele>
        <time>2021-04-17T12:07:19Z</time>
      </trkpt>
      <trkpt lat="45.20744" lon="5.98555">
        <ele>2007.4</ele>
        <time>2021-04-17T12:07:22Z</time>
      </trkpt>
      <trkpt lat="45.20748" lon="5.98557">
        <ele>2008</ele>
        <time>2021-04-17T12:07:26Z</time>
      </trkpt>
      <trkpt lat="45.2076" lon="5.98552">
        <ele>2007.6</ele>
        <time>2021-04-17T12:07:31Z</time>
      </trkpt>
      <trkpt lat="45.20764" lon="5.98551">
        <ele>2007.2</ele>
        <time>2021-04-17T12:07:32Z</time>
      </trkpt>
      <trkpt lat="45.20769" lon="5.9855">
        <ele>2006.6</ele>
        <time>2021-04-17T12:07:33Z</time>
      </trkpt>
      <trkpt lat="45.20774" lon="5.98549">
        <ele>2005.8</ele>
        <time>2021-04-17T12:07:34Z</time>
      </trkpt>
      <trkpt lat="45.20777" lon="5.98548">
        <ele>2005.2</ele>
        <time>2021-04-17T12:07:35Z</time>
      </trkpt>
      <trkpt lat="45.20779" lon="5.98546">
        <ele>2004.8</ele>
        <time>2021-04-17T12:07:36Z</time>
      </trkpt>
      <trkpt lat="45.20789" lon="5.98543">
        <ele>2004.2</ele>
        <time>2021-04-17T12:07:39Z</time>
      </trkpt>
      <trkpt lat="45.20796" lon="5.98542">
        <ele>2003.4</ele>
        <time>2021-04-17T12:07:41Z</time>
      </trkpt>
      <trkpt lat="45.208" lon="5.98542">
        <ele>2003</ele>
        <time>2021-04-17T12:07:42Z</time>
      </trkpt>
      <trkpt lat="45.20803" lon="5.98542">
        <ele>2002.6</ele>
        <time>2021-04-17T12:07:43Z</time>
      </trkpt>
      <trkpt lat="45.20806" lon="5.98541">
        <ele>2002.2</ele>
        <time>2021-04-17T12:07:44Z</time>
      </trkpt>
      <trkpt lat="45.20809" lon="5.98542">
        <ele>2001.8</ele>
        <time>2021-04-17T12:07:46Z</time>
      </trkpt>
      <trkpt lat="45.2081" lon="5.98541">
        <ele>2001.6</ele>
        <time>2021-04-17T12:07:48Z</time>
      </trkpt>
      <trkpt lat="45.20811" lon="5.98542">
        <ele>2001.8</ele>
        <time>2021-04-17T12:07:49Z</time>
      </trkpt>
      <trkpt lat="45.20812" lon="5.98542">
        <ele>2001.8</ele>
        <time>2021-04-17T12:07:50Z</time>
      </trkpt>
      <trkpt lat="45.20816" lon="5.98542">
        <ele>2001.8</ele>
        <time>2021-04-17T12:07:52Z</time>
      </trkpt>
      <trkpt lat="45.20821" lon="5.98542">
        <ele>2001.6</ele>
        <time>2021-04-17T12:07:55Z</time>
      </trkpt>
      <trkpt lat="45.20825" lon="5.98541">
        <ele>2001.6</ele>
        <time>2021-04-17T12:07:59Z</time>
      </trkpt>
      <trkpt lat="45.20829" lon="5.98541">
        <ele>2001.8</ele>
        <time>2021-04-17T12:08:05Z</time>
      </trkpt>
      <trkpt lat="45.20831" lon="5.9854">
        <ele>2002</ele>
        <time>2021-04-17T12:08:08Z</time>
      </trkpt>
      <trkpt lat="45.20836" lon="5.98541">
        <ele>2002</ele>
        <time>2021-04-17T12:08:11Z</time>
      </trkpt>
      <trkpt lat="45.20844" lon="5.98545">
        <ele>2002</ele>
        <time>2021-04-17T12:08:16Z</time>
      </trkpt>
      <trkpt lat="45.20851" lon="5.98547">
        <ele>2002</ele>
        <time>2021-04-17T12:08:20Z</time>
      </trkpt>
      <trkpt lat="45.20855" lon="5.98548">
        <ele>2002.2</ele>
        <time>2021-04-17T12:08:23Z</time>
      </trkpt>
      <trkpt lat="45.20864" lon="5.98552">
        <ele>2002</ele>
        <time>2021-04-17T12:08:29Z</time>
      </trkpt>
      <trkpt lat="45.20871" lon="5.98557">
        <ele>2001.8</ele>
        <time>2021-04-17T12:08:32Z</time>
      </trkpt>
      <trkpt lat="45.20884" lon="5.98564">
        <ele>2001.4</ele>
        <time>2021-04-17T12:08:38Z</time>
      </trkpt>
      <trkpt lat="45.20886" lon="5.98566">
        <ele>2001.2</ele>
        <time>2021-04-17T12:08:39Z</time>
      </trkpt>
      <trkpt lat="45.20907" lon="5.98575">
        <ele>2000.2</ele>
        <time>2021-04-17T12:08:45Z</time>
      </trkpt>
      <trkpt lat="45.2091" lon="5.98576">
        <ele>2000</ele>
        <time>2021-04-17T12:08:46Z</time>
      </trkpt>
      <trkpt lat="45.20917" lon="5.9858">
        <ele>1999.6</ele>
        <time>2021-04-17T12:08:49Z</time>
      </trkpt>
      <trkpt lat="45.20921" lon="5.98582">
        <ele>1999.4</ele>
        <time>2021-04-17T12:08:51Z</time>
      </trkpt>
      <trkpt lat="45.20937" lon="5.98586">
        <ele>1998.8</ele>
        <time>2021-04-17T12:08:57Z</time>
      </trkpt>
      <trkpt lat="45.20941" lon="5.98587">
        <ele>1998.6</ele>
        <time>2021-04-17T12:08:58Z</time>
      </trkpt>
      <trkpt lat="45.20948" lon="5.9859">
        <ele>1997.8</ele>
        <time>2021-04-17T12:09:01Z</time>
      </trkpt>
      <trkpt lat="45.20949" lon="5.98591">
        <ele>1997.4</ele>
        <time>2021-04-17T12:09:03Z</time>
      </trkpt>
      <trkpt lat="45.20949" lon="5.98591">
        <ele>1997.4</ele>
        <time>2021-04-17T12:09:04Z</time>
      </trkpt>
      <trkpt lat="45.20949" lon="5.98591">
        <ele>1997.4</ele>
        <time>2021-04-17T12:09:06Z</time>
      </trkpt>
      <trkpt lat="45.20951" lon="5.98591">
        <ele>1997.4</ele>
        <time>2021-04-17T12:09:09Z</time>
      </trkpt>
      <trkpt lat="45.20951" lon="5.98591">
        <ele>1997.4</ele>
        <time>2021-04-17T12:09:11Z</time>
      </trkpt>
      <trkpt lat="45.20952" lon="5.9859">
        <ele>1997.6</ele>
        <time>2021-04-17T12:09:13Z</time>
      </trkpt>
      <trkpt lat="45.20953" lon="5.98591">
        <ele>1997.6</ele>
        <time>2021-04-17T12:09:14Z</time>
      </trkpt>
      <trkpt lat="45.20954" lon="5.98592">
        <ele>1997.8</ele>
        <time>2021-04-17T12:09:15Z</time>
      </trkpt>
      <trkpt lat="45.20954" lon="5.98593">
        <ele>1997.8</ele>
        <time>2021-04-17T12:09:16Z</time>
      </trkpt>
      <trkpt lat="45.20955" lon="5.98594">
        <ele>1998</ele>
        <time>2021-04-17T12:09:17Z</time>
      </trkpt>
      <trkpt lat="45.20955" lon="5.98595">
        <ele>1998</ele>
        <time>2021-04-17T12:09:18Z</time>
      </trkpt>
      <trkpt lat="45.20956" lon="5.98595">
        <ele>1998</ele>
        <time>2021-04-17T12:09:19Z</time>
      </trkpt>
      <trkpt lat="45.20961" lon="5.98599">
        <ele>1998.2</ele>
        <time>2021-04-17T12:09:25Z</time>
      </trkpt>
      <trkpt lat="45.20962" lon="5.98603">
        <ele>1998.2</ele>
        <time>2021-04-17T12:09:28Z</time>
      </trkpt>
      <trkpt lat="45.20964" lon="5.98607">
        <ele>1998.8</ele>
        <time>2021-04-17T12:09:34Z</time>
      </trkpt>
      <trkpt lat="45.20968" lon="5.98611">
        <ele>1998.8</ele>
        <time>2021-04-17T12:09:38Z</time>
      </trkpt>
      <trkpt lat="45.20972" lon="5.98616">
        <ele>1998.8</ele>
        <time>2021-04-17T12:09:41Z</time>
      </trkpt>
      <trkpt lat="45.20982" lon="5.98615">
        <ele>1997.8</ele>
        <time>2021-04-17T12:09:46Z</time>
      </trkpt>
      <trkpt lat="45.20985" lon="5.98613">
        <ele>1997.6</ele>
        <time>2021-04-17T12:09:47Z</time>
      </trkpt>
      <trkpt lat="45.20991" lon="5.98608">
        <ele>1996.6</ele>
        <time>2021-04-17T12:09:49Z</time>
      </trkpt>
      <trkpt lat="45.20994" lon="5.98605">
        <ele>1996</ele>
        <time>2021-04-17T12:09:50Z</time>
      </trkpt>
      <trkpt lat="45.20996" lon="5.98603">
        <ele>1995.6</ele>
        <time>2021-04-17T12:09:51Z</time>
      </trkpt>
      <trkpt lat="45.21002" lon="5.98597">
        <ele>1994.8</ele>
        <time>2021-04-17T12:09:54Z</time>
      </trkpt>
      <trkpt lat="45.21003" lon="5.98593">
        <ele>1994.2</ele>
        <time>2021-04-17T12:09:56Z</time>
      </trkpt>
      <trkpt lat="45.21004" lon="5.98591">
        <ele>1994</ele>
        <time>2021-04-17T12:09:57Z</time>
      </trkpt>
      <trkpt lat="45.21004" lon="5.9859">
        <ele>1993.6</ele>
        <time>2021-04-17T12:09:58Z</time>
      </trkpt>
      <trkpt lat="45.21004" lon="5.98588">
        <ele>1993.4</ele>
        <time>2021-04-17T12:10:00Z</time>
      </trkpt>
      <trkpt lat="45.21004" lon="5.98588">
        <ele>1993.2</ele>
        <time>2021-04-17T12:10:02Z</time>
      </trkpt>
      <trkpt lat="45.21004" lon="5.98588">
        <ele>1993</ele>
        <time>2021-04-17T12:10:03Z</time>
      </trkpt>
      <trkpt lat="45.21003" lon="5.98587">
        <ele>1993</ele>
        <time>2021-04-17T12:10:06Z</time>
      </trkpt>
      <trkpt lat="45.21004" lon="5.98588">
        <ele>1993</ele>
        <time>2021-04-17T12:10:07Z</time>
      </trkpt>
      <trkpt lat="45.21005" lon="5.98588">
        <ele>1993</ele>
        <time>2021-04-17T12:10:09Z</time>
      </trkpt>
      <trkpt lat="45.21004" lon="5.98588">
        <ele>1992.8</ele>
        <time>2021-04-17T12:10:10Z</time>
      </trkpt>
      <trkpt lat="45.21005" lon="5.98587">
        <ele>1992.8</ele>
        <time>2021-04-17T12:10:11Z</time>
      </trkpt>
      <trkpt lat="45.21005" lon="5.98586">
        <ele>1992.6</ele>
        <time>2021-04-17T12:10:12Z</time>
      </trkpt>
      <trkpt lat="45.21004" lon="5.98585">
        <ele>1992.4</ele>
        <time>2021-04-17T12:10:13Z</time>
      </trkpt>
      <trkpt lat="45.21004" lon="5.98585">
        <ele>1992.2</ele>
        <time>2021-04-17T12:10:14Z</time>
      </trkpt>
      <trkpt lat="45.21004" lon="5.98585">
        <ele>1992.2</ele>
        <time>2021-04-17T12:10:15Z</time>
      </trkpt>
      <trkpt lat="45.21004" lon="5.98585">
        <ele>1992.2</ele>
        <time>2021-04-17T12:10:21Z</time>
      </trkpt>
      <trkpt lat="45.21004" lon="5.98585">
        <ele>1992</ele>
        <time>2021-04-17T12:10:24Z</time>
      </trkpt>
      <trkpt lat="45.21004" lon="5.98585">
        <ele>1992</ele>
        <time>2021-04-17T12:10:25Z</time>
      </trkpt>
      <trkpt lat="45.21004" lon="5.98585">
        <ele>1992</ele>
        <time>2021-04-17T12:10:26Z</time>
      </trkpt>
      <trkpt lat="45.21005" lon="5.98585">
        <ele>1992</ele>
        <time>2021-04-17T12:10:29Z</time>
      </trkpt>
      <trkpt lat="45.21005" lon="5.98584">
        <ele>1991.8</ele>
        <time>2021-04-17T12:10:31Z</time>
      </trkpt>
      <trkpt lat="45.21006" lon="5.98584">
        <ele>1991.8</ele>
        <time>2021-04-17T12:10:35Z</time>
      </trkpt>
      <trkpt lat="45.21006" lon="5.98583">
        <ele>1991.8</ele>
        <time>2021-04-17T12:10:37Z</time>
      </trkpt>
      <trkpt lat="45.21006" lon="5.98583">
        <ele>1991.8</ele>
        <time>2021-04-17T12:10:41Z</time>
      </trkpt>
      <trkpt lat="45.21006" lon="5.98583">
        <ele>1991.8</ele>
        <time>2021-04-17T12:10:44Z</time>
      </trkpt>
      <trkpt lat="45.21006" lon="5.98582">
        <ele>1991.8</ele>
        <time>2021-04-17T12:10:46Z</time>
      </trkpt>
      <trkpt lat="45.21005" lon="5.98582">
        <ele>1991.4</ele>
        <time>2021-04-17T12:10:50Z</time>
      </trkpt>
      <trkpt lat="45.21004" lon="5.98582">
        <ele>1991.2</ele>
        <time>2021-04-17T12:10:52Z</time>
      </trkpt>
      <trkpt lat="45.21004" lon="5.98582">
        <ele>1991</ele>
        <time>2021-04-17T12:10:53Z</time>
      </trkpt>
      <trkpt lat="45.21004" lon="5.98582">
        <ele>1991</ele>
        <time>2021-04-17T12:10:54Z</time>
      </trkpt>
      <trkpt lat="45.21006" lon="5.98575">
        <ele>1990.4</ele>
        <time>2021-04-17T12:10:57Z</time>
      </trkpt>
      <trkpt lat="45.21007" lon="5.98573">
        <ele>1989.8</ele>
        <time>2021-04-17T12:10:58Z</time>
      </trkpt>
      <trkpt lat="45.21009" lon="5.98573">
        <ele>1989.2</ele>
        <time>2021-04-17T12:10:59Z</time>
      </trkpt>
      <trkpt lat="45.21011" lon="5.98575">
        <ele>1988.6</ele>
        <time>2021-04-17T12:11:00Z</time>
      </trkpt>
      <trkpt lat="45.21012" lon="5.98578">
        <ele>1987.2</ele>
        <time>2021-04-17T12:11:01Z</time>
      </trkpt>
      <trkpt lat="45.21013" lon="5.98581">
        <ele>1985.8</ele>
        <time>2021-04-17T12:11:02Z</time>
      </trkpt>
      <trkpt lat="45.21014" lon="5.98584">
        <ele>1984.8</ele>
        <time>2021-04-17T12:11:03Z</time>
      </trkpt>
      <trkpt lat="45.21015" lon="5.98588">
        <ele>1983.8</ele>
        <time>2021-04-17T12:11:04Z</time>
      </trkpt>
      <trkpt lat="45.21016" lon="5.98593">
        <ele>1982.6</ele>
        <time>2021-04-17T12:11:05Z</time>
      </trkpt>
      <trkpt lat="45.21017" lon="5.98596">
        <ele>1981.6</ele>
        <time>2021-04-17T12:11:06Z</time>
      </trkpt>
      <trkpt lat="45.21018" lon="5.98599">
        <ele>1980.8</ele>
        <time>2021-04-17T12:11:07Z</time>
      </trkpt>
      <trkpt lat="45.21019" lon="5.98602">
        <ele>1980.2</ele>
        <time>2021-04-17T12:11:08Z</time>
      </trkpt>
      <trkpt lat="45.21021" lon="5.98609">
        <ele>1979.6</ele>
        <time>2021-04-17T12:11:10Z</time>
      </trkpt>
      <trkpt lat="45.21021" lon="5.98615">
        <ele>1978.4</ele>
        <time>2021-04-17T12:11:12Z</time>
      </trkpt>
      <trkpt lat="45.21021" lon="5.98619">
        <ele>1977.8</ele>
        <time>2021-04-17T12:11:13Z</time>
      </trkpt>
      <trkpt lat="45.21021" lon="5.98622">
        <ele>1977.2</ele>
        <time>2021-04-17T12:11:14Z</time>
      </trkpt>
      <trkpt lat="45.21023" lon="5.98627">
        <ele>1975.8</ele>
        <time>2021-04-17T12:11:16Z</time>
      </trkpt>
      <trkpt lat="45.21025" lon="5.98627">
        <ele>1975.2</ele>
        <time>2021-04-17T12:11:17Z</time>
      </trkpt>
      <trkpt lat="45.21026" lon="5.98626">
        <ele>1974</ele>
        <time>2021-04-17T12:11:18Z</time>
      </trkpt>
      <trkpt lat="45.21028" lon="5.98623">
        <ele>1972.8</ele>
        <time>2021-04-17T12:11:19Z</time>
      </trkpt>
      <trkpt lat="45.2103" lon="5.98617">
        <ele>1971.2</ele>
        <time>2021-04-17T12:11:21Z</time>
      </trkpt>
      <trkpt lat="45.21031" lon="5.98609">
        <ele>1969.8</ele>
        <time>2021-04-17T12:11:23Z</time>
      </trkpt>
      <trkpt lat="45.21032" lon="5.98606">
        <ele>1968.8</ele>
        <time>2021-04-17T12:11:24Z</time>
      </trkpt>
      <trkpt lat="45.21033" lon="5.98602">
        <ele>1967.8</ele>
        <time>2021-04-17T12:11:25Z</time>
      </trkpt>
      <trkpt lat="45.21036" lon="5.98602">
        <ele>1967</ele>
        <time>2021-04-17T12:11:26Z</time>
      </trkpt>
      <trkpt lat="45.21038" lon="5.98605">
        <ele>1965.8</ele>
        <time>2021-04-17T12:11:27Z</time>
      </trkpt>
      <trkpt lat="45.21039" lon="5.98608">
        <ele>1964.4</ele>
        <time>2021-04-17T12:11:28Z</time>
      </trkpt>
      <trkpt lat="45.21041" lon="5.98612">
        <ele>1962.8</ele>
        <time>2021-04-17T12:11:29Z</time>
      </trkpt>
      <trkpt lat="45.21042" lon="5.98615">
        <ele>1961.6</ele>
        <time>2021-04-17T12:11:30Z</time>
      </trkpt>
      <trkpt lat="45.21043" lon="5.98617">
        <ele>1960.6</ele>
        <time>2021-04-17T12:11:32Z</time>
      </trkpt>
      <trkpt lat="45.21042" lon="5.98617">
        <ele>1960.4</ele>
        <time>2021-04-17T12:11:33Z</time>
      </trkpt>
      <trkpt lat="45.21045" lon="5.9862">
        <ele>1960</ele>
        <time>2021-04-17T12:11:37Z</time>
      </trkpt>
      <trkpt lat="45.21048" lon="5.98625">
        <ele>1959.6</ele>
        <time>2021-04-17T12:11:39Z</time>
      </trkpt>
      <trkpt lat="45.21051" lon="5.98627">
        <ele>1959</ele>
        <time>2021-04-17T12:11:40Z</time>
      </trkpt>
      <trkpt lat="45.21053" lon="5.98626">
        <ele>1958</ele>
        <time>2021-04-17T12:11:41Z</time>
      </trkpt>
      <trkpt lat="45.21055" lon="5.98622">
        <ele>1956.6</ele>
        <time>2021-04-17T12:11:42Z</time>
      </trkpt>
      <trkpt lat="45.21055" lon="5.98618">
        <ele>1955</ele>
        <time>2021-04-17T12:11:43Z</time>
      </trkpt>
      <trkpt lat="45.21055" lon="5.98613">
        <ele>1953</ele>
        <time>2021-04-17T12:11:44Z</time>
      </trkpt>
      <trkpt lat="45.21056" lon="5.98609">
        <ele>1951.6</ele>
        <time>2021-04-17T12:11:45Z</time>
      </trkpt>
      <trkpt lat="45.21058" lon="5.98606">
        <ele>1950.4</ele>
        <time>2021-04-17T12:11:46Z</time>
      </trkpt>
      <trkpt lat="45.21061" lon="5.98606">
        <ele>1949.6</ele>
        <time>2021-04-17T12:11:47Z</time>
      </trkpt>
      <trkpt lat="45.21063" lon="5.98608">
        <ele>1948.6</ele>
        <time>2021-04-17T12:11:48Z</time>
      </trkpt>
      <trkpt lat="45.21066" lon="5.98608">
        <ele>1947.2</ele>
        <time>2021-04-17T12:11:49Z</time>
      </trkpt>
      <trkpt lat="45.2107" lon="5.98608">
        <ele>1945.6</ele>
        <time>2021-04-17T12:11:50Z</time>
      </trkpt>
      <trkpt lat="45.21073" lon="5.98606">
        <ele>1943.8</ele>
        <time>2021-04-17T12:11:51Z</time>
      </trkpt>
      <trkpt lat="45.21076" lon="5.98606">
        <ele>1941.6</ele>
        <time>2021-04-17T12:11:52Z</time>
      </trkpt>
      <trkpt lat="45.21078" lon="5.98608">
        <ele>1939.6</ele>
        <time>2021-04-17T12:11:53Z</time>
      </trkpt>
      <trkpt lat="45.21079" lon="5.98609">
        <ele>1937.4</ele>
        <time>2021-04-17T12:11:54Z</time>
      </trkpt>
      <trkpt lat="45.21081" lon="5.98613">
        <ele>1936</ele>
        <time>2021-04-17T12:11:56Z</time>
      </trkpt>
      <trkpt lat="45.21083" lon="5.98617">
        <ele>1934.8</ele>
        <time>2021-04-17T12:11:58Z</time>
      </trkpt>
      <trkpt lat="45.21085" lon="5.98619">
        <ele>1934.4</ele>
        <time>2021-04-17T12:11:59Z</time>
      </trkpt>
      <trkpt lat="45.21087" lon="5.98621">
        <ele>1933.8</ele>
        <time>2021-04-17T12:12:00Z</time>
      </trkpt>
      <trkpt lat="45.2109" lon="5.98627">
        <ele>1932.4</ele>
        <time>2021-04-17T12:12:02Z</time>
      </trkpt>
      <trkpt lat="45.21093" lon="5.98628">
        <ele>1931.6</ele>
        <time>2021-04-17T12:12:03Z</time>
      </trkpt>
      <trkpt lat="45.21095" lon="5.98627">
        <ele>1930.4</ele>
        <time>2021-04-17T12:12:04Z</time>
      </trkpt>
      <trkpt lat="45.21096" lon="5.98625">
        <ele>1929</ele>
        <time>2021-04-17T12:12:05Z</time>
      </trkpt>
      <trkpt lat="45.21096" lon="5.98622">
        <ele>1927.4</ele>
        <time>2021-04-17T12:12:06Z</time>
      </trkpt>
      <trkpt lat="45.21097" lon="5.98618">
        <ele>1926</ele>
        <time>2021-04-17T12:12:07Z</time>
      </trkpt>
      <trkpt lat="45.21096" lon="5.98617">
        <ele>1925</ele>
        <time>2021-04-17T12:12:08Z</time>
      </trkpt>
      <trkpt lat="45.21096" lon="5.98617">
        <ele>1923.4</ele>
        <time>2021-04-17T12:12:10Z</time>
      </trkpt>
      <trkpt lat="45.21095" lon="5.98617">
        <ele>1923</ele>
        <time>2021-04-17T12:12:11Z</time>
      </trkpt>
      <trkpt lat="45.21094" lon="5.98617">
        <ele>1922.8</ele>
        <time>2021-04-17T12:12:14Z</time>
      </trkpt>
      <trkpt lat="45.21093" lon="5.98617">
        <ele>1922.8</ele>
        <time>2021-04-17T12:12:18Z</time>
      </trkpt>
      <trkpt lat="45.21093" lon="5.98617">
        <ele>1922.8</ele>
        <time>2021-04-17T12:12:19Z</time>
      </trkpt>
      <trkpt lat="45.21093" lon="5.98617">
        <ele>1922.8</ele>
        <time>2021-04-17T12:12:20Z</time>
      </trkpt>
      <trkpt lat="45.21093" lon="5.98617">
        <ele>1922.8</ele>
        <time>2021-04-17T12:12:21Z</time>
      </trkpt>
      <trkpt lat="45.21093" lon="5.98617">
        <ele>1922.4</ele>
        <time>2021-04-17T12:12:25Z</time>
      </trkpt>
      <trkpt lat="45.21095" lon="5.98618">
        <ele>1922</ele>
        <time>2021-04-17T12:12:26Z</time>
      </trkpt>
      <trkpt lat="45.21097" lon="5.9862">
        <ele>1920.6</ele>
        <time>2021-04-17T12:12:28Z</time>
      </trkpt>
      <trkpt lat="45.21098" lon="5.98618">
        <ele>1919.2</ele>
        <time>2021-04-17T12:12:30Z</time>
      </trkpt>
      <trkpt lat="45.21098" lon="5.98618">
        <ele>1918.6</ele>
        <time>2021-04-17T12:12:31Z</time>
      </trkpt>
      <trkpt lat="45.21097" lon="5.98618">
        <ele>1917.8</ele>
        <time>2021-04-17T12:12:32Z</time>
      </trkpt>
      <trkpt lat="45.211" lon="5.98616">
        <ele>1917</ele>
        <time>2021-04-17T12:12:37Z</time>
      </trkpt>
      <trkpt lat="45.211" lon="5.98613">
        <ele>1916.6</ele>
        <time>2021-04-17T12:12:38Z</time>
      </trkpt>
      <trkpt lat="45.21102" lon="5.98605">
        <ele>1914.4</ele>
        <time>2021-04-17T12:12:40Z</time>
      </trkpt>
      <trkpt lat="45.21102" lon="5.98595">
        <ele>1912.6</ele>
        <time>2021-04-17T12:12:42Z</time>
      </trkpt>
      <trkpt lat="45.21101" lon="5.9859">
        <ele>1910.8</ele>
        <time>2021-04-17T12:12:44Z</time>
      </trkpt>
      <trkpt lat="45.21101" lon="5.98589">
        <ele>1910.4</ele>
        <time>2021-04-17T12:12:45Z</time>
      </trkpt>
      <trkpt lat="45.211" lon="5.98588">
        <ele>1909.8</ele>
        <time>2021-04-17T12:12:47Z</time>
      </trkpt>
      <trkpt lat="45.211" lon="5.98588">
        <ele>1909.6</ele>
        <time>2021-04-17T12:12:48Z</time>
      </trkpt>
      <trkpt lat="45.21101" lon="5.98586">
        <ele>1909.4</ele>
        <time>2021-04-17T12:12:53Z</time>
      </trkpt>
      <trkpt lat="45.21102" lon="5.98586">
        <ele>1909.4</ele>
        <time>2021-04-17T12:12:54Z</time>
      </trkpt>
      <trkpt lat="45.21102" lon="5.98581">
        <ele>1908.8</ele>
        <time>2021-04-17T12:12:59Z</time>
      </trkpt>
      <trkpt lat="45.21103" lon="5.98579">
        <ele>1908.6</ele>
        <time>2021-04-17T12:13:00Z</time>
      </trkpt>
      <trkpt lat="45.21103" lon="5.98577">
        <ele>1908.4</ele>
        <time>2021-04-17T12:13:01Z</time>
      </trkpt>
      <trkpt lat="45.21105" lon="5.98576">
        <ele>1907.4</ele>
        <time>2021-04-17T12:13:03Z</time>
      </trkpt>
      <trkpt lat="45.21108" lon="5.98579">
        <ele>1906.6</ele>
        <time>2021-04-17T12:13:06Z</time>
      </trkpt>
      <trkpt lat="45.21109" lon="5.98582">
        <ele>1906</ele>
        <time>2021-04-17T12:13:07Z</time>
      </trkpt>
      <trkpt lat="45.21109" lon="5.98585">
        <ele>1905</ele>
        <time>2021-04-17T12:13:08Z</time>
      </trkpt>
      <trkpt lat="45.21108" lon="5.98586">
        <ele>1903.4</ele>
        <time>2021-04-17T12:13:10Z</time>
      </trkpt>
      <trkpt lat="45.21109" lon="5.98587">
        <ele>1903</ele>
        <time>2021-04-17T12:13:11Z</time>
      </trkpt>
      <trkpt lat="45.21109" lon="5.9859">
        <ele>1902.2</ele>
        <time>2021-04-17T12:13:13Z</time>
      </trkpt>
      <trkpt lat="45.21111" lon="5.98591">
        <ele>1901.6</ele>
        <time>2021-04-17T12:13:14Z</time>
      </trkpt>
      <trkpt lat="45.21114" lon="5.98589">
        <ele>1901</ele>
        <time>2021-04-17T12:13:15Z</time>
      </trkpt>
      <trkpt lat="45.21116" lon="5.98587">
        <ele>1900.2</ele>
        <time>2021-04-17T12:13:16Z</time>
      </trkpt>
      <trkpt lat="45.21118" lon="5.98583">
        <ele>1899</ele>
        <time>2021-04-17T12:13:17Z</time>
      </trkpt>
      <trkpt lat="45.21121" lon="5.9858">
        <ele>1897.6</ele>
        <time>2021-04-17T12:13:18Z</time>
      </trkpt>
      <trkpt lat="45.21124" lon="5.98576">
        <ele>1896.6</ele>
        <time>2021-04-17T12:13:19Z</time>
      </trkpt>
      <trkpt lat="45.2113" lon="5.9857">
        <ele>1894.6</ele>
        <time>2021-04-17T12:13:21Z</time>
      </trkpt>
      <trkpt lat="45.21132" lon="5.98567">
        <ele>1893.6</ele>
        <time>2021-04-17T12:13:22Z</time>
      </trkpt>
      <trkpt lat="45.21135" lon="5.98566">
        <ele>1892.6</ele>
        <time>2021-04-17T12:13:23Z</time>
      </trkpt>
      <trkpt lat="45.21135" lon="5.98568">
        <ele>1891.4</ele>
        <time>2021-04-17T12:13:24Z</time>
      </trkpt>
      <trkpt lat="45.21135" lon="5.98569">
        <ele>1890</ele>
        <time>2021-04-17T12:13:25Z</time>
      </trkpt>
      <trkpt lat="45.21134" lon="5.9857">
        <ele>1888.6</ele>
        <time>2021-04-17T12:13:26Z</time>
      </trkpt>
      <trkpt lat="45.21135" lon="5.98571">
        <ele>1887.8</ele>
        <time>2021-04-17T12:13:27Z</time>
      </trkpt>
      <trkpt lat="45.21135" lon="5.98571">
        <ele>1887.4</ele>
        <time>2021-04-17T12:13:28Z</time>
      </trkpt>
      <trkpt lat="45.21134" lon="5.9857">
        <ele>1886.8</ele>
        <time>2021-04-17T12:13:31Z</time>
      </trkpt>
      <trkpt lat="45.21133" lon="5.9857">
        <ele>1886.8</ele>
        <time>2021-04-17T12:13:33Z</time>
      </trkpt>
      <trkpt lat="45.21132" lon="5.9857">
        <ele>1886.8</ele>
        <time>2021-04-17T12:13:36Z</time>
      </trkpt>
      <trkpt lat="45.21132" lon="5.9857">
        <ele>1886.8</ele>
        <time>2021-04-17T12:13:37Z</time>
      </trkpt>
      <trkpt lat="45.21132" lon="5.9857">
        <ele>1886.8</ele>
        <time>2021-04-17T12:13:38Z</time>
      </trkpt>
      <trkpt lat="45.21132" lon="5.9857">
        <ele>1886.8</ele>
        <time>2021-04-17T12:13:43Z</time>
      </trkpt>
      <trkpt lat="45.21132" lon="5.9857">
        <ele>1886.6</ele>
        <time>2021-04-17T12:13:47Z</time>
      </trkpt>
      <trkpt lat="45.21132" lon="5.9857">
        <ele>1886.2</ele>
        <time>2021-04-17T12:13:49Z</time>
      </trkpt>
      <trkpt lat="45.21131" lon="5.9857">
        <ele>1885.4</ele>
        <time>2021-04-17T12:13:53Z</time>
      </trkpt>
      <trkpt lat="45.2113" lon="5.9857">
        <ele>1885.2</ele>
        <time>2021-04-17T12:13:54Z</time>
      </trkpt>
      <trkpt lat="45.21132" lon="5.98572">
        <ele>1884.4</ele>
        <time>2021-04-17T12:13:56Z</time>
      </trkpt>
      <trkpt lat="45.21133" lon="5.98573">
        <ele>1883.8</ele>
        <time>2021-04-17T12:13:57Z</time>
      </trkpt>
      <trkpt lat="45.21135" lon="5.98575">
        <ele>1883</ele>
        <time>2021-04-17T12:13:58Z</time>
      </trkpt>
      <trkpt lat="45.21135" lon="5.98577">
        <ele>1882</ele>
        <time>2021-04-17T12:13:59Z</time>
      </trkpt>
      <trkpt lat="45.21137" lon="5.98579">
        <ele>1881</ele>
        <time>2021-04-17T12:14:00Z</time>
      </trkpt>
      <trkpt lat="45.21139" lon="5.9858">
        <ele>1880</ele>
        <time>2021-04-17T12:14:01Z</time>
      </trkpt>
      <trkpt lat="45.21146" lon="5.98577">
        <ele>1876.6</ele>
        <time>2021-04-17T12:14:02Z</time>
      </trkpt>
      <trkpt lat="45.21146" lon="5.98577">
        <ele>1876.6</ele>
        <time>2021-04-17T12:14:03Z</time>
      </trkpt>
      <trkpt lat="45.21149" lon="5.98575">
        <ele>1875.4</ele>
        <time>2021-04-17T12:14:06Z</time>
      </trkpt>
      <trkpt lat="45.21151" lon="5.98576">
        <ele>1874.6</ele>
        <time>2021-04-17T12:14:08Z</time>
      </trkpt>
      <trkpt lat="45.21151" lon="5.98579">
        <ele>1874.2</ele>
        <time>2021-04-17T12:14:09Z</time>
      </trkpt>
      <trkpt lat="45.2115" lon="5.98589">
        <ele>1872.2</ele>
        <time>2021-04-17T12:14:11Z</time>
      </trkpt>
      <trkpt lat="45.21149" lon="5.98594">
        <ele>1871</ele>
        <time>2021-04-17T12:14:12Z</time>
      </trkpt>
      <trkpt lat="45.21149" lon="5.98602">
        <ele>1869.4</ele>
        <time>2021-04-17T12:14:14Z</time>
      </trkpt>
      <trkpt lat="45.21149" lon="5.98613">
        <ele>1867.6</ele>
        <time>2021-04-17T12:14:16Z</time>
      </trkpt>
      <trkpt lat="45.21148" lon="5.98617">
        <ele>1866.6</ele>
        <time>2021-04-17T12:14:17Z</time>
      </trkpt>
      <trkpt lat="45.21147" lon="5.98626">
        <ele>1864.8</ele>
        <time>2021-04-17T12:14:19Z</time>
      </trkpt>
      <trkpt lat="45.21146" lon="5.98628">
        <ele>1863.8</ele>
        <time>2021-04-17T12:14:21Z</time>
      </trkpt>
      <trkpt lat="45.21146" lon="5.98627">
        <ele>1863.4</ele>
        <time>2021-04-17T12:14:23Z</time>
      </trkpt>
      <trkpt lat="45.21146" lon="5.98627">
        <ele>1863</ele>
        <time>2021-04-17T12:14:28Z</time>
      </trkpt>
      <trkpt lat="45.21151" lon="5.98631">
        <ele>1862.4</ele>
        <time>2021-04-17T12:14:34Z</time>
      </trkpt>
      <trkpt lat="45.21153" lon="5.98629">
        <ele>1861.6</ele>
        <time>2021-04-17T12:14:35Z</time>
      </trkpt>
      <trkpt lat="45.21154" lon="5.98626">
        <ele>1860.6</ele>
        <time>2021-04-17T12:14:36Z</time>
      </trkpt>
      <trkpt lat="45.21155" lon="5.98623">
        <ele>1859.4</ele>
        <time>2021-04-17T12:14:37Z</time>
      </trkpt>
      <trkpt lat="45.21159" lon="5.9862">
        <ele>1857.6</ele>
        <time>2021-04-17T12:14:39Z</time>
      </trkpt>
      <trkpt lat="45.21161" lon="5.98616">
        <ele>1856.2</ele>
        <time>2021-04-17T12:14:40Z</time>
      </trkpt>
      <trkpt lat="45.21163" lon="5.98612">
        <ele>1854.8</ele>
        <time>2021-04-17T12:14:41Z</time>
      </trkpt>
      <trkpt lat="45.21165" lon="5.9861">
        <ele>1853.4</ele>
        <time>2021-04-17T12:14:42Z</time>
      </trkpt>
      <trkpt lat="45.21171" lon="5.98608">
        <ele>1852</ele>
        <time>2021-04-17T12:14:44Z</time>
      </trkpt>
      <trkpt lat="45.21172" lon="5.98613">
        <ele>1850.2</ele>
        <time>2021-04-17T12:14:46Z</time>
      </trkpt>
      <trkpt lat="45.21172" lon="5.98615">
        <ele>1849</ele>
        <time>2021-04-17T12:14:47Z</time>
      </trkpt>
      <trkpt lat="45.21172" lon="5.98617">
        <ele>1848</ele>
        <time>2021-04-17T12:14:48Z</time>
      </trkpt>
      <trkpt lat="45.21174" lon="5.98617">
        <ele>1847.4</ele>
        <time>2021-04-17T12:14:49Z</time>
      </trkpt>
      <trkpt lat="45.21176" lon="5.98617">
        <ele>1846.6</ele>
        <time>2021-04-17T12:14:50Z</time>
      </trkpt>
      <trkpt lat="45.21178" lon="5.98616">
        <ele>1845.6</ele>
        <time>2021-04-17T12:14:51Z</time>
      </trkpt>
      <trkpt lat="45.2118" lon="5.98614">
        <ele>1844.8</ele>
        <time>2021-04-17T12:14:52Z</time>
      </trkpt>
      <trkpt lat="45.21186" lon="5.9861">
        <ele>1843.2</ele>
        <time>2021-04-17T12:14:54Z</time>
      </trkpt>
      <trkpt lat="45.21189" lon="5.98608">
        <ele>1842.2</ele>
        <time>2021-04-17T12:14:55Z</time>
      </trkpt>
      <trkpt lat="45.21193" lon="5.98607">
        <ele>1841.2</ele>
        <time>2021-04-17T12:14:56Z</time>
      </trkpt>
      <trkpt lat="45.21197" lon="5.98606">
        <ele>1840.2</ele>
        <time>2021-04-17T12:14:57Z</time>
      </trkpt>
      <trkpt lat="45.212" lon="5.98605">
        <ele>1839.2</ele>
        <time>2021-04-17T12:14:58Z</time>
      </trkpt>
      <trkpt lat="45.21201" lon="5.98605">
        <ele>1838</ele>
        <time>2021-04-17T12:15:00Z</time>
      </trkpt>
      <trkpt lat="45.21201" lon="5.98605">
        <ele>1837.8</ele>
        <time>2021-04-17T12:15:01Z</time>
      </trkpt>
      <trkpt lat="45.21199" lon="5.98606">
        <ele>1837.2</ele>
        <time>2021-04-17T12:15:06Z</time>
      </trkpt>
      <trkpt lat="45.212" lon="5.98607">
        <ele>1837</ele>
        <time>2021-04-17T12:15:07Z</time>
      </trkpt>
      <trkpt lat="45.21202" lon="5.98605">
        <ele>1836.2</ele>
        <time>2021-04-17T12:15:10Z</time>
      </trkpt>
      <trkpt lat="45.21204" lon="5.98603">
        <ele>1836</ele>
        <time>2021-04-17T12:15:11Z</time>
      </trkpt>
      <trkpt lat="45.21206" lon="5.986">
        <ele>1835.6</ele>
        <time>2021-04-17T12:15:12Z</time>
      </trkpt>
      <trkpt lat="45.2121" lon="5.98594">
        <ele>1834.2</ele>
        <time>2021-04-17T12:15:14Z</time>
      </trkpt>
      <trkpt lat="45.21213" lon="5.98585">
        <ele>1832.8</ele>
        <time>2021-04-17T12:15:16Z</time>
      </trkpt>
      <trkpt lat="45.21214" lon="5.9858">
        <ele>1832</ele>
        <time>2021-04-17T12:15:17Z</time>
      </trkpt>
      <trkpt lat="45.21215" lon="5.98574">
        <ele>1831</ele>
        <time>2021-04-17T12:15:18Z</time>
      </trkpt>
      <trkpt lat="45.21217" lon="5.98569">
        <ele>1829.8</ele>
        <time>2021-04-17T12:15:19Z</time>
      </trkpt>
      <trkpt lat="45.21219" lon="5.98558">
        <ele>1828.2</ele>
        <time>2021-04-17T12:15:21Z</time>
      </trkpt>
      <trkpt lat="45.21219" lon="5.98553">
        <ele>1827.6</ele>
        <time>2021-04-17T12:15:22Z</time>
      </trkpt>
      <trkpt lat="45.21219" lon="5.98549">
        <ele>1827</ele>
        <time>2021-04-17T12:15:23Z</time>
      </trkpt>
      <trkpt lat="45.21223" lon="5.98534">
        <ele>1825.2</ele>
        <time>2021-04-17T12:15:26Z</time>
      </trkpt>
      <trkpt lat="45.21225" lon="5.98531">
        <ele>1824.2</ele>
        <time>2021-04-17T12:15:27Z</time>
      </trkpt>
      <trkpt lat="45.21226" lon="5.98528">
        <ele>1823.4</ele>
        <time>2021-04-17T12:15:28Z</time>
      </trkpt>
      <trkpt lat="45.21227" lon="5.98525">
        <ele>1822.8</ele>
        <time>2021-04-17T12:15:29Z</time>
      </trkpt>
      <trkpt lat="45.21226" lon="5.98522">
        <ele>1822</ele>
        <time>2021-04-17T12:15:30Z</time>
      </trkpt>
      <trkpt lat="45.21224" lon="5.98515">
        <ele>1820.4</ele>
        <time>2021-04-17T12:15:32Z</time>
      </trkpt>
      <trkpt lat="45.21223" lon="5.98512">
        <ele>1819.8</ele>
        <time>2021-04-17T12:15:33Z</time>
      </trkpt>
      <trkpt lat="45.21221" lon="5.98508">
        <ele>1819</ele>
        <time>2021-04-17T12:15:34Z</time>
      </trkpt>
      <trkpt lat="45.21218" lon="5.98499">
        <ele>1817.4</ele>
        <time>2021-04-17T12:15:36Z</time>
      </trkpt>
      <trkpt lat="45.21218" lon="5.98496">
        <ele>1816.6</ele>
        <time>2021-04-17T12:15:37Z</time>
      </trkpt>
      <trkpt lat="45.21218" lon="5.98494">
        <ele>1815.8</ele>
        <time>2021-04-17T12:15:38Z</time>
      </trkpt>
      <trkpt lat="45.21218" lon="5.98489">
        <ele>1814.4</ele>
        <time>2021-04-17T12:15:40Z</time>
      </trkpt>
      <trkpt lat="45.21217" lon="5.98482">
        <ele>1813.2</ele>
        <time>2021-04-17T12:15:42Z</time>
      </trkpt>
      <trkpt lat="45.21216" lon="5.98474">
        <ele>1812</ele>
        <time>2021-04-17T12:15:44Z</time>
      </trkpt>
      <trkpt lat="45.21214" lon="5.98468">
        <ele>1810.4</ele>
        <time>2021-04-17T12:15:46Z</time>
      </trkpt>
      <trkpt lat="45.21213" lon="5.98464">
        <ele>1810</ele>
        <time>2021-04-17T12:15:47Z</time>
      </trkpt>
      <trkpt lat="45.21211" lon="5.98458">
        <ele>1809.4</ele>
        <time>2021-04-17T12:15:48Z</time>
      </trkpt>
      <trkpt lat="45.21213" lon="5.98447">
        <ele>1807.8</ele>
        <time>2021-04-17T12:15:50Z</time>
      </trkpt>
      <trkpt lat="45.21215" lon="5.98442">
        <ele>1807.2</ele>
        <time>2021-04-17T12:15:51Z</time>
      </trkpt>
      <trkpt lat="45.2122" lon="5.98433">
        <ele>1806.4</ele>
        <time>2021-04-17T12:15:53Z</time>
      </trkpt>
      <trkpt lat="45.21225" lon="5.98422">
        <ele>1805</ele>
        <time>2021-04-17T12:15:56Z</time>
      </trkpt>
      <trkpt lat="45.21225" lon="5.98421">
        <ele>1804.8</ele>
        <time>2021-04-17T12:15:57Z</time>
      </trkpt>
      <trkpt lat="45.21225" lon="5.98421">
        <ele>1804.2</ele>
        <time>2021-04-17T12:15:59Z</time>
      </trkpt>
      <trkpt lat="45.21225" lon="5.98421">
        <ele>1804.2</ele>
        <time>2021-04-17T12:16:00Z</time>
      </trkpt>
      <trkpt lat="45.21225" lon="5.98421">
        <ele>1804</ele>
        <time>2021-04-17T12:16:01Z</time>
      </trkpt>
      <trkpt lat="45.21223" lon="5.9842">
        <ele>1804</ele>
        <time>2021-04-17T12:16:04Z</time>
      </trkpt>
      <trkpt lat="45.21224" lon="5.9842">
        <ele>1804</ele>
        <time>2021-04-17T12:16:05Z</time>
      </trkpt>
      <trkpt lat="45.21224" lon="5.9842">
        <ele>1804</ele>
        <time>2021-04-17T12:16:07Z</time>
      </trkpt>
      <trkpt lat="45.21224" lon="5.98419">
        <ele>1804</ele>
        <time>2021-04-17T12:16:09Z</time>
      </trkpt>
      <trkpt lat="45.21224" lon="5.98419">
        <ele>1804</ele>
        <time>2021-04-17T12:16:12Z</time>
      </trkpt>
      <trkpt lat="45.21224" lon="5.9842">
        <ele>1804</ele>
        <time>2021-04-17T12:16:14Z</time>
      </trkpt>
      <trkpt lat="45.21224" lon="5.9842">
        <ele>1804</ele>
        <time>2021-04-17T12:16:18Z</time>
      </trkpt>
      <trkpt lat="45.21224" lon="5.98421">
        <ele>1804</ele>
        <time>2021-04-17T12:16:19Z</time>
      </trkpt>
      <trkpt lat="45.21224" lon="5.98421">
        <ele>1804</ele>
        <time>2021-04-17T12:16:20Z</time>
      </trkpt>
      <trkpt lat="45.21224" lon="5.98421">
        <ele>1804</ele>
        <time>2021-04-17T12:16:25Z</time>
      </trkpt>
      <trkpt lat="45.21224" lon="5.98421">
        <ele>1803.8</ele>
        <time>2021-04-17T12:16:26Z</time>
      </trkpt>
      <trkpt lat="45.21224" lon="5.98421">
        <ele>1803.8</ele>
        <time>2021-04-17T12:16:27Z</time>
      </trkpt>
      <trkpt lat="45.21224" lon="5.98421">
        <ele>1803.8</ele>
        <time>2021-04-17T12:16:28Z</time>
      </trkpt>
      <trkpt lat="45.21224" lon="5.9842">
        <ele>1803.8</ele>
        <time>2021-04-17T12:16:34Z</time>
      </trkpt>
      <trkpt lat="45.21224" lon="5.9842">
        <ele>1803.8</ele>
        <time>2021-04-17T12:16:38Z</time>
      </trkpt>
      <trkpt lat="45.21224" lon="5.9842">
        <ele>1803.8</ele>
        <time>2021-04-17T12:16:41Z</time>
      </trkpt>
      <trkpt lat="45.21225" lon="5.9842">
        <ele>1803.6</ele>
        <time>2021-04-17T12:16:45Z</time>
      </trkpt>
      <trkpt lat="45.21227" lon="5.98427">
        <ele>1803</ele>
        <time>2021-04-17T12:16:47Z</time>
      </trkpt>
      <trkpt lat="45.21227" lon="5.9843">
        <ele>1802.2</ele>
        <time>2021-04-17T12:16:48Z</time>
      </trkpt>
      <trkpt lat="45.21227" lon="5.98433">
        <ele>1801.4</ele>
        <time>2021-04-17T12:16:49Z</time>
      </trkpt>
      <trkpt lat="45.21229" lon="5.98436">
        <ele>1800.6</ele>
        <time>2021-04-17T12:16:50Z</time>
      </trkpt>
      <trkpt lat="45.21231" lon="5.98438">
        <ele>1799.2</ele>
        <time>2021-04-17T12:16:51Z</time>
      </trkpt>
      <trkpt lat="45.21232" lon="5.9844">
        <ele>1797.2</ele>
        <time>2021-04-17T12:16:52Z</time>
      </trkpt>
      <trkpt lat="45.21232" lon="5.9844">
        <ele>1794</ele>
        <time>2021-04-17T12:16:53Z</time>
      </trkpt>
      <trkpt lat="45.21233" lon="5.98441">
        <ele>1794</ele>
        <time>2021-04-17T12:16:54Z</time>
      </trkpt>
      <trkpt lat="45.21233" lon="5.98441">
        <ele>1793.4</ele>
        <time>2021-04-17T12:16:55Z</time>
      </trkpt>
      <trkpt lat="45.21233" lon="5.98441">
        <ele>1793</ele>
        <time>2021-04-17T12:16:56Z</time>
      </trkpt>
      <trkpt lat="45.21233" lon="5.98442">
        <ele>1793</ele>
        <time>2021-04-17T12:16:57Z</time>
      </trkpt>
      <trkpt lat="45.21232" lon="5.98443">
        <ele>1792.8</ele>
        <time>2021-04-17T12:16:58Z</time>
      </trkpt>
      <trkpt lat="45.21232" lon="5.98444">
        <ele>1792.8</ele>
        <time>2021-04-17T12:17:00Z</time>
      </trkpt>
      <trkpt lat="45.21232" lon="5.98444">
        <ele>1792.8</ele>
        <time>2021-04-17T12:17:01Z</time>
      </trkpt>
      <trkpt lat="45.21229" lon="5.98449">
        <ele>1792.8</ele>
        <time>2021-04-17T12:17:07Z</time>
      </trkpt>
      <trkpt lat="45.21229" lon="5.98451">
        <ele>1792.8</ele>
        <time>2021-04-17T12:17:08Z</time>
      </trkpt>
      <trkpt lat="45.21229" lon="5.98452">
        <ele>1792.6</ele>
        <time>2021-04-17T12:17:09Z</time>
      </trkpt>
      <trkpt lat="45.21229" lon="5.98453">
        <ele>1792.2</ele>
        <time>2021-04-17T12:17:11Z</time>
      </trkpt>
      <trkpt lat="45.21233" lon="5.98453">
        <ele>1791.8</ele>
        <time>2021-04-17T12:17:13Z</time>
      </trkpt>
      <trkpt lat="45.21236" lon="5.98451">
        <ele>1791.6</ele>
        <time>2021-04-17T12:17:14Z</time>
      </trkpt>
      <trkpt lat="45.21239" lon="5.98448">
        <ele>1790.6</ele>
        <time>2021-04-17T12:17:15Z</time>
      </trkpt>
      <trkpt lat="45.21242" lon="5.98444">
        <ele>1789.4</ele>
        <time>2021-04-17T12:17:16Z</time>
      </trkpt>
      <trkpt lat="45.21244" lon="5.98441">
        <ele>1788.2</ele>
        <time>2021-04-17T12:17:17Z</time>
      </trkpt>
      <trkpt lat="45.21245" lon="5.98437">
        <ele>1787.2</ele>
        <time>2021-04-17T12:17:18Z</time>
      </trkpt>
      <trkpt lat="45.21247" lon="5.98434">
        <ele>1786.4</ele>
        <time>2021-04-17T12:17:19Z</time>
      </trkpt>
      <trkpt lat="45.21249" lon="5.98433">
        <ele>1785.6</ele>
        <time>2021-04-17T12:17:20Z</time>
      </trkpt>
      <trkpt lat="45.21251" lon="5.98437">
        <ele>1785</ele>
        <time>2021-04-17T12:17:21Z</time>
      </trkpt>
      <trkpt lat="45.21252" lon="5.98441">
        <ele>1783.6</ele>
        <time>2021-04-17T12:17:22Z</time>
      </trkpt>
      <trkpt lat="45.21252" lon="5.98446">
        <ele>1782.2</ele>
        <time>2021-04-17T12:17:23Z</time>
      </trkpt>
      <trkpt lat="45.21252" lon="5.9845">
        <ele>1780.6</ele>
        <time>2021-04-17T12:17:24Z</time>
      </trkpt>
      <trkpt lat="45.21253" lon="5.98453">
        <ele>1779.8</ele>
        <time>2021-04-17T12:17:25Z</time>
      </trkpt>
      <trkpt lat="45.21255" lon="5.98455">
        <ele>1779</ele>
        <time>2021-04-17T12:17:26Z</time>
      </trkpt>
      <trkpt lat="45.21256" lon="5.98455">
        <ele>1776.8</ele>
        <time>2021-04-17T12:17:28Z</time>
      </trkpt>
      <trkpt lat="45.21255" lon="5.98454">
        <ele>1775.4</ele>
        <time>2021-04-17T12:17:29Z</time>
      </trkpt>
      <trkpt lat="45.21257" lon="5.98459">
        <ele>1773.8</ele>
        <time>2021-04-17T12:17:31Z</time>
      </trkpt>
      <trkpt lat="45.21259" lon="5.98466">
        <ele>1771.8</ele>
        <time>2021-04-17T12:17:33Z</time>
      </trkpt>
      <trkpt lat="45.21261" lon="5.98472">
        <ele>1770</ele>
        <time>2021-04-17T12:17:35Z</time>
      </trkpt>
      <trkpt lat="45.21264" lon="5.98476">
        <ele>1768.8</ele>
        <time>2021-04-17T12:17:36Z</time>
      </trkpt>
      <trkpt lat="45.21268" lon="5.98479">
        <ele>1767</ele>
        <time>2021-04-17T12:17:37Z</time>
      </trkpt>
      <trkpt lat="45.2127" lon="5.9848">
        <ele>1764.8</ele>
        <time>2021-04-17T12:17:38Z</time>
      </trkpt>
      <trkpt lat="45.21274" lon="5.98478">
        <ele>1762.2</ele>
        <time>2021-04-17T12:17:39Z</time>
      </trkpt>
      <trkpt lat="45.21277" lon="5.98476">
        <ele>1760</ele>
        <time>2021-04-17T12:17:40Z</time>
      </trkpt>
      <trkpt lat="45.21279" lon="5.98476">
        <ele>1758</ele>
        <time>2021-04-17T12:17:41Z</time>
      </trkpt>
      <trkpt lat="45.21281" lon="5.98478">
        <ele>1756.4</ele>
        <time>2021-04-17T12:17:42Z</time>
      </trkpt>
      <trkpt lat="45.21282" lon="5.98481">
        <ele>1754.8</ele>
        <time>2021-04-17T12:17:43Z</time>
      </trkpt>
      <trkpt lat="45.21284" lon="5.9848">
        <ele>1753</ele>
        <time>2021-04-17T12:17:44Z</time>
      </trkpt>
      <trkpt lat="45.21286" lon="5.98478">
        <ele>1751.2</ele>
        <time>2021-04-17T12:17:45Z</time>
      </trkpt>
      <trkpt lat="45.21289" lon="5.98475">
        <ele>1749.2</ele>
        <time>2021-04-17T12:17:46Z</time>
      </trkpt>
      <trkpt lat="45.21291" lon="5.98474">
        <ele>1747.4</ele>
        <time>2021-04-17T12:17:47Z</time>
      </trkpt>
      <trkpt lat="45.21293" lon="5.98477">
        <ele>1745.8</ele>
        <time>2021-04-17T12:17:48Z</time>
      </trkpt>
      <trkpt lat="45.21293" lon="5.98481">
        <ele>1744</ele>
        <time>2021-04-17T12:17:49Z</time>
      </trkpt>
      <trkpt lat="45.21293" lon="5.98484">
        <ele>1742.2</ele>
        <time>2021-04-17T12:17:50Z</time>
      </trkpt>
      <trkpt lat="45.21293" lon="5.98487">
        <ele>1741</ele>
        <time>2021-04-17T12:17:51Z</time>
      </trkpt>
      <trkpt lat="45.21292" lon="5.98494">
        <ele>1739.4</ele>
        <time>2021-04-17T12:17:53Z</time>
      </trkpt>
      <trkpt lat="45.21291" lon="5.98498">
        <ele>1738.8</ele>
        <time>2021-04-17T12:17:54Z</time>
      </trkpt>
      <trkpt lat="45.2129" lon="5.98503">
        <ele>1738</ele>
        <time>2021-04-17T12:17:55Z</time>
      </trkpt>
      <trkpt lat="45.21288" lon="5.98511">
        <ele>1736.4</ele>
        <time>2021-04-17T12:17:57Z</time>
      </trkpt>
      <trkpt lat="45.21288" lon="5.98514">
        <ele>1735.6</ele>
        <time>2021-04-17T12:17:58Z</time>
      </trkpt>
      <trkpt lat="45.21288" lon="5.98517">
        <ele>1735</ele>
        <time>2021-04-17T12:17:59Z</time>
      </trkpt>
      <trkpt lat="45.21286" lon="5.98528">
        <ele>1733.6</ele>
        <time>2021-04-17T12:18:02Z</time>
      </trkpt>
      <trkpt lat="45.21284" lon="5.98534">
        <ele>1732.2</ele>
        <time>2021-04-17T12:18:04Z</time>
      </trkpt>
      <trkpt lat="45.21284" lon="5.98537">
        <ele>1731.4</ele>
        <time>2021-04-17T12:18:05Z</time>
      </trkpt>
      <trkpt lat="45.21285" lon="5.98539">
        <ele>1730.8</ele>
        <time>2021-04-17T12:18:06Z</time>
      </trkpt>
      <trkpt lat="45.21288" lon="5.98538">
        <ele>1730</ele>
        <time>2021-04-17T12:18:07Z</time>
      </trkpt>
      <trkpt lat="45.21291" lon="5.98537">
        <ele>1728.8</ele>
        <time>2021-04-17T12:18:08Z</time>
      </trkpt>
      <trkpt lat="45.21295" lon="5.98534">
        <ele>1727.2</ele>
        <time>2021-04-17T12:18:09Z</time>
      </trkpt>
      <trkpt lat="45.21298" lon="5.98532">
        <ele>1725.8</ele>
        <time>2021-04-17T12:18:10Z</time>
      </trkpt>
      <trkpt lat="45.21302" lon="5.9853">
        <ele>1724.6</ele>
        <time>2021-04-17T12:18:11Z</time>
      </trkpt>
      <trkpt lat="45.21304" lon="5.98528">
        <ele>1723.6</ele>
        <time>2021-04-17T12:18:12Z</time>
      </trkpt>
      <trkpt lat="45.21306" lon="5.98525">
        <ele>1722.2</ele>
        <time>2021-04-17T12:18:13Z</time>
      </trkpt>
      <trkpt lat="45.21309" lon="5.98522">
        <ele>1721</ele>
        <time>2021-04-17T12:18:14Z</time>
      </trkpt>
      <trkpt lat="45.21314" lon="5.98515">
        <ele>1719</ele>
        <time>2021-04-17T12:18:16Z</time>
      </trkpt>
      <trkpt lat="45.21316" lon="5.98514">
        <ele>1718.2</ele>
        <time>2021-04-17T12:18:17Z</time>
      </trkpt>
      <trkpt lat="45.21318" lon="5.98514">
        <ele>1717.2</ele>
        <time>2021-04-17T12:18:18Z</time>
      </trkpt>
      <trkpt lat="45.2132" lon="5.98514">
        <ele>1716</ele>
        <time>2021-04-17T12:18:19Z</time>
      </trkpt>
      <trkpt lat="45.21322" lon="5.98515">
        <ele>1714.6</ele>
        <time>2021-04-17T12:18:20Z</time>
      </trkpt>
      <trkpt lat="45.21324" lon="5.98519">
        <ele>1713</ele>
        <time>2021-04-17T12:18:21Z</time>
      </trkpt>
      <trkpt lat="45.21325" lon="5.98524">
        <ele>1711.2</ele>
        <time>2021-04-17T12:18:22Z</time>
      </trkpt>
      <trkpt lat="45.21326" lon="5.98528">
        <ele>1709.2</ele>
        <time>2021-04-17T12:18:23Z</time>
      </trkpt>
      <trkpt lat="45.21325" lon="5.98533">
        <ele>1707.6</ele>
        <time>2021-04-17T12:18:24Z</time>
      </trkpt>
      <trkpt lat="45.21326" lon="5.98536">
        <ele>1706.6</ele>
        <time>2021-04-17T12:18:25Z</time>
      </trkpt>
      <trkpt lat="45.21327" lon="5.98539">
        <ele>1705.6</ele>
        <time>2021-04-17T12:18:26Z</time>
      </trkpt>
      <trkpt lat="45.21329" lon="5.9854">
        <ele>1704.6</ele>
        <time>2021-04-17T12:18:27Z</time>
      </trkpt>
      <trkpt lat="45.21331" lon="5.98538">
        <ele>1703.2</ele>
        <time>2021-04-17T12:18:28Z</time>
      </trkpt>
      <trkpt lat="45.21332" lon="5.98535">
        <ele>1702.2</ele>
        <time>2021-04-17T12:18:29Z</time>
      </trkpt>
      <trkpt lat="45.21334" lon="5.98532">
        <ele>1701.4</ele>
        <time>2021-04-17T12:18:30Z</time>
      </trkpt>
      <trkpt lat="45.21337" lon="5.98532">
        <ele>1700.8</ele>
        <time>2021-04-17T12:18:31Z</time>
      </trkpt>
      <trkpt lat="45.2134" lon="5.98535">
        <ele>1699.6</ele>
        <time>2021-04-17T12:18:33Z</time>
      </trkpt>
      <trkpt lat="45.21341" lon="5.98536">
        <ele>1698.6</ele>
        <time>2021-04-17T12:18:34Z</time>
      </trkpt>
      <trkpt lat="45.21341" lon="5.98535">
        <ele>1697.6</ele>
        <time>2021-04-17T12:18:35Z</time>
      </trkpt>
      <trkpt lat="45.21342" lon="5.98535">
        <ele>1696</ele>
        <time>2021-04-17T12:18:36Z</time>
      </trkpt>
      <trkpt lat="45.21344" lon="5.98536">
        <ele>1694.4</ele>
        <time>2021-04-17T12:18:37Z</time>
      </trkpt>
      <trkpt lat="45.21346" lon="5.98537">
        <ele>1693.2</ele>
        <time>2021-04-17T12:18:38Z</time>
      </trkpt>
      <trkpt lat="45.21347" lon="5.98539">
        <ele>1692.2</ele>
        <time>2021-04-17T12:18:39Z</time>
      </trkpt>
      <trkpt lat="45.21347" lon="5.98541">
        <ele>1691.2</ele>
        <time>2021-04-17T12:18:40Z</time>
      </trkpt>
      <trkpt lat="45.21346" lon="5.98543">
        <ele>1690.6</ele>
        <time>2021-04-17T12:18:41Z</time>
      </trkpt>
      <trkpt lat="45.21347" lon="5.98543">
        <ele>1689.6</ele>
        <time>2021-04-17T12:18:43Z</time>
      </trkpt>
      <trkpt lat="45.21347" lon="5.98542">
        <ele>1689.2</ele>
        <time>2021-04-17T12:18:44Z</time>
      </trkpt>
      <trkpt lat="45.21348" lon="5.98543">
        <ele>1689</ele>
        <time>2021-04-17T12:18:47Z</time>
      </trkpt>
      <trkpt lat="45.21347" lon="5.98543">
        <ele>1689</ele>
        <time>2021-04-17T12:18:49Z</time>
      </trkpt>
      <trkpt lat="45.21348" lon="5.98542">
        <ele>1688.8</ele>
        <time>2021-04-17T12:18:50Z</time>
      </trkpt>
      <trkpt lat="45.21349" lon="5.98541">
        <ele>1688.2</ele>
        <time>2021-04-17T12:18:51Z</time>
      </trkpt>
      <trkpt lat="45.21354" lon="5.98542">
        <ele>1686.4</ele>
        <time>2021-04-17T12:18:53Z</time>
      </trkpt>
      <trkpt lat="45.21356" lon="5.98543">
        <ele>1685</ele>
        <time>2021-04-17T12:18:55Z</time>
      </trkpt>
      <trkpt lat="45.21356" lon="5.98543">
        <ele>1684.2</ele>
        <time>2021-04-17T12:18:56Z</time>
      </trkpt>
      <trkpt lat="45.21356" lon="5.98544">
        <ele>1683.8</ele>
        <time>2021-04-17T12:18:57Z</time>
      </trkpt>
      <trkpt lat="45.21358" lon="5.98545">
        <ele>1682.8</ele>
        <time>2021-04-17T12:19:02Z</time>
      </trkpt>
      <trkpt lat="45.21358" lon="5.98545">
        <ele>1682.6</ele>
        <time>2021-04-17T12:19:03Z</time>
      </trkpt>
      <trkpt lat="45.2136" lon="5.98548">
        <ele>1681.6</ele>
        <time>2021-04-17T12:19:07Z</time>
      </trkpt>
      <trkpt lat="45.21359" lon="5.98551">
        <ele>1680.8</ele>
        <time>2021-04-17T12:19:09Z</time>
      </trkpt>
      <trkpt lat="45.21358" lon="5.98553">
        <ele>1680.6</ele>
        <time>2021-04-17T12:19:10Z</time>
      </trkpt>
      <trkpt lat="45.21358" lon="5.98555">
        <ele>1680.2</ele>
        <time>2021-04-17T12:19:11Z</time>
      </trkpt>
      <trkpt lat="45.2136" lon="5.98563">
        <ele>1678.8</ele>
        <time>2021-04-17T12:19:15Z</time>
      </trkpt>
      <trkpt lat="45.21363" lon="5.98563">
        <ele>1677.2</ele>
        <time>2021-04-17T12:19:17Z</time>
      </trkpt>
      <trkpt lat="45.21365" lon="5.98562">
        <ele>1676</ele>
        <time>2021-04-17T12:19:18Z</time>
      </trkpt>
      <trkpt lat="45.21368" lon="5.9856">
        <ele>1674.8</ele>
        <time>2021-04-17T12:19:19Z</time>
      </trkpt>
      <trkpt lat="45.21371" lon="5.98559">
        <ele>1673.6</ele>
        <time>2021-04-17T12:19:20Z</time>
      </trkpt>
      <trkpt lat="45.21373" lon="5.9856">
        <ele>1672</ele>
        <time>2021-04-17T12:19:22Z</time>
      </trkpt>
      <trkpt lat="45.21374" lon="5.9856">
        <ele>1670.4</ele>
        <time>2021-04-17T12:19:24Z</time>
      </trkpt>
      <trkpt lat="45.21376" lon="5.98559">
        <ele>1669.6</ele>
        <time>2021-04-17T12:19:30Z</time>
      </trkpt>
      <trkpt lat="45.21374" lon="5.9856">
        <ele>1669.6</ele>
        <time>2021-04-17T12:19:33Z</time>
      </trkpt>
      <trkpt lat="45.21373" lon="5.9856">
        <ele>1669.4</ele>
        <time>2021-04-17T12:19:36Z</time>
      </trkpt>
      <trkpt lat="45.21371" lon="5.98561">
        <ele>1669.4</ele>
        <time>2021-04-17T12:19:40Z</time>
      </trkpt>
      <trkpt lat="45.21371" lon="5.98561">
        <ele>1668.4</ele>
        <time>2021-04-17T12:19:45Z</time>
      </trkpt>
      <trkpt lat="45.21371" lon="5.98561">
        <ele>1667.4</ele>
        <time>2021-04-17T12:19:47Z</time>
      </trkpt>
      <trkpt lat="45.21371" lon="5.98561">
        <ele>1667</ele>
        <time>2021-04-17T12:19:48Z</time>
      </trkpt>
      <trkpt lat="45.21373" lon="5.98561">
        <ele>1665.4</ele>
        <time>2021-04-17T12:19:50Z</time>
      </trkpt>
      <trkpt lat="45.21374" lon="5.98561">
        <ele>1664.2</ele>
        <time>2021-04-17T12:19:52Z</time>
      </trkpt>
      <trkpt lat="45.21376" lon="5.98564">
        <ele>1663.2</ele>
        <time>2021-04-17T12:19:58Z</time>
      </trkpt>
      <trkpt lat="45.21377" lon="5.98566">
        <ele>1662.8</ele>
        <time>2021-04-17T12:19:59Z</time>
      </trkpt>
      <trkpt lat="45.21379" lon="5.98572">
        <ele>1661.8</ele>
        <time>2021-04-17T12:20:02Z</time>
      </trkpt>
      <trkpt lat="45.2138" lon="5.98573">
        <ele>1661.6</ele>
        <time>2021-04-17T12:20:03Z</time>
      </trkpt>
      <trkpt lat="45.21381" lon="5.98573">
        <ele>1661.4</ele>
        <time>2021-04-17T12:20:04Z</time>
      </trkpt>
      <trkpt lat="45.21382" lon="5.98572">
        <ele>1660.8</ele>
        <time>2021-04-17T12:20:05Z</time>
      </trkpt>
      <trkpt lat="45.21384" lon="5.98571">
        <ele>1660.2</ele>
        <time>2021-04-17T12:20:06Z</time>
      </trkpt>
      <trkpt lat="45.21386" lon="5.98568">
        <ele>1659.6</ele>
        <time>2021-04-17T12:20:07Z</time>
      </trkpt>
      <trkpt lat="45.21388" lon="5.98566">
        <ele>1658.8</ele>
        <time>2021-04-17T12:20:08Z</time>
      </trkpt>
      <trkpt lat="45.21389" lon="5.98565">
        <ele>1658.2</ele>
        <time>2021-04-17T12:20:09Z</time>
      </trkpt>
      <trkpt lat="45.21389" lon="5.98564">
        <ele>1657.4</ele>
        <time>2021-04-17T12:20:10Z</time>
      </trkpt>
      <trkpt lat="45.21391" lon="5.98564">
        <ele>1657</ele>
        <time>2021-04-17T12:20:11Z</time>
      </trkpt>
      <trkpt lat="45.21393" lon="5.98566">
        <ele>1656.6</ele>
        <time>2021-04-17T12:20:12Z</time>
      </trkpt>
      <trkpt lat="45.21395" lon="5.98568">
        <ele>1655.8</ele>
        <time>2021-04-17T12:20:13Z</time>
      </trkpt>
      <trkpt lat="45.21396" lon="5.98571">
        <ele>1654.6</ele>
        <time>2021-04-17T12:20:14Z</time>
      </trkpt>
      <trkpt lat="45.21396" lon="5.98574">
        <ele>1653.2</ele>
        <time>2021-04-17T12:20:15Z</time>
      </trkpt>
      <trkpt lat="45.21396" lon="5.98578">
        <ele>1651.8</ele>
        <time>2021-04-17T12:20:16Z</time>
      </trkpt>
      <trkpt lat="45.21397" lon="5.98581">
        <ele>1650.8</ele>
        <time>2021-04-17T12:20:17Z</time>
      </trkpt>
      <trkpt lat="45.214" lon="5.98583">
        <ele>1650.2</ele>
        <time>2021-04-17T12:20:18Z</time>
      </trkpt>
      <trkpt lat="45.21403" lon="5.98586">
        <ele>1649.4</ele>
        <time>2021-04-17T12:20:19Z</time>
      </trkpt>
      <trkpt lat="45.21406" lon="5.98588">
        <ele>1648</ele>
        <time>2021-04-17T12:20:20Z</time>
      </trkpt>
      <trkpt lat="45.2141" lon="5.9859">
        <ele>1646.2</ele>
        <time>2021-04-17T12:20:21Z</time>
      </trkpt>
      <trkpt lat="45.21414" lon="5.98591">
        <ele>1644.4</ele>
        <time>2021-04-17T12:20:22Z</time>
      </trkpt>
      <trkpt lat="45.21417" lon="5.98591">
        <ele>1642.2</ele>
        <time>2021-04-17T12:20:23Z</time>
      </trkpt>
      <trkpt lat="45.21418" lon="5.9859">
        <ele>1640</ele>
        <time>2021-04-17T12:20:24Z</time>
      </trkpt>
      <trkpt lat="45.2142" lon="5.98589">
        <ele>1638.2</ele>
        <time>2021-04-17T12:20:25Z</time>
      </trkpt>
      <trkpt lat="45.21422" lon="5.98587">
        <ele>1636.8</ele>
        <time>2021-04-17T12:20:26Z</time>
      </trkpt>
      <trkpt lat="45.21424" lon="5.98586">
        <ele>1635.6</ele>
        <time>2021-04-17T12:20:27Z</time>
      </trkpt>
      <trkpt lat="45.21424" lon="5.98585">
        <ele>1634.4</ele>
        <time>2021-04-17T12:20:28Z</time>
      </trkpt>
      <trkpt lat="45.21424" lon="5.98584">
        <ele>1632.8</ele>
        <time>2021-04-17T12:20:30Z</time>
      </trkpt>
      <trkpt lat="45.21428" lon="5.9858">
        <ele>1631.8</ele>
        <time>2021-04-17T12:20:33Z</time>
      </trkpt>
      <trkpt lat="45.21428" lon="5.98579">
        <ele>1631.2</ele>
        <time>2021-04-17T12:20:34Z</time>
      </trkpt>
      <trkpt lat="45.21429" lon="5.98579">
        <ele>1630.8</ele>
        <time>2021-04-17T12:20:35Z</time>
      </trkpt>
      <trkpt lat="45.21429" lon="5.98578">
        <ele>1630.6</ele>
        <time>2021-04-17T12:20:36Z</time>
      </trkpt>
      <trkpt lat="45.21432" lon="5.98579">
        <ele>1630.4</ele>
        <time>2021-04-17T12:20:38Z</time>
      </trkpt>
      <trkpt lat="45.21432" lon="5.98581">
        <ele>1630</ele>
        <time>2021-04-17T12:20:40Z</time>
      </trkpt>
      <trkpt lat="45.21432" lon="5.98583">
        <ele>1629.8</ele>
        <time>2021-04-17T12:20:41Z</time>
      </trkpt>
      <trkpt lat="45.21435" lon="5.9859">
        <ele>1629.4</ele>
        <time>2021-04-17T12:20:43Z</time>
      </trkpt>
      <trkpt lat="45.21436" lon="5.98598">
        <ele>1627.8</ele>
        <time>2021-04-17T12:20:45Z</time>
      </trkpt>
      <trkpt lat="45.21437" lon="5.986">
        <ele>1626.8</ele>
        <time>2021-04-17T12:20:46Z</time>
      </trkpt>
      <trkpt lat="45.21438" lon="5.98601">
        <ele>1625.6</ele>
        <time>2021-04-17T12:20:47Z</time>
      </trkpt>
      <trkpt lat="45.21439" lon="5.986">
        <ele>1624.4</ele>
        <time>2021-04-17T12:20:48Z</time>
      </trkpt>
      <trkpt lat="45.2144" lon="5.986">
        <ele>1623.4</ele>
        <time>2021-04-17T12:20:49Z</time>
      </trkpt>
      <trkpt lat="45.21442" lon="5.98601">
        <ele>1621.6</ele>
        <time>2021-04-17T12:20:51Z</time>
      </trkpt>
      <trkpt lat="45.21443" lon="5.98604">
        <ele>1620.6</ele>
        <time>2021-04-17T12:20:52Z</time>
      </trkpt>
      <trkpt lat="45.21444" lon="5.98606">
        <ele>1619.4</ele>
        <time>2021-04-17T12:20:53Z</time>
      </trkpt>
      <trkpt lat="45.21444" lon="5.98607">
        <ele>1618</ele>
        <time>2021-04-17T12:20:54Z</time>
      </trkpt>
      <trkpt lat="45.21445" lon="5.98607">
        <ele>1617.4</ele>
        <time>2021-04-17T12:20:55Z</time>
      </trkpt>
      <trkpt lat="45.21445" lon="5.98606">
        <ele>1616.4</ele>
        <time>2021-04-17T12:20:56Z</time>
      </trkpt>
      <trkpt lat="45.21445" lon="5.98606">
        <ele>1616</ele>
        <time>2021-04-17T12:20:57Z</time>
      </trkpt>
      <trkpt lat="45.21445" lon="5.98606">
        <ele>1615.6</ele>
        <time>2021-04-17T12:20:58Z</time>
      </trkpt>
      <trkpt lat="45.21445" lon="5.98606">
        <ele>1615.4</ele>
        <time>2021-04-17T12:21:00Z</time>
      </trkpt>
      <trkpt lat="45.21444" lon="5.98606">
        <ele>1615.4</ele>
        <time>2021-04-17T12:21:04Z</time>
      </trkpt>
      <trkpt lat="45.21444" lon="5.98606">
        <ele>1615.4</ele>
        <time>2021-04-17T12:21:05Z</time>
      </trkpt>
      <trkpt lat="45.21444" lon="5.98605">
        <ele>1615.4</ele>
        <time>2021-04-17T12:21:11Z</time>
      </trkpt>
      <trkpt lat="45.21445" lon="5.98604">
        <ele>1615.4</ele>
        <time>2021-04-17T12:21:12Z</time>
      </trkpt>
      <trkpt lat="45.21446" lon="5.98604">
        <ele>1615.4</ele>
        <time>2021-04-17T12:21:16Z</time>
      </trkpt>
      <trkpt lat="45.21447" lon="5.98604">
        <ele>1615.4</ele>
        <time>2021-04-17T12:21:19Z</time>
      </trkpt>
      <trkpt lat="45.21448" lon="5.98605">
        <ele>1615.4</ele>
        <time>2021-04-17T12:21:22Z</time>
      </trkpt>
      <trkpt lat="45.21448" lon="5.98605">
        <ele>1615.4</ele>
        <time>2021-04-17T12:21:24Z</time>
      </trkpt>
      <trkpt lat="45.21448" lon="5.98607">
        <ele>1615.2</ele>
        <time>2021-04-17T12:21:27Z</time>
      </trkpt>
      <trkpt lat="45.21447" lon="5.98608">
        <ele>1615.2</ele>
        <time>2021-04-17T12:21:29Z</time>
      </trkpt>
      <trkpt lat="45.21447" lon="5.98609">
        <ele>1615.2</ele>
        <time>2021-04-17T12:21:30Z</time>
      </trkpt>
      <trkpt lat="45.21447" lon="5.98609">
        <ele>1615.2</ele>
        <time>2021-04-17T12:21:31Z</time>
      </trkpt>
      <trkpt lat="45.21447" lon="5.98609">
        <ele>1615.2</ele>
        <time>2021-04-17T12:21:32Z</time>
      </trkpt>
      <trkpt lat="45.21446" lon="5.98609">
        <ele>1615.2</ele>
        <time>2021-04-17T12:21:38Z</time>
      </trkpt>
      <trkpt lat="45.21446" lon="5.98609">
        <ele>1615.2</ele>
        <time>2021-04-17T12:21:42Z</time>
      </trkpt>
      <trkpt lat="45.21447" lon="5.98608">
        <ele>1615.2</ele>
        <time>2021-04-17T12:21:48Z</time>
      </trkpt>
      <trkpt lat="45.21447" lon="5.98608">
        <ele>1615.2</ele>
        <time>2021-04-17T12:21:51Z</time>
      </trkpt>
      <trkpt lat="45.21447" lon="5.98608">
        <ele>1615.2</ele>
        <time>2021-04-17T12:21:54Z</time>
      </trkpt>
      <trkpt lat="45.21447" lon="5.98608">
        <ele>1615.2</ele>
        <time>2021-04-17T12:21:57Z</time>
      </trkpt>
      <trkpt lat="45.21447" lon="5.98608">
        <ele>1615.2</ele>
        <time>2021-04-17T12:22:00Z</time>
      </trkpt>
      <trkpt lat="45.21447" lon="5.98608">
        <ele>1615.2</ele>
        <time>2021-04-17T12:22:01Z</time>
      </trkpt>
      <trkpt lat="45.21447" lon="5.98608">
        <ele>1615.4</ele>
        <time>2021-04-17T12:22:02Z</time>
      </trkpt>
      <trkpt lat="45.21448" lon="5.98608">
        <ele>1615.4</ele>
        <time>2021-04-17T12:22:04Z</time>
      </trkpt>
      <trkpt lat="45.21448" lon="5.98608">
        <ele>1615.4</ele>
        <time>2021-04-17T12:22:06Z</time>
      </trkpt>
      <trkpt lat="45.21448" lon="5.98608">
        <ele>1615.4</ele>
        <time>2021-04-17T12:22:07Z</time>
      </trkpt>
      <trkpt lat="45.21448" lon="5.98609">
        <ele>1615.4</ele>
        <time>2021-04-17T12:22:10Z</time>
      </trkpt>
      <trkpt lat="45.21448" lon="5.98609">
        <ele>1615.4</ele>
        <time>2021-04-17T12:22:11Z</time>
      </trkpt>
      <trkpt lat="45.21448" lon="5.98609">
        <ele>1615.4</ele>
        <time>2021-04-17T12:22:12Z</time>
      </trkpt>
      <trkpt lat="45.21448" lon="5.9861">
        <ele>1615.4</ele>
        <time>2021-04-17T12:22:17Z</time>
      </trkpt>
      <trkpt lat="45.21448" lon="5.9861">
        <ele>1615.4</ele>
        <time>2021-04-17T12:22:19Z</time>
      </trkpt>
      <trkpt lat="45.21448" lon="5.98611">
        <ele>1615.4</ele>
        <time>2021-04-17T12:22:24Z</time>
      </trkpt>
      <trkpt lat="45.21448" lon="5.98611">
        <ele>1615.4</ele>
        <time>2021-04-17T12:22:30Z</time>
      </trkpt>
      <trkpt lat="45.21448" lon="5.98611">
        <ele>1615.4</ele>
        <time>2021-04-17T12:22:31Z</time>
      </trkpt>
      <trkpt lat="45.21448" lon="5.98611">
        <ele>1615.4</ele>
        <time>2021-04-17T12:22:32Z</time>
      </trkpt>
      <trkpt lat="45.21448" lon="5.98611">
        <ele>1615.4</ele>
        <time>2021-04-17T12:22:35Z</time>
      </trkpt>
      <trkpt lat="45.21448" lon="5.98611">
        <ele>1615.4</ele>
        <time>2021-04-17T12:22:36Z</time>
      </trkpt>
      <trkpt lat="45.21447" lon="5.98611">
        <ele>1615.4</ele>
        <time>2021-04-17T12:22:38Z</time>
      </trkpt>
      <trkpt lat="45.21447" lon="5.98611">
        <ele>1615.4</ele>
        <time>2021-04-17T12:22:40Z</time>
      </trkpt>
      <trkpt lat="45.21447" lon="5.98611">
        <ele>1615.4</ele>
        <time>2021-04-17T12:22:46Z</time>
      </trkpt>
      <trkpt lat="45.21447" lon="5.98611">
        <ele>1615.4</ele>
        <time>2021-04-17T12:22:52Z</time>
      </trkpt>
      <trkpt lat="45.21448" lon="5.98611">
        <ele>1615.4</ele>
        <time>2021-04-17T12:22:58Z</time>
      </trkpt>
      <trkpt lat="45.21448" lon="5.98611">
        <ele>1615.4</ele>
        <time>2021-04-17T12:23:00Z</time>
      </trkpt>
      <trkpt lat="45.21448" lon="5.98611">
        <ele>1615.4</ele>
        <time>2021-04-17T12:23:01Z</time>
      </trkpt>
      <trkpt lat="45.21449" lon="5.98612">
        <ele>1615.4</ele>
        <time>2021-04-17T12:23:03Z</time>
      </trkpt>
      <trkpt lat="45.21449" lon="5.98612">
        <ele>1615.4</ele>
        <time>2021-04-17T12:23:05Z</time>
      </trkpt>
      <trkpt lat="45.21449" lon="5.98612">
        <ele>1615.4</ele>
        <time>2021-04-17T12:23:06Z</time>
      </trkpt>
      <trkpt lat="45.21449" lon="5.98614">
        <ele>1615.4</ele>
        <time>2021-04-17T12:23:12Z</time>
      </trkpt>
      <trkpt lat="45.21449" lon="5.98615">
        <ele>1615.4</ele>
        <time>2021-04-17T12:23:13Z</time>
      </trkpt>
      <trkpt lat="45.21449" lon="5.98615">
        <ele>1615.4</ele>
        <time>2021-04-17T12:23:14Z</time>
      </trkpt>
      <trkpt lat="45.21449" lon="5.98616">
        <ele>1615.4</ele>
        <time>2021-04-17T12:23:15Z</time>
      </trkpt>
      <trkpt lat="45.2145" lon="5.98616">
        <ele>1615.4</ele>
        <time>2021-04-17T12:23:17Z</time>
      </trkpt>
      <trkpt lat="45.2145" lon="5.98616">
        <ele>1615.4</ele>
        <time>2021-04-17T12:23:18Z</time>
      </trkpt>
      <trkpt lat="45.2145" lon="5.98616">
        <ele>1615.4</ele>
        <time>2021-04-17T12:23:19Z</time>
      </trkpt>
      <trkpt lat="45.2145" lon="5.98616">
        <ele>1615.4</ele>
        <time>2021-04-17T12:23:20Z</time>
      </trkpt>
      <trkpt lat="45.2145" lon="5.98617">
        <ele>1615.4</ele>
        <time>2021-04-17T12:23:23Z</time>
      </trkpt>
      <trkpt lat="45.2145" lon="5.98617">
        <ele>1615.4</ele>
        <time>2021-04-17T12:23:24Z</time>
      </trkpt>
      <trkpt lat="45.2145" lon="5.98617">
        <ele>1615.4</ele>
        <time>2021-04-17T12:23:26Z</time>
      </trkpt>
      <trkpt lat="45.2145" lon="5.98617">
        <ele>1615.4</ele>
        <time>2021-04-17T12:23:27Z</time>
      </trkpt>
      <trkpt lat="45.2145" lon="5.98617">
        <ele>1615.4</ele>
        <time>2021-04-17T12:23:28Z</time>
      </trkpt>
      <trkpt lat="45.2145" lon="5.98617">
        <ele>1615.4</ele>
        <time>2021-04-17T12:23:30Z</time>
      </trkpt>
      <trkpt lat="45.2145" lon="5.98617">
        <ele>1615.4</ele>
        <time>2021-04-17T12:23:31Z</time>
      </trkpt>
      <trkpt lat="45.21449" lon="5.98617">
        <ele>1615.4</ele>
        <time>2021-04-17T12:23:33Z</time>
      </trkpt>
      <trkpt lat="45.2145" lon="5.98617">
        <ele>1615.4</ele>
        <time>2021-04-17T12:23:34Z</time>
      </trkpt>
      <trkpt lat="45.21449" lon="5.98615">
        <ele>1615.4</ele>
        <time>2021-04-17T12:23:36Z</time>
      </trkpt>
      <trkpt lat="45.2145" lon="5.98616">
        <ele>1615.4</ele>
        <time>2021-04-17T12:23:37Z</time>
      </trkpt>
      <trkpt lat="45.21449" lon="5.98616">
        <ele>1615.4</ele>
        <time>2021-04-17T12:23:40Z</time>
      </trkpt>
      <trkpt lat="45.2145" lon="5.98619">
        <ele>1615.4</ele>
        <time>2021-04-17T12:23:42Z</time>
      </trkpt>
      <trkpt lat="45.21451" lon="5.9862">
        <ele>1615.4</ele>
        <time>2021-04-17T12:23:46Z</time>
      </trkpt>
      <trkpt lat="45.21451" lon="5.98617">
        <ele>1615.4</ele>
        <time>2021-04-17T12:23:52Z</time>
      </trkpt>
      <trkpt lat="45.21452" lon="5.98617">
        <ele>1615.4</ele>
        <time>2021-04-17T12:23:54Z</time>
      </trkpt>
      <trkpt lat="45.21453" lon="5.98615">
        <ele>1615.4</ele>
        <time>2021-04-17T12:23:56Z</time>
      </trkpt>
      <trkpt lat="45.21457" lon="5.9861">
        <ele>1615.4</ele>
        <time>2021-04-17T12:23:58Z</time>
      </trkpt>
      <trkpt lat="45.21462" lon="5.98604">
        <ele>1615.4</ele>
        <time>2021-04-17T12:24:02Z</time>
      </trkpt>
      <trkpt lat="45.21462" lon="5.98603">
        <ele>1615.4</ele>
        <time>2021-04-17T12:24:04Z</time>
      </trkpt>
      <trkpt lat="45.2146" lon="5.98601">
        <ele>1615.4</ele>
        <time>2021-04-17T12:24:07Z</time>
      </trkpt>
      <trkpt lat="45.2146" lon="5.98599">
        <ele>1615.4</ele>
        <time>2021-04-17T12:24:09Z</time>
      </trkpt>
      <trkpt lat="45.21463" lon="5.98594">
        <ele>1615</ele>
        <time>2021-04-17T12:24:12Z</time>
      </trkpt>
      <trkpt lat="45.21469" lon="5.98589">
        <ele>1614.4</ele>
        <time>2021-04-17T12:24:14Z</time>
      </trkpt>
      <trkpt lat="45.21473" lon="5.98584">
        <ele>1613.2</ele>
        <time>2021-04-17T12:24:16Z</time>
      </trkpt>
      <trkpt lat="45.21475" lon="5.98582">
        <ele>1612.2</ele>
        <time>2021-04-17T12:24:18Z</time>
      </trkpt>
      <trkpt lat="45.21478" lon="5.98581">
        <ele>1611.6</ele>
        <time>2021-04-17T12:24:20Z</time>
      </trkpt>
      <trkpt lat="45.2148" lon="5.98581">
        <ele>1611.6</ele>
        <time>2021-04-17T12:24:21Z</time>
      </trkpt>
      <trkpt lat="45.21483" lon="5.98583">
        <ele>1611.2</ele>
        <time>2021-04-17T12:24:23Z</time>
      </trkpt>
      <trkpt lat="45.21485" lon="5.98586">
        <ele>1610.8</ele>
        <time>2021-04-17T12:24:24Z</time>
      </trkpt>
      <trkpt lat="45.21484" lon="5.9859">
        <ele>1610.2</ele>
        <time>2021-04-17T12:24:25Z</time>
      </trkpt>
      <trkpt lat="45.21483" lon="5.98594">
        <ele>1609.6</ele>
        <time>2021-04-17T12:24:26Z</time>
      </trkpt>
      <trkpt lat="45.21485" lon="5.98599">
        <ele>1608</ele>
        <time>2021-04-17T12:24:28Z</time>
      </trkpt>
      <trkpt lat="45.2149" lon="5.98604">
        <ele>1606.2</ele>
        <time>2021-04-17T12:24:30Z</time>
      </trkpt>
      <trkpt lat="45.2149" lon="5.98607">
        <ele>1605.2</ele>
        <time>2021-04-17T12:24:31Z</time>
      </trkpt>
      <trkpt lat="45.21488" lon="5.9861">
        <ele>1604</ele>
        <time>2021-04-17T12:24:32Z</time>
      </trkpt>
      <trkpt lat="45.21488" lon="5.98611">
        <ele>1602.8</ele>
        <time>2021-04-17T12:24:33Z</time>
      </trkpt>
      <trkpt lat="45.21487" lon="5.98611">
        <ele>1601.8</ele>
        <time>2021-04-17T12:24:34Z</time>
      </trkpt>
      <trkpt lat="45.21488" lon="5.98611">
        <ele>1601.2</ele>
        <time>2021-04-17T12:24:35Z</time>
      </trkpt>
      <trkpt lat="45.21488" lon="5.98612">
        <ele>1600.8</ele>
        <time>2021-04-17T12:24:36Z</time>
      </trkpt>
      <trkpt lat="45.21491" lon="5.98611">
        <ele>1600.4</ele>
        <time>2021-04-17T12:24:38Z</time>
      </trkpt>
      <trkpt lat="45.21494" lon="5.9861">
        <ele>1600</ele>
        <time>2021-04-17T12:24:39Z</time>
      </trkpt>
      <trkpt lat="45.21496" lon="5.98614">
        <ele>1599.4</ele>
        <time>2021-04-17T12:24:41Z</time>
      </trkpt>
      <trkpt lat="45.21496" lon="5.98617">
        <ele>1599</ele>
        <time>2021-04-17T12:24:42Z</time>
      </trkpt>
      <trkpt lat="45.21498" lon="5.98619">
        <ele>1598.4</ele>
        <time>2021-04-17T12:24:43Z</time>
      </trkpt>
      <trkpt lat="45.215" lon="5.98623">
        <ele>1597.6</ele>
        <time>2021-04-17T12:24:44Z</time>
      </trkpt>
      <trkpt lat="45.215" lon="5.98628">
        <ele>1596.8</ele>
        <time>2021-04-17T12:24:45Z</time>
      </trkpt>
      <trkpt lat="45.21501" lon="5.98632">
        <ele>1595.4</ele>
        <time>2021-04-17T12:24:46Z</time>
      </trkpt>
      <trkpt lat="45.21503" lon="5.98635">
        <ele>1593.8</ele>
        <time>2021-04-17T12:24:47Z</time>
      </trkpt>
      <trkpt lat="45.21505" lon="5.98638">
        <ele>1592</ele>
        <time>2021-04-17T12:24:48Z</time>
      </trkpt>
      <trkpt lat="45.21507" lon="5.98641">
        <ele>1590.6</ele>
        <time>2021-04-17T12:24:49Z</time>
      </trkpt>
      <trkpt lat="45.2151" lon="5.98644">
        <ele>1589.4</ele>
        <time>2021-04-17T12:24:50Z</time>
      </trkpt>
      <trkpt lat="45.21511" lon="5.98648">
        <ele>1588.2</ele>
        <time>2021-04-17T12:24:51Z</time>
      </trkpt>
      <trkpt lat="45.21512" lon="5.98652">
        <ele>1587</ele>
        <time>2021-04-17T12:24:52Z</time>
      </trkpt>
      <trkpt lat="45.21514" lon="5.98654">
        <ele>1585.6</ele>
        <time>2021-04-17T12:24:53Z</time>
      </trkpt>
      <trkpt lat="45.21517" lon="5.98658">
        <ele>1584.4</ele>
        <time>2021-04-17T12:24:54Z</time>
      </trkpt>
      <trkpt lat="45.21517" lon="5.98663">
        <ele>1583.4</ele>
        <time>2021-04-17T12:24:55Z</time>
      </trkpt>
      <trkpt lat="45.21518" lon="5.98667">
        <ele>1582</ele>
        <time>2021-04-17T12:24:56Z</time>
      </trkpt>
      <trkpt lat="45.2152" lon="5.98671">
        <ele>1580.4</ele>
        <time>2021-04-17T12:24:57Z</time>
      </trkpt>
      <trkpt lat="45.21522" lon="5.98673">
        <ele>1578.8</ele>
        <time>2021-04-17T12:24:58Z</time>
      </trkpt>
      <trkpt lat="45.21524" lon="5.98676">
        <ele>1577.4</ele>
        <time>2021-04-17T12:24:59Z</time>
      </trkpt>
      <trkpt lat="45.21525" lon="5.9868">
        <ele>1576.2</ele>
        <time>2021-04-17T12:25:00Z</time>
      </trkpt>
      <trkpt lat="45.21527" lon="5.98683">
        <ele>1574.8</ele>
        <time>2021-04-17T12:25:01Z</time>
      </trkpt>
      <trkpt lat="45.21527" lon="5.98685">
        <ele>1573.4</ele>
        <time>2021-04-17T12:25:02Z</time>
      </trkpt>
      <trkpt lat="45.21527" lon="5.98685">
        <ele>1572.4</ele>
        <time>2021-04-17T12:25:03Z</time>
      </trkpt>
      <trkpt lat="45.21527" lon="5.98685">
        <ele>1571.4</ele>
        <time>2021-04-17T12:25:04Z</time>
      </trkpt>
      <trkpt lat="45.21527" lon="5.98686">
        <ele>1571</ele>
        <time>2021-04-17T12:25:05Z</time>
      </trkpt>
      <trkpt lat="45.21526" lon="5.98686">
        <ele>1570.8</ele>
        <time>2021-04-17T12:25:06Z</time>
      </trkpt>
      <trkpt lat="45.21522" lon="5.98687">
        <ele>1570.4</ele>
        <time>2021-04-17T12:25:10Z</time>
      </trkpt>
      <trkpt lat="45.21523" lon="5.98692">
        <ele>1570.2</ele>
        <time>2021-04-17T12:25:13Z</time>
      </trkpt>
      <trkpt lat="45.21525" lon="5.98695">
        <ele>1569.8</ele>
        <time>2021-04-17T12:25:14Z</time>
      </trkpt>
      <trkpt lat="45.21532" lon="5.98701">
        <ele>1567.6</ele>
        <time>2021-04-17T12:25:16Z</time>
      </trkpt>
      <trkpt lat="45.21535" lon="5.98703">
        <ele>1566.6</ele>
        <time>2021-04-17T12:25:17Z</time>
      </trkpt>
      <trkpt lat="45.21537" lon="5.98705">
        <ele>1565.6</ele>
        <time>2021-04-17T12:25:18Z</time>
      </trkpt>
      <trkpt lat="45.2154" lon="5.98708">
        <ele>1564.4</ele>
        <time>2021-04-17T12:25:19Z</time>
      </trkpt>
      <trkpt lat="45.21542" lon="5.98711">
        <ele>1563</ele>
        <time>2021-04-17T12:25:20Z</time>
      </trkpt>
      <trkpt lat="45.21545" lon="5.98714">
        <ele>1561.4</ele>
        <time>2021-04-17T12:25:21Z</time>
      </trkpt>
      <trkpt lat="45.21548" lon="5.98715">
        <ele>1560</ele>
        <time>2021-04-17T12:25:22Z</time>
      </trkpt>
      <trkpt lat="45.21551" lon="5.98717">
        <ele>1558.4</ele>
        <time>2021-04-17T12:25:23Z</time>
      </trkpt>
      <trkpt lat="45.21553" lon="5.9872">
        <ele>1557</ele>
        <time>2021-04-17T12:25:24Z</time>
      </trkpt>
      <trkpt lat="45.21553" lon="5.98724">
        <ele>1555.6</ele>
        <time>2021-04-17T12:25:25Z</time>
      </trkpt>
      <trkpt lat="45.21555" lon="5.98727">
        <ele>1554.2</ele>
        <time>2021-04-17T12:25:26Z</time>
      </trkpt>
      <trkpt lat="45.21558" lon="5.98735">
        <ele>1552.4</ele>
        <time>2021-04-17T12:25:28Z</time>
      </trkpt>
      <trkpt lat="45.21558" lon="5.9874">
        <ele>1551.2</ele>
        <time>2021-04-17T12:25:29Z</time>
      </trkpt>
      <trkpt lat="45.2156" lon="5.98744">
        <ele>1550.2</ele>
        <time>2021-04-17T12:25:30Z</time>
      </trkpt>
      <trkpt lat="45.21563" lon="5.98748">
        <ele>1549</ele>
        <time>2021-04-17T12:25:31Z</time>
      </trkpt>
      <trkpt lat="45.21565" lon="5.98753">
        <ele>1546</ele>
        <time>2021-04-17T12:25:32Z</time>
      </trkpt>
      <trkpt lat="45.21568" lon="5.98761">
        <ele>1544.8</ele>
        <time>2021-04-17T12:25:34Z</time>
      </trkpt>
      <trkpt lat="45.21571" lon="5.98764">
        <ele>1543.6</ele>
        <time>2021-04-17T12:25:35Z</time>
      </trkpt>
      <trkpt lat="45.21573" lon="5.9877">
        <ele>1542.6</ele>
        <time>2021-04-17T12:25:36Z</time>
      </trkpt>
      <trkpt lat="45.21572" lon="5.98775">
        <ele>1541.4</ele>
        <time>2021-04-17T12:25:37Z</time>
      </trkpt>
      <trkpt lat="45.21574" lon="5.9878">
        <ele>1540.4</ele>
        <time>2021-04-17T12:25:38Z</time>
      </trkpt>
      <trkpt lat="45.21576" lon="5.98783">
        <ele>1539.4</ele>
        <time>2021-04-17T12:25:39Z</time>
      </trkpt>
      <trkpt lat="45.21579" lon="5.98786">
        <ele>1538.6</ele>
        <time>2021-04-17T12:25:40Z</time>
      </trkpt>
      <trkpt lat="45.21583" lon="5.9879">
        <ele>1537.4</ele>
        <time>2021-04-17T12:25:41Z</time>
      </trkpt>
      <trkpt lat="45.21587" lon="5.98796">
        <ele>1536</ele>
        <time>2021-04-17T12:25:42Z</time>
      </trkpt>
      <trkpt lat="45.2159" lon="5.98803">
        <ele>1534.4</ele>
        <time>2021-04-17T12:25:43Z</time>
      </trkpt>
      <trkpt lat="45.21593" lon="5.98808">
        <ele>1532.8</ele>
        <time>2021-04-17T12:25:44Z</time>
      </trkpt>
      <trkpt lat="45.21597" lon="5.98814">
        <ele>1531.2</ele>
        <time>2021-04-17T12:25:45Z</time>
      </trkpt>
      <trkpt lat="45.21601" lon="5.98819">
        <ele>1529.8</ele>
        <time>2021-04-17T12:25:46Z</time>
      </trkpt>
      <trkpt lat="45.21604" lon="5.98825">
        <ele>1528.8</ele>
        <time>2021-04-17T12:25:47Z</time>
      </trkpt>
      <trkpt lat="45.21606" lon="5.98831">
        <ele>1528</ele>
        <time>2021-04-17T12:25:48Z</time>
      </trkpt>
      <trkpt lat="45.21609" lon="5.98838">
        <ele>1526.8</ele>
        <time>2021-04-17T12:25:49Z</time>
      </trkpt>
      <trkpt lat="45.21612" lon="5.98845">
        <ele>1525.6</ele>
        <time>2021-04-17T12:25:50Z</time>
      </trkpt>
      <trkpt lat="45.21614" lon="5.98851">
        <ele>1523.8</ele>
        <time>2021-04-17T12:25:51Z</time>
      </trkpt>
      <trkpt lat="45.21616" lon="5.98857">
        <ele>1522.2</ele>
        <time>2021-04-17T12:25:52Z</time>
      </trkpt>
      <trkpt lat="45.21618" lon="5.98864">
        <ele>1521</ele>
        <time>2021-04-17T12:25:53Z</time>
      </trkpt>
      <trkpt lat="45.2162" lon="5.9887">
        <ele>1519.8</ele>
        <time>2021-04-17T12:25:54Z</time>
      </trkpt>
      <trkpt lat="45.21622" lon="5.98874">
        <ele>1519</ele>
        <time>2021-04-17T12:25:55Z</time>
      </trkpt>
      <trkpt lat="45.21625" lon="5.98878">
        <ele>1518.4</ele>
        <time>2021-04-17T12:25:56Z</time>
      </trkpt>
      <trkpt lat="45.21629" lon="5.98883">
        <ele>1517.6</ele>
        <time>2021-04-17T12:25:57Z</time>
      </trkpt>
      <trkpt lat="45.21631" lon="5.98889">
        <ele>1516.4</ele>
        <time>2021-04-17T12:25:58Z</time>
      </trkpt>
      <trkpt lat="45.21633" lon="5.98896">
        <ele>1514.8</ele>
        <time>2021-04-17T12:25:59Z</time>
      </trkpt>
      <trkpt lat="45.21635" lon="5.98901">
        <ele>1513.8</ele>
        <time>2021-04-17T12:26:00Z</time>
      </trkpt>
      <trkpt lat="45.21639" lon="5.98905">
        <ele>1513</ele>
        <time>2021-04-17T12:26:01Z</time>
      </trkpt>
      <trkpt lat="45.21643" lon="5.98909">
        <ele>1512</ele>
        <time>2021-04-17T12:26:02Z</time>
      </trkpt>
      <trkpt lat="45.21647" lon="5.98913">
        <ele>1510.8</ele>
        <time>2021-04-17T12:26:03Z</time>
      </trkpt>
      <trkpt lat="45.21657" lon="5.98919">
        <ele>1509.2</ele>
        <time>2021-04-17T12:26:05Z</time>
      </trkpt>
      <trkpt lat="45.21662" lon="5.98922">
        <ele>1508.2</ele>
        <time>2021-04-17T12:26:06Z</time>
      </trkpt>
      <trkpt lat="45.21665" lon="5.98924">
        <ele>1507.2</ele>
        <time>2021-04-17T12:26:07Z</time>
      </trkpt>
      <trkpt lat="45.21672" lon="5.98929">
        <ele>1505.4</ele>
        <time>2021-04-17T12:26:09Z</time>
      </trkpt>
      <trkpt lat="45.21675" lon="5.98932">
        <ele>1504.6</ele>
        <time>2021-04-17T12:26:10Z</time>
      </trkpt>
      <trkpt lat="45.21679" lon="5.98936">
        <ele>1503.4</ele>
        <time>2021-04-17T12:26:11Z</time>
      </trkpt>
      <trkpt lat="45.21683" lon="5.98941">
        <ele>1502.2</ele>
        <time>2021-04-17T12:26:12Z</time>
      </trkpt>
      <trkpt lat="45.21687" lon="5.98945">
        <ele>1501</ele>
        <time>2021-04-17T12:26:13Z</time>
      </trkpt>
      <trkpt lat="45.2169" lon="5.98954">
        <ele>1499.4</ele>
        <time>2021-04-17T12:26:15Z</time>
      </trkpt>
      <trkpt lat="45.21695" lon="5.98965">
        <ele>1497.6</ele>
        <time>2021-04-17T12:26:17Z</time>
      </trkpt>
      <trkpt lat="45.21696" lon="5.98969">
        <ele>1496.6</ele>
        <time>2021-04-17T12:26:18Z</time>
      </trkpt>
      <trkpt lat="45.21699" lon="5.98977">
        <ele>1495</ele>
        <time>2021-04-17T12:26:20Z</time>
      </trkpt>
      <trkpt lat="45.21703" lon="5.98981">
        <ele>1493.8</ele>
        <time>2021-04-17T12:26:22Z</time>
      </trkpt>
      <trkpt lat="45.21704" lon="5.98983">
        <ele>1493.2</ele>
        <time>2021-04-17T12:26:23Z</time>
      </trkpt>
      <trkpt lat="45.21704" lon="5.98985">
        <ele>1492.8</ele>
        <time>2021-04-17T12:26:24Z</time>
      </trkpt>
      <trkpt lat="45.21705" lon="5.98993">
        <ele>1492</ele>
        <time>2021-04-17T12:26:26Z</time>
      </trkpt>
      <trkpt lat="45.21708" lon="5.98997">
        <ele>1491.6</ele>
        <time>2021-04-17T12:26:27Z</time>
      </trkpt>
      <trkpt lat="45.21717" lon="5.99003">
        <ele>1489.8</ele>
        <time>2021-04-17T12:26:29Z</time>
      </trkpt>
      <trkpt lat="45.21723" lon="5.99008">
        <ele>1488.4</ele>
        <time>2021-04-17T12:26:31Z</time>
      </trkpt>
      <trkpt lat="45.21727" lon="5.99016">
        <ele>1487.6</ele>
        <time>2021-04-17T12:26:34Z</time>
      </trkpt>
      <trkpt lat="45.2173" lon="5.99024">
        <ele>1487.2</ele>
        <time>2021-04-17T12:26:36Z</time>
      </trkpt>
      <trkpt lat="45.21733" lon="5.99028">
        <ele>1486.4</ele>
        <time>2021-04-17T12:26:37Z</time>
      </trkpt>
      <trkpt lat="45.21736" lon="5.99031">
        <ele>1485.4</ele>
        <time>2021-04-17T12:26:38Z</time>
      </trkpt>
      <trkpt lat="45.21744" lon="5.9904">
        <ele>1484</ele>
        <time>2021-04-17T12:26:40Z</time>
      </trkpt>
      <trkpt lat="45.2175" lon="5.99052">
        <ele>1482.6</ele>
        <time>2021-04-17T12:26:42Z</time>
      </trkpt>
      <trkpt lat="45.21752" lon="5.99058">
        <ele>1481.4</ele>
        <time>2021-04-17T12:26:44Z</time>
      </trkpt>
      <trkpt lat="45.21754" lon="5.99059">
        <ele>1481</ele>
        <time>2021-04-17T12:26:45Z</time>
      </trkpt>
      <trkpt lat="45.21757" lon="5.99058">
        <ele>1480.4</ele>
        <time>2021-04-17T12:26:46Z</time>
      </trkpt>
      <trkpt lat="45.21758" lon="5.99057">
        <ele>1479.8</ele>
        <time>2021-04-17T12:26:48Z</time>
      </trkpt>
      <trkpt lat="45.21758" lon="5.99056">
        <ele>1479.8</ele>
        <time>2021-04-17T12:26:49Z</time>
      </trkpt>
      <trkpt lat="45.21763" lon="5.99056">
        <ele>1479.8</ele>
        <time>2021-04-17T12:26:54Z</time>
      </trkpt>
      <trkpt lat="45.21765" lon="5.99058">
        <ele>1479.8</ele>
        <time>2021-04-17T12:26:56Z</time>
      </trkpt>
      <trkpt lat="45.21768" lon="5.9906">
        <ele>1479.8</ele>
        <time>2021-04-17T12:26:57Z</time>
      </trkpt>
      <trkpt lat="45.21777" lon="5.99069">
        <ele>1479.2</ele>
        <time>2021-04-17T12:27:01Z</time>
      </trkpt>
      <trkpt lat="45.21779" lon="5.99073">
        <ele>1478.8</ele>
        <time>2021-04-17T12:27:02Z</time>
      </trkpt>
      <trkpt lat="45.21781" lon="5.99078">
        <ele>1478.4</ele>
        <time>2021-04-17T12:27:03Z</time>
      </trkpt>
      <trkpt lat="45.21784" lon="5.99082">
        <ele>1477.8</ele>
        <time>2021-04-17T12:27:04Z</time>
      </trkpt>
      <trkpt lat="45.21787" lon="5.99085">
        <ele>1477.4</ele>
        <time>2021-04-17T12:27:05Z</time>
      </trkpt>
      <trkpt lat="45.2179" lon="5.99092">
        <ele>1476.6</ele>
        <time>2021-04-17T12:27:07Z</time>
      </trkpt>
      <trkpt lat="45.2179" lon="5.99096">
        <ele>1476.2</ele>
        <time>2021-04-17T12:27:08Z</time>
      </trkpt>
      <trkpt lat="45.21789" lon="5.99098">
        <ele>1475.6</ele>
        <time>2021-04-17T12:27:09Z</time>
      </trkpt>
      <trkpt lat="45.21788" lon="5.991">
        <ele>1475.4</ele>
        <time>2021-04-17T12:27:10Z</time>
      </trkpt>
      <trkpt lat="45.21787" lon="5.99101">
        <ele>1475.2</ele>
        <time>2021-04-17T12:27:11Z</time>
      </trkpt>
      <trkpt lat="45.21788" lon="5.99101">
        <ele>1475</ele>
        <time>2021-04-17T12:27:12Z</time>
      </trkpt>
      <trkpt lat="45.21785" lon="5.99102">
        <ele>1474.8</ele>
        <time>2021-04-17T12:27:15Z</time>
      </trkpt>
      <trkpt lat="45.21785" lon="5.99104">
        <ele>1474.8</ele>
        <time>2021-04-17T12:27:16Z</time>
      </trkpt>
      <trkpt lat="45.21785" lon="5.99105">
        <ele>1474.8</ele>
        <time>2021-04-17T12:27:17Z</time>
      </trkpt>
      <trkpt lat="45.21786" lon="5.99105">
        <ele>1474.6</ele>
        <time>2021-04-17T12:27:18Z</time>
      </trkpt>
      <trkpt lat="45.21786" lon="5.99105">
        <ele>1474.6</ele>
        <time>2021-04-17T12:27:19Z</time>
      </trkpt>
      <trkpt lat="45.21788" lon="5.99105">
        <ele>1474.8</ele>
        <time>2021-04-17T12:27:21Z</time>
      </trkpt>
      <trkpt lat="45.21789" lon="5.99104">
        <ele>1474.6</ele>
        <time>2021-04-17T12:27:23Z</time>
      </trkpt>
      <trkpt lat="45.21789" lon="5.99102">
        <ele>1474.6</ele>
        <time>2021-04-17T12:27:26Z</time>
      </trkpt>
      <trkpt lat="45.21791" lon="5.99101">
        <ele>1474.6</ele>
        <time>2021-04-17T12:27:31Z</time>
      </trkpt>
      <trkpt lat="45.21791" lon="5.99101">
        <ele>1474.6</ele>
        <time>2021-04-17T12:27:32Z</time>
      </trkpt>
      <trkpt lat="45.21793" lon="5.99103">
        <ele>1474.6</ele>
        <time>2021-04-17T12:27:34Z</time>
      </trkpt>
      <trkpt lat="45.21796" lon="5.99107">
        <ele>1474.4</ele>
        <time>2021-04-17T12:27:37Z</time>
      </trkpt>
      <trkpt lat="45.21797" lon="5.99107">
        <ele>1474.2</ele>
        <time>2021-04-17T12:27:38Z</time>
      </trkpt>
      <trkpt lat="45.21797" lon="5.99107">
        <ele>1474</ele>
        <time>2021-04-17T12:27:39Z</time>
      </trkpt>
      <trkpt lat="45.21798" lon="5.99107">
        <ele>1473.8</ele>
        <time>2021-04-17T12:27:40Z</time>
      </trkpt>
      <trkpt lat="45.21799" lon="5.99107">
        <ele>1473.6</ele>
        <time>2021-04-17T12:27:41Z</time>
      </trkpt>
      <trkpt lat="45.21801" lon="5.99107">
        <ele>1473.4</ele>
        <time>2021-04-17T12:27:42Z</time>
      </trkpt>
      <trkpt lat="45.21801" lon="5.99107">
        <ele>1473.4</ele>
        <time>2021-04-17T12:27:45Z</time>
      </trkpt>
      <trkpt lat="45.218" lon="5.99107">
        <ele>1473.2</ele>
        <time>2021-04-17T12:27:47Z</time>
      </trkpt>
      <trkpt lat="45.218" lon="5.99107">
        <ele>1473.2</ele>
        <time>2021-04-17T12:27:48Z</time>
      </trkpt>
      <trkpt lat="45.21803" lon="5.99107">
        <ele>1473</ele>
        <time>2021-04-17T12:27:50Z</time>
      </trkpt>
      <trkpt lat="45.21808" lon="5.99107">
        <ele>1473</ele>
        <time>2021-04-17T12:27:52Z</time>
      </trkpt>
      <trkpt lat="45.21811" lon="5.99108">
        <ele>1472.8</ele>
        <time>2021-04-17T12:27:53Z</time>
      </trkpt>
      <trkpt lat="45.21813" lon="5.99108">
        <ele>1473</ele>
        <time>2021-04-17T12:27:56Z</time>
      </trkpt>
      <trkpt lat="45.21813" lon="5.99108">
        <ele>1473</ele>
        <time>2021-04-17T12:27:57Z</time>
      </trkpt>
      <trkpt lat="45.21815" lon="5.99109">
        <ele>1473.2</ele>
        <time>2021-04-17T12:28:02Z</time>
      </trkpt>
      <trkpt lat="45.21818" lon="5.9911">
        <ele>1473.8</ele>
        <time>2021-04-17T12:28:06Z</time>
      </trkpt>
      <trkpt lat="45.21819" lon="5.9911">
        <ele>1474</ele>
        <time>2021-04-17T12:28:08Z</time>
      </trkpt>
      <trkpt lat="45.2182" lon="5.99111">
        <ele>1474.2</ele>
        <time>2021-04-17T12:28:10Z</time>
      </trkpt>
      <trkpt lat="45.2182" lon="5.99112">
        <ele>1474.2</ele>
        <time>2021-04-17T12:28:11Z</time>
      </trkpt>
      <trkpt lat="45.21823" lon="5.99114">
        <ele>1474.4</ele>
        <time>2021-04-17T12:28:14Z</time>
      </trkpt>
      <trkpt lat="45.21824" lon="5.99117">
        <ele>1474.4</ele>
        <time>2021-04-17T12:28:16Z</time>
      </trkpt>
      <trkpt lat="45.21821" lon="5.99121">
        <ele>1473.8</ele>
        <time>2021-04-17T12:28:19Z</time>
      </trkpt>
      <trkpt lat="45.21822" lon="5.99124">
        <ele>1473.4</ele>
        <time>2021-04-17T12:28:21Z</time>
      </trkpt>
      <trkpt lat="45.21822" lon="5.99125">
        <ele>1473.2</ele>
        <time>2021-04-17T12:28:22Z</time>
      </trkpt>
      <trkpt lat="45.21822" lon="5.99125">
        <ele>1473</ele>
        <time>2021-04-17T12:28:23Z</time>
      </trkpt>
      <trkpt lat="45.21824" lon="5.99127">
        <ele>1472.4</ele>
        <time>2021-04-17T12:28:25Z</time>
      </trkpt>
      <trkpt lat="45.21825" lon="5.99127">
        <ele>1472</ele>
        <time>2021-04-17T12:28:26Z</time>
      </trkpt>
      <trkpt lat="45.21825" lon="5.99128">
        <ele>1471</ele>
        <time>2021-04-17T12:28:28Z</time>
      </trkpt>
      <trkpt lat="45.21824" lon="5.99129">
        <ele>1470.8</ele>
        <time>2021-04-17T12:28:29Z</time>
      </trkpt>
      <trkpt lat="45.21826" lon="5.9913">
        <ele>1470.2</ele>
        <time>2021-04-17T12:28:33Z</time>
      </trkpt>
      <trkpt lat="45.21823" lon="5.99129">
        <ele>1469.8</ele>
        <time>2021-04-17T12:28:39Z</time>
      </trkpt>
      <trkpt lat="45.21823" lon="5.99129">
        <ele>1469.8</ele>
        <time>2021-04-17T12:28:45Z</time>
      </trkpt>
      <trkpt lat="45.21823" lon="5.99129">
        <ele>1469.8</ele>
        <time>2021-04-17T12:28:46Z</time>
      </trkpt>
      <trkpt lat="45.21823" lon="5.99129">
        <ele>1469.8</ele>
        <time>2021-04-17T12:28:49Z</time>
      </trkpt>
      <trkpt lat="45.21823" lon="5.99129">
        <ele>1469.8</ele>
        <time>2021-04-17T12:28:51Z</time>
      </trkpt>
      <trkpt lat="45.21823" lon="5.99129">
        <ele>1469.8</ele>
        <time>2021-04-17T12:28:52Z</time>
      </trkpt>
      <trkpt lat="45.21823" lon="5.99129">
        <ele>1469.8</ele>
        <time>2021-04-17T12:28:54Z</time>
      </trkpt>
      <trkpt lat="45.21823" lon="5.99129">
        <ele>1469.8</ele>
        <time>2021-04-17T12:28:56Z</time>
      </trkpt>
      <trkpt lat="45.21821" lon="5.99128">
        <ele>1469.8</ele>
        <time>2021-04-17T12:29:01Z</time>
      </trkpt>
      <trkpt lat="45.21821" lon="5.99132">
        <ele>1469.8</ele>
        <time>2021-04-17T12:29:04Z</time>
      </trkpt>
      <trkpt lat="45.2182" lon="5.99132">
        <ele>1469.8</ele>
        <time>2021-04-17T12:29:05Z</time>
      </trkpt>
      <trkpt lat="45.21819" lon="5.99132">
        <ele>1469.8</ele>
        <time>2021-04-17T12:29:06Z</time>
      </trkpt>
      <trkpt lat="45.21818" lon="5.99132">
        <ele>1469.8</ele>
        <time>2021-04-17T12:29:07Z</time>
      </trkpt>
      <trkpt lat="45.21819" lon="5.99132">
        <ele>1469.8</ele>
        <time>2021-04-17T12:29:08Z</time>
      </trkpt>
      <trkpt lat="45.21819" lon="5.99132">
        <ele>1469.6</ele>
        <time>2021-04-17T12:29:09Z</time>
      </trkpt>
      <trkpt lat="45.2182" lon="5.99133">
        <ele>1469.6</ele>
        <time>2021-04-17T12:29:11Z</time>
      </trkpt>
      <trkpt lat="45.21819" lon="5.99134">
        <ele>1469.6</ele>
        <time>2021-04-17T12:29:12Z</time>
      </trkpt>
      <trkpt lat="45.21818" lon="5.99136">
        <ele>1469.6</ele>
        <time>2021-04-17T12:29:14Z</time>
      </trkpt>
      <trkpt lat="45.21818" lon="5.99137">
        <ele>1469.4</ele>
        <time>2021-04-17T12:29:15Z</time>
      </trkpt>
      <trkpt lat="45.21818" lon="5.99138">
        <ele>1469.2</ele>
        <time>2021-04-17T12:29:16Z</time>
      </trkpt>
      <trkpt lat="45.21818" lon="5.9914">
        <ele>1468.8</ele>
        <time>2021-04-17T12:29:18Z</time>
      </trkpt>
      <trkpt lat="45.21819" lon="5.99141">
        <ele>1468.6</ele>
        <time>2021-04-17T12:29:20Z</time>
      </trkpt>
      <trkpt lat="45.2182" lon="5.9914">
        <ele>1468.6</ele>
        <time>2021-04-17T12:29:21Z</time>
      </trkpt>
      <trkpt lat="45.2182" lon="5.99141">
        <ele>1468.4</ele>
        <time>2021-04-17T12:29:26Z</time>
      </trkpt>
      <trkpt lat="45.21819" lon="5.99142">
        <ele>1468.4</ele>
        <time>2021-04-17T12:29:30Z</time>
      </trkpt>
      <trkpt lat="45.2182" lon="5.99143">
        <ele>1468.4</ele>
        <time>2021-04-17T12:29:31Z</time>
      </trkpt>
      <trkpt lat="45.21821" lon="5.99146">
        <ele>1469</ele>
        <time>2021-04-17T12:29:36Z</time>
      </trkpt>
      <trkpt lat="45.21821" lon="5.99146">
        <ele>1469.2</ele>
        <time>2021-04-17T12:29:37Z</time>
      </trkpt>
      <trkpt lat="45.21819" lon="5.99149">
        <ele>1469.8</ele>
        <time>2021-04-17T12:29:40Z</time>
      </trkpt>
      <trkpt lat="45.21815" lon="5.99152">
        <ele>1470.6</ele>
        <time>2021-04-17T12:29:43Z</time>
      </trkpt>
      <trkpt lat="45.21815" lon="5.99153">
        <ele>1471</ele>
        <time>2021-04-17T12:29:44Z</time>
      </trkpt>
      <trkpt lat="45.21814" lon="5.99156">
        <ele>1471.4</ele>
        <time>2021-04-17T12:29:46Z</time>
      </trkpt>
      <trkpt lat="45.21812" lon="5.99158">
        <ele>1471.8</ele>
        <time>2021-04-17T12:29:48Z</time>
      </trkpt>
      <trkpt lat="45.2181" lon="5.99162">
        <ele>1471.8</ele>
        <time>2021-04-17T12:29:51Z</time>
      </trkpt>
      <trkpt lat="45.21809" lon="5.99164">
        <ele>1472</ele>
        <time>2021-04-17T12:29:53Z</time>
      </trkpt>
      <trkpt lat="45.21809" lon="5.99166">
        <ele>1472</ele>
        <time>2021-04-17T12:29:55Z</time>
      </trkpt>
      <trkpt lat="45.2181" lon="5.99166">
        <ele>1471.8</ele>
        <time>2021-04-17T12:29:57Z</time>
      </trkpt>
      <trkpt lat="45.21811" lon="5.99167">
        <ele>1471.8</ele>
        <time>2021-04-17T12:30:01Z</time>
      </trkpt>
      <trkpt lat="45.21812" lon="5.99166">
        <ele>1471.8</ele>
        <time>2021-04-17T12:30:02Z</time>
      </trkpt>
      <trkpt lat="45.21812" lon="5.99167">
        <ele>1471.8</ele>
        <time>2021-04-17T12:30:06Z</time>
      </trkpt>
      <trkpt lat="45.21812" lon="5.99167">
        <ele>1471.8</ele>
        <time>2021-04-17T12:30:09Z</time>
      </trkpt>
      <trkpt lat="45.21812" lon="5.99167">
        <ele>1471.6</ele>
        <time>2021-04-17T12:30:11Z</time>
      </trkpt>
      <trkpt lat="45.21812" lon="5.99167">
        <ele>1471.6</ele>
        <time>2021-04-17T12:30:13Z</time>
      </trkpt>
      <trkpt lat="45.21812" lon="5.99167">
        <ele>1471.6</ele>
        <time>2021-04-17T12:30:15Z</time>
      </trkpt>
      <trkpt lat="45.21812" lon="5.99167">
        <ele>1471.6</ele>
        <time>2021-04-17T12:30:16Z</time>
      </trkpt>
      <trkpt lat="45.21811" lon="5.99167">
        <ele>1471.4</ele>
        <time>2021-04-17T12:30:18Z</time>
      </trkpt>
      <trkpt lat="45.21811" lon="5.99167">
        <ele>1471.4</ele>
        <time>2021-04-17T12:30:19Z</time>
      </trkpt>
      <trkpt lat="45.21811" lon="5.99168">
        <ele>1471.4</ele>
        <time>2021-04-17T12:30:22Z</time>
      </trkpt>
      <trkpt lat="45.2181" lon="5.99168">
        <ele>1471.2</ele>
        <time>2021-04-17T12:30:26Z</time>
      </trkpt>
      <trkpt lat="45.2181" lon="5.99168">
        <ele>1471.2</ele>
        <time>2021-04-17T12:30:27Z</time>
      </trkpt>
      <trkpt lat="45.2181" lon="5.99168">
        <ele>1471.2</ele>
        <time>2021-04-17T12:30:28Z</time>
      </trkpt>
      <trkpt lat="45.2181" lon="5.99168">
        <ele>1471.2</ele>
        <time>2021-04-17T12:30:29Z</time>
      </trkpt>
      <trkpt lat="45.2181" lon="5.99168">
        <ele>1471.2</ele>
        <time>2021-04-17T12:30:30Z</time>
      </trkpt>
      <trkpt lat="45.2181" lon="5.99168">
        <ele>1471.2</ele>
        <time>2021-04-17T12:30:33Z</time>
      </trkpt>
      <trkpt lat="45.2181" lon="5.99168">
        <ele>1471.2</ele>
        <time>2021-04-17T12:30:36Z</time>
      </trkpt>
      <trkpt lat="45.2181" lon="5.99168">
        <ele>1471.4</ele>
        <time>2021-04-17T12:30:38Z</time>
      </trkpt>
      <trkpt lat="45.2181" lon="5.99168">
        <ele>1471.4</ele>
        <time>2021-04-17T12:30:40Z</time>
      </trkpt>
      <trkpt lat="45.21811" lon="5.99166">
        <ele>1471.4</ele>
        <time>2021-04-17T12:30:44Z</time>
      </trkpt>
      <trkpt lat="45.21811" lon="5.99166">
        <ele>1471.4</ele>
        <time>2021-04-17T12:30:45Z</time>
      </trkpt>
      <trkpt lat="45.21811" lon="5.99166">
        <ele>1471.4</ele>
        <time>2021-04-17T12:30:46Z</time>
      </trkpt>
      <trkpt lat="45.21812" lon="5.99165">
        <ele>1471.4</ele>
        <time>2021-04-17T12:30:49Z</time>
      </trkpt>
      <trkpt lat="45.21812" lon="5.99164">
        <ele>1471.4</ele>
        <time>2021-04-17T12:30:51Z</time>
      </trkpt>
      <trkpt lat="45.21812" lon="5.99164">
        <ele>1471.4</ele>
        <time>2021-04-17T12:30:53Z</time>
      </trkpt>
      <trkpt lat="45.21812" lon="5.99164">
        <ele>1471.4</ele>
        <time>2021-04-17T12:30:54Z</time>
      </trkpt>
      <trkpt lat="45.21812" lon="5.99163">
        <ele>1471.2</ele>
        <time>2021-04-17T12:30:57Z</time>
      </trkpt>
      <trkpt lat="45.21812" lon="5.99163">
        <ele>1471.2</ele>
        <time>2021-04-17T12:30:58Z</time>
      </trkpt>
      <trkpt lat="45.21812" lon="5.99163">
        <ele>1471.2</ele>
        <time>2021-04-17T12:30:59Z</time>
      </trkpt>
      <trkpt lat="45.21812" lon="5.99163">
        <ele>1471.2</ele>
        <time>2021-04-17T12:31:00Z</time>
      </trkpt>
      <trkpt lat="45.21812" lon="5.99163">
        <ele>1471</ele>
        <time>2021-04-17T12:31:03Z</time>
      </trkpt>
      <trkpt lat="45.21812" lon="5.99163">
        <ele>1471</ele>
        <time>2021-04-17T12:31:05Z</time>
      </trkpt>
      <trkpt lat="45.21812" lon="5.99163">
        <ele>1471</ele>
        <time>2021-04-17T12:31:07Z</time>
      </trkpt>
      <trkpt lat="45.21812" lon="5.99163">
        <ele>1471</ele>
        <time>2021-04-17T12:31:09Z</time>
      </trkpt>
      <trkpt lat="45.21812" lon="5.99164">
        <ele>1471</ele>
        <time>2021-04-17T12:31:13Z</time>
      </trkpt>
      <trkpt lat="45.21812" lon="5.99165">
        <ele>1471.2</ele>
        <time>2021-04-17T12:31:15Z</time>
      </trkpt>
      <trkpt lat="45.21812" lon="5.99166">
        <ele>1471.2</ele>
        <time>2021-04-17T12:31:16Z</time>
      </trkpt>
      <trkpt lat="45.21813" lon="5.99169">
        <ele>1471.2</ele>
        <time>2021-04-17T12:31:17Z</time>
      </trkpt>
      <trkpt lat="45.21814" lon="5.99173">
        <ele>1471.2</ele>
        <time>2021-04-17T12:31:18Z</time>
      </trkpt>
      <trkpt lat="45.21817" lon="5.99186">
        <ele>1470.8</ele>
        <time>2021-04-17T12:31:20Z</time>
      </trkpt>
      <trkpt lat="45.21819" lon="5.992">
        <ele>1470</ele>
        <time>2021-04-17T12:31:22Z</time>
      </trkpt>
      <trkpt lat="45.2182" lon="5.99206">
        <ele>1469.4</ele>
        <time>2021-04-17T12:31:23Z</time>
      </trkpt>
      <trkpt lat="45.21822" lon="5.99212">
        <ele>1469</ele>
        <time>2021-04-17T12:31:24Z</time>
      </trkpt>
      <trkpt lat="45.21824" lon="5.99219">
        <ele>1468.6</ele>
        <time>2021-04-17T12:31:25Z</time>
      </trkpt>
      <trkpt lat="45.21829" lon="5.99228">
        <ele>1467.8</ele>
        <time>2021-04-17T12:31:27Z</time>
      </trkpt>
      <trkpt lat="45.21831" lon="5.99232">
        <ele>1467.4</ele>
        <time>2021-04-17T12:31:28Z</time>
      </trkpt>
      <trkpt lat="45.21833" lon="5.99237">
        <ele>1467.2</ele>
        <time>2021-04-17T12:31:29Z</time>
      </trkpt>
      <trkpt lat="45.21837" lon="5.99247">
        <ele>1466.2</ele>
        <time>2021-04-17T12:31:31Z</time>
      </trkpt>
      <trkpt lat="45.21842" lon="5.99258">
        <ele>1465.6</ele>
        <time>2021-04-17T12:31:33Z</time>
      </trkpt>
      <trkpt lat="45.21848" lon="5.99268">
        <ele>1465</ele>
        <time>2021-04-17T12:31:35Z</time>
      </trkpt>
      <trkpt lat="45.21849" lon="5.99272">
        <ele>1464.8</ele>
        <time>2021-04-17T12:31:36Z</time>
      </trkpt>
      <trkpt lat="45.21853" lon="5.9928">
        <ele>1464.4</ele>
        <time>2021-04-17T12:31:38Z</time>
      </trkpt>
      <trkpt lat="45.21855" lon="5.99286">
        <ele>1464.4</ele>
        <time>2021-04-17T12:31:40Z</time>
      </trkpt>
      <trkpt lat="45.21856" lon="5.99291">
        <ele>1464.6</ele>
        <time>2021-04-17T12:31:42Z</time>
      </trkpt>
      <trkpt lat="45.21861" lon="5.99303">
        <ele>1464.8</ele>
        <time>2021-04-17T12:31:47Z</time>
      </trkpt>
      <trkpt lat="45.21862" lon="5.9931">
        <ele>1465</ele>
        <time>2021-04-17T12:31:50Z</time>
      </trkpt>
      <trkpt lat="45.21862" lon="5.99312">
        <ele>1465.2</ele>
        <time>2021-04-17T12:31:51Z</time>
      </trkpt>
      <trkpt lat="45.21863" lon="5.99318">
        <ele>1465.4</ele>
        <time>2021-04-17T12:31:54Z</time>
      </trkpt>
      <trkpt lat="45.21864" lon="5.99321">
        <ele>1465.6</ele>
        <time>2021-04-17T12:31:55Z</time>
      </trkpt>
      <trkpt lat="45.21864" lon="5.99326">
        <ele>1465.4</ele>
        <time>2021-04-17T12:31:57Z</time>
      </trkpt>
      <trkpt lat="45.21868" lon="5.99344">
        <ele>1464.2</ele>
        <time>2021-04-17T12:32:01Z</time>
      </trkpt>
      <trkpt lat="45.21868" lon="5.9935">
        <ele>1463.8</ele>
        <time>2021-04-17T12:32:02Z</time>
      </trkpt>
      <trkpt lat="45.21872" lon="5.9937">
        <ele>1462.6</ele>
        <time>2021-04-17T12:32:05Z</time>
      </trkpt>
      <trkpt lat="45.21875" lon="5.99376">
        <ele>1462.2</ele>
        <time>2021-04-17T12:32:06Z</time>
      </trkpt>
      <trkpt lat="45.21879" lon="5.9938">
        <ele>1461.8</ele>
        <time>2021-04-17T12:32:07Z</time>
      </trkpt>
      <trkpt lat="45.21884" lon="5.99385">
        <ele>1461.2</ele>
        <time>2021-04-17T12:32:08Z</time>
      </trkpt>
      <trkpt lat="45.21888" lon="5.99391">
        <ele>1460.6</ele>
        <time>2021-04-17T12:32:09Z</time>
      </trkpt>
      <trkpt lat="45.21891" lon="5.994">
        <ele>1459.6</ele>
        <time>2021-04-17T12:32:10Z</time>
      </trkpt>
      <trkpt lat="45.21893" lon="5.99406">
        <ele>1458.8</ele>
        <time>2021-04-17T12:32:11Z</time>
      </trkpt>
      <trkpt lat="45.21894" lon="5.99414">
        <ele>1458.2</ele>
        <time>2021-04-17T12:32:12Z</time>
      </trkpt>
      <trkpt lat="45.21896" lon="5.99423">
        <ele>1457.2</ele>
        <time>2021-04-17T12:32:13Z</time>
      </trkpt>
      <trkpt lat="45.21898" lon="5.99433">
        <ele>1456.2</ele>
        <time>2021-04-17T12:32:14Z</time>
      </trkpt>
      <trkpt lat="45.21901" lon="5.99443">
        <ele>1455.2</ele>
        <time>2021-04-17T12:32:15Z</time>
      </trkpt>
      <trkpt lat="45.21906" lon="5.99456">
        <ele>1453.6</ele>
        <time>2021-04-17T12:32:17Z</time>
      </trkpt>
      <trkpt lat="45.21909" lon="5.99462">
        <ele>1452.8</ele>
        <time>2021-04-17T12:32:18Z</time>
      </trkpt>
      <trkpt lat="45.21912" lon="5.99467">
        <ele>1452.4</ele>
        <time>2021-04-17T12:32:19Z</time>
      </trkpt>
      <trkpt lat="45.21921" lon="5.99478">
        <ele>1452</ele>
        <time>2021-04-17T12:32:22Z</time>
      </trkpt>
      <trkpt lat="45.21929" lon="5.99486">
        <ele>1452</ele>
        <time>2021-04-17T12:32:25Z</time>
      </trkpt>
      <trkpt lat="45.21932" lon="5.99489">
        <ele>1452</ele>
        <time>2021-04-17T12:32:26Z</time>
      </trkpt>
      <trkpt lat="45.21935" lon="5.9949">
        <ele>1452</ele>
        <time>2021-04-17T12:32:27Z</time>
      </trkpt>
      <trkpt lat="45.21946" lon="5.99496">
        <ele>1452.4</ele>
        <time>2021-04-17T12:32:31Z</time>
      </trkpt>
      <trkpt lat="45.21954" lon="5.99507">
        <ele>1452.6</ele>
        <time>2021-04-17T12:32:35Z</time>
      </trkpt>
      <trkpt lat="45.21958" lon="5.99512">
        <ele>1452.6</ele>
        <time>2021-04-17T12:32:37Z</time>
      </trkpt>
      <trkpt lat="45.21961" lon="5.99516">
        <ele>1452.8</ele>
        <time>2021-04-17T12:32:39Z</time>
      </trkpt>
      <trkpt lat="45.21965" lon="5.99523">
        <ele>1453.2</ele>
        <time>2021-04-17T12:32:42Z</time>
      </trkpt>
      <trkpt lat="45.21966" lon="5.99526">
        <ele>1453.2</ele>
        <time>2021-04-17T12:32:43Z</time>
      </trkpt>
      <trkpt lat="45.21969" lon="5.9953">
        <ele>1453.2</ele>
        <time>2021-04-17T12:32:45Z</time>
      </trkpt>
      <trkpt lat="45.21973" lon="5.99537">
        <ele>1453.4</ele>
        <time>2021-04-17T12:32:48Z</time>
      </trkpt>
      <trkpt lat="45.21976" lon="5.9954">
        <ele>1453.4</ele>
        <time>2021-04-17T12:32:50Z</time>
      </trkpt>
      <trkpt lat="45.21983" lon="5.99545">
        <ele>1453.4</ele>
        <time>2021-04-17T12:32:54Z</time>
      </trkpt>
      <trkpt lat="45.21991" lon="5.99549">
        <ele>1453.2</ele>
        <time>2021-04-17T12:32:57Z</time>
      </trkpt>
      <trkpt lat="45.22002" lon="5.99553">
        <ele>1452.2</ele>
        <time>2021-04-17T12:33:01Z</time>
      </trkpt>
      <trkpt lat="45.22011" lon="5.99556">
        <ele>1450.8</ele>
        <time>2021-04-17T12:33:04Z</time>
      </trkpt>
      <trkpt lat="45.22018" lon="5.99559">
        <ele>1449.8</ele>
        <time>2021-04-17T12:33:06Z</time>
      </trkpt>
      <trkpt lat="45.22027" lon="5.99561">
        <ele>1448.8</ele>
        <time>2021-04-17T12:33:08Z</time>
      </trkpt>
      <trkpt lat="45.22038" lon="5.99565">
        <ele>1447.4</ele>
        <time>2021-04-17T12:33:10Z</time>
      </trkpt>
      <trkpt lat="45.22048" lon="5.99568">
        <ele>1445.6</ele>
        <time>2021-04-17T12:33:12Z</time>
      </trkpt>
      <trkpt lat="45.22058" lon="5.99572">
        <ele>1444</ele>
        <time>2021-04-17T12:33:14Z</time>
      </trkpt>
      <trkpt lat="45.2207" lon="5.99575">
        <ele>1442.4</ele>
        <time>2021-04-17T12:33:16Z</time>
      </trkpt>
      <trkpt lat="45.22082" lon="5.99579">
        <ele>1441</ele>
        <time>2021-04-17T12:33:18Z</time>
      </trkpt>
      <trkpt lat="45.22092" lon="5.99588">
        <ele>1439.8</ele>
        <time>2021-04-17T12:33:20Z</time>
      </trkpt>
      <trkpt lat="45.22096" lon="5.99591">
        <ele>1439.2</ele>
        <time>2021-04-17T12:33:21Z</time>
      </trkpt>
      <trkpt lat="45.22101" lon="5.996">
        <ele>1438.6</ele>
        <time>2021-04-17T12:33:23Z</time>
      </trkpt>
      <trkpt lat="45.22102" lon="5.99604">
        <ele>1438.6</ele>
        <time>2021-04-17T12:33:24Z</time>
      </trkpt>
      <trkpt lat="45.22103" lon="5.99608">
        <ele>1438.6</ele>
        <time>2021-04-17T12:33:25Z</time>
      </trkpt>
      <trkpt lat="45.22109" lon="5.99622">
        <ele>1438.2</ele>
        <time>2021-04-17T12:33:29Z</time>
      </trkpt>
      <trkpt lat="45.2211" lon="5.99626">
        <ele>1438</ele>
        <time>2021-04-17T12:33:30Z</time>
      </trkpt>
      <trkpt lat="45.22113" lon="5.99631">
        <ele>1437.8</ele>
        <time>2021-04-17T12:33:32Z</time>
      </trkpt>
      <trkpt lat="45.22115" lon="5.99633">
        <ele>1437.6</ele>
        <time>2021-04-17T12:33:33Z</time>
      </trkpt>
      <trkpt lat="45.22117" lon="5.99637">
        <ele>1437.4</ele>
        <time>2021-04-17T12:33:36Z</time>
      </trkpt>
      <trkpt lat="45.22116" lon="5.99638">
        <ele>1437.4</ele>
        <time>2021-04-17T12:33:37Z</time>
      </trkpt>
      <trkpt lat="45.22116" lon="5.99639">
        <ele>1437.4</ele>
        <time>2021-04-17T12:33:38Z</time>
      </trkpt>
      <trkpt lat="45.22117" lon="5.9964">
        <ele>1437.4</ele>
        <time>2021-04-17T12:33:40Z</time>
      </trkpt>
      <trkpt lat="45.22117" lon="5.99641">
        <ele>1437.4</ele>
        <time>2021-04-17T12:33:44Z</time>
      </trkpt>
      <trkpt lat="45.22117" lon="5.99641">
        <ele>1437.4</ele>
        <time>2021-04-17T12:33:45Z</time>
      </trkpt>
      <trkpt lat="45.22117" lon="5.99641">
        <ele>1437.4</ele>
        <time>2021-04-17T12:33:47Z</time>
      </trkpt>
      <trkpt lat="45.22118" lon="5.99641">
        <ele>1437.2</ele>
        <time>2021-04-17T12:33:48Z</time>
      </trkpt>
      <trkpt lat="45.22118" lon="5.99642">
        <ele>1437.2</ele>
        <time>2021-04-17T12:33:49Z</time>
      </trkpt>
      <trkpt lat="45.22118" lon="5.99642">
        <ele>1437.2</ele>
        <time>2021-04-17T12:33:50Z</time>
      </trkpt>
      <trkpt lat="45.22118" lon="5.99642">
        <ele>1437</ele>
        <time>2021-04-17T12:33:51Z</time>
      </trkpt>
      <trkpt lat="45.22118" lon="5.99642">
        <ele>1437</ele>
        <time>2021-04-17T12:33:52Z</time>
      </trkpt>
      <trkpt lat="45.22118" lon="5.99641">
        <ele>1436.8</ele>
        <time>2021-04-17T12:33:54Z</time>
      </trkpt>
      <trkpt lat="45.22118" lon="5.99641">
        <ele>1436.8</ele>
        <time>2021-04-17T12:33:55Z</time>
      </trkpt>
      <trkpt lat="45.22117" lon="5.9964">
        <ele>1436.8</ele>
        <time>2021-04-17T12:33:56Z</time>
      </trkpt>
      <trkpt lat="45.22117" lon="5.99638">
        <ele>1437</ele>
        <time>2021-04-17T12:33:59Z</time>
      </trkpt>
      <trkpt lat="45.22117" lon="5.99637">
        <ele>1437</ele>
        <time>2021-04-17T12:34:01Z</time>
      </trkpt>
      <trkpt lat="45.22116" lon="5.99638">
        <ele>1436.8</ele>
        <time>2021-04-17T12:34:02Z</time>
      </trkpt>
      <trkpt lat="45.22116" lon="5.99638">
        <ele>1436.8</ele>
        <time>2021-04-17T12:34:03Z</time>
      </trkpt>
      <trkpt lat="45.22115" lon="5.99638">
        <ele>1436.6</ele>
        <time>2021-04-17T12:34:07Z</time>
      </trkpt>
      <trkpt lat="45.22115" lon="5.99638">
        <ele>1436.6</ele>
        <time>2021-04-17T12:34:08Z</time>
      </trkpt>
      <trkpt lat="45.22114" lon="5.99638">
        <ele>1436.4</ele>
        <time>2021-04-17T12:34:11Z</time>
      </trkpt>
      <trkpt lat="45.22115" lon="5.99638">
        <ele>1436.4</ele>
        <time>2021-04-17T12:34:16Z</time>
      </trkpt>
      <trkpt lat="45.22115" lon="5.99638">
        <ele>1436.4</ele>
        <time>2021-04-17T12:34:18Z</time>
      </trkpt>
      <trkpt lat="45.22115" lon="5.99638">
        <ele>1436.4</ele>
        <time>2021-04-17T12:34:21Z</time>
      </trkpt>
      <trkpt lat="45.22115" lon="5.99638">
        <ele>1436.6</ele>
        <time>2021-04-17T12:34:25Z</time>
      </trkpt>
      <trkpt lat="45.22115" lon="5.99638">
        <ele>1436.6</ele>
        <time>2021-04-17T12:34:26Z</time>
      </trkpt>
      <trkpt lat="45.22115" lon="5.99638">
        <ele>1436.8</ele>
        <time>2021-04-17T12:34:27Z</time>
      </trkpt>
      <trkpt lat="45.22115" lon="5.99638">
        <ele>1436.6</ele>
        <time>2021-04-17T12:34:29Z</time>
      </trkpt>
      <trkpt lat="45.22115" lon="5.99638">
        <ele>1436.8</ele>
        <time>2021-04-17T12:34:32Z</time>
      </trkpt>
      <trkpt lat="45.22115" lon="5.99638">
        <ele>1436.6</ele>
        <time>2021-04-17T12:34:33Z</time>
      </trkpt>
      <trkpt lat="45.22115" lon="5.99638">
        <ele>1436.6</ele>
        <time>2021-04-17T12:34:34Z</time>
      </trkpt>
      <trkpt lat="45.22115" lon="5.99638">
        <ele>1436.6</ele>
        <time>2021-04-17T12:34:35Z</time>
      </trkpt>
      <trkpt lat="45.22115" lon="5.99639">
        <ele>1436.6</ele>
        <time>2021-04-17T12:34:37Z</time>
      </trkpt>
      <trkpt lat="45.22114" lon="5.99639">
        <ele>1436.8</ele>
        <time>2021-04-17T12:34:42Z</time>
      </trkpt>
      <trkpt lat="45.22114" lon="5.9964">
        <ele>1436.8</ele>
        <time>2021-04-17T12:34:43Z</time>
      </trkpt>
      <trkpt lat="45.22114" lon="5.9964">
        <ele>1436.8</ele>
        <time>2021-04-17T12:34:44Z</time>
      </trkpt>
      <trkpt lat="45.22114" lon="5.9964">
        <ele>1436.8</ele>
        <time>2021-04-17T12:34:45Z</time>
      </trkpt>
      <trkpt lat="45.22114" lon="5.99641">
        <ele>1436.8</ele>
        <time>2021-04-17T12:34:46Z</time>
      </trkpt>
      <trkpt lat="45.22114" lon="5.99641">
        <ele>1436.8</ele>
        <time>2021-04-17T12:34:48Z</time>
      </trkpt>
      <trkpt lat="45.22114" lon="5.99641">
        <ele>1437.2</ele>
        <time>2021-04-17T12:34:52Z</time>
      </trkpt>
      <trkpt lat="45.22114" lon="5.99641">
        <ele>1437.2</ele>
        <time>2021-04-17T12:34:55Z</time>
      </trkpt>
      <trkpt lat="45.22114" lon="5.99641">
        <ele>1437.2</ele>
        <time>2021-04-17T12:35:01Z</time>
      </trkpt>
      <trkpt lat="45.22114" lon="5.99642">
        <ele>1436.8</ele>
        <time>2021-04-17T12:35:06Z</time>
      </trkpt>
      <trkpt lat="45.22115" lon="5.99643">
        <ele>1436.6</ele>
        <time>2021-04-17T12:35:08Z</time>
      </trkpt>
      <trkpt lat="45.22118" lon="5.99642">
        <ele>1435.8</ele>
        <time>2021-04-17T12:35:11Z</time>
      </trkpt>
      <trkpt lat="45.22119" lon="5.99642">
        <ele>1435.4</ele>
        <time>2021-04-17T12:35:12Z</time>
      </trkpt>
      <trkpt lat="45.2212" lon="5.99641">
        <ele>1435</ele>
        <time>2021-04-17T12:35:13Z</time>
      </trkpt>
      <trkpt lat="45.22123" lon="5.99641">
        <ele>1434.2</ele>
        <time>2021-04-17T12:35:14Z</time>
      </trkpt>
      <trkpt lat="45.22129" lon="5.9964">
        <ele>1433.6</ele>
        <time>2021-04-17T12:35:18Z</time>
      </trkpt>
      <trkpt lat="45.22131" lon="5.9964">
        <ele>1433.4</ele>
        <time>2021-04-17T12:35:19Z</time>
      </trkpt>
      <trkpt lat="45.22133" lon="5.99639">
        <ele>1433</ele>
        <time>2021-04-17T12:35:20Z</time>
      </trkpt>
      <trkpt lat="45.22134" lon="5.99638">
        <ele>1432.8</ele>
        <time>2021-04-17T12:35:21Z</time>
      </trkpt>
      <trkpt lat="45.22135" lon="5.99637">
        <ele>1432.2</ele>
        <time>2021-04-17T12:35:23Z</time>
      </trkpt>
      <trkpt lat="45.22137" lon="5.99637">
        <ele>1431.8</ele>
        <time>2021-04-17T12:35:24Z</time>
      </trkpt>
      <trkpt lat="45.22139" lon="5.99638">
        <ele>1431.6</ele>
        <time>2021-04-17T12:35:25Z</time>
      </trkpt>
      <trkpt lat="45.22142" lon="5.99641">
        <ele>1431</ele>
        <time>2021-04-17T12:35:27Z</time>
      </trkpt>
      <trkpt lat="45.22144" lon="5.99642">
        <ele>1430.6</ele>
        <time>2021-04-17T12:35:28Z</time>
      </trkpt>
      <trkpt lat="45.22146" lon="5.99644">
        <ele>1429.6</ele>
        <time>2021-04-17T12:35:30Z</time>
      </trkpt>
      <trkpt lat="45.22148" lon="5.99646">
        <ele>1428.4</ele>
        <time>2021-04-17T12:35:32Z</time>
      </trkpt>
      <trkpt lat="45.22149" lon="5.99646">
        <ele>1428</ele>
        <time>2021-04-17T12:35:33Z</time>
      </trkpt>
      <trkpt lat="45.22151" lon="5.99647">
        <ele>1427.8</ele>
        <time>2021-04-17T12:35:34Z</time>
      </trkpt>
      <trkpt lat="45.22153" lon="5.99647">
        <ele>1427.4</ele>
        <time>2021-04-17T12:35:35Z</time>
      </trkpt>
      <trkpt lat="45.22156" lon="5.99647">
        <ele>1426.8</ele>
        <time>2021-04-17T12:35:37Z</time>
      </trkpt>
      <trkpt lat="45.22157" lon="5.99648">
        <ele>1426.4</ele>
        <time>2021-04-17T12:35:38Z</time>
      </trkpt>
      <trkpt lat="45.2216" lon="5.99649">
        <ele>1425.4</ele>
        <time>2021-04-17T12:35:40Z</time>
      </trkpt>
      <trkpt lat="45.2216" lon="5.99649">
        <ele>1425</ele>
        <time>2021-04-17T12:35:41Z</time>
      </trkpt>
      <trkpt lat="45.22161" lon="5.99648">
        <ele>1424.4</ele>
        <time>2021-04-17T12:35:43Z</time>
      </trkpt>
      <trkpt lat="45.22161" lon="5.99648">
        <ele>1423.8</ele>
        <time>2021-04-17T12:35:44Z</time>
      </trkpt>
      <trkpt lat="45.22163" lon="5.99648">
        <ele>1422.6</ele>
        <time>2021-04-17T12:35:46Z</time>
      </trkpt>
      <trkpt lat="45.22164" lon="5.99645">
        <ele>1421.4</ele>
        <time>2021-04-17T12:35:48Z</time>
      </trkpt>
      <trkpt lat="45.22165" lon="5.99643">
        <ele>1420.2</ele>
        <time>2021-04-17T12:35:50Z</time>
      </trkpt>
      <trkpt lat="45.22167" lon="5.99643">
        <ele>1419.4</ele>
        <time>2021-04-17T12:35:51Z</time>
      </trkpt>
      <trkpt lat="45.22168" lon="5.99642">
        <ele>1418.8</ele>
        <time>2021-04-17T12:35:52Z</time>
      </trkpt>
      <trkpt lat="45.22167" lon="5.9964">
        <ele>1417.6</ele>
        <time>2021-04-17T12:35:54Z</time>
      </trkpt>
      <trkpt lat="45.22166" lon="5.99639">
        <ele>1417</ele>
        <time>2021-04-17T12:35:55Z</time>
      </trkpt>
      <trkpt lat="45.22167" lon="5.99638">
        <ele>1416.4</ele>
        <time>2021-04-17T12:35:56Z</time>
      </trkpt>
      <trkpt lat="45.22168" lon="5.99636">
        <ele>1415.4</ele>
        <time>2021-04-17T12:35:58Z</time>
      </trkpt>
      <trkpt lat="45.22169" lon="5.99634">
        <ele>1414.6</ele>
        <time>2021-04-17T12:35:59Z</time>
      </trkpt>
      <trkpt lat="45.22171" lon="5.99632">
        <ele>1414</ele>
        <time>2021-04-17T12:36:00Z</time>
      </trkpt>
      <trkpt lat="45.22172" lon="5.99631">
        <ele>1413.4</ele>
        <time>2021-04-17T12:36:01Z</time>
      </trkpt>
      <trkpt lat="45.22173" lon="5.99631">
        <ele>1412.8</ele>
        <time>2021-04-17T12:36:02Z</time>
      </trkpt>
      <trkpt lat="45.22173" lon="5.9963">
        <ele>1412.4</ele>
        <time>2021-04-17T12:36:03Z</time>
      </trkpt>
      <trkpt lat="45.22173" lon="5.99628">
        <ele>1411.8</ele>
        <time>2021-04-17T12:36:04Z</time>
      </trkpt>
      <trkpt lat="45.22174" lon="5.99627">
        <ele>1411.2</ele>
        <time>2021-04-17T12:36:05Z</time>
      </trkpt>
      <trkpt lat="45.22178" lon="5.99626">
        <ele>1410.4</ele>
        <time>2021-04-17T12:36:07Z</time>
      </trkpt>
      <trkpt lat="45.2218" lon="5.99624">
        <ele>1409.4</ele>
        <time>2021-04-17T12:36:09Z</time>
      </trkpt>
      <trkpt lat="45.22181" lon="5.99623">
        <ele>1409</ele>
        <time>2021-04-17T12:36:10Z</time>
      </trkpt>
      <trkpt lat="45.22183" lon="5.99623">
        <ele>1407.8</ele>
        <time>2021-04-17T12:36:12Z</time>
      </trkpt>
      <trkpt lat="45.22186" lon="5.99624">
        <ele>1407</ele>
        <time>2021-04-17T12:36:14Z</time>
      </trkpt>
      <trkpt lat="45.22188" lon="5.99624">
        <ele>1406.6</ele>
        <time>2021-04-17T12:36:15Z</time>
      </trkpt>
      <trkpt lat="45.22192" lon="5.99625">
        <ele>1405.2</ele>
        <time>2021-04-17T12:36:18Z</time>
      </trkpt>
      <trkpt lat="45.22194" lon="5.99624">
        <ele>1404.2</ele>
        <time>2021-04-17T12:36:20Z</time>
      </trkpt>
      <trkpt lat="45.22196" lon="5.99623">
        <ele>1403</ele>
        <time>2021-04-17T12:36:23Z</time>
      </trkpt>
      <trkpt lat="45.22197" lon="5.99624">
        <ele>1402</ele>
        <time>2021-04-17T12:36:26Z</time>
      </trkpt>
      <trkpt lat="45.22198" lon="5.99625">
        <ele>1401.6</ele>
        <time>2021-04-17T12:36:27Z</time>
      </trkpt>
      <trkpt lat="45.222" lon="5.99625">
        <ele>1401.2</ele>
        <time>2021-04-17T12:36:29Z</time>
      </trkpt>
      <trkpt lat="45.222" lon="5.99626">
        <ele>1401</ele>
        <time>2021-04-17T12:36:30Z</time>
      </trkpt>
      <trkpt lat="45.22202" lon="5.99627">
        <ele>1400.8</ele>
        <time>2021-04-17T12:36:31Z</time>
      </trkpt>
      <trkpt lat="45.22206" lon="5.99629">
        <ele>1400</ele>
        <time>2021-04-17T12:36:33Z</time>
      </trkpt>
      <trkpt lat="45.22207" lon="5.99629">
        <ele>1399.6</ele>
        <time>2021-04-17T12:36:34Z</time>
      </trkpt>
      <trkpt lat="45.22211" lon="5.99631">
        <ele>1398.2</ele>
        <time>2021-04-17T12:36:37Z</time>
      </trkpt>
      <trkpt lat="45.22214" lon="5.99632">
        <ele>1397.2</ele>
        <time>2021-04-17T12:36:39Z</time>
      </trkpt>
      <trkpt lat="45.22216" lon="5.99632">
        <ele>1396.8</ele>
        <time>2021-04-17T12:36:40Z</time>
      </trkpt>
      <trkpt lat="45.22219" lon="5.99631">
        <ele>1396.2</ele>
        <time>2021-04-17T12:36:42Z</time>
      </trkpt>
      <trkpt lat="45.22221" lon="5.99631">
        <ele>1395.8</ele>
        <time>2021-04-17T12:36:43Z</time>
      </trkpt>
      <trkpt lat="45.22223" lon="5.99632">
        <ele>1395.4</ele>
        <time>2021-04-17T12:36:44Z</time>
      </trkpt>
      <trkpt lat="45.22226" lon="5.99633">
        <ele>1395</ele>
        <time>2021-04-17T12:36:45Z</time>
      </trkpt>
      <trkpt lat="45.22228" lon="5.99634">
        <ele>1394.6</ele>
        <time>2021-04-17T12:36:46Z</time>
      </trkpt>
      <trkpt lat="45.22233" lon="5.99634">
        <ele>1393.6</ele>
        <time>2021-04-17T12:36:49Z</time>
      </trkpt>
      <trkpt lat="45.22235" lon="5.99635">
        <ele>1392.8</ele>
        <time>2021-04-17T12:36:51Z</time>
      </trkpt>
      <trkpt lat="45.22236" lon="5.99636">
        <ele>1392.4</ele>
        <time>2021-04-17T12:36:52Z</time>
      </trkpt>
      <trkpt lat="45.22237" lon="5.99636">
        <ele>1392</ele>
        <time>2021-04-17T12:36:53Z</time>
      </trkpt>
      <trkpt lat="45.22238" lon="5.99636">
        <ele>1391.4</ele>
        <time>2021-04-17T12:36:54Z</time>
      </trkpt>
      <trkpt lat="45.22239" lon="5.99634">
        <ele>1391</ele>
        <time>2021-04-17T12:36:55Z</time>
      </trkpt>
      <trkpt lat="45.22243" lon="5.9963">
        <ele>1389.8</ele>
        <time>2021-04-17T12:36:58Z</time>
      </trkpt>
      <trkpt lat="45.22245" lon="5.99629">
        <ele>1389.4</ele>
        <time>2021-04-17T12:36:59Z</time>
      </trkpt>
      <trkpt lat="45.22246" lon="5.99629">
        <ele>1389.2</ele>
        <time>2021-04-17T12:37:00Z</time>
      </trkpt>
      <trkpt lat="45.22248" lon="5.99629">
        <ele>1388.8</ele>
        <time>2021-04-17T12:37:01Z</time>
      </trkpt>
      <trkpt lat="45.22249" lon="5.99628">
        <ele>1388.6</ele>
        <time>2021-04-17T12:37:02Z</time>
      </trkpt>
      <trkpt lat="45.2225" lon="5.99626">
        <ele>1387</ele>
        <time>2021-04-17T12:37:05Z</time>
      </trkpt>
      <trkpt lat="45.2225" lon="5.99624">
        <ele>1386.4</ele>
        <time>2021-04-17T12:37:07Z</time>
      </trkpt>
      <trkpt lat="45.2225" lon="5.99623">
        <ele>1385.8</ele>
        <time>2021-04-17T12:37:09Z</time>
      </trkpt>
      <trkpt lat="45.22251" lon="5.99622">
        <ele>1385.4</ele>
        <time>2021-04-17T12:37:10Z</time>
      </trkpt>
      <trkpt lat="45.22251" lon="5.99621">
        <ele>1384.8</ele>
        <time>2021-04-17T12:37:11Z</time>
      </trkpt>
      <trkpt lat="45.22252" lon="5.99619">
        <ele>1384.2</ele>
        <time>2021-04-17T12:37:12Z</time>
      </trkpt>
      <trkpt lat="45.22252" lon="5.99618">
        <ele>1383.8</ele>
        <time>2021-04-17T12:37:13Z</time>
      </trkpt>
      <trkpt lat="45.22252" lon="5.99616">
        <ele>1383.4</ele>
        <time>2021-04-17T12:37:14Z</time>
      </trkpt>
      <trkpt lat="45.22253" lon="5.99615">
        <ele>1383</ele>
        <time>2021-04-17T12:37:15Z</time>
      </trkpt>
      <trkpt lat="45.22253" lon="5.99613">
        <ele>1382.6</ele>
        <time>2021-04-17T12:37:16Z</time>
      </trkpt>
      <trkpt lat="45.22254" lon="5.99612">
        <ele>1382.2</ele>
        <time>2021-04-17T12:37:17Z</time>
      </trkpt>
      <trkpt lat="45.22255" lon="5.9961">
        <ele>1381.6</ele>
        <time>2021-04-17T12:37:18Z</time>
      </trkpt>
      <trkpt lat="45.22254" lon="5.99608">
        <ele>1380.6</ele>
        <time>2021-04-17T12:37:20Z</time>
      </trkpt>
      <trkpt lat="45.22252" lon="5.99604">
        <ele>1379.6</ele>
        <time>2021-04-17T12:37:22Z</time>
      </trkpt>
      <trkpt lat="45.22252" lon="5.99603">
        <ele>1379.2</ele>
        <time>2021-04-17T12:37:23Z</time>
      </trkpt>
      <trkpt lat="45.22253" lon="5.99601">
        <ele>1378.6</ele>
        <time>2021-04-17T12:37:25Z</time>
      </trkpt>
      <trkpt lat="45.22255" lon="5.99598">
        <ele>1378</ele>
        <time>2021-04-17T12:37:27Z</time>
      </trkpt>
      <trkpt lat="45.22256" lon="5.99596">
        <ele>1377.6</ele>
        <time>2021-04-17T12:37:28Z</time>
      </trkpt>
      <trkpt lat="45.22257" lon="5.99595">
        <ele>1377.2</ele>
        <time>2021-04-17T12:37:29Z</time>
      </trkpt>
      <trkpt lat="45.22259" lon="5.99593">
        <ele>1376.4</ele>
        <time>2021-04-17T12:37:31Z</time>
      </trkpt>
      <trkpt lat="45.2226" lon="5.99591">
        <ele>1376</ele>
        <time>2021-04-17T12:37:32Z</time>
      </trkpt>
      <trkpt lat="45.22261" lon="5.99589">
        <ele>1375.2</ele>
        <time>2021-04-17T12:37:34Z</time>
      </trkpt>
      <trkpt lat="45.22262" lon="5.99588">
        <ele>1374.6</ele>
        <time>2021-04-17T12:37:35Z</time>
      </trkpt>
      <trkpt lat="45.22265" lon="5.99586">
        <ele>1373.8</ele>
        <time>2021-04-17T12:37:37Z</time>
      </trkpt>
      <trkpt lat="45.22265" lon="5.99585">
        <ele>1373.4</ele>
        <time>2021-04-17T12:37:38Z</time>
      </trkpt>
      <trkpt lat="45.22266" lon="5.99584">
        <ele>1373.2</ele>
        <time>2021-04-17T12:37:39Z</time>
      </trkpt>
      <trkpt lat="45.22266" lon="5.99583">
        <ele>1372.8</ele>
        <time>2021-04-17T12:37:40Z</time>
      </trkpt>
      <trkpt lat="45.22268" lon="5.99584">
        <ele>1371.8</ele>
        <time>2021-04-17T12:37:43Z</time>
      </trkpt>
      <trkpt lat="45.22268" lon="5.99584">
        <ele>1371.6</ele>
        <time>2021-04-17T12:37:44Z</time>
      </trkpt>
      <trkpt lat="45.22279" lon="5.99577">
        <ele>1370.6</ele>
        <time>2021-04-17T12:37:49Z</time>
      </trkpt>
      <trkpt lat="45.2228" lon="5.99576">
        <ele>1370.2</ele>
        <time>2021-04-17T12:37:50Z</time>
      </trkpt>
      <trkpt lat="45.22282" lon="5.99574">
        <ele>1369.4</ele>
        <time>2021-04-17T12:37:52Z</time>
      </trkpt>
      <trkpt lat="45.22284" lon="5.99573">
        <ele>1368.8</ele>
        <time>2021-04-17T12:37:53Z</time>
      </trkpt>
      <trkpt lat="45.22286" lon="5.99573">
        <ele>1368.2</ele>
        <time>2021-04-17T12:37:54Z</time>
      </trkpt>
      <trkpt lat="45.2229" lon="5.99572">
        <ele>1367.6</ele>
        <time>2021-04-17T12:37:56Z</time>
      </trkpt>
      <trkpt lat="45.22292" lon="5.99572">
        <ele>1367.2</ele>
        <time>2021-04-17T12:37:57Z</time>
      </trkpt>
      <trkpt lat="45.22298" lon="5.99571">
        <ele>1366.4</ele>
        <time>2021-04-17T12:37:59Z</time>
      </trkpt>
      <trkpt lat="45.223" lon="5.99571">
        <ele>1366</ele>
        <time>2021-04-17T12:38:00Z</time>
      </trkpt>
      <trkpt lat="45.22303" lon="5.99571">
        <ele>1365.6</ele>
        <time>2021-04-17T12:38:01Z</time>
      </trkpt>
      <trkpt lat="45.22307" lon="5.9957">
        <ele>1364.6</ele>
        <time>2021-04-17T12:38:03Z</time>
      </trkpt>
      <trkpt lat="45.22313" lon="5.9957">
        <ele>1364</ele>
        <time>2021-04-17T12:38:05Z</time>
      </trkpt>
      <trkpt lat="45.22316" lon="5.9957">
        <ele>1363.6</ele>
        <time>2021-04-17T12:38:06Z</time>
      </trkpt>
      <trkpt lat="45.22319" lon="5.9957">
        <ele>1363.2</ele>
        <time>2021-04-17T12:38:07Z</time>
      </trkpt>
      <trkpt lat="45.22321" lon="5.9957">
        <ele>1362.8</ele>
        <time>2021-04-17T12:38:08Z</time>
      </trkpt>
      <trkpt lat="45.22324" lon="5.99571">
        <ele>1362.6</ele>
        <time>2021-04-17T12:38:09Z</time>
      </trkpt>
      <trkpt lat="45.22326" lon="5.99572">
        <ele>1362.4</ele>
        <time>2021-04-17T12:38:10Z</time>
      </trkpt>
      <trkpt lat="45.22335" lon="5.99573">
        <ele>1361.4</ele>
        <time>2021-04-17T12:38:14Z</time>
      </trkpt>
      <trkpt lat="45.22339" lon="5.99574">
        <ele>1360.2</ele>
        <time>2021-04-17T12:38:17Z</time>
      </trkpt>
      <trkpt lat="45.22341" lon="5.99575">
        <ele>1359.6</ele>
        <time>2021-04-17T12:38:19Z</time>
      </trkpt>
      <trkpt lat="45.22345" lon="5.99574">
        <ele>1359</ele>
        <time>2021-04-17T12:38:21Z</time>
      </trkpt>
      <trkpt lat="45.22347" lon="5.99574">
        <ele>1358.8</ele>
        <time>2021-04-17T12:38:22Z</time>
      </trkpt>
      <trkpt lat="45.2235" lon="5.99576">
        <ele>1358.2</ele>
        <time>2021-04-17T12:38:24Z</time>
      </trkpt>
      <trkpt lat="45.22349" lon="5.99577">
        <ele>1357.8</ele>
        <time>2021-04-17T12:38:25Z</time>
      </trkpt>
      <trkpt lat="45.22355" lon="5.99583">
        <ele>1356.6</ele>
        <time>2021-04-17T12:38:30Z</time>
      </trkpt>
      <trkpt lat="45.22359" lon="5.99586">
        <ele>1356.2</ele>
        <time>2021-04-17T12:38:33Z</time>
      </trkpt>
      <trkpt lat="45.22363" lon="5.9959">
        <ele>1355.4</ele>
        <time>2021-04-17T12:38:36Z</time>
      </trkpt>
      <trkpt lat="45.22365" lon="5.99592">
        <ele>1355.2</ele>
        <time>2021-04-17T12:38:38Z</time>
      </trkpt>
      <trkpt lat="45.22366" lon="5.99595">
        <ele>1355</ele>
        <time>2021-04-17T12:38:40Z</time>
      </trkpt>
      <trkpt lat="45.22369" lon="5.99598">
        <ele>1355</ele>
        <time>2021-04-17T12:38:42Z</time>
      </trkpt>
      <trkpt lat="45.2237" lon="5.996">
        <ele>1355</ele>
        <time>2021-04-17T12:38:43Z</time>
      </trkpt>
      <trkpt lat="45.22373" lon="5.99606">
        <ele>1354.6</ele>
        <time>2021-04-17T12:38:47Z</time>
      </trkpt>
      <trkpt lat="45.22374" lon="5.99608">
        <ele>1354.4</ele>
        <time>2021-04-17T12:38:48Z</time>
      </trkpt>
      <trkpt lat="45.22375" lon="5.9961">
        <ele>1354.2</ele>
        <time>2021-04-17T12:38:50Z</time>
      </trkpt>
      <trkpt lat="45.22378" lon="5.99614">
        <ele>1354</ele>
        <time>2021-04-17T12:38:53Z</time>
      </trkpt>
      <trkpt lat="45.22384" lon="5.99621">
        <ele>1353.8</ele>
        <time>2021-04-17T12:38:58Z</time>
      </trkpt>
      <trkpt lat="45.22385" lon="5.99622">
        <ele>1353.8</ele>
        <time>2021-04-17T12:38:59Z</time>
      </trkpt>
      <trkpt lat="45.22389" lon="5.99626">
        <ele>1353.8</ele>
        <time>2021-04-17T12:39:02Z</time>
      </trkpt>
      <trkpt lat="45.2239" lon="5.99628">
        <ele>1353.8</ele>
        <time>2021-04-17T12:39:03Z</time>
      </trkpt>
      <trkpt lat="45.22391" lon="5.99631">
        <ele>1353.8</ele>
        <time>2021-04-17T12:39:04Z</time>
      </trkpt>
      <trkpt lat="45.22391" lon="5.99636">
        <ele>1353.6</ele>
        <time>2021-04-17T12:39:07Z</time>
      </trkpt>
      <trkpt lat="45.22399" lon="5.99643">
        <ele>1353.6</ele>
        <time>2021-04-17T12:39:13Z</time>
      </trkpt>
      <trkpt lat="45.224" lon="5.99644">
        <ele>1353.4</ele>
        <time>2021-04-17T12:39:14Z</time>
      </trkpt>
      <trkpt lat="45.22402" lon="5.99645">
        <ele>1353.4</ele>
        <time>2021-04-17T12:39:15Z</time>
      </trkpt>
      <trkpt lat="45.22411" lon="5.99646">
        <ele>1352.8</ele>
        <time>2021-04-17T12:39:21Z</time>
      </trkpt>
      <trkpt lat="45.22414" lon="5.99646">
        <ele>1352.4</ele>
        <time>2021-04-17T12:39:23Z</time>
      </trkpt>
      <trkpt lat="45.22415" lon="5.99645">
        <ele>1352.4</ele>
        <time>2021-04-17T12:39:24Z</time>
      </trkpt>
      <trkpt lat="45.22419" lon="5.99643">
        <ele>1351.8</ele>
        <time>2021-04-17T12:39:27Z</time>
      </trkpt>
      <trkpt lat="45.22425" lon="5.99644">
        <ele>1351.6</ele>
        <time>2021-04-17T12:39:30Z</time>
      </trkpt>
      <trkpt lat="45.22428" lon="5.99642">
        <ele>1351.2</ele>
        <time>2021-04-17T12:39:33Z</time>
      </trkpt>
      <trkpt lat="45.22429" lon="5.99641">
        <ele>1351.2</ele>
        <time>2021-04-17T12:39:34Z</time>
      </trkpt>
      <trkpt lat="45.22433" lon="5.9964">
        <ele>1351</ele>
        <time>2021-04-17T12:39:36Z</time>
      </trkpt>
      <trkpt lat="45.22435" lon="5.99638">
        <ele>1350.8</ele>
        <time>2021-04-17T12:39:38Z</time>
      </trkpt>
      <trkpt lat="45.22435" lon="5.99637">
        <ele>1350.8</ele>
        <time>2021-04-17T12:39:40Z</time>
      </trkpt>
      <trkpt lat="45.22435" lon="5.99638">
        <ele>1350.8</ele>
        <time>2021-04-17T12:39:41Z</time>
      </trkpt>
      <trkpt lat="45.22435" lon="5.99638">
        <ele>1350.8</ele>
        <time>2021-04-17T12:39:42Z</time>
      </trkpt>
      <trkpt lat="45.22437" lon="5.99636">
        <ele>1351</ele>
        <time>2021-04-17T12:39:45Z</time>
      </trkpt>
      <trkpt lat="45.22439" lon="5.99628">
        <ele>1350.8</ele>
        <time>2021-04-17T12:39:50Z</time>
      </trkpt>
      <trkpt lat="45.2244" lon="5.99626">
        <ele>1350.8</ele>
        <time>2021-04-17T12:39:52Z</time>
      </trkpt>
      <trkpt lat="45.22441" lon="5.99624">
        <ele>1350.8</ele>
        <time>2021-04-17T12:39:54Z</time>
      </trkpt>
      <trkpt lat="45.22443" lon="5.99619">
        <ele>1350.8</ele>
        <time>2021-04-17T12:39:58Z</time>
      </trkpt>
      <trkpt lat="45.22444" lon="5.99618">
        <ele>1350.8</ele>
        <time>2021-04-17T12:39:59Z</time>
      </trkpt>
      <trkpt lat="45.22446" lon="5.99616">
        <ele>1350.8</ele>
        <time>2021-04-17T12:40:02Z</time>
      </trkpt>
      <trkpt lat="45.22446" lon="5.99614">
        <ele>1350.8</ele>
        <time>2021-04-17T12:40:04Z</time>
      </trkpt>
      <trkpt lat="45.22447" lon="5.9961">
        <ele>1350.8</ele>
        <time>2021-04-17T12:40:06Z</time>
      </trkpt>
      <trkpt lat="45.2245" lon="5.99604">
        <ele>1350.8</ele>
        <time>2021-04-17T12:40:11Z</time>
      </trkpt>
      <trkpt lat="45.22452" lon="5.99601">
        <ele>1350.8</ele>
        <time>2021-04-17T12:40:14Z</time>
      </trkpt>
      <trkpt lat="45.22453" lon="5.996">
        <ele>1350.8</ele>
        <time>2021-04-17T12:40:15Z</time>
      </trkpt>
      <trkpt lat="45.22453" lon="5.99599">
        <ele>1350.8</ele>
        <time>2021-04-17T12:40:16Z</time>
      </trkpt>
      <trkpt lat="45.22457" lon="5.99588">
        <ele>1351</ele>
        <time>2021-04-17T12:40:22Z</time>
      </trkpt>
      <trkpt lat="45.22459" lon="5.99586">
        <ele>1351.2</ele>
        <time>2021-04-17T12:40:24Z</time>
      </trkpt>
      <trkpt lat="45.22462" lon="5.99575">
        <ele>1351.2</ele>
        <time>2021-04-17T12:40:29Z</time>
      </trkpt>
      <trkpt lat="45.22469" lon="5.99565">
        <ele>1350.8</ele>
        <time>2021-04-17T12:40:35Z</time>
      </trkpt>
      <trkpt lat="45.2247" lon="5.99564">
        <ele>1350.6</ele>
        <time>2021-04-17T12:40:36Z</time>
      </trkpt>
      <trkpt lat="45.22472" lon="5.99557">
        <ele>1350.6</ele>
        <time>2021-04-17T12:40:40Z</time>
      </trkpt>
      <trkpt lat="45.22474" lon="5.99554">
        <ele>1350.6</ele>
        <time>2021-04-17T12:40:42Z</time>
      </trkpt>
      <trkpt lat="45.22474" lon="5.99553">
        <ele>1350.6</ele>
        <time>2021-04-17T12:40:43Z</time>
      </trkpt>
      <trkpt lat="45.22476" lon="5.9955">
        <ele>1350.8</ele>
        <time>2021-04-17T12:40:45Z</time>
      </trkpt>
      <trkpt lat="45.22478" lon="5.99546">
        <ele>1350.8</ele>
        <time>2021-04-17T12:40:47Z</time>
      </trkpt>
      <trkpt lat="45.22479" lon="5.99545">
        <ele>1350.8</ele>
        <time>2021-04-17T12:40:48Z</time>
      </trkpt>
      <trkpt lat="45.22479" lon="5.99542">
        <ele>1351</ele>
        <time>2021-04-17T12:40:50Z</time>
      </trkpt>
      <trkpt lat="45.22481" lon="5.9954">
        <ele>1351.4</ele>
        <time>2021-04-17T12:40:53Z</time>
      </trkpt>
      <trkpt lat="45.22482" lon="5.99538">
        <ele>1351.6</ele>
        <time>2021-04-17T12:40:55Z</time>
      </trkpt>
      <trkpt lat="45.22483" lon="5.9953">
        <ele>1351.8</ele>
        <time>2021-04-17T12:41:01Z</time>
      </trkpt>
      <trkpt lat="45.22486" lon="5.99528">
        <ele>1351.8</ele>
        <time>2021-04-17T12:41:02Z</time>
      </trkpt>
      <trkpt lat="45.22487" lon="5.99527">
        <ele>1351.8</ele>
        <time>2021-04-17T12:41:04Z</time>
      </trkpt>
      <trkpt lat="45.22489" lon="5.99524">
        <ele>1351.8</ele>
        <time>2021-04-17T12:41:06Z</time>
      </trkpt>
      <trkpt lat="45.2249" lon="5.9952">
        <ele>1351.8</ele>
        <time>2021-04-17T12:41:08Z</time>
      </trkpt>
      <trkpt lat="45.22492" lon="5.99512">
        <ele>1352.2</ele>
        <time>2021-04-17T12:41:12Z</time>
      </trkpt>
      <trkpt lat="45.22493" lon="5.99509">
        <ele>1352.4</ele>
        <time>2021-04-17T12:41:14Z</time>
      </trkpt>
      <trkpt lat="45.22494" lon="5.99508">
        <ele>1352.4</ele>
        <time>2021-04-17T12:41:15Z</time>
      </trkpt>
      <trkpt lat="45.22496" lon="5.99505">
        <ele>1352.8</ele>
        <time>2021-04-17T12:41:17Z</time>
      </trkpt>
      <trkpt lat="45.22499" lon="5.99498">
        <ele>1353</ele>
        <time>2021-04-17T12:41:20Z</time>
      </trkpt>
      <trkpt lat="45.225" lon="5.99495">
        <ele>1353.2</ele>
        <time>2021-04-17T12:41:22Z</time>
      </trkpt>
      <trkpt lat="45.225" lon="5.99488">
        <ele>1353.4</ele>
        <time>2021-04-17T12:41:24Z</time>
      </trkpt>
      <trkpt lat="45.22502" lon="5.99486">
        <ele>1353.4</ele>
        <time>2021-04-17T12:41:25Z</time>
      </trkpt>
      <trkpt lat="45.22503" lon="5.99483">
        <ele>1353.4</ele>
        <time>2021-04-17T12:41:26Z</time>
      </trkpt>
      <trkpt lat="45.22503" lon="5.99475">
        <ele>1353.4</ele>
        <time>2021-04-17T12:41:29Z</time>
      </trkpt>
      <trkpt lat="45.22506" lon="5.99468">
        <ele>1353.6</ele>
        <time>2021-04-17T12:41:33Z</time>
      </trkpt>
      <trkpt lat="45.22506" lon="5.99462">
        <ele>1353.6</ele>
        <time>2021-04-17T12:41:37Z</time>
      </trkpt>
      <trkpt lat="45.22505" lon="5.99458">
        <ele>1353.8</ele>
        <time>2021-04-17T12:41:40Z</time>
      </trkpt>
      <trkpt lat="45.22504" lon="5.99454">
        <ele>1353.8</ele>
        <time>2021-04-17T12:41:42Z</time>
      </trkpt>
      <trkpt lat="45.225" lon="5.99443">
        <ele>1354</ele>
        <time>2021-04-17T12:41:48Z</time>
      </trkpt>
      <trkpt lat="45.225" lon="5.99439">
        <ele>1354.2</ele>
        <time>2021-04-17T12:41:50Z</time>
      </trkpt>
      <trkpt lat="45.22499" lon="5.99434">
        <ele>1354</ele>
        <time>2021-04-17T12:41:53Z</time>
      </trkpt>
      <trkpt lat="45.225" lon="5.99427">
        <ele>1354</ele>
        <time>2021-04-17T12:41:57Z</time>
      </trkpt>
      <trkpt lat="45.22502" lon="5.99423">
        <ele>1353.8</ele>
        <time>2021-04-17T12:41:59Z</time>
      </trkpt>
      <trkpt lat="45.22502" lon="5.99421">
        <ele>1353.8</ele>
        <time>2021-04-17T12:42:00Z</time>
      </trkpt>
      <trkpt lat="45.22507" lon="5.99414">
        <ele>1353.8</ele>
        <time>2021-04-17T12:42:04Z</time>
      </trkpt>
      <trkpt lat="45.22508" lon="5.99413">
        <ele>1353.8</ele>
        <time>2021-04-17T12:42:05Z</time>
      </trkpt>
      <trkpt lat="45.22512" lon="5.99408">
        <ele>1353.6</ele>
        <time>2021-04-17T12:42:08Z</time>
      </trkpt>
      <trkpt lat="45.22514" lon="5.99405">
        <ele>1353.4</ele>
        <time>2021-04-17T12:42:10Z</time>
      </trkpt>
      <trkpt lat="45.22515" lon="5.99404">
        <ele>1353.4</ele>
        <time>2021-04-17T12:42:11Z</time>
      </trkpt>
      <trkpt lat="45.22515" lon="5.99402">
        <ele>1353.4</ele>
        <time>2021-04-17T12:42:12Z</time>
      </trkpt>
      <trkpt lat="45.22518" lon="5.99399">
        <ele>1353.4</ele>
        <time>2021-04-17T12:42:14Z</time>
      </trkpt>
      <trkpt lat="45.22519" lon="5.99398">
        <ele>1353.4</ele>
        <time>2021-04-17T12:42:15Z</time>
      </trkpt>
      <trkpt lat="45.22525" lon="5.99394">
        <ele>1353.2</ele>
        <time>2021-04-17T12:42:18Z</time>
      </trkpt>
      <trkpt lat="45.22526" lon="5.99393">
        <ele>1353</ele>
        <time>2021-04-17T12:42:19Z</time>
      </trkpt>
      <trkpt lat="45.22531" lon="5.99386">
        <ele>1353</ele>
        <time>2021-04-17T12:42:23Z</time>
      </trkpt>
      <trkpt lat="45.22534" lon="5.99381">
        <ele>1352.8</ele>
        <time>2021-04-17T12:42:26Z</time>
      </trkpt>
      <trkpt lat="45.22536" lon="5.9938">
        <ele>1352.8</ele>
        <time>2021-04-17T12:42:28Z</time>
      </trkpt>
      <trkpt lat="45.22539" lon="5.99379">
        <ele>1352.8</ele>
        <time>2021-04-17T12:42:30Z</time>
      </trkpt>
      <trkpt lat="45.22543" lon="5.9938">
        <ele>1352.6</ele>
        <time>2021-04-17T12:42:32Z</time>
      </trkpt>
      <trkpt lat="45.22548" lon="5.99379">
        <ele>1352.6</ele>
        <time>2021-04-17T12:42:36Z</time>
      </trkpt>
      <trkpt lat="45.22552" lon="5.99379">
        <ele>1352.6</ele>
        <time>2021-04-17T12:42:38Z</time>
      </trkpt>
      <trkpt lat="45.22557" lon="5.99378">
        <ele>1352.4</ele>
        <time>2021-04-17T12:42:41Z</time>
      </trkpt>
      <trkpt lat="45.22558" lon="5.99378">
        <ele>1352.4</ele>
        <time>2021-04-17T12:42:42Z</time>
      </trkpt>
      <trkpt lat="45.22564" lon="5.99377">
        <ele>1352.2</ele>
        <time>2021-04-17T12:42:47Z</time>
      </trkpt>
      <trkpt lat="45.22575" lon="5.99379">
        <ele>1351.8</ele>
        <time>2021-04-17T12:42:53Z</time>
      </trkpt>
      <trkpt lat="45.22577" lon="5.9938">
        <ele>1351.8</ele>
        <time>2021-04-17T12:42:54Z</time>
      </trkpt>
      <trkpt lat="45.22579" lon="5.99381">
        <ele>1351.6</ele>
        <time>2021-04-17T12:42:56Z</time>
      </trkpt>
      <trkpt lat="45.22582" lon="5.99383">
        <ele>1351.8</ele>
        <time>2021-04-17T12:42:58Z</time>
      </trkpt>
      <trkpt lat="45.22586" lon="5.99384">
        <ele>1351.8</ele>
        <time>2021-04-17T12:43:01Z</time>
      </trkpt>
      <trkpt lat="45.2259" lon="5.99382">
        <ele>1351.8</ele>
        <time>2021-04-17T12:43:03Z</time>
      </trkpt>
      <trkpt lat="45.22591" lon="5.99382">
        <ele>1351.8</ele>
        <time>2021-04-17T12:43:04Z</time>
      </trkpt>
      <trkpt lat="45.22593" lon="5.99382">
        <ele>1352</ele>
        <time>2021-04-17T12:43:06Z</time>
      </trkpt>
      <trkpt lat="45.22594" lon="5.99382">
        <ele>1352.2</ele>
        <time>2021-04-17T12:43:07Z</time>
      </trkpt>
      <trkpt lat="45.22603" lon="5.99383">
        <ele>1352.8</ele>
        <time>2021-04-17T12:43:13Z</time>
      </trkpt>
      <trkpt lat="45.22605" lon="5.99383">
        <ele>1352.8</ele>
        <time>2021-04-17T12:43:15Z</time>
      </trkpt>
      <trkpt lat="45.2261" lon="5.99383">
        <ele>1353</ele>
        <time>2021-04-17T12:43:18Z</time>
      </trkpt>
      <trkpt lat="45.22613" lon="5.99383">
        <ele>1353</ele>
        <time>2021-04-17T12:43:20Z</time>
      </trkpt>
      <trkpt lat="45.22618" lon="5.99383">
        <ele>1353</ele>
        <time>2021-04-17T12:43:22Z</time>
      </trkpt>
      <trkpt lat="45.22625" lon="5.99386">
        <ele>1353.2</ele>
        <time>2021-04-17T12:43:27Z</time>
      </trkpt>
      <trkpt lat="45.22628" lon="5.99387">
        <ele>1353.2</ele>
        <time>2021-04-17T12:43:29Z</time>
      </trkpt>
      <trkpt lat="45.22629" lon="5.99388">
        <ele>1353.4</ele>
        <time>2021-04-17T12:43:31Z</time>
      </trkpt>
      <trkpt lat="45.22632" lon="5.99388">
        <ele>1353.6</ele>
        <time>2021-04-17T12:43:33Z</time>
      </trkpt>
      <trkpt lat="45.22633" lon="5.99389">
        <ele>1353.8</ele>
        <time>2021-04-17T12:43:34Z</time>
      </trkpt>
      <trkpt lat="45.2264" lon="5.99392">
        <ele>1353.8</ele>
        <time>2021-04-17T12:43:38Z</time>
      </trkpt>
      <trkpt lat="45.22642" lon="5.99392">
        <ele>1353.8</ele>
        <time>2021-04-17T12:43:39Z</time>
      </trkpt>
      <trkpt lat="45.22643" lon="5.99392">
        <ele>1353.8</ele>
        <time>2021-04-17T12:43:40Z</time>
      </trkpt>
      <trkpt lat="45.22649" lon="5.99395">
        <ele>1353.4</ele>
        <time>2021-04-17T12:43:46Z</time>
      </trkpt>
      <trkpt lat="45.22651" lon="5.99396">
        <ele>1353.4</ele>
        <time>2021-04-17T12:43:47Z</time>
      </trkpt>
      <trkpt lat="45.22656" lon="5.99398">
        <ele>1353.4</ele>
        <time>2021-04-17T12:43:50Z</time>
      </trkpt>
      <trkpt lat="45.22659" lon="5.99399">
        <ele>1353.4</ele>
        <time>2021-04-17T12:43:53Z</time>
      </trkpt>
      <trkpt lat="45.22662" lon="5.99401">
        <ele>1353.6</ele>
        <time>2021-04-17T12:43:55Z</time>
      </trkpt>
      <trkpt lat="45.22668" lon="5.99402">
        <ele>1353.8</ele>
        <time>2021-04-17T12:43:59Z</time>
      </trkpt>
      <trkpt lat="45.22673" lon="5.99402">
        <ele>1354</ele>
        <time>2021-04-17T12:44:03Z</time>
      </trkpt>
      <trkpt lat="45.22681" lon="5.99403">
        <ele>1354.4</ele>
        <time>2021-04-17T12:44:09Z</time>
      </trkpt>
      <trkpt lat="45.22684" lon="5.99403">
        <ele>1354.4</ele>
        <time>2021-04-17T12:44:12Z</time>
      </trkpt>
      <trkpt lat="45.22692" lon="5.994">
        <ele>1353.8</ele>
        <time>2021-04-17T12:44:18Z</time>
      </trkpt>
      <trkpt lat="45.22694" lon="5.99397">
        <ele>1353.6</ele>
        <time>2021-04-17T12:44:20Z</time>
      </trkpt>
      <trkpt lat="45.22694" lon="5.99395">
        <ele>1353.2</ele>
        <time>2021-04-17T12:44:22Z</time>
      </trkpt>
      <trkpt lat="45.22694" lon="5.99394">
        <ele>1353</ele>
        <time>2021-04-17T12:44:26Z</time>
      </trkpt>
      <trkpt lat="45.22694" lon="5.99394">
        <ele>1353</ele>
        <time>2021-04-17T12:44:27Z</time>
      </trkpt>
      <trkpt lat="45.22697" lon="5.99394">
        <ele>1353</ele>
        <time>2021-04-17T12:44:33Z</time>
      </trkpt>
      <trkpt lat="45.22697" lon="5.99393">
        <ele>1353</ele>
        <time>2021-04-17T12:44:34Z</time>
      </trkpt>
    </trkseg>
  </trk>
</gpx>